<?xml version="1.0" encoding="UTF-8" standalone="no" ?>
<gpx xmlns="http://www.topografix.com/GPX/1/1" xmlns:xsi="http://www.w3.org/2001/XMLSchema-instance" xsi:schemaLocation="http://www.topografix.com/GPX/1/1 http://www.topografix.com/GPX/1/1/gpx.xsd" version="1.1" creator="VisuGPX - https://www.visugpx.com">
  <metadata>
    <name>Balade hivernale</name>
    <desc><![CDATA[Balade effectuée du 9 décembre 2022 au 7 janvier 2023.]]></desc>
  </metadata>
  <trk>
    <name><![CDATA[Loperhet - Spezet]]></name>
    <extensions>
      <line xmlns="http://www.topografix.com/GPX/gpx_style/0/2">
        <color>ff0000</color>
        <width>4</width>
      </line>
    </extensions>
    <trkseg>
      <trkpt lat="48.37601" lon="-4.31478">
        <ele>121.9784</ele>
        <time>2022-12-10T09:26:09.451Z</time>
      </trkpt>
      <trkpt lat="48.37607" lon="-4.31457">
        <ele>121.9784</ele>
        <time>2022-12-10T09:27:26.124Z</time>
      </trkpt>
      <trkpt lat="48.37615" lon="-4.31445">
        <ele>121.9784</ele>
        <time>2022-12-10T09:27:30.134Z</time>
      </trkpt>
      <trkpt lat="48.37621" lon="-4.31433">
        <ele>121.9784</ele>
        <time>2022-12-10T09:27:33.129Z</time>
      </trkpt>
      <trkpt lat="48.37627" lon="-4.31418">
        <ele>121.9784</ele>
        <time>2022-12-10T09:27:37.137Z</time>
      </trkpt>
      <trkpt lat="48.37634" lon="-4.31404">
        <ele>121.9784</ele>
        <time>2022-12-10T09:27:41.118Z</time>
      </trkpt>
      <trkpt lat="48.37639" lon="-4.31392">
        <ele>121.9784</ele>
        <time>2022-12-10T09:27:44.131Z</time>
      </trkpt>
      <trkpt lat="48.37646" lon="-4.3138">
        <ele>121.9784</ele>
        <time>2022-12-10T09:27:47.133Z</time>
      </trkpt>
      <trkpt lat="48.37653" lon="-4.31367">
        <ele>121.967579</ele>
        <time>2022-12-10T09:27:50.118Z</time>
      </trkpt>
      <trkpt lat="48.3766" lon="-4.31354">
        <ele>121.83362</ele>
        <time>2022-12-10T09:27:53.142Z</time>
      </trkpt>
      <trkpt lat="48.37667" lon="-4.3134">
        <ele>121.700768</ele>
        <time>2022-12-10T09:27:56.119Z</time>
      </trkpt>
      <trkpt lat="48.37674" lon="-4.31327">
        <ele>121.563682</ele>
        <time>2022-12-10T09:27:59.130Z</time>
      </trkpt>
      <trkpt lat="48.3768" lon="-4.31312">
        <ele>121.419657</ele>
        <time>2022-12-10T09:28:02.130Z</time>
      </trkpt>
      <trkpt lat="48.37688" lon="-4.31296">
        <ele>121.264314</ele>
        <time>2022-12-10T09:28:05.141Z</time>
      </trkpt>
      <trkpt lat="48.37695" lon="-4.3128">
        <ele>121.112164</ele>
        <time>2022-12-10T09:28:08.128Z</time>
      </trkpt>
      <trkpt lat="48.37701" lon="-4.31267">
        <ele>120.984734</ele>
        <time>2022-12-10T09:28:11.134Z</time>
      </trkpt>
      <trkpt lat="48.37708" lon="-4.31255">
        <ele>120.856755</ele>
        <time>2022-12-10T09:28:14.145Z</time>
      </trkpt>
      <trkpt lat="48.37716" lon="-4.31239">
        <ele>120.70245</ele>
        <time>2022-12-10T09:28:17.133Z</time>
      </trkpt>
      <trkpt lat="48.37722" lon="-4.31229">
        <ele>120.590704</ele>
        <time>2022-12-10T09:28:19.137Z</time>
      </trkpt>
      <trkpt lat="48.37728" lon="-4.31217">
        <ele>120.467331</ele>
        <time>2022-12-10T09:28:21.130Z</time>
      </trkpt>
      <trkpt lat="48.37735" lon="-4.31205">
        <ele>120.345635</ele>
        <time>2022-12-10T09:28:23.119Z</time>
      </trkpt>
      <trkpt lat="48.37741" lon="-4.31194">
        <ele>120.228922</ele>
        <time>2022-12-10T09:28:25.130Z</time>
      </trkpt>
      <trkpt lat="48.37748" lon="-4.31184">
        <ele>120.110875</ele>
        <time>2022-12-10T09:28:27.115Z</time>
      </trkpt>
      <trkpt lat="48.37755" lon="-4.31174">
        <ele>119.994878</ele>
        <time>2022-12-10T09:28:29.135Z</time>
      </trkpt>
      <trkpt lat="48.37765" lon="-4.3116">
        <ele>119.835415</ele>
        <time>2022-12-10T09:28:32.136Z</time>
      </trkpt>
      <trkpt lat="48.37774" lon="-4.31147">
        <ele>119.774585</ele>
        <time>2022-12-10T09:28:35.131Z</time>
      </trkpt>
      <trkpt lat="48.37779" lon="-4.31135">
        <ele>119.732007</ele>
        <time>2022-12-10T09:28:38.121Z</time>
      </trkpt>
      <trkpt lat="48.37779" lon="-4.31121">
        <ele>119.693549</ele>
        <time>2022-12-10T09:28:41.118Z</time>
      </trkpt>
      <trkpt lat="48.37777" lon="-4.31105">
        <ele>119.648287</ele>
        <time>2022-12-10T09:28:45.133Z</time>
      </trkpt>
      <trkpt lat="48.37775" lon="-4.3109">
        <ele>119.604348</ele>
        <time>2022-12-10T09:28:48.136Z</time>
      </trkpt>
      <trkpt lat="48.37772" lon="-4.31075">
        <ele>119.558881</ele>
        <time>2022-12-10T09:28:51.127Z</time>
      </trkpt>
      <trkpt lat="48.37768" lon="-4.31059">
        <ele>119.510724</ele>
        <time>2022-12-10T09:28:54.142Z</time>
      </trkpt>
      <trkpt lat="48.37763" lon="-4.31044">
        <ele>119.464142</ele>
        <time>2022-12-10T09:28:57.136Z</time>
      </trkpt>
      <trkpt lat="48.37758" lon="-4.31028">
        <ele>119.413407</ele>
        <time>2022-12-10T09:29:00.131Z</time>
      </trkpt>
      <trkpt lat="48.37754" lon="-4.3101">
        <ele>119.361054</ele>
        <time>2022-12-10T09:29:03.130Z</time>
      </trkpt>
      <trkpt lat="48.37747" lon="-4.30995">
        <ele>119.309537</ele>
        <time>2022-12-10T09:29:06.141Z</time>
      </trkpt>
      <trkpt lat="48.3774" lon="-4.3098">
        <ele>119.257787</ele>
        <time>2022-12-10T09:29:09.127Z</time>
      </trkpt>
      <trkpt lat="48.37734" lon="-4.30963">
        <ele>119.204716</ele>
        <time>2022-12-10T09:29:12.134Z</time>
      </trkpt>
      <trkpt lat="48.37727" lon="-4.30948">
        <ele>119.15196</ele>
        <time>2022-12-10T09:29:15.135Z</time>
      </trkpt>
      <trkpt lat="48.37719" lon="-4.30933">
        <ele>119.097761</ele>
        <time>2022-12-10T09:29:18.135Z</time>
      </trkpt>
      <trkpt lat="48.37711" lon="-4.30918">
        <ele>119.06547</ele>
        <time>2022-12-10T09:29:21.144Z</time>
      </trkpt>
      <trkpt lat="48.37704" lon="-4.30905">
        <ele>119.102523</ele>
        <time>2022-12-10T09:29:24.132Z</time>
      </trkpt>
      <trkpt lat="48.37697" lon="-4.30893">
        <ele>119.134606</ele>
        <time>2022-12-10T09:29:27.142Z</time>
      </trkpt>
      <trkpt lat="48.3769" lon="-4.30882">
        <ele>119.168067</ele>
        <time>2022-12-10T09:29:30.158Z</time>
      </trkpt>
      <trkpt lat="48.37682" lon="-4.30869">
        <ele>119.204894</ele>
        <time>2022-12-10T09:29:33.115Z</time>
      </trkpt>
      <trkpt lat="48.37674" lon="-4.30854">
        <ele>119.243989</ele>
        <time>2022-12-10T09:29:36.115Z</time>
      </trkpt>
      <trkpt lat="48.37666" lon="-4.3084">
        <ele>119.283752</ele>
        <time>2022-12-10T09:29:39.136Z</time>
      </trkpt>
      <trkpt lat="48.37658" lon="-4.30826">
        <ele>119.321577</ele>
        <time>2022-12-10T09:29:42.142Z</time>
      </trkpt>
      <trkpt lat="48.37651" lon="-4.30812">
        <ele>119.358869</ele>
        <time>2022-12-10T09:29:45.141Z</time>
      </trkpt>
      <trkpt lat="48.37643" lon="-4.30799">
        <ele>119.395896</ele>
        <time>2022-12-10T09:29:48.140Z</time>
      </trkpt>
      <trkpt lat="48.37637" lon="-4.30785">
        <ele>119.433149</ele>
        <time>2022-12-10T09:29:51.134Z</time>
      </trkpt>
      <trkpt lat="48.37633" lon="-4.30769">
        <ele>119.469268</ele>
        <time>2022-12-10T09:29:54.119Z</time>
      </trkpt>
      <trkpt lat="48.3763" lon="-4.30755">
        <ele>119.49959</ele>
        <time>2022-12-10T09:29:57.116Z</time>
      </trkpt>
      <trkpt lat="48.37626" lon="-4.30739">
        <ele>119.535932</ele>
        <time>2022-12-10T09:30:01.121Z</time>
      </trkpt>
      <trkpt lat="48.37621" lon="-4.30723">
        <ele>119.572156</ele>
        <time>2022-12-10T09:30:05.143Z</time>
      </trkpt>
      <trkpt lat="48.37616" lon="-4.30712">
        <ele>119.60204</ele>
        <time>2022-12-10T09:30:18.119Z</time>
      </trkpt>
      <trkpt lat="48.37616" lon="-4.30708">
        <ele>119.609628</ele>
        <time>2022-12-10T09:30:31.047Z</time>
      </trkpt>
      <trkpt lat="48.37627" lon="-4.30722">
        <ele>119.438896</ele>
        <time>2022-12-10T09:35:20.141Z</time>
      </trkpt>
      <trkpt lat="48.37632" lon="-4.30735">
        <ele>119.250457</ele>
        <time>2022-12-10T09:35:24.142Z</time>
      </trkpt>
      <trkpt lat="48.37635" lon="-4.30751">
        <ele>119.037641</ele>
        <time>2022-12-10T09:35:30.123Z</time>
      </trkpt>
      <trkpt lat="48.37633" lon="-4.30765">
        <ele>118.844523</ele>
        <time>2022-12-10T09:35:38.124Z</time>
      </trkpt>
      <trkpt lat="48.37625" lon="-4.30773">
        <ele>118.653056</ele>
        <time>2022-12-10T09:35:45.128Z</time>
      </trkpt>
      <trkpt lat="48.37617" lon="-4.30762">
        <ele>118.44708</ele>
        <time>2022-12-10T09:35:51.127Z</time>
      </trkpt>
      <trkpt lat="48.37611" lon="-4.3075">
        <ele>118.248215</ele>
        <time>2022-12-10T09:35:54.122Z</time>
      </trkpt>
      <trkpt lat="48.37602" lon="-4.30736">
        <ele>117.984754</ele>
        <time>2022-12-10T09:35:57.125Z</time>
      </trkpt>
      <trkpt lat="48.37596" lon="-4.30725">
        <ele>117.795888</ele>
        <time>2022-12-10T09:35:59.132Z</time>
      </trkpt>
      <trkpt lat="48.3759" lon="-4.30713">
        <ele>117.60134</ele>
        <time>2022-12-10T09:36:01.141Z</time>
      </trkpt>
      <trkpt lat="48.37583" lon="-4.30699">
        <ele>117.383056</ele>
        <time>2022-12-10T09:36:03.131Z</time>
      </trkpt>
      <trkpt lat="48.37577" lon="-4.30685">
        <ele>117.16482</ele>
        <time>2022-12-10T09:36:05.144Z</time>
      </trkpt>
      <trkpt lat="48.37571" lon="-4.30671">
        <ele>116.948865</ele>
        <time>2022-12-10T09:36:07.140Z</time>
      </trkpt>
      <trkpt lat="48.37566" lon="-4.30658">
        <ele>116.740308</ele>
        <time>2022-12-10T09:36:09.139Z</time>
      </trkpt>
      <trkpt lat="48.37561" lon="-4.30645">
        <ele>116.54265</ele>
        <time>2022-12-10T09:36:11.137Z</time>
      </trkpt>
      <trkpt lat="48.37557" lon="-4.30632">
        <ele>116.359896</ele>
        <time>2022-12-10T09:36:13.144Z</time>
      </trkpt>
      <trkpt lat="48.37552" lon="-4.30615">
        <ele>116.109985</ele>
        <time>2022-12-10T09:36:16.146Z</time>
      </trkpt>
      <trkpt lat="48.37548" lon="-4.30599">
        <ele>116.012865</ele>
        <time>2022-12-10T09:36:19.146Z</time>
      </trkpt>
      <trkpt lat="48.37545" lon="-4.30585">
        <ele>115.940905</ele>
        <time>2022-12-10T09:36:22.152Z</time>
      </trkpt>
      <trkpt lat="48.37543" lon="-4.3057">
        <ele>115.86746</ele>
        <time>2022-12-10T09:36:25.141Z</time>
      </trkpt>
      <trkpt lat="48.3754" lon="-4.30554">
        <ele>115.787203</ele>
        <time>2022-12-10T09:36:28.138Z</time>
      </trkpt>
      <trkpt lat="48.37538" lon="-4.30537">
        <ele>115.703186</ele>
        <time>2022-12-10T09:36:31.132Z</time>
      </trkpt>
      <trkpt lat="48.37536" lon="-4.3052">
        <ele>115.619073</ele>
        <time>2022-12-10T09:36:34.145Z</time>
      </trkpt>
      <trkpt lat="48.37535" lon="-4.30503">
        <ele>115.53906</ele>
        <time>2022-12-10T09:36:37.146Z</time>
      </trkpt>
      <trkpt lat="48.37534" lon="-4.30487">
        <ele>115.46285</ele>
        <time>2022-12-10T09:36:40.125Z</time>
      </trkpt>
      <trkpt lat="48.37534" lon="-4.30471">
        <ele>115.384356</ele>
        <time>2022-12-10T09:36:43.137Z</time>
      </trkpt>
      <trkpt lat="48.37533" lon="-4.30454">
        <ele>115.302335</ele>
        <time>2022-12-10T09:36:46.151Z</time>
      </trkpt>
      <trkpt lat="48.37533" lon="-4.30437">
        <ele>115.222383</ele>
        <time>2022-12-10T09:36:49.140Z</time>
      </trkpt>
      <trkpt lat="48.37533" lon="-4.30421">
        <ele>115.142442</ele>
        <time>2022-12-10T09:36:52.152Z</time>
      </trkpt>
      <trkpt lat="48.37533" lon="-4.30403">
        <ele>115.055277</ele>
        <time>2022-12-10T09:36:55.142Z</time>
      </trkpt>
      <trkpt lat="48.37534" lon="-4.30383">
        <ele>114.961304</ele>
        <time>2022-12-10T09:36:58.147Z</time>
      </trkpt>
      <trkpt lat="48.37535" lon="-4.3037">
        <ele>114.895668</ele>
        <time>2022-12-10T09:37:00.150Z</time>
      </trkpt>
      <trkpt lat="48.37536" lon="-4.30356">
        <ele>114.828819</ele>
        <time>2022-12-10T09:37:02.133Z</time>
      </trkpt>
      <trkpt lat="48.37537" lon="-4.30342">
        <ele>114.63634</ele>
        <time>2022-12-10T09:37:04.148Z</time>
      </trkpt>
      <trkpt lat="48.37538" lon="-4.30327">
        <ele>114.077978</ele>
        <time>2022-12-10T09:37:06.145Z</time>
      </trkpt>
      <trkpt lat="48.3754" lon="-4.30312">
        <ele>113.514799</ele>
        <time>2022-12-10T09:37:08.142Z</time>
      </trkpt>
      <trkpt lat="48.37542" lon="-4.30298">
        <ele>112.962669</ele>
        <time>2022-12-10T09:37:10.123Z</time>
      </trkpt>
      <trkpt lat="48.37545" lon="-4.30283">
        <ele>112.387681</ele>
        <time>2022-12-10T09:37:12.146Z</time>
      </trkpt>
      <trkpt lat="48.37548" lon="-4.30269">
        <ele>111.82925</ele>
        <time>2022-12-10T09:37:14.137Z</time>
      </trkpt>
      <trkpt lat="48.37551" lon="-4.30255">
        <ele>111.269537</ele>
        <time>2022-12-10T09:37:16.138Z</time>
      </trkpt>
      <trkpt lat="48.37555" lon="-4.30243">
        <ele>110.746453</ele>
        <time>2022-12-10T09:37:18.149Z</time>
      </trkpt>
      <trkpt lat="48.37561" lon="-4.30225">
        <ele>109.993692</ele>
        <time>2022-12-10T09:37:21.126Z</time>
      </trkpt>
      <trkpt lat="48.37566" lon="-4.30211">
        <ele>109.408188</ele>
        <time>2022-12-10T09:37:23.121Z</time>
      </trkpt>
      <trkpt lat="48.37571" lon="-4.30198">
        <ele>108.844681</ele>
        <time>2022-12-10T09:37:25.146Z</time>
      </trkpt>
      <trkpt lat="48.37576" lon="-4.30186">
        <ele>108.299337</ele>
        <time>2022-12-10T09:37:27.148Z</time>
      </trkpt>
      <trkpt lat="48.37581" lon="-4.30173">
        <ele>107.718302</ele>
        <time>2022-12-10T09:37:29.146Z</time>
      </trkpt>
      <trkpt lat="48.37587" lon="-4.3016">
        <ele>107.133857</ele>
        <time>2022-12-10T09:37:31.145Z</time>
      </trkpt>
      <trkpt lat="48.37592" lon="-4.30146">
        <ele>106.537013</ele>
        <time>2022-12-10T09:37:33.154Z</time>
      </trkpt>
      <trkpt lat="48.37598" lon="-4.30133">
        <ele>105.943463</ele>
        <time>2022-12-10T09:37:35.153Z</time>
      </trkpt>
      <trkpt lat="48.37603" lon="-4.3012">
        <ele>105.377137</ele>
        <time>2022-12-10T09:37:37.151Z</time>
      </trkpt>
      <trkpt lat="48.37608" lon="-4.30107">
        <ele>104.80209</ele>
        <time>2022-12-10T09:37:39.133Z</time>
      </trkpt>
      <trkpt lat="48.37614" lon="-4.30094">
        <ele>104.285173</ele>
        <time>2022-12-10T09:37:41.145Z</time>
      </trkpt>
      <trkpt lat="48.37621" lon="-4.30082">
        <ele>103.832372</ele>
        <time>2022-12-10T09:37:43.137Z</time>
      </trkpt>
      <trkpt lat="48.37626" lon="-4.30068">
        <ele>103.355792</ele>
        <time>2022-12-10T09:37:45.130Z</time>
      </trkpt>
      <trkpt lat="48.37632" lon="-4.30053">
        <ele>102.868647</ele>
        <time>2022-12-10T09:37:47.134Z</time>
      </trkpt>
      <trkpt lat="48.37638" lon="-4.30039">
        <ele>102.353415</ele>
        <time>2022-12-10T09:37:49.143Z</time>
      </trkpt>
      <trkpt lat="48.37646" lon="-4.30024">
        <ele>101.830213</ele>
        <time>2022-12-10T09:37:51.140Z</time>
      </trkpt>
      <trkpt lat="48.37652" lon="-4.3001">
        <ele>101.3195</ele>
        <time>2022-12-10T09:37:53.147Z</time>
      </trkpt>
      <trkpt lat="48.37658" lon="-4.29996">
        <ele>100.835895</ele>
        <time>2022-12-10T09:37:55.148Z</time>
      </trkpt>
      <trkpt lat="48.37665" lon="-4.29981">
        <ele>100.323059</ele>
        <time>2022-12-10T09:37:57.133Z</time>
      </trkpt>
      <trkpt lat="48.37672" lon="-4.29966">
        <ele>99.781129</ele>
        <time>2022-12-10T09:37:59.152Z</time>
      </trkpt>
      <trkpt lat="48.37678" lon="-4.2995">
        <ele>99.236707</ele>
        <time>2022-12-10T09:38:01.133Z</time>
      </trkpt>
      <trkpt lat="48.37685" lon="-4.29934">
        <ele>98.687454</ele>
        <time>2022-12-10T09:38:03.149Z</time>
      </trkpt>
      <trkpt lat="48.37692" lon="-4.29919">
        <ele>98.160103</ele>
        <time>2022-12-10T09:38:05.129Z</time>
      </trkpt>
      <trkpt lat="48.37698" lon="-4.29904">
        <ele>97.646767</ele>
        <time>2022-12-10T09:38:07.146Z</time>
      </trkpt>
      <trkpt lat="48.37704" lon="-4.29889">
        <ele>97.126543</ele>
        <time>2022-12-10T09:38:09.148Z</time>
      </trkpt>
      <trkpt lat="48.37709" lon="-4.29874">
        <ele>96.642593</ele>
        <time>2022-12-10T09:38:11.146Z</time>
      </trkpt>
      <trkpt lat="48.37715" lon="-4.2986">
        <ele>96.303378</ele>
        <time>2022-12-10T09:38:13.155Z</time>
      </trkpt>
      <trkpt lat="48.3772" lon="-4.29847">
        <ele>95.976512</ele>
        <time>2022-12-10T09:38:15.123Z</time>
      </trkpt>
      <trkpt lat="48.37725" lon="-4.29833">
        <ele>95.655331</ele>
        <time>2022-12-10T09:38:17.133Z</time>
      </trkpt>
      <trkpt lat="48.3773" lon="-4.2982">
        <ele>95.346658</ele>
        <time>2022-12-10T09:38:19.122Z</time>
      </trkpt>
      <trkpt lat="48.37735" lon="-4.29808">
        <ele>95.042593</ele>
        <time>2022-12-10T09:38:21.146Z</time>
      </trkpt>
      <trkpt lat="48.3774" lon="-4.29795">
        <ele>94.736296</ele>
        <time>2022-12-10T09:38:23.151Z</time>
      </trkpt>
      <trkpt lat="48.37746" lon="-4.29782">
        <ele>94.399274</ele>
        <time>2022-12-10T09:38:25.149Z</time>
      </trkpt>
      <trkpt lat="48.37752" lon="-4.2977">
        <ele>94.081171</ele>
        <time>2022-12-10T09:38:27.147Z</time>
      </trkpt>
      <trkpt lat="48.37757" lon="-4.29756">
        <ele>93.761283</ele>
        <time>2022-12-10T09:38:29.148Z</time>
      </trkpt>
      <trkpt lat="48.37763" lon="-4.29743">
        <ele>93.424216</ele>
        <time>2022-12-10T09:38:31.142Z</time>
      </trkpt>
      <trkpt lat="48.3777" lon="-4.2973">
        <ele>93.080426</ele>
        <time>2022-12-10T09:38:33.121Z</time>
      </trkpt>
      <trkpt lat="48.37777" lon="-4.29717">
        <ele>92.729434</ele>
        <time>2022-12-10T09:38:35.151Z</time>
      </trkpt>
      <trkpt lat="48.37784" lon="-4.29705">
        <ele>92.389568</ele>
        <time>2022-12-10T09:38:37.133Z</time>
      </trkpt>
      <trkpt lat="48.37791" lon="-4.29691">
        <ele>92.037621</ele>
        <time>2022-12-10T09:38:39.137Z</time>
      </trkpt>
      <trkpt lat="48.37799" lon="-4.29678">
        <ele>91.672277</ele>
        <time>2022-12-10T09:38:41.142Z</time>
      </trkpt>
      <trkpt lat="48.37806" lon="-4.29665">
        <ele>91.319673</ele>
        <time>2022-12-10T09:38:43.149Z</time>
      </trkpt>
      <trkpt lat="48.37813" lon="-4.29653">
        <ele>91.009753</ele>
        <time>2022-12-10T09:38:45.149Z</time>
      </trkpt>
      <trkpt lat="48.37821" lon="-4.29642">
        <ele>90.906603</ele>
        <time>2022-12-10T09:38:47.147Z</time>
      </trkpt>
      <trkpt lat="48.37829" lon="-4.29629">
        <ele>90.803826</ele>
        <time>2022-12-10T09:38:49.146Z</time>
      </trkpt>
      <trkpt lat="48.37836" lon="-4.29618">
        <ele>90.705498</ele>
        <time>2022-12-10T09:38:51.121Z</time>
      </trkpt>
      <trkpt lat="48.37844" lon="-4.29606">
        <ele>90.601039</ele>
        <time>2022-12-10T09:38:53.143Z</time>
      </trkpt>
      <trkpt lat="48.37853" lon="-4.29594">
        <ele>90.491051</ele>
        <time>2022-12-10T09:38:55.138Z</time>
      </trkpt>
      <trkpt lat="48.37861" lon="-4.29581">
        <ele>90.380242</ele>
        <time>2022-12-10T09:38:57.121Z</time>
      </trkpt>
      <trkpt lat="48.3787" lon="-4.29569">
        <ele>90.267875</ele>
        <time>2022-12-10T09:38:59.138Z</time>
      </trkpt>
      <trkpt lat="48.37878" lon="-4.29555">
        <ele>90.15287</ele>
        <time>2022-12-10T09:39:01.130Z</time>
      </trkpt>
      <trkpt lat="48.37886" lon="-4.29541">
        <ele>90.039473</ele>
        <time>2022-12-10T09:39:03.149Z</time>
      </trkpt>
      <trkpt lat="48.37894" lon="-4.29528">
        <ele>89.925455</ele>
        <time>2022-12-10T09:39:05.139Z</time>
      </trkpt>
      <trkpt lat="48.37902" lon="-4.29514">
        <ele>89.817239</ele>
        <time>2022-12-10T09:39:07.150Z</time>
      </trkpt>
      <trkpt lat="48.37909" lon="-4.29502">
        <ele>89.715207</ele>
        <time>2022-12-10T09:39:09.131Z</time>
      </trkpt>
      <trkpt lat="48.37915" lon="-4.29491">
        <ele>89.628952</ele>
        <time>2022-12-10T09:39:11.150Z</time>
      </trkpt>
      <trkpt lat="48.37921" lon="-4.29475">
        <ele>89.515649</ele>
        <time>2022-12-10T09:39:14.147Z</time>
      </trkpt>
      <trkpt lat="48.37926" lon="-4.29461">
        <ele>89.417375</ele>
        <time>2022-12-10T09:39:17.119Z</time>
      </trkpt>
      <trkpt lat="48.37933" lon="-4.29449">
        <ele>89.405714</ele>
        <time>2022-12-10T09:39:20.141Z</time>
      </trkpt>
      <trkpt lat="48.37938" lon="-4.29436">
        <ele>89.612577</ele>
        <time>2022-12-10T09:39:23.130Z</time>
      </trkpt>
      <trkpt lat="48.37942" lon="-4.29422">
        <ele>89.810897</ele>
        <time>2022-12-10T09:39:26.139Z</time>
      </trkpt>
      <trkpt lat="48.37946" lon="-4.29409">
        <ele>90.010052</ele>
        <time>2022-12-10T09:39:29.150Z</time>
      </trkpt>
      <trkpt lat="48.3795" lon="-4.29394">
        <ele>90.213664</ele>
        <time>2022-12-10T09:39:32.149Z</time>
      </trkpt>
      <trkpt lat="48.37953" lon="-4.29379">
        <ele>90.422948</ele>
        <time>2022-12-10T09:39:35.152Z</time>
      </trkpt>
      <trkpt lat="48.37954" lon="-4.29363">
        <ele>90.645142</ele>
        <time>2022-12-10T09:39:38.117Z</time>
      </trkpt>
      <trkpt lat="48.37955" lon="-4.29345">
        <ele>90.884832</ele>
        <time>2022-12-10T09:39:41.124Z</time>
      </trkpt>
      <trkpt lat="48.37956" lon="-4.29326">
        <ele>91.13279</ele>
        <time>2022-12-10T09:39:44.138Z</time>
      </trkpt>
      <trkpt lat="48.37956" lon="-4.29306">
        <ele>91.394385</ele>
        <time>2022-12-10T09:39:47.122Z</time>
      </trkpt>
      <trkpt lat="48.37956" lon="-4.29292">
        <ele>91.579</ele>
        <time>2022-12-10T09:39:49.138Z</time>
      </trkpt>
      <trkpt lat="48.37954" lon="-4.29273">
        <ele>91.844645</ele>
        <time>2022-12-10T09:39:52.121Z</time>
      </trkpt>
      <trkpt lat="48.37951" lon="-4.29256">
        <ele>92.071508</ele>
        <time>2022-12-10T09:39:55.143Z</time>
      </trkpt>
      <trkpt lat="48.37949" lon="-4.29242">
        <ele>92.260433</ele>
        <time>2022-12-10T09:39:58.134Z</time>
      </trkpt>
      <trkpt lat="48.37946" lon="-4.29229">
        <ele>92.448882</ele>
        <time>2022-12-10T09:40:01.149Z</time>
      </trkpt>
      <trkpt lat="48.37944" lon="-4.29211">
        <ele>92.684033</ele>
        <time>2022-12-10T09:40:05.146Z</time>
      </trkpt>
      <trkpt lat="48.3794" lon="-4.29195">
        <ele>92.914673</ele>
        <time>2022-12-10T09:40:09.145Z</time>
      </trkpt>
      <trkpt lat="48.37937" lon="-4.29178">
        <ele>93.428334</ele>
        <time>2022-12-10T09:40:13.146Z</time>
      </trkpt>
      <trkpt lat="48.37933" lon="-4.29161">
        <ele>93.979092</ele>
        <time>2022-12-10T09:40:17.147Z</time>
      </trkpt>
      <trkpt lat="48.3793" lon="-4.29146">
        <ele>94.499869</ele>
        <time>2022-12-10T09:40:21.122Z</time>
      </trkpt>
      <trkpt lat="48.37927" lon="-4.29131">
        <ele>95.000873</ele>
        <time>2022-12-10T09:40:25.143Z</time>
      </trkpt>
      <trkpt lat="48.37923" lon="-4.29117">
        <ele>95.451934</ele>
        <time>2022-12-10T09:40:29.125Z</time>
      </trkpt>
      <trkpt lat="48.37917" lon="-4.29105">
        <ele>95.961254</ele>
        <time>2022-12-10T09:40:34.134Z</time>
      </trkpt>
      <trkpt lat="48.3791" lon="-4.29093">
        <ele>96.459871</ele>
        <time>2022-12-10T09:40:39.130Z</time>
      </trkpt>
      <trkpt lat="48.37904" lon="-4.29082">
        <ele>96.892937</ele>
        <time>2022-12-10T09:40:44.132Z</time>
      </trkpt>
      <trkpt lat="48.37896" lon="-4.29074">
        <ele>97.382095</ele>
        <time>2022-12-10T09:40:50.130Z</time>
      </trkpt>
      <trkpt lat="48.37886" lon="-4.29066">
        <ele>97.874314</ele>
        <time>2022-12-10T09:40:56.128Z</time>
      </trkpt>
      <trkpt lat="48.37877" lon="-4.29061">
        <ele>98.356478</ele>
        <time>2022-12-10T09:41:02.129Z</time>
      </trkpt>
      <trkpt lat="48.37868" lon="-4.2906">
        <ele>98.782034</ele>
        <time>2022-12-10T09:41:07.124Z</time>
      </trkpt>
      <trkpt lat="48.37858" lon="-4.29058">
        <ele>99.273948</ele>
        <time>2022-12-10T09:41:13.137Z</time>
      </trkpt>
      <trkpt lat="48.37848" lon="-4.2906">
        <ele>99.743805</ele>
        <time>2022-12-10T09:41:19.119Z</time>
      </trkpt>
      <trkpt lat="48.37838" lon="-4.29064">
        <ele>100.236351</ele>
        <time>2022-12-10T09:41:25.128Z</time>
      </trkpt>
      <trkpt lat="48.37828" lon="-4.29066">
        <ele>100.704183</ele>
        <time>2022-12-10T09:41:31.141Z</time>
      </trkpt>
      <trkpt lat="48.37818" lon="-4.29068">
        <ele>101.189865</ele>
        <time>2022-12-10T09:41:37.126Z</time>
      </trkpt>
      <trkpt lat="48.37808" lon="-4.29072">
        <ele>101.713571</ele>
        <time>2022-12-10T09:41:43.133Z</time>
      </trkpt>
      <trkpt lat="48.37799" lon="-4.29074">
        <ele>102.320684</ele>
        <time>2022-12-10T09:41:49.147Z</time>
      </trkpt>
      <trkpt lat="48.37789" lon="-4.29077">
        <ele>102.951581</ele>
        <time>2022-12-10T09:41:55.128Z</time>
      </trkpt>
      <trkpt lat="48.37779" lon="-4.2908">
        <ele>103.555023</ele>
        <time>2022-12-10T09:42:01.130Z</time>
      </trkpt>
      <trkpt lat="48.37769" lon="-4.29084">
        <ele>104.184954</ele>
        <time>2022-12-10T09:42:07.129Z</time>
      </trkpt>
      <trkpt lat="48.37759" lon="-4.29086">
        <ele>104.826944</ele>
        <time>2022-12-10T09:42:13.140Z</time>
      </trkpt>
      <trkpt lat="48.3775" lon="-4.29088">
        <ele>105.398947</ele>
        <time>2022-12-10T09:42:18.129Z</time>
      </trkpt>
      <trkpt lat="48.3774" lon="-4.29091">
        <ele>106.010046</ele>
        <time>2022-12-10T09:42:24.122Z</time>
      </trkpt>
      <trkpt lat="48.3773" lon="-4.29092">
        <ele>106.609542</ele>
        <time>2022-12-10T09:42:30.129Z</time>
      </trkpt>
      <trkpt lat="48.3772" lon="-4.29098">
        <ele>107.272349</ele>
        <time>2022-12-10T09:42:36.131Z</time>
      </trkpt>
      <trkpt lat="48.3771" lon="-4.29097">
        <ele>107.908622</ele>
        <time>2022-12-10T09:42:42.128Z</time>
      </trkpt>
      <trkpt lat="48.377" lon="-4.29093">
        <ele>108.532118</ele>
        <time>2022-12-10T09:42:48.125Z</time>
      </trkpt>
      <trkpt lat="48.37691" lon="-4.29086">
        <ele>109.175811</ele>
        <time>2022-12-10T09:42:54.126Z</time>
      </trkpt>
      <trkpt lat="48.37683" lon="-4.29077">
        <ele>109.797053</ele>
        <time>2022-12-10T09:43:00.126Z</time>
      </trkpt>
      <trkpt lat="48.37677" lon="-4.29065">
        <ele>110.38567</ele>
        <time>2022-12-10T09:43:06.134Z</time>
      </trkpt>
      <trkpt lat="48.37672" lon="-4.29053">
        <ele>110.969625</ele>
        <time>2022-12-10T09:43:12.125Z</time>
      </trkpt>
      <trkpt lat="48.37668" lon="-4.29038">
        <ele>111.633097</ele>
        <time>2022-12-10T09:43:19.116Z</time>
      </trkpt>
      <trkpt lat="48.37663" lon="-4.29025">
        <ele>112.278133</ele>
        <time>2022-12-10T09:43:25.130Z</time>
      </trkpt>
      <trkpt lat="48.37659" lon="-4.29012">
        <ele>112.853998</ele>
        <time>2022-12-10T09:43:31.130Z</time>
      </trkpt>
      <trkpt lat="48.37656" lon="-4.28997">
        <ele>113.484496</ele>
        <time>2022-12-10T09:43:37.129Z</time>
      </trkpt>
      <trkpt lat="48.37654" lon="-4.28982">
        <ele>114.127172</ele>
        <time>2022-12-10T09:43:43.125Z</time>
      </trkpt>
      <trkpt lat="48.37651" lon="-4.28969">
        <ele>114.693282</ele>
        <time>2022-12-10T09:43:48.149Z</time>
      </trkpt>
      <trkpt lat="48.37648" lon="-4.28956">
        <ele>115.257497</ele>
        <time>2022-12-10T09:43:53.126Z</time>
      </trkpt>
      <trkpt lat="48.37646" lon="-4.28942">
        <ele>115.830798</ele>
        <time>2022-12-10T09:43:58.126Z</time>
      </trkpt>
      <trkpt lat="48.37644" lon="-4.28927">
        <ele>116.487251</ele>
        <time>2022-12-10T09:44:04.125Z</time>
      </trkpt>
      <trkpt lat="48.37641" lon="-4.28912">
        <ele>117.115429</ele>
        <time>2022-12-10T09:44:10.130Z</time>
      </trkpt>
      <trkpt lat="48.37638" lon="-4.28897">
        <ele>117.734883</ele>
        <time>2022-12-10T09:44:16.126Z</time>
      </trkpt>
      <trkpt lat="48.37636" lon="-4.28882">
        <ele>118.361443</ele>
        <time>2022-12-10T09:44:22.130Z</time>
      </trkpt>
      <trkpt lat="48.37633" lon="-4.28868">
        <ele>118.988038</ele>
        <time>2022-12-10T09:44:28.128Z</time>
      </trkpt>
      <trkpt lat="48.37631" lon="-4.28855">
        <ele>119.550998</ele>
        <time>2022-12-10T09:44:33.131Z</time>
      </trkpt>
      <trkpt lat="48.37628" lon="-4.28839">
        <ele>120.210155</ele>
        <time>2022-12-10T09:44:39.142Z</time>
      </trkpt>
      <trkpt lat="48.37626" lon="-4.28824">
        <ele>120.866169</ele>
        <time>2022-12-10T09:44:45.137Z</time>
      </trkpt>
      <trkpt lat="48.37622" lon="-4.28809">
        <ele>121.525797</ele>
        <time>2022-12-10T09:44:51.123Z</time>
      </trkpt>
      <trkpt lat="48.37618" lon="-4.28794">
        <ele>122.183673</ele>
        <time>2022-12-10T09:44:57.130Z</time>
      </trkpt>
      <trkpt lat="48.37616" lon="-4.28778">
        <ele>122.827813</ele>
        <time>2022-12-10T09:45:03.130Z</time>
      </trkpt>
      <trkpt lat="48.37612" lon="-4.28766">
        <ele>123.391069</ele>
        <time>2022-12-10T09:45:08.130Z</time>
      </trkpt>
      <trkpt lat="48.37607" lon="-4.28752">
        <ele>123.976527</ele>
        <time>2022-12-10T09:45:14.127Z</time>
      </trkpt>
      <trkpt lat="48.37601" lon="-4.28739">
        <ele>124.490653</ele>
        <time>2022-12-10T09:45:20.136Z</time>
      </trkpt>
      <trkpt lat="48.37596" lon="-4.28728">
        <ele>124.929983</ele>
        <time>2022-12-10T09:45:25.131Z</time>
      </trkpt>
      <trkpt lat="48.37591" lon="-4.28717">
        <ele>125.36351</ele>
        <time>2022-12-10T09:45:30.122Z</time>
      </trkpt>
      <trkpt lat="48.37585" lon="-4.28706">
        <ele>125.803043</ele>
        <time>2022-12-10T09:45:35.123Z</time>
      </trkpt>
      <trkpt lat="48.37579" lon="-4.28694">
        <ele>126.273096</ele>
        <time>2022-12-10T09:45:40.145Z</time>
      </trkpt>
      <trkpt lat="48.37573" lon="-4.28682">
        <ele>126.765338</ele>
        <time>2022-12-10T09:45:45.128Z</time>
      </trkpt>
      <trkpt lat="48.37566" lon="-4.28671">
        <ele>127.251152</ele>
        <time>2022-12-10T09:45:50.146Z</time>
      </trkpt>
      <trkpt lat="48.3756" lon="-4.28661">
        <ele>127.702716</ele>
        <time>2022-12-10T09:45:55.147Z</time>
      </trkpt>
      <trkpt lat="48.37552" lon="-4.28653">
        <ele>128.163232</ele>
        <time>2022-12-10T09:46:00.145Z</time>
      </trkpt>
      <trkpt lat="48.37542" lon="-4.28646">
        <ele>128.690376</ele>
        <time>2022-12-10T09:46:06.131Z</time>
      </trkpt>
      <trkpt lat="48.37534" lon="-4.2864">
        <ele>129.141173</ele>
        <time>2022-12-10T09:46:11.128Z</time>
      </trkpt>
      <trkpt lat="48.37525" lon="-4.28634">
        <ele>129.591616</ele>
        <time>2022-12-10T09:46:16.144Z</time>
      </trkpt>
      <trkpt lat="48.37516" lon="-4.28628">
        <ele>130.059945</ele>
        <time>2022-12-10T09:46:21.123Z</time>
      </trkpt>
      <trkpt lat="48.37508" lon="-4.28622">
        <ele>130.513609</ele>
        <time>2022-12-10T09:46:26.131Z</time>
      </trkpt>
      <trkpt lat="48.375" lon="-4.28615">
        <ele>130.970891</ele>
        <time>2022-12-10T09:46:31.132Z</time>
      </trkpt>
      <trkpt lat="48.37492" lon="-4.28607">
        <ele>131.40793</ele>
        <time>2022-12-10T09:46:36.121Z</time>
      </trkpt>
      <trkpt lat="48.37484" lon="-4.28598">
        <ele>131.917747</ele>
        <time>2022-12-10T09:46:42.122Z</time>
      </trkpt>
      <trkpt lat="48.37476" lon="-4.28586">
        <ele>132.434115</ele>
        <time>2022-12-10T09:46:48.142Z</time>
      </trkpt>
      <trkpt lat="48.3747" lon="-4.28577">
        <ele>132.784512</ele>
        <time>2022-12-10T09:46:53.152Z</time>
      </trkpt>
      <trkpt lat="48.37463" lon="-4.28565">
        <ele>133.191895</ele>
        <time>2022-12-10T09:46:59.127Z</time>
      </trkpt>
      <trkpt lat="48.37456" lon="-4.28553">
        <ele>133.60548</ele>
        <time>2022-12-10T09:47:05.134Z</time>
      </trkpt>
      <trkpt lat="48.3745" lon="-4.28542">
        <ele>133.972447</ele>
        <time>2022-12-10T09:47:10.126Z</time>
      </trkpt>
      <trkpt lat="48.37444" lon="-4.28532">
        <ele>134.323957</ele>
        <time>2022-12-10T09:47:15.126Z</time>
      </trkpt>
      <trkpt lat="48.37437" lon="-4.28519">
        <ele>134.741089</ele>
        <time>2022-12-10T09:47:21.126Z</time>
      </trkpt>
      <trkpt lat="48.37429" lon="-4.28511">
        <ele>135.114136</ele>
        <time>2022-12-10T09:47:26.122Z</time>
      </trkpt>
      <trkpt lat="48.37422" lon="-4.28501">
        <ele>135.493575</ele>
        <time>2022-12-10T09:47:31.150Z</time>
      </trkpt>
      <trkpt lat="48.37414" lon="-4.28493">
        <ele>135.873068</ele>
        <time>2022-12-10T09:47:36.143Z</time>
      </trkpt>
      <trkpt lat="48.37405" lon="-4.28484">
        <ele>136.302463</ele>
        <time>2022-12-10T09:47:41.149Z</time>
      </trkpt>
      <trkpt lat="48.37396" lon="-4.28477">
        <ele>136.686485</ele>
        <time>2022-12-10T09:47:45.129Z</time>
      </trkpt>
      <trkpt lat="48.37386" lon="-4.28473">
        <ele>137.098611</ele>
        <time>2022-12-10T09:47:49.148Z</time>
      </trkpt>
      <trkpt lat="48.37374" lon="-4.28469">
        <ele>137.561629</ele>
        <time>2022-12-10T09:47:53.152Z</time>
      </trkpt>
      <trkpt lat="48.37364" lon="-4.28466">
        <ele>137.961204</ele>
        <time>2022-12-10T09:47:56.151Z</time>
      </trkpt>
      <trkpt lat="48.37353" lon="-4.28463">
        <ele>138.388944</ele>
        <time>2022-12-10T09:47:59.147Z</time>
      </trkpt>
      <trkpt lat="48.37343" lon="-4.28459">
        <ele>138.805332</ele>
        <time>2022-12-10T09:48:02.147Z</time>
      </trkpt>
      <trkpt lat="48.37332" lon="-4.28455">
        <ele>139.224279</ele>
        <time>2022-12-10T09:48:05.142Z</time>
      </trkpt>
      <trkpt lat="48.37322" lon="-4.2845">
        <ele>139.330611</ele>
        <time>2022-12-10T09:48:08.152Z</time>
      </trkpt>
      <trkpt lat="48.37312" lon="-4.28446">
        <ele>139.118156</ele>
        <time>2022-12-10T09:48:11.147Z</time>
      </trkpt>
      <trkpt lat="48.37302" lon="-4.28443">
        <ele>138.903259</ele>
        <time>2022-12-10T09:48:14.142Z</time>
      </trkpt>
      <trkpt lat="48.37291" lon="-4.28439">
        <ele>138.681579</ele>
        <time>2022-12-10T09:48:17.142Z</time>
      </trkpt>
      <trkpt lat="48.3728" lon="-4.28435">
        <ele>138.454272</ele>
        <time>2022-12-10T09:48:20.146Z</time>
      </trkpt>
      <trkpt lat="48.37269" lon="-4.2843">
        <ele>138.21564</ele>
        <time>2022-12-10T09:48:23.150Z</time>
      </trkpt>
      <trkpt lat="48.37257" lon="-4.28426">
        <ele>137.977688</ele>
        <time>2022-12-10T09:48:26.152Z</time>
      </trkpt>
      <trkpt lat="48.37245" lon="-4.2842">
        <ele>137.720951</ele>
        <time>2022-12-10T09:48:29.154Z</time>
      </trkpt>
      <trkpt lat="48.37233" lon="-4.28416">
        <ele>137.470472</ele>
        <time>2022-12-10T09:48:32.149Z</time>
      </trkpt>
      <trkpt lat="48.37222" lon="-4.28411">
        <ele>137.229234</ele>
        <time>2022-12-10T09:48:35.146Z</time>
      </trkpt>
      <trkpt lat="48.3721" lon="-4.28404">
        <ele>136.97792</ele>
        <time>2022-12-10T09:48:38.140Z</time>
      </trkpt>
      <trkpt lat="48.372" lon="-4.28394">
        <ele>136.728832</ele>
        <time>2022-12-10T09:48:41.127Z</time>
      </trkpt>
      <trkpt lat="48.37189" lon="-4.28385">
        <ele>136.484596</ele>
        <time>2022-12-10T09:48:44.150Z</time>
      </trkpt>
      <trkpt lat="48.37178" lon="-4.28375">
        <ele>136.232359</ele>
        <time>2022-12-10T09:48:47.153Z</time>
      </trkpt>
      <trkpt lat="48.37167" lon="-4.28366">
        <ele>135.972177</ele>
        <time>2022-12-10T09:48:50.152Z</time>
      </trkpt>
      <trkpt lat="48.37157" lon="-4.28354">
        <ele>135.665869</ele>
        <time>2022-12-10T09:48:53.151Z</time>
      </trkpt>
      <trkpt lat="48.37146" lon="-4.28342">
        <ele>135.272436</ele>
        <time>2022-12-10T09:48:56.149Z</time>
      </trkpt>
      <trkpt lat="48.37138" lon="-4.28335">
        <ele>135.001521</ele>
        <time>2022-12-10T09:48:58.134Z</time>
      </trkpt>
      <trkpt lat="48.37127" lon="-4.28323">
        <ele>134.604602</ele>
        <time>2022-12-10T09:49:01.125Z</time>
      </trkpt>
      <trkpt lat="48.37119" lon="-4.28316">
        <ele>134.341326</ele>
        <time>2022-12-10T09:49:03.151Z</time>
      </trkpt>
      <trkpt lat="48.37112" lon="-4.28307">
        <ele>134.072091</ele>
        <time>2022-12-10T09:49:05.146Z</time>
      </trkpt>
      <trkpt lat="48.37104" lon="-4.28299">
        <ele>133.798143</ele>
        <time>2022-12-10T09:49:07.139Z</time>
      </trkpt>
      <trkpt lat="48.37097" lon="-4.28289">
        <ele>133.517872</ele>
        <time>2022-12-10T09:49:09.149Z</time>
      </trkpt>
      <trkpt lat="48.37089" lon="-4.28278">
        <ele>133.211653</ele>
        <time>2022-12-10T09:49:11.127Z</time>
      </trkpt>
      <trkpt lat="48.37083" lon="-4.28265">
        <ele>132.904444</ele>
        <time>2022-12-10T09:49:13.134Z</time>
      </trkpt>
      <trkpt lat="48.37076" lon="-4.28252">
        <ele>132.576205</ele>
        <time>2022-12-10T09:49:15.128Z</time>
      </trkpt>
      <trkpt lat="48.37071" lon="-4.28237">
        <ele>132.261895</ele>
        <time>2022-12-10T09:49:17.149Z</time>
      </trkpt>
      <trkpt lat="48.37067" lon="-4.28224">
        <ele>131.972582</ele>
        <time>2022-12-10T09:49:19.140Z</time>
      </trkpt>
      <trkpt lat="48.37062" lon="-4.2821">
        <ele>131.681555</ele>
        <time>2022-12-10T09:49:21.151Z</time>
      </trkpt>
      <trkpt lat="48.37059" lon="-4.28196">
        <ele>131.394065</ele>
        <time>2022-12-10T09:49:23.146Z</time>
      </trkpt>
      <trkpt lat="48.37054" lon="-4.28178">
        <ele>131.004178</ele>
        <time>2022-12-10T09:49:26.151Z</time>
      </trkpt>
      <trkpt lat="48.37049" lon="-4.2816">
        <ele>130.642845</ele>
        <time>2022-12-10T09:49:29.148Z</time>
      </trkpt>
      <trkpt lat="48.37045" lon="-4.28146">
        <ele>130.586902</ele>
        <time>2022-12-10T09:49:32.144Z</time>
      </trkpt>
      <trkpt lat="48.3704" lon="-4.2813">
        <ele>130.603774</ele>
        <time>2022-12-10T09:49:36.150Z</time>
      </trkpt>
      <trkpt lat="48.37036" lon="-4.28115">
        <ele>130.618844</ele>
        <time>2022-12-10T09:49:39.151Z</time>
      </trkpt>
      <trkpt lat="48.37032" lon="-4.28099">
        <ele>130.635385</ele>
        <time>2022-12-10T09:49:42.149Z</time>
      </trkpt>
      <trkpt lat="48.37026" lon="-4.28083">
        <ele>130.653122</ele>
        <time>2022-12-10T09:49:45.147Z</time>
      </trkpt>
      <trkpt lat="48.3702" lon="-4.28067">
        <ele>130.670816</ele>
        <time>2022-12-10T09:49:48.139Z</time>
      </trkpt>
      <trkpt lat="48.37014" lon="-4.28052">
        <ele>130.68786</ele>
        <time>2022-12-10T09:49:51.149Z</time>
      </trkpt>
      <trkpt lat="48.37008" lon="-4.28037">
        <ele>130.704246</ele>
        <time>2022-12-10T09:49:54.156Z</time>
      </trkpt>
      <trkpt lat="48.37003" lon="-4.28023">
        <ele>130.72054</ele>
        <time>2022-12-10T09:49:57.133Z</time>
      </trkpt>
      <trkpt lat="48.36997" lon="-4.28009">
        <ele>130.736769</ele>
        <time>2022-12-10T09:50:00.134Z</time>
      </trkpt>
      <trkpt lat="48.36991" lon="-4.27994">
        <ele>130.753298</ele>
        <time>2022-12-10T09:50:03.149Z</time>
      </trkpt>
      <trkpt lat="48.36985" lon="-4.2798">
        <ele>130.769821</ele>
        <time>2022-12-10T09:50:06.155Z</time>
      </trkpt>
      <trkpt lat="48.36979" lon="-4.27965">
        <ele>130.786522</ele>
        <time>2022-12-10T09:50:09.150Z</time>
      </trkpt>
      <trkpt lat="48.36972" lon="-4.27951">
        <ele>130.803467</ele>
        <time>2022-12-10T09:50:12.151Z</time>
      </trkpt>
      <trkpt lat="48.36966" lon="-4.27937">
        <ele>130.819362</ele>
        <time>2022-12-10T09:50:15.153Z</time>
      </trkpt>
      <trkpt lat="48.3696" lon="-4.27925">
        <ele>130.833983</ele>
        <time>2022-12-10T09:50:18.133Z</time>
      </trkpt>
      <trkpt lat="48.36955" lon="-4.27913">
        <ele>130.641449</ele>
        <time>2022-12-10T09:50:21.153Z</time>
      </trkpt>
      <trkpt lat="48.3695" lon="-4.27901">
        <ele>130.400417</ele>
        <time>2022-12-10T09:50:24.152Z</time>
      </trkpt>
      <trkpt lat="48.36943" lon="-4.27888">
        <ele>130.136635</ele>
        <time>2022-12-10T09:50:27.151Z</time>
      </trkpt>
      <trkpt lat="48.36935" lon="-4.27876">
        <ele>129.85901</ele>
        <time>2022-12-10T09:50:30.148Z</time>
      </trkpt>
      <trkpt lat="48.36926" lon="-4.27865">
        <ele>129.563023</ele>
        <time>2022-12-10T09:50:33.153Z</time>
      </trkpt>
      <trkpt lat="48.36916" lon="-4.27854">
        <ele>129.264677</ele>
        <time>2022-12-10T09:50:36.148Z</time>
      </trkpt>
      <trkpt lat="48.36905" lon="-4.27844">
        <ele>128.94951</ele>
        <time>2022-12-10T09:50:39.142Z</time>
      </trkpt>
      <trkpt lat="48.36894" lon="-4.27837">
        <ele>128.642125</ele>
        <time>2022-12-10T09:50:42.153Z</time>
      </trkpt>
      <trkpt lat="48.36883" lon="-4.27832">
        <ele>128.342248</ele>
        <time>2022-12-10T09:50:45.141Z</time>
      </trkpt>
      <trkpt lat="48.36871" lon="-4.27829">
        <ele>128.046266</ele>
        <time>2022-12-10T09:50:48.152Z</time>
      </trkpt>
      <trkpt lat="48.3686" lon="-4.27826">
        <ele>127.76912</ele>
        <time>2022-12-10T09:50:51.144Z</time>
      </trkpt>
      <trkpt lat="48.36849" lon="-4.27825">
        <ele>127.504272</ele>
        <time>2022-12-10T09:50:54.152Z</time>
      </trkpt>
      <trkpt lat="48.36838" lon="-4.27823">
        <ele>127.234318</ele>
        <time>2022-12-10T09:50:57.154Z</time>
      </trkpt>
      <trkpt lat="48.36828" lon="-4.27821">
        <ele>126.967987</ele>
        <time>2022-12-10T09:51:00.126Z</time>
      </trkpt>
      <trkpt lat="48.36817" lon="-4.2782">
        <ele>126.688513</ele>
        <time>2022-12-10T09:51:03.146Z</time>
      </trkpt>
      <trkpt lat="48.36806" lon="-4.27817">
        <ele>126.423655</ele>
        <time>2022-12-10T09:51:06.151Z</time>
      </trkpt>
      <trkpt lat="48.36795" lon="-4.27815">
        <ele>125.895905</ele>
        <time>2022-12-10T09:51:09.149Z</time>
      </trkpt>
      <trkpt lat="48.36784" lon="-4.27814">
        <ele>125.285637</ele>
        <time>2022-12-10T09:51:12.151Z</time>
      </trkpt>
      <trkpt lat="48.36774" lon="-4.27812">
        <ele>124.720039</ele>
        <time>2022-12-10T09:51:15.148Z</time>
      </trkpt>
      <trkpt lat="48.36765" lon="-4.27811">
        <ele>124.198047</ele>
        <time>2022-12-10T09:51:18.135Z</time>
      </trkpt>
      <trkpt lat="48.36754" lon="-4.27809">
        <ele>123.623038</ele>
        <time>2022-12-10T09:51:21.146Z</time>
      </trkpt>
      <trkpt lat="48.36745" lon="-4.27806">
        <ele>123.109191</ele>
        <time>2022-12-10T09:51:24.154Z</time>
      </trkpt>
      <trkpt lat="48.36736" lon="-4.27803">
        <ele>122.605545</ele>
        <time>2022-12-10T09:51:27.152Z</time>
      </trkpt>
      <trkpt lat="48.36725" lon="-4.27799">
        <ele>121.97261</ele>
        <time>2022-12-10T09:51:30.144Z</time>
      </trkpt>
      <trkpt lat="48.36714" lon="-4.27795">
        <ele>121.336843</ele>
        <time>2022-12-10T09:51:33.155Z</time>
      </trkpt>
      <trkpt lat="48.36703" lon="-4.27787">
        <ele>120.673485</ele>
        <time>2022-12-10T09:51:36.153Z</time>
      </trkpt>
      <trkpt lat="48.36693" lon="-4.27778">
        <ele>120.009836</ele>
        <time>2022-12-10T09:51:39.129Z</time>
      </trkpt>
      <trkpt lat="48.36682" lon="-4.2777">
        <ele>119.34487</ele>
        <time>2022-12-10T09:51:42.151Z</time>
      </trkpt>
      <trkpt lat="48.36672" lon="-4.2776">
        <ele>118.681602</ele>
        <time>2022-12-10T09:51:45.152Z</time>
      </trkpt>
      <trkpt lat="48.36662" lon="-4.27752">
        <ele>118.040806</ele>
        <time>2022-12-10T09:51:48.154Z</time>
      </trkpt>
      <trkpt lat="48.36652" lon="-4.27742">
        <ele>117.384459</ele>
        <time>2022-12-10T09:51:51.151Z</time>
      </trkpt>
      <trkpt lat="48.36644" lon="-4.27734">
        <ele>116.86987</ele>
        <time>2022-12-10T09:51:53.151Z</time>
      </trkpt>
      <trkpt lat="48.36634" lon="-4.27726">
        <ele>116.234853</ele>
        <time>2022-12-10T09:51:56.192Z</time>
      </trkpt>
      <trkpt lat="48.36623" lon="-4.27717">
        <ele>115.59392</ele>
        <time>2022-12-10T09:51:59.152Z</time>
      </trkpt>
      <trkpt lat="48.36611" lon="-4.2771">
        <ele>114.923703</ele>
        <time>2022-12-10T09:52:02.123Z</time>
      </trkpt>
      <trkpt lat="48.36599" lon="-4.27705">
        <ele>114.282762</ele>
        <time>2022-12-10T09:52:05.152Z</time>
      </trkpt>
      <trkpt lat="48.36588" lon="-4.27701">
        <ele>113.650478</ele>
        <time>2022-12-10T09:52:08.141Z</time>
      </trkpt>
      <trkpt lat="48.36575" lon="-4.27699">
        <ele>112.989882</ele>
        <time>2022-12-10T09:52:11.147Z</time>
      </trkpt>
      <trkpt lat="48.36562" lon="-4.27698">
        <ele>112.323092</ele>
        <time>2022-12-10T09:52:14.148Z</time>
      </trkpt>
      <trkpt lat="48.3655" lon="-4.27698">
        <ele>111.656877</ele>
        <time>2022-12-10T09:52:17.143Z</time>
      </trkpt>
      <trkpt lat="48.36537" lon="-4.27698">
        <ele>110.969652</ele>
        <time>2022-12-10T09:52:20.150Z</time>
      </trkpt>
      <trkpt lat="48.36523" lon="-4.27698">
        <ele>110.282462</ele>
        <time>2022-12-10T09:52:23.126Z</time>
      </trkpt>
      <trkpt lat="48.3651" lon="-4.27699">
        <ele>109.573253</ele>
        <time>2022-12-10T09:52:26.148Z</time>
      </trkpt>
      <trkpt lat="48.365" lon="-4.277">
        <ele>109.064311</ele>
        <time>2022-12-10T09:52:28.149Z</time>
      </trkpt>
      <trkpt lat="48.36487" lon="-4.27699">
        <ele>108.361376</ele>
        <time>2022-12-10T09:52:31.148Z</time>
      </trkpt>
      <trkpt lat="48.36478" lon="-4.27701">
        <ele>107.871735</ele>
        <time>2022-12-10T09:52:33.150Z</time>
      </trkpt>
      <trkpt lat="48.36464" lon="-4.27702">
        <ele>107.178239</ele>
        <time>2022-12-10T09:52:36.149Z</time>
      </trkpt>
      <trkpt lat="48.36452" lon="-4.27702">
        <ele>106.561961</ele>
        <time>2022-12-10T09:52:39.139Z</time>
      </trkpt>
      <trkpt lat="48.3644" lon="-4.27702">
        <ele>105.933589</ele>
        <time>2022-12-10T09:52:42.146Z</time>
      </trkpt>
      <trkpt lat="48.36428" lon="-4.27701">
        <ele>105.320361</ele>
        <time>2022-12-10T09:52:45.141Z</time>
      </trkpt>
      <trkpt lat="48.36417" lon="-4.27699">
        <ele>104.727028</ele>
        <time>2022-12-10T09:52:48.131Z</time>
      </trkpt>
      <trkpt lat="48.36406" lon="-4.27696">
        <ele>104.177826</ele>
        <time>2022-12-10T09:52:51.145Z</time>
      </trkpt>
      <trkpt lat="48.36396" lon="-4.27692">
        <ele>103.604516</ele>
        <time>2022-12-10T09:52:54.152Z</time>
      </trkpt>
      <trkpt lat="48.36384" lon="-4.27688">
        <ele>102.980798</ele>
        <time>2022-12-10T09:52:57.133Z</time>
      </trkpt>
      <trkpt lat="48.36373" lon="-4.27684">
        <ele>102.392959</ele>
        <time>2022-12-10T09:53:00.145Z</time>
      </trkpt>
      <trkpt lat="48.36362" lon="-4.27679">
        <ele>101.826781</ele>
        <time>2022-12-10T09:53:03.157Z</time>
      </trkpt>
      <trkpt lat="48.36352" lon="-4.27674">
        <ele>101.282989</ele>
        <time>2022-12-10T09:53:06.143Z</time>
      </trkpt>
      <trkpt lat="48.36342" lon="-4.27669">
        <ele>100.727235</ele>
        <time>2022-12-10T09:53:09.154Z</time>
      </trkpt>
      <trkpt lat="48.36332" lon="-4.27664">
        <ele>100.176347</ele>
        <time>2022-12-10T09:53:12.124Z</time>
      </trkpt>
      <trkpt lat="48.36321" lon="-4.27658">
        <ele>99.586398</ele>
        <time>2022-12-10T09:53:15.149Z</time>
      </trkpt>
      <trkpt lat="48.36311" lon="-4.27653">
        <ele>99.046362</ele>
        <time>2022-12-10T09:53:18.146Z</time>
      </trkpt>
      <trkpt lat="48.36301" lon="-4.27647">
        <ele>98.481161</ele>
        <time>2022-12-10T09:53:21.155Z</time>
      </trkpt>
      <trkpt lat="48.3629" lon="-4.27643">
        <ele>97.909882</ele>
        <time>2022-12-10T09:53:24.144Z</time>
      </trkpt>
      <trkpt lat="48.36279" lon="-4.27638">
        <ele>97.193603</ele>
        <time>2022-12-10T09:53:27.151Z</time>
      </trkpt>
      <trkpt lat="48.36268" lon="-4.27633">
        <ele>96.445687</ele>
        <time>2022-12-10T09:53:30.129Z</time>
      </trkpt>
      <trkpt lat="48.36256" lon="-4.27628">
        <ele>95.661756</ele>
        <time>2022-12-10T09:53:33.155Z</time>
      </trkpt>
      <trkpt lat="48.36245" lon="-4.27625">
        <ele>94.887555</ele>
        <time>2022-12-10T09:53:36.151Z</time>
      </trkpt>
      <trkpt lat="48.36233" lon="-4.27623">
        <ele>94.100443</ele>
        <time>2022-12-10T09:53:39.148Z</time>
      </trkpt>
      <trkpt lat="48.3622" lon="-4.27621">
        <ele>93.247691</ele>
        <time>2022-12-10T09:53:42.148Z</time>
      </trkpt>
      <trkpt lat="48.36208" lon="-4.27618">
        <ele>92.48127</ele>
        <time>2022-12-10T09:53:45.140Z</time>
      </trkpt>
      <trkpt lat="48.36196" lon="-4.27615">
        <ele>91.697721</ele>
        <time>2022-12-10T09:53:48.134Z</time>
      </trkpt>
      <trkpt lat="48.36185" lon="-4.27611">
        <ele>90.917007</ele>
        <time>2022-12-10T09:53:51.147Z</time>
      </trkpt>
      <trkpt lat="48.36174" lon="-4.27604">
        <ele>90.176662</ele>
        <time>2022-12-10T09:53:54.128Z</time>
      </trkpt>
      <trkpt lat="48.36164" lon="-4.27593">
        <ele>89.376934</ele>
        <time>2022-12-10T09:53:57.135Z</time>
      </trkpt>
      <trkpt lat="48.36156" lon="-4.27581">
        <ele>88.62481</ele>
        <time>2022-12-10T09:54:00.143Z</time>
      </trkpt>
      <trkpt lat="48.36149" lon="-4.27569">
        <ele>87.93902</ele>
        <time>2022-12-10T09:54:03.150Z</time>
      </trkpt>
      <trkpt lat="48.36143" lon="-4.27556">
        <ele>87.229796</ele>
        <time>2022-12-10T09:54:06.150Z</time>
      </trkpt>
      <trkpt lat="48.36138" lon="-4.27542">
        <ele>86.515018</ele>
        <time>2022-12-10T09:54:09.127Z</time>
      </trkpt>
      <trkpt lat="48.36132" lon="-4.27528">
        <ele>85.809485</ele>
        <time>2022-12-10T09:54:12.150Z</time>
      </trkpt>
      <trkpt lat="48.36127" lon="-4.27512">
        <ele>84.962492</ele>
        <time>2022-12-10T09:54:15.148Z</time>
      </trkpt>
      <trkpt lat="48.36123" lon="-4.27497">
        <ele>84.133787</ele>
        <time>2022-12-10T09:54:18.153Z</time>
      </trkpt>
      <trkpt lat="48.36118" lon="-4.27481">
        <ele>83.307945</ele>
        <time>2022-12-10T09:54:21.132Z</time>
      </trkpt>
      <trkpt lat="48.36114" lon="-4.27466">
        <ele>82.5323</ele>
        <time>2022-12-10T09:54:24.152Z</time>
      </trkpt>
      <trkpt lat="48.36109" lon="-4.27452">
        <ele>81.750369</ele>
        <time>2022-12-10T09:54:27.150Z</time>
      </trkpt>
      <trkpt lat="48.36104" lon="-4.27437">
        <ele>80.937013</ele>
        <time>2022-12-10T09:54:30.150Z</time>
      </trkpt>
      <trkpt lat="48.361" lon="-4.27421">
        <ele>80.086</ele>
        <time>2022-12-10T09:54:33.136Z</time>
      </trkpt>
      <trkpt lat="48.36095" lon="-4.27406">
        <ele>79.280898</ele>
        <time>2022-12-10T09:54:36.152Z</time>
      </trkpt>
      <trkpt lat="48.36092" lon="-4.2739">
        <ele>78.506094</ele>
        <time>2022-12-10T09:54:39.124Z</time>
      </trkpt>
      <trkpt lat="48.36092" lon="-4.27374">
        <ele>77.705561</ele>
        <time>2022-12-10T09:54:42.130Z</time>
      </trkpt>
      <trkpt lat="48.36094" lon="-4.27358">
        <ele>76.946632</ele>
        <time>2022-12-10T09:54:45.141Z</time>
      </trkpt>
      <trkpt lat="48.36098" lon="-4.27343">
        <ele>76.185416</ele>
        <time>2022-12-10T09:54:48.152Z</time>
      </trkpt>
      <trkpt lat="48.36101" lon="-4.27328">
        <ele>75.419601</ele>
        <time>2022-12-10T09:54:51.128Z</time>
      </trkpt>
      <trkpt lat="48.36105" lon="-4.27314">
        <ele>74.679373</ele>
        <time>2022-12-10T09:54:54.127Z</time>
      </trkpt>
      <trkpt lat="48.36109" lon="-4.27301">
        <ele>73.952547</ele>
        <time>2022-12-10T09:54:57.149Z</time>
      </trkpt>
      <trkpt lat="48.36112" lon="-4.27287">
        <ele>73.248288</ele>
        <time>2022-12-10T09:55:00.139Z</time>
      </trkpt>
      <trkpt lat="48.36114" lon="-4.27271">
        <ele>72.715863</ele>
        <time>2022-12-10T09:55:03.126Z</time>
      </trkpt>
      <trkpt lat="48.36116" lon="-4.27256">
        <ele>72.43792</ele>
        <time>2022-12-10T09:55:06.146Z</time>
      </trkpt>
      <trkpt lat="48.36117" lon="-4.2724">
        <ele>72.139107</ele>
        <time>2022-12-10T09:55:09.153Z</time>
      </trkpt>
      <trkpt lat="48.36117" lon="-4.27221">
        <ele>71.800341</ele>
        <time>2022-12-10T09:55:12.127Z</time>
      </trkpt>
      <trkpt lat="48.36117" lon="-4.27202">
        <ele>71.468684</ele>
        <time>2022-12-10T09:55:15.146Z</time>
      </trkpt>
      <trkpt lat="48.36117" lon="-4.27184">
        <ele>71.137115</ele>
        <time>2022-12-10T09:55:18.151Z</time>
      </trkpt>
      <trkpt lat="48.36116" lon="-4.27165">
        <ele>70.784889</ele>
        <time>2022-12-10T09:55:21.148Z</time>
      </trkpt>
      <trkpt lat="48.36116" lon="-4.2715">
        <ele>70.530583</ele>
        <time>2022-12-10T09:55:23.135Z</time>
      </trkpt>
      <trkpt lat="48.36114" lon="-4.27136">
        <ele>70.26299</ele>
        <time>2022-12-10T09:55:25.150Z</time>
      </trkpt>
      <trkpt lat="48.36113" lon="-4.27121">
        <ele>69.99678</ele>
        <time>2022-12-10T09:55:27.149Z</time>
      </trkpt>
      <trkpt lat="48.36112" lon="-4.27106">
        <ele>69.729558</ele>
        <time>2022-12-10T09:55:29.138Z</time>
      </trkpt>
      <trkpt lat="48.3611" lon="-4.27092">
        <ele>69.471264</ele>
        <time>2022-12-10T09:55:31.150Z</time>
      </trkpt>
      <trkpt lat="48.36109" lon="-4.27078">
        <ele>69.212432</ele>
        <time>2022-12-10T09:55:33.153Z</time>
      </trkpt>
      <trkpt lat="48.36108" lon="-4.27058">
        <ele>68.857993</ele>
        <time>2022-12-10T09:55:36.129Z</time>
      </trkpt>
      <trkpt lat="48.36107" lon="-4.27042">
        <ele>68.557875</ele>
        <time>2022-12-10T09:55:39.141Z</time>
      </trkpt>
      <trkpt lat="48.36107" lon="-4.27027">
        <ele>68.285768</ele>
        <time>2022-12-10T09:55:42.145Z</time>
      </trkpt>
      <trkpt lat="48.36108" lon="-4.27012">
        <ele>68.020535</ele>
        <time>2022-12-10T09:55:45.151Z</time>
      </trkpt>
      <trkpt lat="48.36109" lon="-4.26998">
        <ele>68.059307</ele>
        <time>2022-12-10T09:55:48.144Z</time>
      </trkpt>
      <trkpt lat="48.36112" lon="-4.26985">
        <ele>68.157665</ele>
        <time>2022-12-10T09:55:51.138Z</time>
      </trkpt>
      <trkpt lat="48.36115" lon="-4.26969">
        <ele>68.281935</ele>
        <time>2022-12-10T09:55:55.128Z</time>
      </trkpt>
      <trkpt lat="48.36119" lon="-4.26953">
        <ele>68.402124</ele>
        <time>2022-12-10T09:55:59.130Z</time>
      </trkpt>
      <trkpt lat="48.36123" lon="-4.26937">
        <ele>68.526058</ele>
        <time>2022-12-10T09:56:03.146Z</time>
      </trkpt>
      <trkpt lat="48.36127" lon="-4.26921">
        <ele>68.648004</ele>
        <time>2022-12-10T09:56:07.153Z</time>
      </trkpt>
      <trkpt lat="48.3613" lon="-4.26905">
        <ele>68.768871</ele>
        <time>2022-12-10T09:56:11.131Z</time>
      </trkpt>
      <trkpt lat="48.36132" lon="-4.26889">
        <ele>68.88713</ele>
        <time>2022-12-10T09:56:15.154Z</time>
      </trkpt>
      <trkpt lat="48.36134" lon="-4.26873">
        <ele>69.003743</ele>
        <time>2022-12-10T09:56:19.120Z</time>
      </trkpt>
      <trkpt lat="48.36137" lon="-4.26857">
        <ele>69.122229</ele>
        <time>2022-12-10T09:56:23.124Z</time>
      </trkpt>
      <trkpt lat="48.36139" lon="-4.26841">
        <ele>69.238986</ele>
        <time>2022-12-10T09:56:27.135Z</time>
      </trkpt>
      <trkpt lat="48.36141" lon="-4.26824">
        <ele>69.361981</ele>
        <time>2022-12-10T09:56:31.132Z</time>
      </trkpt>
      <trkpt lat="48.36142" lon="-4.26806">
        <ele>69.488935</ele>
        <time>2022-12-10T09:56:35.144Z</time>
      </trkpt>
      <trkpt lat="48.36144" lon="-4.26792">
        <ele>69.591263</ele>
        <time>2022-12-10T09:56:38.151Z</time>
      </trkpt>
      <trkpt lat="48.36146" lon="-4.26778">
        <ele>69.697909</ele>
        <time>2022-12-10T09:56:41.143Z</time>
      </trkpt>
      <trkpt lat="48.36148" lon="-4.26762">
        <ele>69.814285</ele>
        <time>2022-12-10T09:56:44.148Z</time>
      </trkpt>
      <trkpt lat="48.3615" lon="-4.26745">
        <ele>69.879348</ele>
        <time>2022-12-10T09:56:47.138Z</time>
      </trkpt>
      <trkpt lat="48.36152" lon="-4.26728">
        <ele>69.462526</ele>
        <time>2022-12-10T09:56:50.130Z</time>
      </trkpt>
      <trkpt lat="48.36153" lon="-4.2671">
        <ele>69.043213</ele>
        <time>2022-12-10T09:56:53.145Z</time>
      </trkpt>
      <trkpt lat="48.36153" lon="-4.26691">
        <ele>68.584937</ele>
        <time>2022-12-10T09:56:56.131Z</time>
      </trkpt>
      <trkpt lat="48.36149" lon="-4.26672">
        <ele>68.117582</ele>
        <time>2022-12-10T09:56:59.130Z</time>
      </trkpt>
      <trkpt lat="48.36143" lon="-4.26654">
        <ele>67.649836</ele>
        <time>2022-12-10T09:57:02.127Z</time>
      </trkpt>
      <trkpt lat="48.36136" lon="-4.26644">
        <ele>67.317928</ele>
        <time>2022-12-10T09:57:04.141Z</time>
      </trkpt>
      <trkpt lat="48.36127" lon="-4.26632">
        <ele>66.860027</ele>
        <time>2022-12-10T09:57:07.139Z</time>
      </trkpt>
      <trkpt lat="48.36117" lon="-4.26622">
        <ele>66.448439</ele>
        <time>2022-12-10T09:57:10.149Z</time>
      </trkpt>
      <trkpt lat="48.36106" lon="-4.26614">
        <ele>66.021744</ele>
        <time>2022-12-10T09:57:13.131Z</time>
      </trkpt>
      <trkpt lat="48.36095" lon="-4.26604">
        <ele>65.571263</ele>
        <time>2022-12-10T09:57:16.153Z</time>
      </trkpt>
      <trkpt lat="48.36085" lon="-4.26594">
        <ele>65.140076</ele>
        <time>2022-12-10T09:57:19.150Z</time>
      </trkpt>
      <trkpt lat="48.36076" lon="-4.26584">
        <ele>64.746626</ele>
        <time>2022-12-10T09:57:22.149Z</time>
      </trkpt>
      <trkpt lat="48.36068" lon="-4.26575">
        <ele>64.369043</ele>
        <time>2022-12-10T09:57:25.149Z</time>
      </trkpt>
      <trkpt lat="48.36061" lon="-4.26564">
        <ele>64.018705</ele>
        <time>2022-12-10T09:57:28.139Z</time>
      </trkpt>
      <trkpt lat="48.36055" lon="-4.26553">
        <ele>63.691854</ele>
        <time>2022-12-10T09:57:31.138Z</time>
      </trkpt>
      <trkpt lat="48.36051" lon="-4.26538">
        <ele>63.311557</ele>
        <time>2022-12-10T09:57:35.123Z</time>
      </trkpt>
      <trkpt lat="48.36047" lon="-4.26521">
        <ele>62.909922</ele>
        <time>2022-12-10T09:57:39.141Z</time>
      </trkpt>
      <trkpt lat="48.36048" lon="-4.26508">
        <ele>62.590464</ele>
        <time>2022-12-10T09:57:42.132Z</time>
      </trkpt>
      <trkpt lat="48.3605" lon="-4.26493">
        <ele>62.234208</ele>
        <time>2022-12-10T09:57:45.128Z</time>
      </trkpt>
      <trkpt lat="48.36055" lon="-4.26478">
        <ele>61.852646</ele>
        <time>2022-12-10T09:57:48.125Z</time>
      </trkpt>
      <trkpt lat="48.3606" lon="-4.26463">
        <ele>61.460187</ele>
        <time>2022-12-10T09:57:51.149Z</time>
      </trkpt>
      <trkpt lat="48.36066" lon="-4.26447">
        <ele>61.052922</ele>
        <time>2022-12-10T09:57:54.151Z</time>
      </trkpt>
      <trkpt lat="48.3607" lon="-4.2643">
        <ele>60.635341</ele>
        <time>2022-12-10T09:57:57.129Z</time>
      </trkpt>
      <trkpt lat="48.36075" lon="-4.26414">
        <ele>60.228361</ele>
        <time>2022-12-10T09:58:00.147Z</time>
      </trkpt>
      <trkpt lat="48.36079" lon="-4.26398">
        <ele>59.836138</ele>
        <time>2022-12-10T09:58:03.150Z</time>
      </trkpt>
      <trkpt lat="48.36085" lon="-4.2638">
        <ele>59.382045</ele>
        <time>2022-12-10T09:58:06.152Z</time>
      </trkpt>
      <trkpt lat="48.3609" lon="-4.26363">
        <ele>58.946381</ele>
        <time>2022-12-10T09:58:09.139Z</time>
      </trkpt>
      <trkpt lat="48.36096" lon="-4.26349">
        <ele>58.580639</ele>
        <time>2022-12-10T09:58:12.152Z</time>
      </trkpt>
      <trkpt lat="48.36103" lon="-4.26335">
        <ele>58.177985</ele>
        <time>2022-12-10T09:58:15.131Z</time>
      </trkpt>
      <trkpt lat="48.3611" lon="-4.2632">
        <ele>57.754589</ele>
        <time>2022-12-10T09:58:18.149Z</time>
      </trkpt>
      <trkpt lat="48.36115" lon="-4.26304">
        <ele>57.340652</ele>
        <time>2022-12-10T09:58:21.136Z</time>
      </trkpt>
      <trkpt lat="48.36118" lon="-4.26287">
        <ele>57.249014</ele>
        <time>2022-12-10T09:58:24.144Z</time>
      </trkpt>
      <trkpt lat="48.36123" lon="-4.26269">
        <ele>57.174995</ele>
        <time>2022-12-10T09:58:27.151Z</time>
      </trkpt>
      <trkpt lat="48.36127" lon="-4.2625">
        <ele>57.101561</ele>
        <time>2022-12-10T09:58:30.158Z</time>
      </trkpt>
      <trkpt lat="48.36131" lon="-4.26233">
        <ele>57.031683</ele>
        <time>2022-12-10T09:58:33.149Z</time>
      </trkpt>
      <trkpt lat="48.36135" lon="-4.26216">
        <ele>56.962054</ele>
        <time>2022-12-10T09:58:36.151Z</time>
      </trkpt>
      <trkpt lat="48.36139" lon="-4.26199">
        <ele>56.892946</ele>
        <time>2022-12-10T09:58:39.154Z</time>
      </trkpt>
      <trkpt lat="48.36144" lon="-4.26184">
        <ele>56.827411</ele>
        <time>2022-12-10T09:58:42.150Z</time>
      </trkpt>
      <trkpt lat="48.36147" lon="-4.26169">
        <ele>56.767071</ele>
        <time>2022-12-10T09:58:45.135Z</time>
      </trkpt>
      <trkpt lat="48.3615" lon="-4.26155">
        <ele>56.713458</ele>
        <time>2022-12-10T09:58:48.143Z</time>
      </trkpt>
      <trkpt lat="48.36153" lon="-4.26142">
        <ele>56.661472</ele>
        <time>2022-12-10T09:58:51.130Z</time>
      </trkpt>
      <trkpt lat="48.36157" lon="-4.26128">
        <ele>56.601772</ele>
        <time>2022-12-10T09:58:54.153Z</time>
      </trkpt>
      <trkpt lat="48.3616" lon="-4.26114">
        <ele>56.544989</ele>
        <time>2022-12-10T09:58:57.154Z</time>
      </trkpt>
      <trkpt lat="48.36163" lon="-4.26098">
        <ele>56.481523</ele>
        <time>2022-12-10T09:59:01.150Z</time>
      </trkpt>
      <trkpt lat="48.36166" lon="-4.26082">
        <ele>56.416438</ele>
        <time>2022-12-10T09:59:05.134Z</time>
      </trkpt>
      <trkpt lat="48.36167" lon="-4.26065">
        <ele>56.353792</ele>
        <time>2022-12-10T09:59:09.125Z</time>
      </trkpt>
      <trkpt lat="48.36164" lon="-4.2605">
        <ele>56.292835</ele>
        <time>2022-12-10T09:59:13.155Z</time>
      </trkpt>
      <trkpt lat="48.36161" lon="-4.26034">
        <ele>56.373984</ele>
        <time>2022-12-10T09:59:17.155Z</time>
      </trkpt>
      <trkpt lat="48.36156" lon="-4.26019">
        <ele>56.512459</ele>
        <time>2022-12-10T09:59:21.128Z</time>
      </trkpt>
      <trkpt lat="48.36153" lon="-4.26004">
        <ele>56.635958</ele>
        <time>2022-12-10T09:59:25.139Z</time>
      </trkpt>
      <trkpt lat="48.36151" lon="-4.2599">
        <ele>56.753073</ele>
        <time>2022-12-10T09:59:30.148Z</time>
      </trkpt>
      <trkpt lat="48.3615" lon="-4.25976">
        <ele>56.862403</ele>
        <time>2022-12-10T09:59:43.134Z</time>
      </trkpt>
      <trkpt lat="48.36136" lon="-4.25971">
        <ele>57.037749</ele>
        <time>2022-12-10T10:00:06.133Z</time>
      </trkpt>
      <trkpt lat="48.36127" lon="-4.25971">
        <ele>57.14629</ele>
        <time>2022-12-10T10:00:09.146Z</time>
      </trkpt>
      <trkpt lat="48.36117" lon="-4.25972">
        <ele>57.265872</ele>
        <time>2022-12-10T10:00:12.148Z</time>
      </trkpt>
      <trkpt lat="48.36107" lon="-4.25974">
        <ele>57.391786</ele>
        <time>2022-12-10T10:00:15.132Z</time>
      </trkpt>
      <trkpt lat="48.36096" lon="-4.25974">
        <ele>57.520781</ele>
        <time>2022-12-10T10:00:18.134Z</time>
      </trkpt>
      <trkpt lat="48.36085" lon="-4.25975">
        <ele>57.652344</ele>
        <time>2022-12-10T10:00:21.148Z</time>
      </trkpt>
      <trkpt lat="48.36075" lon="-4.25976">
        <ele>57.780216</ele>
        <time>2022-12-10T10:00:24.154Z</time>
      </trkpt>
      <trkpt lat="48.36064" lon="-4.25977">
        <ele>57.909591</ele>
        <time>2022-12-10T10:00:27.154Z</time>
      </trkpt>
      <trkpt lat="48.36053" lon="-4.25978">
        <ele>58.04228</ele>
        <time>2022-12-10T10:00:30.154Z</time>
      </trkpt>
      <trkpt lat="48.36041" lon="-4.25979">
        <ele>58.182412</ele>
        <time>2022-12-10T10:00:33.154Z</time>
      </trkpt>
      <trkpt lat="48.3603" lon="-4.25981">
        <ele>58.320557</ele>
        <time>2022-12-10T10:00:36.145Z</time>
      </trkpt>
      <trkpt lat="48.36018" lon="-4.25982">
        <ele>58.429353</ele>
        <time>2022-12-10T10:00:39.150Z</time>
      </trkpt>
      <trkpt lat="48.36007" lon="-4.25983">
        <ele>58.346084</ele>
        <time>2022-12-10T10:00:42.136Z</time>
      </trkpt>
      <trkpt lat="48.35997" lon="-4.25983">
        <ele>58.267587</ele>
        <time>2022-12-10T10:00:45.132Z</time>
      </trkpt>
      <trkpt lat="48.35987" lon="-4.25984">
        <ele>58.184841</ele>
        <time>2022-12-10T10:00:48.155Z</time>
      </trkpt>
      <trkpt lat="48.35977" lon="-4.25984">
        <ele>58.107885</ele>
        <time>2022-12-10T10:00:51.152Z</time>
      </trkpt>
      <trkpt lat="48.35967" lon="-4.25986">
        <ele>58.028149</ele>
        <time>2022-12-10T10:00:54.150Z</time>
      </trkpt>
      <trkpt lat="48.35957" lon="-4.25987">
        <ele>57.946343</ele>
        <time>2022-12-10T10:00:57.154Z</time>
      </trkpt>
      <trkpt lat="48.35947" lon="-4.25986">
        <ele>57.865383</ele>
        <time>2022-12-10T10:01:00.148Z</time>
      </trkpt>
      <trkpt lat="48.35939" lon="-4.25979">
        <ele>57.792154</ele>
        <time>2022-12-10T10:01:03.130Z</time>
      </trkpt>
      <trkpt lat="48.35936" lon="-4.25966">
        <ele>57.718156</ele>
        <time>2022-12-10T10:01:06.138Z</time>
      </trkpt>
      <trkpt lat="48.35935" lon="-4.25949">
        <ele>57.629557</ele>
        <time>2022-12-10T10:01:09.130Z</time>
      </trkpt>
      <trkpt lat="48.35933" lon="-4.25932">
        <ele>57.537478</ele>
        <time>2022-12-10T10:01:12.127Z</time>
      </trkpt>
      <trkpt lat="48.3593" lon="-4.25916">
        <ele>57.450398</ele>
        <time>2022-12-10T10:01:15.133Z</time>
      </trkpt>
      <trkpt lat="48.35927" lon="-4.259">
        <ele>57.361288</ele>
        <time>2022-12-10T10:01:18.138Z</time>
      </trkpt>
      <trkpt lat="48.35925" lon="-4.25885">
        <ele>57.281387</ele>
        <time>2022-12-10T10:01:21.135Z</time>
      </trkpt>
      <trkpt lat="48.3592" lon="-4.25869">
        <ele>57.189056</ele>
        <time>2022-12-10T10:01:25.130Z</time>
      </trkpt>
      <trkpt lat="48.35911" lon="-4.25863">
        <ele>57.10789</ele>
        <time>2022-12-10T10:01:29.153Z</time>
      </trkpt>
      <trkpt lat="48.35899" lon="-4.25865">
        <ele>57.019385</ele>
        <time>2022-12-10T10:01:33.139Z</time>
      </trkpt>
      <trkpt lat="48.35888" lon="-4.25865">
        <ele>57.12294</ele>
        <time>2022-12-10T10:01:37.148Z</time>
      </trkpt>
      <trkpt lat="48.35879" lon="-4.25861">
        <ele>57.201884</ele>
        <time>2022-12-10T10:01:40.132Z</time>
      </trkpt>
      <trkpt lat="48.35873" lon="-4.25846">
        <ele>57.29816</ele>
        <time>2022-12-10T10:01:44.155Z</time>
      </trkpt>
      <trkpt lat="48.35869" lon="-4.25834">
        <ele>57.377584</ele>
        <time>2022-12-10T10:01:47.136Z</time>
      </trkpt>
      <trkpt lat="48.35867" lon="-4.25821">
        <ele>57.456025</ele>
        <time>2022-12-10T10:01:50.145Z</time>
      </trkpt>
      <trkpt lat="48.35864" lon="-4.25806">
        <ele>57.545534</ele>
        <time>2022-12-10T10:01:55.132Z</time>
      </trkpt>
      <trkpt lat="48.35868" lon="-4.25804">
        <ele>57.575509</ele>
        <time>2022-12-10T10:02:10.328Z</time>
      </trkpt>
      <trkpt lat="48.3588" lon="-4.25797">
        <ele>57.686892</ele>
        <time>2022-12-10T10:12:17.138Z</time>
      </trkpt>
      <trkpt lat="48.35895" lon="-4.25783">
        <ele>57.844879</ele>
        <time>2022-12-10T10:12:44.144Z</time>
      </trkpt>
      <trkpt lat="48.35904" lon="-4.2579">
        <ele>57.928049</ele>
        <time>2022-12-10T10:12:52.142Z</time>
      </trkpt>
      <trkpt lat="48.35907" lon="-4.25805">
        <ele>58.021278</ele>
        <time>2022-12-10T10:12:56.141Z</time>
      </trkpt>
      <trkpt lat="48.35911" lon="-4.2582">
        <ele>58.117793</ele>
        <time>2022-12-10T10:13:00.135Z</time>
      </trkpt>
      <trkpt lat="48.35916" lon="-4.25837">
        <ele>58.220423</ele>
        <time>2022-12-10T10:13:04.150Z</time>
      </trkpt>
      <trkpt lat="48.35919" lon="-4.25851">
        <ele>58.306546</ele>
        <time>2022-12-10T10:13:07.134Z</time>
      </trkpt>
      <trkpt lat="48.35923" lon="-4.25865">
        <ele>58.394674</ele>
        <time>2022-12-10T10:13:10.131Z</time>
      </trkpt>
      <trkpt lat="48.35926" lon="-4.25879">
        <ele>58.479702</ele>
        <time>2022-12-10T10:13:13.149Z</time>
      </trkpt>
      <trkpt lat="48.35929" lon="-4.25893">
        <ele>58.565243</ele>
        <time>2022-12-10T10:13:16.154Z</time>
      </trkpt>
      <trkpt lat="48.35931" lon="-4.25907">
        <ele>58.758114</ele>
        <time>2022-12-10T10:13:19.138Z</time>
      </trkpt>
      <trkpt lat="48.35935" lon="-4.25924">
        <ele>59.041824</ele>
        <time>2022-12-10T10:13:23.153Z</time>
      </trkpt>
      <trkpt lat="48.35938" lon="-4.2594">
        <ele>59.312617</ele>
        <time>2022-12-10T10:13:27.150Z</time>
      </trkpt>
      <trkpt lat="48.35942" lon="-4.25955">
        <ele>59.581262</ele>
        <time>2022-12-10T10:13:31.134Z</time>
      </trkpt>
      <trkpt lat="48.35941" lon="-4.25977">
        <ele>59.93148</ele>
        <time>2022-12-10T10:13:59.144Z</time>
      </trkpt>
      <trkpt lat="48.3593" lon="-4.2598">
        <ele>60.186702</ele>
        <time>2022-12-10T10:14:05.132Z</time>
      </trkpt>
      <trkpt lat="48.35921" lon="-4.25982">
        <ele>60.421735</ele>
        <time>2022-12-10T10:14:11.139Z</time>
      </trkpt>
      <trkpt lat="48.35906" lon="-4.25983">
        <ele>60.775897</ele>
        <time>2022-12-10T10:14:36.136Z</time>
      </trkpt>
      <trkpt lat="48.35897" lon="-4.25984">
        <ele>61.009067</ele>
        <time>2022-12-10T10:14:40.131Z</time>
      </trkpt>
      <trkpt lat="48.35886" lon="-4.25982">
        <ele>61.26712</ele>
        <time>2022-12-10T10:14:45.149Z</time>
      </trkpt>
      <trkpt lat="48.35875" lon="-4.2598">
        <ele>61.52997</ele>
        <time>2022-12-10T10:14:50.164Z</time>
      </trkpt>
      <trkpt lat="48.35865" lon="-4.25976">
        <ele>61.784045</ele>
        <time>2022-12-10T10:14:55.147Z</time>
      </trkpt>
      <trkpt lat="48.35855" lon="-4.25972">
        <ele>62.029878</ele>
        <time>2022-12-10T10:15:00.129Z</time>
      </trkpt>
      <trkpt lat="48.35846" lon="-4.2597">
        <ele>62.268541</ele>
        <time>2022-12-10T10:15:05.153Z</time>
      </trkpt>
      <trkpt lat="48.35836" lon="-4.25965">
        <ele>62.51888</ele>
        <time>2022-12-10T10:15:10.145Z</time>
      </trkpt>
      <trkpt lat="48.35826" lon="-4.25961">
        <ele>62.752032</ele>
        <time>2022-12-10T10:15:15.151Z</time>
      </trkpt>
      <trkpt lat="48.35816" lon="-4.25957">
        <ele>63.085992</ele>
        <time>2022-12-10T10:15:21.125Z</time>
      </trkpt>
      <trkpt lat="48.35808" lon="-4.25951">
        <ele>63.612137</ele>
        <time>2022-12-10T10:15:27.153Z</time>
      </trkpt>
      <trkpt lat="48.35798" lon="-4.25943">
        <ele>64.222581</ele>
        <time>2022-12-10T10:15:33.145Z</time>
      </trkpt>
      <trkpt lat="48.35789" lon="-4.25935">
        <ele>64.841564</ele>
        <time>2022-12-10T10:15:39.143Z</time>
      </trkpt>
      <trkpt lat="48.35779" lon="-4.25927">
        <ele>65.446292</ele>
        <time>2022-12-10T10:15:45.143Z</time>
      </trkpt>
      <trkpt lat="48.3577" lon="-4.25919">
        <ele>66.023977</ele>
        <time>2022-12-10T10:15:50.151Z</time>
      </trkpt>
      <trkpt lat="48.35762" lon="-4.2591">
        <ele>66.589212</ele>
        <time>2022-12-10T10:15:55.132Z</time>
      </trkpt>
      <trkpt lat="48.35754" lon="-4.25904">
        <ele>67.104724</ele>
        <time>2022-12-10T10:16:00.137Z</time>
      </trkpt>
      <trkpt lat="48.35746" lon="-4.25896">
        <ele>67.64703</ele>
        <time>2022-12-10T10:16:05.167Z</time>
      </trkpt>
      <trkpt lat="48.35738" lon="-4.25888">
        <ele>68.17873</ele>
        <time>2022-12-10T10:16:10.163Z</time>
      </trkpt>
      <trkpt lat="48.3573" lon="-4.25879">
        <ele>68.73752</ele>
        <time>2022-12-10T10:16:15.131Z</time>
      </trkpt>
      <trkpt lat="48.35722" lon="-4.25871">
        <ele>69.255734</ele>
        <time>2022-12-10T10:16:20.149Z</time>
      </trkpt>
      <trkpt lat="48.35714" lon="-4.25863">
        <ele>69.808228</ele>
        <time>2022-12-10T10:16:25.136Z</time>
      </trkpt>
      <trkpt lat="48.35706" lon="-4.25855">
        <ele>70.350536</ele>
        <time>2022-12-10T10:16:30.151Z</time>
      </trkpt>
      <trkpt lat="48.35697" lon="-4.25849">
        <ele>70.887642</ele>
        <time>2022-12-10T10:16:35.152Z</time>
      </trkpt>
      <trkpt lat="48.35689" lon="-4.25842">
        <ele>71.415888</ele>
        <time>2022-12-10T10:16:40.140Z</time>
      </trkpt>
      <trkpt lat="48.3568" lon="-4.25834">
        <ele>71.968653</ele>
        <time>2022-12-10T10:16:45.149Z</time>
      </trkpt>
      <trkpt lat="48.35671" lon="-4.25827">
        <ele>72.538504</ele>
        <time>2022-12-10T10:16:50.153Z</time>
      </trkpt>
      <trkpt lat="48.35662" lon="-4.2582">
        <ele>73.08839</ele>
        <time>2022-12-10T10:16:55.128Z</time>
      </trkpt>
      <trkpt lat="48.35653" lon="-4.25811">
        <ele>73.42752</ele>
        <time>2022-12-10T10:17:00.148Z</time>
      </trkpt>
      <trkpt lat="48.35645" lon="-4.25802">
        <ele>73.762996</ele>
        <time>2022-12-10T10:17:05.145Z</time>
      </trkpt>
      <trkpt lat="48.35635" lon="-4.25796">
        <ele>74.103153</ele>
        <time>2022-12-10T10:17:10.151Z</time>
      </trkpt>
      <trkpt lat="48.35626" lon="-4.25788">
        <ele>74.450838</ele>
        <time>2022-12-10T10:17:15.137Z</time>
      </trkpt>
      <trkpt lat="48.35617" lon="-4.2578">
        <ele>74.791723</ele>
        <time>2022-12-10T10:17:20.154Z</time>
      </trkpt>
      <trkpt lat="48.35609" lon="-4.25772">
        <ele>75.127546</ele>
        <time>2022-12-10T10:17:25.153Z</time>
      </trkpt>
      <trkpt lat="48.356" lon="-4.25764">
        <ele>75.475299</ele>
        <time>2022-12-10T10:17:30.153Z</time>
      </trkpt>
      <trkpt lat="48.35591" lon="-4.25755">
        <ele>75.823052</ele>
        <time>2022-12-10T10:17:35.154Z</time>
      </trkpt>
      <trkpt lat="48.35582" lon="-4.25746">
        <ele>76.182685</ele>
        <time>2022-12-10T10:17:40.141Z</time>
      </trkpt>
      <trkpt lat="48.35573" lon="-4.25739">
        <ele>76.505556</ele>
        <time>2022-12-10T10:17:45.163Z</time>
      </trkpt>
      <trkpt lat="48.35565" lon="-4.25731">
        <ele>76.835144</ele>
        <time>2022-12-10T10:17:50.160Z</time>
      </trkpt>
      <trkpt lat="48.35556" lon="-4.25723">
        <ele>77.176609</ele>
        <time>2022-12-10T10:17:55.149Z</time>
      </trkpt>
      <trkpt lat="48.35547" lon="-4.25715">
        <ele>77.522571</ele>
        <time>2022-12-10T10:18:00.142Z</time>
      </trkpt>
      <trkpt lat="48.35538" lon="-4.25706">
        <ele>77.869155</ele>
        <time>2022-12-10T10:18:05.151Z</time>
      </trkpt>
      <trkpt lat="48.35529" lon="-4.25699">
        <ele>78.214341</ele>
        <time>2022-12-10T10:18:10.166Z</time>
      </trkpt>
      <trkpt lat="48.3552" lon="-4.25691">
        <ele>78.549047</ele>
        <time>2022-12-10T10:18:15.142Z</time>
      </trkpt>
      <trkpt lat="48.35511" lon="-4.25682">
        <ele>78.893378</ele>
        <time>2022-12-10T10:18:20.155Z</time>
      </trkpt>
      <trkpt lat="48.35504" lon="-4.25674">
        <ele>79.175094</ele>
        <time>2022-12-10T10:18:25.155Z</time>
      </trkpt>
      <trkpt lat="48.35495" lon="-4.25666">
        <ele>79.460692</ele>
        <time>2022-12-10T10:18:30.155Z</time>
      </trkpt>
      <trkpt lat="48.35487" lon="-4.25657">
        <ele>79.76184</ele>
        <time>2022-12-10T10:18:35.156Z</time>
      </trkpt>
      <trkpt lat="48.35478" lon="-4.25649">
        <ele>80.060643</ele>
        <time>2022-12-10T10:18:40.151Z</time>
      </trkpt>
      <trkpt lat="48.35468" lon="-4.25641">
        <ele>80.378404</ele>
        <time>2022-12-10T10:18:45.150Z</time>
      </trkpt>
      <trkpt lat="48.35459" lon="-4.25633">
        <ele>80.680906</ele>
        <time>2022-12-10T10:18:50.153Z</time>
      </trkpt>
      <trkpt lat="48.35451" lon="-4.25624">
        <ele>80.99124</ele>
        <time>2022-12-10T10:18:55.139Z</time>
      </trkpt>
      <trkpt lat="48.35441" lon="-4.25616">
        <ele>81.305104</ele>
        <time>2022-12-10T10:19:00.131Z</time>
      </trkpt>
      <trkpt lat="48.35432" lon="-4.25608">
        <ele>81.608283</ele>
        <time>2022-12-10T10:19:05.139Z</time>
      </trkpt>
      <trkpt lat="48.35423" lon="-4.25601">
        <ele>81.900087</ele>
        <time>2022-12-10T10:19:10.160Z</time>
      </trkpt>
      <trkpt lat="48.35414" lon="-4.25594">
        <ele>82.205817</ele>
        <time>2022-12-10T10:19:15.149Z</time>
      </trkpt>
      <trkpt lat="48.35404" lon="-4.25588">
        <ele>82.514351</ele>
        <time>2022-12-10T10:19:20.149Z</time>
      </trkpt>
      <trkpt lat="48.35394" lon="-4.25582">
        <ele>82.830418</ele>
        <time>2022-12-10T10:19:25.155Z</time>
      </trkpt>
      <trkpt lat="48.35384" lon="-4.25575">
        <ele>83.141871</ele>
        <time>2022-12-10T10:19:30.150Z</time>
      </trkpt>
      <trkpt lat="48.35374" lon="-4.25569">
        <ele>83.455619</ele>
        <time>2022-12-10T10:19:35.134Z</time>
      </trkpt>
      <trkpt lat="48.35364" lon="-4.25562">
        <ele>83.757213</ele>
        <time>2022-12-10T10:19:40.163Z</time>
      </trkpt>
      <trkpt lat="48.35356" lon="-4.25556">
        <ele>84.040416</ele>
        <time>2022-12-10T10:19:44.154Z</time>
      </trkpt>
      <trkpt lat="48.35347" lon="-4.25549">
        <ele>84.362483</ele>
        <time>2022-12-10T10:19:48.152Z</time>
      </trkpt>
      <trkpt lat="48.35337" lon="-4.25542">
        <ele>84.760586</ele>
        <time>2022-12-10T10:19:53.152Z</time>
      </trkpt>
      <trkpt lat="48.35327" lon="-4.25538">
        <ele>85.161346</ele>
        <time>2022-12-10T10:19:58.150Z</time>
      </trkpt>
      <trkpt lat="48.35316" lon="-4.25539">
        <ele>85.542507</ele>
        <time>2022-12-10T10:20:03.127Z</time>
      </trkpt>
      <trkpt lat="48.35308" lon="-4.25532">
        <ele>85.87354</ele>
        <time>2022-12-10T10:20:07.143Z</time>
      </trkpt>
      <trkpt lat="48.35302" lon="-4.25521">
        <ele>86.238843</ele>
        <time>2022-12-10T10:20:12.164Z</time>
      </trkpt>
      <trkpt lat="48.35293" lon="-4.25513">
        <ele>86.627503</ele>
        <time>2022-12-10T10:20:17.143Z</time>
      </trkpt>
      <trkpt lat="48.35284" lon="-4.25509">
        <ele>86.954855</ele>
        <time>2022-12-10T10:20:21.139Z</time>
      </trkpt>
      <trkpt lat="48.35274" lon="-4.25501">
        <ele>87.358492</ele>
        <time>2022-12-10T10:20:26.156Z</time>
      </trkpt>
      <trkpt lat="48.35264" lon="-4.25495">
        <ele>87.754236</ele>
        <time>2022-12-10T10:20:31.133Z</time>
      </trkpt>
      <trkpt lat="48.35255" lon="-4.25489">
        <ele>88.112251</ele>
        <time>2022-12-10T10:20:35.153Z</time>
      </trkpt>
      <trkpt lat="48.35247" lon="-4.25483">
        <ele>88.471291</ele>
        <time>2022-12-10T10:20:39.154Z</time>
      </trkpt>
      <trkpt lat="48.35237" lon="-4.25477">
        <ele>88.860895</ele>
        <time>2022-12-10T10:20:43.135Z</time>
      </trkpt>
      <trkpt lat="48.35227" lon="-4.25472">
        <ele>89.228675</ele>
        <time>2022-12-10T10:20:47.144Z</time>
      </trkpt>
      <trkpt lat="48.35217" lon="-4.25467">
        <ele>89.61532</ele>
        <time>2022-12-10T10:20:51.154Z</time>
      </trkpt>
      <trkpt lat="48.35207" lon="-4.25464">
        <ele>90.00282</ele>
        <time>2022-12-10T10:20:55.141Z</time>
      </trkpt>
      <trkpt lat="48.35195" lon="-4.2546">
        <ele>90.442336</ele>
        <time>2022-12-10T10:20:59.156Z</time>
      </trkpt>
      <trkpt lat="48.35183" lon="-4.25457">
        <ele>90.769398</ele>
        <time>2022-12-10T10:21:03.152Z</time>
      </trkpt>
      <trkpt lat="48.35171" lon="-4.25456">
        <ele>90.9397</ele>
        <time>2022-12-10T10:21:07.142Z</time>
      </trkpt>
      <trkpt lat="48.35162" lon="-4.25455">
        <ele>91.068969</ele>
        <time>2022-12-10T10:21:10.154Z</time>
      </trkpt>
      <trkpt lat="48.35153" lon="-4.25455">
        <ele>91.198158</ele>
        <time>2022-12-10T10:21:13.131Z</time>
      </trkpt>
      <trkpt lat="48.35142" lon="-4.25454">
        <ele>91.345508</ele>
        <time>2022-12-10T10:21:17.151Z</time>
      </trkpt>
      <trkpt lat="48.35131" lon="-4.25456">
        <ele>91.511612</ele>
        <time>2022-12-10T10:21:21.154Z</time>
      </trkpt>
      <trkpt lat="48.35121" lon="-4.25457">
        <ele>91.641375</ele>
        <time>2022-12-10T10:21:24.152Z</time>
      </trkpt>
      <trkpt lat="48.3511" lon="-4.2546">
        <ele>91.800855</ele>
        <time>2022-12-10T10:21:28.151Z</time>
      </trkpt>
      <trkpt lat="48.35099" lon="-4.25464">
        <ele>91.962179</ele>
        <time>2022-12-10T10:21:32.163Z</time>
      </trkpt>
      <trkpt lat="48.3509" lon="-4.25467">
        <ele>92.094085</ele>
        <time>2022-12-10T10:21:35.149Z</time>
      </trkpt>
      <trkpt lat="48.35081" lon="-4.2547">
        <ele>92.220706</ele>
        <time>2022-12-10T10:21:38.131Z</time>
      </trkpt>
      <trkpt lat="48.3507" lon="-4.25475">
        <ele>92.387084</ele>
        <time>2022-12-10T10:21:42.158Z</time>
      </trkpt>
      <trkpt lat="48.35058" lon="-4.25482">
        <ele>92.557833</ele>
        <time>2022-12-10T10:21:46.154Z</time>
      </trkpt>
      <trkpt lat="48.3505" lon="-4.25487">
        <ele>92.686595</ele>
        <time>2022-12-10T10:21:49.151Z</time>
      </trkpt>
      <trkpt lat="48.35039" lon="-4.25493">
        <ele>92.851108</ele>
        <time>2022-12-10T10:21:53.158Z</time>
      </trkpt>
      <trkpt lat="48.35028" lon="-4.255">
        <ele>93.011371</ele>
        <time>2022-12-10T10:21:57.155Z</time>
      </trkpt>
      <trkpt lat="48.3502" lon="-4.25505">
        <ele>93.140133</ele>
        <time>2022-12-10T10:22:00.142Z</time>
      </trkpt>
      <trkpt lat="48.35009" lon="-4.25512">
        <ele>93.318645</ele>
        <time>2022-12-10T10:22:04.164Z</time>
      </trkpt>
      <trkpt lat="48.35001" lon="-4.25518">
        <ele>93.477263</ele>
        <time>2022-12-10T10:22:07.155Z</time>
      </trkpt>
      <trkpt lat="48.3499" lon="-4.25524">
        <ele>93.672638</ele>
        <time>2022-12-10T10:22:11.154Z</time>
      </trkpt>
      <trkpt lat="48.3498" lon="-4.25531">
        <ele>93.872749</ele>
        <time>2022-12-10T10:22:15.155Z</time>
      </trkpt>
      <trkpt lat="48.34969" lon="-4.25537">
        <ele>94.078326</ele>
        <time>2022-12-10T10:22:19.158Z</time>
      </trkpt>
      <trkpt lat="48.34957" lon="-4.25544">
        <ele>94.287866</ele>
        <time>2022-12-10T10:22:23.158Z</time>
      </trkpt>
      <trkpt lat="48.34949" lon="-4.25549">
        <ele>94.449404</ele>
        <time>2022-12-10T10:22:26.154Z</time>
      </trkpt>
      <trkpt lat="48.34938" lon="-4.25555">
        <ele>94.639518</ele>
        <time>2022-12-10T10:22:30.152Z</time>
      </trkpt>
      <trkpt lat="48.34928" lon="-4.25561">
        <ele>94.826486</ele>
        <time>2022-12-10T10:22:34.152Z</time>
      </trkpt>
      <trkpt lat="48.34919" lon="-4.25568">
        <ele>95.014015</ele>
        <time>2022-12-10T10:22:38.155Z</time>
      </trkpt>
      <trkpt lat="48.34909" lon="-4.25575">
        <ele>95.199386</ele>
        <time>2022-12-10T10:22:42.155Z</time>
      </trkpt>
      <trkpt lat="48.34899" lon="-4.25583">
        <ele>95.397777</ele>
        <time>2022-12-10T10:22:46.133Z</time>
      </trkpt>
      <trkpt lat="48.34889" lon="-4.25592">
        <ele>95.592101</ele>
        <time>2022-12-10T10:22:50.152Z</time>
      </trkpt>
      <trkpt lat="48.3488" lon="-4.25602">
        <ele>95.792444</ele>
        <time>2022-12-10T10:22:54.158Z</time>
      </trkpt>
      <trkpt lat="48.34871" lon="-4.25611">
        <ele>95.976266</ele>
        <time>2022-12-10T10:22:58.148Z</time>
      </trkpt>
      <trkpt lat="48.34863" lon="-4.25619">
        <ele>96.143599</ele>
        <time>2022-12-10T10:23:02.154Z</time>
      </trkpt>
      <trkpt lat="48.34856" lon="-4.25628">
        <ele>96.304581</ele>
        <time>2022-12-10T10:23:06.139Z</time>
      </trkpt>
      <trkpt lat="48.34848" lon="-4.25637">
        <ele>96.596043</ele>
        <time>2022-12-10T10:23:10.153Z</time>
      </trkpt>
      <trkpt lat="48.34841" lon="-4.25646">
        <ele>96.915685</ele>
        <time>2022-12-10T10:23:14.137Z</time>
      </trkpt>
      <trkpt lat="48.34832" lon="-4.25655">
        <ele>97.309221</ele>
        <time>2022-12-10T10:23:19.163Z</time>
      </trkpt>
      <trkpt lat="48.34824" lon="-4.25666">
        <ele>97.700004</ele>
        <time>2022-12-10T10:23:24.132Z</time>
      </trkpt>
      <trkpt lat="48.34815" lon="-4.25676">
        <ele>98.091616</ele>
        <time>2022-12-10T10:23:29.157Z</time>
      </trkpt>
      <trkpt lat="48.34807" lon="-4.25686">
        <ele>98.474726</ele>
        <time>2022-12-10T10:23:34.144Z</time>
      </trkpt>
      <trkpt lat="48.34798" lon="-4.25695">
        <ele>98.845133</ele>
        <time>2022-12-10T10:23:39.154Z</time>
      </trkpt>
      <trkpt lat="48.3479" lon="-4.25703">
        <ele>99.189974</ele>
        <time>2022-12-10T10:23:44.155Z</time>
      </trkpt>
      <trkpt lat="48.34782" lon="-4.25712">
        <ele>99.536134</ele>
        <time>2022-12-10T10:23:49.153Z</time>
      </trkpt>
      <trkpt lat="48.34774" lon="-4.2572">
        <ele>99.893901</ele>
        <time>2022-12-10T10:23:54.151Z</time>
      </trkpt>
      <trkpt lat="48.34765" lon="-4.25728">
        <ele>100.262674</ele>
        <time>2022-12-10T10:23:59.153Z</time>
      </trkpt>
      <trkpt lat="48.34755" lon="-4.25736">
        <ele>100.650061</ele>
        <time>2022-12-10T10:24:04.137Z</time>
      </trkpt>
      <trkpt lat="48.34747" lon="-4.25744">
        <ele>101.020609</ele>
        <time>2022-12-10T10:24:09.162Z</time>
      </trkpt>
      <trkpt lat="48.34737" lon="-4.25752">
        <ele>101.405777</ele>
        <time>2022-12-10T10:24:14.150Z</time>
      </trkpt>
      <trkpt lat="48.34727" lon="-4.25758">
        <ele>101.787439</ele>
        <time>2022-12-10T10:24:19.150Z</time>
      </trkpt>
      <trkpt lat="48.34717" lon="-4.25765">
        <ele>102.180052</ele>
        <time>2022-12-10T10:24:24.166Z</time>
      </trkpt>
      <trkpt lat="48.34709" lon="-4.25771">
        <ele>102.50167</ele>
        <time>2022-12-10T10:24:28.154Z</time>
      </trkpt>
      <trkpt lat="48.34699" lon="-4.25779">
        <ele>102.693842</ele>
        <time>2022-12-10T10:24:33.152Z</time>
      </trkpt>
      <trkpt lat="48.34691" lon="-4.25784">
        <ele>102.616918</ele>
        <time>2022-12-10T10:24:37.158Z</time>
      </trkpt>
      <trkpt lat="48.34681" lon="-4.25791">
        <ele>102.521357</ele>
        <time>2022-12-10T10:24:42.145Z</time>
      </trkpt>
      <trkpt lat="48.34672" lon="-4.25797">
        <ele>102.443893</ele>
        <time>2022-12-10T10:24:46.155Z</time>
      </trkpt>
      <trkpt lat="48.34664" lon="-4.25802">
        <ele>102.363085</ele>
        <time>2022-12-10T10:24:50.154Z</time>
      </trkpt>
      <trkpt lat="48.34654" lon="-4.25809">
        <ele>102.268149</ele>
        <time>2022-12-10T10:24:54.135Z</time>
      </trkpt>
      <trkpt lat="48.34644" lon="-4.25817">
        <ele>102.172972</ele>
        <time>2022-12-10T10:24:58.162Z</time>
      </trkpt>
      <trkpt lat="48.34635" lon="-4.25823">
        <ele>102.090927</ele>
        <time>2022-12-10T10:25:01.162Z</time>
      </trkpt>
      <trkpt lat="48.34626" lon="-4.25829">
        <ele>102.005383</ele>
        <time>2022-12-10T10:25:04.156Z</time>
      </trkpt>
      <trkpt lat="48.34616" lon="-4.25834">
        <ele>101.920492</ele>
        <time>2022-12-10T10:25:07.132Z</time>
      </trkpt>
      <trkpt lat="48.34607" lon="-4.2584">
        <ele>101.837767</ele>
        <time>2022-12-10T10:25:10.162Z</time>
      </trkpt>
      <trkpt lat="48.34598" lon="-4.25845">
        <ele>101.75422</ele>
        <time>2022-12-10T10:25:13.143Z</time>
      </trkpt>
      <trkpt lat="48.34589" lon="-4.25849">
        <ele>101.670215</ele>
        <time>2022-12-10T10:25:16.154Z</time>
      </trkpt>
      <trkpt lat="48.34579" lon="-4.25852">
        <ele>101.588265</ele>
        <time>2022-12-10T10:25:19.137Z</time>
      </trkpt>
      <trkpt lat="48.34568" lon="-4.25855">
        <ele>101.492598</ele>
        <time>2022-12-10T10:25:22.138Z</time>
      </trkpt>
      <trkpt lat="48.34555" lon="-4.25858">
        <ele>101.382365</ele>
        <time>2022-12-10T10:25:25.152Z</time>
      </trkpt>
      <trkpt lat="48.34546" lon="-4.2586">
        <ele>101.30497</ele>
        <time>2022-12-10T10:25:27.153Z</time>
      </trkpt>
      <trkpt lat="48.34537" lon="-4.25862">
        <ele>101.227228</ele>
        <time>2022-12-10T10:25:29.156Z</time>
      </trkpt>
      <trkpt lat="48.34528" lon="-4.25864">
        <ele>101.029861</ele>
        <time>2022-12-10T10:25:31.152Z</time>
      </trkpt>
      <trkpt lat="48.34519" lon="-4.25866">
        <ele>100.760078</ele>
        <time>2022-12-10T10:25:33.157Z</time>
      </trkpt>
      <trkpt lat="48.34509" lon="-4.25868">
        <ele>100.491278</ele>
        <time>2022-12-10T10:25:35.156Z</time>
      </trkpt>
      <trkpt lat="48.345" lon="-4.2587">
        <ele>100.224798</ele>
        <time>2022-12-10T10:25:37.154Z</time>
      </trkpt>
      <trkpt lat="48.3449" lon="-4.25872">
        <ele>99.952984</ele>
        <time>2022-12-10T10:25:39.127Z</time>
      </trkpt>
      <trkpt lat="48.34481" lon="-4.25873">
        <ele>99.689532</ele>
        <time>2022-12-10T10:25:41.152Z</time>
      </trkpt>
      <trkpt lat="48.34471" lon="-4.25875">
        <ele>99.415743</ele>
        <time>2022-12-10T10:25:43.153Z</time>
      </trkpt>
      <trkpt lat="48.34461" lon="-4.25876">
        <ele>99.133564</ele>
        <time>2022-12-10T10:25:45.155Z</time>
      </trkpt>
      <trkpt lat="48.34451" lon="-4.25878">
        <ele>98.838219</ele>
        <time>2022-12-10T10:25:47.156Z</time>
      </trkpt>
      <trkpt lat="48.3444" lon="-4.2588">
        <ele>98.547471</ele>
        <time>2022-12-10T10:25:49.135Z</time>
      </trkpt>
      <trkpt lat="48.3443" lon="-4.25882">
        <ele>98.24961</ele>
        <time>2022-12-10T10:25:51.138Z</time>
      </trkpt>
      <trkpt lat="48.34419" lon="-4.25884">
        <ele>97.937828</ele>
        <time>2022-12-10T10:25:53.172Z</time>
      </trkpt>
      <trkpt lat="48.34408" lon="-4.25887">
        <ele>97.620228</ele>
        <time>2022-12-10T10:25:55.155Z</time>
      </trkpt>
      <trkpt lat="48.34397" lon="-4.2589">
        <ele>97.303028</ele>
        <time>2022-12-10T10:25:57.136Z</time>
      </trkpt>
      <trkpt lat="48.34386" lon="-4.25892">
        <ele>96.987952</ele>
        <time>2022-12-10T10:25:59.155Z</time>
      </trkpt>
      <trkpt lat="48.34374" lon="-4.25895">
        <ele>96.672875</ele>
        <time>2022-12-10T10:26:01.152Z</time>
      </trkpt>
      <trkpt lat="48.34363" lon="-4.25896">
        <ele>96.359391</ele>
        <time>2022-12-10T10:26:03.153Z</time>
      </trkpt>
      <trkpt lat="48.34352" lon="-4.25898">
        <ele>96.07914</ele>
        <time>2022-12-10T10:26:05.157Z</time>
      </trkpt>
      <trkpt lat="48.34341" lon="-4.259">
        <ele>95.865482</ele>
        <time>2022-12-10T10:26:07.154Z</time>
      </trkpt>
      <trkpt lat="48.3433" lon="-4.25902">
        <ele>95.661272</ele>
        <time>2022-12-10T10:26:09.145Z</time>
      </trkpt>
      <trkpt lat="48.3432" lon="-4.25904">
        <ele>95.460698</ele>
        <time>2022-12-10T10:26:11.155Z</time>
      </trkpt>
      <trkpt lat="48.34308" lon="-4.25907">
        <ele>95.231216</ele>
        <time>2022-12-10T10:26:13.158Z</time>
      </trkpt>
      <trkpt lat="48.34295" lon="-4.25908">
        <ele>94.999373</ele>
        <time>2022-12-10T10:26:15.153Z</time>
      </trkpt>
      <trkpt lat="48.34282" lon="-4.2591">
        <ele>94.755402</ele>
        <time>2022-12-10T10:26:17.150Z</time>
      </trkpt>
      <trkpt lat="48.34269" lon="-4.25913">
        <ele>94.510511</ele>
        <time>2022-12-10T10:26:19.156Z</time>
      </trkpt>
      <trkpt lat="48.34256" lon="-4.25915">
        <ele>94.264087</ele>
        <time>2022-12-10T10:26:21.150Z</time>
      </trkpt>
      <trkpt lat="48.34243" lon="-4.25918">
        <ele>94.012488</ele>
        <time>2022-12-10T10:26:23.163Z</time>
      </trkpt>
      <trkpt lat="48.3423" lon="-4.25921">
        <ele>93.770102</ele>
        <time>2022-12-10T10:26:25.151Z</time>
      </trkpt>
      <trkpt lat="48.34219" lon="-4.25924">
        <ele>93.550645</ele>
        <time>2022-12-10T10:26:27.150Z</time>
      </trkpt>
      <trkpt lat="48.34208" lon="-4.25926">
        <ele>93.347751</ele>
        <time>2022-12-10T10:26:29.153Z</time>
      </trkpt>
      <trkpt lat="48.34199" lon="-4.25928">
        <ele>93.16366</ele>
        <time>2022-12-10T10:26:31.155Z</time>
      </trkpt>
      <trkpt lat="48.34189" lon="-4.2593">
        <ele>92.988303</ele>
        <time>2022-12-10T10:26:33.151Z</time>
      </trkpt>
      <trkpt lat="48.34179" lon="-4.25931">
        <ele>92.788602</ele>
        <time>2022-12-10T10:26:36.162Z</time>
      </trkpt>
      <trkpt lat="48.34168" lon="-4.25933">
        <ele>92.843431</ele>
        <time>2022-12-10T10:26:39.155Z</time>
      </trkpt>
      <trkpt lat="48.34156" lon="-4.25936">
        <ele>92.939508</ele>
        <time>2022-12-10T10:26:42.164Z</time>
      </trkpt>
      <trkpt lat="48.34144" lon="-4.25938">
        <ele>93.037859</ele>
        <time>2022-12-10T10:26:45.143Z</time>
      </trkpt>
      <trkpt lat="48.34132" lon="-4.2594">
        <ele>93.132021</ele>
        <time>2022-12-10T10:26:48.164Z</time>
      </trkpt>
      <trkpt lat="48.34121" lon="-4.25942">
        <ele>93.225843</ele>
        <time>2022-12-10T10:26:51.163Z</time>
      </trkpt>
      <trkpt lat="48.3411" lon="-4.25945">
        <ele>93.31647</ele>
        <time>2022-12-10T10:26:54.152Z</time>
      </trkpt>
      <trkpt lat="48.34098" lon="-4.25947">
        <ele>93.406804</ele>
        <time>2022-12-10T10:26:57.152Z</time>
      </trkpt>
      <trkpt lat="48.34088" lon="-4.25948">
        <ele>93.495289</ele>
        <time>2022-12-10T10:27:00.152Z</time>
      </trkpt>
      <trkpt lat="48.34077" lon="-4.2595">
        <ele>93.584577</ele>
        <time>2022-12-10T10:27:03.143Z</time>
      </trkpt>
      <trkpt lat="48.34066" lon="-4.25951">
        <ele>93.672671</ele>
        <time>2022-12-10T10:27:06.135Z</time>
      </trkpt>
      <trkpt lat="48.34055" lon="-4.25951">
        <ele>93.756708</ele>
        <time>2022-12-10T10:27:09.164Z</time>
      </trkpt>
      <trkpt lat="48.34045" lon="-4.2595">
        <ele>93.839244</ele>
        <time>2022-12-10T10:27:12.137Z</time>
      </trkpt>
      <trkpt lat="48.34035" lon="-4.25948">
        <ele>93.919174</ele>
        <time>2022-12-10T10:27:15.151Z</time>
      </trkpt>
      <trkpt lat="48.34026" lon="-4.25945">
        <ele>93.997666</ele>
        <time>2022-12-10T10:27:18.150Z</time>
      </trkpt>
      <trkpt lat="48.34016" lon="-4.25939">
        <ele>94.081201</ele>
        <time>2022-12-10T10:27:21.139Z</time>
      </trkpt>
      <trkpt lat="48.34007" lon="-4.25933">
        <ele>94.165288</ele>
        <time>2022-12-10T10:27:24.155Z</time>
      </trkpt>
      <trkpt lat="48.33997" lon="-4.25927">
        <ele>94.135231</ele>
        <time>2022-12-10T10:27:27.131Z</time>
      </trkpt>
      <trkpt lat="48.33987" lon="-4.25921">
        <ele>93.916827</ele>
        <time>2022-12-10T10:27:30.150Z</time>
      </trkpt>
      <trkpt lat="48.33978" lon="-4.25914">
        <ele>93.695281</ele>
        <time>2022-12-10T10:27:33.152Z</time>
      </trkpt>
      <trkpt lat="48.33968" lon="-4.25906">
        <ele>93.474978</ele>
        <time>2022-12-10T10:27:36.154Z</time>
      </trkpt>
      <trkpt lat="48.33959" lon="-4.25898">
        <ele>93.250889</ele>
        <time>2022-12-10T10:27:39.149Z</time>
      </trkpt>
      <trkpt lat="48.33949" lon="-4.2589">
        <ele>93.026853</ele>
        <time>2022-12-10T10:27:42.155Z</time>
      </trkpt>
      <trkpt lat="48.33939" lon="-4.25882">
        <ele>92.789648</ele>
        <time>2022-12-10T10:27:45.157Z</time>
      </trkpt>
      <trkpt lat="48.33928" lon="-4.25871">
        <ele>92.521373</ele>
        <time>2022-12-10T10:27:48.159Z</time>
      </trkpt>
      <trkpt lat="48.33917" lon="-4.25861">
        <ele>92.251357</ele>
        <time>2022-12-10T10:27:51.154Z</time>
      </trkpt>
      <trkpt lat="48.33906" lon="-4.2585">
        <ele>91.97362</ele>
        <time>2022-12-10T10:27:54.154Z</time>
      </trkpt>
      <trkpt lat="48.33898" lon="-4.25843">
        <ele>91.784114</ele>
        <time>2022-12-10T10:27:56.145Z</time>
      </trkpt>
      <trkpt lat="48.33889" lon="-4.25835">
        <ele>91.57764</ele>
        <time>2022-12-10T10:27:58.155Z</time>
      </trkpt>
      <trkpt lat="48.33881" lon="-4.25827">
        <ele>91.377516</ele>
        <time>2022-12-10T10:28:00.154Z</time>
      </trkpt>
      <trkpt lat="48.33873" lon="-4.25818">
        <ele>91.162675</ele>
        <time>2022-12-10T10:28:02.161Z</time>
      </trkpt>
      <trkpt lat="48.33865" lon="-4.25809">
        <ele>90.955908</ele>
        <time>2022-12-10T10:28:04.154Z</time>
      </trkpt>
      <trkpt lat="48.33856" lon="-4.258">
        <ele>90.738304</ele>
        <time>2022-12-10T10:28:06.164Z</time>
      </trkpt>
      <trkpt lat="48.33847" lon="-4.25792">
        <ele>90.521455</ele>
        <time>2022-12-10T10:28:08.154Z</time>
      </trkpt>
      <trkpt lat="48.33838" lon="-4.25784">
        <ele>90.447946</ele>
        <time>2022-12-10T10:28:10.155Z</time>
      </trkpt>
      <trkpt lat="48.33828" lon="-4.25775">
        <ele>90.377958</ele>
        <time>2022-12-10T10:28:12.160Z</time>
      </trkpt>
      <trkpt lat="48.33819" lon="-4.25767">
        <ele>90.310017</ele>
        <time>2022-12-10T10:28:14.145Z</time>
      </trkpt>
      <trkpt lat="48.3381" lon="-4.25758">
        <ele>90.241969</ele>
        <time>2022-12-10T10:28:16.152Z</time>
      </trkpt>
      <trkpt lat="48.338" lon="-4.2575">
        <ele>90.173591</ele>
        <time>2022-12-10T10:28:18.145Z</time>
      </trkpt>
      <trkpt lat="48.33791" lon="-4.25742">
        <ele>90.105543</ele>
        <time>2022-12-10T10:28:20.161Z</time>
      </trkpt>
      <trkpt lat="48.33782" lon="-4.25734">
        <ele>90.042989</ele>
        <time>2022-12-10T10:28:22.154Z</time>
      </trkpt>
      <trkpt lat="48.33774" lon="-4.25727">
        <ele>89.985712</ele>
        <time>2022-12-10T10:28:24.156Z</time>
      </trkpt>
      <trkpt lat="48.33763" lon="-4.25718">
        <ele>89.905686</ele>
        <time>2022-12-10T10:28:27.164Z</time>
      </trkpt>
      <trkpt lat="48.33754" lon="-4.25709">
        <ele>89.832993</ele>
        <time>2022-12-10T10:28:30.156Z</time>
      </trkpt>
      <trkpt lat="48.33744" lon="-4.25699">
        <ele>89.757361</ele>
        <time>2022-12-10T10:28:33.149Z</time>
      </trkpt>
      <trkpt lat="48.33734" lon="-4.2569">
        <ele>89.687999</ele>
        <time>2022-12-10T10:28:36.152Z</time>
      </trkpt>
      <trkpt lat="48.33725" lon="-4.25681">
        <ele>89.617473</ele>
        <time>2022-12-10T10:28:39.157Z</time>
      </trkpt>
      <trkpt lat="48.33715" lon="-4.25672">
        <ele>89.54629</ele>
        <time>2022-12-10T10:28:42.155Z</time>
      </trkpt>
      <trkpt lat="48.33705" lon="-4.25663">
        <ele>89.475108</ele>
        <time>2022-12-10T10:28:45.152Z</time>
      </trkpt>
      <trkpt lat="48.33696" lon="-4.25655">
        <ele>89.406596</ele>
        <time>2022-12-10T10:28:48.153Z</time>
      </trkpt>
      <trkpt lat="48.33687" lon="-4.25648">
        <ele>89.504776</ele>
        <time>2022-12-10T10:28:51.160Z</time>
      </trkpt>
      <trkpt lat="48.33678" lon="-4.2564">
        <ele>89.706712</ele>
        <time>2022-12-10T10:28:54.151Z</time>
      </trkpt>
      <trkpt lat="48.3367" lon="-4.25633">
        <ele>89.898637</ele>
        <time>2022-12-10T10:28:57.156Z</time>
      </trkpt>
      <trkpt lat="48.33662" lon="-4.25625">
        <ele>90.089592</ele>
        <time>2022-12-10T10:29:00.153Z</time>
      </trkpt>
      <trkpt lat="48.33653" lon="-4.25618">
        <ele>90.286088</ele>
        <time>2022-12-10T10:29:03.158Z</time>
      </trkpt>
      <trkpt lat="48.33645" lon="-4.2561">
        <ele>90.483229</ele>
        <time>2022-12-10T10:29:06.154Z</time>
      </trkpt>
      <trkpt lat="48.33636" lon="-4.25604">
        <ele>90.674828</ele>
        <time>2022-12-10T10:29:09.156Z</time>
      </trkpt>
      <trkpt lat="48.33628" lon="-4.25597">
        <ele>90.873083</ele>
        <time>2022-12-10T10:29:12.163Z</time>
      </trkpt>
      <trkpt lat="48.33619" lon="-4.25589">
        <ele>91.065307</ele>
        <time>2022-12-10T10:29:15.157Z</time>
      </trkpt>
      <trkpt lat="48.33611" lon="-4.25582">
        <ele>91.256376</ele>
        <time>2022-12-10T10:29:18.149Z</time>
      </trkpt>
      <trkpt lat="48.33603" lon="-4.25576">
        <ele>91.440429</ele>
        <time>2022-12-10T10:29:21.159Z</time>
      </trkpt>
      <trkpt lat="48.33595" lon="-4.25568">
        <ele>91.626575</ele>
        <time>2022-12-10T10:29:24.155Z</time>
      </trkpt>
      <trkpt lat="48.33586" lon="-4.25561">
        <ele>91.828988</ele>
        <time>2022-12-10T10:29:27.157Z</time>
      </trkpt>
      <trkpt lat="48.33578" lon="-4.25553">
        <ele>92.022245</ele>
        <time>2022-12-10T10:29:30.163Z</time>
      </trkpt>
      <trkpt lat="48.3357" lon="-4.25546">
        <ele>92.216575</ele>
        <time>2022-12-10T10:29:33.155Z</time>
      </trkpt>
      <trkpt lat="48.33562" lon="-4.25538">
        <ele>92.402517</ele>
        <time>2022-12-10T10:29:36.157Z</time>
      </trkpt>
      <trkpt lat="48.33554" lon="-4.2553">
        <ele>92.592339</ele>
        <time>2022-12-10T10:29:39.154Z</time>
      </trkpt>
      <trkpt lat="48.33545" lon="-4.25523">
        <ele>92.789053</ele>
        <time>2022-12-10T10:29:42.155Z</time>
      </trkpt>
      <trkpt lat="48.33537" lon="-4.25516">
        <ele>92.981399</ele>
        <time>2022-12-10T10:29:45.159Z</time>
      </trkpt>
      <trkpt lat="48.33528" lon="-4.25509">
        <ele>92.706482</ele>
        <time>2022-12-10T10:29:48.154Z</time>
      </trkpt>
      <trkpt lat="48.33519" lon="-4.25503">
        <ele>92.426156</ele>
        <time>2022-12-10T10:29:51.155Z</time>
      </trkpt>
      <trkpt lat="48.33509" lon="-4.25497">
        <ele>92.136375</ele>
        <time>2022-12-10T10:29:54.137Z</time>
      </trkpt>
      <trkpt lat="48.33499" lon="-4.25491">
        <ele>91.831101</ele>
        <time>2022-12-10T10:29:57.163Z</time>
      </trkpt>
      <trkpt lat="48.33488" lon="-4.25486">
        <ele>91.525797</ele>
        <time>2022-12-10T10:30:00.133Z</time>
      </trkpt>
      <trkpt lat="48.33476" lon="-4.25482">
        <ele>91.195858</ele>
        <time>2022-12-10T10:30:03.152Z</time>
      </trkpt>
      <trkpt lat="48.33465" lon="-4.25478">
        <ele>90.862795</ele>
        <time>2022-12-10T10:30:06.133Z</time>
      </trkpt>
      <trkpt lat="48.33453" lon="-4.25473">
        <ele>90.530182</ele>
        <time>2022-12-10T10:30:09.155Z</time>
      </trkpt>
      <trkpt lat="48.33441" lon="-4.25468">
        <ele>90.195226</ele>
        <time>2022-12-10T10:30:12.151Z</time>
      </trkpt>
      <trkpt lat="48.3343" lon="-4.25464">
        <ele>89.870633</ele>
        <time>2022-12-10T10:30:15.138Z</time>
      </trkpt>
      <trkpt lat="48.33419" lon="-4.2546">
        <ele>89.558944</ele>
        <time>2022-12-10T10:30:18.159Z</time>
      </trkpt>
      <trkpt lat="48.33408" lon="-4.25455">
        <ele>89.254163</ele>
        <time>2022-12-10T10:30:21.144Z</time>
      </trkpt>
      <trkpt lat="48.33398" lon="-4.25451">
        <ele>88.946509</ele>
        <time>2022-12-10T10:30:24.151Z</time>
      </trkpt>
      <trkpt lat="48.33386" lon="-4.25446">
        <ele>88.625322</ele>
        <time>2022-12-10T10:30:27.135Z</time>
      </trkpt>
      <trkpt lat="48.33375" lon="-4.25439">
        <ele>88.295539</ele>
        <time>2022-12-10T10:30:30.142Z</time>
      </trkpt>
      <trkpt lat="48.33364" lon="-4.25432">
        <ele>87.94129</ele>
        <time>2022-12-10T10:30:33.164Z</time>
      </trkpt>
      <trkpt lat="48.33352" lon="-4.25424">
        <ele>87.542568</ele>
        <time>2022-12-10T10:30:36.141Z</time>
      </trkpt>
      <trkpt lat="48.33342" lon="-4.25413">
        <ele>87.150093</ele>
        <time>2022-12-10T10:30:39.143Z</time>
      </trkpt>
      <trkpt lat="48.33333" lon="-4.25402">
        <ele>86.786571</ele>
        <time>2022-12-10T10:30:42.155Z</time>
      </trkpt>
      <trkpt lat="48.33324" lon="-4.2539">
        <ele>86.407359</ele>
        <time>2022-12-10T10:30:45.152Z</time>
      </trkpt>
      <trkpt lat="48.33316" lon="-4.25375">
        <ele>86.008045</ele>
        <time>2022-12-10T10:30:48.145Z</time>
      </trkpt>
      <trkpt lat="48.33309" lon="-4.25358">
        <ele>85.604815</ele>
        <time>2022-12-10T10:30:51.161Z</time>
      </trkpt>
      <trkpt lat="48.33304" lon="-4.25346">
        <ele>85.311536</ele>
        <time>2022-12-10T10:30:53.150Z</time>
      </trkpt>
      <trkpt lat="48.333" lon="-4.25333">
        <ele>85.020818</ele>
        <time>2022-12-10T10:30:55.155Z</time>
      </trkpt>
      <trkpt lat="48.33295" lon="-4.25315">
        <ele>84.60915</ele>
        <time>2022-12-10T10:30:58.154Z</time>
      </trkpt>
      <trkpt lat="48.3329" lon="-4.25297">
        <ele>84.207578</ele>
        <time>2022-12-10T10:31:01.156Z</time>
      </trkpt>
      <trkpt lat="48.33286" lon="-4.2528">
        <ele>83.81377</ele>
        <time>2022-12-10T10:31:04.154Z</time>
      </trkpt>
      <trkpt lat="48.33281" lon="-4.25263">
        <ele>83.424288</ele>
        <time>2022-12-10T10:31:07.155Z</time>
      </trkpt>
      <trkpt lat="48.33276" lon="-4.25245">
        <ele>83.031584</ele>
        <time>2022-12-10T10:31:10.156Z</time>
      </trkpt>
      <trkpt lat="48.33271" lon="-4.25227">
        <ele>82.634329</ele>
        <time>2022-12-10T10:31:13.152Z</time>
      </trkpt>
      <trkpt lat="48.33267" lon="-4.2521">
        <ele>82.17316</ele>
        <time>2022-12-10T10:31:16.152Z</time>
      </trkpt>
      <trkpt lat="48.33262" lon="-4.25192">
        <ele>81.602746</ele>
        <time>2022-12-10T10:31:19.155Z</time>
      </trkpt>
      <trkpt lat="48.33257" lon="-4.25175">
        <ele>81.042229</ele>
        <time>2022-12-10T10:31:22.154Z</time>
      </trkpt>
      <trkpt lat="48.33253" lon="-4.25159">
        <ele>80.513028</ele>
        <time>2022-12-10T10:31:25.156Z</time>
      </trkpt>
      <trkpt lat="48.33248" lon="-4.25142">
        <ele>79.976514</ele>
        <time>2022-12-10T10:31:28.155Z</time>
      </trkpt>
      <trkpt lat="48.33243" lon="-4.25125">
        <ele>79.415995</ele>
        <time>2022-12-10T10:31:31.155Z</time>
      </trkpt>
      <trkpt lat="48.33239" lon="-4.25108">
        <ele>78.858034</ele>
        <time>2022-12-10T10:31:34.151Z</time>
      </trkpt>
      <trkpt lat="48.33235" lon="-4.25091">
        <ele>78.300301</ele>
        <time>2022-12-10T10:31:37.152Z</time>
      </trkpt>
      <trkpt lat="48.3323" lon="-4.25074">
        <ele>77.747078</ele>
        <time>2022-12-10T10:31:40.164Z</time>
      </trkpt>
      <trkpt lat="48.33225" lon="-4.25057">
        <ele>77.19769</ele>
        <time>2022-12-10T10:31:43.165Z</time>
      </trkpt>
      <trkpt lat="48.3322" lon="-4.2504">
        <ele>76.65299</ele>
        <time>2022-12-10T10:31:46.157Z</time>
      </trkpt>
      <trkpt lat="48.33216" lon="-4.25026">
        <ele>76.167951</ele>
        <time>2022-12-10T10:31:49.157Z</time>
      </trkpt>
      <trkpt lat="48.33212" lon="-4.25013">
        <ele>75.755229</ele>
        <time>2022-12-10T10:31:52.161Z</time>
      </trkpt>
      <trkpt lat="48.33204" lon="-4.24981">
        <ele>74.709049</ele>
        <time>2022-12-10T10:32:17.143Z</time>
      </trkpt>
      <trkpt lat="48.332" lon="-4.24964">
        <ele>74.149997</ele>
        <time>2022-12-10T10:32:20.144Z</time>
      </trkpt>
      <trkpt lat="48.33195" lon="-4.24944">
        <ele>73.515695</ele>
        <time>2022-12-10T10:32:23.166Z</time>
      </trkpt>
      <trkpt lat="48.33191" lon="-4.24932">
        <ele>73.088833</ele>
        <time>2022-12-10T10:32:25.160Z</time>
      </trkpt>
      <trkpt lat="48.33187" lon="-4.24914">
        <ele>72.504243</ele>
        <time>2022-12-10T10:32:28.161Z</time>
      </trkpt>
      <trkpt lat="48.33182" lon="-4.24897">
        <ele>71.932207</ele>
        <time>2022-12-10T10:32:31.156Z</time>
      </trkpt>
      <trkpt lat="48.33177" lon="-4.2488">
        <ele>71.374413</ele>
        <time>2022-12-10T10:32:34.154Z</time>
      </trkpt>
      <trkpt lat="48.33173" lon="-4.24864">
        <ele>70.837835</ele>
        <time>2022-12-10T10:32:37.155Z</time>
      </trkpt>
      <trkpt lat="48.33168" lon="-4.24848">
        <ele>70.295957</ele>
        <time>2022-12-10T10:32:40.162Z</time>
      </trkpt>
      <trkpt lat="48.33163" lon="-4.24831">
        <ele>69.73528</ele>
        <time>2022-12-10T10:32:43.167Z</time>
      </trkpt>
      <trkpt lat="48.33158" lon="-4.24813">
        <ele>69.136223</ele>
        <time>2022-12-10T10:32:46.155Z</time>
      </trkpt>
      <trkpt lat="48.33153" lon="-4.24795">
        <ele>68.536786</ele>
        <time>2022-12-10T10:32:49.163Z</time>
      </trkpt>
      <trkpt lat="48.33148" lon="-4.24776">
        <ele>67.904152</ele>
        <time>2022-12-10T10:32:52.157Z</time>
      </trkpt>
      <trkpt lat="48.33145" lon="-4.24762">
        <ele>67.461282</ele>
        <time>2022-12-10T10:32:54.151Z</time>
      </trkpt>
      <trkpt lat="48.33142" lon="-4.24749">
        <ele>67.020401</ele>
        <time>2022-12-10T10:32:56.159Z</time>
      </trkpt>
      <trkpt lat="48.33137" lon="-4.2473">
        <ele>66.399237</ele>
        <time>2022-12-10T10:32:59.154Z</time>
      </trkpt>
      <trkpt lat="48.33132" lon="-4.24712">
        <ele>65.830291</ele>
        <time>2022-12-10T10:33:02.168Z</time>
      </trkpt>
      <trkpt lat="48.33127" lon="-4.24694">
        <ele>65.371605</ele>
        <time>2022-12-10T10:33:05.153Z</time>
      </trkpt>
      <trkpt lat="48.33123" lon="-4.24675">
        <ele>64.908132</ele>
        <time>2022-12-10T10:33:08.163Z</time>
      </trkpt>
      <trkpt lat="48.33118" lon="-4.24656">
        <ele>64.446835</ele>
        <time>2022-12-10T10:33:11.151Z</time>
      </trkpt>
      <trkpt lat="48.33112" lon="-4.24638">
        <ele>63.97673</ele>
        <time>2022-12-10T10:33:14.147Z</time>
      </trkpt>
      <trkpt lat="48.33109" lon="-4.24625">
        <ele>63.642655</ele>
        <time>2022-12-10T10:33:16.153Z</time>
      </trkpt>
      <trkpt lat="48.33105" lon="-4.24611">
        <ele>63.29427</ele>
        <time>2022-12-10T10:33:18.155Z</time>
      </trkpt>
      <trkpt lat="48.33101" lon="-4.24596">
        <ele>62.925109</ele>
        <time>2022-12-10T10:33:20.151Z</time>
      </trkpt>
      <trkpt lat="48.33097" lon="-4.24581">
        <ele>62.550291</ele>
        <time>2022-12-10T10:33:22.163Z</time>
      </trkpt>
      <trkpt lat="48.33093" lon="-4.24567">
        <ele>62.170539</ele>
        <time>2022-12-10T10:33:24.158Z</time>
      </trkpt>
      <trkpt lat="48.33088" lon="-4.2455">
        <ele>61.753402</ele>
        <time>2022-12-10T10:33:26.155Z</time>
      </trkpt>
      <trkpt lat="48.33084" lon="-4.24534">
        <ele>61.346602</ele>
        <time>2022-12-10T10:33:28.162Z</time>
      </trkpt>
      <trkpt lat="48.33079" lon="-4.24517">
        <ele>60.922562</ele>
        <time>2022-12-10T10:33:30.159Z</time>
      </trkpt>
      <trkpt lat="48.33075" lon="-4.24501">
        <ele>60.517106</ele>
        <time>2022-12-10T10:33:32.155Z</time>
      </trkpt>
      <trkpt lat="48.3307" lon="-4.24484">
        <ele>60.10113</ele>
        <time>2022-12-10T10:33:34.162Z</time>
      </trkpt>
      <trkpt lat="48.33065" lon="-4.24469">
        <ele>59.696507</ele>
        <time>2022-12-10T10:33:36.154Z</time>
      </trkpt>
      <trkpt lat="48.33059" lon="-4.24454">
        <ele>59.461017</ele>
        <time>2022-12-10T10:33:38.154Z</time>
      </trkpt>
      <trkpt lat="48.33053" lon="-4.2444">
        <ele>59.265884</ele>
        <time>2022-12-10T10:33:40.134Z</time>
      </trkpt>
      <trkpt lat="48.33046" lon="-4.24428">
        <ele>59.086832</ele>
        <time>2022-12-10T10:33:42.157Z</time>
      </trkpt>
      <trkpt lat="48.3304" lon="-4.24418">
        <ele>58.928614</ele>
        <time>2022-12-10T10:33:44.155Z</time>
      </trkpt>
      <trkpt lat="48.33033" lon="-4.24409">
        <ele>58.770097</ele>
        <time>2022-12-10T10:33:46.160Z</time>
      </trkpt>
      <trkpt lat="48.33025" lon="-4.244">
        <ele>58.606941</ele>
        <time>2022-12-10T10:33:48.162Z</time>
      </trkpt>
      <trkpt lat="48.33018" lon="-4.24391">
        <ele>58.44745</ele>
        <time>2022-12-10T10:33:50.167Z</time>
      </trkpt>
      <trkpt lat="48.33011" lon="-4.24382">
        <ele>58.287235</ele>
        <time>2022-12-10T10:33:52.160Z</time>
      </trkpt>
      <trkpt lat="48.33004" lon="-4.24373">
        <ele>58.12203</ele>
        <time>2022-12-10T10:33:54.164Z</time>
      </trkpt>
      <trkpt lat="48.32997" lon="-4.24364">
        <ele>57.962971</ele>
        <time>2022-12-10T10:33:56.156Z</time>
      </trkpt>
      <trkpt lat="48.32989" lon="-4.24354">
        <ele>57.795869</ele>
        <time>2022-12-10T10:33:58.161Z</time>
      </trkpt>
      <trkpt lat="48.32982" lon="-4.24345">
        <ele>57.638858</ele>
        <time>2022-12-10T10:34:00.154Z</time>
      </trkpt>
      <trkpt lat="48.32972" lon="-4.24332">
        <ele>57.410881</ele>
        <time>2022-12-10T10:34:03.139Z</time>
      </trkpt>
      <trkpt lat="48.32965" lon="-4.24324">
        <ele>57.253444</ele>
        <time>2022-12-10T10:34:05.164Z</time>
      </trkpt>
      <trkpt lat="48.32955" lon="-4.24312">
        <ele>57.034938</ele>
        <time>2022-12-10T10:34:08.158Z</time>
      </trkpt>
      <trkpt lat="48.32945" lon="-4.24299">
        <ele>56.803193</ele>
        <time>2022-12-10T10:34:11.152Z</time>
      </trkpt>
      <trkpt lat="48.32937" lon="-4.2429">
        <ele>56.642438</ele>
        <time>2022-12-10T10:34:13.156Z</time>
      </trkpt>
      <trkpt lat="48.32927" lon="-4.24278">
        <ele>56.596235</ele>
        <time>2022-12-10T10:34:16.161Z</time>
      </trkpt>
      <trkpt lat="48.32917" lon="-4.24264">
        <ele>56.720648</ele>
        <time>2022-12-10T10:34:19.160Z</time>
      </trkpt>
      <trkpt lat="48.32908" lon="-4.24252">
        <ele>56.836007</ele>
        <time>2022-12-10T10:34:22.161Z</time>
      </trkpt>
      <trkpt lat="48.329" lon="-4.24241">
        <ele>56.942322</ele>
        <time>2022-12-10T10:34:25.156Z</time>
      </trkpt>
      <trkpt lat="48.32892" lon="-4.24231">
        <ele>57.040317</ele>
        <time>2022-12-10T10:34:28.156Z</time>
      </trkpt>
      <trkpt lat="48.32885" lon="-4.24222">
        <ele>57.133461</ele>
        <time>2022-12-10T10:34:31.163Z</time>
      </trkpt>
      <trkpt lat="48.32877" lon="-4.24214">
        <ele>57.223943</ele>
        <time>2022-12-10T10:34:34.165Z</time>
      </trkpt>
      <trkpt lat="48.3287" lon="-4.24204">
        <ele>57.317675</ele>
        <time>2022-12-10T10:34:37.154Z</time>
      </trkpt>
      <trkpt lat="48.32862" lon="-4.24195">
        <ele>57.407808</ele>
        <time>2022-12-10T10:34:40.149Z</time>
      </trkpt>
      <trkpt lat="48.32856" lon="-4.24185">
        <ele>57.496124</ele>
        <time>2022-12-10T10:34:43.138Z</time>
      </trkpt>
      <trkpt lat="48.32849" lon="-4.24175">
        <ele>57.584442</ele>
        <time>2022-12-10T10:34:46.165Z</time>
      </trkpt>
      <trkpt lat="48.32842" lon="-4.24166">
        <ele>57.677617</ele>
        <time>2022-12-10T10:34:49.157Z</time>
      </trkpt>
      <trkpt lat="48.32835" lon="-4.24158">
        <ele>57.766951</ele>
        <time>2022-12-10T10:34:52.154Z</time>
      </trkpt>
      <trkpt lat="48.32827" lon="-4.24147">
        <ele>57.865075</ele>
        <time>2022-12-10T10:34:56.139Z</time>
      </trkpt>
      <trkpt lat="48.32819" lon="-4.24138">
        <ele>57.959748</ele>
        <time>2022-12-10T10:35:00.139Z</time>
      </trkpt>
      <trkpt lat="48.32812" lon="-4.24128">
        <ele>58.051413</ele>
        <time>2022-12-10T10:35:04.156Z</time>
      </trkpt>
      <trkpt lat="48.32803" lon="-4.24118">
        <ele>58.156818</ele>
        <time>2022-12-10T10:35:09.163Z</time>
      </trkpt>
      <trkpt lat="48.32795" lon="-4.24109">
        <ele>58.266183</ele>
        <time>2022-12-10T10:35:14.166Z</time>
      </trkpt>
      <trkpt lat="48.32788" lon="-4.241">
        <ele>58.62422</ele>
        <time>2022-12-10T10:35:19.151Z</time>
      </trkpt>
      <trkpt lat="48.32781" lon="-4.2409">
        <ele>58.998254</ele>
        <time>2022-12-10T10:35:24.153Z</time>
      </trkpt>
      <trkpt lat="48.32775" lon="-4.24079">
        <ele>59.362297</ele>
        <time>2022-12-10T10:35:29.153Z</time>
      </trkpt>
      <trkpt lat="48.32769" lon="-4.24067">
        <ele>59.744678</ele>
        <time>2022-12-10T10:35:34.140Z</time>
      </trkpt>
      <trkpt lat="48.32765" lon="-4.24054">
        <ele>60.106876</ele>
        <time>2022-12-10T10:35:39.152Z</time>
      </trkpt>
      <trkpt lat="48.32762" lon="-4.2404">
        <ele>60.48119</ele>
        <time>2022-12-10T10:35:44.152Z</time>
      </trkpt>
      <trkpt lat="48.32758" lon="-4.24026">
        <ele>60.856599</ele>
        <time>2022-12-10T10:35:49.154Z</time>
      </trkpt>
      <trkpt lat="48.32755" lon="-4.24013">
        <ele>61.216533</ele>
        <time>2022-12-10T10:35:54.136Z</time>
      </trkpt>
      <trkpt lat="48.32751" lon="-4.24">
        <ele>61.567867</ele>
        <time>2022-12-10T10:35:59.151Z</time>
      </trkpt>
      <trkpt lat="48.32747" lon="-4.23987">
        <ele>61.93625</ele>
        <time>2022-12-10T10:36:04.162Z</time>
      </trkpt>
      <trkpt lat="48.32745" lon="-4.23973">
        <ele>62.309409</ele>
        <time>2022-12-10T10:36:09.154Z</time>
      </trkpt>
      <trkpt lat="48.32741" lon="-4.2396">
        <ele>62.672482</ele>
        <time>2022-12-10T10:36:14.141Z</time>
      </trkpt>
      <trkpt lat="48.32738" lon="-4.23946">
        <ele>63.03965</ele>
        <time>2022-12-10T10:36:19.154Z</time>
      </trkpt>
      <trkpt lat="48.32735" lon="-4.23932">
        <ele>63.413967</ele>
        <time>2022-12-10T10:36:24.142Z</time>
      </trkpt>
      <trkpt lat="48.32733" lon="-4.23918">
        <ele>63.798602</ele>
        <time>2022-12-10T10:36:29.154Z</time>
      </trkpt>
      <trkpt lat="48.32729" lon="-4.23904">
        <ele>64.176844</ele>
        <time>2022-12-10T10:36:34.164Z</time>
      </trkpt>
      <trkpt lat="48.32726" lon="-4.23888">
        <ele>64.586171</ele>
        <time>2022-12-10T10:36:39.142Z</time>
      </trkpt>
      <trkpt lat="48.32723" lon="-4.23874">
        <ele>64.959267</ele>
        <time>2022-12-10T10:36:44.144Z</time>
      </trkpt>
      <trkpt lat="48.3272" lon="-4.23861">
        <ele>65.336287</ele>
        <time>2022-12-10T10:36:49.143Z</time>
      </trkpt>
      <trkpt lat="48.32717" lon="-4.23848">
        <ele>65.778448</ele>
        <time>2022-12-10T10:36:54.160Z</time>
      </trkpt>
      <trkpt lat="48.32714" lon="-4.23835">
        <ele>66.193257</ele>
        <time>2022-12-10T10:36:59.153Z</time>
      </trkpt>
      <trkpt lat="48.32712" lon="-4.23821">
        <ele>66.626686</ele>
        <time>2022-12-10T10:37:04.149Z</time>
      </trkpt>
      <trkpt lat="48.32711" lon="-4.23806">
        <ele>67.060378</ele>
        <time>2022-12-10T10:37:09.144Z</time>
      </trkpt>
      <trkpt lat="48.3271" lon="-4.23792">
        <ele>67.480344</ele>
        <time>2022-12-10T10:37:14.135Z</time>
      </trkpt>
      <trkpt lat="48.32711" lon="-4.23778">
        <ele>67.912329</ele>
        <time>2022-12-10T10:37:19.166Z</time>
      </trkpt>
      <trkpt lat="48.32711" lon="-4.23763">
        <ele>68.380375</ele>
        <time>2022-12-10T10:37:25.138Z</time>
      </trkpt>
      <trkpt lat="48.32712" lon="-4.23749">
        <ele>68.797018</ele>
        <time>2022-12-10T10:37:30.145Z</time>
      </trkpt>
      <trkpt lat="48.32713" lon="-4.23734">
        <ele>69.231254</ele>
        <time>2022-12-10T10:37:35.156Z</time>
      </trkpt>
      <trkpt lat="48.32715" lon="-4.2372">
        <ele>69.664425</ele>
        <time>2022-12-10T10:37:40.143Z</time>
      </trkpt>
      <trkpt lat="48.32715" lon="-4.23706">
        <ele>70.101855</ele>
        <time>2022-12-10T10:37:45.168Z</time>
      </trkpt>
      <trkpt lat="48.32715" lon="-4.23691">
        <ele>70.532768</ele>
        <time>2022-12-10T10:37:50.150Z</time>
      </trkpt>
      <trkpt lat="48.32716" lon="-4.23678">
        <ele>70.94941</ele>
        <time>2022-12-10T10:37:55.145Z</time>
      </trkpt>
      <trkpt lat="48.32717" lon="-4.23663">
        <ele>71.382154</ele>
        <time>2022-12-10T10:38:01.144Z</time>
      </trkpt>
      <trkpt lat="48.32718" lon="-4.2365">
        <ele>71.797894</ele>
        <time>2022-12-10T10:38:06.145Z</time>
      </trkpt>
      <trkpt lat="48.32719" lon="-4.23636">
        <ele>72.226751</ele>
        <time>2022-12-10T10:38:11.140Z</time>
      </trkpt>
      <trkpt lat="48.32721" lon="-4.23621">
        <ele>72.666965</ele>
        <time>2022-12-10T10:38:16.155Z</time>
      </trkpt>
      <trkpt lat="48.32722" lon="-4.23607">
        <ele>73.085181</ele>
        <time>2022-12-10T10:38:21.136Z</time>
      </trkpt>
      <trkpt lat="48.32722" lon="-4.23594">
        <ele>73.468727</ele>
        <time>2022-12-10T10:38:26.139Z</time>
      </trkpt>
      <trkpt lat="48.32722" lon="-4.23579">
        <ele>73.841701</ele>
        <time>2022-12-10T10:38:31.145Z</time>
      </trkpt>
      <trkpt lat="48.32721" lon="-4.23565">
        <ele>74.230741</ele>
        <time>2022-12-10T10:38:36.160Z</time>
      </trkpt>
      <trkpt lat="48.32719" lon="-4.23551">
        <ele>74.596405</ele>
        <time>2022-12-10T10:38:41.151Z</time>
      </trkpt>
      <trkpt lat="48.32716" lon="-4.23537">
        <ele>74.983136</ele>
        <time>2022-12-10T10:38:46.152Z</time>
      </trkpt>
      <trkpt lat="48.32711" lon="-4.23525">
        <ele>75.356768</ele>
        <time>2022-12-10T10:38:51.154Z</time>
      </trkpt>
      <trkpt lat="48.32707" lon="-4.23512">
        <ele>75.739208</ele>
        <time>2022-12-10T10:38:56.155Z</time>
      </trkpt>
      <trkpt lat="48.32701" lon="-4.23501">
        <ele>76.10241</ele>
        <time>2022-12-10T10:39:01.146Z</time>
      </trkpt>
      <trkpt lat="48.32695" lon="-4.2349">
        <ele>76.473321</ele>
        <time>2022-12-10T10:39:06.146Z</time>
      </trkpt>
      <trkpt lat="48.32688" lon="-4.23481">
        <ele>76.83978</ele>
        <time>2022-12-10T10:39:11.155Z</time>
      </trkpt>
      <trkpt lat="48.3268" lon="-4.23473">
        <ele>77.21231</ele>
        <time>2022-12-10T10:39:16.144Z</time>
      </trkpt>
      <trkpt lat="48.32672" lon="-4.23465">
        <ele>77.606842</ele>
        <time>2022-12-10T10:39:21.142Z</time>
      </trkpt>
      <trkpt lat="48.32662" lon="-4.23457">
        <ele>78.026993</ele>
        <time>2022-12-10T10:39:27.160Z</time>
      </trkpt>
      <trkpt lat="48.32653" lon="-4.2345">
        <ele>78.435462</ele>
        <time>2022-12-10T10:39:33.143Z</time>
      </trkpt>
      <trkpt lat="48.32643" lon="-4.23443">
        <ele>78.868445</ele>
        <time>2022-12-10T10:39:38.158Z</time>
      </trkpt>
      <trkpt lat="48.32635" lon="-4.23437">
        <ele>79.241768</ele>
        <time>2022-12-10T10:39:43.166Z</time>
      </trkpt>
      <trkpt lat="48.32626" lon="-4.2343">
        <ele>79.646551</ele>
        <time>2022-12-10T10:39:48.139Z</time>
      </trkpt>
      <trkpt lat="48.32617" lon="-4.23422">
        <ele>80.031058</ele>
        <time>2022-12-10T10:39:53.156Z</time>
      </trkpt>
      <trkpt lat="48.32611" lon="-4.23413">
        <ele>80.395898</ele>
        <time>2022-12-10T10:39:58.138Z</time>
      </trkpt>
      <trkpt lat="48.32604" lon="-4.23403">
        <ele>80.696366</ele>
        <time>2022-12-10T10:40:03.159Z</time>
      </trkpt>
      <trkpt lat="48.32597" lon="-4.23391">
        <ele>81.007799</ele>
        <time>2022-12-10T10:40:08.153Z</time>
      </trkpt>
      <trkpt lat="48.32592" lon="-4.23379">
        <ele>81.311003</ele>
        <time>2022-12-10T10:40:13.163Z</time>
      </trkpt>
      <trkpt lat="48.32588" lon="-4.23367">
        <ele>81.598039</ele>
        <time>2022-12-10T10:40:18.145Z</time>
      </trkpt>
      <trkpt lat="48.32584" lon="-4.23353">
        <ele>81.918148</ele>
        <time>2022-12-10T10:40:23.155Z</time>
      </trkpt>
      <trkpt lat="48.32582" lon="-4.23339">
        <ele>82.219831</ele>
        <time>2022-12-10T10:40:28.148Z</time>
      </trkpt>
      <trkpt lat="48.32579" lon="-4.23325">
        <ele>82.527753</ele>
        <time>2022-12-10T10:40:33.149Z</time>
      </trkpt>
      <trkpt lat="48.32578" lon="-4.2331">
        <ele>82.845643</ele>
        <time>2022-12-10T10:40:38.138Z</time>
      </trkpt>
      <trkpt lat="48.32576" lon="-4.23294">
        <ele>83.187481</ele>
        <time>2022-12-10T10:40:43.167Z</time>
      </trkpt>
      <trkpt lat="48.32575" lon="-4.23277">
        <ele>83.535991</ele>
        <time>2022-12-10T10:40:48.165Z</time>
      </trkpt>
      <trkpt lat="48.32574" lon="-4.23261">
        <ele>83.88198</ele>
        <time>2022-12-10T10:40:53.166Z</time>
      </trkpt>
      <trkpt lat="48.32573" lon="-4.23244">
        <ele>84.2219</ele>
        <time>2022-12-10T10:40:58.169Z</time>
      </trkpt>
      <trkpt lat="48.32572" lon="-4.2323">
        <ele>84.516566</ele>
        <time>2022-12-10T10:41:02.143Z</time>
      </trkpt>
      <trkpt lat="48.32571" lon="-4.23215">
        <ele>84.83539</ele>
        <time>2022-12-10T10:41:06.147Z</time>
      </trkpt>
      <trkpt lat="48.3257" lon="-4.232">
        <ele>85.15325</ele>
        <time>2022-12-10T10:41:10.143Z</time>
      </trkpt>
      <trkpt lat="48.32569" lon="-4.23186">
        <ele>85.461484</ele>
        <time>2022-12-10T10:41:14.164Z</time>
      </trkpt>
      <trkpt lat="48.32568" lon="-4.2317">
        <ele>85.778018</ele>
        <time>2022-12-10T10:41:18.156Z</time>
      </trkpt>
      <trkpt lat="48.32567" lon="-4.23156">
        <ele>86.068545</ele>
        <time>2022-12-10T10:41:22.139Z</time>
      </trkpt>
      <trkpt lat="48.32566" lon="-4.23141">
        <ele>86.20471</ele>
        <time>2022-12-10T10:41:26.166Z</time>
      </trkpt>
      <trkpt lat="48.32565" lon="-4.23126">
        <ele>86.347781</ele>
        <time>2022-12-10T10:41:30.168Z</time>
      </trkpt>
      <trkpt lat="48.32563" lon="-4.23111">
        <ele>86.491221</ele>
        <time>2022-12-10T10:41:34.154Z</time>
      </trkpt>
      <trkpt lat="48.32562" lon="-4.23096">
        <ele>86.634661</ele>
        <time>2022-12-10T10:41:38.164Z</time>
      </trkpt>
      <trkpt lat="48.3256" lon="-4.23082">
        <ele>86.775824</ele>
        <time>2022-12-10T10:41:42.146Z</time>
      </trkpt>
      <trkpt lat="48.32559" lon="-4.23067">
        <ele>86.914968</ele>
        <time>2022-12-10T10:41:46.144Z</time>
      </trkpt>
      <trkpt lat="48.32557" lon="-4.23052">
        <ele>87.059997</ele>
        <time>2022-12-10T10:41:50.154Z</time>
      </trkpt>
      <trkpt lat="48.32555" lon="-4.23036">
        <ele>87.215536</ele>
        <time>2022-12-10T10:41:54.169Z</time>
      </trkpt>
      <trkpt lat="48.32554" lon="-4.23019">
        <ele>87.37418</ele>
        <time>2022-12-10T10:41:58.166Z</time>
      </trkpt>
      <trkpt lat="48.32552" lon="-4.23002">
        <ele>87.53606</ele>
        <time>2022-12-10T10:42:02.163Z</time>
      </trkpt>
      <trkpt lat="48.3255" lon="-4.22985">
        <ele>87.702604</ele>
        <time>2022-12-10T10:42:06.149Z</time>
      </trkpt>
      <trkpt lat="48.32548" lon="-4.22971">
        <ele>87.841629</ele>
        <time>2022-12-10T10:42:09.155Z</time>
      </trkpt>
      <trkpt lat="48.32546" lon="-4.22957">
        <ele>87.972675</ele>
        <time>2022-12-10T10:42:12.153Z</time>
      </trkpt>
      <trkpt lat="48.32544" lon="-4.22941">
        <ele>88.129848</ele>
        <time>2022-12-10T10:42:16.153Z</time>
      </trkpt>
      <trkpt lat="48.32542" lon="-4.22924">
        <ele>88.289497</ele>
        <time>2022-12-10T10:42:20.155Z</time>
      </trkpt>
      <trkpt lat="48.3254" lon="-4.22908">
        <ele>88.447839</ele>
        <time>2022-12-10T10:42:24.167Z</time>
      </trkpt>
      <trkpt lat="48.32537" lon="-4.2289">
        <ele>88.589576</ele>
        <time>2022-12-10T10:42:28.167Z</time>
      </trkpt>
      <trkpt lat="48.32535" lon="-4.22875">
        <ele>88.211086</ele>
        <time>2022-12-10T10:42:31.165Z</time>
      </trkpt>
      <trkpt lat="48.32532" lon="-4.22859">
        <ele>87.815975</ele>
        <time>2022-12-10T10:42:34.153Z</time>
      </trkpt>
      <trkpt lat="48.32529" lon="-4.22842">
        <ele>87.387268</ele>
        <time>2022-12-10T10:42:37.167Z</time>
      </trkpt>
      <trkpt lat="48.32525" lon="-4.22824">
        <ele>86.934701</ele>
        <time>2022-12-10T10:42:40.167Z</time>
      </trkpt>
      <trkpt lat="48.32521" lon="-4.22805">
        <ele>86.466853</ele>
        <time>2022-12-10T10:42:43.170Z</time>
      </trkpt>
      <trkpt lat="48.32517" lon="-4.22792">
        <ele>86.120527</ele>
        <time>2022-12-10T10:42:45.167Z</time>
      </trkpt>
      <trkpt lat="48.32513" lon="-4.2278">
        <ele>85.78167</ele>
        <time>2022-12-10T10:42:47.157Z</time>
      </trkpt>
      <trkpt lat="48.32508" lon="-4.22766">
        <ele>85.422136</ele>
        <time>2022-12-10T10:42:49.155Z</time>
      </trkpt>
      <trkpt lat="48.32504" lon="-4.22754">
        <ele>85.089678</ele>
        <time>2022-12-10T10:42:51.165Z</time>
      </trkpt>
      <trkpt lat="48.32499" lon="-4.22743">
        <ele>84.760465</ele>
        <time>2022-12-10T10:42:53.159Z</time>
      </trkpt>
      <trkpt lat="48.32491" lon="-4.22727">
        <ele>84.290241</ele>
        <time>2022-12-10T10:42:56.162Z</time>
      </trkpt>
      <trkpt lat="48.32482" lon="-4.22713">
        <ele>83.821375</ele>
        <time>2022-12-10T10:42:59.144Z</time>
      </trkpt>
      <trkpt lat="48.32472" lon="-4.227">
        <ele>83.324561</ele>
        <time>2022-12-10T10:43:02.154Z</time>
      </trkpt>
      <trkpt lat="48.32464" lon="-4.22691">
        <ele>82.959885</ele>
        <time>2022-12-10T10:43:04.164Z</time>
      </trkpt>
      <trkpt lat="48.32455" lon="-4.22683">
        <ele>82.607653</ele>
        <time>2022-12-10T10:43:06.169Z</time>
      </trkpt>
      <trkpt lat="48.32447" lon="-4.22676">
        <ele>82.264239</ele>
        <time>2022-12-10T10:43:08.166Z</time>
      </trkpt>
      <trkpt lat="48.32439" lon="-4.22669">
        <ele>81.894086</ele>
        <time>2022-12-10T10:43:10.139Z</time>
      </trkpt>
      <trkpt lat="48.3243" lon="-4.22663">
        <ele>81.472095</ele>
        <time>2022-12-10T10:43:12.138Z</time>
      </trkpt>
      <trkpt lat="48.32421" lon="-4.22659">
        <ele>81.022351</ele>
        <time>2022-12-10T10:43:14.167Z</time>
      </trkpt>
      <trkpt lat="48.32411" lon="-4.22654">
        <ele>80.573514</ele>
        <time>2022-12-10T10:43:16.170Z</time>
      </trkpt>
      <trkpt lat="48.32401" lon="-4.22651">
        <ele>80.140445</ele>
        <time>2022-12-10T10:43:18.170Z</time>
      </trkpt>
      <trkpt lat="48.32392" lon="-4.22647">
        <ele>79.714641</ele>
        <time>2022-12-10T10:43:20.147Z</time>
      </trkpt>
      <trkpt lat="48.32383" lon="-4.22645">
        <ele>79.302888</ele>
        <time>2022-12-10T10:43:22.159Z</time>
      </trkpt>
      <trkpt lat="48.32373" lon="-4.22643">
        <ele>78.892607</ele>
        <time>2022-12-10T10:43:24.169Z</time>
      </trkpt>
      <trkpt lat="48.3236" lon="-4.2264">
        <ele>78.291998</ele>
        <time>2022-12-10T10:43:27.156Z</time>
      </trkpt>
      <trkpt lat="48.3235" lon="-4.22637">
        <ele>77.868662</ele>
        <time>2022-12-10T10:43:29.154Z</time>
      </trkpt>
      <trkpt lat="48.32337" lon="-4.22635">
        <ele>77.274661</ele>
        <time>2022-12-10T10:43:32.151Z</time>
      </trkpt>
      <trkpt lat="48.32328" lon="-4.22634">
        <ele>76.872336</ele>
        <time>2022-12-10T10:43:34.146Z</time>
      </trkpt>
      <trkpt lat="48.32319" lon="-4.22632">
        <ele>76.46373</ele>
        <time>2022-12-10T10:43:36.154Z</time>
      </trkpt>
      <trkpt lat="48.32309" lon="-4.22631">
        <ele>76.052088</ele>
        <time>2022-12-10T10:43:38.168Z</time>
      </trkpt>
      <trkpt lat="48.323" lon="-4.2263">
        <ele>75.649763</ele>
        <time>2022-12-10T10:43:40.170Z</time>
      </trkpt>
      <trkpt lat="48.32287" lon="-4.22628">
        <ele>75.080529</ele>
        <time>2022-12-10T10:43:43.166Z</time>
      </trkpt>
      <trkpt lat="48.32278" lon="-4.22627">
        <ele>74.664782</ele>
        <time>2022-12-10T10:43:45.153Z</time>
      </trkpt>
      <trkpt lat="48.32269" lon="-4.22627">
        <ele>74.246285</ele>
        <time>2022-12-10T10:43:47.166Z</time>
      </trkpt>
      <trkpt lat="48.32259" lon="-4.22628">
        <ele>73.909187</ele>
        <time>2022-12-10T10:43:49.172Z</time>
      </trkpt>
      <trkpt lat="48.32249" lon="-4.22629">
        <ele>73.593746</ele>
        <time>2022-12-10T10:43:51.164Z</time>
      </trkpt>
      <trkpt lat="48.3224" lon="-4.2263">
        <ele>73.294501</ele>
        <time>2022-12-10T10:43:53.147Z</time>
      </trkpt>
      <trkpt lat="48.3223" lon="-4.22632">
        <ele>72.983436</ele>
        <time>2022-12-10T10:43:55.138Z</time>
      </trkpt>
      <trkpt lat="48.32221" lon="-4.22634">
        <ele>72.665033</ele>
        <time>2022-12-10T10:43:57.166Z</time>
      </trkpt>
      <trkpt lat="48.32211" lon="-4.22636">
        <ele>72.353048</ele>
        <time>2022-12-10T10:43:59.157Z</time>
      </trkpt>
      <trkpt lat="48.32201" lon="-4.22638">
        <ele>72.030769</ele>
        <time>2022-12-10T10:44:01.153Z</time>
      </trkpt>
      <trkpt lat="48.32192" lon="-4.22641">
        <ele>71.721298</ele>
        <time>2022-12-10T10:44:03.157Z</time>
      </trkpt>
      <trkpt lat="48.32182" lon="-4.22644">
        <ele>71.394723</ele>
        <time>2022-12-10T10:44:05.155Z</time>
      </trkpt>
      <trkpt lat="48.32172" lon="-4.22646">
        <ele>71.059283</ele>
        <time>2022-12-10T10:44:07.165Z</time>
      </trkpt>
      <trkpt lat="48.32163" lon="-4.22649">
        <ele>70.758604</ele>
        <time>2022-12-10T10:44:09.163Z</time>
      </trkpt>
      <trkpt lat="48.32153" lon="-4.22653">
        <ele>70.419024</ele>
        <time>2022-12-10T10:44:11.167Z</time>
      </trkpt>
      <trkpt lat="48.32143" lon="-4.22657">
        <ele>70.078315</ele>
        <time>2022-12-10T10:44:13.161Z</time>
      </trkpt>
      <trkpt lat="48.32132" lon="-4.22661">
        <ele>69.728226</ele>
        <time>2022-12-10T10:44:15.155Z</time>
      </trkpt>
      <trkpt lat="48.32122" lon="-4.22665">
        <ele>69.389766</ele>
        <time>2022-12-10T10:44:17.162Z</time>
      </trkpt>
      <trkpt lat="48.32113" lon="-4.22668">
        <ele>69.077866</ele>
        <time>2022-12-10T10:44:19.169Z</time>
      </trkpt>
      <trkpt lat="48.32103" lon="-4.22671">
        <ele>68.751291</ele>
        <time>2022-12-10T10:44:21.162Z</time>
      </trkpt>
      <trkpt lat="48.32093" lon="-4.22675">
        <ele>68.410724</ele>
        <time>2022-12-10T10:44:23.162Z</time>
      </trkpt>
      <trkpt lat="48.32082" lon="-4.22678">
        <ele>68.278821</ele>
        <time>2022-12-10T10:44:25.165Z</time>
      </trkpt>
      <trkpt lat="48.32072" lon="-4.22681">
        <ele>68.200365</ele>
        <time>2022-12-10T10:44:27.163Z</time>
      </trkpt>
      <trkpt lat="48.32061" lon="-4.22685">
        <ele>68.120678</ele>
        <time>2022-12-10T10:44:29.156Z</time>
      </trkpt>
      <trkpt lat="48.32051" lon="-4.22689">
        <ele>68.041428</ele>
        <time>2022-12-10T10:44:31.157Z</time>
      </trkpt>
      <trkpt lat="48.32041" lon="-4.22694">
        <ele>67.964818</ele>
        <time>2022-12-10T10:44:33.166Z</time>
      </trkpt>
      <trkpt lat="48.3203" lon="-4.22697">
        <ele>67.887865</ele>
        <time>2022-12-10T10:44:35.164Z</time>
      </trkpt>
      <trkpt lat="48.3202" lon="-4.22702">
        <ele>67.809714</ele>
        <time>2022-12-10T10:44:37.150Z</time>
      </trkpt>
      <trkpt lat="48.3201" lon="-4.22705">
        <ele>67.73501</ele>
        <time>2022-12-10T10:44:39.169Z</time>
      </trkpt>
      <trkpt lat="48.32001" lon="-4.22708">
        <ele>67.66464</ele>
        <time>2022-12-10T10:44:41.167Z</time>
      </trkpt>
      <trkpt lat="48.31992" lon="-4.22711">
        <ele>67.598668</ele>
        <time>2022-12-10T10:44:43.158Z</time>
      </trkpt>
      <trkpt lat="48.3198" lon="-4.22715">
        <ele>67.509965</ele>
        <time>2022-12-10T10:44:46.163Z</time>
      </trkpt>
      <trkpt lat="48.31969" lon="-4.22718">
        <ele>67.429671</ele>
        <time>2022-12-10T10:44:49.165Z</time>
      </trkpt>
      <trkpt lat="48.31958" lon="-4.22722">
        <ele>67.347019</ele>
        <time>2022-12-10T10:44:52.170Z</time>
      </trkpt>
      <trkpt lat="48.31947" lon="-4.22727">
        <ele>67.256795</ele>
        <time>2022-12-10T10:44:55.163Z</time>
      </trkpt>
      <trkpt lat="48.31934" lon="-4.22731">
        <ele>67.161844</ele>
        <time>2022-12-10T10:44:58.167Z</time>
      </trkpt>
      <trkpt lat="48.31925" lon="-4.22736">
        <ele>67.09478</ele>
        <time>2022-12-10T10:45:00.157Z</time>
      </trkpt>
      <trkpt lat="48.31912" lon="-4.22742">
        <ele>67.031596</ele>
        <time>2022-12-10T10:45:03.168Z</time>
      </trkpt>
      <trkpt lat="48.31901" lon="-4.22748">
        <ele>67.061215</ele>
        <time>2022-12-10T10:45:06.161Z</time>
      </trkpt>
      <trkpt lat="48.31888" lon="-4.22755">
        <ele>67.091799</ele>
        <time>2022-12-10T10:45:09.136Z</time>
      </trkpt>
      <trkpt lat="48.31877" lon="-4.22761">
        <ele>67.121394</ele>
        <time>2022-12-10T10:45:12.140Z</time>
      </trkpt>
      <trkpt lat="48.31865" lon="-4.22767">
        <ele>67.150388</ele>
        <time>2022-12-10T10:45:15.143Z</time>
      </trkpt>
      <trkpt lat="48.31855" lon="-4.22773">
        <ele>67.176598</ele>
        <time>2022-12-10T10:45:18.169Z</time>
      </trkpt>
      <trkpt lat="48.31844" lon="-4.22778">
        <ele>67.202598</ele>
        <time>2022-12-10T10:45:21.163Z</time>
      </trkpt>
      <trkpt lat="48.31833" lon="-4.22783">
        <ele>67.229631</ele>
        <time>2022-12-10T10:45:24.165Z</time>
      </trkpt>
      <trkpt lat="48.31822" lon="-4.22786">
        <ele>67.256772</ele>
        <time>2022-12-10T10:45:27.139Z</time>
      </trkpt>
      <trkpt lat="48.3181" lon="-4.22787">
        <ele>67.284747</ele>
        <time>2022-12-10T10:45:30.159Z</time>
      </trkpt>
      <trkpt lat="48.31799" lon="-4.22787">
        <ele>67.311983</ele>
        <time>2022-12-10T10:45:33.161Z</time>
      </trkpt>
      <trkpt lat="48.31788" lon="-4.22787">
        <ele>67.338281</ele>
        <time>2022-12-10T10:45:36.142Z</time>
      </trkpt>
      <trkpt lat="48.31776" lon="-4.22785">
        <ele>67.365092</ele>
        <time>2022-12-10T10:45:39.154Z</time>
      </trkpt>
      <trkpt lat="48.31765" lon="-4.22784">
        <ele>67.392839</ele>
        <time>2022-12-10T10:45:42.159Z</time>
      </trkpt>
      <trkpt lat="48.31754" lon="-4.22784">
        <ele>67.419124</ele>
        <time>2022-12-10T10:45:45.157Z</time>
      </trkpt>
      <trkpt lat="48.31742" lon="-4.22786">
        <ele>67.445526</ele>
        <time>2022-12-10T10:45:48.152Z</time>
      </trkpt>
      <trkpt lat="48.31732" lon="-4.22788">
        <ele>67.766652</ele>
        <time>2022-12-10T10:45:51.163Z</time>
      </trkpt>
      <trkpt lat="48.31723" lon="-4.22793">
        <ele>68.115769</ele>
        <time>2022-12-10T10:45:54.149Z</time>
      </trkpt>
      <trkpt lat="48.31714" lon="-4.22798">
        <ele>68.454729</ele>
        <time>2022-12-10T10:45:57.152Z</time>
      </trkpt>
      <trkpt lat="48.31705" lon="-4.22806">
        <ele>68.823546</ele>
        <time>2022-12-10T10:46:01.165Z</time>
      </trkpt>
      <trkpt lat="48.31695" lon="-4.22813">
        <ele>69.192193</ele>
        <time>2022-12-10T10:46:05.165Z</time>
      </trkpt>
      <trkpt lat="48.31687" lon="-4.22819">
        <ele>69.534567</ele>
        <time>2022-12-10T10:46:09.150Z</time>
      </trkpt>
      <trkpt lat="48.31679" lon="-4.22826">
        <ele>69.855903</ele>
        <time>2022-12-10T10:46:13.168Z</time>
      </trkpt>
      <trkpt lat="48.3167" lon="-4.22835">
        <ele>70.242712</ele>
        <time>2022-12-10T10:46:18.148Z</time>
      </trkpt>
      <trkpt lat="48.31661" lon="-4.22844">
        <ele>70.619785</ele>
        <time>2022-12-10T10:46:23.156Z</time>
      </trkpt>
      <trkpt lat="48.31652" lon="-4.22852">
        <ele>70.986423</ele>
        <time>2022-12-10T10:46:28.139Z</time>
      </trkpt>
      <trkpt lat="48.31643" lon="-4.22861">
        <ele>71.351717</ele>
        <time>2022-12-10T10:46:33.155Z</time>
      </trkpt>
      <trkpt lat="48.31634" lon="-4.22869">
        <ele>71.732857</ele>
        <time>2022-12-10T10:46:38.142Z</time>
      </trkpt>
      <trkpt lat="48.31624" lon="-4.22876">
        <ele>72.126785</ele>
        <time>2022-12-10T10:46:43.165Z</time>
      </trkpt>
      <trkpt lat="48.31614" lon="-4.22882">
        <ele>72.477463</ele>
        <time>2022-12-10T10:46:47.169Z</time>
      </trkpt>
      <trkpt lat="48.31605" lon="-4.22886">
        <ele>72.82051</ele>
        <time>2022-12-10T10:46:51.169Z</time>
      </trkpt>
      <trkpt lat="48.31595" lon="-4.22888">
        <ele>73.167352</ele>
        <time>2022-12-10T10:46:55.167Z</time>
      </trkpt>
      <trkpt lat="48.31585" lon="-4.22891">
        <ele>73.527723</ele>
        <time>2022-12-10T10:46:59.162Z</time>
      </trkpt>
      <trkpt lat="48.31576" lon="-4.22891">
        <ele>73.828514</ele>
        <time>2022-12-10T10:47:03.161Z</time>
      </trkpt>
      <trkpt lat="48.31566" lon="-4.22891">
        <ele>74.03144</ele>
        <time>2022-12-10T10:47:07.148Z</time>
      </trkpt>
      <trkpt lat="48.31557" lon="-4.22888">
        <ele>74.233163</ele>
        <time>2022-12-10T10:47:11.172Z</time>
      </trkpt>
      <trkpt lat="48.31548" lon="-4.22884">
        <ele>74.438971</ele>
        <time>2022-12-10T10:47:15.176Z</time>
      </trkpt>
      <trkpt lat="48.31539" lon="-4.22879">
        <ele>74.641006</ele>
        <time>2022-12-10T10:47:19.159Z</time>
      </trkpt>
      <trkpt lat="48.3153" lon="-4.22873">
        <ele>74.833589</ele>
        <time>2022-12-10T10:47:23.159Z</time>
      </trkpt>
      <trkpt lat="48.31521" lon="-4.22867">
        <ele>75.041113</ele>
        <time>2022-12-10T10:47:27.163Z</time>
      </trkpt>
      <trkpt lat="48.31513" lon="-4.22859">
        <ele>75.251319</ele>
        <time>2022-12-10T10:47:31.167Z</time>
      </trkpt>
      <trkpt lat="48.31506" lon="-4.22849">
        <ele>75.451641</ele>
        <time>2022-12-10T10:47:35.150Z</time>
      </trkpt>
      <trkpt lat="48.315" lon="-4.22838">
        <ele>75.657843</ele>
        <time>2022-12-10T10:47:39.160Z</time>
      </trkpt>
      <trkpt lat="48.31493" lon="-4.22827">
        <ele>75.863106</ele>
        <time>2022-12-10T10:47:43.164Z</time>
      </trkpt>
      <trkpt lat="48.31488" lon="-4.22815">
        <ele>76.071149</ele>
        <time>2022-12-10T10:47:47.139Z</time>
      </trkpt>
      <trkpt lat="48.31483" lon="-4.22801">
        <ele>76.285054</ele>
        <time>2022-12-10T10:47:51.171Z</time>
      </trkpt>
      <trkpt lat="48.31479" lon="-4.22788">
        <ele>76.496421</ele>
        <time>2022-12-10T10:47:55.167Z</time>
      </trkpt>
      <trkpt lat="48.31475" lon="-4.22772">
        <ele>76.728479</ele>
        <time>2022-12-10T10:47:59.169Z</time>
      </trkpt>
      <trkpt lat="48.31472" lon="-4.22756">
        <ele>76.96914</ele>
        <time>2022-12-10T10:48:03.163Z</time>
      </trkpt>
      <trkpt lat="48.31469" lon="-4.22738">
        <ele>77.221749</ele>
        <time>2022-12-10T10:48:07.168Z</time>
      </trkpt>
      <trkpt lat="48.31468" lon="-4.22724">
        <ele>77.41837</ele>
        <time>2022-12-10T10:48:10.169Z</time>
      </trkpt>
      <trkpt lat="48.31465" lon="-4.22711">
        <ele>77.547908</ele>
        <time>2022-12-10T10:48:13.139Z</time>
      </trkpt>
      <trkpt lat="48.31464" lon="-4.22694">
        <ele>77.280969</ele>
        <time>2022-12-10T10:48:17.165Z</time>
      </trkpt>
      <trkpt lat="48.31463" lon="-4.2268">
        <ele>77.066118</ele>
        <time>2022-12-10T10:48:20.163Z</time>
      </trkpt>
      <trkpt lat="48.31461" lon="-4.22665">
        <ele>76.827685</ele>
        <time>2022-12-10T10:48:23.157Z</time>
      </trkpt>
      <trkpt lat="48.31459" lon="-4.22647">
        <ele>76.559685</ele>
        <time>2022-12-10T10:48:26.173Z</time>
      </trkpt>
      <trkpt lat="48.31458" lon="-4.2263">
        <ele>76.289994</ele>
        <time>2022-12-10T10:48:29.158Z</time>
      </trkpt>
      <trkpt lat="48.31457" lon="-4.22614">
        <ele>76.032116</ele>
        <time>2022-12-10T10:48:32.144Z</time>
      </trkpt>
      <trkpt lat="48.31456" lon="-4.22597">
        <ele>75.783064</ele>
        <time>2022-12-10T10:48:35.167Z</time>
      </trkpt>
      <trkpt lat="48.31456" lon="-4.22581">
        <ele>75.524243</ele>
        <time>2022-12-10T10:48:38.157Z</time>
      </trkpt>
      <trkpt lat="48.31456" lon="-4.22564">
        <ele>75.269086</ele>
        <time>2022-12-10T10:48:41.171Z</time>
      </trkpt>
      <trkpt lat="48.31456" lon="-4.22546">
        <ele>74.990827</ele>
        <time>2022-12-10T10:48:44.167Z</time>
      </trkpt>
      <trkpt lat="48.31456" lon="-4.22527">
        <ele>74.693992</ele>
        <time>2022-12-10T10:48:47.164Z</time>
      </trkpt>
      <trkpt lat="48.31456" lon="-4.22508">
        <ele>74.39252</ele>
        <time>2022-12-10T10:48:50.169Z</time>
      </trkpt>
      <trkpt lat="48.31457" lon="-4.22489">
        <ele>74.104237</ele>
        <time>2022-12-10T10:48:53.162Z</time>
      </trkpt>
      <trkpt lat="48.31457" lon="-4.22471">
        <ele>73.824433</ele>
        <time>2022-12-10T10:48:56.169Z</time>
      </trkpt>
      <trkpt lat="48.31458" lon="-4.22452">
        <ele>73.533669</ele>
        <time>2022-12-10T10:48:59.160Z</time>
      </trkpt>
      <trkpt lat="48.31458" lon="-4.22432">
        <ele>73.199514</ele>
        <time>2022-12-10T10:49:02.145Z</time>
      </trkpt>
      <trkpt lat="48.31458" lon="-4.22413">
        <ele>72.846459</ele>
        <time>2022-12-10T10:49:05.153Z</time>
      </trkpt>
      <trkpt lat="48.31459" lon="-4.22393">
        <ele>72.491345</ele>
        <time>2022-12-10T10:49:08.142Z</time>
      </trkpt>
      <trkpt lat="48.3146" lon="-4.22374">
        <ele>72.136232</ele>
        <time>2022-12-10T10:49:11.166Z</time>
      </trkpt>
      <trkpt lat="48.3146" lon="-4.22354">
        <ele>71.777918</ele>
        <time>2022-12-10T10:49:14.164Z</time>
      </trkpt>
      <trkpt lat="48.31461" lon="-4.22335">
        <ele>71.433643</ele>
        <time>2022-12-10T10:49:17.171Z</time>
      </trkpt>
      <trkpt lat="48.31461" lon="-4.22315">
        <ele>71.075381</ele>
        <time>2022-12-10T10:49:20.167Z</time>
      </trkpt>
      <trkpt lat="48.31462" lon="-4.22297">
        <ele>70.75261</ele>
        <time>2022-12-10T10:49:23.147Z</time>
      </trkpt>
      <trkpt lat="48.31462" lon="-4.22278">
        <ele>70.412209</ele>
        <time>2022-12-10T10:49:26.166Z</time>
      </trkpt>
      <trkpt lat="48.31463" lon="-4.22259">
        <ele>70.06829</ele>
        <time>2022-12-10T10:49:29.161Z</time>
      </trkpt>
      <trkpt lat="48.31463" lon="-4.2224">
        <ele>69.719105</ele>
        <time>2022-12-10T10:49:32.155Z</time>
      </trkpt>
      <trkpt lat="48.31462" lon="-4.22223">
        <ele>69.405925</ele>
        <time>2022-12-10T10:49:35.166Z</time>
      </trkpt>
      <trkpt lat="48.31463" lon="-4.22205">
        <ele>69.083153</ele>
        <time>2022-12-10T10:49:38.167Z</time>
      </trkpt>
      <trkpt lat="48.31463" lon="-4.22187">
        <ele>68.753835</ele>
        <time>2022-12-10T10:49:41.151Z</time>
      </trkpt>
      <trkpt lat="48.31463" lon="-4.22168">
        <ele>68.381603</ele>
        <time>2022-12-10T10:49:44.167Z</time>
      </trkpt>
      <trkpt lat="48.31463" lon="-4.22149">
        <ele>67.932874</ele>
        <time>2022-12-10T10:49:47.157Z</time>
      </trkpt>
      <trkpt lat="48.31464" lon="-4.22128">
        <ele>67.465219</ele>
        <time>2022-12-10T10:49:50.161Z</time>
      </trkpt>
      <trkpt lat="48.31466" lon="-4.22115">
        <ele>67.148685</ele>
        <time>2022-12-10T10:49:52.160Z</time>
      </trkpt>
      <trkpt lat="48.31464" lon="-4.22101">
        <ele>66.808957</ele>
        <time>2022-12-10T10:49:54.169Z</time>
      </trkpt>
      <trkpt lat="48.31463" lon="-4.22087">
        <ele>66.490827</ele>
        <time>2022-12-10T10:49:56.164Z</time>
      </trkpt>
      <trkpt lat="48.31462" lon="-4.22073">
        <ele>66.169549</ele>
        <time>2022-12-10T10:49:58.166Z</time>
      </trkpt>
      <trkpt lat="48.31461" lon="-4.22059">
        <ele>65.833488</ele>
        <time>2022-12-10T10:50:00.149Z</time>
      </trkpt>
      <trkpt lat="48.31459" lon="-4.22045">
        <ele>65.495107</ele>
        <time>2022-12-10T10:50:02.170Z</time>
      </trkpt>
      <trkpt lat="48.31457" lon="-4.22031">
        <ele>65.161935</ele>
        <time>2022-12-10T10:50:04.168Z</time>
      </trkpt>
      <trkpt lat="48.31455" lon="-4.22016">
        <ele>64.827445</ele>
        <time>2022-12-10T10:50:06.169Z</time>
      </trkpt>
      <trkpt lat="48.31452" lon="-4.22002">
        <ele>64.472158</ele>
        <time>2022-12-10T10:50:08.152Z</time>
      </trkpt>
      <trkpt lat="48.3145" lon="-4.21987">
        <ele>64.123337</ele>
        <time>2022-12-10T10:50:10.151Z</time>
      </trkpt>
      <trkpt lat="48.31446" lon="-4.21972">
        <ele>63.748191</ele>
        <time>2022-12-10T10:50:12.164Z</time>
      </trkpt>
      <trkpt lat="48.31443" lon="-4.21956">
        <ele>63.364861</ele>
        <time>2022-12-10T10:50:14.155Z</time>
      </trkpt>
      <trkpt lat="48.3144" lon="-4.21941">
        <ele>62.983773</ele>
        <time>2022-12-10T10:50:16.169Z</time>
      </trkpt>
      <trkpt lat="48.31437" lon="-4.21925">
        <ele>62.612013</ele>
        <time>2022-12-10T10:50:18.158Z</time>
      </trkpt>
      <trkpt lat="48.31434" lon="-4.21911">
        <ele>62.264476</ele>
        <time>2022-12-10T10:50:20.145Z</time>
      </trkpt>
      <trkpt lat="48.3143" lon="-4.21896">
        <ele>62.233926</ele>
        <time>2022-12-10T10:50:22.142Z</time>
      </trkpt>
      <trkpt lat="48.31427" lon="-4.2188">
        <ele>62.247688</ele>
        <time>2022-12-10T10:50:24.163Z</time>
      </trkpt>
      <trkpt lat="48.31423" lon="-4.21865">
        <ele>62.261241</ele>
        <time>2022-12-10T10:50:26.161Z</time>
      </trkpt>
      <trkpt lat="48.31419" lon="-4.21849">
        <ele>62.275401</ele>
        <time>2022-12-10T10:50:28.164Z</time>
      </trkpt>
      <trkpt lat="48.31416" lon="-4.21835">
        <ele>62.288565</ele>
        <time>2022-12-10T10:50:30.163Z</time>
      </trkpt>
      <trkpt lat="48.31411" lon="-4.21818">
        <ele>62.303995</ele>
        <time>2022-12-10T10:50:32.172Z</time>
      </trkpt>
      <trkpt lat="48.31408" lon="-4.21803">
        <ele>62.317164</ele>
        <time>2022-12-10T10:50:34.168Z</time>
      </trkpt>
      <trkpt lat="48.31404" lon="-4.21787">
        <ele>62.331366</ele>
        <time>2022-12-10T10:50:36.164Z</time>
      </trkpt>
      <trkpt lat="48.31401" lon="-4.21772">
        <ele>62.34433</ele>
        <time>2022-12-10T10:50:38.160Z</time>
      </trkpt>
      <trkpt lat="48.31398" lon="-4.21758">
        <ele>62.356936</ele>
        <time>2022-12-10T10:50:40.167Z</time>
      </trkpt>
      <trkpt lat="48.31395" lon="-4.21743">
        <ele>62.3697</ele>
        <time>2022-12-10T10:50:42.173Z</time>
      </trkpt>
      <trkpt lat="48.31391" lon="-4.21731">
        <ele>62.381666</ele>
        <time>2022-12-10T10:50:44.160Z</time>
      </trkpt>
      <trkpt lat="48.31387" lon="-4.21712">
        <ele>62.397594</ele>
        <time>2022-12-10T10:50:47.169Z</time>
      </trkpt>
      <trkpt lat="48.31385" lon="-4.21696">
        <ele>62.41133</ele>
        <time>2022-12-10T10:50:50.168Z</time>
      </trkpt>
      <trkpt lat="48.31381" lon="-4.21679">
        <ele>62.426408</ele>
        <time>2022-12-10T10:50:53.157Z</time>
      </trkpt>
      <trkpt lat="48.31379" lon="-4.21662">
        <ele>62.441348</ele>
        <time>2022-12-10T10:50:56.170Z</time>
      </trkpt>
      <trkpt lat="48.31375" lon="-4.21646">
        <ele>62.579125</ele>
        <time>2022-12-10T10:50:59.157Z</time>
      </trkpt>
      <trkpt lat="48.31371" lon="-4.21628">
        <ele>62.909621</ele>
        <time>2022-12-10T10:51:02.152Z</time>
      </trkpt>
      <trkpt lat="48.31368" lon="-4.21611">
        <ele>63.207781</ele>
        <time>2022-12-10T10:51:05.171Z</time>
      </trkpt>
      <trkpt lat="48.31365" lon="-4.21596">
        <ele>63.466275</ele>
        <time>2022-12-10T10:51:08.166Z</time>
      </trkpt>
      <trkpt lat="48.31361" lon="-4.21583">
        <ele>63.710461</ele>
        <time>2022-12-10T10:51:11.165Z</time>
      </trkpt>
      <trkpt lat="48.31359" lon="-4.21568">
        <ele>63.97905</ele>
        <time>2022-12-10T10:51:14.170Z</time>
      </trkpt>
      <trkpt lat="48.31356" lon="-4.21554">
        <ele>64.235037</ele>
        <time>2022-12-10T10:51:17.169Z</time>
      </trkpt>
      <trkpt lat="48.31352" lon="-4.21536">
        <ele>64.54065</ele>
        <time>2022-12-10T10:51:21.167Z</time>
      </trkpt>
      <trkpt lat="48.31351" lon="-4.21522">
        <ele>64.784032</ele>
        <time>2022-12-10T10:51:24.160Z</time>
      </trkpt>
      <trkpt lat="48.31348" lon="-4.21505">
        <ele>65.079096</ele>
        <time>2022-12-10T10:51:28.168Z</time>
      </trkpt>
      <trkpt lat="48.31346" lon="-4.21489">
        <ele>65.372605</ele>
        <time>2022-12-10T10:51:32.160Z</time>
      </trkpt>
      <trkpt lat="48.31344" lon="-4.21472">
        <ele>65.660613</ele>
        <time>2022-12-10T10:51:36.172Z</time>
      </trkpt>
      <trkpt lat="48.31342" lon="-4.21457">
        <ele>65.930069</ele>
        <time>2022-12-10T10:51:40.168Z</time>
      </trkpt>
      <trkpt lat="48.31339" lon="-4.21441">
        <ele>66.205921</ele>
        <time>2022-12-10T10:51:44.159Z</time>
      </trkpt>
      <trkpt lat="48.31336" lon="-4.21425">
        <ele>66.495629</ele>
        <time>2022-12-10T10:51:48.174Z</time>
      </trkpt>
      <trkpt lat="48.31335" lon="-4.21408">
        <ele>66.775084</ele>
        <time>2022-12-10T10:51:53.144Z</time>
      </trkpt>
      <trkpt lat="48.31333" lon="-4.21393">
        <ele>67.037427</ele>
        <time>2022-12-10T10:51:57.168Z</time>
      </trkpt>
      <trkpt lat="48.31331" lon="-4.21377">
        <ele>67.288932</ele>
        <time>2022-12-10T10:52:01.168Z</time>
      </trkpt>
      <trkpt lat="48.31328" lon="-4.21362">
        <ele>67.532809</ele>
        <time>2022-12-10T10:52:05.165Z</time>
      </trkpt>
      <trkpt lat="48.31326" lon="-4.21347">
        <ele>67.754915</ele>
        <time>2022-12-10T10:52:10.168Z</time>
      </trkpt>
      <trkpt lat="48.31324" lon="-4.21334">
        <ele>67.967611</ele>
        <time>2022-12-10T10:52:15.154Z</time>
      </trkpt>
      <trkpt lat="48.31322" lon="-4.21317">
        <ele>68.225879</ele>
        <time>2022-12-10T10:52:20.142Z</time>
      </trkpt>
      <trkpt lat="48.31318" lon="-4.21302">
        <ele>68.476271</ele>
        <time>2022-12-10T10:52:25.148Z</time>
      </trkpt>
      <trkpt lat="48.31316" lon="-4.21287">
        <ele>68.711422</ele>
        <time>2022-12-10T10:52:30.173Z</time>
      </trkpt>
      <trkpt lat="48.31314" lon="-4.21271">
        <ele>68.955299</ele>
        <time>2022-12-10T10:52:35.148Z</time>
      </trkpt>
      <trkpt lat="48.31311" lon="-4.21256">
        <ele>69.191763</ele>
        <time>2022-12-10T10:52:40.165Z</time>
      </trkpt>
      <trkpt lat="48.31309" lon="-4.2124">
        <ele>69.445715</ele>
        <time>2022-12-10T10:52:45.143Z</time>
      </trkpt>
      <trkpt lat="48.31306" lon="-4.21223">
        <ele>69.702127</ele>
        <time>2022-12-10T10:52:50.165Z</time>
      </trkpt>
      <trkpt lat="48.31304" lon="-4.2121">
        <ele>69.920586</ele>
        <time>2022-12-10T10:52:54.166Z</time>
      </trkpt>
      <trkpt lat="48.31302" lon="-4.21195">
        <ele>70.140662</ele>
        <time>2022-12-10T10:52:59.161Z</time>
      </trkpt>
      <trkpt lat="48.31299" lon="-4.21181">
        <ele>70.363999</ele>
        <time>2022-12-10T10:53:04.167Z</time>
      </trkpt>
      <trkpt lat="48.31297" lon="-4.21168">
        <ele>70.570965</ele>
        <time>2022-12-10T10:53:08.151Z</time>
      </trkpt>
      <trkpt lat="48.31296" lon="-4.21154">
        <ele>70.791829</ele>
        <time>2022-12-10T10:53:12.167Z</time>
      </trkpt>
      <trkpt lat="48.31293" lon="-4.21139">
        <ele>71.02332</ele>
        <time>2022-12-10T10:53:16.171Z</time>
      </trkpt>
      <trkpt lat="48.31292" lon="-4.21124">
        <ele>71.188793</ele>
        <time>2022-12-10T10:53:20.161Z</time>
      </trkpt>
      <trkpt lat="48.3129" lon="-4.2111">
        <ele>71.20083</ele>
        <time>2022-12-10T10:53:24.170Z</time>
      </trkpt>
      <trkpt lat="48.31288" lon="-4.21094">
        <ele>71.213364</ele>
        <time>2022-12-10T10:53:28.173Z</time>
      </trkpt>
      <trkpt lat="48.31286" lon="-4.2108">
        <ele>71.225454</ele>
        <time>2022-12-10T10:53:32.168Z</time>
      </trkpt>
      <trkpt lat="48.31283" lon="-4.21065">
        <ele>71.237794</ele>
        <time>2022-12-10T10:53:36.172Z</time>
      </trkpt>
      <trkpt lat="48.31281" lon="-4.21049">
        <ele>71.251088</ele>
        <time>2022-12-10T10:53:40.158Z</time>
      </trkpt>
      <trkpt lat="48.31278" lon="-4.21032">
        <ele>71.264811</ele>
        <time>2022-12-10T10:53:44.168Z</time>
      </trkpt>
      <trkpt lat="48.31275" lon="-4.21016">
        <ele>71.27824</ele>
        <time>2022-12-10T10:53:48.159Z</time>
      </trkpt>
      <trkpt lat="48.31273" lon="-4.21">
        <ele>71.291717</ele>
        <time>2022-12-10T10:53:52.169Z</time>
      </trkpt>
      <trkpt lat="48.3127" lon="-4.20985">
        <ele>71.304004</ele>
        <time>2022-12-10T10:53:56.143Z</time>
      </trkpt>
      <trkpt lat="48.31267" lon="-4.20971">
        <ele>71.316189</ele>
        <time>2022-12-10T10:54:00.160Z</time>
      </trkpt>
      <trkpt lat="48.31265" lon="-4.20956">
        <ele>71.32797</ele>
        <time>2022-12-10T10:54:03.172Z</time>
      </trkpt>
      <trkpt lat="48.31261" lon="-4.20942">
        <ele>71.34037</ele>
        <time>2022-12-10T10:54:06.168Z</time>
      </trkpt>
      <trkpt lat="48.31258" lon="-4.20928">
        <ele>71.352274</ele>
        <time>2022-12-10T10:54:09.172Z</time>
      </trkpt>
      <trkpt lat="48.31255" lon="-4.20914">
        <ele>71.363719</ele>
        <time>2022-12-10T10:54:12.169Z</time>
      </trkpt>
      <trkpt lat="48.31251" lon="-4.20897">
        <ele>71.378193</ele>
        <time>2022-12-10T10:54:16.157Z</time>
      </trkpt>
      <trkpt lat="48.31248" lon="-4.20884">
        <ele>71.389677</ele>
        <time>2022-12-10T10:54:19.169Z</time>
      </trkpt>
      <trkpt lat="48.31245" lon="-4.20869">
        <ele>71.401929</ele>
        <time>2022-12-10T10:54:22.169Z</time>
      </trkpt>
      <trkpt lat="48.31243" lon="-4.20855">
        <ele>71.595705</ele>
        <time>2022-12-10T10:54:25.163Z</time>
      </trkpt>
      <trkpt lat="48.31241" lon="-4.20842">
        <ele>71.797505</ele>
        <time>2022-12-10T10:54:28.172Z</time>
      </trkpt>
      <trkpt lat="48.3124" lon="-4.20825">
        <ele>72.048257</ele>
        <time>2022-12-10T10:54:32.159Z</time>
      </trkpt>
      <trkpt lat="48.31238" lon="-4.20808">
        <ele>72.305173</ele>
        <time>2022-12-10T10:54:36.167Z</time>
      </trkpt>
      <trkpt lat="48.31238" lon="-4.20794">
        <ele>72.516818</ele>
        <time>2022-12-10T10:54:39.139Z</time>
      </trkpt>
      <trkpt lat="48.31238" lon="-4.20779">
        <ele>72.731501</ele>
        <time>2022-12-10T10:54:42.167Z</time>
      </trkpt>
      <trkpt lat="48.31239" lon="-4.20766">
        <ele>72.935082</ele>
        <time>2022-12-10T10:54:45.168Z</time>
      </trkpt>
      <trkpt lat="48.31242" lon="-4.20748">
        <ele>73.198896</ele>
        <time>2022-12-10T10:54:49.167Z</time>
      </trkpt>
      <trkpt lat="48.31245" lon="-4.20735">
        <ele>73.408853</ele>
        <time>2022-12-10T10:54:53.169Z</time>
      </trkpt>
      <trkpt lat="48.31248" lon="-4.20721">
        <ele>73.624356</ele>
        <time>2022-12-10T10:54:57.146Z</time>
      </trkpt>
      <trkpt lat="48.31251" lon="-4.20708">
        <ele>73.832669</ele>
        <time>2022-12-10T10:55:01.152Z</time>
      </trkpt>
      <trkpt lat="48.31254" lon="-4.20694">
        <ele>74.04654</ele>
        <time>2022-12-10T10:55:05.152Z</time>
      </trkpt>
      <trkpt lat="48.31256" lon="-4.20677">
        <ele>74.292553</ele>
        <time>2022-12-10T10:55:10.147Z</time>
      </trkpt>
      <trkpt lat="48.31258" lon="-4.20662">
        <ele>74.52932</ele>
        <time>2022-12-10T10:55:15.144Z</time>
      </trkpt>
      <trkpt lat="48.31259" lon="-4.20645">
        <ele>74.77098</ele>
        <time>2022-12-10T10:55:20.142Z</time>
      </trkpt>
      <trkpt lat="48.3126" lon="-4.20629">
        <ele>75.010997</ele>
        <time>2022-12-10T10:55:25.172Z</time>
      </trkpt>
      <trkpt lat="48.31259" lon="-4.20613">
        <ele>75.245244</ele>
        <time>2022-12-10T10:55:30.164Z</time>
      </trkpt>
      <trkpt lat="48.31258" lon="-4.20597">
        <ele>75.620097</ele>
        <time>2022-12-10T10:55:35.166Z</time>
      </trkpt>
      <trkpt lat="48.31255" lon="-4.20583">
        <ele>76.202638</ele>
        <time>2022-12-10T10:55:40.143Z</time>
      </trkpt>
      <trkpt lat="48.31253" lon="-4.2057">
        <ele>76.738281</ele>
        <time>2022-12-10T10:55:45.148Z</time>
      </trkpt>
      <trkpt lat="48.31249" lon="-4.20556">
        <ele>77.352439</ele>
        <time>2022-12-10T10:55:51.142Z</time>
      </trkpt>
      <trkpt lat="48.31246" lon="-4.20543">
        <ele>77.889608</ele>
        <time>2022-12-10T10:55:56.156Z</time>
      </trkpt>
      <trkpt lat="48.31241" lon="-4.20531">
        <ele>78.463753</ele>
        <time>2022-12-10T10:56:02.149Z</time>
      </trkpt>
      <trkpt lat="48.31236" lon="-4.20518">
        <ele>79.056159</ele>
        <time>2022-12-10T10:56:08.140Z</time>
      </trkpt>
      <trkpt lat="48.31231" lon="-4.20506">
        <ele>79.624792</ele>
        <time>2022-12-10T10:56:14.141Z</time>
      </trkpt>
      <trkpt lat="48.31225" lon="-4.20493">
        <ele>80.243454</ele>
        <time>2022-12-10T10:56:20.149Z</time>
      </trkpt>
      <trkpt lat="48.3122" lon="-4.2048">
        <ele>80.816107</ele>
        <time>2022-12-10T10:56:26.143Z</time>
      </trkpt>
      <trkpt lat="48.31214" lon="-4.20467">
        <ele>81.437837</ele>
        <time>2022-12-10T10:56:32.152Z</time>
      </trkpt>
      <trkpt lat="48.31209" lon="-4.20456">
        <ele>81.980079</ele>
        <time>2022-12-10T10:56:37.151Z</time>
      </trkpt>
      <trkpt lat="48.31204" lon="-4.20442">
        <ele>82.615416</ele>
        <time>2022-12-10T10:56:43.151Z</time>
      </trkpt>
      <trkpt lat="48.31198" lon="-4.20429">
        <ele>83.227129</ele>
        <time>2022-12-10T10:56:49.139Z</time>
      </trkpt>
      <trkpt lat="48.31193" lon="-4.20416">
        <ele>83.848747</ele>
        <time>2022-12-10T10:56:55.143Z</time>
      </trkpt>
      <trkpt lat="48.31187" lon="-4.20404">
        <ele>84.437208</ele>
        <time>2022-12-10T10:57:01.144Z</time>
      </trkpt>
      <trkpt lat="48.31183" lon="-4.2039">
        <ele>85.05362</ele>
        <time>2022-12-10T10:57:07.150Z</time>
      </trkpt>
      <trkpt lat="48.31177" lon="-4.20377">
        <ele>85.676306</ele>
        <time>2022-12-10T10:57:13.142Z</time>
      </trkpt>
      <trkpt lat="48.31172" lon="-4.20365">
        <ele>86.201705</ele>
        <time>2022-12-10T10:57:19.142Z</time>
      </trkpt>
      <trkpt lat="48.31167" lon="-4.20353">
        <ele>86.654901</ele>
        <time>2022-12-10T10:57:25.155Z</time>
      </trkpt>
      <trkpt lat="48.31162" lon="-4.20341">
        <ele>87.085875</ele>
        <time>2022-12-10T10:57:31.151Z</time>
      </trkpt>
      <trkpt lat="48.31157" lon="-4.20329">
        <ele>87.533903</ele>
        <time>2022-12-10T10:57:37.148Z</time>
      </trkpt>
      <trkpt lat="48.31152" lon="-4.20316">
        <ele>88.011722</ele>
        <time>2022-12-10T10:57:43.143Z</time>
      </trkpt>
      <trkpt lat="48.31146" lon="-4.20302">
        <ele>88.48613</ele>
        <time>2022-12-10T10:57:49.145Z</time>
      </trkpt>
      <trkpt lat="48.31142" lon="-4.2029">
        <ele>88.931681</ele>
        <time>2022-12-10T10:57:55.147Z</time>
      </trkpt>
      <trkpt lat="48.31138" lon="-4.20275">
        <ele>89.40577</ele>
        <time>2022-12-10T10:58:01.146Z</time>
      </trkpt>
      <trkpt lat="48.31134" lon="-4.20262">
        <ele>89.863842</ele>
        <time>2022-12-10T10:58:07.154Z</time>
      </trkpt>
      <trkpt lat="48.31131" lon="-4.20248">
        <ele>90.327465</ele>
        <time>2022-12-10T10:58:13.148Z</time>
      </trkpt>
      <trkpt lat="48.31127" lon="-4.20233">
        <ele>90.812883</ele>
        <time>2022-12-10T10:58:19.143Z</time>
      </trkpt>
      <trkpt lat="48.31123" lon="-4.20218">
        <ele>91.297284</ele>
        <time>2022-12-10T10:58:25.160Z</time>
      </trkpt>
      <trkpt lat="48.3112" lon="-4.20203">
        <ele>91.78005</ele>
        <time>2022-12-10T10:58:31.163Z</time>
      </trkpt>
      <trkpt lat="48.31118" lon="-4.2019">
        <ele>92.22188</ele>
        <time>2022-12-10T10:58:36.147Z</time>
      </trkpt>
      <trkpt lat="48.31115" lon="-4.20176">
        <ele>92.6757</ele>
        <time>2022-12-10T10:58:41.144Z</time>
      </trkpt>
      <trkpt lat="48.31112" lon="-4.20162">
        <ele>93.127638</ele>
        <time>2022-12-10T10:58:46.163Z</time>
      </trkpt>
      <trkpt lat="48.31109" lon="-4.20148">
        <ele>93.583919</ele>
        <time>2022-12-10T10:58:51.169Z</time>
      </trkpt>
      <trkpt lat="48.31107" lon="-4.20133">
        <ele>94.051296</ele>
        <time>2022-12-10T10:58:56.170Z</time>
      </trkpt>
      <trkpt lat="48.31103" lon="-4.20119">
        <ele>94.527958</ele>
        <time>2022-12-10T10:59:01.161Z</time>
      </trkpt>
      <trkpt lat="48.311" lon="-4.20104">
        <ele>94.86489</ele>
        <time>2022-12-10T10:59:06.168Z</time>
      </trkpt>
      <trkpt lat="48.31096" lon="-4.2009">
        <ele>95.222166</ele>
        <time>2022-12-10T10:59:11.144Z</time>
      </trkpt>
      <trkpt lat="48.31092" lon="-4.20075">
        <ele>95.578537</ele>
        <time>2022-12-10T10:59:16.162Z</time>
      </trkpt>
      <trkpt lat="48.31089" lon="-4.20062">
        <ele>95.910433</ele>
        <time>2022-12-10T10:59:21.143Z</time>
      </trkpt>
      <trkpt lat="48.31085" lon="-4.20047">
        <ele>96.260913</ele>
        <time>2022-12-10T10:59:26.169Z</time>
      </trkpt>
      <trkpt lat="48.31081" lon="-4.20034">
        <ele>96.594554</ele>
        <time>2022-12-10T10:59:31.146Z</time>
      </trkpt>
      <trkpt lat="48.31077" lon="-4.2002">
        <ele>96.93717</ele>
        <time>2022-12-10T10:59:36.169Z</time>
      </trkpt>
      <trkpt lat="48.31074" lon="-4.20007">
        <ele>97.260253</ele>
        <time>2022-12-10T10:59:41.155Z</time>
      </trkpt>
      <trkpt lat="48.31069" lon="-4.19992">
        <ele>97.618253</ele>
        <time>2022-12-10T10:59:46.155Z</time>
      </trkpt>
      <trkpt lat="48.31065" lon="-4.19978">
        <ele>97.977511</ele>
        <time>2022-12-10T10:59:51.170Z</time>
      </trkpt>
      <trkpt lat="48.3106" lon="-4.19964">
        <ele>98.341096</ele>
        <time>2022-12-10T10:59:56.169Z</time>
      </trkpt>
      <trkpt lat="48.31056" lon="-4.1995">
        <ele>98.69242</ele>
        <time>2022-12-10T11:00:01.144Z</time>
      </trkpt>
      <trkpt lat="48.31051" lon="-4.19936">
        <ele>99.045781</ele>
        <time>2022-12-10T11:00:06.171Z</time>
      </trkpt>
      <trkpt lat="48.31047" lon="-4.19923">
        <ele>99.37324</ele>
        <time>2022-12-10T11:00:11.167Z</time>
      </trkpt>
      <trkpt lat="48.31041" lon="-4.19908">
        <ele>99.760518</ele>
        <time>2022-12-10T11:00:16.172Z</time>
      </trkpt>
      <trkpt lat="48.31037" lon="-4.19896">
        <ele>100.084891</ele>
        <time>2022-12-10T11:00:20.155Z</time>
      </trkpt>
      <trkpt lat="48.31031" lon="-4.19884">
        <ele>100.412774</ele>
        <time>2022-12-10T11:00:24.168Z</time>
      </trkpt>
      <trkpt lat="48.31027" lon="-4.19872">
        <ele>100.708891</ele>
        <time>2022-12-10T11:00:28.173Z</time>
      </trkpt>
      <trkpt lat="48.31022" lon="-4.1986">
        <ele>100.954907</ele>
        <time>2022-12-10T11:00:32.167Z</time>
      </trkpt>
      <trkpt lat="48.31017" lon="-4.19847">
        <ele>101.199071</ele>
        <time>2022-12-10T11:00:36.166Z</time>
      </trkpt>
      <trkpt lat="48.31011" lon="-4.19833">
        <ele>101.481317</ele>
        <time>2022-12-10T11:00:41.167Z</time>
      </trkpt>
      <trkpt lat="48.31006" lon="-4.19821">
        <ele>101.721415</ele>
        <time>2022-12-10T11:00:45.168Z</time>
      </trkpt>
      <trkpt lat="48.31001" lon="-4.19808">
        <ele>101.982367</ele>
        <time>2022-12-10T11:00:50.171Z</time>
      </trkpt>
      <trkpt lat="48.30995" lon="-4.19797">
        <ele>102.219181</ele>
        <time>2022-12-10T11:00:54.171Z</time>
      </trkpt>
      <trkpt lat="48.30989" lon="-4.19783">
        <ele>102.501507</ele>
        <time>2022-12-10T11:00:58.168Z</time>
      </trkpt>
      <trkpt lat="48.30982" lon="-4.1977">
        <ele>102.791677</ele>
        <time>2022-12-10T11:01:02.170Z</time>
      </trkpt>
      <trkpt lat="48.30975" lon="-4.19756">
        <ele>103.086695</ele>
        <time>2022-12-10T11:01:06.171Z</time>
      </trkpt>
      <trkpt lat="48.30969" lon="-4.19742">
        <ele>103.384806</ele>
        <time>2022-12-10T11:01:10.173Z</time>
      </trkpt>
      <trkpt lat="48.30961" lon="-4.19728">
        <ele>103.685084</ele>
        <time>2022-12-10T11:01:14.170Z</time>
      </trkpt>
      <trkpt lat="48.30954" lon="-4.19715">
        <ele>103.966316</ele>
        <time>2022-12-10T11:01:18.171Z</time>
      </trkpt>
      <trkpt lat="48.30947" lon="-4.19702">
        <ele>104.264235</ele>
        <time>2022-12-10T11:01:22.171Z</time>
      </trkpt>
      <trkpt lat="48.30941" lon="-4.19691">
        <ele>104.496675</ele>
        <time>2022-12-10T11:01:25.161Z</time>
      </trkpt>
      <trkpt lat="48.30934" lon="-4.19678">
        <ele>104.781825</ele>
        <time>2022-12-10T11:01:29.169Z</time>
      </trkpt>
      <trkpt lat="48.30926" lon="-4.19666">
        <ele>105.066489</ele>
        <time>2022-12-10T11:01:33.171Z</time>
      </trkpt>
      <trkpt lat="48.30919" lon="-4.19654">
        <ele>105.303373</ele>
        <time>2022-12-10T11:01:37.170Z</time>
      </trkpt>
      <trkpt lat="48.30911" lon="-4.19641">
        <ele>105.428726</ele>
        <time>2022-12-10T11:01:41.164Z</time>
      </trkpt>
      <trkpt lat="48.30903" lon="-4.1963">
        <ele>105.553514</ele>
        <time>2022-12-10T11:01:45.158Z</time>
      </trkpt>
      <trkpt lat="48.30895" lon="-4.19618">
        <ele>105.677845</ele>
        <time>2022-12-10T11:01:49.166Z</time>
      </trkpt>
      <trkpt lat="48.30886" lon="-4.19607">
        <ele>105.809836</ele>
        <time>2022-12-10T11:01:53.165Z</time>
      </trkpt>
      <trkpt lat="48.30878" lon="-4.19595">
        <ele>105.939682</ele>
        <time>2022-12-10T11:01:57.171Z</time>
      </trkpt>
      <trkpt lat="48.30871" lon="-4.19585">
        <ele>106.046686</ele>
        <time>2022-12-10T11:02:01.167Z</time>
      </trkpt>
      <trkpt lat="48.30862" lon="-4.19575">
        <ele>106.165875</ele>
        <time>2022-12-10T11:02:05.171Z</time>
      </trkpt>
      <trkpt lat="48.30854" lon="-4.19564">
        <ele>106.293739</ele>
        <time>2022-12-10T11:02:09.170Z</time>
      </trkpt>
      <trkpt lat="48.30845" lon="-4.19552">
        <ele>106.425379</ele>
        <time>2022-12-10T11:02:13.162Z</time>
      </trkpt>
      <trkpt lat="48.30837" lon="-4.19543">
        <ele>106.536612</ele>
        <time>2022-12-10T11:02:17.153Z</time>
      </trkpt>
      <trkpt lat="48.30829" lon="-4.19532">
        <ele>106.658551</ele>
        <time>2022-12-10T11:02:21.146Z</time>
      </trkpt>
      <trkpt lat="48.30822" lon="-4.19524">
        <ele>106.762018</ele>
        <time>2022-12-10T11:02:24.172Z</time>
      </trkpt>
      <trkpt lat="48.30813" lon="-4.19513">
        <ele>106.885695</ele>
        <time>2022-12-10T11:02:28.172Z</time>
      </trkpt>
      <trkpt lat="48.30805" lon="-4.19504">
        <ele>106.99591</ele>
        <time>2022-12-10T11:02:32.166Z</time>
      </trkpt>
      <trkpt lat="48.30797" lon="-4.19495">
        <ele>107.109293</ele>
        <time>2022-12-10T11:02:36.170Z</time>
      </trkpt>
      <trkpt lat="48.30788" lon="-4.19486">
        <ele>107.226712</ele>
        <time>2022-12-10T11:02:40.174Z</time>
      </trkpt>
      <trkpt lat="48.30779" lon="-4.19477">
        <ele>107.099608</ele>
        <time>2022-12-10T11:02:44.160Z</time>
      </trkpt>
      <trkpt lat="48.30769" lon="-4.19467">
        <ele>106.745534</ele>
        <time>2022-12-10T11:02:48.167Z</time>
      </trkpt>
      <trkpt lat="48.30761" lon="-4.19459">
        <ele>106.462053</ele>
        <time>2022-12-10T11:02:51.163Z</time>
      </trkpt>
      <trkpt lat="48.30753" lon="-4.19451">
        <ele>106.171272</ele>
        <time>2022-12-10T11:02:54.173Z</time>
      </trkpt>
      <trkpt lat="48.30745" lon="-4.19442">
        <ele>105.879894</ele>
        <time>2022-12-10T11:02:57.169Z</time>
      </trkpt>
      <trkpt lat="48.30737" lon="-4.19433">
        <ele>105.590864</ele>
        <time>2022-12-10T11:03:00.154Z</time>
      </trkpt>
      <trkpt lat="48.30729" lon="-4.19425">
        <ele>105.299249</ele>
        <time>2022-12-10T11:03:03.166Z</time>
      </trkpt>
      <trkpt lat="48.30721" lon="-4.19415">
        <ele>104.99734</ele>
        <time>2022-12-10T11:03:06.166Z</time>
      </trkpt>
      <trkpt lat="48.30712" lon="-4.19407">
        <ele>104.686157</ele>
        <time>2022-12-10T11:03:09.166Z</time>
      </trkpt>
      <trkpt lat="48.30702" lon="-4.19398">
        <ele>104.354246</ele>
        <time>2022-12-10T11:03:12.144Z</time>
      </trkpt>
      <trkpt lat="48.30693" lon="-4.19389">
        <ele>104.043063</ele>
        <time>2022-12-10T11:03:15.169Z</time>
      </trkpt>
      <trkpt lat="48.30685" lon="-4.1938">
        <ele>103.736415</ele>
        <time>2022-12-10T11:03:18.172Z</time>
      </trkpt>
      <trkpt lat="48.30675" lon="-4.19372">
        <ele>103.423276</ele>
        <time>2022-12-10T11:03:21.171Z</time>
      </trkpt>
      <trkpt lat="48.30667" lon="-4.19364">
        <ele>103.13813</ele>
        <time>2022-12-10T11:03:24.170Z</time>
      </trkpt>
      <trkpt lat="48.30659" lon="-4.19356">
        <ele>102.852579</ele>
        <time>2022-12-10T11:03:27.174Z</time>
      </trkpt>
      <trkpt lat="48.3065" lon="-4.19347">
        <ele>102.547732</ele>
        <time>2022-12-10T11:03:30.169Z</time>
      </trkpt>
      <trkpt lat="48.30641" lon="-4.19339">
        <ele>102.22496</ele>
        <time>2022-12-10T11:03:33.167Z</time>
      </trkpt>
      <trkpt lat="48.30632" lon="-4.19329">
        <ele>101.797449</ele>
        <time>2022-12-10T11:03:36.171Z</time>
      </trkpt>
      <trkpt lat="48.30623" lon="-4.1932">
        <ele>101.228193</ele>
        <time>2022-12-10T11:03:39.173Z</time>
      </trkpt>
      <trkpt lat="48.30614" lon="-4.19311">
        <ele>100.668946</ele>
        <time>2022-12-10T11:03:42.173Z</time>
      </trkpt>
      <trkpt lat="48.30605" lon="-4.19302">
        <ele>100.113065</ele>
        <time>2022-12-10T11:03:45.169Z</time>
      </trkpt>
      <trkpt lat="48.30596" lon="-4.19293">
        <ele>99.528288</ele>
        <time>2022-12-10T11:03:48.170Z</time>
      </trkpt>
      <trkpt lat="48.30587" lon="-4.19283">
        <ele>98.91196</ele>
        <time>2022-12-10T11:03:51.156Z</time>
      </trkpt>
      <trkpt lat="48.30577" lon="-4.19272">
        <ele>98.278951</ele>
        <time>2022-12-10T11:03:54.163Z</time>
      </trkpt>
      <trkpt lat="48.30567" lon="-4.19261">
        <ele>97.618259</ele>
        <time>2022-12-10T11:03:57.173Z</time>
      </trkpt>
      <trkpt lat="48.30558" lon="-4.19248">
        <ele>96.948171</ele>
        <time>2022-12-10T11:04:00.155Z</time>
      </trkpt>
      <trkpt lat="48.3055" lon="-4.19235">
        <ele>96.300039</ele>
        <time>2022-12-10T11:04:03.168Z</time>
      </trkpt>
      <trkpt lat="48.30542" lon="-4.19222">
        <ele>95.683772</ele>
        <time>2022-12-10T11:04:06.167Z</time>
      </trkpt>
      <trkpt lat="48.30535" lon="-4.19209">
        <ele>95.096814</ele>
        <time>2022-12-10T11:04:09.172Z</time>
      </trkpt>
      <trkpt lat="48.30527" lon="-4.19197">
        <ele>94.509943</ele>
        <time>2022-12-10T11:04:12.149Z</time>
      </trkpt>
      <trkpt lat="48.3052" lon="-4.19185">
        <ele>93.932995</ele>
        <time>2022-12-10T11:04:15.173Z</time>
      </trkpt>
      <trkpt lat="48.30513" lon="-4.19172">
        <ele>93.341109</ele>
        <time>2022-12-10T11:04:18.205Z</time>
      </trkpt>
      <trkpt lat="48.30504" lon="-4.1916">
        <ele>92.711724</ele>
        <time>2022-12-10T11:04:21.169Z</time>
      </trkpt>
      <trkpt lat="48.30496" lon="-4.19148">
        <ele>92.291985</ele>
        <time>2022-12-10T11:04:24.170Z</time>
      </trkpt>
      <trkpt lat="48.30488" lon="-4.19138">
        <ele>92.034961</ele>
        <time>2022-12-10T11:04:27.176Z</time>
      </trkpt>
      <trkpt lat="48.3048" lon="-4.19128">
        <ele>91.779386</ele>
        <time>2022-12-10T11:04:30.177Z</time>
      </trkpt>
      <trkpt lat="48.30471" lon="-4.19119">
        <ele>91.507035</ele>
        <time>2022-12-10T11:04:33.155Z</time>
      </trkpt>
      <trkpt lat="48.3046" lon="-4.1911">
        <ele>91.205825</ele>
        <time>2022-12-10T11:04:36.171Z</time>
      </trkpt>
      <trkpt lat="48.30449" lon="-4.19102">
        <ele>90.8999</ele>
        <time>2022-12-10T11:04:39.167Z</time>
      </trkpt>
      <trkpt lat="48.30437" lon="-4.19095">
        <ele>90.586099</ele>
        <time>2022-12-10T11:04:42.165Z</time>
      </trkpt>
      <trkpt lat="48.30426" lon="-4.1909">
        <ele>90.284937</ele>
        <time>2022-12-10T11:04:45.154Z</time>
      </trkpt>
      <trkpt lat="48.30414" lon="-4.19087">
        <ele>89.99077</ele>
        <time>2022-12-10T11:04:48.161Z</time>
      </trkpt>
      <trkpt lat="48.30403" lon="-4.19084">
        <ele>89.720868</ele>
        <time>2022-12-10T11:04:51.146Z</time>
      </trkpt>
      <trkpt lat="48.30393" lon="-4.19083">
        <ele>89.474418</ele>
        <time>2022-12-10T11:04:54.158Z</time>
      </trkpt>
      <trkpt lat="48.30384" lon="-4.19082">
        <ele>89.227808</ele>
        <time>2022-12-10T11:04:57.159Z</time>
      </trkpt>
      <trkpt lat="48.30374" lon="-4.1908">
        <ele>88.982908</ele>
        <time>2022-12-10T11:05:00.156Z</time>
      </trkpt>
      <trkpt lat="48.30364" lon="-4.19079">
        <ele>88.741934</ele>
        <time>2022-12-10T11:05:03.174Z</time>
      </trkpt>
      <trkpt lat="48.30354" lon="-4.19077">
        <ele>88.495484</ele>
        <time>2022-12-10T11:05:06.170Z</time>
      </trkpt>
      <trkpt lat="48.30344" lon="-4.19076">
        <ele>88.237388</ele>
        <time>2022-12-10T11:05:09.169Z</time>
      </trkpt>
      <trkpt lat="48.30333" lon="-4.19076">
        <ele>87.97824</ele>
        <time>2022-12-10T11:05:12.169Z</time>
      </trkpt>
      <trkpt lat="48.30323" lon="-4.19075">
        <ele>87.701132</ele>
        <time>2022-12-10T11:05:15.172Z</time>
      </trkpt>
      <trkpt lat="48.30312" lon="-4.19074">
        <ele>87.421261</ele>
        <time>2022-12-10T11:05:18.176Z</time>
      </trkpt>
      <trkpt lat="48.30302" lon="-4.19073">
        <ele>87.139019</ele>
        <time>2022-12-10T11:05:21.147Z</time>
      </trkpt>
      <trkpt lat="48.30291" lon="-4.19072">
        <ele>86.845206</ele>
        <time>2022-12-10T11:05:24.174Z</time>
      </trkpt>
      <trkpt lat="48.30279" lon="-4.19071">
        <ele>86.533251</ele>
        <time>2022-12-10T11:05:27.157Z</time>
      </trkpt>
      <trkpt lat="48.30268" lon="-4.1907">
        <ele>86.23203</ele>
        <time>2022-12-10T11:05:30.169Z</time>
      </trkpt>
      <trkpt lat="48.30257" lon="-4.19068">
        <ele>85.943516</ele>
        <time>2022-12-10T11:05:33.173Z</time>
      </trkpt>
      <trkpt lat="48.30246" lon="-4.19067">
        <ele>85.655681</ele>
        <time>2022-12-10T11:05:36.170Z</time>
      </trkpt>
      <trkpt lat="48.30235" lon="-4.19066">
        <ele>85.36519</ele>
        <time>2022-12-10T11:05:39.143Z</time>
      </trkpt>
      <trkpt lat="48.30224" lon="-4.19065">
        <ele>85.068882</ele>
        <time>2022-12-10T11:05:42.155Z</time>
      </trkpt>
      <trkpt lat="48.30213" lon="-4.19064">
        <ele>84.770525</ele>
        <time>2022-12-10T11:05:45.147Z</time>
      </trkpt>
      <trkpt lat="48.30202" lon="-4.19062">
        <ele>84.48466</ele>
        <time>2022-12-10T11:05:48.156Z</time>
      </trkpt>
      <trkpt lat="48.30192" lon="-4.19062">
        <ele>84.207958</ele>
        <time>2022-12-10T11:05:51.170Z</time>
      </trkpt>
      <trkpt lat="48.30181" lon="-4.1906">
        <ele>83.919444</ele>
        <time>2022-12-10T11:05:54.171Z</time>
      </trkpt>
      <trkpt lat="48.30171" lon="-4.19059">
        <ele>83.639328</ele>
        <time>2022-12-10T11:05:57.171Z</time>
      </trkpt>
      <trkpt lat="48.3016" lon="-4.19058">
        <ele>83.343627</ele>
        <time>2022-12-10T11:06:00.166Z</time>
      </trkpt>
      <trkpt lat="48.30148" lon="-4.19057">
        <ele>83.033818</ele>
        <time>2022-12-10T11:06:03.171Z</time>
      </trkpt>
      <trkpt lat="48.30137" lon="-4.19056">
        <ele>82.720842</ele>
        <time>2022-12-10T11:06:06.166Z</time>
      </trkpt>
      <trkpt lat="48.30126" lon="-4.19054">
        <ele>82.423681</ele>
        <time>2022-12-10T11:06:09.155Z</time>
      </trkpt>
      <trkpt lat="48.30115" lon="-4.19053">
        <ele>82.138931</ele>
        <time>2022-12-10T11:06:12.155Z</time>
      </trkpt>
      <trkpt lat="48.30106" lon="-4.19051">
        <ele>81.87653</ele>
        <time>2022-12-10T11:06:15.171Z</time>
      </trkpt>
      <trkpt lat="48.30097" lon="-4.1905">
        <ele>81.632096</ele>
        <time>2022-12-10T11:06:18.173Z</time>
      </trkpt>
      <trkpt lat="48.30085" lon="-4.19048">
        <ele>81.314528</ele>
        <time>2022-12-10T11:06:22.169Z</time>
      </trkpt>
      <trkpt lat="48.30076" lon="-4.19045">
        <ele>81.068117</ele>
        <time>2022-12-10T11:06:25.172Z</time>
      </trkpt>
      <trkpt lat="48.30067" lon="-4.19041">
        <ele>80.816796</ele>
        <time>2022-12-10T11:06:28.145Z</time>
      </trkpt>
      <trkpt lat="48.30058" lon="-4.19036">
        <ele>80.556778</ele>
        <time>2022-12-10T11:06:31.166Z</time>
      </trkpt>
      <trkpt lat="48.3005" lon="-4.19028">
        <ele>80.285888</ele>
        <time>2022-12-10T11:06:34.156Z</time>
      </trkpt>
      <trkpt lat="48.3004" lon="-4.19021">
        <ele>79.995933</ele>
        <time>2022-12-10T11:06:37.171Z</time>
      </trkpt>
      <trkpt lat="48.30031" lon="-4.19013">
        <ele>79.705832</ele>
        <time>2022-12-10T11:06:40.170Z</time>
      </trkpt>
      <trkpt lat="48.30022" lon="-4.19005">
        <ele>79.439611</ele>
        <time>2022-12-10T11:06:43.174Z</time>
      </trkpt>
      <trkpt lat="48.30015" lon="-4.18997">
        <ele>79.17959</ele>
        <time>2022-12-10T11:06:46.170Z</time>
      </trkpt>
      <trkpt lat="48.30006" lon="-4.18988">
        <ele>78.907601</ele>
        <time>2022-12-10T11:06:49.170Z</time>
      </trkpt>
      <trkpt lat="48.29997" lon="-4.18979">
        <ele>78.617924</ele>
        <time>2022-12-10T11:06:52.168Z</time>
      </trkpt>
      <trkpt lat="48.2999" lon="-4.18969">
        <ele>78.343843</ele>
        <time>2022-12-10T11:06:55.169Z</time>
      </trkpt>
      <trkpt lat="48.29983" lon="-4.18959">
        <ele>77.97968</ele>
        <time>2022-12-10T11:06:58.167Z</time>
      </trkpt>
      <trkpt lat="48.29976" lon="-4.18948">
        <ele>77.617024</ele>
        <time>2022-12-10T11:07:01.172Z</time>
      </trkpt>
      <trkpt lat="48.29969" lon="-4.18937">
        <ele>77.251075</ele>
        <time>2022-12-10T11:07:04.148Z</time>
      </trkpt>
      <trkpt lat="48.29963" lon="-4.18926">
        <ele>76.896927</ele>
        <time>2022-12-10T11:07:07.171Z</time>
      </trkpt>
      <trkpt lat="48.29958" lon="-4.18915">
        <ele>76.562438</ele>
        <time>2022-12-10T11:07:10.173Z</time>
      </trkpt>
      <trkpt lat="48.29953" lon="-4.18902">
        <ele>76.219346</ele>
        <time>2022-12-10T11:07:13.172Z</time>
      </trkpt>
      <trkpt lat="48.29949" lon="-4.1889">
        <ele>75.883971</ele>
        <time>2022-12-10T11:07:16.166Z</time>
      </trkpt>
      <trkpt lat="48.29946" lon="-4.18877">
        <ele>75.539782</ele>
        <time>2022-12-10T11:07:19.168Z</time>
      </trkpt>
      <trkpt lat="48.29944" lon="-4.18863">
        <ele>75.206072</ele>
        <time>2022-12-10T11:07:22.158Z</time>
      </trkpt>
      <trkpt lat="48.29942" lon="-4.18849">
        <ele>74.85189</ele>
        <time>2022-12-10T11:07:25.169Z</time>
      </trkpt>
      <trkpt lat="48.29942" lon="-4.18834">
        <ele>74.479099</ele>
        <time>2022-12-10T11:07:28.149Z</time>
      </trkpt>
      <trkpt lat="48.29941" lon="-4.18818">
        <ele>74.086451</ele>
        <time>2022-12-10T11:07:31.169Z</time>
      </trkpt>
      <trkpt lat="48.29939" lon="-4.18802">
        <ele>73.696343</ele>
        <time>2022-12-10T11:07:34.168Z</time>
      </trkpt>
      <trkpt lat="48.29938" lon="-4.18788">
        <ele>73.345848</ele>
        <time>2022-12-10T11:07:37.146Z</time>
      </trkpt>
      <trkpt lat="48.29937" lon="-4.18774">
        <ele>73.016009</ele>
        <time>2022-12-10T11:07:40.162Z</time>
      </trkpt>
      <trkpt lat="48.29936" lon="-4.1876">
        <ele>72.665092</ele>
        <time>2022-12-10T11:07:43.172Z</time>
      </trkpt>
      <trkpt lat="48.29935" lon="-4.18744">
        <ele>72.280066</ele>
        <time>2022-12-10T11:07:46.146Z</time>
      </trkpt>
      <trkpt lat="48.29934" lon="-4.18727">
        <ele>71.86334</ele>
        <time>2022-12-10T11:07:49.171Z</time>
      </trkpt>
      <trkpt lat="48.29933" lon="-4.18708">
        <ele>71.563037</ele>
        <time>2022-12-10T11:07:52.181Z</time>
      </trkpt>
      <trkpt lat="48.29931" lon="-4.18689">
        <ele>71.295251</ele>
        <time>2022-12-10T11:07:55.175Z</time>
      </trkpt>
      <trkpt lat="48.2993" lon="-4.18675">
        <ele>71.106598</ele>
        <time>2022-12-10T11:07:57.176Z</time>
      </trkpt>
      <trkpt lat="48.2993" lon="-4.18661">
        <ele>70.914663</ele>
        <time>2022-12-10T11:07:59.170Z</time>
      </trkpt>
      <trkpt lat="48.29928" lon="-4.18648">
        <ele>70.726523</ele>
        <time>2022-12-10T11:08:01.169Z</time>
      </trkpt>
      <trkpt lat="48.29927" lon="-4.18634">
        <ele>70.54004</ele>
        <time>2022-12-10T11:08:03.170Z</time>
      </trkpt>
      <trkpt lat="48.29925" lon="-4.1862">
        <ele>70.338754</ele>
        <time>2022-12-10T11:08:05.170Z</time>
      </trkpt>
      <trkpt lat="48.29924" lon="-4.18606">
        <ele>70.144892</ele>
        <time>2022-12-10T11:08:07.169Z</time>
      </trkpt>
      <trkpt lat="48.29922" lon="-4.18592">
        <ele>69.951297</ele>
        <time>2022-12-10T11:08:09.169Z</time>
      </trkpt>
      <trkpt lat="48.2992" lon="-4.18578">
        <ele>69.758623</ele>
        <time>2022-12-10T11:08:11.171Z</time>
      </trkpt>
      <trkpt lat="48.29918" lon="-4.18563">
        <ele>69.553968</ele>
        <time>2022-12-10T11:08:13.170Z</time>
      </trkpt>
      <trkpt lat="48.29915" lon="-4.18549">
        <ele>69.352619</ele>
        <time>2022-12-10T11:08:15.171Z</time>
      </trkpt>
      <trkpt lat="48.29912" lon="-4.18535">
        <ele>69.145623</ele>
        <time>2022-12-10T11:08:17.147Z</time>
      </trkpt>
      <trkpt lat="48.29909" lon="-4.1852">
        <ele>68.928869</ele>
        <time>2022-12-10T11:08:19.146Z</time>
      </trkpt>
      <trkpt lat="48.29905" lon="-4.18506">
        <ele>68.72546</ele>
        <time>2022-12-10T11:08:21.159Z</time>
      </trkpt>
      <trkpt lat="48.29902" lon="-4.18492">
        <ele>68.523692</ele>
        <time>2022-12-10T11:08:23.171Z</time>
      </trkpt>
      <trkpt lat="48.29898" lon="-4.18479">
        <ele>68.332463</ele>
        <time>2022-12-10T11:08:25.171Z</time>
      </trkpt>
      <trkpt lat="48.29894" lon="-4.18466">
        <ele>68.137085</ele>
        <time>2022-12-10T11:08:27.167Z</time>
      </trkpt>
      <trkpt lat="48.2989" lon="-4.18454">
        <ele>67.756691</ele>
        <time>2022-12-10T11:08:29.172Z</time>
      </trkpt>
      <trkpt lat="48.29885" lon="-4.18436">
        <ele>67.058405</ele>
        <time>2022-12-10T11:08:32.159Z</time>
      </trkpt>
      <trkpt lat="48.2988" lon="-4.18421">
        <ele>66.443375</ele>
        <time>2022-12-10T11:08:35.168Z</time>
      </trkpt>
      <trkpt lat="48.29875" lon="-4.18406">
        <ele>65.844544</ele>
        <time>2022-12-10T11:08:38.176Z</time>
      </trkpt>
      <trkpt lat="48.29871" lon="-4.1839">
        <ele>65.236169</ele>
        <time>2022-12-10T11:08:41.168Z</time>
      </trkpt>
      <trkpt lat="48.29866" lon="-4.18375">
        <ele>64.631255</ele>
        <time>2022-12-10T11:08:44.151Z</time>
      </trkpt>
      <trkpt lat="48.29861" lon="-4.18359">
        <ele>64.008736</ele>
        <time>2022-12-10T11:08:47.164Z</time>
      </trkpt>
      <trkpt lat="48.29856" lon="-4.18343">
        <ele>63.358753</ele>
        <time>2022-12-10T11:08:50.167Z</time>
      </trkpt>
      <trkpt lat="48.29852" lon="-4.18326">
        <ele>62.717597</ele>
        <time>2022-12-10T11:08:53.167Z</time>
      </trkpt>
      <trkpt lat="48.29846" lon="-4.1831">
        <ele>62.069548</ele>
        <time>2022-12-10T11:08:56.167Z</time>
      </trkpt>
      <trkpt lat="48.29841" lon="-4.18294">
        <ele>61.414274</ele>
        <time>2022-12-10T11:08:59.151Z</time>
      </trkpt>
      <trkpt lat="48.29835" lon="-4.18278">
        <ele>60.752573</ele>
        <time>2022-12-10T11:09:02.166Z</time>
      </trkpt>
      <trkpt lat="48.29829" lon="-4.18261">
        <ele>60.044063</ele>
        <time>2022-12-10T11:09:05.147Z</time>
      </trkpt>
      <trkpt lat="48.29822" lon="-4.18244">
        <ele>59.338628</ele>
        <time>2022-12-10T11:09:08.162Z</time>
      </trkpt>
      <trkpt lat="48.29814" lon="-4.18227">
        <ele>58.618685</ele>
        <time>2022-12-10T11:09:11.150Z</time>
      </trkpt>
      <trkpt lat="48.29808" lon="-4.18213">
        <ele>58.093209</ele>
        <time>2022-12-10T11:09:14.153Z</time>
      </trkpt>
      <trkpt lat="48.298" lon="-4.18202">
        <ele>57.714633</ele>
        <time>2022-12-10T11:09:17.162Z</time>
      </trkpt>
      <trkpt lat="48.29793" lon="-4.18189">
        <ele>57.296793</ele>
        <time>2022-12-10T11:09:20.147Z</time>
      </trkpt>
      <trkpt lat="48.29785" lon="-4.18176">
        <ele>56.880124</ele>
        <time>2022-12-10T11:09:23.165Z</time>
      </trkpt>
      <trkpt lat="48.29776" lon="-4.18165">
        <ele>56.44678</ele>
        <time>2022-12-10T11:09:26.169Z</time>
      </trkpt>
      <trkpt lat="48.29768" lon="-4.18153">
        <ele>56.038599</ele>
        <time>2022-12-10T11:09:29.168Z</time>
      </trkpt>
      <trkpt lat="48.29759" lon="-4.18142">
        <ele>55.620649</ele>
        <time>2022-12-10T11:09:32.171Z</time>
      </trkpt>
      <trkpt lat="48.2975" lon="-4.1813">
        <ele>55.18574</ele>
        <time>2022-12-10T11:09:35.172Z</time>
      </trkpt>
      <trkpt lat="48.29741" lon="-4.1812">
        <ele>54.783571</ele>
        <time>2022-12-10T11:09:38.170Z</time>
      </trkpt>
      <trkpt lat="48.29734" lon="-4.18112">
        <ele>54.442386</ele>
        <time>2022-12-10T11:09:41.162Z</time>
      </trkpt>
      <trkpt lat="48.29723" lon="-4.18104">
        <ele>54.020761</ele>
        <time>2022-12-10T11:09:44.170Z</time>
      </trkpt>
      <trkpt lat="48.2971" lon="-4.18099">
        <ele>53.509086</ele>
        <time>2022-12-10T11:09:47.151Z</time>
      </trkpt>
      <trkpt lat="48.297" lon="-4.18098">
        <ele>53.163685</ele>
        <time>2022-12-10T11:09:49.170Z</time>
      </trkpt>
      <trkpt lat="48.29691" lon="-4.18097">
        <ele>52.81346</ele>
        <time>2022-12-10T11:09:51.151Z</time>
      </trkpt>
      <trkpt lat="48.29679" lon="-4.18096">
        <ele>52.372172</ele>
        <time>2022-12-10T11:09:54.171Z</time>
      </trkpt>
      <trkpt lat="48.29667" lon="-4.18096">
        <ele>51.960256</ele>
        <time>2022-12-10T11:09:57.167Z</time>
      </trkpt>
      <trkpt lat="48.29657" lon="-4.18096">
        <ele>51.957045</ele>
        <time>2022-12-10T11:10:00.147Z</time>
      </trkpt>
      <trkpt lat="48.29648" lon="-4.18096">
        <ele>52.319848</ele>
        <time>2022-12-10T11:10:03.173Z</time>
      </trkpt>
      <trkpt lat="48.29638" lon="-4.18096">
        <ele>52.734604</ele>
        <time>2022-12-10T11:10:07.176Z</time>
      </trkpt>
      <trkpt lat="48.29628" lon="-4.18096">
        <ele>53.11734</ele>
        <time>2022-12-10T11:10:11.170Z</time>
      </trkpt>
      <trkpt lat="48.29618" lon="-4.18096">
        <ele>53.528008</ele>
        <time>2022-12-10T11:10:15.145Z</time>
      </trkpt>
      <trkpt lat="48.29608" lon="-4.18096">
        <ele>53.910817</ele>
        <time>2022-12-10T11:10:19.175Z</time>
      </trkpt>
      <trkpt lat="48.29597" lon="-4.18098">
        <ele>54.340061</ele>
        <time>2022-12-10T11:10:24.170Z</time>
      </trkpt>
      <trkpt lat="48.29588" lon="-4.18099">
        <ele>54.712191</ele>
        <time>2022-12-10T11:10:30.169Z</time>
      </trkpt>
      <trkpt lat="48.29589" lon="-4.181">
        <ele>54.732818</ele>
        <time>2022-12-10T11:10:45.358Z</time>
      </trkpt>
      <trkpt lat="48.29579" lon="-4.18084">
        <ele>55.297227</ele>
        <time>2022-12-10T11:18:20.158Z</time>
      </trkpt>
      <trkpt lat="48.29569" lon="-4.18076">
        <ele>55.737058</ele>
        <time>2022-12-10T11:18:25.176Z</time>
      </trkpt>
      <trkpt lat="48.29562" lon="-4.18068">
        <ele>56.097489</ele>
        <time>2022-12-10T11:18:29.174Z</time>
      </trkpt>
      <trkpt lat="48.29555" lon="-4.18057">
        <ele>56.50489</ele>
        <time>2022-12-10T11:18:34.174Z</time>
      </trkpt>
      <trkpt lat="48.29547" lon="-4.18046">
        <ele>56.924107</ele>
        <time>2022-12-10T11:18:39.169Z</time>
      </trkpt>
      <trkpt lat="48.29539" lon="-4.18036">
        <ele>57.365622</ele>
        <time>2022-12-10T11:18:44.151Z</time>
      </trkpt>
      <trkpt lat="48.2953" lon="-4.18028">
        <ele>57.751712</ele>
        <time>2022-12-10T11:18:48.163Z</time>
      </trkpt>
      <trkpt lat="48.29521" lon="-4.18021">
        <ele>58.189042</ele>
        <time>2022-12-10T11:18:53.156Z</time>
      </trkpt>
      <trkpt lat="48.29512" lon="-4.18012">
        <ele>58.615644</ele>
        <time>2022-12-10T11:18:58.154Z</time>
      </trkpt>
      <trkpt lat="48.29504" lon="-4.18001">
        <ele>58.932407</ele>
        <time>2022-12-10T11:19:03.154Z</time>
      </trkpt>
      <trkpt lat="48.29495" lon="-4.17991">
        <ele>58.921418</ele>
        <time>2022-12-10T11:19:08.157Z</time>
      </trkpt>
      <trkpt lat="48.29486" lon="-4.17984">
        <ele>58.911036</ele>
        <time>2022-12-10T11:19:13.162Z</time>
      </trkpt>
      <trkpt lat="48.29478" lon="-4.17977">
        <ele>58.90108</ele>
        <time>2022-12-10T11:19:18.168Z</time>
      </trkpt>
      <trkpt lat="48.29469" lon="-4.17972">
        <ele>58.890923</ele>
        <time>2022-12-10T11:19:23.165Z</time>
      </trkpt>
      <trkpt lat="48.2946" lon="-4.17967">
        <ele>58.881395</ele>
        <time>2022-12-10T11:19:28.160Z</time>
      </trkpt>
      <trkpt lat="48.29452" lon="-4.17959">
        <ele>58.871389</ele>
        <time>2022-12-10T11:19:33.152Z</time>
      </trkpt>
      <trkpt lat="48.29447" lon="-4.17947">
        <ele>58.861689</ele>
        <time>2022-12-10T11:19:38.150Z</time>
      </trkpt>
      <trkpt lat="48.29444" lon="-4.17933">
        <ele>58.851614</ele>
        <time>2022-12-10T11:19:43.149Z</time>
      </trkpt>
      <trkpt lat="48.29442" lon="-4.17918">
        <ele>58.841245</ele>
        <time>2022-12-10T11:19:48.173Z</time>
      </trkpt>
      <trkpt lat="48.29439" lon="-4.17902">
        <ele>58.830282</ele>
        <time>2022-12-10T11:19:53.148Z</time>
      </trkpt>
      <trkpt lat="48.29433" lon="-4.17892">
        <ele>58.820763</ele>
        <time>2022-12-10T11:19:58.169Z</time>
      </trkpt>
      <trkpt lat="48.29427" lon="-4.17878">
        <ele>58.809355</ele>
        <time>2022-12-10T11:20:03.171Z</time>
      </trkpt>
      <trkpt lat="48.29421" lon="-4.17866">
        <ele>58.799256</ele>
        <time>2022-12-10T11:20:07.150Z</time>
      </trkpt>
      <trkpt lat="48.29415" lon="-4.17854">
        <ele>58.789036</ele>
        <time>2022-12-10T11:20:11.168Z</time>
      </trkpt>
      <trkpt lat="48.29409" lon="-4.17844">
        <ele>58.779452</ele>
        <time>2022-12-10T11:20:15.171Z</time>
      </trkpt>
      <trkpt lat="48.29403" lon="-4.17832">
        <ele>58.769296</ele>
        <time>2022-12-10T11:20:19.173Z</time>
      </trkpt>
      <trkpt lat="48.29398" lon="-4.17818">
        <ele>58.758218</ele>
        <time>2022-12-10T11:20:24.170Z</time>
      </trkpt>
      <trkpt lat="48.29392" lon="-4.17806">
        <ele>58.800148</ele>
        <time>2022-12-10T11:20:30.160Z</time>
      </trkpt>
      <trkpt lat="48.29378" lon="-4.1778">
        <ele>59.500385</ele>
        <time>2022-12-10T11:20:54.161Z</time>
      </trkpt>
      <trkpt lat="48.29372" lon="-4.17768">
        <ele>59.810171</ele>
        <time>2022-12-10T11:20:58.161Z</time>
      </trkpt>
      <trkpt lat="48.29366" lon="-4.17756">
        <ele>60.101028</ele>
        <time>2022-12-10T11:21:02.170Z</time>
      </trkpt>
      <trkpt lat="48.2936" lon="-4.17745">
        <ele>60.387342</ele>
        <time>2022-12-10T11:21:06.150Z</time>
      </trkpt>
      <trkpt lat="48.29355" lon="-4.17733">
        <ele>60.678056</ele>
        <time>2022-12-10T11:21:10.173Z</time>
      </trkpt>
      <trkpt lat="48.29349" lon="-4.1772">
        <ele>61.001125</ele>
        <time>2022-12-10T11:21:14.170Z</time>
      </trkpt>
      <trkpt lat="48.29343" lon="-4.17707">
        <ele>61.324245</ele>
        <time>2022-12-10T11:21:18.174Z</time>
      </trkpt>
      <trkpt lat="48.29339" lon="-4.17693">
        <ele>61.628922</ele>
        <time>2022-12-10T11:21:22.166Z</time>
      </trkpt>
      <trkpt lat="48.29333" lon="-4.1768">
        <ele>61.965633</ele>
        <time>2022-12-10T11:21:26.172Z</time>
      </trkpt>
      <trkpt lat="48.29327" lon="-4.17667">
        <ele>62.278583</ele>
        <time>2022-12-10T11:21:30.185Z</time>
      </trkpt>
      <trkpt lat="48.2932" lon="-4.17654">
        <ele>62.615405</ele>
        <time>2022-12-10T11:21:34.173Z</time>
      </trkpt>
      <trkpt lat="48.29315" lon="-4.17642">
        <ele>62.911703</ele>
        <time>2022-12-10T11:21:38.170Z</time>
      </trkpt>
      <trkpt lat="48.29307" lon="-4.17628">
        <ele>63.274641</ele>
        <time>2022-12-10T11:21:42.165Z</time>
      </trkpt>
      <trkpt lat="48.29302" lon="-4.17617">
        <ele>63.560394</ele>
        <time>2022-12-10T11:21:45.173Z</time>
      </trkpt>
      <trkpt lat="48.29297" lon="-4.17604">
        <ele>63.858215</ele>
        <time>2022-12-10T11:21:48.166Z</time>
      </trkpt>
      <trkpt lat="48.29292" lon="-4.17593">
        <ele>64.147242</ele>
        <time>2022-12-10T11:21:51.169Z</time>
      </trkpt>
      <trkpt lat="48.29285" lon="-4.1758">
        <ele>64.317902</ele>
        <time>2022-12-10T11:21:55.172Z</time>
      </trkpt>
      <trkpt lat="48.29279" lon="-4.17569">
        <ele>64.385471</ele>
        <time>2022-12-10T11:21:58.172Z</time>
      </trkpt>
      <trkpt lat="48.29273" lon="-4.17554">
        <ele>64.46712</ele>
        <time>2022-12-10T11:22:02.173Z</time>
      </trkpt>
      <trkpt lat="48.29267" lon="-4.17543">
        <ele>64.536764</ele>
        <time>2022-12-10T11:22:05.170Z</time>
      </trkpt>
      <trkpt lat="48.29261" lon="-4.17529">
        <ele>64.615268</ele>
        <time>2022-12-10T11:22:09.172Z</time>
      </trkpt>
      <trkpt lat="48.29255" lon="-4.17515">
        <ele>64.693379</ele>
        <time>2022-12-10T11:22:13.172Z</time>
      </trkpt>
      <trkpt lat="48.29249" lon="-4.17504">
        <ele>64.759112</ele>
        <time>2022-12-10T11:22:16.177Z</time>
      </trkpt>
      <trkpt lat="48.29243" lon="-4.1749">
        <ele>64.837342</ele>
        <time>2022-12-10T11:22:20.169Z</time>
      </trkpt>
      <trkpt lat="48.29237" lon="-4.17477">
        <ele>64.910807</ele>
        <time>2022-12-10T11:22:24.153Z</time>
      </trkpt>
      <trkpt lat="48.29231" lon="-4.17462">
        <ele>64.991712</ele>
        <time>2022-12-10T11:22:28.170Z</time>
      </trkpt>
      <trkpt lat="48.29225" lon="-4.17448">
        <ele>65.072991</ele>
        <time>2022-12-10T11:22:32.148Z</time>
      </trkpt>
      <trkpt lat="48.29218" lon="-4.17434">
        <ele>65.153463</ele>
        <time>2022-12-10T11:22:36.163Z</time>
      </trkpt>
      <trkpt lat="48.29213" lon="-4.17421">
        <ele>65.224315</ele>
        <time>2022-12-10T11:22:40.178Z</time>
      </trkpt>
      <trkpt lat="48.29208" lon="-4.17407">
        <ele>65.300476</ele>
        <time>2022-12-10T11:22:44.170Z</time>
      </trkpt>
      <trkpt lat="48.29204" lon="-4.17394">
        <ele>65.369241</ele>
        <time>2022-12-10T11:22:48.176Z</time>
      </trkpt>
      <trkpt lat="48.29199" lon="-4.17381">
        <ele>65.438748</ele>
        <time>2022-12-10T11:22:52.161Z</time>
      </trkpt>
      <trkpt lat="48.29196" lon="-4.17368">
        <ele>65.504347</ele>
        <time>2022-12-10T11:22:56.170Z</time>
      </trkpt>
      <trkpt lat="48.29192" lon="-4.17355">
        <ele>65.60707</ele>
        <time>2022-12-10T11:23:00.157Z</time>
      </trkpt>
      <trkpt lat="48.29187" lon="-4.1734">
        <ele>65.810826</ele>
        <time>2022-12-10T11:23:05.183Z</time>
      </trkpt>
      <trkpt lat="48.29182" lon="-4.17326">
        <ele>66.002834</ele>
        <time>2022-12-10T11:23:10.174Z</time>
      </trkpt>
      <trkpt lat="48.29178" lon="-4.17312">
        <ele>66.189069</ele>
        <time>2022-12-10T11:23:15.171Z</time>
      </trkpt>
      <trkpt lat="48.29174" lon="-4.17298">
        <ele>66.378205</ele>
        <time>2022-12-10T11:23:20.171Z</time>
      </trkpt>
      <trkpt lat="48.2917" lon="-4.17284">
        <ele>66.560446</ele>
        <time>2022-12-10T11:23:25.169Z</time>
      </trkpt>
      <trkpt lat="48.29165" lon="-4.17271">
        <ele>66.736445</ele>
        <time>2022-12-10T11:23:30.169Z</time>
      </trkpt>
      <trkpt lat="48.2916" lon="-4.17258">
        <ele>66.925224</ele>
        <time>2022-12-10T11:23:35.151Z</time>
      </trkpt>
      <trkpt lat="48.29157" lon="-4.17244">
        <ele>67.10476</ele>
        <time>2022-12-10T11:23:40.160Z</time>
      </trkpt>
      <trkpt lat="48.29153" lon="-4.1723">
        <ele>67.290583</ele>
        <time>2022-12-10T11:23:45.172Z</time>
      </trkpt>
      <trkpt lat="48.29149" lon="-4.17216">
        <ele>67.468284</ele>
        <time>2022-12-10T11:23:50.172Z</time>
      </trkpt>
      <trkpt lat="48.29144" lon="-4.17203">
        <ele>67.65407</ele>
        <time>2022-12-10T11:23:55.172Z</time>
      </trkpt>
      <trkpt lat="48.2914" lon="-4.17189">
        <ele>67.835078</ele>
        <time>2022-12-10T11:24:00.158Z</time>
      </trkpt>
      <trkpt lat="48.29136" lon="-4.17176">
        <ele>68.016845</ele>
        <time>2022-12-10T11:24:05.170Z</time>
      </trkpt>
      <trkpt lat="48.29132" lon="-4.17163">
        <ele>68.186858</ele>
        <time>2022-12-10T11:24:10.173Z</time>
      </trkpt>
      <trkpt lat="48.29128" lon="-4.1715">
        <ele>68.356622</ele>
        <time>2022-12-10T11:24:15.169Z</time>
      </trkpt>
      <trkpt lat="48.29125" lon="-4.17137">
        <ele>68.531385</ele>
        <time>2022-12-10T11:24:20.152Z</time>
      </trkpt>
      <trkpt lat="48.29121" lon="-4.17124">
        <ele>68.701701</ele>
        <time>2022-12-10T11:24:25.175Z</time>
      </trkpt>
      <trkpt lat="48.29116" lon="-4.17112">
        <ele>68.93025</ele>
        <time>2022-12-10T11:24:30.171Z</time>
      </trkpt>
      <trkpt lat="48.29111" lon="-4.17098">
        <ele>69.340274</ele>
        <time>2022-12-10T11:24:36.153Z</time>
      </trkpt>
      <trkpt lat="48.29108" lon="-4.17084">
        <ele>69.759968</ele>
        <time>2022-12-10T11:24:42.157Z</time>
      </trkpt>
      <trkpt lat="48.29104" lon="-4.17069">
        <ele>70.183275</ele>
        <time>2022-12-10T11:24:48.152Z</time>
      </trkpt>
      <trkpt lat="48.29102" lon="-4.17053">
        <ele>70.613612</ele>
        <time>2022-12-10T11:24:54.166Z</time>
      </trkpt>
      <trkpt lat="48.29098" lon="-4.17039">
        <ele>71.006682</ele>
        <time>2022-12-10T11:24:59.173Z</time>
      </trkpt>
      <trkpt lat="48.29095" lon="-4.17024">
        <ele>71.413925</ele>
        <time>2022-12-10T11:25:04.171Z</time>
      </trkpt>
      <trkpt lat="48.29092" lon="-4.17009">
        <ele>71.853666</ele>
        <time>2022-12-10T11:25:09.181Z</time>
      </trkpt>
      <trkpt lat="48.29089" lon="-4.16992">
        <ele>72.299453</ele>
        <time>2022-12-10T11:25:14.164Z</time>
      </trkpt>
      <trkpt lat="48.29087" lon="-4.16977">
        <ele>72.726775</ele>
        <time>2022-12-10T11:25:19.184Z</time>
      </trkpt>
      <trkpt lat="48.29085" lon="-4.16961">
        <ele>73.153291</ele>
        <time>2022-12-10T11:25:24.172Z</time>
      </trkpt>
      <trkpt lat="48.29082" lon="-4.16946">
        <ele>73.578071</ele>
        <time>2022-12-10T11:25:29.151Z</time>
      </trkpt>
      <trkpt lat="48.2908" lon="-4.1693">
        <ele>73.98977</ele>
        <time>2022-12-10T11:25:34.175Z</time>
      </trkpt>
      <trkpt lat="48.29077" lon="-4.16915">
        <ele>74.42201</ele>
        <time>2022-12-10T11:25:39.161Z</time>
      </trkpt>
      <trkpt lat="48.29075" lon="-4.16899">
        <ele>74.850372</ele>
        <time>2022-12-10T11:25:44.172Z</time>
      </trkpt>
      <trkpt lat="48.29073" lon="-4.16884">
        <ele>75.268273</ele>
        <time>2022-12-10T11:25:49.173Z</time>
      </trkpt>
      <trkpt lat="48.29071" lon="-4.16868">
        <ele>75.699915</ele>
        <time>2022-12-10T11:25:54.175Z</time>
      </trkpt>
      <trkpt lat="48.29068" lon="-4.16853">
        <ele>76.106167</ele>
        <time>2022-12-10T11:25:59.172Z</time>
      </trkpt>
      <trkpt lat="48.29066" lon="-4.1684">
        <ele>76.509279</ele>
        <time>2022-12-10T11:26:04.175Z</time>
      </trkpt>
      <trkpt lat="48.29064" lon="-4.16827">
        <ele>76.91639</ele>
        <time>2022-12-10T11:26:09.160Z</time>
      </trkpt>
      <trkpt lat="48.29062" lon="-4.16814">
        <ele>77.315677</ele>
        <time>2022-12-10T11:26:14.163Z</time>
      </trkpt>
      <trkpt lat="48.2906" lon="-4.16799">
        <ele>77.769677</ele>
        <time>2022-12-10T11:26:20.153Z</time>
      </trkpt>
      <trkpt lat="48.29058" lon="-4.16784">
        <ele>78.208342</ele>
        <time>2022-12-10T11:26:26.154Z</time>
      </trkpt>
      <trkpt lat="48.29056" lon="-4.16769">
        <ele>78.660557</ele>
        <time>2022-12-10T11:26:32.162Z</time>
      </trkpt>
      <trkpt lat="48.29055" lon="-4.16755">
        <ele>79.079961</ele>
        <time>2022-12-10T11:26:38.151Z</time>
      </trkpt>
      <trkpt lat="48.29051" lon="-4.16741">
        <ele>79.539269</ele>
        <time>2022-12-10T11:26:44.156Z</time>
      </trkpt>
      <trkpt lat="48.29048" lon="-4.16726">
        <ele>79.984397</ele>
        <time>2022-12-10T11:26:50.168Z</time>
      </trkpt>
      <trkpt lat="48.29046" lon="-4.16711">
        <ele>80.447793</ele>
        <time>2022-12-10T11:26:56.149Z</time>
      </trkpt>
      <trkpt lat="48.29043" lon="-4.16696">
        <ele>80.886934</ele>
        <time>2022-12-10T11:27:02.173Z</time>
      </trkpt>
      <trkpt lat="48.29041" lon="-4.16682">
        <ele>81.333998</ele>
        <time>2022-12-10T11:27:08.158Z</time>
      </trkpt>
      <trkpt lat="48.29041" lon="-4.16666">
        <ele>81.790341</ele>
        <time>2022-12-10T11:27:14.169Z</time>
      </trkpt>
      <trkpt lat="48.29038" lon="-4.16652">
        <ele>82.212443</ele>
        <time>2022-12-10T11:27:20.167Z</time>
      </trkpt>
      <trkpt lat="48.29035" lon="-4.16638">
        <ele>82.672213</ele>
        <time>2022-12-10T11:27:26.164Z</time>
      </trkpt>
      <trkpt lat="48.29032" lon="-4.16624">
        <ele>83.105392</ele>
        <time>2022-12-10T11:27:32.162Z</time>
      </trkpt>
      <trkpt lat="48.2903" lon="-4.16609">
        <ele>83.55727</ele>
        <time>2022-12-10T11:27:38.156Z</time>
      </trkpt>
      <trkpt lat="48.29028" lon="-4.16594">
        <ele>84.005469</ele>
        <time>2022-12-10T11:27:44.159Z</time>
      </trkpt>
      <trkpt lat="48.29026" lon="-4.16579">
        <ele>84.575002</ele>
        <time>2022-12-10T11:27:51.158Z</time>
      </trkpt>
      <trkpt lat="48.29023" lon="-4.16564">
        <ele>85.133528</ele>
        <time>2022-12-10T11:27:58.164Z</time>
      </trkpt>
      <trkpt lat="48.2902" lon="-4.16549">
        <ele>85.680764</ele>
        <time>2022-12-10T11:28:04.149Z</time>
      </trkpt>
      <trkpt lat="48.29018" lon="-4.16536">
        <ele>86.185492</ele>
        <time>2022-12-10T11:28:10.151Z</time>
      </trkpt>
      <trkpt lat="48.29017" lon="-4.16521">
        <ele>86.743013</ele>
        <time>2022-12-10T11:28:17.152Z</time>
      </trkpt>
      <trkpt lat="48.29013" lon="-4.16507">
        <ele>87.306252</ele>
        <time>2022-12-10T11:28:23.162Z</time>
      </trkpt>
      <trkpt lat="48.2901" lon="-4.16492">
        <ele>87.854702</ele>
        <time>2022-12-10T11:28:29.161Z</time>
      </trkpt>
      <trkpt lat="48.29007" lon="-4.16479">
        <ele>88.375433</ele>
        <time>2022-12-10T11:28:35.173Z</time>
      </trkpt>
      <trkpt lat="48.29004" lon="-4.16465">
        <ele>88.913664</ele>
        <time>2022-12-10T11:28:41.151Z</time>
      </trkpt>
      <trkpt lat="48.29002" lon="-4.1645">
        <ele>89.449602</ele>
        <time>2022-12-10T11:28:47.155Z</time>
      </trkpt>
      <trkpt lat="48.29" lon="-4.16435">
        <ele>90.001966</ele>
        <time>2022-12-10T11:28:53.158Z</time>
      </trkpt>
      <trkpt lat="48.28998" lon="-4.16422">
        <ele>90.528649</ele>
        <time>2022-12-10T11:28:59.156Z</time>
      </trkpt>
      <trkpt lat="48.28995" lon="-4.16407">
        <ele>91.071647</ele>
        <time>2022-12-10T11:29:05.161Z</time>
      </trkpt>
      <trkpt lat="48.28993" lon="-4.16393">
        <ele>91.601306</ele>
        <time>2022-12-10T11:29:11.155Z</time>
      </trkpt>
      <trkpt lat="48.28989" lon="-4.16379">
        <ele>92.139579</ele>
        <time>2022-12-10T11:29:17.156Z</time>
      </trkpt>
      <trkpt lat="48.28986" lon="-4.16366">
        <ele>92.658794</ele>
        <time>2022-12-10T11:29:23.154Z</time>
      </trkpt>
      <trkpt lat="48.28981" lon="-4.16352">
        <ele>93.221837</ele>
        <time>2022-12-10T11:29:29.163Z</time>
      </trkpt>
      <trkpt lat="48.28976" lon="-4.1634">
        <ele>93.733554</ele>
        <time>2022-12-10T11:29:35.170Z</time>
      </trkpt>
      <trkpt lat="48.28972" lon="-4.16328">
        <ele>94.255886</ele>
        <time>2022-12-10T11:29:41.161Z</time>
      </trkpt>
      <trkpt lat="48.28967" lon="-4.16315">
        <ele>94.817005</ele>
        <time>2022-12-10T11:29:47.157Z</time>
      </trkpt>
      <trkpt lat="48.28961" lon="-4.16303">
        <ele>95.365229</ele>
        <time>2022-12-10T11:29:53.151Z</time>
      </trkpt>
      <trkpt lat="48.28956" lon="-4.1629">
        <ele>95.940916</ele>
        <time>2022-12-10T11:29:59.156Z</time>
      </trkpt>
      <trkpt lat="48.2895" lon="-4.16277">
        <ele>96.532884</ele>
        <time>2022-12-10T11:30:05.156Z</time>
      </trkpt>
      <trkpt lat="48.28944" lon="-4.16267">
        <ele>97.048626</ele>
        <time>2022-12-10T11:30:10.159Z</time>
      </trkpt>
      <trkpt lat="48.28937" lon="-4.16256">
        <ele>97.580752</ele>
        <time>2022-12-10T11:30:15.154Z</time>
      </trkpt>
      <trkpt lat="48.28931" lon="-4.16245">
        <ele>98.152886</ele>
        <time>2022-12-10T11:30:20.169Z</time>
      </trkpt>
      <trkpt lat="48.28923" lon="-4.16235">
        <ele>98.71524</ele>
        <time>2022-12-10T11:30:25.185Z</time>
      </trkpt>
      <trkpt lat="48.28915" lon="-4.16224">
        <ele>99.302616</ele>
        <time>2022-12-10T11:30:30.173Z</time>
      </trkpt>
      <trkpt lat="48.28907" lon="-4.16216">
        <ele>99.840229</ele>
        <time>2022-12-10T11:30:35.154Z</time>
      </trkpt>
      <trkpt lat="48.289" lon="-4.16207">
        <ele>100.388071</ele>
        <time>2022-12-10T11:30:40.165Z</time>
      </trkpt>
      <trkpt lat="48.28892" lon="-4.162">
        <ele>100.914873</ele>
        <time>2022-12-10T11:30:45.163Z</time>
      </trkpt>
      <trkpt lat="48.28884" lon="-4.16191">
        <ele>101.469713</ele>
        <time>2022-12-10T11:30:50.170Z</time>
      </trkpt>
      <trkpt lat="48.28876" lon="-4.16183">
        <ele>102.004322</ele>
        <time>2022-12-10T11:30:55.155Z</time>
      </trkpt>
      <trkpt lat="48.28868" lon="-4.16175">
        <ele>102.51411</ele>
        <time>2022-12-10T11:31:00.161Z</time>
      </trkpt>
      <trkpt lat="48.2886" lon="-4.16168">
        <ele>103.041918</ele>
        <time>2022-12-10T11:31:05.173Z</time>
      </trkpt>
      <trkpt lat="48.28853" lon="-4.1616">
        <ele>103.560781</ele>
        <time>2022-12-10T11:31:10.169Z</time>
      </trkpt>
      <trkpt lat="48.28845" lon="-4.16151">
        <ele>104.049026</ele>
        <time>2022-12-10T11:31:15.153Z</time>
      </trkpt>
      <trkpt lat="48.28837" lon="-4.16141">
        <ele>104.305363</ele>
        <time>2022-12-10T11:31:20.168Z</time>
      </trkpt>
      <trkpt lat="48.2883" lon="-4.1613">
        <ele>104.560941</ele>
        <time>2022-12-10T11:31:25.160Z</time>
      </trkpt>
      <trkpt lat="48.28823" lon="-4.16119">
        <ele>104.80572</ele>
        <time>2022-12-10T11:31:30.171Z</time>
      </trkpt>
      <trkpt lat="48.28816" lon="-4.16106">
        <ele>105.075953</ele>
        <time>2022-12-10T11:31:35.158Z</time>
      </trkpt>
      <trkpt lat="48.28811" lon="-4.16093">
        <ele>105.334623</ele>
        <time>2022-12-10T11:31:40.173Z</time>
      </trkpt>
      <trkpt lat="48.28805" lon="-4.1608">
        <ele>105.592007</ele>
        <time>2022-12-10T11:31:45.150Z</time>
      </trkpt>
      <trkpt lat="48.28801" lon="-4.16067">
        <ele>105.830101</ele>
        <time>2022-12-10T11:31:50.171Z</time>
      </trkpt>
      <trkpt lat="48.28796" lon="-4.16054">
        <ele>106.089532</ele>
        <time>2022-12-10T11:31:56.153Z</time>
      </trkpt>
      <trkpt lat="48.28792" lon="-4.16041">
        <ele>106.315145</ele>
        <time>2022-12-10T11:32:01.156Z</time>
      </trkpt>
      <trkpt lat="48.28788" lon="-4.16027">
        <ele>106.58002</ele>
        <time>2022-12-10T11:32:07.150Z</time>
      </trkpt>
      <trkpt lat="48.28783" lon="-4.16015">
        <ele>106.805769</ele>
        <time>2022-12-10T11:32:12.157Z</time>
      </trkpt>
      <trkpt lat="48.28778" lon="-4.16001">
        <ele>107.059743</ele>
        <time>2022-12-10T11:32:18.152Z</time>
      </trkpt>
      <trkpt lat="48.28774" lon="-4.15988">
        <ele>107.308582</ele>
        <time>2022-12-10T11:32:24.157Z</time>
      </trkpt>
      <trkpt lat="48.28769" lon="-4.15974">
        <ele>107.566253</ele>
        <time>2022-12-10T11:32:30.165Z</time>
      </trkpt>
      <trkpt lat="48.28765" lon="-4.1596">
        <ele>107.822066</ele>
        <time>2022-12-10T11:32:36.164Z</time>
      </trkpt>
      <trkpt lat="48.28761" lon="-4.15945">
        <ele>108.08548</ele>
        <time>2022-12-10T11:32:42.165Z</time>
      </trkpt>
      <trkpt lat="48.28757" lon="-4.15931">
        <ele>108.34094</ele>
        <time>2022-12-10T11:32:48.155Z</time>
      </trkpt>
      <trkpt lat="48.28752" lon="-4.15917">
        <ele>108.55548</ele>
        <time>2022-12-10T11:32:54.148Z</time>
      </trkpt>
      <trkpt lat="48.28747" lon="-4.15903">
        <ele>108.716281</ele>
        <time>2022-12-10T11:32:59.158Z</time>
      </trkpt>
      <trkpt lat="48.28742" lon="-4.15889">
        <ele>108.883997</ele>
        <time>2022-12-10T11:33:04.185Z</time>
      </trkpt>
      <trkpt lat="48.28738" lon="-4.15874">
        <ele>109.053501</ele>
        <time>2022-12-10T11:33:10.155Z</time>
      </trkpt>
      <trkpt lat="48.28732" lon="-4.15861">
        <ele>109.214923</ele>
        <time>2022-12-10T11:33:15.157Z</time>
      </trkpt>
      <trkpt lat="48.28728" lon="-4.15845">
        <ele>109.390485</ele>
        <time>2022-12-10T11:33:20.173Z</time>
      </trkpt>
      <trkpt lat="48.28725" lon="-4.15833">
        <ele>109.533052</ele>
        <time>2022-12-10T11:33:24.181Z</time>
      </trkpt>
      <trkpt lat="48.2872" lon="-4.15819">
        <ele>109.688886</ele>
        <time>2022-12-10T11:33:29.163Z</time>
      </trkpt>
      <trkpt lat="48.28717" lon="-4.15806">
        <ele>109.833543</ele>
        <time>2022-12-10T11:33:33.165Z</time>
      </trkpt>
      <trkpt lat="48.28713" lon="-4.15793">
        <ele>109.984261</ele>
        <time>2022-12-10T11:33:37.173Z</time>
      </trkpt>
      <trkpt lat="48.28708" lon="-4.15779">
        <ele>110.14325</ele>
        <time>2022-12-10T11:33:42.175Z</time>
      </trkpt>
      <trkpt lat="48.28704" lon="-4.15765">
        <ele>110.315677</ele>
        <time>2022-12-10T11:33:47.173Z</time>
      </trkpt>
      <trkpt lat="48.28699" lon="-4.15752">
        <ele>110.464474</ele>
        <time>2022-12-10T11:33:51.172Z</time>
      </trkpt>
      <trkpt lat="48.28695" lon="-4.15738">
        <ele>110.627304</ele>
        <time>2022-12-10T11:33:56.187Z</time>
      </trkpt>
      <trkpt lat="48.28691" lon="-4.15725">
        <ele>110.771045</ele>
        <time>2022-12-10T11:34:00.153Z</time>
      </trkpt>
      <trkpt lat="48.28686" lon="-4.1571">
        <ele>110.94835</ele>
        <time>2022-12-10T11:34:05.169Z</time>
      </trkpt>
      <trkpt lat="48.28682" lon="-4.15698">
        <ele>111.097148</ele>
        <time>2022-12-10T11:34:09.168Z</time>
      </trkpt>
      <trkpt lat="48.28678" lon="-4.15685">
        <ele>111.245696</ele>
        <time>2022-12-10T11:34:13.163Z</time>
      </trkpt>
      <trkpt lat="48.28673" lon="-4.15673">
        <ele>111.450213</ele>
        <time>2022-12-10T11:34:17.165Z</time>
      </trkpt>
      <trkpt lat="48.28668" lon="-4.15658">
        <ele>111.733391</ele>
        <time>2022-12-10T11:34:22.183Z</time>
      </trkpt>
      <trkpt lat="48.28663" lon="-4.15643">
        <ele>112.010366</ele>
        <time>2022-12-10T11:34:27.177Z</time>
      </trkpt>
      <trkpt lat="48.28657" lon="-4.15631">
        <ele>112.260667</ele>
        <time>2022-12-10T11:34:32.179Z</time>
      </trkpt>
      <trkpt lat="48.28652" lon="-4.15618">
        <ele>112.520462</ele>
        <time>2022-12-10T11:34:37.176Z</time>
      </trkpt>
      <trkpt lat="48.28645" lon="-4.15605">
        <ele>112.790422</ele>
        <time>2022-12-10T11:34:42.172Z</time>
      </trkpt>
      <trkpt lat="48.28639" lon="-4.15593">
        <ele>113.040044</ele>
        <time>2022-12-10T11:34:47.165Z</time>
      </trkpt>
      <trkpt lat="48.28632" lon="-4.1558">
        <ele>113.317723</ele>
        <time>2022-12-10T11:34:52.153Z</time>
      </trkpt>
      <trkpt lat="48.28626" lon="-4.15569">
        <ele>113.56604</ele>
        <time>2022-12-10T11:34:57.173Z</time>
      </trkpt>
      <trkpt lat="48.2862" lon="-4.15557">
        <ele>113.811942</ele>
        <time>2022-12-10T11:35:02.175Z</time>
      </trkpt>
      <trkpt lat="48.28615" lon="-4.15546">
        <ele>114.040891</ele>
        <time>2022-12-10T11:35:07.160Z</time>
      </trkpt>
      <trkpt lat="48.28609" lon="-4.15534">
        <ele>114.300958</ele>
        <time>2022-12-10T11:35:13.155Z</time>
      </trkpt>
      <trkpt lat="48.28603" lon="-4.15521">
        <ele>114.553777</ele>
        <time>2022-12-10T11:35:19.162Z</time>
      </trkpt>
      <trkpt lat="48.28598" lon="-4.15508">
        <ele>114.811313</ele>
        <time>2022-12-10T11:35:25.161Z</time>
      </trkpt>
      <trkpt lat="48.28592" lon="-4.15495">
        <ele>115.077077</ele>
        <time>2022-12-10T11:35:31.161Z</time>
      </trkpt>
      <trkpt lat="48.28586" lon="-4.15482">
        <ele>115.343976</ele>
        <time>2022-12-10T11:35:37.165Z</time>
      </trkpt>
      <trkpt lat="48.2858" lon="-4.15469">
        <ele>115.607963</ele>
        <time>2022-12-10T11:35:43.150Z</time>
      </trkpt>
      <trkpt lat="48.28575" lon="-4.15455">
        <ele>115.895559</ele>
        <time>2022-12-10T11:35:49.162Z</time>
      </trkpt>
      <trkpt lat="48.28569" lon="-4.15443">
        <ele>116.331744</ele>
        <time>2022-12-10T11:35:55.167Z</time>
      </trkpt>
      <trkpt lat="48.28564" lon="-4.1543">
        <ele>116.764156</ele>
        <time>2022-12-10T11:36:01.158Z</time>
      </trkpt>
      <trkpt lat="48.28561" lon="-4.15416">
        <ele>117.183118</ele>
        <time>2022-12-10T11:36:07.166Z</time>
      </trkpt>
      <trkpt lat="48.28558" lon="-4.15404">
        <ele>117.575615</ele>
        <time>2022-12-10T11:36:12.160Z</time>
      </trkpt>
      <trkpt lat="48.28554" lon="-4.1539">
        <ele>118.019671</ele>
        <time>2022-12-10T11:36:18.172Z</time>
      </trkpt>
      <trkpt lat="48.28551" lon="-4.15375">
        <ele>118.449567</ele>
        <time>2022-12-10T11:36:24.157Z</time>
      </trkpt>
      <trkpt lat="48.28548" lon="-4.1536">
        <ele>118.90603</ele>
        <time>2022-12-10T11:36:30.155Z</time>
      </trkpt>
      <trkpt lat="48.28546" lon="-4.15345">
        <ele>119.350798</ele>
        <time>2022-12-10T11:36:36.174Z</time>
      </trkpt>
      <trkpt lat="48.28544" lon="-4.1533">
        <ele>119.78405</ele>
        <time>2022-12-10T11:36:42.159Z</time>
      </trkpt>
      <trkpt lat="48.28543" lon="-4.15317">
        <ele>120.189715</ele>
        <time>2022-12-10T11:36:47.154Z</time>
      </trkpt>
      <trkpt lat="48.28543" lon="-4.15303">
        <ele>120.586815</ele>
        <time>2022-12-10T11:36:52.163Z</time>
      </trkpt>
      <trkpt lat="48.28544" lon="-4.15288">
        <ele>121.021141</ele>
        <time>2022-12-10T11:36:58.177Z</time>
      </trkpt>
      <trkpt lat="48.28544" lon="-4.15273">
        <ele>121.463953</ele>
        <time>2022-12-10T11:37:04.162Z</time>
      </trkpt>
      <trkpt lat="48.28545" lon="-4.15258">
        <ele>121.897834</ele>
        <time>2022-12-10T11:37:10.174Z</time>
      </trkpt>
      <trkpt lat="48.28547" lon="-4.15242">
        <ele>122.356066</ele>
        <time>2022-12-10T11:37:16.154Z</time>
      </trkpt>
      <trkpt lat="48.28548" lon="-4.15227">
        <ele>122.792306</ele>
        <time>2022-12-10T11:37:22.174Z</time>
      </trkpt>
      <trkpt lat="48.2855" lon="-4.15213">
        <ele>123.220023</ele>
        <time>2022-12-10T11:37:28.163Z</time>
      </trkpt>
      <trkpt lat="48.28552" lon="-4.15197">
        <ele>123.682126</ele>
        <time>2022-12-10T11:37:34.160Z</time>
      </trkpt>
      <trkpt lat="48.28555" lon="-4.15182">
        <ele>124.182245</ele>
        <time>2022-12-10T11:37:40.153Z</time>
      </trkpt>
      <trkpt lat="48.2856" lon="-4.15169">
        <ele>124.668542</ele>
        <time>2022-12-10T11:37:46.166Z</time>
      </trkpt>
      <trkpt lat="48.28565" lon="-4.15154">
        <ele>125.180683</ele>
        <time>2022-12-10T11:37:52.169Z</time>
      </trkpt>
      <trkpt lat="48.28569" lon="-4.15141">
        <ele>125.653372</ele>
        <time>2022-12-10T11:37:58.152Z</time>
      </trkpt>
      <trkpt lat="48.28572" lon="-4.15127">
        <ele>126.128904</ele>
        <time>2022-12-10T11:38:04.158Z</time>
      </trkpt>
      <trkpt lat="48.28575" lon="-4.15114">
        <ele>126.586149</ele>
        <time>2022-12-10T11:38:10.183Z</time>
      </trkpt>
      <trkpt lat="48.2858" lon="-4.15101">
        <ele>127.072084</ele>
        <time>2022-12-10T11:38:16.164Z</time>
      </trkpt>
      <trkpt lat="48.28587" lon="-4.15088">
        <ele>127.5796</ele>
        <time>2022-12-10T11:38:22.157Z</time>
      </trkpt>
      <trkpt lat="48.28589" lon="-4.15074">
        <ele>128.039087</ele>
        <time>2022-12-10T11:38:28.148Z</time>
      </trkpt>
      <trkpt lat="48.2859" lon="-4.1506">
        <ele>128.499422</ele>
        <time>2022-12-10T11:38:34.155Z</time>
      </trkpt>
      <trkpt lat="48.28592" lon="-4.15044">
        <ele>129.001684</ele>
        <time>2022-12-10T11:38:40.163Z</time>
      </trkpt>
      <trkpt lat="48.28595" lon="-4.1503">
        <ele>129.487854</ele>
        <time>2022-12-10T11:38:46.165Z</time>
      </trkpt>
      <trkpt lat="48.28596" lon="-4.15014">
        <ele>129.983025</ele>
        <time>2022-12-10T11:38:52.184Z</time>
      </trkpt>
      <trkpt lat="48.28598" lon="-4.15">
        <ele>130.46164</ele>
        <time>2022-12-10T11:38:58.154Z</time>
      </trkpt>
      <trkpt lat="48.28598" lon="-4.14984">
        <ele>130.948893</ele>
        <time>2022-12-10T11:39:04.158Z</time>
      </trkpt>
      <trkpt lat="48.28599" lon="-4.1497">
        <ele>131.418342</ele>
        <time>2022-12-10T11:39:10.149Z</time>
      </trkpt>
      <trkpt lat="48.286" lon="-4.14955">
        <ele>131.908415</ele>
        <time>2022-12-10T11:39:16.161Z</time>
      </trkpt>
      <trkpt lat="48.28599" lon="-4.14939">
        <ele>132.401593</ele>
        <time>2022-12-10T11:39:22.167Z</time>
      </trkpt>
      <trkpt lat="48.28598" lon="-4.14924">
        <ele>132.796534</ele>
        <time>2022-12-10T11:39:28.155Z</time>
      </trkpt>
      <trkpt lat="48.28597" lon="-4.14909">
        <ele>133.183917</ele>
        <time>2022-12-10T11:39:34.163Z</time>
      </trkpt>
      <trkpt lat="48.28596" lon="-4.14894">
        <ele>133.576546</ele>
        <time>2022-12-10T11:39:40.154Z</time>
      </trkpt>
      <trkpt lat="48.28592" lon="-4.14879">
        <ele>133.997726</ele>
        <time>2022-12-10T11:39:46.171Z</time>
      </trkpt>
      <trkpt lat="48.2859" lon="-4.14864">
        <ele>134.408968</ele>
        <time>2022-12-10T11:39:52.170Z</time>
      </trkpt>
      <trkpt lat="48.28586" lon="-4.14849">
        <ele>134.806502</ele>
        <time>2022-12-10T11:39:58.169Z</time>
      </trkpt>
      <trkpt lat="48.28582" lon="-4.14835">
        <ele>135.223453</ele>
        <time>2022-12-10T11:40:04.163Z</time>
      </trkpt>
      <trkpt lat="48.28577" lon="-4.14821">
        <ele>135.637707</ele>
        <time>2022-12-10T11:40:10.161Z</time>
      </trkpt>
      <trkpt lat="48.28573" lon="-4.14807">
        <ele>136.039625</ele>
        <time>2022-12-10T11:40:16.153Z</time>
      </trkpt>
      <trkpt lat="48.28568" lon="-4.14794">
        <ele>136.44583</ele>
        <time>2022-12-10T11:40:22.156Z</time>
      </trkpt>
      <trkpt lat="48.28562" lon="-4.14781">
        <ele>136.83957</ele>
        <time>2022-12-10T11:40:28.155Z</time>
      </trkpt>
      <trkpt lat="48.28557" lon="-4.14768">
        <ele>137.246287</ele>
        <time>2022-12-10T11:40:34.161Z</time>
      </trkpt>
      <trkpt lat="48.2855" lon="-4.14756">
        <ele>137.660242</ele>
        <time>2022-12-10T11:40:40.159Z</time>
      </trkpt>
      <trkpt lat="48.28544" lon="-4.14743">
        <ele>138.07001</ele>
        <time>2022-12-10T11:40:46.163Z</time>
      </trkpt>
      <trkpt lat="48.28538" lon="-4.14733">
        <ele>138.435537</ele>
        <time>2022-12-10T11:40:51.163Z</time>
      </trkpt>
      <trkpt lat="48.28531" lon="-4.14722">
        <ele>138.838045</ele>
        <time>2022-12-10T11:40:57.157Z</time>
      </trkpt>
      <trkpt lat="48.28524" lon="-4.1471">
        <ele>139.253254</ele>
        <time>2022-12-10T11:41:03.183Z</time>
      </trkpt>
      <trkpt lat="48.28517" lon="-4.14699">
        <ele>139.725009</ele>
        <time>2022-12-10T11:41:09.151Z</time>
      </trkpt>
      <trkpt lat="48.2851" lon="-4.14687">
        <ele>140.225653</ele>
        <time>2022-12-10T11:41:15.167Z</time>
      </trkpt>
      <trkpt lat="48.28503" lon="-4.14676">
        <ele>140.715018</ele>
        <time>2022-12-10T11:41:21.173Z</time>
      </trkpt>
      <trkpt lat="48.28496" lon="-4.14665">
        <ele>141.226007</ele>
        <time>2022-12-10T11:41:27.166Z</time>
      </trkpt>
      <trkpt lat="48.28488" lon="-4.14654">
        <ele>141.73583</ele>
        <time>2022-12-10T11:41:33.169Z</time>
      </trkpt>
      <trkpt lat="48.28481" lon="-4.14643">
        <ele>142.242183</ele>
        <time>2022-12-10T11:41:39.163Z</time>
      </trkpt>
      <trkpt lat="48.28474" lon="-4.14632">
        <ele>142.73939</ele>
        <time>2022-12-10T11:41:45.171Z</time>
      </trkpt>
      <trkpt lat="48.28467" lon="-4.1462">
        <ele>143.263742</ele>
        <time>2022-12-10T11:41:51.164Z</time>
      </trkpt>
      <trkpt lat="48.2846" lon="-4.14607">
        <ele>143.783836</ele>
        <time>2022-12-10T11:41:57.163Z</time>
      </trkpt>
      <trkpt lat="48.28456" lon="-4.14595">
        <ele>144.237342</ele>
        <time>2022-12-10T11:42:02.165Z</time>
      </trkpt>
      <trkpt lat="48.28452" lon="-4.14583">
        <ele>144.678702</ele>
        <time>2022-12-10T11:42:07.185Z</time>
      </trkpt>
      <trkpt lat="48.28447" lon="-4.14571">
        <ele>145.136735</ele>
        <time>2022-12-10T11:42:12.163Z</time>
      </trkpt>
      <trkpt lat="48.28444" lon="-4.14558">
        <ele>145.580823</ele>
        <time>2022-12-10T11:42:17.165Z</time>
      </trkpt>
      <trkpt lat="48.2844" lon="-4.14544">
        <ele>146.074383</ele>
        <time>2022-12-10T11:42:23.162Z</time>
      </trkpt>
      <trkpt lat="48.28438" lon="-4.14529">
        <ele>146.578391</ele>
        <time>2022-12-10T11:42:29.155Z</time>
      </trkpt>
      <trkpt lat="48.28434" lon="-4.14515">
        <ele>147.076722</ele>
        <time>2022-12-10T11:42:35.155Z</time>
      </trkpt>
      <trkpt lat="48.28431" lon="-4.14499">
        <ele>147.598948</ele>
        <time>2022-12-10T11:42:41.164Z</time>
      </trkpt>
      <trkpt lat="48.28428" lon="-4.14484">
        <ele>148.123741</ele>
        <time>2022-12-10T11:42:47.167Z</time>
      </trkpt>
      <trkpt lat="48.28425" lon="-4.14469">
        <ele>148.550564</ele>
        <time>2022-12-10T11:42:53.163Z</time>
      </trkpt>
      <trkpt lat="48.28423" lon="-4.14456">
        <ele>148.913262</ele>
        <time>2022-12-10T11:42:58.161Z</time>
      </trkpt>
      <trkpt lat="48.2842" lon="-4.14441">
        <ele>149.298079</ele>
        <time>2022-12-10T11:43:03.161Z</time>
      </trkpt>
      <trkpt lat="48.28418" lon="-4.14426">
        <ele>149.70403</ele>
        <time>2022-12-10T11:43:08.186Z</time>
      </trkpt>
      <trkpt lat="48.28415" lon="-4.14412">
        <ele>150.086934</ele>
        <time>2022-12-10T11:43:13.173Z</time>
      </trkpt>
      <trkpt lat="48.28414" lon="-4.14396">
        <ele>150.493545</ele>
        <time>2022-12-10T11:43:18.176Z</time>
      </trkpt>
      <trkpt lat="48.28412" lon="-4.14381">
        <ele>150.896646</ele>
        <time>2022-12-10T11:43:23.187Z</time>
      </trkpt>
      <trkpt lat="48.28412" lon="-4.14367">
        <ele>151.251391</ele>
        <time>2022-12-10T11:43:28.182Z</time>
      </trkpt>
      <trkpt lat="48.28412" lon="-4.14353">
        <ele>151.623599</ele>
        <time>2022-12-10T11:43:33.151Z</time>
      </trkpt>
      <trkpt lat="48.28412" lon="-4.14338">
        <ele>152.006376</ele>
        <time>2022-12-10T11:43:38.183Z</time>
      </trkpt>
      <trkpt lat="48.28412" lon="-4.14324">
        <ele>152.394672</ele>
        <time>2022-12-10T11:43:43.163Z</time>
      </trkpt>
      <trkpt lat="48.28413" lon="-4.14308">
        <ele>152.790029</ele>
        <time>2022-12-10T11:43:48.156Z</time>
      </trkpt>
      <trkpt lat="48.28414" lon="-4.14293">
        <ele>153.196169</ele>
        <time>2022-12-10T11:43:53.161Z</time>
      </trkpt>
      <trkpt lat="48.28414" lon="-4.14278">
        <ele>153.581548</ele>
        <time>2022-12-10T11:43:58.168Z</time>
      </trkpt>
      <trkpt lat="48.28416" lon="-4.14263">
        <ele>153.985937</ele>
        <time>2022-12-10T11:44:03.181Z</time>
      </trkpt>
      <trkpt lat="48.28418" lon="-4.14248">
        <ele>154.379882</ele>
        <time>2022-12-10T11:44:08.165Z</time>
      </trkpt>
      <trkpt lat="48.2842" lon="-4.14233">
        <ele>154.770514</ele>
        <time>2022-12-10T11:44:13.184Z</time>
      </trkpt>
      <trkpt lat="48.28422" lon="-4.14219">
        <ele>155.158479</ele>
        <time>2022-12-10T11:44:18.184Z</time>
      </trkpt>
      <trkpt lat="48.28426" lon="-4.14205">
        <ele>155.571958</ele>
        <time>2022-12-10T11:44:23.183Z</time>
      </trkpt>
      <trkpt lat="48.28428" lon="-4.1419">
        <ele>156.003299</ele>
        <time>2022-12-10T11:44:28.175Z</time>
      </trkpt>
      <trkpt lat="48.2843" lon="-4.14175">
        <ele>156.452447</ele>
        <time>2022-12-10T11:44:33.193Z</time>
      </trkpt>
      <trkpt lat="48.28433" lon="-4.14161">
        <ele>156.852701</ele>
        <time>2022-12-10T11:44:37.157Z</time>
      </trkpt>
      <trkpt lat="48.28436" lon="-4.14148">
        <ele>157.259239</ele>
        <time>2022-12-10T11:44:41.174Z</time>
      </trkpt>
      <trkpt lat="48.28439" lon="-4.14135">
        <ele>157.647271</ele>
        <time>2022-12-10T11:44:45.185Z</time>
      </trkpt>
      <trkpt lat="48.28442" lon="-4.14121">
        <ele>158.076361</ele>
        <time>2022-12-10T11:44:50.182Z</time>
      </trkpt>
      <trkpt lat="48.28445" lon="-4.14106">
        <ele>158.520327</ele>
        <time>2022-12-10T11:44:55.185Z</time>
      </trkpt>
      <trkpt lat="48.28448" lon="-4.14091">
        <ele>158.95974</ele>
        <time>2022-12-10T11:45:00.169Z</time>
      </trkpt>
      <trkpt lat="48.28452" lon="-4.14077">
        <ele>159.384447</ele>
        <time>2022-12-10T11:45:05.160Z</time>
      </trkpt>
      <trkpt lat="48.28454" lon="-4.14063">
        <ele>159.801406</ele>
        <time>2022-12-10T11:45:10.178Z</time>
      </trkpt>
      <trkpt lat="48.28458" lon="-4.14049">
        <ele>160.2276</ele>
        <time>2022-12-10T11:45:15.163Z</time>
      </trkpt>
      <trkpt lat="48.2846" lon="-4.14036">
        <ele>160.613229</ele>
        <time>2022-12-10T11:45:20.163Z</time>
      </trkpt>
      <trkpt lat="48.28462" lon="-4.14021">
        <ele>161.052468</ele>
        <time>2022-12-10T11:45:26.168Z</time>
      </trkpt>
      <trkpt lat="48.28463" lon="-4.14005">
        <ele>161.500502</ele>
        <time>2022-12-10T11:45:32.163Z</time>
      </trkpt>
      <trkpt lat="48.28464" lon="-4.13991">
        <ele>161.89941</ele>
        <time>2022-12-10T11:45:37.165Z</time>
      </trkpt>
      <trkpt lat="48.28465" lon="-4.13975">
        <ele>162.361249</ele>
        <time>2022-12-10T11:45:43.165Z</time>
      </trkpt>
      <trkpt lat="48.28465" lon="-4.13959">
        <ele>162.811531</ele>
        <time>2022-12-10T11:45:50.176Z</time>
      </trkpt>
      <trkpt lat="48.28464" lon="-4.13945">
        <ele>163.165698</ele>
        <time>2022-12-10T11:45:56.178Z</time>
      </trkpt>
      <trkpt lat="48.28464" lon="-4.13931">
        <ele>163.465697</ele>
        <time>2022-12-10T11:46:01.170Z</time>
      </trkpt>
      <trkpt lat="48.28463" lon="-4.13917">
        <ele>163.768151</ele>
        <time>2022-12-10T11:46:06.162Z</time>
      </trkpt>
      <trkpt lat="48.28462" lon="-4.13903">
        <ele>164.065993</ele>
        <time>2022-12-10T11:46:11.164Z</time>
      </trkpt>
      <trkpt lat="48.28461" lon="-4.13888">
        <ele>164.399639</ele>
        <time>2022-12-10T11:46:17.153Z</time>
      </trkpt>
      <trkpt lat="48.28459" lon="-4.13872">
        <ele>164.749494</ele>
        <time>2022-12-10T11:46:23.164Z</time>
      </trkpt>
      <trkpt lat="48.28457" lon="-4.13857">
        <ele>165.072083</ele>
        <time>2022-12-10T11:46:28.182Z</time>
      </trkpt>
      <trkpt lat="48.28456" lon="-4.13842">
        <ele>165.416486</ele>
        <time>2022-12-10T11:46:34.163Z</time>
      </trkpt>
      <trkpt lat="48.28455" lon="-4.13828">
        <ele>165.717894</ele>
        <time>2022-12-10T11:46:39.163Z</time>
      </trkpt>
      <trkpt lat="48.28453" lon="-4.13813">
        <ele>166.050711</ele>
        <time>2022-12-10T11:46:44.184Z</time>
      </trkpt>
      <trkpt lat="48.28451" lon="-4.13799">
        <ele>166.35803</ele>
        <time>2022-12-10T11:46:49.184Z</time>
      </trkpt>
      <trkpt lat="48.2845" lon="-4.13783">
        <ele>166.692501</ele>
        <time>2022-12-10T11:46:54.183Z</time>
      </trkpt>
      <trkpt lat="48.28448" lon="-4.13767">
        <ele>167.045888</ele>
        <time>2022-12-10T11:47:00.165Z</time>
      </trkpt>
      <trkpt lat="48.28446" lon="-4.13753">
        <ele>167.368071</ele>
        <time>2022-12-10T11:47:05.181Z</time>
      </trkpt>
      <trkpt lat="48.28444" lon="-4.13737">
        <ele>167.710059</ele>
        <time>2022-12-10T11:47:10.157Z</time>
      </trkpt>
      <trkpt lat="48.28443" lon="-4.13722">
        <ele>168.041955</ele>
        <time>2022-12-10T11:47:15.168Z</time>
      </trkpt>
      <trkpt lat="48.2844" lon="-4.13708">
        <ele>168.368938</ele>
        <time>2022-12-10T11:47:20.181Z</time>
      </trkpt>
      <trkpt lat="48.28438" lon="-4.13693">
        <ele>168.700907</ele>
        <time>2022-12-10T11:47:25.189Z</time>
      </trkpt>
      <trkpt lat="48.28435" lon="-4.13678">
        <ele>169.044357</ele>
        <time>2022-12-10T11:47:30.185Z</time>
      </trkpt>
      <trkpt lat="48.28433" lon="-4.13663">
        <ele>169.400846</ele>
        <time>2022-12-10T11:47:36.164Z</time>
      </trkpt>
      <trkpt lat="48.28432" lon="-4.13646">
        <ele>169.782679</ele>
        <time>2022-12-10T11:47:42.163Z</time>
      </trkpt>
      <trkpt lat="48.2843" lon="-4.13632">
        <ele>170.114413</ele>
        <time>2022-12-10T11:47:47.184Z</time>
      </trkpt>
      <trkpt lat="48.28429" lon="-4.13617">
        <ele>170.473148</ele>
        <time>2022-12-10T11:47:53.160Z</time>
      </trkpt>
      <trkpt lat="48.28427" lon="-4.13603">
        <ele>170.802021</ele>
        <time>2022-12-10T11:47:58.186Z</time>
      </trkpt>
      <trkpt lat="48.28425" lon="-4.13588">
        <ele>171.151728</ele>
        <time>2022-12-10T11:48:03.187Z</time>
      </trkpt>
      <trkpt lat="48.28423" lon="-4.13573">
        <ele>171.496526</ele>
        <time>2022-12-10T11:48:08.190Z</time>
      </trkpt>
      <trkpt lat="48.28422" lon="-4.13559">
        <ele>171.825481</ele>
        <time>2022-12-10T11:48:13.179Z</time>
      </trkpt>
      <trkpt lat="48.28421" lon="-4.13544">
        <ele>172.18287</ele>
        <time>2022-12-10T11:48:18.179Z</time>
      </trkpt>
      <trkpt lat="48.28419" lon="-4.13528">
        <ele>172.552201</ele>
        <time>2022-12-10T11:48:23.179Z</time>
      </trkpt>
      <trkpt lat="48.28418" lon="-4.13513">
        <ele>172.901774</ele>
        <time>2022-12-10T11:48:29.166Z</time>
      </trkpt>
      <trkpt lat="48.28417" lon="-4.13499">
        <ele>173.238081</ele>
        <time>2022-12-10T11:48:34.184Z</time>
      </trkpt>
      <trkpt lat="48.28416" lon="-4.13484">
        <ele>173.571743</ele>
        <time>2022-12-10T11:48:39.184Z</time>
      </trkpt>
      <trkpt lat="48.28416" lon="-4.1347">
        <ele>173.906828</ele>
        <time>2022-12-10T11:48:44.186Z</time>
      </trkpt>
      <trkpt lat="48.28416" lon="-4.13455">
        <ele>174.251175</ele>
        <time>2022-12-10T11:48:50.160Z</time>
      </trkpt>
      <trkpt lat="48.28417" lon="-4.13439">
        <ele>174.619204</ele>
        <time>2022-12-10T11:48:56.166Z</time>
      </trkpt>
      <trkpt lat="48.28417" lon="-4.13425">
        <ele>174.94996</ele>
        <time>2022-12-10T11:49:01.184Z</time>
      </trkpt>
      <trkpt lat="48.28418" lon="-4.13411">
        <ele>175.422079</ele>
        <time>2022-12-10T11:49:06.180Z</time>
      </trkpt>
      <trkpt lat="48.2842" lon="-4.13397">
        <ele>175.949892</ele>
        <time>2022-12-10T11:49:11.179Z</time>
      </trkpt>
      <trkpt lat="48.28421" lon="-4.13382">
        <ele>176.503884</ele>
        <time>2022-12-10T11:49:16.159Z</time>
      </trkpt>
      <trkpt lat="48.28424" lon="-4.13367">
        <ele>177.094559</ele>
        <time>2022-12-10T11:49:23.158Z</time>
      </trkpt>
      <trkpt lat="48.28426" lon="-4.13352">
        <ele>177.668185</ele>
        <time>2022-12-10T11:49:29.167Z</time>
      </trkpt>
      <trkpt lat="48.28428" lon="-4.13337">
        <ele>178.250607</ele>
        <time>2022-12-10T11:49:35.155Z</time>
      </trkpt>
      <trkpt lat="48.28431" lon="-4.13322">
        <ele>178.857007</ele>
        <time>2022-12-10T11:49:42.168Z</time>
      </trkpt>
      <trkpt lat="48.28435" lon="-4.13308">
        <ele>179.41858</ele>
        <time>2022-12-10T11:49:48.159Z</time>
      </trkpt>
      <trkpt lat="48.28438" lon="-4.13293">
        <ele>180.030543</ele>
        <time>2022-12-10T11:49:54.176Z</time>
      </trkpt>
      <trkpt lat="48.28442" lon="-4.13278">
        <ele>180.621883</ele>
        <time>2022-12-10T11:50:00.156Z</time>
      </trkpt>
      <trkpt lat="48.28447" lon="-4.13264">
        <ele>181.23937</ele>
        <time>2022-12-10T11:50:06.160Z</time>
      </trkpt>
      <trkpt lat="48.28452" lon="-4.1325">
        <ele>181.828133</ele>
        <time>2022-12-10T11:50:11.193Z</time>
      </trkpt>
      <trkpt lat="48.28455" lon="-4.13235">
        <ele>182.414791</ele>
        <time>2022-12-10T11:50:17.159Z</time>
      </trkpt>
      <trkpt lat="48.2846" lon="-4.13222">
        <ele>182.962884</ele>
        <time>2022-12-10T11:50:22.164Z</time>
      </trkpt>
      <trkpt lat="48.28464" lon="-4.13209">
        <ele>183.534658</ele>
        <time>2022-12-10T11:50:27.182Z</time>
      </trkpt>
      <trkpt lat="48.28468" lon="-4.13195">
        <ele>184.0951</ele>
        <time>2022-12-10T11:50:32.181Z</time>
      </trkpt>
      <trkpt lat="48.28471" lon="-4.13181">
        <ele>184.647652</ele>
        <time>2022-12-10T11:50:37.173Z</time>
      </trkpt>
      <trkpt lat="48.28474" lon="-4.13167">
        <ele>185.198985</ele>
        <time>2022-12-10T11:50:42.158Z</time>
      </trkpt>
      <trkpt lat="48.28478" lon="-4.13154">
        <ele>185.648126</ele>
        <time>2022-12-10T11:50:47.181Z</time>
      </trkpt>
      <trkpt lat="48.28482" lon="-4.13141">
        <ele>186.073761</ele>
        <time>2022-12-10T11:50:52.169Z</time>
      </trkpt>
      <trkpt lat="48.28486" lon="-4.13127">
        <ele>186.506795</ele>
        <time>2022-12-10T11:50:57.183Z</time>
      </trkpt>
      <trkpt lat="48.2849" lon="-4.13114">
        <ele>186.932711</ele>
        <time>2022-12-10T11:51:02.175Z</time>
      </trkpt>
      <trkpt lat="48.28495" lon="-4.13101">
        <ele>187.353591</ele>
        <time>2022-12-10T11:51:08.190Z</time>
      </trkpt>
      <trkpt lat="48.28499" lon="-4.13087">
        <ele>187.801534</ele>
        <time>2022-12-10T11:51:14.165Z</time>
      </trkpt>
      <trkpt lat="48.28502" lon="-4.13075">
        <ele>188.200806</ele>
        <time>2022-12-10T11:51:19.161Z</time>
      </trkpt>
      <trkpt lat="48.28506" lon="-4.13062">
        <ele>188.59878</ele>
        <time>2022-12-10T11:51:24.162Z</time>
      </trkpt>
      <trkpt lat="48.28509" lon="-4.1305">
        <ele>188.994974</ele>
        <time>2022-12-10T11:51:29.173Z</time>
      </trkpt>
      <trkpt lat="48.28513" lon="-4.13037">
        <ele>189.408377</ele>
        <time>2022-12-10T11:51:34.187Z</time>
      </trkpt>
      <trkpt lat="48.28516" lon="-4.13024">
        <ele>189.810035</ele>
        <time>2022-12-10T11:51:39.166Z</time>
      </trkpt>
      <trkpt lat="48.2852" lon="-4.13011">
        <ele>190.216992</ele>
        <time>2022-12-10T11:51:44.179Z</time>
      </trkpt>
      <trkpt lat="48.28524" lon="-4.12997">
        <ele>190.667615</ele>
        <time>2022-12-10T11:51:50.161Z</time>
      </trkpt>
      <trkpt lat="48.28527" lon="-4.12983">
        <ele>191.100108</ele>
        <time>2022-12-10T11:51:56.188Z</time>
      </trkpt>
      <trkpt lat="48.28532" lon="-4.12969">
        <ele>191.563352</ele>
        <time>2022-12-10T11:52:02.185Z</time>
      </trkpt>
      <trkpt lat="48.28535" lon="-4.12954">
        <ele>192.02207</ele>
        <time>2022-12-10T11:52:08.190Z</time>
      </trkpt>
      <trkpt lat="48.28539" lon="-4.1294">
        <ele>192.465314</ele>
        <time>2022-12-10T11:52:15.155Z</time>
      </trkpt>
      <trkpt lat="48.28543" lon="-4.12927">
        <ele>192.889262</ele>
        <time>2022-12-10T11:52:21.163Z</time>
      </trkpt>
      <trkpt lat="48.28545" lon="-4.12913">
        <ele>193.287527</ele>
        <time>2022-12-10T11:52:27.168Z</time>
      </trkpt>
      <trkpt lat="48.28549" lon="-4.12898">
        <ele>193.643861</ele>
        <time>2022-12-10T11:52:33.162Z</time>
      </trkpt>
      <trkpt lat="48.28552" lon="-4.12883">
        <ele>193.999125</ele>
        <time>2022-12-10T11:52:39.163Z</time>
      </trkpt>
      <trkpt lat="48.28555" lon="-4.1287">
        <ele>194.315234</ele>
        <time>2022-12-10T11:52:44.159Z</time>
      </trkpt>
      <trkpt lat="48.28558" lon="-4.12858">
        <ele>194.6271</ele>
        <time>2022-12-10T11:52:49.167Z</time>
      </trkpt>
      <trkpt lat="48.28561" lon="-4.12845">
        <ele>194.939525</ele>
        <time>2022-12-10T11:52:54.164Z</time>
      </trkpt>
      <trkpt lat="48.28564" lon="-4.12832">
        <ele>195.258105</ele>
        <time>2022-12-10T11:52:59.187Z</time>
      </trkpt>
      <trkpt lat="48.28566" lon="-4.12818">
        <ele>195.567456</ele>
        <time>2022-12-10T11:53:04.191Z</time>
      </trkpt>
      <trkpt lat="48.2857" lon="-4.12805">
        <ele>195.898334</ele>
        <time>2022-12-10T11:53:09.181Z</time>
      </trkpt>
      <trkpt lat="48.28573" lon="-4.12791">
        <ele>196.240563</ele>
        <time>2022-12-10T11:53:14.180Z</time>
      </trkpt>
      <trkpt lat="48.28576" lon="-4.12776">
        <ele>196.592617</ele>
        <time>2022-12-10T11:53:19.188Z</time>
      </trkpt>
      <trkpt lat="48.28579" lon="-4.12762">
        <ele>196.944671</ele>
        <time>2022-12-10T11:53:24.162Z</time>
      </trkpt>
      <trkpt lat="48.28583" lon="-4.12747">
        <ele>197.301492</ele>
        <time>2022-12-10T11:53:29.180Z</time>
      </trkpt>
      <trkpt lat="48.28585" lon="-4.12731">
        <ele>197.67405</ele>
        <time>2022-12-10T11:53:35.157Z</time>
      </trkpt>
      <trkpt lat="48.28589" lon="-4.12717">
        <ele>198.023901</ele>
        <time>2022-12-10T11:53:41.157Z</time>
      </trkpt>
      <trkpt lat="48.28591" lon="-4.12702">
        <ele>198.382812</ele>
        <time>2022-12-10T11:53:48.159Z</time>
      </trkpt>
      <trkpt lat="48.28595" lon="-4.12688">
        <ele>198.72956</ele>
        <time>2022-12-10T11:53:54.158Z</time>
      </trkpt>
      <trkpt lat="48.28597" lon="-4.12673">
        <ele>199.082469</ele>
        <time>2022-12-10T11:54:00.163Z</time>
      </trkpt>
      <trkpt lat="48.28601" lon="-4.12658">
        <ele>199.427409</ele>
        <time>2022-12-10T11:54:06.162Z</time>
      </trkpt>
      <trkpt lat="48.28605" lon="-4.12644">
        <ele>199.702185</ele>
        <time>2022-12-10T11:54:12.161Z</time>
      </trkpt>
      <trkpt lat="48.28607" lon="-4.12629">
        <ele>199.984568</ele>
        <time>2022-12-10T11:54:18.159Z</time>
      </trkpt>
      <trkpt lat="48.28611" lon="-4.12615">
        <ele>200.251376</ele>
        <time>2022-12-10T11:54:24.170Z</time>
      </trkpt>
      <trkpt lat="48.28614" lon="-4.12601">
        <ele>200.507322</ele>
        <time>2022-12-10T11:54:29.163Z</time>
      </trkpt>
      <trkpt lat="48.28617" lon="-4.12587">
        <ele>200.776401</ele>
        <time>2022-12-10T11:54:34.164Z</time>
      </trkpt>
      <trkpt lat="48.28618" lon="-4.12571">
        <ele>201.065691</ele>
        <time>2022-12-10T11:54:40.163Z</time>
      </trkpt>
      <trkpt lat="48.28622" lon="-4.12556">
        <ele>201.345259</ele>
        <time>2022-12-10T11:54:46.172Z</time>
      </trkpt>
      <trkpt lat="48.28625" lon="-4.12543">
        <ele>201.589011</ele>
        <time>2022-12-10T11:54:51.164Z</time>
      </trkpt>
      <trkpt lat="48.28629" lon="-4.1253">
        <ele>201.855589</ele>
        <time>2022-12-10T11:54:58.168Z</time>
      </trkpt>
      <trkpt lat="48.28633" lon="-4.12516">
        <ele>202.134247</ele>
        <time>2022-12-10T11:55:04.165Z</time>
      </trkpt>
      <trkpt lat="48.28635" lon="-4.125">
        <ele>202.412585</ele>
        <time>2022-12-10T11:55:11.169Z</time>
      </trkpt>
      <trkpt lat="48.28637" lon="-4.12487">
        <ele>202.665136</ele>
        <time>2022-12-10T11:55:17.165Z</time>
      </trkpt>
      <trkpt lat="48.28638" lon="-4.12472">
        <ele>202.923007</ele>
        <time>2022-12-10T11:55:23.172Z</time>
      </trkpt>
      <trkpt lat="48.2864" lon="-4.12458">
        <ele>203.179153</ele>
        <time>2022-12-10T11:55:29.190Z</time>
      </trkpt>
      <trkpt lat="48.28641" lon="-4.12444">
        <ele>203.441316</ele>
        <time>2022-12-10T11:55:36.154Z</time>
      </trkpt>
      <trkpt lat="48.28641" lon="-4.12429">
        <ele>203.703589</ele>
        <time>2022-12-10T11:55:42.199Z</time>
      </trkpt>
      <trkpt lat="48.28642" lon="-4.12415">
        <ele>203.969947</ele>
        <time>2022-12-10T11:55:48.167Z</time>
      </trkpt>
      <trkpt lat="48.2864" lon="-4.124">
        <ele>204.228864</ele>
        <time>2022-12-10T11:55:54.174Z</time>
      </trkpt>
      <trkpt lat="48.28639" lon="-4.12385">
        <ele>204.619908</ele>
        <time>2022-12-10T11:56:00.159Z</time>
      </trkpt>
      <trkpt lat="48.28637" lon="-4.12371">
        <ele>205.001962</ele>
        <time>2022-12-10T11:56:06.169Z</time>
      </trkpt>
      <trkpt lat="48.28635" lon="-4.12355">
        <ele>205.41203</ele>
        <time>2022-12-10T11:56:12.181Z</time>
      </trkpt>
      <trkpt lat="48.28631" lon="-4.1234">
        <ele>205.83034</ele>
        <time>2022-12-10T11:56:18.164Z</time>
      </trkpt>
      <trkpt lat="48.28628" lon="-4.12325">
        <ele>206.23268</ele>
        <time>2022-12-10T11:56:24.165Z</time>
      </trkpt>
      <trkpt lat="48.28622" lon="-4.12311">
        <ele>206.645628</ele>
        <time>2022-12-10T11:56:30.170Z</time>
      </trkpt>
      <trkpt lat="48.28617" lon="-4.12299">
        <ele>207.036324</ele>
        <time>2022-12-10T11:56:35.163Z</time>
      </trkpt>
      <trkpt lat="48.28611" lon="-4.12288">
        <ele>207.391289</ele>
        <time>2022-12-10T11:56:39.168Z</time>
      </trkpt>
      <trkpt lat="48.28604" lon="-4.12275">
        <ele>207.809056</ele>
        <time>2022-12-10T11:56:44.183Z</time>
      </trkpt>
      <trkpt lat="48.28598" lon="-4.12265">
        <ele>208.156847</ele>
        <time>2022-12-10T11:56:48.188Z</time>
      </trkpt>
      <trkpt lat="48.28592" lon="-4.12256">
        <ele>208.513517</ele>
        <time>2022-12-10T11:56:52.187Z</time>
      </trkpt>
      <trkpt lat="48.28585" lon="-4.12244">
        <ele>208.918437</ele>
        <time>2022-12-10T11:56:56.161Z</time>
      </trkpt>
      <trkpt lat="48.28578" lon="-4.12233">
        <ele>209.285479</ele>
        <time>2022-12-10T11:57:00.171Z</time>
      </trkpt>
      <trkpt lat="48.28572" lon="-4.12223">
        <ele>209.656339</ele>
        <time>2022-12-10T11:57:05.188Z</time>
      </trkpt>
      <trkpt lat="48.28565" lon="-4.12213">
        <ele>210.036123</ele>
        <time>2022-12-10T11:57:09.189Z</time>
      </trkpt>
      <trkpt lat="48.28557" lon="-4.12202">
        <ele>210.446974</ele>
        <time>2022-12-10T11:57:13.166Z</time>
      </trkpt>
      <trkpt lat="48.2855" lon="-4.12191">
        <ele>210.844705</ele>
        <time>2022-12-10T11:57:17.183Z</time>
      </trkpt>
      <trkpt lat="48.28542" lon="-4.12178">
        <ele>211.118708</ele>
        <time>2022-12-10T11:57:21.175Z</time>
      </trkpt>
      <trkpt lat="48.28535" lon="-4.12168">
        <ele>210.690345</ele>
        <time>2022-12-10T11:57:25.184Z</time>
      </trkpt>
      <trkpt lat="48.28528" lon="-4.1216">
        <ele>210.295589</ele>
        <time>2022-12-10T11:57:29.168Z</time>
      </trkpt>
      <trkpt lat="48.28519" lon="-4.12149">
        <ele>209.796945</ele>
        <time>2022-12-10T11:57:34.195Z</time>
      </trkpt>
      <trkpt lat="48.28511" lon="-4.1214">
        <ele>209.354586</ele>
        <time>2022-12-10T11:57:38.196Z</time>
      </trkpt>
      <trkpt lat="48.28504" lon="-4.12131">
        <ele>208.961561</ele>
        <time>2022-12-10T11:57:41.179Z</time>
      </trkpt>
      <trkpt lat="48.28496" lon="-4.12124">
        <ele>208.545134</ele>
        <time>2022-12-10T11:57:44.162Z</time>
      </trkpt>
      <trkpt lat="48.2849" lon="-4.12113">
        <ele>208.142075</ele>
        <time>2022-12-10T11:57:47.169Z</time>
      </trkpt>
      <trkpt lat="48.28485" lon="-4.12098">
        <ele>207.627185</ele>
        <time>2022-12-10T11:57:51.168Z</time>
      </trkpt>
      <trkpt lat="48.28479" lon="-4.12085">
        <ele>207.198739</ele>
        <time>2022-12-10T11:57:54.158Z</time>
      </trkpt>
      <trkpt lat="48.28474" lon="-4.12074">
        <ele>206.794034</ele>
        <time>2022-12-10T11:57:57.191Z</time>
      </trkpt>
      <trkpt lat="48.28468" lon="-4.12062">
        <ele>206.360463</ele>
        <time>2022-12-10T11:58:00.175Z</time>
      </trkpt>
      <trkpt lat="48.28463" lon="-4.12049">
        <ele>205.918462</ele>
        <time>2022-12-10T11:58:03.179Z</time>
      </trkpt>
      <trkpt lat="48.28459" lon="-4.12035">
        <ele>205.481712</ele>
        <time>2022-12-10T11:58:06.177Z</time>
      </trkpt>
      <trkpt lat="48.28456" lon="-4.12022">
        <ele>205.062035</ele>
        <time>2022-12-10T11:58:09.182Z</time>
      </trkpt>
      <trkpt lat="48.28452" lon="-4.12009">
        <ele>204.665999</ele>
        <time>2022-12-10T11:58:12.184Z</time>
      </trkpt>
      <trkpt lat="48.2845" lon="-4.11995">
        <ele>204.258206</ele>
        <time>2022-12-10T11:58:15.175Z</time>
      </trkpt>
      <trkpt lat="48.28448" lon="-4.1198">
        <ele>203.817297</ele>
        <time>2022-12-10T11:58:18.172Z</time>
      </trkpt>
      <trkpt lat="48.28446" lon="-4.11965">
        <ele>203.366917</ele>
        <time>2022-12-10T11:58:21.164Z</time>
      </trkpt>
      <trkpt lat="48.28444" lon="-4.11951">
        <ele>203.080727</ele>
        <time>2022-12-10T11:58:24.186Z</time>
      </trkpt>
      <trkpt lat="48.28442" lon="-4.11936">
        <ele>202.794971</ele>
        <time>2022-12-10T11:58:27.187Z</time>
      </trkpt>
      <trkpt lat="48.28441" lon="-4.11922">
        <ele>202.509894</ele>
        <time>2022-12-10T11:58:30.178Z</time>
      </trkpt>
      <trkpt lat="48.2844" lon="-4.11907">
        <ele>202.22252</ele>
        <time>2022-12-10T11:58:33.190Z</time>
      </trkpt>
      <trkpt lat="48.28438" lon="-4.1189">
        <ele>201.894554</ele>
        <time>2022-12-10T11:58:36.173Z</time>
      </trkpt>
      <trkpt lat="48.28435" lon="-4.11874">
        <ele>201.564861</ele>
        <time>2022-12-10T11:58:39.183Z</time>
      </trkpt>
      <trkpt lat="48.28433" lon="-4.11857">
        <ele>201.233622</ele>
        <time>2022-12-10T11:58:42.180Z</time>
      </trkpt>
      <trkpt lat="48.28431" lon="-4.1184">
        <ele>200.902656</ele>
        <time>2022-12-10T11:58:45.189Z</time>
      </trkpt>
      <trkpt lat="48.28429" lon="-4.11824">
        <ele>200.584272</ele>
        <time>2022-12-10T11:58:48.187Z</time>
      </trkpt>
      <trkpt lat="48.28427" lon="-4.11806">
        <ele>200.242105</ele>
        <time>2022-12-10T11:58:51.187Z</time>
      </trkpt>
      <trkpt lat="48.28424" lon="-4.11789">
        <ele>199.899705</ele>
        <time>2022-12-10T11:58:54.186Z</time>
      </trkpt>
      <trkpt lat="48.28422" lon="-4.11772">
        <ele>199.557373</ele>
        <time>2022-12-10T11:58:57.186Z</time>
      </trkpt>
      <trkpt lat="48.28419" lon="-4.11754">
        <ele>199.209473</ele>
        <time>2022-12-10T11:59:00.168Z</time>
      </trkpt>
      <trkpt lat="48.28417" lon="-4.11736">
        <ele>198.864925</ele>
        <time>2022-12-10T11:59:03.181Z</time>
      </trkpt>
      <trkpt lat="48.28416" lon="-4.1172">
        <ele>198.551788</ele>
        <time>2022-12-10T11:59:06.158Z</time>
      </trkpt>
      <trkpt lat="48.28414" lon="-4.11704">
        <ele>198.23193</ele>
        <time>2022-12-10T11:59:09.184Z</time>
      </trkpt>
      <trkpt lat="48.28412" lon="-4.11687">
        <ele>197.873604</ele>
        <time>2022-12-10T11:59:12.176Z</time>
      </trkpt>
      <trkpt lat="48.28409" lon="-4.1167">
        <ele>197.500468</ele>
        <time>2022-12-10T11:59:15.153Z</time>
      </trkpt>
      <trkpt lat="48.28406" lon="-4.11652">
        <ele>197.093106</ele>
        <time>2022-12-10T11:59:18.190Z</time>
      </trkpt>
      <trkpt lat="48.28404" lon="-4.11633">
        <ele>196.676344</ele>
        <time>2022-12-10T11:59:21.187Z</time>
      </trkpt>
      <trkpt lat="48.28402" lon="-4.11614">
        <ele>196.270142</ele>
        <time>2022-12-10T11:59:24.173Z</time>
      </trkpt>
      <trkpt lat="48.28399" lon="-4.11596">
        <ele>195.87875</ele>
        <time>2022-12-10T11:59:27.160Z</time>
      </trkpt>
      <trkpt lat="48.28397" lon="-4.11579">
        <ele>195.500662</ele>
        <time>2022-12-10T11:59:30.169Z</time>
      </trkpt>
      <trkpt lat="48.28396" lon="-4.11562">
        <ele>195.141388</ele>
        <time>2022-12-10T11:59:33.163Z</time>
      </trkpt>
      <trkpt lat="48.28393" lon="-4.11546">
        <ele>194.784891</ele>
        <time>2022-12-10T11:59:36.185Z</time>
      </trkpt>
      <trkpt lat="48.2839" lon="-4.1153">
        <ele>194.434637</ele>
        <time>2022-12-10T11:59:39.163Z</time>
      </trkpt>
      <trkpt lat="48.28389" lon="-4.11516">
        <ele>194.117441</ele>
        <time>2022-12-10T11:59:42.162Z</time>
      </trkpt>
      <trkpt lat="48.28387" lon="-4.11501">
        <ele>193.794966</ele>
        <time>2022-12-10T11:59:45.178Z</time>
      </trkpt>
      <trkpt lat="48.28385" lon="-4.11486">
        <ele>193.458069</ele>
        <time>2022-12-10T11:59:48.179Z</time>
      </trkpt>
      <trkpt lat="48.28383" lon="-4.1147">
        <ele>193.116956</ele>
        <time>2022-12-10T11:59:51.176Z</time>
      </trkpt>
      <trkpt lat="48.28382" lon="-4.11455">
        <ele>192.784398</ele>
        <time>2022-12-10T11:59:54.193Z</time>
      </trkpt>
      <trkpt lat="48.2838" lon="-4.11439">
        <ele>192.442005</ele>
        <time>2022-12-10T11:59:57.193Z</time>
      </trkpt>
      <trkpt lat="48.28378" lon="-4.11423">
        <ele>192.013212</ele>
        <time>2022-12-10T12:00:00.164Z</time>
      </trkpt>
      <trkpt lat="48.28376" lon="-4.11407">
        <ele>191.554659</ele>
        <time>2022-12-10T12:00:03.167Z</time>
      </trkpt>
      <trkpt lat="48.28374" lon="-4.11391">
        <ele>191.09538</ele>
        <time>2022-12-10T12:00:06.195Z</time>
      </trkpt>
      <trkpt lat="48.28373" lon="-4.11375">
        <ele>190.642398</ele>
        <time>2022-12-10T12:00:09.174Z</time>
      </trkpt>
      <trkpt lat="48.28371" lon="-4.11359">
        <ele>190.183119</ele>
        <time>2022-12-10T12:00:12.182Z</time>
      </trkpt>
      <trkpt lat="48.28368" lon="-4.11342">
        <ele>189.700863</ele>
        <time>2022-12-10T12:00:15.161Z</time>
      </trkpt>
      <trkpt lat="48.28365" lon="-4.11326">
        <ele>189.224476</ele>
        <time>2022-12-10T12:00:18.177Z</time>
      </trkpt>
      <trkpt lat="48.28363" lon="-4.11309">
        <ele>188.748089</ele>
        <time>2022-12-10T12:00:21.173Z</time>
      </trkpt>
      <trkpt lat="48.28361" lon="-4.11291">
        <ele>188.219804</ele>
        <time>2022-12-10T12:00:24.181Z</time>
      </trkpt>
      <trkpt lat="48.28358" lon="-4.11273">
        <ele>187.708483</ele>
        <time>2022-12-10T12:00:27.188Z</time>
      </trkpt>
      <trkpt lat="48.28356" lon="-4.11256">
        <ele>187.215561</ele>
        <time>2022-12-10T12:00:30.191Z</time>
      </trkpt>
      <trkpt lat="48.28354" lon="-4.11239">
        <ele>186.719796</ele>
        <time>2022-12-10T12:00:33.187Z</time>
      </trkpt>
      <trkpt lat="48.28351" lon="-4.11222">
        <ele>186.233172</ele>
        <time>2022-12-10T12:00:36.179Z</time>
      </trkpt>
      <trkpt lat="48.2835" lon="-4.11205">
        <ele>185.749522</ele>
        <time>2022-12-10T12:00:39.188Z</time>
      </trkpt>
      <trkpt lat="48.28347" lon="-4.11188">
        <ele>185.245577</ele>
        <time>2022-12-10T12:00:42.182Z</time>
      </trkpt>
      <trkpt lat="48.28345" lon="-4.1117">
        <ele>184.736142</ele>
        <time>2022-12-10T12:00:45.174Z</time>
      </trkpt>
      <trkpt lat="48.28343" lon="-4.11153">
        <ele>184.2</ele>
        <time>2022-12-10T12:00:48.176Z</time>
      </trkpt>
      <trkpt lat="48.28341" lon="-4.11136">
        <ele>183.685854</ele>
        <time>2022-12-10T12:00:51.183Z</time>
      </trkpt>
      <trkpt lat="48.28339" lon="-4.11118">
        <ele>183.127773</ele>
        <time>2022-12-10T12:00:54.189Z</time>
      </trkpt>
      <trkpt lat="48.28337" lon="-4.111">
        <ele>182.564523</ele>
        <time>2022-12-10T12:00:57.185Z</time>
      </trkpt>
      <trkpt lat="48.28335" lon="-4.11082">
        <ele>182.003589</ele>
        <time>2022-12-10T12:01:00.174Z</time>
      </trkpt>
      <trkpt lat="48.28334" lon="-4.11065">
        <ele>181.476714</ele>
        <time>2022-12-10T12:01:03.179Z</time>
      </trkpt>
      <trkpt lat="48.28332" lon="-4.11047">
        <ele>180.911076</ele>
        <time>2022-12-10T12:01:06.179Z</time>
      </trkpt>
      <trkpt lat="48.2833" lon="-4.11028">
        <ele>180.325364</ele>
        <time>2022-12-10T12:01:09.182Z</time>
      </trkpt>
      <trkpt lat="48.2833" lon="-4.11008">
        <ele>179.72508</ele>
        <time>2022-12-10T12:01:12.189Z</time>
      </trkpt>
      <trkpt lat="48.2833" lon="-4.10989">
        <ele>179.134262</ele>
        <time>2022-12-10T12:01:15.186Z</time>
      </trkpt>
      <trkpt lat="48.28331" lon="-4.10969">
        <ele>178.530814</ele>
        <time>2022-12-10T12:01:18.189Z</time>
      </trkpt>
      <trkpt lat="48.28331" lon="-4.10949">
        <ele>177.91855</ele>
        <time>2022-12-10T12:01:21.179Z</time>
      </trkpt>
      <trkpt lat="48.28332" lon="-4.10929">
        <ele>177.315207</ele>
        <time>2022-12-10T12:01:24.190Z</time>
      </trkpt>
      <trkpt lat="48.28332" lon="-4.1091">
        <ele>176.718249</ele>
        <time>2022-12-10T12:01:27.183Z</time>
      </trkpt>
      <trkpt lat="48.28332" lon="-4.10892">
        <ele>176.165722</ele>
        <time>2022-12-10T12:01:30.183Z</time>
      </trkpt>
      <trkpt lat="48.28332" lon="-4.10874">
        <ele>175.592632</ele>
        <time>2022-12-10T12:01:33.189Z</time>
      </trkpt>
      <trkpt lat="48.28331" lon="-4.10856">
        <ele>175.003966</ele>
        <time>2022-12-10T12:01:36.187Z</time>
      </trkpt>
      <trkpt lat="48.28332" lon="-4.10839">
        <ele>174.460188</ele>
        <time>2022-12-10T12:01:39.180Z</time>
      </trkpt>
      <trkpt lat="48.28332" lon="-4.10823">
        <ele>173.964356</ele>
        <time>2022-12-10T12:01:42.168Z</time>
      </trkpt>
      <trkpt lat="48.28332" lon="-4.10807">
        <ele>173.455738</ele>
        <time>2022-12-10T12:01:45.178Z</time>
      </trkpt>
      <trkpt lat="48.28333" lon="-4.10791">
        <ele>172.933981</ele>
        <time>2022-12-10T12:01:48.164Z</time>
      </trkpt>
      <trkpt lat="48.28333" lon="-4.10775">
        <ele>172.402642</ele>
        <time>2022-12-10T12:01:51.161Z</time>
      </trkpt>
      <trkpt lat="48.28333" lon="-4.10758">
        <ele>171.862168</ele>
        <time>2022-12-10T12:01:54.189Z</time>
      </trkpt>
      <trkpt lat="48.28332" lon="-4.10741">
        <ele>171.341938</ele>
        <time>2022-12-10T12:01:57.163Z</time>
      </trkpt>
      <trkpt lat="48.28332" lon="-4.10727">
        <ele>170.877893</ele>
        <time>2022-12-10T12:02:00.186Z</time>
      </trkpt>
      <trkpt lat="48.28331" lon="-4.10713">
        <ele>170.446195</ele>
        <time>2022-12-10T12:02:03.190Z</time>
      </trkpt>
      <trkpt lat="48.28331" lon="-4.107">
        <ele>170.00718</ele>
        <time>2022-12-10T12:02:06.164Z</time>
      </trkpt>
      <trkpt lat="48.28331" lon="-4.10685">
        <ele>169.543434</ele>
        <time>2022-12-10T12:02:09.184Z</time>
      </trkpt>
      <trkpt lat="48.28332" lon="-4.1067">
        <ele>169.067251</ele>
        <time>2022-12-10T12:02:12.169Z</time>
      </trkpt>
      <trkpt lat="48.28334" lon="-4.10655">
        <ele>168.556999</ele>
        <time>2022-12-10T12:02:15.163Z</time>
      </trkpt>
      <trkpt lat="48.28336" lon="-4.10639">
        <ele>168.038669</ele>
        <time>2022-12-10T12:02:18.195Z</time>
      </trkpt>
      <trkpt lat="48.28339" lon="-4.10623">
        <ele>167.43134</ele>
        <time>2022-12-10T12:02:21.170Z</time>
      </trkpt>
      <trkpt lat="48.28343" lon="-4.10608">
        <ele>166.764348</ele>
        <time>2022-12-10T12:02:24.162Z</time>
      </trkpt>
      <trkpt lat="48.28348" lon="-4.10593">
        <ele>166.095047</ele>
        <time>2022-12-10T12:02:27.162Z</time>
      </trkpt>
      <trkpt lat="48.28353" lon="-4.10578">
        <ele>165.399195</ele>
        <time>2022-12-10T12:02:30.189Z</time>
      </trkpt>
      <trkpt lat="48.28358" lon="-4.10563">
        <ele>164.718252</ele>
        <time>2022-12-10T12:02:33.179Z</time>
      </trkpt>
      <trkpt lat="48.28364" lon="-4.1055">
        <ele>164.085562</ele>
        <time>2022-12-10T12:02:36.184Z</time>
      </trkpt>
      <trkpt lat="48.28368" lon="-4.10537">
        <ele>163.475427</ele>
        <time>2022-12-10T12:02:39.184Z</time>
      </trkpt>
      <trkpt lat="48.28372" lon="-4.10523">
        <ele>162.850158</ele>
        <time>2022-12-10T12:02:42.173Z</time>
      </trkpt>
      <trkpt lat="48.28376" lon="-4.10508">
        <ele>162.176297</ele>
        <time>2022-12-10T12:02:45.167Z</time>
      </trkpt>
      <trkpt lat="48.28377" lon="-4.1049">
        <ele>161.46268</ele>
        <time>2022-12-10T12:02:48.166Z</time>
      </trkpt>
      <trkpt lat="48.28378" lon="-4.10473">
        <ele>160.76868</ele>
        <time>2022-12-10T12:02:51.170Z</time>
      </trkpt>
      <trkpt lat="48.28376" lon="-4.10457">
        <ele>160.107177</ele>
        <time>2022-12-10T12:02:54.164Z</time>
      </trkpt>
      <trkpt lat="48.28374" lon="-4.10442">
        <ele>159.471049</ele>
        <time>2022-12-10T12:02:57.167Z</time>
      </trkpt>
      <trkpt lat="48.2837" lon="-4.10427">
        <ele>158.791387</ele>
        <time>2022-12-10T12:03:00.168Z</time>
      </trkpt>
      <trkpt lat="48.28366" lon="-4.10411">
        <ele>158.080899</ele>
        <time>2022-12-10T12:03:03.189Z</time>
      </trkpt>
      <trkpt lat="48.28361" lon="-4.10395">
        <ele>157.358066</ele>
        <time>2022-12-10T12:03:06.183Z</time>
      </trkpt>
      <trkpt lat="48.28355" lon="-4.10381">
        <ele>156.681003</ele>
        <time>2022-12-10T12:03:09.170Z</time>
      </trkpt>
      <trkpt lat="48.28349" lon="-4.10366">
        <ele>156.093856</ele>
        <time>2022-12-10T12:03:12.191Z</time>
      </trkpt>
      <trkpt lat="48.28344" lon="-4.10352">
        <ele>155.524348</ele>
        <time>2022-12-10T12:03:15.182Z</time>
      </trkpt>
      <trkpt lat="48.28339" lon="-4.10338">
        <ele>154.984815</ele>
        <time>2022-12-10T12:03:18.168Z</time>
      </trkpt>
      <trkpt lat="48.28334" lon="-4.10323">
        <ele>154.444684</ele>
        <time>2022-12-10T12:03:21.184Z</time>
      </trkpt>
      <trkpt lat="48.2833" lon="-4.10309">
        <ele>153.906201</ele>
        <time>2022-12-10T12:03:24.188Z</time>
      </trkpt>
      <trkpt lat="48.28325" lon="-4.10296">
        <ele>153.383556</ele>
        <time>2022-12-10T12:03:27.188Z</time>
      </trkpt>
      <trkpt lat="48.28321" lon="-4.10282">
        <ele>152.869191</ele>
        <time>2022-12-10T12:03:30.176Z</time>
      </trkpt>
      <trkpt lat="48.28318" lon="-4.10266">
        <ele>152.316541</ele>
        <time>2022-12-10T12:03:33.164Z</time>
      </trkpt>
      <trkpt lat="48.28315" lon="-4.10251">
        <ele>151.771899</ele>
        <time>2022-12-10T12:03:36.187Z</time>
      </trkpt>
      <trkpt lat="48.28313" lon="-4.10236">
        <ele>151.23613</ele>
        <time>2022-12-10T12:03:39.188Z</time>
      </trkpt>
      <trkpt lat="48.28311" lon="-4.1022">
        <ele>150.684902</ele>
        <time>2022-12-10T12:03:42.162Z</time>
      </trkpt>
      <trkpt lat="48.28308" lon="-4.10203">
        <ele>150.083743</ele>
        <time>2022-12-10T12:03:45.175Z</time>
      </trkpt>
      <trkpt lat="48.28306" lon="-4.10186">
        <ele>149.503412</ele>
        <time>2022-12-10T12:03:48.189Z</time>
      </trkpt>
      <trkpt lat="48.28304" lon="-4.10169">
        <ele>148.910388</ele>
        <time>2022-12-10T12:03:51.181Z</time>
      </trkpt>
      <trkpt lat="48.28303" lon="-4.10151">
        <ele>148.303372</ele>
        <time>2022-12-10T12:03:54.179Z</time>
      </trkpt>
      <trkpt lat="48.28303" lon="-4.10134">
        <ele>147.712556</ele>
        <time>2022-12-10T12:03:57.183Z</time>
      </trkpt>
      <trkpt lat="48.28304" lon="-4.10117">
        <ele>147.083246</ele>
        <time>2022-12-10T12:04:00.166Z</time>
      </trkpt>
      <trkpt lat="48.28304" lon="-4.10099">
        <ele>146.40224</ele>
        <time>2022-12-10T12:04:03.176Z</time>
      </trkpt>
      <trkpt lat="48.28306" lon="-4.10082">
        <ele>145.740813</ele>
        <time>2022-12-10T12:04:06.167Z</time>
      </trkpt>
      <trkpt lat="48.28307" lon="-4.10066">
        <ele>145.083984</ele>
        <time>2022-12-10T12:04:09.186Z</time>
      </trkpt>
      <trkpt lat="48.28309" lon="-4.10049">
        <ele>144.446125</ele>
        <time>2022-12-10T12:04:12.189Z</time>
      </trkpt>
      <trkpt lat="48.28312" lon="-4.10033">
        <ele>143.780624</ele>
        <time>2022-12-10T12:04:15.185Z</time>
      </trkpt>
      <trkpt lat="48.28315" lon="-4.10016">
        <ele>143.106561</ele>
        <time>2022-12-10T12:04:18.180Z</time>
      </trkpt>
      <trkpt lat="48.28318" lon="-4.09998">
        <ele>142.400559</ele>
        <time>2022-12-10T12:04:21.192Z</time>
      </trkpt>
      <trkpt lat="48.2832" lon="-4.0998">
        <ele>141.684312</ele>
        <time>2022-12-10T12:04:24.166Z</time>
      </trkpt>
      <trkpt lat="48.2832" lon="-4.09963">
        <ele>141.014961</ele>
        <time>2022-12-10T12:04:27.169Z</time>
      </trkpt>
      <trkpt lat="48.2832" lon="-4.09946">
        <ele>140.372798</ele>
        <time>2022-12-10T12:04:30.186Z</time>
      </trkpt>
      <trkpt lat="48.28318" lon="-4.0993">
        <ele>139.733818</ele>
        <time>2022-12-10T12:04:33.191Z</time>
      </trkpt>
      <trkpt lat="48.28316" lon="-4.09914">
        <ele>139.084768</ele>
        <time>2022-12-10T12:04:36.186Z</time>
      </trkpt>
      <trkpt lat="48.28313" lon="-4.09898">
        <ele>138.462263</ele>
        <time>2022-12-10T12:04:39.184Z</time>
      </trkpt>
      <trkpt lat="48.2831" lon="-4.09884">
        <ele>137.869371</ele>
        <time>2022-12-10T12:04:42.166Z</time>
      </trkpt>
      <trkpt lat="48.28306" lon="-4.09871">
        <ele>137.310056</ele>
        <time>2022-12-10T12:04:45.189Z</time>
      </trkpt>
      <trkpt lat="48.28301" lon="-4.09858">
        <ele>136.829042</ele>
        <time>2022-12-10T12:04:48.186Z</time>
      </trkpt>
      <trkpt lat="48.28294" lon="-4.09844">
        <ele>136.417028</ele>
        <time>2022-12-10T12:04:52.189Z</time>
      </trkpt>
      <trkpt lat="48.28287" lon="-4.09833">
        <ele>136.044202</ele>
        <time>2022-12-10T12:04:56.172Z</time>
      </trkpt>
      <trkpt lat="48.28276" lon="-4.09824">
        <ele>135.621495</ele>
        <time>2022-12-10T12:05:00.174Z</time>
      </trkpt>
      <trkpt lat="48.28267" lon="-4.09819">
        <ele>135.27235</ele>
        <time>2022-12-10T12:05:03.163Z</time>
      </trkpt>
      <trkpt lat="48.28256" lon="-4.09816">
        <ele>134.909604</ele>
        <time>2022-12-10T12:05:06.186Z</time>
      </trkpt>
      <trkpt lat="48.28246" lon="-4.09814">
        <ele>134.550088</ele>
        <time>2022-12-10T12:05:09.189Z</time>
      </trkpt>
      <trkpt lat="48.28236" lon="-4.09811">
        <ele>134.207581</ele>
        <time>2022-12-10T12:05:12.191Z</time>
      </trkpt>
      <trkpt lat="48.28226" lon="-4.09806">
        <ele>133.825161</ele>
        <time>2022-12-10T12:05:15.171Z</time>
      </trkpt>
      <trkpt lat="48.28217" lon="-4.09799">
        <ele>133.460873</ele>
        <time>2022-12-10T12:05:18.164Z</time>
      </trkpt>
      <trkpt lat="48.28208" lon="-4.09789">
        <ele>133.084182</ele>
        <time>2022-12-10T12:05:21.171Z</time>
      </trkpt>
      <trkpt lat="48.282" lon="-4.09779">
        <ele>132.71211</ele>
        <time>2022-12-10T12:05:24.187Z</time>
      </trkpt>
      <trkpt lat="48.28193" lon="-4.09766">
        <ele>132.335908</ele>
        <time>2022-12-10T12:05:27.168Z</time>
      </trkpt>
      <trkpt lat="48.28186" lon="-4.09754">
        <ele>131.960673</ele>
        <time>2022-12-10T12:05:30.189Z</time>
      </trkpt>
      <trkpt lat="48.28179" lon="-4.0974">
        <ele>131.558769</ele>
        <time>2022-12-10T12:05:33.181Z</time>
      </trkpt>
      <trkpt lat="48.28171" lon="-4.09726">
        <ele>131.153915</ele>
        <time>2022-12-10T12:05:36.168Z</time>
      </trkpt>
      <trkpt lat="48.28164" lon="-4.09713">
        <ele>130.75419</ele>
        <time>2022-12-10T12:05:39.168Z</time>
      </trkpt>
      <trkpt lat="48.28157" lon="-4.097">
        <ele>130.47872</ele>
        <time>2022-12-10T12:05:42.183Z</time>
      </trkpt>
      <trkpt lat="48.2815" lon="-4.09685">
        <ele>130.222712</ele>
        <time>2022-12-10T12:05:45.185Z</time>
      </trkpt>
      <trkpt lat="48.28143" lon="-4.09672">
        <ele>129.9734</ele>
        <time>2022-12-10T12:05:48.168Z</time>
      </trkpt>
      <trkpt lat="48.28136" lon="-4.0966">
        <ele>129.739032</ele>
        <time>2022-12-10T12:05:51.191Z</time>
      </trkpt>
      <trkpt lat="48.2813" lon="-4.09646">
        <ele>129.493924</ele>
        <time>2022-12-10T12:05:54.187Z</time>
      </trkpt>
      <trkpt lat="48.28124" lon="-4.09632">
        <ele>129.250184</ele>
        <time>2022-12-10T12:05:57.172Z</time>
      </trkpt>
      <trkpt lat="48.28118" lon="-4.09618">
        <ele>129.00519</ele>
        <time>2022-12-10T12:06:00.163Z</time>
      </trkpt>
      <trkpt lat="48.28113" lon="-4.09604">
        <ele>128.776461</ele>
        <time>2022-12-10T12:06:03.186Z</time>
      </trkpt>
      <trkpt lat="48.28108" lon="-4.09593">
        <ele>128.569286</ele>
        <time>2022-12-10T12:06:06.197Z</time>
      </trkpt>
      <trkpt lat="48.28102" lon="-4.09579">
        <ele>128.338819</ele>
        <time>2022-12-10T12:06:09.189Z</time>
      </trkpt>
      <trkpt lat="48.28097" lon="-4.09564">
        <ele>128.094211</ele>
        <time>2022-12-10T12:06:12.179Z</time>
      </trkpt>
      <trkpt lat="48.28093" lon="-4.0955">
        <ele>127.864337</ele>
        <time>2022-12-10T12:06:15.168Z</time>
      </trkpt>
      <trkpt lat="48.28089" lon="-4.09536">
        <ele>127.641649</ele>
        <time>2022-12-10T12:06:18.168Z</time>
      </trkpt>
      <trkpt lat="48.28086" lon="-4.09522">
        <ele>127.43451</ele>
        <time>2022-12-10T12:06:21.180Z</time>
      </trkpt>
      <trkpt lat="48.28083" lon="-4.09509">
        <ele>127.226105</ele>
        <time>2022-12-10T12:06:24.185Z</time>
      </trkpt>
      <trkpt lat="48.2808" lon="-4.09495">
        <ele>127.009406</ele>
        <time>2022-12-10T12:06:27.165Z</time>
      </trkpt>
      <trkpt lat="48.28077" lon="-4.09481">
        <ele>126.788491</ele>
        <time>2022-12-10T12:06:30.170Z</time>
      </trkpt>
      <trkpt lat="48.28073" lon="-4.09467">
        <ele>126.301633</ele>
        <time>2022-12-10T12:06:33.174Z</time>
      </trkpt>
      <trkpt lat="48.2807" lon="-4.09452">
        <ele>125.718411</ele>
        <time>2022-12-10T12:06:36.173Z</time>
      </trkpt>
      <trkpt lat="48.28067" lon="-4.09436">
        <ele>125.094978</ele>
        <time>2022-12-10T12:06:39.166Z</time>
      </trkpt>
      <trkpt lat="48.28064" lon="-4.0942">
        <ele>124.479956</ele>
        <time>2022-12-10T12:06:42.188Z</time>
      </trkpt>
      <trkpt lat="48.28061" lon="-4.09405">
        <ele>123.883629</ele>
        <time>2022-12-10T12:06:45.192Z</time>
      </trkpt>
      <trkpt lat="48.28058" lon="-4.0939">
        <ele>123.270142</ele>
        <time>2022-12-10T12:06:48.188Z</time>
      </trkpt>
      <trkpt lat="48.28055" lon="-4.09374">
        <ele>122.658269</ele>
        <time>2022-12-10T12:06:51.174Z</time>
      </trkpt>
      <trkpt lat="48.28053" lon="-4.09359">
        <ele>122.048688</ele>
        <time>2022-12-10T12:06:54.188Z</time>
      </trkpt>
      <trkpt lat="48.28049" lon="-4.09344">
        <ele>121.451393</ele>
        <time>2022-12-10T12:06:57.190Z</time>
      </trkpt>
      <trkpt lat="48.28046" lon="-4.09329">
        <ele>120.864951</ele>
        <time>2022-12-10T12:07:00.169Z</time>
      </trkpt>
      <trkpt lat="48.28044" lon="-4.09314">
        <ele>120.291222</ele>
        <time>2022-12-10T12:07:03.187Z</time>
      </trkpt>
      <trkpt lat="48.28041" lon="-4.09299">
        <ele>119.697523</ele>
        <time>2022-12-10T12:07:06.189Z</time>
      </trkpt>
      <trkpt lat="48.28038" lon="-4.09285">
        <ele>119.11108</ele>
        <time>2022-12-10T12:07:09.192Z</time>
      </trkpt>
      <trkpt lat="48.28034" lon="-4.0927">
        <ele>118.541002</ele>
        <time>2022-12-10T12:07:12.190Z</time>
      </trkpt>
      <trkpt lat="48.28031" lon="-4.09256">
        <ele>117.95943</ele>
        <time>2022-12-10T12:07:15.180Z</time>
      </trkpt>
      <trkpt lat="48.28026" lon="-4.09242">
        <ele>117.368071</ele>
        <time>2022-12-10T12:07:18.187Z</time>
      </trkpt>
      <trkpt lat="48.28022" lon="-4.09228">
        <ele>116.774331</ele>
        <time>2022-12-10T12:07:21.182Z</time>
      </trkpt>
      <trkpt lat="48.28017" lon="-4.09214">
        <ele>116.256609</ele>
        <time>2022-12-10T12:07:24.182Z</time>
      </trkpt>
      <trkpt lat="48.28012" lon="-4.09202">
        <ele>115.797322</ele>
        <time>2022-12-10T12:07:27.185Z</time>
      </trkpt>
      <trkpt lat="48.28006" lon="-4.09188">
        <ele>115.286197</ele>
        <time>2022-12-10T12:07:30.185Z</time>
      </trkpt>
      <trkpt lat="48.27999" lon="-4.09175">
        <ele>114.761355</ele>
        <time>2022-12-10T12:07:33.189Z</time>
      </trkpt>
      <trkpt lat="48.27993" lon="-4.09163">
        <ele>114.286561</ele>
        <time>2022-12-10T12:07:36.180Z</time>
      </trkpt>
      <trkpt lat="48.27985" lon="-4.09152">
        <ele>113.769291</ele>
        <time>2022-12-10T12:07:39.184Z</time>
      </trkpt>
      <trkpt lat="48.27978" lon="-4.09141">
        <ele>113.293896</ele>
        <time>2022-12-10T12:07:42.187Z</time>
      </trkpt>
      <trkpt lat="48.2797" lon="-4.0913">
        <ele>112.813851</ele>
        <time>2022-12-10T12:07:45.195Z</time>
      </trkpt>
      <trkpt lat="48.27962" lon="-4.0912">
        <ele>112.315783</ele>
        <time>2022-12-10T12:07:48.186Z</time>
      </trkpt>
      <trkpt lat="48.27954" lon="-4.09109">
        <ele>111.813922</ele>
        <time>2022-12-10T12:07:51.189Z</time>
      </trkpt>
      <trkpt lat="48.27946" lon="-4.09097">
        <ele>111.297604</ele>
        <time>2022-12-10T12:07:54.189Z</time>
      </trkpt>
      <trkpt lat="48.27938" lon="-4.09085">
        <ele>110.743823</ele>
        <time>2022-12-10T12:07:57.186Z</time>
      </trkpt>
      <trkpt lat="48.27929" lon="-4.09073">
        <ele>110.180276</ele>
        <time>2022-12-10T12:08:00.170Z</time>
      </trkpt>
      <trkpt lat="48.27921" lon="-4.0906">
        <ele>109.643196</ele>
        <time>2022-12-10T12:08:03.192Z</time>
      </trkpt>
      <trkpt lat="48.27913" lon="-4.09048">
        <ele>109.101635</ele>
        <time>2022-12-10T12:08:06.187Z</time>
      </trkpt>
      <trkpt lat="48.27904" lon="-4.09036">
        <ele>108.536085</ele>
        <time>2022-12-10T12:08:09.191Z</time>
      </trkpt>
      <trkpt lat="48.27895" lon="-4.09024">
        <ele>107.924778</ele>
        <time>2022-12-10T12:08:12.194Z</time>
      </trkpt>
      <trkpt lat="48.27886" lon="-4.0901">
        <ele>107.140736</ele>
        <time>2022-12-10T12:08:15.183Z</time>
      </trkpt>
      <trkpt lat="48.27877" lon="-4.08998">
        <ele>106.381733</ele>
        <time>2022-12-10T12:08:18.186Z</time>
      </trkpt>
      <trkpt lat="48.27868" lon="-4.08985">
        <ele>105.583662</ele>
        <time>2022-12-10T12:08:21.186Z</time>
      </trkpt>
      <trkpt lat="48.2786" lon="-4.08972">
        <ele>104.839706</ele>
        <time>2022-12-10T12:08:24.188Z</time>
      </trkpt>
      <trkpt lat="48.27851" lon="-4.0896">
        <ele>104.098725</ele>
        <time>2022-12-10T12:08:27.193Z</time>
      </trkpt>
      <trkpt lat="48.27843" lon="-4.08948">
        <ele>103.364384</ele>
        <time>2022-12-10T12:08:30.190Z</time>
      </trkpt>
      <trkpt lat="48.27835" lon="-4.08936">
        <ele>102.655921</ele>
        <time>2022-12-10T12:08:33.180Z</time>
      </trkpt>
      <trkpt lat="48.27827" lon="-4.08925">
        <ele>101.961833</ele>
        <time>2022-12-10T12:08:36.189Z</time>
      </trkpt>
      <trkpt lat="48.27818" lon="-4.08912">
        <ele>101.20409</ele>
        <time>2022-12-10T12:08:39.160Z</time>
      </trkpt>
      <trkpt lat="48.27809" lon="-4.089">
        <ele>100.434142</ele>
        <time>2022-12-10T12:08:42.187Z</time>
      </trkpt>
      <trkpt lat="48.278" lon="-4.08887">
        <ele>99.649222</ele>
        <time>2022-12-10T12:08:45.189Z</time>
      </trkpt>
      <trkpt lat="48.27791" lon="-4.08874">
        <ele>98.850017</ele>
        <time>2022-12-10T12:08:48.194Z</time>
      </trkpt>
      <trkpt lat="48.27781" lon="-4.08861">
        <ele>98.04073</ele>
        <time>2022-12-10T12:08:51.183Z</time>
      </trkpt>
      <trkpt lat="48.27772" lon="-4.08848">
        <ele>97.263905</ele>
        <time>2022-12-10T12:08:54.189Z</time>
      </trkpt>
      <trkpt lat="48.27763" lon="-4.08836">
        <ele>96.641935</ele>
        <time>2022-12-10T12:08:57.172Z</time>
      </trkpt>
      <trkpt lat="48.27754" lon="-4.08822">
        <ele>96.364673</ele>
        <time>2022-12-10T12:09:00.172Z</time>
      </trkpt>
      <trkpt lat="48.27747" lon="-4.08813">
        <ele>96.172063</ele>
        <time>2022-12-10T12:09:02.191Z</time>
      </trkpt>
      <trkpt lat="48.27741" lon="-4.08802">
        <ele>95.971375</ele>
        <time>2022-12-10T12:09:04.190Z</time>
      </trkpt>
      <trkpt lat="48.27734" lon="-4.08793">
        <ele>95.775757</ele>
        <time>2022-12-10T12:09:06.187Z</time>
      </trkpt>
      <trkpt lat="48.27726" lon="-4.08779">
        <ele>95.506722</ele>
        <time>2022-12-10T12:09:09.188Z</time>
      </trkpt>
      <trkpt lat="48.27715" lon="-4.08766">
        <ele>95.220888</ele>
        <time>2022-12-10T12:09:12.195Z</time>
      </trkpt>
      <trkpt lat="48.27706" lon="-4.08753">
        <ele>94.947767</ele>
        <time>2022-12-10T12:09:15.187Z</time>
      </trkpt>
      <trkpt lat="48.27696" lon="-4.08742">
        <ele>94.680589</ele>
        <time>2022-12-10T12:09:18.195Z</time>
      </trkpt>
      <trkpt lat="48.27686" lon="-4.08732">
        <ele>94.428218</ele>
        <time>2022-12-10T12:09:21.164Z</time>
      </trkpt>
      <trkpt lat="48.27676" lon="-4.08723">
        <ele>94.168327</ele>
        <time>2022-12-10T12:09:24.184Z</time>
      </trkpt>
      <trkpt lat="48.27664" lon="-4.08715">
        <ele>93.88914</ele>
        <time>2022-12-10T12:09:27.169Z</time>
      </trkpt>
      <trkpt lat="48.27651" lon="-4.08709">
        <ele>93.609175</ele>
        <time>2022-12-10T12:09:30.193Z</time>
      </trkpt>
      <trkpt lat="48.27639" lon="-4.08704">
        <ele>93.345076</ele>
        <time>2022-12-10T12:09:33.167Z</time>
      </trkpt>
      <trkpt lat="48.27628" lon="-4.08701">
        <ele>93.101088</ele>
        <time>2022-12-10T12:09:36.166Z</time>
      </trkpt>
      <trkpt lat="48.27618" lon="-4.08699">
        <ele>92.877949</ele>
        <time>2022-12-10T12:09:39.191Z</time>
      </trkpt>
      <trkpt lat="48.27608" lon="-4.08698">
        <ele>92.689313</ele>
        <time>2022-12-10T12:09:42.187Z</time>
      </trkpt>
      <trkpt lat="48.27599" lon="-4.08697">
        <ele>92.511963</ele>
        <time>2022-12-10T12:09:45.184Z</time>
      </trkpt>
      <trkpt lat="48.27587" lon="-4.08696">
        <ele>92.296436</ele>
        <time>2022-12-10T12:09:49.189Z</time>
      </trkpt>
      <trkpt lat="48.27577" lon="-4.08696">
        <ele>92.094453</ele>
        <time>2022-12-10T12:09:53.169Z</time>
      </trkpt>
      <trkpt lat="48.27566" lon="-4.08695">
        <ele>91.894391</ele>
        <time>2022-12-10T12:09:57.189Z</time>
      </trkpt>
      <trkpt lat="48.27555" lon="-4.08695">
        <ele>91.680912</ele>
        <time>2022-12-10T12:10:01.188Z</time>
      </trkpt>
      <trkpt lat="48.27546" lon="-4.08696">
        <ele>91.491963</ele>
        <time>2022-12-10T12:10:04.189Z</time>
      </trkpt>
      <trkpt lat="48.27535" lon="-4.08696">
        <ele>91.292004</ele>
        <time>2022-12-10T12:10:07.192Z</time>
      </trkpt>
      <trkpt lat="48.27525" lon="-4.08697">
        <ele>91.101551</ele>
        <time>2022-12-10T12:10:10.191Z</time>
      </trkpt>
      <trkpt lat="48.27514" lon="-4.08697">
        <ele>90.889958</ele>
        <time>2022-12-10T12:10:14.185Z</time>
      </trkpt>
      <trkpt lat="48.27504" lon="-4.08698">
        <ele>90.701426</ele>
        <time>2022-12-10T12:10:17.191Z</time>
      </trkpt>
      <trkpt lat="48.27494" lon="-4.08698">
        <ele>90.507231</ele>
        <time>2022-12-10T12:10:20.189Z</time>
      </trkpt>
      <trkpt lat="48.27484" lon="-4.08698">
        <ele>90.314856</ele>
        <time>2022-12-10T12:10:23.189Z</time>
      </trkpt>
      <trkpt lat="48.27474" lon="-4.08697">
        <ele>90.122315</ele>
        <time>2022-12-10T12:10:26.189Z</time>
      </trkpt>
      <trkpt lat="48.27464" lon="-4.08697">
        <ele>89.914649</ele>
        <time>2022-12-10T12:10:29.190Z</time>
      </trkpt>
      <trkpt lat="48.27453" lon="-4.08698">
        <ele>89.7107</ele>
        <time>2022-12-10T12:10:32.189Z</time>
      </trkpt>
      <trkpt lat="48.27443" lon="-4.08698">
        <ele>89.514519</ele>
        <time>2022-12-10T12:10:35.187Z</time>
      </trkpt>
      <trkpt lat="48.27432" lon="-4.08699">
        <ele>89.402805</ele>
        <time>2022-12-10T12:10:38.192Z</time>
      </trkpt>
      <trkpt lat="48.27422" lon="-4.08699">
        <ele>89.360495</ele>
        <time>2022-12-10T12:10:41.190Z</time>
      </trkpt>
      <trkpt lat="48.27411" lon="-4.08699">
        <ele>89.317378</ele>
        <time>2022-12-10T12:10:44.192Z</time>
      </trkpt>
      <trkpt lat="48.274" lon="-4.08698">
        <ele>89.275457</ele>
        <time>2022-12-10T12:10:47.188Z</time>
      </trkpt>
      <trkpt lat="48.2739" lon="-4.08699">
        <ele>89.235832</ele>
        <time>2022-12-10T12:10:50.163Z</time>
      </trkpt>
      <trkpt lat="48.27381" lon="-4.087">
        <ele>89.199503</ele>
        <time>2022-12-10T12:10:53.183Z</time>
      </trkpt>
      <trkpt lat="48.27371" lon="-4.087">
        <ele>89.157582</ele>
        <time>2022-12-10T12:10:57.183Z</time>
      </trkpt>
      <trkpt lat="48.2736" lon="-4.08698">
        <ele>89.113011</ele>
        <time>2022-12-10T12:11:01.187Z</time>
      </trkpt>
      <trkpt lat="48.2735" lon="-4.08697">
        <ele>89.074873</ele>
        <time>2022-12-10T12:11:04.189Z</time>
      </trkpt>
      <trkpt lat="48.2734" lon="-4.08694">
        <ele>89.03246</ele>
        <time>2022-12-10T12:11:07.183Z</time>
      </trkpt>
      <trkpt lat="48.2733" lon="-4.08691">
        <ele>88.990597</ele>
        <time>2022-12-10T12:11:10.188Z</time>
      </trkpt>
      <trkpt lat="48.2732" lon="-4.08686">
        <ele>88.949555</ele>
        <time>2022-12-10T12:11:13.195Z</time>
      </trkpt>
      <trkpt lat="48.2731" lon="-4.0868">
        <ele>88.908645</ele>
        <time>2022-12-10T12:11:16.185Z</time>
      </trkpt>
      <trkpt lat="48.27301" lon="-4.08674">
        <ele>88.869405</ele>
        <time>2022-12-10T12:11:19.187Z</time>
      </trkpt>
      <trkpt lat="48.27293" lon="-4.08667">
        <ele>88.831587</ele>
        <time>2022-12-10T12:11:22.195Z</time>
      </trkpt>
      <trkpt lat="48.27285" lon="-4.0866">
        <ele>88.795263</ele>
        <time>2022-12-10T12:11:25.190Z</time>
      </trkpt>
      <trkpt lat="48.27276" lon="-4.08648">
        <ele>88.746957</ele>
        <time>2022-12-10T12:11:29.191Z</time>
      </trkpt>
      <trkpt lat="48.27269" lon="-4.08638">
        <ele>88.708448</ele>
        <time>2022-12-10T12:11:32.188Z</time>
      </trkpt>
      <trkpt lat="48.27263" lon="-4.08627">
        <ele>88.648384</ele>
        <time>2022-12-10T12:11:35.164Z</time>
      </trkpt>
      <trkpt lat="48.27256" lon="-4.08616">
        <ele>88.588207</ele>
        <time>2022-12-10T12:11:38.162Z</time>
      </trkpt>
      <trkpt lat="48.2725" lon="-4.08604">
        <ele>88.524451</ele>
        <time>2022-12-10T12:11:41.189Z</time>
      </trkpt>
      <trkpt lat="48.27243" lon="-4.08593">
        <ele>88.462824</ele>
        <time>2022-12-10T12:11:44.190Z</time>
      </trkpt>
      <trkpt lat="48.27236" lon="-4.08582">
        <ele>88.398887</ele>
        <time>2022-12-10T12:11:47.192Z</time>
      </trkpt>
      <trkpt lat="48.27229" lon="-4.0857">
        <ele>88.334093</ele>
        <time>2022-12-10T12:11:50.194Z</time>
      </trkpt>
      <trkpt lat="48.27222" lon="-4.08558">
        <ele>88.267959</ele>
        <time>2022-12-10T12:11:53.193Z</time>
      </trkpt>
      <trkpt lat="48.27215" lon="-4.08545">
        <ele>88.201431</ele>
        <time>2022-12-10T12:11:56.166Z</time>
      </trkpt>
      <trkpt lat="48.27209" lon="-4.08532">
        <ele>88.133754</ele>
        <time>2022-12-10T12:11:59.190Z</time>
      </trkpt>
      <trkpt lat="48.27203" lon="-4.08519">
        <ele>88.065319</ele>
        <time>2022-12-10T12:12:02.188Z</time>
      </trkpt>
      <trkpt lat="48.27196" lon="-4.08505">
        <ele>87.99684</ele>
        <time>2022-12-10T12:12:05.174Z</time>
      </trkpt>
      <trkpt lat="48.27189" lon="-4.08492">
        <ele>87.925407</ele>
        <time>2022-12-10T12:12:08.188Z</time>
      </trkpt>
      <trkpt lat="48.27181" lon="-4.08479">
        <ele>87.855397</ele>
        <time>2022-12-10T12:12:11.189Z</time>
      </trkpt>
      <trkpt lat="48.27174" lon="-4.08465">
        <ele>87.785451</ele>
        <time>2022-12-10T12:12:14.176Z</time>
      </trkpt>
      <trkpt lat="48.27168" lon="-4.08452">
        <ele>87.715235</ele>
        <time>2022-12-10T12:12:17.192Z</time>
      </trkpt>
      <trkpt lat="48.27161" lon="-4.08439">
        <ele>87.646704</ele>
        <time>2022-12-10T12:12:20.187Z</time>
      </trkpt>
      <trkpt lat="48.27154" lon="-4.08426">
        <ele>87.547576</ele>
        <time>2022-12-10T12:12:23.195Z</time>
      </trkpt>
      <trkpt lat="48.27147" lon="-4.08414">
        <ele>87.350212</ele>
        <time>2022-12-10T12:12:26.180Z</time>
      </trkpt>
      <trkpt lat="48.2714" lon="-4.08401">
        <ele>87.139348</ele>
        <time>2022-12-10T12:12:29.188Z</time>
      </trkpt>
      <trkpt lat="48.27134" lon="-4.08388">
        <ele>86.936261</ele>
        <time>2022-12-10T12:12:32.173Z</time>
      </trkpt>
      <trkpt lat="48.27127" lon="-4.08376">
        <ele>86.734981</ele>
        <time>2022-12-10T12:12:35.180Z</time>
      </trkpt>
      <trkpt lat="48.2712" lon="-4.08364">
        <ele>86.534017</ele>
        <time>2022-12-10T12:12:38.186Z</time>
      </trkpt>
      <trkpt lat="48.27113" lon="-4.08353">
        <ele>86.33618</ele>
        <time>2022-12-10T12:12:41.168Z</time>
      </trkpt>
      <trkpt lat="48.27107" lon="-4.0834">
        <ele>86.139011</ele>
        <time>2022-12-10T12:12:44.169Z</time>
      </trkpt>
      <trkpt lat="48.27101" lon="-4.08328">
        <ele>85.948623</ele>
        <time>2022-12-10T12:12:47.169Z</time>
      </trkpt>
      <trkpt lat="48.27094" lon="-4.08317">
        <ele>85.757139</ele>
        <time>2022-12-10T12:12:50.190Z</time>
      </trkpt>
      <trkpt lat="48.27088" lon="-4.08305">
        <ele>85.556379</ele>
        <time>2022-12-10T12:12:53.189Z</time>
      </trkpt>
      <trkpt lat="48.2708" lon="-4.08293">
        <ele>85.349091</ele>
        <time>2022-12-10T12:12:56.189Z</time>
      </trkpt>
      <trkpt lat="48.27072" lon="-4.0828">
        <ele>85.127522</ele>
        <time>2022-12-10T12:12:59.190Z</time>
      </trkpt>
      <trkpt lat="48.27064" lon="-4.08267">
        <ele>84.900188</ele>
        <time>2022-12-10T12:13:02.191Z</time>
      </trkpt>
      <trkpt lat="48.27055" lon="-4.08255">
        <ele>84.671841</ele>
        <time>2022-12-10T12:13:05.190Z</time>
      </trkpt>
      <trkpt lat="48.27046" lon="-4.08243">
        <ele>84.4428</ele>
        <time>2022-12-10T12:13:08.190Z</time>
      </trkpt>
      <trkpt lat="48.27037" lon="-4.08231">
        <ele>84.20546</ele>
        <time>2022-12-10T12:13:11.188Z</time>
      </trkpt>
      <trkpt lat="48.27026" lon="-4.08221">
        <ele>83.980587</ele>
        <time>2022-12-10T12:13:14.175Z</time>
      </trkpt>
      <trkpt lat="48.27016" lon="-4.08211">
        <ele>83.757519</ele>
        <time>2022-12-10T12:13:17.163Z</time>
      </trkpt>
      <trkpt lat="48.27005" lon="-4.08202">
        <ele>83.5289</ele>
        <time>2022-12-10T12:13:20.184Z</time>
      </trkpt>
      <trkpt lat="48.26994" lon="-4.08193">
        <ele>83.30112</ele>
        <time>2022-12-10T12:13:23.181Z</time>
      </trkpt>
      <trkpt lat="48.26983" lon="-4.08185">
        <ele>83.083386</ele>
        <time>2022-12-10T12:13:26.192Z</time>
      </trkpt>
      <trkpt lat="48.26972" lon="-4.08178">
        <ele>82.87207</ele>
        <time>2022-12-10T12:13:29.182Z</time>
      </trkpt>
      <trkpt lat="48.26961" lon="-4.08173">
        <ele>82.666057</ele>
        <time>2022-12-10T12:13:32.191Z</time>
      </trkpt>
      <trkpt lat="48.2695" lon="-4.08168">
        <ele>82.452554</ele>
        <time>2022-12-10T12:13:35.190Z</time>
      </trkpt>
      <trkpt lat="48.26939" lon="-4.08163">
        <ele>82.246597</ele>
        <time>2022-12-10T12:13:38.187Z</time>
      </trkpt>
      <trkpt lat="48.26928" lon="-4.0816">
        <ele>82.050786</ele>
        <time>2022-12-10T12:13:41.189Z</time>
      </trkpt>
      <trkpt lat="48.26919" lon="-4.08157">
        <ele>81.876339</ele>
        <time>2022-12-10T12:13:44.189Z</time>
      </trkpt>
      <trkpt lat="48.2691" lon="-4.08155">
        <ele>81.7118</ele>
        <time>2022-12-10T12:13:47.193Z</time>
      </trkpt>
      <trkpt lat="48.269" lon="-4.08152">
        <ele>81.520709</ele>
        <time>2022-12-10T12:13:50.191Z</time>
      </trkpt>
      <trkpt lat="48.26889" lon="-4.08148">
        <ele>81.320918</ele>
        <time>2022-12-10T12:13:53.164Z</time>
      </trkpt>
      <trkpt lat="48.26878" lon="-4.08143">
        <ele>81.120809</ele>
        <time>2022-12-10T12:13:56.181Z</time>
      </trkpt>
      <trkpt lat="48.26867" lon="-4.08137">
        <ele>80.913532</ele>
        <time>2022-12-10T12:13:59.190Z</time>
      </trkpt>
      <trkpt lat="48.26857" lon="-4.0813">
        <ele>80.810461</ele>
        <time>2022-12-10T12:14:02.193Z</time>
      </trkpt>
      <trkpt lat="48.26848" lon="-4.08122">
        <ele>80.709075</ele>
        <time>2022-12-10T12:14:05.169Z</time>
      </trkpt>
      <trkpt lat="48.26838" lon="-4.08113">
        <ele>80.605018</ele>
        <time>2022-12-10T12:14:08.188Z</time>
      </trkpt>
      <trkpt lat="48.26829" lon="-4.08102">
        <ele>80.495984</ele>
        <time>2022-12-10T12:14:11.166Z</time>
      </trkpt>
      <trkpt lat="48.2682" lon="-4.08092">
        <ele>80.3968</ele>
        <time>2022-12-10T12:14:14.192Z</time>
      </trkpt>
      <trkpt lat="48.26812" lon="-4.08081">
        <ele>80.295708</ele>
        <time>2022-12-10T12:14:17.191Z</time>
      </trkpt>
      <trkpt lat="48.26805" lon="-4.08069">
        <ele>80.19711</ele>
        <time>2022-12-10T12:14:20.186Z</time>
      </trkpt>
      <trkpt lat="48.26799" lon="-4.08054">
        <ele>80.093815</ele>
        <time>2022-12-10T12:14:23.168Z</time>
      </trkpt>
      <trkpt lat="48.26792" lon="-4.08039">
        <ele>79.982882</ele>
        <time>2022-12-10T12:14:26.170Z</time>
      </trkpt>
      <trkpt lat="48.26786" lon="-4.08022">
        <ele>79.866342</ele>
        <time>2022-12-10T12:14:29.189Z</time>
      </trkpt>
      <trkpt lat="48.26781" lon="-4.08005">
        <ele>79.746386</ele>
        <time>2022-12-10T12:14:32.188Z</time>
      </trkpt>
      <trkpt lat="48.26776" lon="-4.07986">
        <ele>79.622802</ele>
        <time>2022-12-10T12:14:35.189Z</time>
      </trkpt>
      <trkpt lat="48.26773" lon="-4.07972">
        <ele>79.537534</ele>
        <time>2022-12-10T12:14:37.189Z</time>
      </trkpt>
      <trkpt lat="48.2677" lon="-4.07959">
        <ele>79.453726</ele>
        <time>2022-12-10T12:14:39.188Z</time>
      </trkpt>
      <trkpt lat="48.26768" lon="-4.07946">
        <ele>79.367233</ele>
        <time>2022-12-10T12:14:41.194Z</time>
      </trkpt>
      <trkpt lat="48.26765" lon="-4.07931">
        <ele>79.275532</ele>
        <time>2022-12-10T12:14:43.180Z</time>
      </trkpt>
      <trkpt lat="48.26762" lon="-4.07917">
        <ele>80.083468</ele>
        <time>2022-12-10T12:14:45.191Z</time>
      </trkpt>
      <trkpt lat="48.2676" lon="-4.07904">
        <ele>80.968289</ele>
        <time>2022-12-10T12:14:47.191Z</time>
      </trkpt>
      <trkpt lat="48.26757" lon="-4.07891">
        <ele>81.856607</ele>
        <time>2022-12-10T12:14:49.191Z</time>
      </trkpt>
      <trkpt lat="48.26753" lon="-4.07873">
        <ele>83.131092</ele>
        <time>2022-12-10T12:14:52.191Z</time>
      </trkpt>
      <trkpt lat="48.26749" lon="-4.07854">
        <ele>84.39283</ele>
        <time>2022-12-10T12:14:55.189Z</time>
      </trkpt>
      <trkpt lat="48.26745" lon="-4.07837">
        <ele>85.567961</ele>
        <time>2022-12-10T12:14:58.197Z</time>
      </trkpt>
      <trkpt lat="48.26742" lon="-4.0782">
        <ele>86.704361</ele>
        <time>2022-12-10T12:15:01.187Z</time>
      </trkpt>
      <trkpt lat="48.26739" lon="-4.07804">
        <ele>87.787902</ele>
        <time>2022-12-10T12:15:04.190Z</time>
      </trkpt>
      <trkpt lat="48.26736" lon="-4.07789">
        <ele>88.815098</ele>
        <time>2022-12-10T12:15:07.190Z</time>
      </trkpt>
      <trkpt lat="48.26733" lon="-4.07774">
        <ele>89.827017</ele>
        <time>2022-12-10T12:15:10.183Z</time>
      </trkpt>
      <trkpt lat="48.26731" lon="-4.0776">
        <ele>90.816013</ele>
        <time>2022-12-10T12:15:13.185Z</time>
      </trkpt>
      <trkpt lat="48.26729" lon="-4.07745">
        <ele>91.764207</ele>
        <time>2022-12-10T12:15:16.185Z</time>
      </trkpt>
      <trkpt lat="48.26727" lon="-4.07732">
        <ele>92.668075</ele>
        <time>2022-12-10T12:15:19.162Z</time>
      </trkpt>
      <trkpt lat="48.26723" lon="-4.07716">
        <ele>93.76283</ele>
        <time>2022-12-10T12:15:23.179Z</time>
      </trkpt>
      <trkpt lat="48.2672" lon="-4.07703">
        <ele>94.68638</ele>
        <time>2022-12-10T12:15:26.190Z</time>
      </trkpt>
      <trkpt lat="48.26716" lon="-4.07688">
        <ele>95.717903</ele>
        <time>2022-12-10T12:15:29.179Z</time>
      </trkpt>
      <trkpt lat="48.26712" lon="-4.07673">
        <ele>96.788008</ele>
        <time>2022-12-10T12:15:32.194Z</time>
      </trkpt>
      <trkpt lat="48.26708" lon="-4.07658">
        <ele>95.618378</ele>
        <time>2022-12-10T12:15:35.191Z</time>
      </trkpt>
      <trkpt lat="48.26704" lon="-4.07644">
        <ele>94.239863</ele>
        <time>2022-12-10T12:15:38.193Z</time>
      </trkpt>
      <trkpt lat="48.26698" lon="-4.0763">
        <ele>92.87434</ele>
        <time>2022-12-10T12:15:41.168Z</time>
      </trkpt>
      <trkpt lat="48.26692" lon="-4.07618">
        <ele>91.537223</ele>
        <time>2022-12-10T12:15:44.190Z</time>
      </trkpt>
      <trkpt lat="48.26685" lon="-4.07607">
        <ele>90.183164</ele>
        <time>2022-12-10T12:15:47.165Z</time>
      </trkpt>
      <trkpt lat="48.26678" lon="-4.07598">
        <ele>88.92968</ele>
        <time>2022-12-10T12:15:50.165Z</time>
      </trkpt>
      <trkpt lat="48.2667" lon="-4.0759">
        <ele>87.699325</ele>
        <time>2022-12-10T12:15:53.192Z</time>
      </trkpt>
      <trkpt lat="48.26659" lon="-4.07582">
        <ele>86.133902</ele>
        <time>2022-12-10T12:15:57.170Z</time>
      </trkpt>
      <trkpt lat="48.2665" lon="-4.07577">
        <ele>84.910883</ele>
        <time>2022-12-10T12:16:00.162Z</time>
      </trkpt>
      <trkpt lat="48.26641" lon="-4.07572">
        <ele>83.596459</ele>
        <time>2022-12-10T12:16:03.164Z</time>
      </trkpt>
      <trkpt lat="48.26631" lon="-4.0757">
        <ele>82.268854</ele>
        <time>2022-12-10T12:16:06.179Z</time>
      </trkpt>
      <trkpt lat="48.26621" lon="-4.07568">
        <ele>81.001888</ele>
        <time>2022-12-10T12:16:09.190Z</time>
      </trkpt>
      <trkpt lat="48.26611" lon="-4.07569">
        <ele>79.651991</ele>
        <time>2022-12-10T12:16:12.166Z</time>
      </trkpt>
      <trkpt lat="48.266" lon="-4.07571">
        <ele>78.174918</ele>
        <time>2022-12-10T12:16:15.167Z</time>
      </trkpt>
      <trkpt lat="48.26588" lon="-4.07575">
        <ele>76.646172</ele>
        <time>2022-12-10T12:16:18.172Z</time>
      </trkpt>
      <trkpt lat="48.26578" lon="-4.07581">
        <ele>75.223971</ele>
        <time>2022-12-10T12:16:21.166Z</time>
      </trkpt>
      <trkpt lat="48.26568" lon="-4.07587">
        <ele>73.813782</ele>
        <time>2022-12-10T12:16:24.191Z</time>
      </trkpt>
      <trkpt lat="48.26558" lon="-4.07593">
        <ele>73.34305</ele>
        <time>2022-12-10T12:16:27.186Z</time>
      </trkpt>
      <trkpt lat="48.26546" lon="-4.076">
        <ele>73.377526</ele>
        <time>2022-12-10T12:16:30.189Z</time>
      </trkpt>
      <trkpt lat="48.26535" lon="-4.07608">
        <ele>73.413886</ele>
        <time>2022-12-10T12:16:33.180Z</time>
      </trkpt>
      <trkpt lat="48.26523" lon="-4.07617">
        <ele>73.451</ele>
        <time>2022-12-10T12:16:36.188Z</time>
      </trkpt>
      <trkpt lat="48.26511" lon="-4.07625">
        <ele>73.487457</ele>
        <time>2022-12-10T12:16:39.179Z</time>
      </trkpt>
      <trkpt lat="48.26501" lon="-4.07633">
        <ele>73.52056</ele>
        <time>2022-12-10T12:16:42.175Z</time>
      </trkpt>
      <trkpt lat="48.2649" lon="-4.0764">
        <ele>73.554135</ele>
        <time>2022-12-10T12:16:45.189Z</time>
      </trkpt>
      <trkpt lat="48.26479" lon="-4.07648">
        <ele>73.589057</ele>
        <time>2022-12-10T12:16:48.187Z</time>
      </trkpt>
      <trkpt lat="48.26468" lon="-4.07655">
        <ele>73.623981</ele>
        <time>2022-12-10T12:16:51.189Z</time>
      </trkpt>
      <trkpt lat="48.26457" lon="-4.07663">
        <ele>73.65791</ele>
        <time>2022-12-10T12:16:54.169Z</time>
      </trkpt>
      <trkpt lat="48.26445" lon="-4.07671">
        <ele>73.69427</ele>
        <time>2022-12-10T12:16:57.185Z</time>
      </trkpt>
      <trkpt lat="48.26434" lon="-4.07679">
        <ele>73.72949</ele>
        <time>2022-12-10T12:17:00.174Z</time>
      </trkpt>
      <trkpt lat="48.26423" lon="-4.07685">
        <ele>73.762738</ele>
        <time>2022-12-10T12:17:03.190Z</time>
      </trkpt>
      <trkpt lat="48.26413" lon="-4.07689">
        <ele>73.791738</ele>
        <time>2022-12-10T12:17:06.192Z</time>
      </trkpt>
      <trkpt lat="48.26402" lon="-4.07692">
        <ele>73.821544</ele>
        <time>2022-12-10T12:17:09.165Z</time>
      </trkpt>
      <trkpt lat="48.26392" lon="-4.07692">
        <ele>73.293827</ele>
        <time>2022-12-10T12:17:12.173Z</time>
      </trkpt>
      <trkpt lat="48.2638" lon="-4.07688">
        <ele>72.468127</ele>
        <time>2022-12-10T12:17:15.169Z</time>
      </trkpt>
      <trkpt lat="48.26369" lon="-4.07681">
        <ele>71.597874</ele>
        <time>2022-12-10T12:17:18.172Z</time>
      </trkpt>
      <trkpt lat="48.26359" lon="-4.0767">
        <ele>70.726668</ele>
        <time>2022-12-10T12:17:21.169Z</time>
      </trkpt>
      <trkpt lat="48.2635" lon="-4.07657">
        <ele>69.893827</ele>
        <time>2022-12-10T12:17:24.187Z</time>
      </trkpt>
      <trkpt lat="48.26343" lon="-4.07643">
        <ele>69.055327</ele>
        <time>2022-12-10T12:17:27.181Z</time>
      </trkpt>
      <trkpt lat="48.26337" lon="-4.07628">
        <ele>68.213193</ele>
        <time>2022-12-10T12:17:30.185Z</time>
      </trkpt>
      <trkpt lat="48.26331" lon="-4.07612">
        <ele>67.371058</ele>
        <time>2022-12-10T12:17:33.177Z</time>
      </trkpt>
      <trkpt lat="48.26325" lon="-4.07597">
        <ele>66.524482</ele>
        <time>2022-12-10T12:17:36.182Z</time>
      </trkpt>
      <trkpt lat="48.26319" lon="-4.07581">
        <ele>65.695891</ele>
        <time>2022-12-10T12:17:39.186Z</time>
      </trkpt>
      <trkpt lat="48.26314" lon="-4.07566">
        <ele>64.920139</ele>
        <time>2022-12-10T12:17:42.165Z</time>
      </trkpt>
      <trkpt lat="48.26308" lon="-4.07554">
        <ele>64.214138</ele>
        <time>2022-12-10T12:17:45.169Z</time>
      </trkpt>
      <trkpt lat="48.26301" lon="-4.07543">
        <ele>63.445918</ele>
        <time>2022-12-10T12:17:48.169Z</time>
      </trkpt>
      <trkpt lat="48.26292" lon="-4.07532">
        <ele>62.636235</ele>
        <time>2022-12-10T12:17:51.166Z</time>
      </trkpt>
      <trkpt lat="48.26282" lon="-4.07524">
        <ele>61.872987</ele>
        <time>2022-12-10T12:17:54.165Z</time>
      </trkpt>
      <trkpt lat="48.26273" lon="-4.0752">
        <ele>61.199776</ele>
        <time>2022-12-10T12:17:57.205Z</time>
      </trkpt>
      <trkpt lat="48.26264" lon="-4.07521">
        <ele>61.690764</ele>
        <time>2022-12-10T12:18:00.165Z</time>
      </trkpt>
      <trkpt lat="48.26252" lon="-4.07522">
        <ele>62.315634</ele>
        <time>2022-12-10T12:18:04.187Z</time>
      </trkpt>
      <trkpt lat="48.26242" lon="-4.07525">
        <ele>62.896641</ele>
        <time>2022-12-10T12:18:08.193Z</time>
      </trkpt>
      <trkpt lat="48.26232" lon="-4.07531">
        <ele>63.456502</ele>
        <time>2022-12-10T12:18:12.194Z</time>
      </trkpt>
      <trkpt lat="48.26223" lon="-4.07537">
        <ele>63.997531</ele>
        <time>2022-12-10T12:18:16.201Z</time>
      </trkpt>
      <trkpt lat="48.26215" lon="-4.07543">
        <ele>64.528632</ele>
        <time>2022-12-10T12:18:20.189Z</time>
      </trkpt>
      <trkpt lat="48.26207" lon="-4.0755">
        <ele>65.02705</ele>
        <time>2022-12-10T12:18:24.189Z</time>
      </trkpt>
      <trkpt lat="48.26198" lon="-4.07558">
        <ele>65.5767</ele>
        <time>2022-12-10T12:18:28.190Z</time>
      </trkpt>
      <trkpt lat="48.2619" lon="-4.07565">
        <ele>66.097164</ele>
        <time>2022-12-10T12:18:32.190Z</time>
      </trkpt>
      <trkpt lat="48.26182" lon="-4.07572">
        <ele>66.597867</ele>
        <time>2022-12-10T12:18:36.193Z</time>
      </trkpt>
      <trkpt lat="48.26173" lon="-4.07581">
        <ele>67.194452</ele>
        <time>2022-12-10T12:18:41.182Z</time>
      </trkpt>
      <trkpt lat="48.26164" lon="-4.0759">
        <ele>67.789001</ele>
        <time>2022-12-10T12:18:46.191Z</time>
      </trkpt>
      <trkpt lat="48.26156" lon="-4.07601">
        <ele>68.398458</ele>
        <time>2022-12-10T12:18:51.174Z</time>
      </trkpt>
      <trkpt lat="48.26148" lon="-4.07613">
        <ele>69.018945</ele>
        <time>2022-12-10T12:18:56.193Z</time>
      </trkpt>
      <trkpt lat="48.26141" lon="-4.07623">
        <ele>69.53705</ele>
        <time>2022-12-10T12:19:00.171Z</time>
      </trkpt>
      <trkpt lat="48.26135" lon="-4.07634">
        <ele>70.078587</ele>
        <time>2022-12-10T12:19:05.186Z</time>
      </trkpt>
      <trkpt lat="48.26128" lon="-4.07645">
        <ele>70.617482</ele>
        <time>2022-12-10T12:19:10.187Z</time>
      </trkpt>
      <trkpt lat="48.26122" lon="-4.07657">
        <ele>71.13669</ele>
        <time>2022-12-10T12:19:15.181Z</time>
      </trkpt>
      <trkpt lat="48.26116" lon="-4.07669">
        <ele>71.508612</ele>
        <time>2022-12-10T12:19:20.190Z</time>
      </trkpt>
      <trkpt lat="48.26111" lon="-4.07681">
        <ele>71.884131</ele>
        <time>2022-12-10T12:19:26.164Z</time>
      </trkpt>
      <trkpt lat="48.26107" lon="-4.07694">
        <ele>72.23582</ele>
        <time>2022-12-10T12:19:32.173Z</time>
      </trkpt>
      <trkpt lat="48.26103" lon="-4.07707">
        <ele>72.610119</ele>
        <time>2022-12-10T12:19:38.170Z</time>
      </trkpt>
      <trkpt lat="48.26099" lon="-4.0772">
        <ele>72.953365</ele>
        <time>2022-12-10T12:19:43.164Z</time>
      </trkpt>
      <trkpt lat="48.26095" lon="-4.07734">
        <ele>73.33883</ele>
        <time>2022-12-10T12:19:48.175Z</time>
      </trkpt>
      <trkpt lat="48.2609" lon="-4.07747">
        <ele>73.720548</ele>
        <time>2022-12-10T12:19:53.189Z</time>
      </trkpt>
      <trkpt lat="48.26086" lon="-4.07761">
        <ele>74.110088</ele>
        <time>2022-12-10T12:19:58.191Z</time>
      </trkpt>
      <trkpt lat="48.26082" lon="-4.07775">
        <ele>74.491123</ele>
        <time>2022-12-10T12:20:03.165Z</time>
      </trkpt>
      <trkpt lat="48.26077" lon="-4.07789">
        <ele>74.88752</ele>
        <time>2022-12-10T12:20:08.193Z</time>
      </trkpt>
      <trkpt lat="48.26071" lon="-4.07802">
        <ele>75.273537</ele>
        <time>2022-12-10T12:20:13.168Z</time>
      </trkpt>
      <trkpt lat="48.26067" lon="-4.07816">
        <ele>75.68133</ele>
        <time>2022-12-10T12:20:18.189Z</time>
      </trkpt>
      <trkpt lat="48.26063" lon="-4.0783">
        <ele>76.060778</ele>
        <time>2022-12-10T12:20:23.194Z</time>
      </trkpt>
      <trkpt lat="48.26058" lon="-4.07843">
        <ele>76.429593</ele>
        <time>2022-12-10T12:20:29.168Z</time>
      </trkpt>
      <trkpt lat="48.26054" lon="-4.07855">
        <ele>76.787737</ele>
        <time>2022-12-10T12:20:34.174Z</time>
      </trkpt>
      <trkpt lat="48.26049" lon="-4.07867">
        <ele>77.133006</ele>
        <time>2022-12-10T12:20:39.184Z</time>
      </trkpt>
      <trkpt lat="48.26044" lon="-4.0788">
        <ele>77.508962</ele>
        <time>2022-12-10T12:20:44.165Z</time>
      </trkpt>
      <trkpt lat="48.26039" lon="-4.07894">
        <ele>77.893792</ele>
        <time>2022-12-10T12:20:50.177Z</time>
      </trkpt>
      <trkpt lat="48.26035" lon="-4.07906">
        <ele>78.086419</ele>
        <time>2022-12-10T12:20:56.175Z</time>
      </trkpt>
      <trkpt lat="48.2603" lon="-4.07919">
        <ele>78.300926</ele>
        <time>2022-12-10T12:21:01.174Z</time>
      </trkpt>
      <trkpt lat="48.26023" lon="-4.07931">
        <ele>78.522388</ele>
        <time>2022-12-10T12:21:06.167Z</time>
      </trkpt>
      <trkpt lat="48.26017" lon="-4.07943">
        <ele>78.742269</ele>
        <time>2022-12-10T12:21:11.171Z</time>
      </trkpt>
      <trkpt lat="48.26011" lon="-4.07955">
        <ele>78.957317</ele>
        <time>2022-12-10T12:21:16.184Z</time>
      </trkpt>
      <trkpt lat="48.26004" lon="-4.07967">
        <ele>79.173417</ele>
        <time>2022-12-10T12:21:21.182Z</time>
      </trkpt>
      <trkpt lat="48.25996" lon="-4.07977">
        <ele>79.386972</ele>
        <time>2022-12-10T12:21:26.184Z</time>
      </trkpt>
      <trkpt lat="48.2599" lon="-4.07988">
        <ele>79.590596</ele>
        <time>2022-12-10T12:21:31.170Z</time>
      </trkpt>
      <trkpt lat="48.25983" lon="-4.07999">
        <ele>79.796725</ele>
        <time>2022-12-10T12:21:36.189Z</time>
      </trkpt>
      <trkpt lat="48.25976" lon="-4.08009">
        <ele>80.008437</ele>
        <time>2022-12-10T12:21:41.178Z</time>
      </trkpt>
      <trkpt lat="48.25968" lon="-4.08019">
        <ele>80.226104</ele>
        <time>2022-12-10T12:21:46.183Z</time>
      </trkpt>
      <trkpt lat="48.25961" lon="-4.08029">
        <ele>80.436264</ele>
        <time>2022-12-10T12:21:51.179Z</time>
      </trkpt>
      <trkpt lat="48.25954" lon="-4.08039">
        <ele>80.640452</ele>
        <time>2022-12-10T12:21:56.191Z</time>
      </trkpt>
      <trkpt lat="48.25948" lon="-4.08051">
        <ele>80.847856</ele>
        <time>2022-12-10T12:22:01.166Z</time>
      </trkpt>
      <trkpt lat="48.25941" lon="-4.08061">
        <ele>81.054466</ele>
        <time>2022-12-10T12:22:06.183Z</time>
      </trkpt>
      <trkpt lat="48.25934" lon="-4.08072">
        <ele>81.258295</ele>
        <time>2022-12-10T12:22:11.190Z</time>
      </trkpt>
      <trkpt lat="48.25927" lon="-4.08082">
        <ele>81.462105</ele>
        <time>2022-12-10T12:22:16.191Z</time>
      </trkpt>
      <trkpt lat="48.2592" lon="-4.08092">
        <ele>81.672841</ele>
        <time>2022-12-10T12:22:21.170Z</time>
      </trkpt>
      <trkpt lat="48.25914" lon="-4.08103">
        <ele>82.281254</ele>
        <time>2022-12-10T12:22:26.174Z</time>
      </trkpt>
      <trkpt lat="48.25906" lon="-4.0811">
        <ele>82.902499</ele>
        <time>2022-12-10T12:22:31.167Z</time>
      </trkpt>
      <trkpt lat="48.25898" lon="-4.0812">
        <ele>83.629136</ele>
        <time>2022-12-10T12:22:37.179Z</time>
      </trkpt>
      <trkpt lat="48.25889" lon="-4.08126">
        <ele>84.287</ele>
        <time>2022-12-10T12:22:42.191Z</time>
      </trkpt>
      <trkpt lat="48.25881" lon="-4.08132">
        <ele>84.938699</ele>
        <time>2022-12-10T12:22:47.172Z</time>
      </trkpt>
      <trkpt lat="48.25872" lon="-4.08139">
        <ele>85.594968</ele>
        <time>2022-12-10T12:22:52.191Z</time>
      </trkpt>
      <trkpt lat="48.25863" lon="-4.08145">
        <ele>86.245242</ele>
        <time>2022-12-10T12:22:57.168Z</time>
      </trkpt>
      <trkpt lat="48.25855" lon="-4.0815">
        <ele>86.896012</ele>
        <time>2022-12-10T12:23:02.184Z</time>
      </trkpt>
      <trkpt lat="48.25845" lon="-4.08153">
        <ele>87.544</ele>
        <time>2022-12-10T12:23:07.187Z</time>
      </trkpt>
      <trkpt lat="48.25836" lon="-4.08158">
        <ele>88.225905</ele>
        <time>2022-12-10T12:23:12.190Z</time>
      </trkpt>
      <trkpt lat="48.25826" lon="-4.0816">
        <ele>88.906584</ele>
        <time>2022-12-10T12:23:17.174Z</time>
      </trkpt>
      <trkpt lat="48.25816" lon="-4.08164">
        <ele>89.607041</ele>
        <time>2022-12-10T12:23:22.184Z</time>
      </trkpt>
      <trkpt lat="48.25807" lon="-4.08167">
        <ele>90.267581</ele>
        <time>2022-12-10T12:23:27.186Z</time>
      </trkpt>
      <trkpt lat="48.25797" lon="-4.0817">
        <ele>90.939943</ele>
        <time>2022-12-10T12:23:32.193Z</time>
      </trkpt>
      <trkpt lat="48.25788" lon="-4.08173">
        <ele>91.570759</ele>
        <time>2022-12-10T12:23:37.168Z</time>
      </trkpt>
      <trkpt lat="48.25779" lon="-4.08178">
        <ele>92.21045</ele>
        <time>2022-12-10T12:23:42.175Z</time>
      </trkpt>
      <trkpt lat="48.2577" lon="-4.08185">
        <ele>92.902811</ele>
        <time>2022-12-10T12:23:47.173Z</time>
      </trkpt>
      <trkpt lat="48.25761" lon="-4.08192">
        <ele>93.622322</ele>
        <time>2022-12-10T12:23:53.172Z</time>
      </trkpt>
      <trkpt lat="48.25753" lon="-4.08203">
        <ele>94.260505</ele>
        <time>2022-12-10T12:23:59.166Z</time>
      </trkpt>
      <trkpt lat="48.25745" lon="-4.08214">
        <ele>94.817276</ele>
        <time>2022-12-10T12:24:05.169Z</time>
      </trkpt>
      <trkpt lat="48.25738" lon="-4.08226">
        <ele>95.378324</ele>
        <time>2022-12-10T12:24:11.168Z</time>
      </trkpt>
      <trkpt lat="48.25732" lon="-4.08238">
        <ele>95.908308</ele>
        <time>2022-12-10T12:24:16.168Z</time>
      </trkpt>
      <trkpt lat="48.25725" lon="-4.08249">
        <ele>96.44071</ele>
        <time>2022-12-10T12:24:21.181Z</time>
      </trkpt>
      <trkpt lat="48.25718" lon="-4.0826">
        <ele>96.95683</ele>
        <time>2022-12-10T12:24:26.171Z</time>
      </trkpt>
      <trkpt lat="48.25712" lon="-4.08271">
        <ele>97.471815</ele>
        <time>2022-12-10T12:24:31.194Z</time>
      </trkpt>
      <trkpt lat="48.25705" lon="-4.08282">
        <ele>97.990465</ele>
        <time>2022-12-10T12:24:36.192Z</time>
      </trkpt>
      <trkpt lat="48.25699" lon="-4.08293">
        <ele>98.502053</ele>
        <time>2022-12-10T12:24:41.168Z</time>
      </trkpt>
      <trkpt lat="48.25692" lon="-4.08303">
        <ele>99.018355</ele>
        <time>2022-12-10T12:24:46.195Z</time>
      </trkpt>
      <trkpt lat="48.25685" lon="-4.08315">
        <ele>99.540683</ele>
        <time>2022-12-10T12:24:51.188Z</time>
      </trkpt>
      <trkpt lat="48.25678" lon="-4.08325">
        <ele>100.078736</ele>
        <time>2022-12-10T12:24:56.189Z</time>
      </trkpt>
      <trkpt lat="48.25669" lon="-4.08335">
        <ele>100.642365</ele>
        <time>2022-12-10T12:25:02.187Z</time>
      </trkpt>
      <trkpt lat="48.25662" lon="-4.08342">
        <ele>101.117026</ele>
        <time>2022-12-10T12:25:07.166Z</time>
      </trkpt>
      <trkpt lat="48.25654" lon="-4.08351">
        <ele>101.630403</ele>
        <time>2022-12-10T12:25:13.173Z</time>
      </trkpt>
      <trkpt lat="48.25645" lon="-4.0836">
        <ele>102.182522</ele>
        <time>2022-12-10T12:25:19.170Z</time>
      </trkpt>
      <trkpt lat="48.25637" lon="-4.08367">
        <ele>102.662958</ele>
        <time>2022-12-10T12:25:24.183Z</time>
      </trkpt>
      <trkpt lat="48.25629" lon="-4.08375">
        <ele>103.175084</ele>
        <time>2022-12-10T12:25:29.189Z</time>
      </trkpt>
      <trkpt lat="48.2562" lon="-4.08384">
        <ele>103.733342</ele>
        <time>2022-12-10T12:25:35.178Z</time>
      </trkpt>
      <trkpt lat="48.25612" lon="-4.08394">
        <ele>104.281729</ele>
        <time>2022-12-10T12:25:41.165Z</time>
      </trkpt>
      <trkpt lat="48.25604" lon="-4.08406">
        <ele>104.848629</ele>
        <time>2022-12-10T12:25:47.171Z</time>
      </trkpt>
      <trkpt lat="48.256" lon="-4.08418">
        <ele>105.319993</ele>
        <time>2022-12-10T12:25:52.172Z</time>
      </trkpt>
      <trkpt lat="48.25597" lon="-4.08431">
        <ele>105.809515</ele>
        <time>2022-12-10T12:25:57.174Z</time>
      </trkpt>
      <trkpt lat="48.25595" lon="-4.08446">
        <ele>106.35984</ele>
        <time>2022-12-10T12:26:03.167Z</time>
      </trkpt>
      <trkpt lat="48.25594" lon="-4.08462">
        <ele>106.887969</ele>
        <time>2022-12-10T12:26:09.172Z</time>
      </trkpt>
      <trkpt lat="48.25594" lon="-4.08477">
        <ele>107.4298</ele>
        <time>2022-12-10T12:26:15.168Z</time>
      </trkpt>
      <trkpt lat="48.25594" lon="-4.08491">
        <ele>107.905469</ele>
        <time>2022-12-10T12:26:20.183Z</time>
      </trkpt>
      <trkpt lat="48.25592" lon="-4.08506">
        <ele>108.457963</ele>
        <time>2022-12-10T12:26:26.174Z</time>
      </trkpt>
      <trkpt lat="48.25588" lon="-4.08519">
        <ele>108.944804</ele>
        <time>2022-12-10T12:26:31.186Z</time>
      </trkpt>
      <trkpt lat="48.25584" lon="-4.08534">
        <ele>109.486399</ele>
        <time>2022-12-10T12:26:37.178Z</time>
      </trkpt>
      <trkpt lat="48.25579" lon="-4.08548">
        <ele>110.034912</ele>
        <time>2022-12-10T12:26:43.172Z</time>
      </trkpt>
      <trkpt lat="48.25573" lon="-4.08558">
        <ele>110.50858</ele>
        <time>2022-12-10T12:26:48.173Z</time>
      </trkpt>
      <trkpt lat="48.25568" lon="-4.0857">
        <ele>110.982755</ele>
        <time>2022-12-10T12:26:53.190Z</time>
      </trkpt>
      <trkpt lat="48.25563" lon="-4.08581">
        <ele>111.471181</ele>
        <time>2022-12-10T12:26:58.189Z</time>
      </trkpt>
      <trkpt lat="48.25558" lon="-4.08593">
        <ele>111.968429</ele>
        <time>2022-12-10T12:27:03.175Z</time>
      </trkpt>
      <trkpt lat="48.25552" lon="-4.08607">
        <ele>112.514954</ele>
        <time>2022-12-10T12:27:09.175Z</time>
      </trkpt>
      <trkpt lat="48.25546" lon="-4.08617">
        <ele>112.9964</ele>
        <time>2022-12-10T12:27:14.176Z</time>
      </trkpt>
      <trkpt lat="48.25538" lon="-4.0863">
        <ele>113.506116</ele>
        <time>2022-12-10T12:27:21.169Z</time>
      </trkpt>
      <trkpt lat="48.25531" lon="-4.08642">
        <ele>114.018967</ele>
        <time>2022-12-10T12:27:26.192Z</time>
      </trkpt>
      <trkpt lat="48.25522" lon="-4.08649">
        <ele>114.49492</ele>
        <time>2022-12-10T12:27:31.172Z</time>
      </trkpt>
      <trkpt lat="48.25513" lon="-4.08653">
        <ele>114.926174</ele>
        <time>2022-12-10T12:27:36.187Z</time>
      </trkpt>
      <trkpt lat="48.25503" lon="-4.08652">
        <ele>115.358118</ele>
        <time>2022-12-10T12:27:41.171Z</time>
      </trkpt>
      <trkpt lat="48.25493" lon="-4.0865">
        <ele>115.854084</ele>
        <time>2022-12-10T12:27:47.165Z</time>
      </trkpt>
      <trkpt lat="48.25483" lon="-4.08644">
        <ele>116.325488</ele>
        <time>2022-12-10T12:27:53.181Z</time>
      </trkpt>
      <trkpt lat="48.25474" lon="-4.08636">
        <ele>116.818099</ele>
        <time>2022-12-10T12:27:59.164Z</time>
      </trkpt>
      <trkpt lat="48.25468" lon="-4.08624">
        <ele>117.312496</ele>
        <time>2022-12-10T12:28:07.170Z</time>
      </trkpt>
      <trkpt lat="48.25462" lon="-4.0861">
        <ele>117.80187</ele>
        <time>2022-12-10T12:28:13.189Z</time>
      </trkpt>
      <trkpt lat="48.25459" lon="-4.08596">
        <ele>118.24894</ele>
        <time>2022-12-10T12:28:18.165Z</time>
      </trkpt>
      <trkpt lat="48.25455" lon="-4.08584">
        <ele>118.678095</ele>
        <time>2022-12-10T12:28:23.197Z</time>
      </trkpt>
      <trkpt lat="48.25449" lon="-4.08575">
        <ele>119.056487</ele>
        <time>2022-12-10T12:29:01.930Z</time>
      </trkpt>
      <trkpt lat="48.25446" lon="-4.08561">
        <ele>119.529794</ele>
        <time>2022-12-10T12:42:42.174Z</time>
      </trkpt>
      <trkpt lat="48.25443" lon="-4.08548">
        <ele>119.965278</ele>
        <time>2022-12-10T12:42:47.172Z</time>
      </trkpt>
      <trkpt lat="48.2544" lon="-4.08534">
        <ele>120.409523</ele>
        <time>2022-12-10T12:42:52.184Z</time>
      </trkpt>
      <trkpt lat="48.25437" lon="-4.0852">
        <ele>120.865636</ele>
        <time>2022-12-10T12:42:57.181Z</time>
      </trkpt>
      <trkpt lat="48.25433" lon="-4.08507">
        <ele>121.315318</ele>
        <time>2022-12-10T12:43:02.190Z</time>
      </trkpt>
      <trkpt lat="48.25428" lon="-4.08495">
        <ele>121.782745</ele>
        <time>2022-12-10T12:43:07.185Z</time>
      </trkpt>
      <trkpt lat="48.25422" lon="-4.08484">
        <ele>122.246468</ele>
        <time>2022-12-10T12:43:12.178Z</time>
      </trkpt>
      <trkpt lat="48.25415" lon="-4.08474">
        <ele>122.683644</ele>
        <time>2022-12-10T12:43:17.179Z</time>
      </trkpt>
      <trkpt lat="48.25407" lon="-4.08467">
        <ele>123.151288</ele>
        <time>2022-12-10T12:43:22.179Z</time>
      </trkpt>
      <trkpt lat="48.25397" lon="-4.08463">
        <ele>123.649502</ele>
        <time>2022-12-10T12:43:27.183Z</time>
      </trkpt>
      <trkpt lat="48.25386" lon="-4.08462">
        <ele>124.188919</ele>
        <time>2022-12-10T12:43:32.184Z</time>
      </trkpt>
      <trkpt lat="48.25376" lon="-4.08464">
        <ele>124.672465</ele>
        <time>2022-12-10T12:43:37.171Z</time>
      </trkpt>
      <trkpt lat="48.25366" lon="-4.08468">
        <ele>125.153179</ele>
        <time>2022-12-10T12:43:42.205Z</time>
      </trkpt>
      <trkpt lat="48.25358" lon="-4.08475">
        <ele>125.638437</ele>
        <time>2022-12-10T12:43:47.182Z</time>
      </trkpt>
      <trkpt lat="48.25349" lon="-4.08484">
        <ele>126.132798</ele>
        <time>2022-12-10T12:43:52.176Z</time>
      </trkpt>
      <trkpt lat="48.25341" lon="-4.08493">
        <ele>126.621793</ele>
        <time>2022-12-10T12:43:57.177Z</time>
      </trkpt>
      <trkpt lat="48.25335" lon="-4.08504">
        <ele>127.070607</ele>
        <time>2022-12-10T12:44:02.172Z</time>
      </trkpt>
      <trkpt lat="48.2533" lon="-4.08517">
        <ele>127.58697</ele>
        <time>2022-12-10T12:44:08.186Z</time>
      </trkpt>
      <trkpt lat="48.25326" lon="-4.0853">
        <ele>128.031533</ele>
        <time>2022-12-10T12:44:13.183Z</time>
      </trkpt>
      <trkpt lat="48.25322" lon="-4.08545">
        <ele>128.546762</ele>
        <time>2022-12-10T12:44:19.175Z</time>
      </trkpt>
      <trkpt lat="48.25318" lon="-4.08558">
        <ele>129.01068</ele>
        <time>2022-12-10T12:44:24.180Z</time>
      </trkpt>
      <trkpt lat="48.25314" lon="-4.08571">
        <ele>129.473178</ele>
        <time>2022-12-10T12:44:29.179Z</time>
      </trkpt>
      <trkpt lat="48.25309" lon="-4.08583">
        <ele>129.940209</ele>
        <time>2022-12-10T12:44:34.188Z</time>
      </trkpt>
      <trkpt lat="48.25305" lon="-4.08596">
        <ele>130.3948</ele>
        <time>2022-12-10T12:44:39.191Z</time>
      </trkpt>
      <trkpt lat="48.253" lon="-4.08608">
        <ele>130.86049</ele>
        <time>2022-12-10T12:44:44.196Z</time>
      </trkpt>
      <trkpt lat="48.25294" lon="-4.08622">
        <ele>131.38775</ele>
        <time>2022-12-10T12:44:50.191Z</time>
      </trkpt>
      <trkpt lat="48.25289" lon="-4.08634">
        <ele>131.83368</ele>
        <time>2022-12-10T12:44:55.183Z</time>
      </trkpt>
      <trkpt lat="48.25283" lon="-4.08645">
        <ele>132.292287</ele>
        <time>2022-12-10T12:45:00.188Z</time>
      </trkpt>
      <trkpt lat="48.25277" lon="-4.08656">
        <ele>132.771766</ele>
        <time>2022-12-10T12:45:05.183Z</time>
      </trkpt>
      <trkpt lat="48.25272" lon="-4.08667">
        <ele>133.212609</ele>
        <time>2022-12-10T12:45:10.194Z</time>
      </trkpt>
      <trkpt lat="48.25267" lon="-4.08679">
        <ele>133.653484</ele>
        <time>2022-12-10T12:45:15.167Z</time>
      </trkpt>
      <trkpt lat="48.25262" lon="-4.08692">
        <ele>134.158936</ele>
        <time>2022-12-10T12:45:21.170Z</time>
      </trkpt>
      <trkpt lat="48.25257" lon="-4.08704">
        <ele>134.624422</ele>
        <time>2022-12-10T12:45:26.180Z</time>
      </trkpt>
      <trkpt lat="48.25254" lon="-4.08717">
        <ele>135.069562</ele>
        <time>2022-12-10T12:45:31.176Z</time>
      </trkpt>
      <trkpt lat="48.25251" lon="-4.08731">
        <ele>135.52395</ele>
        <time>2022-12-10T12:45:36.182Z</time>
      </trkpt>
      <trkpt lat="48.25248" lon="-4.08745">
        <ele>136.012268</ele>
        <time>2022-12-10T12:45:41.199Z</time>
      </trkpt>
      <trkpt lat="48.25246" lon="-4.08758">
        <ele>136.458418</ele>
        <time>2022-12-10T12:45:46.182Z</time>
      </trkpt>
      <trkpt lat="48.25242" lon="-4.08772">
        <ele>136.938455</ele>
        <time>2022-12-10T12:45:52.184Z</time>
      </trkpt>
      <trkpt lat="48.25235" lon="-4.08784">
        <ele>137.439339</ele>
        <time>2022-12-10T12:45:58.182Z</time>
      </trkpt>
      <trkpt lat="48.25229" lon="-4.08796">
        <ele>137.943571</ele>
        <time>2022-12-10T12:46:04.174Z</time>
      </trkpt>
      <trkpt lat="48.25221" lon="-4.08806">
        <ele>138.427182</ele>
        <time>2022-12-10T12:46:10.178Z</time>
      </trkpt>
      <trkpt lat="48.25214" lon="-4.08813">
        <ele>138.876746</ele>
        <time>2022-12-10T12:46:15.190Z</time>
      </trkpt>
      <trkpt lat="48.25206" lon="-4.0882">
        <ele>139.34053</ele>
        <time>2022-12-10T12:46:20.186Z</time>
      </trkpt>
      <trkpt lat="48.25197" lon="-4.08825">
        <ele>139.818154</ele>
        <time>2022-12-10T12:46:25.178Z</time>
      </trkpt>
      <trkpt lat="48.25188" lon="-4.08828">
        <ele>140.289786</ele>
        <time>2022-12-10T12:46:30.174Z</time>
      </trkpt>
      <trkpt lat="48.25179" lon="-4.08829">
        <ele>140.749785</ele>
        <time>2022-12-10T12:46:35.174Z</time>
      </trkpt>
      <trkpt lat="48.25169" lon="-4.08828">
        <ele>141.239379</ele>
        <time>2022-12-10T12:46:41.178Z</time>
      </trkpt>
      <trkpt lat="48.2516" lon="-4.08824">
        <ele>141.703346</ele>
        <time>2022-12-10T12:46:46.175Z</time>
      </trkpt>
      <trkpt lat="48.2515" lon="-4.08819">
        <ele>142.236139</ele>
        <time>2022-12-10T12:46:52.175Z</time>
      </trkpt>
      <trkpt lat="48.25141" lon="-4.08812">
        <ele>142.758111</ele>
        <time>2022-12-10T12:46:58.175Z</time>
      </trkpt>
      <trkpt lat="48.25133" lon="-4.08805">
        <ele>143.223655</ele>
        <time>2022-12-10T12:47:03.181Z</time>
      </trkpt>
      <trkpt lat="48.25125" lon="-4.08796">
        <ele>143.709906</ele>
        <time>2022-12-10T12:47:08.191Z</time>
      </trkpt>
      <trkpt lat="48.25119" lon="-4.08787">
        <ele>144.180868</ele>
        <time>2022-12-10T12:47:13.191Z</time>
      </trkpt>
      <trkpt lat="48.25112" lon="-4.08776">
        <ele>144.645891</ele>
        <time>2022-12-10T12:47:18.180Z</time>
      </trkpt>
      <trkpt lat="48.25105" lon="-4.08766">
        <ele>145.183547</ele>
        <time>2022-12-10T12:47:24.182Z</time>
      </trkpt>
      <trkpt lat="48.25097" lon="-4.08757">
        <ele>145.662094</ele>
        <time>2022-12-10T12:47:29.180Z</time>
      </trkpt>
      <trkpt lat="48.25089" lon="-4.08749">
        <ele>146.1544</ele>
        <time>2022-12-10T12:47:34.201Z</time>
      </trkpt>
      <trkpt lat="48.25081" lon="-4.08739">
        <ele>146.646997</ele>
        <time>2022-12-10T12:47:39.174Z</time>
      </trkpt>
      <trkpt lat="48.25073" lon="-4.08731">
        <ele>147.135459</ele>
        <time>2022-12-10T12:47:44.193Z</time>
      </trkpt>
      <trkpt lat="48.25065" lon="-4.08722">
        <ele>147.637989</ele>
        <time>2022-12-10T12:47:49.191Z</time>
      </trkpt>
      <trkpt lat="48.25058" lon="-4.08712">
        <ele>147.690713</ele>
        <time>2022-12-10T12:47:54.192Z</time>
      </trkpt>
      <trkpt lat="48.2505" lon="-4.08705">
        <ele>147.694914</ele>
        <time>2022-12-10T12:47:59.178Z</time>
      </trkpt>
      <trkpt lat="48.25042" lon="-4.08696">
        <ele>147.699013</ele>
        <time>2022-12-10T12:48:04.181Z</time>
      </trkpt>
      <trkpt lat="48.25035" lon="-4.08687">
        <ele>147.703042</ele>
        <time>2022-12-10T12:48:09.189Z</time>
      </trkpt>
      <trkpt lat="48.25025" lon="-4.0868">
        <ele>147.707484</ele>
        <time>2022-12-10T12:48:14.188Z</time>
      </trkpt>
      <trkpt lat="48.25017" lon="-4.08671">
        <ele>147.711895</ele>
        <time>2022-12-10T12:48:19.201Z</time>
      </trkpt>
      <trkpt lat="48.25008" lon="-4.08662">
        <ele>147.716249</ele>
        <time>2022-12-10T12:48:24.195Z</time>
      </trkpt>
      <trkpt lat="48.25" lon="-4.08656">
        <ele>147.720157</ele>
        <time>2022-12-10T12:48:29.194Z</time>
      </trkpt>
      <trkpt lat="48.24993" lon="-4.08646">
        <ele>147.724251</ele>
        <time>2022-12-10T12:48:35.183Z</time>
      </trkpt>
      <trkpt lat="48.24987" lon="-4.08635">
        <ele>147.728568</ele>
        <time>2022-12-10T12:48:40.172Z</time>
      </trkpt>
      <trkpt lat="48.24979" lon="-4.08625">
        <ele>147.733021</ele>
        <time>2022-12-10T12:48:44.179Z</time>
      </trkpt>
      <trkpt lat="48.24972" lon="-4.08615">
        <ele>147.737157</ele>
        <time>2022-12-10T12:48:48.174Z</time>
      </trkpt>
      <trkpt lat="48.24965" lon="-4.08605">
        <ele>147.741115</ele>
        <time>2022-12-10T12:48:52.182Z</time>
      </trkpt>
      <trkpt lat="48.24956" lon="-4.08594">
        <ele>147.745841</ele>
        <time>2022-12-10T12:48:56.191Z</time>
      </trkpt>
      <trkpt lat="48.24949" lon="-4.08585">
        <ele>147.749826</ele>
        <time>2022-12-10T12:48:59.195Z</time>
      </trkpt>
      <trkpt lat="48.2494" lon="-4.08574">
        <ele>147.754814</ele>
        <time>2022-12-10T12:49:03.196Z</time>
      </trkpt>
      <trkpt lat="48.24931" lon="-4.08564">
        <ele>147.75968</ele>
        <time>2022-12-10T12:49:07.193Z</time>
      </trkpt>
      <trkpt lat="48.24923" lon="-4.08555">
        <ele>147.749029</ele>
        <time>2022-12-10T12:49:11.189Z</time>
      </trkpt>
      <trkpt lat="48.24913" lon="-4.08545">
        <ele>147.537574</ele>
        <time>2022-12-10T12:49:15.195Z</time>
      </trkpt>
      <trkpt lat="48.24906" lon="-4.08537">
        <ele>147.374448</ele>
        <time>2022-12-10T12:49:18.201Z</time>
      </trkpt>
      <trkpt lat="48.24897" lon="-4.08527">
        <ele>147.174356</ele>
        <time>2022-12-10T12:49:22.186Z</time>
      </trkpt>
      <trkpt lat="48.24886" lon="-4.08519">
        <ele>146.971601</ele>
        <time>2022-12-10T12:49:26.172Z</time>
      </trkpt>
      <trkpt lat="48.24877" lon="-4.08513">
        <ele>146.778725</ele>
        <time>2022-12-10T12:49:30.200Z</time>
      </trkpt>
      <trkpt lat="48.24868" lon="-4.08505">
        <ele>146.606846</ele>
        <time>2022-12-10T12:49:34.194Z</time>
      </trkpt>
      <trkpt lat="48.24853" lon="-4.08484">
        <ele>146.242168</ele>
        <time>2022-12-10T12:50:55.189Z</time>
      </trkpt>
      <trkpt lat="48.24846" lon="-4.08477">
        <ele>146.078918</ele>
        <time>2022-12-10T12:50:58.176Z</time>
      </trkpt>
      <trkpt lat="48.24838" lon="-4.08469">
        <ele>145.910354</ele>
        <time>2022-12-10T12:51:01.174Z</time>
      </trkpt>
      <trkpt lat="48.24828" lon="-4.08459">
        <ele>145.698033</ele>
        <time>2022-12-10T12:51:05.193Z</time>
      </trkpt>
      <trkpt lat="48.24817" lon="-4.08451">
        <ele>145.482539</ele>
        <time>2022-12-10T12:51:09.175Z</time>
      </trkpt>
      <trkpt lat="48.24808" lon="-4.08444">
        <ele>145.30346</ele>
        <time>2022-12-10T12:51:12.193Z</time>
      </trkpt>
      <trkpt lat="48.24798" lon="-4.08438">
        <ele>145.104053</ele>
        <time>2022-12-10T12:51:15.202Z</time>
      </trkpt>
      <trkpt lat="48.24787" lon="-4.08432">
        <ele>144.898136</ele>
        <time>2022-12-10T12:51:18.176Z</time>
      </trkpt>
      <trkpt lat="48.24776" lon="-4.08427">
        <ele>144.690076</ele>
        <time>2022-12-10T12:51:21.193Z</time>
      </trkpt>
      <trkpt lat="48.24764" lon="-4.08423">
        <ele>144.528849</ele>
        <time>2022-12-10T12:51:24.174Z</time>
      </trkpt>
      <trkpt lat="48.24751" lon="-4.08418">
        <ele>144.446773</ele>
        <time>2022-12-10T12:51:27.203Z</time>
      </trkpt>
      <trkpt lat="48.24739" lon="-4.08413">
        <ele>144.361177</ele>
        <time>2022-12-10T12:51:30.195Z</time>
      </trkpt>
      <trkpt lat="48.24729" lon="-4.0841">
        <ele>144.300715</ele>
        <time>2022-12-10T12:51:32.183Z</time>
      </trkpt>
      <trkpt lat="48.24716" lon="-4.08408">
        <ele>144.213031</ele>
        <time>2022-12-10T12:51:35.203Z</time>
      </trkpt>
      <trkpt lat="48.24706" lon="-4.08407">
        <ele>144.149409</ele>
        <time>2022-12-10T12:51:37.175Z</time>
      </trkpt>
      <trkpt lat="48.24696" lon="-4.08406">
        <ele>144.08527</ele>
        <time>2022-12-10T12:51:39.198Z</time>
      </trkpt>
      <trkpt lat="48.24686" lon="-4.08407">
        <ele>144.021196</ele>
        <time>2022-12-10T12:51:41.189Z</time>
      </trkpt>
      <trkpt lat="48.24677" lon="-4.08407">
        <ele>143.957785</ele>
        <time>2022-12-10T12:51:43.196Z</time>
      </trkpt>
      <trkpt lat="48.24667" lon="-4.08408">
        <ele>143.893555</ele>
        <time>2022-12-10T12:51:45.196Z</time>
      </trkpt>
      <trkpt lat="48.24656" lon="-4.0841">
        <ele>143.826067</ele>
        <time>2022-12-10T12:51:47.188Z</time>
      </trkpt>
      <trkpt lat="48.24646" lon="-4.08412">
        <ele>143.760998</ele>
        <time>2022-12-10T12:51:49.197Z</time>
      </trkpt>
      <trkpt lat="48.24636" lon="-4.08415">
        <ele>143.696279</ele>
        <time>2022-12-10T12:51:51.196Z</time>
      </trkpt>
      <trkpt lat="48.24627" lon="-4.08417">
        <ele>143.632954</ele>
        <time>2022-12-10T12:51:53.195Z</time>
      </trkpt>
      <trkpt lat="48.24617" lon="-4.08421">
        <ele>143.566247</ele>
        <time>2022-12-10T12:51:55.197Z</time>
      </trkpt>
      <trkpt lat="48.24608" lon="-4.08424">
        <ele>143.507443</ele>
        <time>2022-12-10T12:51:57.192Z</time>
      </trkpt>
      <trkpt lat="48.24596" lon="-4.08428">
        <ele>143.428676</ele>
        <time>2022-12-10T12:52:00.205Z</time>
      </trkpt>
      <trkpt lat="48.24585" lon="-4.08432">
        <ele>143.540748</ele>
        <time>2022-12-10T12:52:03.199Z</time>
      </trkpt>
      <trkpt lat="48.24575" lon="-4.08438">
        <ele>143.779876</ele>
        <time>2022-12-10T12:52:06.204Z</time>
      </trkpt>
      <trkpt lat="48.24567" lon="-4.08444">
        <ele>143.985381</ele>
        <time>2022-12-10T12:52:09.174Z</time>
      </trkpt>
      <trkpt lat="48.24558" lon="-4.08449">
        <ele>144.208393</ele>
        <time>2022-12-10T12:52:15.192Z</time>
      </trkpt>
      <trkpt lat="48.24548" lon="-4.08452">
        <ele>144.443333</ele>
        <time>2022-12-10T12:52:21.174Z</time>
      </trkpt>
      <trkpt lat="48.24538" lon="-4.08455">
        <ele>144.660247</ele>
        <time>2022-12-10T12:52:25.193Z</time>
      </trkpt>
      <trkpt lat="48.24529" lon="-4.08455">
        <ele>144.872771</ele>
        <time>2022-12-10T12:52:29.192Z</time>
      </trkpt>
      <trkpt lat="48.24519" lon="-4.08455">
        <ele>145.089768</ele>
        <time>2022-12-10T12:52:33.190Z</time>
      </trkpt>
      <trkpt lat="48.2451" lon="-4.08458">
        <ele>145.310538</ele>
        <time>2022-12-10T12:52:37.172Z</time>
      </trkpt>
      <trkpt lat="48.245" lon="-4.08461">
        <ele>145.525549</ele>
        <time>2022-12-10T12:52:41.186Z</time>
      </trkpt>
      <trkpt lat="48.2449" lon="-4.08464">
        <ele>145.756982</ele>
        <time>2022-12-10T12:52:45.178Z</time>
      </trkpt>
      <trkpt lat="48.2448" lon="-4.08465">
        <ele>145.983266</ele>
        <time>2022-12-10T12:52:49.183Z</time>
      </trkpt>
      <trkpt lat="48.2447" lon="-4.08465">
        <ele>146.216105</ele>
        <time>2022-12-10T12:52:54.175Z</time>
      </trkpt>
      <trkpt lat="48.24459" lon="-4.08465">
        <ele>146.4603</ele>
        <time>2022-12-10T12:52:59.191Z</time>
      </trkpt>
      <trkpt lat="48.24449" lon="-4.08467">
        <ele>146.703846</ele>
        <time>2022-12-10T12:53:04.186Z</time>
      </trkpt>
      <trkpt lat="48.24438" lon="-4.08469">
        <ele>146.948876</ele>
        <time>2022-12-10T12:53:09.193Z</time>
      </trkpt>
      <trkpt lat="48.24427" lon="-4.08471">
        <ele>147.18895</ele>
        <time>2022-12-10T12:53:14.176Z</time>
      </trkpt>
      <trkpt lat="48.24417" lon="-4.08472">
        <ele>147.426977</ele>
        <time>2022-12-10T12:53:19.172Z</time>
      </trkpt>
      <trkpt lat="48.24407" lon="-4.08475">
        <ele>147.675039</ele>
        <time>2022-12-10T12:53:24.176Z</time>
      </trkpt>
      <trkpt lat="48.24396" lon="-4.08477">
        <ele>147.93587</ele>
        <time>2022-12-10T12:53:29.179Z</time>
      </trkpt>
      <trkpt lat="48.24385" lon="-4.08478">
        <ele>148.193109</ele>
        <time>2022-12-10T12:53:34.175Z</time>
      </trkpt>
      <trkpt lat="48.24375" lon="-4.08479">
        <ele>148.453415</ele>
        <time>2022-12-10T12:53:39.192Z</time>
      </trkpt>
      <trkpt lat="48.24364" lon="-4.08481">
        <ele>148.712595</ele>
        <time>2022-12-10T12:53:44.174Z</time>
      </trkpt>
      <trkpt lat="48.24354" lon="-4.08483">
        <ele>148.964161</ele>
        <time>2022-12-10T12:53:49.194Z</time>
      </trkpt>
      <trkpt lat="48.24344" lon="-4.08485">
        <ele>149.216121</ele>
        <time>2022-12-10T12:53:54.207Z</time>
      </trkpt>
      <trkpt lat="48.24333" lon="-4.08487">
        <ele>149.469507</ele>
        <time>2022-12-10T12:53:59.198Z</time>
      </trkpt>
      <trkpt lat="48.24323" lon="-4.0849">
        <ele>149.73197</ele>
        <time>2022-12-10T12:54:04.178Z</time>
      </trkpt>
      <trkpt lat="48.24312" lon="-4.08493">
        <ele>149.991579</ele>
        <time>2022-12-10T12:54:09.181Z</time>
      </trkpt>
      <trkpt lat="48.24303" lon="-4.08495">
        <ele>150.21447</ele>
        <time>2022-12-10T12:54:13.196Z</time>
      </trkpt>
      <trkpt lat="48.24293" lon="-4.08495">
        <ele>150.445219</ele>
        <time>2022-12-10T12:54:17.200Z</time>
      </trkpt>
      <trkpt lat="48.24282" lon="-4.08497">
        <ele>150.71366</ele>
        <time>2022-12-10T12:54:22.179Z</time>
      </trkpt>
      <trkpt lat="48.24271" lon="-4.085">
        <ele>150.983324</ele>
        <time>2022-12-10T12:54:27.191Z</time>
      </trkpt>
      <trkpt lat="48.24261" lon="-4.08502">
        <ele>151.242927</ele>
        <time>2022-12-10T12:54:32.204Z</time>
      </trkpt>
      <trkpt lat="48.24252" lon="-4.08504">
        <ele>151.466286</ele>
        <time>2022-12-10T12:54:36.175Z</time>
      </trkpt>
      <trkpt lat="48.24241" lon="-4.08506">
        <ele>151.730918</ele>
        <time>2022-12-10T12:54:41.194Z</time>
      </trkpt>
      <trkpt lat="48.2423" lon="-4.08509">
        <ele>151.783494</ele>
        <time>2022-12-10T12:54:46.175Z</time>
      </trkpt>
      <trkpt lat="48.24221" lon="-4.08509">
        <ele>151.72807</ele>
        <time>2022-12-10T12:54:50.208Z</time>
      </trkpt>
      <trkpt lat="48.24212" lon="-4.08508">
        <ele>151.671222</ele>
        <time>2022-12-10T12:54:54.177Z</time>
      </trkpt>
      <trkpt lat="48.24201" lon="-4.08509">
        <ele>151.607663</ele>
        <time>2022-12-10T12:54:58.180Z</time>
      </trkpt>
      <trkpt lat="48.24191" lon="-4.08511">
        <ele>151.54589</ele>
        <time>2022-12-10T12:55:02.177Z</time>
      </trkpt>
      <trkpt lat="48.24182" lon="-4.0851">
        <ele>151.488589</ele>
        <time>2022-12-10T12:55:06.182Z</time>
      </trkpt>
      <trkpt lat="48.24171" lon="-4.08512">
        <ele>151.420174</ele>
        <time>2022-12-10T12:55:10.190Z</time>
      </trkpt>
      <trkpt lat="48.24161" lon="-4.08514">
        <ele>151.36217</ele>
        <time>2022-12-10T12:55:13.201Z</time>
      </trkpt>
      <trkpt lat="48.24151" lon="-4.08516">
        <ele>151.299291</ele>
        <time>2022-12-10T12:55:16.196Z</time>
      </trkpt>
      <trkpt lat="48.24141" lon="-4.08519">
        <ele>151.234715</ele>
        <time>2022-12-10T12:55:19.188Z</time>
      </trkpt>
      <trkpt lat="48.2413" lon="-4.08521">
        <ele>151.167787</ele>
        <time>2022-12-10T12:55:22.194Z</time>
      </trkpt>
      <trkpt lat="48.24118" lon="-4.08524">
        <ele>151.094813</ele>
        <time>2022-12-10T12:55:25.175Z</time>
      </trkpt>
      <trkpt lat="48.24105" lon="-4.08524">
        <ele>151.018683</ele>
        <time>2022-12-10T12:55:28.194Z</time>
      </trkpt>
      <trkpt lat="48.24093" lon="-4.08524">
        <ele>150.946198</ele>
        <time>2022-12-10T12:55:31.180Z</time>
      </trkpt>
      <trkpt lat="48.24081" lon="-4.08523">
        <ele>150.869392</ele>
        <time>2022-12-10T12:55:34.175Z</time>
      </trkpt>
      <trkpt lat="48.24071" lon="-4.08521">
        <ele>150.811075</ele>
        <time>2022-12-10T12:55:36.192Z</time>
      </trkpt>
      <trkpt lat="48.24062" lon="-4.0852">
        <ele>150.752406</ele>
        <time>2022-12-10T12:55:38.182Z</time>
      </trkpt>
      <trkpt lat="48.24052" lon="-4.08519">
        <ele>150.382799</ele>
        <time>2022-12-10T12:55:40.184Z</time>
      </trkpt>
      <trkpt lat="48.24042" lon="-4.08517">
        <ele>149.815394</ele>
        <time>2022-12-10T12:55:42.194Z</time>
      </trkpt>
      <trkpt lat="48.24032" lon="-4.08516">
        <ele>149.235912</ele>
        <time>2022-12-10T12:55:44.181Z</time>
      </trkpt>
      <trkpt lat="48.24022" lon="-4.08515">
        <ele>148.662478</ele>
        <time>2022-12-10T12:55:46.196Z</time>
      </trkpt>
      <trkpt lat="48.24012" lon="-4.08513">
        <ele>148.055247</ele>
        <time>2022-12-10T12:55:48.194Z</time>
      </trkpt>
      <trkpt lat="48.24002" lon="-4.08511">
        <ele>147.48587</ele>
        <time>2022-12-10T12:55:50.177Z</time>
      </trkpt>
      <trkpt lat="48.23991" lon="-4.0851">
        <ele>146.882026</ele>
        <time>2022-12-10T12:55:52.192Z</time>
      </trkpt>
      <trkpt lat="48.2398" lon="-4.08507">
        <ele>146.259743</ele>
        <time>2022-12-10T12:55:54.195Z</time>
      </trkpt>
      <trkpt lat="48.2397" lon="-4.08508">
        <ele>145.665898</ele>
        <time>2022-12-10T12:55:56.202Z</time>
      </trkpt>
      <trkpt lat="48.23959" lon="-4.08506">
        <ele>145.045884</ele>
        <time>2022-12-10T12:55:58.197Z</time>
      </trkpt>
      <trkpt lat="48.23949" lon="-4.08502">
        <ele>144.422763</ele>
        <time>2022-12-10T12:56:00.186Z</time>
      </trkpt>
      <trkpt lat="48.23938" lon="-4.08498">
        <ele>143.789424</ele>
        <time>2022-12-10T12:56:02.197Z</time>
      </trkpt>
      <trkpt lat="48.23926" lon="-4.08494">
        <ele>143.118307</ele>
        <time>2022-12-10T12:56:04.194Z</time>
      </trkpt>
      <trkpt lat="48.23915" lon="-4.08489">
        <ele>142.465304</ele>
        <time>2022-12-10T12:56:06.187Z</time>
      </trkpt>
      <trkpt lat="48.23904" lon="-4.08483">
        <ele>141.801408</ele>
        <time>2022-12-10T12:56:08.204Z</time>
      </trkpt>
      <trkpt lat="48.23893" lon="-4.08477">
        <ele>141.126528</ele>
        <time>2022-12-10T12:56:10.200Z</time>
      </trkpt>
      <trkpt lat="48.23882" lon="-4.08471">
        <ele>140.44903</ele>
        <time>2022-12-10T12:56:12.176Z</time>
      </trkpt>
      <trkpt lat="48.23871" lon="-4.08464">
        <ele>139.872136</ele>
        <time>2022-12-10T12:56:14.190Z</time>
      </trkpt>
      <trkpt lat="48.2386" lon="-4.08457">
        <ele>139.315039</ele>
        <time>2022-12-10T12:56:16.202Z</time>
      </trkpt>
      <trkpt lat="48.23849" lon="-4.0845">
        <ele>138.748645</ele>
        <time>2022-12-10T12:56:18.177Z</time>
      </trkpt>
      <trkpt lat="48.23838" lon="-4.08443">
        <ele>138.192759</ele>
        <time>2022-12-10T12:56:20.192Z</time>
      </trkpt>
      <trkpt lat="48.23827" lon="-4.08437">
        <ele>137.63165</ele>
        <time>2022-12-10T12:56:22.175Z</time>
      </trkpt>
      <trkpt lat="48.23816" lon="-4.0843">
        <ele>137.091218</ele>
        <time>2022-12-10T12:56:24.197Z</time>
      </trkpt>
      <trkpt lat="48.23806" lon="-4.08424">
        <ele>136.548786</ele>
        <time>2022-12-10T12:56:26.184Z</time>
      </trkpt>
      <trkpt lat="48.23795" lon="-4.08417">
        <ele>135.996024</ele>
        <time>2022-12-10T12:56:28.203Z</time>
      </trkpt>
      <trkpt lat="48.23784" lon="-4.0841">
        <ele>135.444484</ele>
        <time>2022-12-10T12:56:30.190Z</time>
      </trkpt>
      <trkpt lat="48.23773" lon="-4.08403">
        <ele>134.896513</ele>
        <time>2022-12-10T12:56:32.196Z</time>
      </trkpt>
      <trkpt lat="48.23762" lon="-4.08396">
        <ele>134.322732</ele>
        <time>2022-12-10T12:56:34.183Z</time>
      </trkpt>
      <trkpt lat="48.2375" lon="-4.0839">
        <ele>133.742919</ele>
        <time>2022-12-10T12:56:36.188Z</time>
      </trkpt>
      <trkpt lat="48.23739" lon="-4.08383">
        <ele>133.147668</ele>
        <time>2022-12-10T12:56:38.202Z</time>
      </trkpt>
      <trkpt lat="48.23726" lon="-4.08375">
        <ele>132.503801</ele>
        <time>2022-12-10T12:56:40.196Z</time>
      </trkpt>
      <trkpt lat="48.23713" lon="-4.08367">
        <ele>131.933159</ele>
        <time>2022-12-10T12:56:42.200Z</time>
      </trkpt>
      <trkpt lat="48.23699" lon="-4.08358">
        <ele>131.685061</ele>
        <time>2022-12-10T12:56:44.204Z</time>
      </trkpt>
      <trkpt lat="48.23684" lon="-4.08348">
        <ele>131.414402</ele>
        <time>2022-12-10T12:56:46.180Z</time>
      </trkpt>
      <trkpt lat="48.23669" lon="-4.08339">
        <ele>131.143742</ele>
        <time>2022-12-10T12:56:48.189Z</time>
      </trkpt>
      <trkpt lat="48.23653" lon="-4.08329">
        <ele>130.856935</ele>
        <time>2022-12-10T12:56:50.196Z</time>
      </trkpt>
      <trkpt lat="48.23637" lon="-4.08319">
        <ele>130.567348</ele>
        <time>2022-12-10T12:56:52.192Z</time>
      </trkpt>
      <trkpt lat="48.23622" lon="-4.0831">
        <ele>130.293355</ele>
        <time>2022-12-10T12:56:54.204Z</time>
      </trkpt>
      <trkpt lat="48.23608" lon="-4.08301">
        <ele>130.030581</ele>
        <time>2022-12-10T12:56:56.187Z</time>
      </trkpt>
      <trkpt lat="48.23594" lon="-4.08293">
        <ele>129.779726</ele>
        <time>2022-12-10T12:56:58.198Z</time>
      </trkpt>
      <trkpt lat="48.23581" lon="-4.08285">
        <ele>129.545196</ele>
        <time>2022-12-10T12:57:00.199Z</time>
      </trkpt>
      <trkpt lat="48.23569" lon="-4.08276">
        <ele>129.332197</ele>
        <time>2022-12-10T12:57:02.196Z</time>
      </trkpt>
      <trkpt lat="48.23558" lon="-4.08269">
        <ele>129.137986</ele>
        <time>2022-12-10T12:57:04.194Z</time>
      </trkpt>
      <trkpt lat="48.23548" lon="-4.08263">
        <ele>128.998069</ele>
        <time>2022-12-10T12:57:06.190Z</time>
      </trkpt>
      <trkpt lat="48.23539" lon="-4.08257">
        <ele>129.040571</ele>
        <time>2022-12-10T12:57:08.195Z</time>
      </trkpt>
      <trkpt lat="48.23529" lon="-4.08251">
        <ele>129.092045</ele>
        <time>2022-12-10T12:57:11.202Z</time>
      </trkpt>
      <trkpt lat="48.23517" lon="-4.08245">
        <ele>129.145489</ele>
        <time>2022-12-10T12:57:14.195Z</time>
      </trkpt>
      <trkpt lat="48.23506" lon="-4.08239">
        <ele>129.199389</ele>
        <time>2022-12-10T12:57:17.203Z</time>
      </trkpt>
      <trkpt lat="48.23494" lon="-4.08235">
        <ele>129.252875</ele>
        <time>2022-12-10T12:57:20.198Z</time>
      </trkpt>
      <trkpt lat="48.23482" lon="-4.08232">
        <ele>129.304856</ele>
        <time>2022-12-10T12:57:23.176Z</time>
      </trkpt>
      <trkpt lat="48.23471" lon="-4.08229">
        <ele>129.354513</ele>
        <time>2022-12-10T12:57:26.202Z</time>
      </trkpt>
      <trkpt lat="48.23461" lon="-4.08227">
        <ele>129.40146</ele>
        <time>2022-12-10T12:57:29.181Z</time>
      </trkpt>
      <trkpt lat="48.2345" lon="-4.08225">
        <ele>129.447627</ele>
        <time>2022-12-10T12:57:32.192Z</time>
      </trkpt>
      <trkpt lat="48.2344" lon="-4.08223">
        <ele>129.49357</ele>
        <time>2022-12-10T12:57:35.195Z</time>
      </trkpt>
      <trkpt lat="48.2343" lon="-4.08221">
        <ele>129.536808</ele>
        <time>2022-12-10T12:57:38.205Z</time>
      </trkpt>
      <trkpt lat="48.23421" lon="-4.0822">
        <ele>129.579401</ele>
        <time>2022-12-10T12:57:41.184Z</time>
      </trkpt>
      <trkpt lat="48.23411" lon="-4.08218">
        <ele>129.622494</ele>
        <time>2022-12-10T12:57:44.202Z</time>
      </trkpt>
      <trkpt lat="48.23401" lon="-4.08216">
        <ele>129.667409</ele>
        <time>2022-12-10T12:57:47.198Z</time>
      </trkpt>
      <trkpt lat="48.2339" lon="-4.08214">
        <ele>129.715185</ele>
        <time>2022-12-10T12:57:50.190Z</time>
      </trkpt>
      <trkpt lat="48.23379" lon="-4.08212">
        <ele>129.76587</ele>
        <time>2022-12-10T12:57:53.196Z</time>
      </trkpt>
      <trkpt lat="48.23367" lon="-4.08209">
        <ele>129.868838</ele>
        <time>2022-12-10T12:57:56.197Z</time>
      </trkpt>
      <trkpt lat="48.23355" lon="-4.08208">
        <ele>129.995917</ele>
        <time>2022-12-10T12:57:59.197Z</time>
      </trkpt>
      <trkpt lat="48.23344" lon="-4.08206">
        <ele>130.117744</ele>
        <time>2022-12-10T12:58:02.198Z</time>
      </trkpt>
      <trkpt lat="48.23332" lon="-4.08204">
        <ele>130.239572</ele>
        <time>2022-12-10T12:58:05.173Z</time>
      </trkpt>
      <trkpt lat="48.23321" lon="-4.08202">
        <ele>130.361482</ele>
        <time>2022-12-10T12:58:08.191Z</time>
      </trkpt>
      <trkpt lat="48.2331" lon="-4.08201">
        <ele>130.480668</ele>
        <time>2022-12-10T12:58:11.201Z</time>
      </trkpt>
      <trkpt lat="48.23299" lon="-4.08199">
        <ele>130.600288</ele>
        <time>2022-12-10T12:58:14.189Z</time>
      </trkpt>
      <trkpt lat="48.23288" lon="-4.08197">
        <ele>130.723346</ele>
        <time>2022-12-10T12:58:17.195Z</time>
      </trkpt>
      <trkpt lat="48.23276" lon="-4.08195">
        <ele>130.84632</ele>
        <time>2022-12-10T12:58:20.179Z</time>
      </trkpt>
      <trkpt lat="48.23265" lon="-4.08193">
        <ele>130.968315</ele>
        <time>2022-12-10T12:58:23.201Z</time>
      </trkpt>
      <trkpt lat="48.23253" lon="-4.08191">
        <ele>131.092272</ele>
        <time>2022-12-10T12:58:26.206Z</time>
      </trkpt>
      <trkpt lat="48.23242" lon="-4.08189">
        <ele>131.21631</ele>
        <time>2022-12-10T12:58:29.204Z</time>
      </trkpt>
      <trkpt lat="48.2323" lon="-4.08186">
        <ele>131.340708</ele>
        <time>2022-12-10T12:58:32.202Z</time>
      </trkpt>
      <trkpt lat="48.23218" lon="-4.08184">
        <ele>131.469353</ele>
        <time>2022-12-10T12:58:35.205Z</time>
      </trkpt>
      <trkpt lat="48.23206" lon="-4.08182">
        <ele>131.59906</ele>
        <time>2022-12-10T12:58:38.206Z</time>
      </trkpt>
      <trkpt lat="48.23195" lon="-4.0818">
        <ele>131.726147</ele>
        <time>2022-12-10T12:58:41.189Z</time>
      </trkpt>
      <trkpt lat="48.23182" lon="-4.08178">
        <ele>131.849306</ele>
        <time>2022-12-10T12:58:44.192Z</time>
      </trkpt>
      <trkpt lat="48.2317" lon="-4.08175">
        <ele>131.973425</ele>
        <time>2022-12-10T12:58:47.198Z</time>
      </trkpt>
      <trkpt lat="48.23158" lon="-4.08173">
        <ele>132.096456</ele>
        <time>2022-12-10T12:58:50.208Z</time>
      </trkpt>
      <trkpt lat="48.23145" lon="-4.08171">
        <ele>132.218695</ele>
        <time>2022-12-10T12:58:53.199Z</time>
      </trkpt>
      <trkpt lat="48.23133" lon="-4.08169">
        <ele>132.342155</ele>
        <time>2022-12-10T12:58:56.194Z</time>
      </trkpt>
      <trkpt lat="48.23121" lon="-4.08166">
        <ele>132.46203</ele>
        <time>2022-12-10T12:58:59.197Z</time>
      </trkpt>
      <trkpt lat="48.23109" lon="-4.08163">
        <ele>132.581021</ele>
        <time>2022-12-10T12:59:02.205Z</time>
      </trkpt>
      <trkpt lat="48.23098" lon="-4.08161">
        <ele>132.700218</ele>
        <time>2022-12-10T12:59:05.185Z</time>
      </trkpt>
      <trkpt lat="48.23086" lon="-4.08159">
        <ele>132.820477</ele>
        <time>2022-12-10T12:59:08.199Z</time>
      </trkpt>
      <trkpt lat="48.23074" lon="-4.08157">
        <ele>132.939746</ele>
        <time>2022-12-10T12:59:11.198Z</time>
      </trkpt>
      <trkpt lat="48.23062" lon="-4.08156">
        <ele>133.058811</ele>
        <time>2022-12-10T12:59:14.196Z</time>
      </trkpt>
      <trkpt lat="48.2305" lon="-4.08153">
        <ele>133.175269</ele>
        <time>2022-12-10T12:59:17.186Z</time>
      </trkpt>
      <trkpt lat="48.23039" lon="-4.0815">
        <ele>133.292014</ele>
        <time>2022-12-10T12:59:20.196Z</time>
      </trkpt>
      <trkpt lat="48.23028" lon="-4.08147">
        <ele>133.403492</ele>
        <time>2022-12-10T12:59:23.185Z</time>
      </trkpt>
      <trkpt lat="48.23018" lon="-4.08144">
        <ele>133.488143</ele>
        <time>2022-12-10T12:59:26.200Z</time>
      </trkpt>
      <trkpt lat="48.23007" lon="-4.08141">
        <ele>133.061405</ele>
        <time>2022-12-10T12:59:29.207Z</time>
      </trkpt>
      <trkpt lat="48.22996" lon="-4.08137">
        <ele>132.612894</ele>
        <time>2022-12-10T12:59:32.195Z</time>
      </trkpt>
      <trkpt lat="48.22985" lon="-4.08133">
        <ele>132.153324</ele>
        <time>2022-12-10T12:59:35.198Z</time>
      </trkpt>
      <trkpt lat="48.22974" lon="-4.08128">
        <ele>131.687764</ele>
        <time>2022-12-10T12:59:38.186Z</time>
      </trkpt>
      <trkpt lat="48.22963" lon="-4.08122">
        <ele>131.211276</ele>
        <time>2022-12-10T12:59:41.174Z</time>
      </trkpt>
      <trkpt lat="48.22951" lon="-4.08114">
        <ele>130.704308</ele>
        <time>2022-12-10T12:59:44.186Z</time>
      </trkpt>
      <trkpt lat="48.22939" lon="-4.08106">
        <ele>130.19152</ele>
        <time>2022-12-10T12:59:47.202Z</time>
      </trkpt>
      <trkpt lat="48.22928" lon="-4.08097">
        <ele>129.667125</ele>
        <time>2022-12-10T12:59:50.201Z</time>
      </trkpt>
      <trkpt lat="48.2292" lon="-4.0809">
        <ele>129.294293</ele>
        <time>2022-12-10T12:59:52.201Z</time>
      </trkpt>
      <trkpt lat="48.22912" lon="-4.08083">
        <ele>128.92146</ele>
        <time>2022-12-10T12:59:54.189Z</time>
      </trkpt>
      <trkpt lat="48.22903" lon="-4.08074">
        <ele>128.508743</ele>
        <time>2022-12-10T12:59:56.189Z</time>
      </trkpt>
      <trkpt lat="48.22895" lon="-4.08065">
        <ele>128.09273</ele>
        <time>2022-12-10T12:59:58.195Z</time>
      </trkpt>
      <trkpt lat="48.22886" lon="-4.08055">
        <ele>127.662289</ele>
        <time>2022-12-10T13:00:00.184Z</time>
      </trkpt>
      <trkpt lat="48.22878" lon="-4.08044">
        <ele>127.214416</ele>
        <time>2022-12-10T13:00:02.177Z</time>
      </trkpt>
      <trkpt lat="48.2287" lon="-4.08033">
        <ele>126.782979</ele>
        <time>2022-12-10T13:00:04.203Z</time>
      </trkpt>
      <trkpt lat="48.22863" lon="-4.08022">
        <ele>126.369373</ele>
        <time>2022-12-10T13:00:06.194Z</time>
      </trkpt>
      <trkpt lat="48.22856" lon="-4.0801">
        <ele>125.85412</ele>
        <time>2022-12-10T13:00:08.196Z</time>
      </trkpt>
      <trkpt lat="48.22849" lon="-4.07999">
        <ele>125.30926</ele>
        <time>2022-12-10T13:00:10.175Z</time>
      </trkpt>
      <trkpt lat="48.22842" lon="-4.07986">
        <ele>124.754941</ele>
        <time>2022-12-10T13:00:12.194Z</time>
      </trkpt>
      <trkpt lat="48.22835" lon="-4.07974">
        <ele>124.209947</ele>
        <time>2022-12-10T13:00:14.192Z</time>
      </trkpt>
      <trkpt lat="48.22828" lon="-4.07962">
        <ele>123.650391</ele>
        <time>2022-12-10T13:00:16.197Z</time>
      </trkpt>
      <trkpt lat="48.22821" lon="-4.07949">
        <ele>123.094163</ele>
        <time>2022-12-10T13:00:18.201Z</time>
      </trkpt>
      <trkpt lat="48.22814" lon="-4.07936">
        <ele>122.509489</ele>
        <time>2022-12-10T13:00:20.186Z</time>
      </trkpt>
      <trkpt lat="48.22807" lon="-4.07923">
        <ele>121.92914</ele>
        <time>2022-12-10T13:00:22.191Z</time>
      </trkpt>
      <trkpt lat="48.228" lon="-4.07909">
        <ele>121.334734</ele>
        <time>2022-12-10T13:00:24.201Z</time>
      </trkpt>
      <trkpt lat="48.22793" lon="-4.07896">
        <ele>120.737592</ele>
        <time>2022-12-10T13:00:26.208Z</time>
      </trkpt>
      <trkpt lat="48.22786" lon="-4.07883">
        <ele>120.164166</ele>
        <time>2022-12-10T13:00:28.194Z</time>
      </trkpt>
      <trkpt lat="48.22778" lon="-4.07871">
        <ele>119.585585</ele>
        <time>2022-12-10T13:00:30.208Z</time>
      </trkpt>
      <trkpt lat="48.22771" lon="-4.07858">
        <ele>118.996898</ele>
        <time>2022-12-10T13:00:32.198Z</time>
      </trkpt>
      <trkpt lat="48.22763" lon="-4.07845">
        <ele>118.422841</ele>
        <time>2022-12-10T13:00:34.182Z</time>
      </trkpt>
      <trkpt lat="48.22756" lon="-4.07833">
        <ele>117.854176</ele>
        <time>2022-12-10T13:00:36.182Z</time>
      </trkpt>
      <trkpt lat="48.22748" lon="-4.07822">
        <ele>117.285469</ele>
        <time>2022-12-10T13:00:38.191Z</time>
      </trkpt>
      <trkpt lat="48.2274" lon="-4.07811">
        <ele>116.933077</ele>
        <time>2022-12-10T13:00:40.194Z</time>
      </trkpt>
      <trkpt lat="48.22731" lon="-4.07802">
        <ele>116.762965</ele>
        <time>2022-12-10T13:00:42.178Z</time>
      </trkpt>
      <trkpt lat="48.22722" lon="-4.07793">
        <ele>116.603117</ele>
        <time>2022-12-10T13:00:44.187Z</time>
      </trkpt>
      <trkpt lat="48.22713" lon="-4.07785">
        <ele>116.439181</ele>
        <time>2022-12-10T13:00:46.202Z</time>
      </trkpt>
      <trkpt lat="48.22704" lon="-4.07777">
        <ele>116.277384</ele>
        <time>2022-12-10T13:00:48.197Z</time>
      </trkpt>
      <trkpt lat="48.22696" lon="-4.07769">
        <ele>116.129096</ele>
        <time>2022-12-10T13:00:50.206Z</time>
      </trkpt>
      <trkpt lat="48.22687" lon="-4.07763">
        <ele>115.97276</ele>
        <time>2022-12-10T13:00:52.200Z</time>
      </trkpt>
      <trkpt lat="48.22678" lon="-4.07756">
        <ele>115.81731</ele>
        <time>2022-12-10T13:00:54.198Z</time>
      </trkpt>
      <trkpt lat="48.22669" lon="-4.0775">
        <ele>115.662553</ele>
        <time>2022-12-10T13:00:56.186Z</time>
      </trkpt>
      <trkpt lat="48.2266" lon="-4.07745">
        <ele>115.515555</ele>
        <time>2022-12-10T13:00:58.208Z</time>
      </trkpt>
      <trkpt lat="48.22647" lon="-4.0774">
        <ele>115.316117</ele>
        <time>2022-12-10T13:01:01.186Z</time>
      </trkpt>
      <trkpt lat="48.22634" lon="-4.07735">
        <ele>115.108268</ele>
        <time>2022-12-10T13:01:04.186Z</time>
      </trkpt>
      <trkpt lat="48.22622" lon="-4.0773">
        <ele>114.905429</ele>
        <time>2022-12-10T13:01:07.176Z</time>
      </trkpt>
      <trkpt lat="48.22609" lon="-4.07726">
        <ele>114.711095</ele>
        <time>2022-12-10T13:01:10.198Z</time>
      </trkpt>
      <trkpt lat="48.22598" lon="-4.07721">
        <ele>114.521758</ele>
        <time>2022-12-10T13:01:13.199Z</time>
      </trkpt>
      <trkpt lat="48.22586" lon="-4.07717">
        <ele>114.335627</ele>
        <time>2022-12-10T13:01:16.195Z</time>
      </trkpt>
      <trkpt lat="48.22575" lon="-4.07712">
        <ele>114.143127</ele>
        <time>2022-12-10T13:01:19.188Z</time>
      </trkpt>
      <trkpt lat="48.22564" lon="-4.07708">
        <ele>113.944704</ele>
        <time>2022-12-10T13:01:22.190Z</time>
      </trkpt>
      <trkpt lat="48.22553" lon="-4.07704">
        <ele>113.756299</ele>
        <time>2022-12-10T13:01:25.199Z</time>
      </trkpt>
      <trkpt lat="48.22542" lon="-4.077">
        <ele>113.560214</ele>
        <time>2022-12-10T13:01:28.194Z</time>
      </trkpt>
      <trkpt lat="48.22531" lon="-4.07695">
        <ele>113.34471</ele>
        <time>2022-12-10T13:01:31.179Z</time>
      </trkpt>
      <trkpt lat="48.22519" lon="-4.0769">
        <ele>113.129866</ele>
        <time>2022-12-10T13:01:34.175Z</time>
      </trkpt>
      <trkpt lat="48.22508" lon="-4.07683">
        <ele>112.924274</ele>
        <time>2022-12-10T13:01:37.181Z</time>
      </trkpt>
      <trkpt lat="48.22498" lon="-4.07676">
        <ele>112.724345</ele>
        <time>2022-12-10T13:01:40.202Z</time>
      </trkpt>
      <trkpt lat="48.22488" lon="-4.07668">
        <ele>112.529643</ele>
        <time>2022-12-10T13:01:43.199Z</time>
      </trkpt>
      <trkpt lat="48.22479" lon="-4.07659">
        <ele>112.341547</ele>
        <time>2022-12-10T13:01:46.199Z</time>
      </trkpt>
      <trkpt lat="48.22471" lon="-4.07649">
        <ele>112.148675</ele>
        <time>2022-12-10T13:01:49.181Z</time>
      </trkpt>
      <trkpt lat="48.22462" lon="-4.07638">
        <ele>111.946931</ele>
        <time>2022-12-10T13:01:52.215Z</time>
      </trkpt>
      <trkpt lat="48.22453" lon="-4.07626">
        <ele>111.732396</ele>
        <time>2022-12-10T13:01:55.177Z</time>
      </trkpt>
      <trkpt lat="48.22444" lon="-4.07613">
        <ele>111.512165</ele>
        <time>2022-12-10T13:01:58.202Z</time>
      </trkpt>
      <trkpt lat="48.22434" lon="-4.07599">
        <ele>111.280614</ele>
        <time>2022-12-10T13:02:01.197Z</time>
      </trkpt>
      <trkpt lat="48.22427" lon="-4.07589">
        <ele>111.11305</ele>
        <time>2022-12-10T13:02:03.195Z</time>
      </trkpt>
      <trkpt lat="48.22418" lon="-4.07574">
        <ele>110.660555</ele>
        <time>2022-12-10T13:02:06.186Z</time>
      </trkpt>
      <trkpt lat="48.22412" lon="-4.07565">
        <ele>110.318225</ele>
        <time>2022-12-10T13:02:08.188Z</time>
      </trkpt>
      <trkpt lat="48.22406" lon="-4.07555">
        <ele>109.970508</ele>
        <time>2022-12-10T13:02:10.172Z</time>
      </trkpt>
      <trkpt lat="48.22399" lon="-4.07545">
        <ele>109.607616</ele>
        <time>2022-12-10T13:02:12.176Z</time>
      </trkpt>
      <trkpt lat="48.22392" lon="-4.07535">
        <ele>109.256263</ele>
        <time>2022-12-10T13:02:14.199Z</time>
      </trkpt>
      <trkpt lat="48.22386" lon="-4.07525">
        <ele>108.904066</ele>
        <time>2022-12-10T13:02:16.198Z</time>
      </trkpt>
      <trkpt lat="48.22379" lon="-4.07515">
        <ele>108.550115</ele>
        <time>2022-12-10T13:02:18.202Z</time>
      </trkpt>
      <trkpt lat="48.22372" lon="-4.07505">
        <ele>108.173004</ele>
        <time>2022-12-10T13:02:20.194Z</time>
      </trkpt>
      <trkpt lat="48.22364" lon="-4.07494">
        <ele>107.776264</ele>
        <time>2022-12-10T13:02:22.209Z</time>
      </trkpt>
      <trkpt lat="48.22356" lon="-4.07482">
        <ele>107.349191</ele>
        <time>2022-12-10T13:02:24.209Z</time>
      </trkpt>
      <trkpt lat="48.22348" lon="-4.0747">
        <ele>106.927349</ele>
        <time>2022-12-10T13:02:26.194Z</time>
      </trkpt>
      <trkpt lat="48.2234" lon="-4.07459">
        <ele>106.505071</ele>
        <time>2022-12-10T13:02:28.189Z</time>
      </trkpt>
      <trkpt lat="48.22331" lon="-4.07449">
        <ele>106.085835</ele>
        <time>2022-12-10T13:02:30.207Z</time>
      </trkpt>
      <trkpt lat="48.22323" lon="-4.07438">
        <ele>105.687105</ele>
        <time>2022-12-10T13:02:32.180Z</time>
      </trkpt>
      <trkpt lat="48.22315" lon="-4.07428">
        <ele>105.287072</ele>
        <time>2022-12-10T13:02:34.198Z</time>
      </trkpt>
      <trkpt lat="48.22307" lon="-4.07418">
        <ele>104.896381</ele>
        <time>2022-12-10T13:02:36.187Z</time>
      </trkpt>
      <trkpt lat="48.22299" lon="-4.07408">
        <ele>104.478774</ele>
        <time>2022-12-10T13:02:38.202Z</time>
      </trkpt>
      <trkpt lat="48.2229" lon="-4.07397">
        <ele>104.029338</ele>
        <time>2022-12-10T13:02:40.183Z</time>
      </trkpt>
      <trkpt lat="48.22281" lon="-4.07386">
        <ele>103.571563</ele>
        <time>2022-12-10T13:02:42.195Z</time>
      </trkpt>
      <trkpt lat="48.22271" lon="-4.07376">
        <ele>103.108816</ele>
        <time>2022-12-10T13:02:44.198Z</time>
      </trkpt>
      <trkpt lat="48.22262" lon="-4.07365">
        <ele>102.649169</ele>
        <time>2022-12-10T13:02:46.195Z</time>
      </trkpt>
      <trkpt lat="48.22253" lon="-4.07353">
        <ele>102.181093</ele>
        <time>2022-12-10T13:02:48.196Z</time>
      </trkpt>
      <trkpt lat="48.22244" lon="-4.07342">
        <ele>101.711932</ele>
        <time>2022-12-10T13:02:50.205Z</time>
      </trkpt>
      <trkpt lat="48.22236" lon="-4.07331">
        <ele>101.270997</ele>
        <time>2022-12-10T13:02:52.176Z</time>
      </trkpt>
      <trkpt lat="48.22227" lon="-4.0732">
        <ele>100.79602</ele>
        <time>2022-12-10T13:02:54.203Z</time>
      </trkpt>
      <trkpt lat="48.22218" lon="-4.07308">
        <ele>100.331341</ele>
        <time>2022-12-10T13:02:56.202Z</time>
      </trkpt>
      <trkpt lat="48.22209" lon="-4.07297">
        <ele>99.869715</ele>
        <time>2022-12-10T13:02:58.192Z</time>
      </trkpt>
      <trkpt lat="48.222" lon="-4.07285">
        <ele>99.382342</ele>
        <time>2022-12-10T13:03:00.191Z</time>
      </trkpt>
      <trkpt lat="48.22191" lon="-4.07273">
        <ele>98.90676</ele>
        <time>2022-12-10T13:03:02.176Z</time>
      </trkpt>
      <trkpt lat="48.22181" lon="-4.07261">
        <ele>98.399005</ele>
        <time>2022-12-10T13:03:04.196Z</time>
      </trkpt>
      <trkpt lat="48.22171" lon="-4.0725">
        <ele>97.913911</ele>
        <time>2022-12-10T13:03:06.180Z</time>
      </trkpt>
      <trkpt lat="48.22162" lon="-4.07238">
        <ele>97.42854</ele>
        <time>2022-12-10T13:03:08.186Z</time>
      </trkpt>
      <trkpt lat="48.22153" lon="-4.07227">
        <ele>96.891074</ele>
        <time>2022-12-10T13:03:10.209Z</time>
      </trkpt>
      <trkpt lat="48.22145" lon="-4.07217">
        <ele>96.206467</ele>
        <time>2022-12-10T13:03:12.179Z</time>
      </trkpt>
      <trkpt lat="48.22137" lon="-4.07206">
        <ele>95.526695</ele>
        <time>2022-12-10T13:03:14.192Z</time>
      </trkpt>
      <trkpt lat="48.2213" lon="-4.07195">
        <ele>94.860109</ele>
        <time>2022-12-10T13:03:16.185Z</time>
      </trkpt>
      <trkpt lat="48.22122" lon="-4.07185">
        <ele>94.173436</ele>
        <time>2022-12-10T13:03:18.198Z</time>
      </trkpt>
      <trkpt lat="48.22113" lon="-4.07175">
        <ele>93.474688</ele>
        <time>2022-12-10T13:03:20.188Z</time>
      </trkpt>
      <trkpt lat="48.22104" lon="-4.07164">
        <ele>92.73</ele>
        <time>2022-12-10T13:03:22.195Z</time>
      </trkpt>
      <trkpt lat="48.22095" lon="-4.07154">
        <ele>91.985456</ele>
        <time>2022-12-10T13:03:24.186Z</time>
      </trkpt>
      <trkpt lat="48.22086" lon="-4.07143">
        <ele>91.243406</ele>
        <time>2022-12-10T13:03:26.185Z</time>
      </trkpt>
      <trkpt lat="48.22076" lon="-4.07133">
        <ele>90.491121</ele>
        <time>2022-12-10T13:03:28.189Z</time>
      </trkpt>
      <trkpt lat="48.22067" lon="-4.07122">
        <ele>89.733417</ele>
        <time>2022-12-10T13:03:30.204Z</time>
      </trkpt>
      <trkpt lat="48.22057" lon="-4.07113">
        <ele>88.99502</ele>
        <time>2022-12-10T13:03:32.202Z</time>
      </trkpt>
      <trkpt lat="48.22047" lon="-4.07104">
        <ele>88.22167</ele>
        <time>2022-12-10T13:03:34.198Z</time>
      </trkpt>
      <trkpt lat="48.22036" lon="-4.07096">
        <ele>87.466522</ele>
        <time>2022-12-10T13:03:36.189Z</time>
      </trkpt>
      <trkpt lat="48.22027" lon="-4.07087">
        <ele>86.733912</ele>
        <time>2022-12-10T13:03:38.196Z</time>
      </trkpt>
      <trkpt lat="48.22016" lon="-4.07079">
        <ele>85.986473</ele>
        <time>2022-12-10T13:03:40.190Z</time>
      </trkpt>
      <trkpt lat="48.22006" lon="-4.0707">
        <ele>85.303789</ele>
        <time>2022-12-10T13:03:42.205Z</time>
      </trkpt>
      <trkpt lat="48.21996" lon="-4.07061">
        <ele>84.713409</ele>
        <time>2022-12-10T13:03:44.197Z</time>
      </trkpt>
      <trkpt lat="48.21986" lon="-4.07052">
        <ele>84.135364</ele>
        <time>2022-12-10T13:03:46.206Z</time>
      </trkpt>
      <trkpt lat="48.21975" lon="-4.07044">
        <ele>83.537823</ele>
        <time>2022-12-10T13:03:48.175Z</time>
      </trkpt>
      <trkpt lat="48.21965" lon="-4.07035">
        <ele>82.942584</ele>
        <time>2022-12-10T13:03:50.197Z</time>
      </trkpt>
      <trkpt lat="48.21954" lon="-4.07026">
        <ele>82.332106</ele>
        <time>2022-12-10T13:03:52.202Z</time>
      </trkpt>
      <trkpt lat="48.21944" lon="-4.07016">
        <ele>81.72849</ele>
        <time>2022-12-10T13:03:54.191Z</time>
      </trkpt>
      <trkpt lat="48.21933" lon="-4.07007">
        <ele>81.09913</ele>
        <time>2022-12-10T13:03:56.205Z</time>
      </trkpt>
      <trkpt lat="48.21922" lon="-4.06998">
        <ele>80.478391</ele>
        <time>2022-12-10T13:03:58.211Z</time>
      </trkpt>
      <trkpt lat="48.21911" lon="-4.06988">
        <ele>79.853888</ele>
        <time>2022-12-10T13:04:00.193Z</time>
      </trkpt>
      <trkpt lat="48.219" lon="-4.0698">
        <ele>79.244451</ele>
        <time>2022-12-10T13:04:02.187Z</time>
      </trkpt>
      <trkpt lat="48.2189" lon="-4.06971">
        <ele>78.637289</ele>
        <time>2022-12-10T13:04:04.200Z</time>
      </trkpt>
      <trkpt lat="48.21879" lon="-4.06962">
        <ele>78.027432</ele>
        <time>2022-12-10T13:04:06.183Z</time>
      </trkpt>
      <trkpt lat="48.21868" lon="-4.06954">
        <ele>77.427139</ele>
        <time>2022-12-10T13:04:08.196Z</time>
      </trkpt>
      <trkpt lat="48.21858" lon="-4.06945">
        <ele>76.835725</ele>
        <time>2022-12-10T13:04:10.190Z</time>
      </trkpt>
      <trkpt lat="48.21847" lon="-4.06937">
        <ele>76.334745</ele>
        <time>2022-12-10T13:04:12.184Z</time>
      </trkpt>
      <trkpt lat="48.21836" lon="-4.06929">
        <ele>75.927476</ele>
        <time>2022-12-10T13:04:14.205Z</time>
      </trkpt>
      <trkpt lat="48.21825" lon="-4.06922">
        <ele>75.512628</ele>
        <time>2022-12-10T13:04:16.198Z</time>
      </trkpt>
      <trkpt lat="48.21814" lon="-4.06915">
        <ele>75.127761</ele>
        <time>2022-12-10T13:04:18.200Z</time>
      </trkpt>
      <trkpt lat="48.21804" lon="-4.06909">
        <ele>74.747384</ele>
        <time>2022-12-10T13:04:20.197Z</time>
      </trkpt>
      <trkpt lat="48.21793" lon="-4.06903">
        <ele>74.336072</ele>
        <time>2022-12-10T13:04:22.201Z</time>
      </trkpt>
      <trkpt lat="48.21782" lon="-4.06897">
        <ele>73.93503</ele>
        <time>2022-12-10T13:04:24.197Z</time>
      </trkpt>
      <trkpt lat="48.21771" lon="-4.06891">
        <ele>73.531693</ele>
        <time>2022-12-10T13:04:26.202Z</time>
      </trkpt>
      <trkpt lat="48.2176" lon="-4.06885">
        <ele>73.140741</ele>
        <time>2022-12-10T13:04:28.184Z</time>
      </trkpt>
      <trkpt lat="48.21748" lon="-4.06879">
        <ele>72.729429</ele>
        <time>2022-12-10T13:04:30.182Z</time>
      </trkpt>
      <trkpt lat="48.21737" lon="-4.06873">
        <ele>72.334824</ele>
        <time>2022-12-10T13:04:32.177Z</time>
      </trkpt>
      <trkpt lat="48.21726" lon="-4.06868">
        <ele>71.924101</ele>
        <time>2022-12-10T13:04:34.195Z</time>
      </trkpt>
      <trkpt lat="48.21715" lon="-4.06861">
        <ele>71.523966</ele>
        <time>2022-12-10T13:04:36.177Z</time>
      </trkpt>
      <trkpt lat="48.21705" lon="-4.06856">
        <ele>71.141407</ele>
        <time>2022-12-10T13:04:38.185Z</time>
      </trkpt>
      <trkpt lat="48.21695" lon="-4.06851">
        <ele>70.810751</ele>
        <time>2022-12-10T13:04:40.196Z</time>
      </trkpt>
      <trkpt lat="48.21683" lon="-4.06844">
        <ele>70.402715</ele>
        <time>2022-12-10T13:04:43.202Z</time>
      </trkpt>
      <trkpt lat="48.21672" lon="-4.06841">
        <ele>70.149791</ele>
        <time>2022-12-10T13:04:46.194Z</time>
      </trkpt>
      <trkpt lat="48.21662" lon="-4.06838">
        <ele>69.927753</ele>
        <time>2022-12-10T13:04:49.183Z</time>
      </trkpt>
      <trkpt lat="48.21652" lon="-4.06843">
        <ele>69.686783</ele>
        <time>2022-12-10T13:04:54.177Z</time>
      </trkpt>
      <trkpt lat="48.2165" lon="-4.06844">
        <ele>69.634717</ele>
        <time>2022-12-10T13:05:03.934Z</time>
      </trkpt>
      <trkpt lat="48.21637" lon="-4.06853">
        <ele>69.308638</ele>
        <time>2022-12-10T13:07:28.183Z</time>
      </trkpt>
      <trkpt lat="48.2163" lon="-4.06866">
        <ele>69.070329</ele>
        <time>2022-12-10T13:07:31.184Z</time>
      </trkpt>
      <trkpt lat="48.21625" lon="-4.06882">
        <ele>68.811835</ele>
        <time>2022-12-10T13:07:34.184Z</time>
      </trkpt>
      <trkpt lat="48.21621" lon="-4.069">
        <ele>68.5285</ele>
        <time>2022-12-10T13:07:37.194Z</time>
      </trkpt>
      <trkpt lat="48.21618" lon="-4.06914">
        <ele>68.321547</ele>
        <time>2022-12-10T13:07:39.176Z</time>
      </trkpt>
      <trkpt lat="48.21616" lon="-4.06928">
        <ele>68.104588</ele>
        <time>2022-12-10T13:07:41.175Z</time>
      </trkpt>
      <trkpt lat="48.21613" lon="-4.06942">
        <ele>67.885786</ele>
        <time>2022-12-10T13:07:43.195Z</time>
      </trkpt>
      <trkpt lat="48.2161" lon="-4.06956">
        <ele>67.672357</ele>
        <time>2022-12-10T13:07:45.206Z</time>
      </trkpt>
      <trkpt lat="48.21607" lon="-4.06969">
        <ele>67.460515</ele>
        <time>2022-12-10T13:07:47.199Z</time>
      </trkpt>
      <trkpt lat="48.21604" lon="-4.06989">
        <ele>67.162809</ele>
        <time>2022-12-10T13:07:50.187Z</time>
      </trkpt>
      <trkpt lat="48.216" lon="-4.07008">
        <ele>66.859851</ele>
        <time>2022-12-10T13:07:53.194Z</time>
      </trkpt>
      <trkpt lat="48.21596" lon="-4.07022">
        <ele>66.638924</ele>
        <time>2022-12-10T13:07:55.180Z</time>
      </trkpt>
      <trkpt lat="48.21594" lon="-4.07037">
        <ele>66.315534</ele>
        <time>2022-12-10T13:07:57.191Z</time>
      </trkpt>
      <trkpt lat="48.21591" lon="-4.07051">
        <ele>65.69671</ele>
        <time>2022-12-10T13:07:59.194Z</time>
      </trkpt>
      <trkpt lat="48.21588" lon="-4.07065">
        <ele>65.061453</ele>
        <time>2022-12-10T13:08:01.188Z</time>
      </trkpt>
      <trkpt lat="48.21585" lon="-4.07079">
        <ele>64.444731</ele>
        <time>2022-12-10T13:08:03.197Z</time>
      </trkpt>
      <trkpt lat="48.21581" lon="-4.07097">
        <ele>63.629901</ele>
        <time>2022-12-10T13:08:06.187Z</time>
      </trkpt>
      <trkpt lat="48.21577" lon="-4.07115">
        <ele>62.827197</ele>
        <time>2022-12-10T13:08:09.179Z</time>
      </trkpt>
      <trkpt lat="48.21573" lon="-4.07132">
        <ele>62.03689</ele>
        <time>2022-12-10T13:08:12.193Z</time>
      </trkpt>
      <trkpt lat="48.21569" lon="-4.07151">
        <ele>61.178771</ele>
        <time>2022-12-10T13:08:15.184Z</time>
      </trkpt>
      <trkpt lat="48.21567" lon="-4.07164">
        <ele>60.58974</ele>
        <time>2022-12-10T13:08:17.182Z</time>
      </trkpt>
      <trkpt lat="48.21563" lon="-4.07183">
        <ele>59.749968</ele>
        <time>2022-12-10T13:08:20.201Z</time>
      </trkpt>
      <trkpt lat="48.2156" lon="-4.072">
        <ele>58.977616</ele>
        <time>2022-12-10T13:08:23.198Z</time>
      </trkpt>
      <trkpt lat="48.21556" lon="-4.07219">
        <ele>58.137843</ele>
        <time>2022-12-10T13:08:26.197Z</time>
      </trkpt>
      <trkpt lat="48.21554" lon="-4.07233">
        <ele>57.524605</ele>
        <time>2022-12-10T13:08:28.196Z</time>
      </trkpt>
      <trkpt lat="48.2155" lon="-4.07252">
        <ele>56.655211</ele>
        <time>2022-12-10T13:08:31.178Z</time>
      </trkpt>
      <trkpt lat="48.21547" lon="-4.07265">
        <ele>56.060804</ele>
        <time>2022-12-10T13:08:33.194Z</time>
      </trkpt>
      <trkpt lat="48.21544" lon="-4.0728">
        <ele>55.378665</ele>
        <time>2022-12-10T13:08:35.193Z</time>
      </trkpt>
      <trkpt lat="48.21541" lon="-4.07295">
        <ele>54.82537</ele>
        <time>2022-12-10T13:08:37.193Z</time>
      </trkpt>
      <trkpt lat="48.21538" lon="-4.0731">
        <ele>54.766742</ele>
        <time>2022-12-10T13:08:39.180Z</time>
      </trkpt>
      <trkpt lat="48.21535" lon="-4.07324">
        <ele>54.709212</ele>
        <time>2022-12-10T13:08:41.185Z</time>
      </trkpt>
      <trkpt lat="48.21531" lon="-4.07337">
        <ele>54.654367</ele>
        <time>2022-12-10T13:08:43.178Z</time>
      </trkpt>
      <trkpt lat="48.21525" lon="-4.07347">
        <ele>54.601579</ele>
        <time>2022-12-10T13:08:45.187Z</time>
      </trkpt>
      <trkpt lat="48.21516" lon="-4.07353">
        <ele>54.548004</ele>
        <time>2022-12-10T13:08:47.183Z</time>
      </trkpt>
      <trkpt lat="48.21507" lon="-4.07355">
        <ele>54.496059</ele>
        <time>2022-12-10T13:08:49.179Z</time>
      </trkpt>
      <trkpt lat="48.21494" lon="-4.07355">
        <ele>54.420006</ele>
        <time>2022-12-10T13:08:52.184Z</time>
      </trkpt>
      <trkpt lat="48.21484" lon="-4.07354">
        <ele>54.364699</ele>
        <time>2022-12-10T13:08:54.193Z</time>
      </trkpt>
      <trkpt lat="48.21471" lon="-4.07354">
        <ele>54.285801</ele>
        <time>2022-12-10T13:08:57.193Z</time>
      </trkpt>
      <trkpt lat="48.21462" lon="-4.07355">
        <ele>54.232751</ele>
        <time>2022-12-10T13:08:59.191Z</time>
      </trkpt>
      <trkpt lat="48.21452" lon="-4.07356">
        <ele>54.176758</ele>
        <time>2022-12-10T13:09:01.190Z</time>
      </trkpt>
      <trkpt lat="48.21442" lon="-4.07357">
        <ele>54.117866</ele>
        <time>2022-12-10T13:09:03.186Z</time>
      </trkpt>
      <trkpt lat="48.21432" lon="-4.07357">
        <ele>54.060852</ele>
        <time>2022-12-10T13:09:05.202Z</time>
      </trkpt>
      <trkpt lat="48.21422" lon="-4.07358">
        <ele>54.005519</ele>
        <time>2022-12-10T13:09:07.194Z</time>
      </trkpt>
      <trkpt lat="48.21412" lon="-4.07359">
        <ele>53.945959</ele>
        <time>2022-12-10T13:09:09.190Z</time>
      </trkpt>
      <trkpt lat="48.21402" lon="-4.0736">
        <ele>53.889438</ele>
        <time>2022-12-10T13:09:11.204Z</time>
      </trkpt>
      <trkpt lat="48.21392" lon="-4.07361">
        <ele>53.831562</ele>
        <time>2022-12-10T13:09:13.203Z</time>
      </trkpt>
      <trkpt lat="48.21382" lon="-4.07363">
        <ele>53.907414</ele>
        <time>2022-12-10T13:09:15.203Z</time>
      </trkpt>
      <trkpt lat="48.21373" lon="-4.07365">
        <ele>54.133031</ele>
        <time>2022-12-10T13:09:17.202Z</time>
      </trkpt>
      <trkpt lat="48.21363" lon="-4.07366">
        <ele>54.360506</ele>
        <time>2022-12-10T13:09:19.186Z</time>
      </trkpt>
      <trkpt lat="48.21354" lon="-4.07368">
        <ele>54.574903</ele>
        <time>2022-12-10T13:09:21.179Z</time>
      </trkpt>
      <trkpt lat="48.21344" lon="-4.0737">
        <ele>54.803606</ele>
        <time>2022-12-10T13:09:23.195Z</time>
      </trkpt>
      <trkpt lat="48.21335" lon="-4.07373">
        <ele>55.0291</ele>
        <time>2022-12-10T13:09:25.194Z</time>
      </trkpt>
      <trkpt lat="48.21325" lon="-4.07378">
        <ele>55.261794</ele>
        <time>2022-12-10T13:09:27.179Z</time>
      </trkpt>
      <trkpt lat="48.21316" lon="-4.07383">
        <ele>55.490347</ele>
        <time>2022-12-10T13:09:29.202Z</time>
      </trkpt>
      <trkpt lat="48.21307" lon="-4.07389">
        <ele>55.728684</ele>
        <time>2022-12-10T13:09:31.189Z</time>
      </trkpt>
      <trkpt lat="48.21298" lon="-4.07395">
        <ele>55.957471</ele>
        <time>2022-12-10T13:09:33.198Z</time>
      </trkpt>
      <trkpt lat="48.21289" lon="-4.074">
        <ele>56.171879</ele>
        <time>2022-12-10T13:09:35.179Z</time>
      </trkpt>
      <trkpt lat="48.2128" lon="-4.07405">
        <ele>56.398282</ele>
        <time>2022-12-10T13:09:37.200Z</time>
      </trkpt>
      <trkpt lat="48.21272" lon="-4.07411">
        <ele>56.621285</ele>
        <time>2022-12-10T13:09:39.193Z</time>
      </trkpt>
      <trkpt lat="48.21263" lon="-4.07418">
        <ele>56.842039</ele>
        <time>2022-12-10T13:09:41.195Z</time>
      </trkpt>
      <trkpt lat="48.21254" lon="-4.07424">
        <ele>57.067005</ele>
        <time>2022-12-10T13:09:43.192Z</time>
      </trkpt>
      <trkpt lat="48.21246" lon="-4.0743">
        <ele>57.293426</ele>
        <time>2022-12-10T13:09:45.202Z</time>
      </trkpt>
      <trkpt lat="48.21237" lon="-4.07435">
        <ele>57.517083</ele>
        <time>2022-12-10T13:09:47.203Z</time>
      </trkpt>
      <trkpt lat="48.21228" lon="-4.07441">
        <ele>57.734549</ele>
        <time>2022-12-10T13:09:49.178Z</time>
      </trkpt>
      <trkpt lat="48.21219" lon="-4.07446">
        <ele>57.956037</ele>
        <time>2022-12-10T13:09:51.195Z</time>
      </trkpt>
      <trkpt lat="48.2121" lon="-4.07452">
        <ele>58.001457</ele>
        <time>2022-12-10T13:09:53.205Z</time>
      </trkpt>
      <trkpt lat="48.21202" lon="-4.07458">
        <ele>58.000506</ele>
        <time>2022-12-10T13:09:55.203Z</time>
      </trkpt>
      <trkpt lat="48.21193" lon="-4.07464">
        <ele>57.999497</ele>
        <time>2022-12-10T13:09:57.199Z</time>
      </trkpt>
      <trkpt lat="48.21184" lon="-4.07469">
        <ele>57.998554</ele>
        <time>2022-12-10T13:09:59.201Z</time>
      </trkpt>
      <trkpt lat="48.21175" lon="-4.07475">
        <ele>57.997599</ele>
        <time>2022-12-10T13:10:01.198Z</time>
      </trkpt>
      <trkpt lat="48.21166" lon="-4.0748">
        <ele>57.996643</ele>
        <time>2022-12-10T13:10:03.207Z</time>
      </trkpt>
      <trkpt lat="48.21158" lon="-4.07486">
        <ele>57.995694</ele>
        <time>2022-12-10T13:10:05.195Z</time>
      </trkpt>
      <trkpt lat="48.21149" lon="-4.07491">
        <ele>57.994756</ele>
        <time>2022-12-10T13:10:07.204Z</time>
      </trkpt>
      <trkpt lat="48.21141" lon="-4.07496">
        <ele>57.993847</ele>
        <time>2022-12-10T13:10:09.197Z</time>
      </trkpt>
      <trkpt lat="48.21132" lon="-4.07502">
        <ele>57.992868</ele>
        <time>2022-12-10T13:10:11.199Z</time>
      </trkpt>
      <trkpt lat="48.21123" lon="-4.07507">
        <ele>57.991909</ele>
        <time>2022-12-10T13:10:13.183Z</time>
      </trkpt>
      <trkpt lat="48.21114" lon="-4.07513">
        <ele>57.990919</ele>
        <time>2022-12-10T13:10:15.176Z</time>
      </trkpt>
      <trkpt lat="48.21105" lon="-4.07519">
        <ele>57.989906</ele>
        <time>2022-12-10T13:10:17.174Z</time>
      </trkpt>
      <trkpt lat="48.21096" lon="-4.07524">
        <ele>57.9889</ele>
        <time>2022-12-10T13:10:19.180Z</time>
      </trkpt>
      <trkpt lat="48.21087" lon="-4.0753">
        <ele>57.987951</ele>
        <time>2022-12-10T13:10:21.177Z</time>
      </trkpt>
      <trkpt lat="48.21079" lon="-4.07536">
        <ele>57.987028</ele>
        <time>2022-12-10T13:10:23.193Z</time>
      </trkpt>
      <trkpt lat="48.2107" lon="-4.07542">
        <ele>57.986079</ele>
        <time>2022-12-10T13:10:25.184Z</time>
      </trkpt>
      <trkpt lat="48.21058" lon="-4.0755">
        <ele>57.984722</ele>
        <time>2022-12-10T13:10:28.186Z</time>
      </trkpt>
      <trkpt lat="48.21049" lon="-4.07556">
        <ele>57.938452</ele>
        <time>2022-12-10T13:10:30.189Z</time>
      </trkpt>
      <trkpt lat="48.21041" lon="-4.07561">
        <ele>57.813671</ele>
        <time>2022-12-10T13:10:32.196Z</time>
      </trkpt>
      <trkpt lat="48.21028" lon="-4.07569">
        <ele>57.627415</ele>
        <time>2022-12-10T13:10:35.182Z</time>
      </trkpt>
      <trkpt lat="48.21016" lon="-4.07577">
        <ele>57.440076</ele>
        <time>2022-12-10T13:10:38.185Z</time>
      </trkpt>
      <trkpt lat="48.21007" lon="-4.07582">
        <ele>57.313091</ele>
        <time>2022-12-10T13:10:40.177Z</time>
      </trkpt>
      <trkpt lat="48.20999" lon="-4.07587">
        <ele>57.185422</ele>
        <time>2022-12-10T13:10:42.183Z</time>
      </trkpt>
      <trkpt lat="48.2099" lon="-4.07593">
        <ele>57.055208</ele>
        <time>2022-12-10T13:10:44.186Z</time>
      </trkpt>
      <trkpt lat="48.20981" lon="-4.07598">
        <ele>56.921761</ele>
        <time>2022-12-10T13:10:46.175Z</time>
      </trkpt>
      <trkpt lat="48.20972" lon="-4.07604">
        <ele>56.79014</ele>
        <time>2022-12-10T13:10:48.177Z</time>
      </trkpt>
      <trkpt lat="48.20963" lon="-4.07609">
        <ele>56.65865</ele>
        <time>2022-12-10T13:10:50.182Z</time>
      </trkpt>
      <trkpt lat="48.20955" lon="-4.07614">
        <ele>56.534556</ele>
        <time>2022-12-10T13:10:52.182Z</time>
      </trkpt>
      <trkpt lat="48.20946" lon="-4.0762">
        <ele>56.406536</ele>
        <time>2022-12-10T13:10:54.180Z</time>
      </trkpt>
      <trkpt lat="48.20938" lon="-4.07625">
        <ele>56.278866</ele>
        <time>2022-12-10T13:10:56.173Z</time>
      </trkpt>
      <trkpt lat="48.20929" lon="-4.0763">
        <ele>56.151752</ele>
        <time>2022-12-10T13:10:58.178Z</time>
      </trkpt>
      <trkpt lat="48.20921" lon="-4.07637">
        <ele>56.024023</ele>
        <time>2022-12-10T13:11:00.176Z</time>
      </trkpt>
      <trkpt lat="48.20912" lon="-4.07643">
        <ele>55.894546</ele>
        <time>2022-12-10T13:11:02.203Z</time>
      </trkpt>
      <trkpt lat="48.20903" lon="-4.07648">
        <ele>55.762924</ele>
        <time>2022-12-10T13:11:04.177Z</time>
      </trkpt>
      <trkpt lat="48.20895" lon="-4.07654">
        <ele>55.636701</ele>
        <time>2022-12-10T13:11:06.182Z</time>
      </trkpt>
      <trkpt lat="48.20886" lon="-4.07659">
        <ele>55.51436</ele>
        <time>2022-12-10T13:11:08.186Z</time>
      </trkpt>
      <trkpt lat="48.20877" lon="-4.07665">
        <ele>55.517545</ele>
        <time>2022-12-10T13:11:10.173Z</time>
      </trkpt>
      <trkpt lat="48.20869" lon="-4.0767">
        <ele>55.520668</ele>
        <time>2022-12-10T13:11:12.187Z</time>
      </trkpt>
      <trkpt lat="48.20861" lon="-4.07676">
        <ele>55.523843</ele>
        <time>2022-12-10T13:11:14.177Z</time>
      </trkpt>
      <trkpt lat="48.20852" lon="-4.07682">
        <ele>55.527022</ele>
        <time>2022-12-10T13:11:16.175Z</time>
      </trkpt>
      <trkpt lat="48.20843" lon="-4.07687">
        <ele>55.530215</ele>
        <time>2022-12-10T13:11:18.178Z</time>
      </trkpt>
      <trkpt lat="48.20835" lon="-4.07693">
        <ele>55.533381</ele>
        <time>2022-12-10T13:11:20.184Z</time>
      </trkpt>
      <trkpt lat="48.20826" lon="-4.07699">
        <ele>55.536554</ele>
        <time>2022-12-10T13:11:22.171Z</time>
      </trkpt>
      <trkpt lat="48.20818" lon="-4.07705">
        <ele>55.539728</ele>
        <time>2022-12-10T13:11:24.181Z</time>
      </trkpt>
      <trkpt lat="48.2081" lon="-4.07711">
        <ele>55.542841</ele>
        <time>2022-12-10T13:11:26.386Z</time>
      </trkpt>
      <trkpt lat="48.20801" lon="-4.07717">
        <ele>55.546035</ele>
        <time>2022-12-10T13:11:28.186Z</time>
      </trkpt>
      <trkpt lat="48.20793" lon="-4.07725">
        <ele>55.549395</ele>
        <time>2022-12-10T13:11:30.173Z</time>
      </trkpt>
      <trkpt lat="48.20784" lon="-4.07731">
        <ele>55.55262</ele>
        <time>2022-12-10T13:11:32.176Z</time>
      </trkpt>
      <trkpt lat="48.20776" lon="-4.07738">
        <ele>55.555793</ele>
        <time>2022-12-10T13:11:34.182Z</time>
      </trkpt>
      <trkpt lat="48.20765" lon="-4.07747">
        <ele>55.560179</ele>
        <time>2022-12-10T13:11:37.183Z</time>
      </trkpt>
      <trkpt lat="48.20757" lon="-4.07754">
        <ele>55.563265</ele>
        <time>2022-12-10T13:11:39.177Z</time>
      </trkpt>
      <trkpt lat="48.20745" lon="-4.07764">
        <ele>55.567792</ele>
        <time>2022-12-10T13:11:42.177Z</time>
      </trkpt>
      <trkpt lat="48.20734" lon="-4.07774">
        <ele>55.572213</ele>
        <time>2022-12-10T13:11:45.183Z</time>
      </trkpt>
      <trkpt lat="48.20723" lon="-4.07786">
        <ele>55.597314</ele>
        <time>2022-12-10T13:11:48.196Z</time>
      </trkpt>
      <trkpt lat="48.20715" lon="-4.07794">
        <ele>55.642948</ele>
        <time>2022-12-10T13:11:50.200Z</time>
      </trkpt>
      <trkpt lat="48.20707" lon="-4.07802">
        <ele>55.687766</ele>
        <time>2022-12-10T13:11:52.198Z</time>
      </trkpt>
      <trkpt lat="48.207" lon="-4.0781">
        <ele>55.731532</ele>
        <time>2022-12-10T13:11:54.190Z</time>
      </trkpt>
      <trkpt lat="48.20692" lon="-4.07818">
        <ele>55.774121</ele>
        <time>2022-12-10T13:11:56.197Z</time>
      </trkpt>
      <trkpt lat="48.20685" lon="-4.07826">
        <ele>55.816848</ele>
        <time>2022-12-10T13:11:58.188Z</time>
      </trkpt>
      <trkpt lat="48.20678" lon="-4.07835">
        <ele>55.859622</ele>
        <time>2022-12-10T13:12:00.175Z</time>
      </trkpt>
      <trkpt lat="48.20671" lon="-4.07844">
        <ele>55.9025</ele>
        <time>2022-12-10T13:12:02.183Z</time>
      </trkpt>
      <trkpt lat="48.20664" lon="-4.07854">
        <ele>55.949507</ele>
        <time>2022-12-10T13:12:04.195Z</time>
      </trkpt>
      <trkpt lat="48.20656" lon="-4.07863">
        <ele>55.993449</ele>
        <time>2022-12-10T13:12:06.194Z</time>
      </trkpt>
      <trkpt lat="48.20649" lon="-4.07872">
        <ele>56.037595</ele>
        <time>2022-12-10T13:12:08.195Z</time>
      </trkpt>
      <trkpt lat="48.20642" lon="-4.07881">
        <ele>56.08266</ele>
        <time>2022-12-10T13:12:10.198Z</time>
      </trkpt>
      <trkpt lat="48.20635" lon="-4.0789">
        <ele>56.127657</ele>
        <time>2022-12-10T13:12:12.175Z</time>
      </trkpt>
      <trkpt lat="48.20628" lon="-4.079">
        <ele>56.17271</ele>
        <time>2022-12-10T13:12:14.192Z</time>
      </trkpt>
      <trkpt lat="48.2062" lon="-4.0791">
        <ele>56.218456</ele>
        <time>2022-12-10T13:12:16.192Z</time>
      </trkpt>
      <trkpt lat="48.20614" lon="-4.0792">
        <ele>56.262373</ele>
        <time>2022-12-10T13:12:18.194Z</time>
      </trkpt>
      <trkpt lat="48.20607" lon="-4.0793">
        <ele>56.308743</ele>
        <time>2022-12-10T13:12:20.201Z</time>
      </trkpt>
      <trkpt lat="48.206" lon="-4.0794">
        <ele>56.355259</ele>
        <time>2022-12-10T13:12:22.198Z</time>
      </trkpt>
      <trkpt lat="48.20593" lon="-4.0795">
        <ele>56.400526</ele>
        <time>2022-12-10T13:12:24.206Z</time>
      </trkpt>
      <trkpt lat="48.20585" lon="-4.0796">
        <ele>56.379542</ele>
        <time>2022-12-10T13:12:26.202Z</time>
      </trkpt>
      <trkpt lat="48.20578" lon="-4.0797">
        <ele>56.3039</ele>
        <time>2022-12-10T13:12:28.202Z</time>
      </trkpt>
      <trkpt lat="48.20571" lon="-4.0798">
        <ele>56.225997</ele>
        <time>2022-12-10T13:12:30.206Z</time>
      </trkpt>
      <trkpt lat="48.20564" lon="-4.07989">
        <ele>56.150198</ele>
        <time>2022-12-10T13:12:32.192Z</time>
      </trkpt>
      <trkpt lat="48.20557" lon="-4.08">
        <ele>56.070071</ele>
        <time>2022-12-10T13:12:34.175Z</time>
      </trkpt>
      <trkpt lat="48.2055" lon="-4.0801">
        <ele>55.992766</ele>
        <time>2022-12-10T13:12:36.192Z</time>
      </trkpt>
      <trkpt lat="48.20543" lon="-4.08019">
        <ele>55.917717</ele>
        <time>2022-12-10T13:12:38.174Z</time>
      </trkpt>
      <trkpt lat="48.20536" lon="-4.08027">
        <ele>55.845404</ele>
        <time>2022-12-10T13:12:40.172Z</time>
      </trkpt>
      <trkpt lat="48.20527" lon="-4.0804">
        <ele>55.742458</ele>
        <time>2022-12-10T13:12:43.190Z</time>
      </trkpt>
      <trkpt lat="48.20517" lon="-4.08054">
        <ele>55.635887</ele>
        <time>2022-12-10T13:12:46.195Z</time>
      </trkpt>
      <trkpt lat="48.20507" lon="-4.08068">
        <ele>55.526835</ele>
        <time>2022-12-10T13:12:49.191Z</time>
      </trkpt>
      <trkpt lat="48.20498" lon="-4.08082">
        <ele>55.422185</ele>
        <time>2022-12-10T13:12:52.194Z</time>
      </trkpt>
      <trkpt lat="48.20488" lon="-4.08095">
        <ele>55.31824</ele>
        <time>2022-12-10T13:12:55.177Z</time>
      </trkpt>
      <trkpt lat="48.20479" lon="-4.08109">
        <ele>55.214169</ele>
        <time>2022-12-10T13:12:58.199Z</time>
      </trkpt>
      <trkpt lat="48.2047" lon="-4.08123">
        <ele>55.112721</ele>
        <time>2022-12-10T13:13:01.174Z</time>
      </trkpt>
      <trkpt lat="48.20461" lon="-4.08136">
        <ele>55.010307</ele>
        <time>2022-12-10T13:13:04.194Z</time>
      </trkpt>
      <trkpt lat="48.20452" lon="-4.08149">
        <ele>54.878292</ele>
        <time>2022-12-10T13:13:07.194Z</time>
      </trkpt>
      <trkpt lat="48.20442" lon="-4.08163">
        <ele>54.72986</ele>
        <time>2022-12-10T13:13:10.192Z</time>
      </trkpt>
      <trkpt lat="48.20433" lon="-4.08177">
        <ele>54.580889</ele>
        <time>2022-12-10T13:13:13.177Z</time>
      </trkpt>
      <trkpt lat="48.20423" lon="-4.08191">
        <ele>54.436094</ele>
        <time>2022-12-10T13:13:16.205Z</time>
      </trkpt>
      <trkpt lat="48.20413" lon="-4.08205">
        <ele>54.288363</ele>
        <time>2022-12-10T13:13:19.192Z</time>
      </trkpt>
      <trkpt lat="48.20404" lon="-4.08219">
        <ele>54.136761</ele>
        <time>2022-12-10T13:13:22.176Z</time>
      </trkpt>
      <trkpt lat="48.20397" lon="-4.08228">
        <ele>54.036349</ele>
        <time>2022-12-10T13:13:24.192Z</time>
      </trkpt>
      <trkpt lat="48.2039" lon="-4.08236">
        <ele>53.933942</ele>
        <time>2022-12-10T13:13:26.193Z</time>
      </trkpt>
      <trkpt lat="48.20379" lon="-4.08249">
        <ele>53.785249</ele>
        <time>2022-12-10T13:13:29.196Z</time>
      </trkpt>
      <trkpt lat="48.20369" lon="-4.0826">
        <ele>53.641891</ele>
        <time>2022-12-10T13:13:32.199Z</time>
      </trkpt>
      <trkpt lat="48.20361" lon="-4.08267">
        <ele>53.541595</ele>
        <time>2022-12-10T13:13:34.179Z</time>
      </trkpt>
      <trkpt lat="48.20353" lon="-4.08275">
        <ele>53.439034</ele>
        <time>2022-12-10T13:13:36.195Z</time>
      </trkpt>
      <trkpt lat="48.20346" lon="-4.08283">
        <ele>53.336635</ele>
        <time>2022-12-10T13:13:38.194Z</time>
      </trkpt>
      <trkpt lat="48.20338" lon="-4.0829">
        <ele>53.235114</ele>
        <time>2022-12-10T13:13:40.195Z</time>
      </trkpt>
      <trkpt lat="48.20327" lon="-4.08299">
        <ele>53.089108</ele>
        <time>2022-12-10T13:13:43.202Z</time>
      </trkpt>
      <trkpt lat="48.20315" lon="-4.08308">
        <ele>52.967245</ele>
        <time>2022-12-10T13:13:46.193Z</time>
      </trkpt>
      <trkpt lat="48.20304" lon="-4.08316">
        <ele>52.911372</ele>
        <time>2022-12-10T13:13:49.191Z</time>
      </trkpt>
      <trkpt lat="48.20294" lon="-4.08323">
        <ele>52.861046</ele>
        <time>2022-12-10T13:13:52.188Z</time>
      </trkpt>
      <trkpt lat="48.20284" lon="-4.08331">
        <ele>52.809484</ele>
        <time>2022-12-10T13:13:55.202Z</time>
      </trkpt>
      <trkpt lat="48.20273" lon="-4.08339">
        <ele>52.754948</ele>
        <time>2022-12-10T13:13:58.202Z</time>
      </trkpt>
      <trkpt lat="48.20262" lon="-4.08346">
        <ele>52.70149</ele>
        <time>2022-12-10T13:14:01.175Z</time>
      </trkpt>
      <trkpt lat="48.20251" lon="-4.08354">
        <ele>52.646287</ele>
        <time>2022-12-10T13:14:04.191Z</time>
      </trkpt>
      <trkpt lat="48.20241" lon="-4.08362">
        <ele>52.591772</ele>
        <time>2022-12-10T13:14:07.202Z</time>
      </trkpt>
      <trkpt lat="48.20229" lon="-4.0837">
        <ele>52.535359</ele>
        <time>2022-12-10T13:14:10.207Z</time>
      </trkpt>
      <trkpt lat="48.20218" lon="-4.08378">
        <ele>52.478406</ele>
        <time>2022-12-10T13:14:13.201Z</time>
      </trkpt>
      <trkpt lat="48.20207" lon="-4.08386">
        <ele>52.423458</ele>
        <time>2022-12-10T13:14:16.195Z</time>
      </trkpt>
      <trkpt lat="48.20196" lon="-4.08394">
        <ele>52.368134</ele>
        <time>2022-12-10T13:14:19.195Z</time>
      </trkpt>
      <trkpt lat="48.20185" lon="-4.08402">
        <ele>52.311727</ele>
        <time>2022-12-10T13:14:22.194Z</time>
      </trkpt>
      <trkpt lat="48.20174" lon="-4.0841">
        <ele>52.257211</ele>
        <time>2022-12-10T13:14:25.206Z</time>
      </trkpt>
      <trkpt lat="48.20164" lon="-4.08419">
        <ele>52.201735</ele>
        <time>2022-12-10T13:14:28.200Z</time>
      </trkpt>
      <trkpt lat="48.20152" lon="-4.08428">
        <ele>52.184572</ele>
        <time>2022-12-10T13:14:31.202Z</time>
      </trkpt>
      <trkpt lat="48.20141" lon="-4.08436">
        <ele>52.238841</ele>
        <time>2022-12-10T13:14:34.203Z</time>
      </trkpt>
      <trkpt lat="48.2013" lon="-4.08444">
        <ele>52.292737</ele>
        <time>2022-12-10T13:14:37.194Z</time>
      </trkpt>
      <trkpt lat="48.20119" lon="-4.08453">
        <ele>52.348331</ele>
        <time>2022-12-10T13:14:40.193Z</time>
      </trkpt>
      <trkpt lat="48.20107" lon="-4.08461">
        <ele>52.402864</ele>
        <time>2022-12-10T13:14:43.198Z</time>
      </trkpt>
      <trkpt lat="48.20099" lon="-4.08467">
        <ele>52.441702</ele>
        <time>2022-12-10T13:14:45.196Z</time>
      </trkpt>
      <trkpt lat="48.20091" lon="-4.08473">
        <ele>52.481182</ele>
        <time>2022-12-10T13:14:47.207Z</time>
      </trkpt>
      <trkpt lat="48.20083" lon="-4.08481">
        <ele>52.521275</ele>
        <time>2022-12-10T13:14:49.193Z</time>
      </trkpt>
      <trkpt lat="48.20071" lon="-4.0849">
        <ele>52.580071</ele>
        <time>2022-12-10T13:14:52.181Z</time>
      </trkpt>
      <trkpt lat="48.20062" lon="-4.08497">
        <ele>52.620579</ele>
        <time>2022-12-10T13:14:54.208Z</time>
      </trkpt>
      <trkpt lat="48.20055" lon="-4.08505">
        <ele>52.66164</ele>
        <time>2022-12-10T13:14:56.175Z</time>
      </trkpt>
      <trkpt lat="48.20047" lon="-4.08512">
        <ele>52.700552</ele>
        <time>2022-12-10T13:14:58.191Z</time>
      </trkpt>
      <trkpt lat="48.20039" lon="-4.08519">
        <ele>52.74257</ele>
        <time>2022-12-10T13:15:00.206Z</time>
      </trkpt>
      <trkpt lat="48.20027" lon="-4.08528">
        <ele>52.800824</ele>
        <time>2022-12-10T13:15:03.199Z</time>
      </trkpt>
      <trkpt lat="48.20018" lon="-4.08533">
        <ele>52.840312</ele>
        <time>2022-12-10T13:15:05.178Z</time>
      </trkpt>
      <trkpt lat="48.20007" lon="-4.08543">
        <ele>52.896393</ele>
        <time>2022-12-10T13:15:08.191Z</time>
      </trkpt>
      <trkpt lat="48.19996" lon="-4.0855">
        <ele>52.943422</ele>
        <time>2022-12-10T13:15:11.196Z</time>
      </trkpt>
      <trkpt lat="48.19986" lon="-4.08558">
        <ele>52.964369</ele>
        <time>2022-12-10T13:15:14.193Z</time>
      </trkpt>
      <trkpt lat="48.19975" lon="-4.08565">
        <ele>52.98613</ele>
        <time>2022-12-10T13:15:17.211Z</time>
      </trkpt>
      <trkpt lat="48.19964" lon="-4.08574">
        <ele>53.007842</ele>
        <time>2022-12-10T13:15:20.199Z</time>
      </trkpt>
      <trkpt lat="48.19953" lon="-4.08581">
        <ele>53.028751</ele>
        <time>2022-12-10T13:15:23.198Z</time>
      </trkpt>
      <trkpt lat="48.19943" lon="-4.08588">
        <ele>53.049617</ele>
        <time>2022-12-10T13:15:26.202Z</time>
      </trkpt>
      <trkpt lat="48.19931" lon="-4.08593">
        <ele>53.070891</ele>
        <time>2022-12-10T13:15:29.180Z</time>
      </trkpt>
      <trkpt lat="48.19921" lon="-4.08601">
        <ele>53.092159</ele>
        <time>2022-12-10T13:15:32.180Z</time>
      </trkpt>
      <trkpt lat="48.1991" lon="-4.0861">
        <ele>53.113615</ele>
        <time>2022-12-10T13:15:35.201Z</time>
      </trkpt>
      <trkpt lat="48.19899" lon="-4.08618">
        <ele>53.136493</ele>
        <time>2022-12-10T13:15:38.206Z</time>
      </trkpt>
      <trkpt lat="48.19891" lon="-4.08624">
        <ele>53.152835</ele>
        <time>2022-12-10T13:15:40.199Z</time>
      </trkpt>
      <trkpt lat="48.19883" lon="-4.08631">
        <ele>53.169476</ele>
        <time>2022-12-10T13:15:42.179Z</time>
      </trkpt>
      <trkpt lat="48.19875" lon="-4.08638">
        <ele>53.186334</ele>
        <time>2022-12-10T13:15:44.192Z</time>
      </trkpt>
      <trkpt lat="48.19867" lon="-4.08648">
        <ele>53.203406</ele>
        <time>2022-12-10T13:15:46.196Z</time>
      </trkpt>
      <trkpt lat="48.19861" lon="-4.08658">
        <ele>53.220305</ele>
        <time>2022-12-10T13:15:48.197Z</time>
      </trkpt>
      <trkpt lat="48.19854" lon="-4.08668">
        <ele>53.237083</ele>
        <time>2022-12-10T13:15:50.186Z</time>
      </trkpt>
      <trkpt lat="48.19849" lon="-4.08678">
        <ele>53.253509</ele>
        <time>2022-12-10T13:15:52.202Z</time>
      </trkpt>
      <trkpt lat="48.19843" lon="-4.08689">
        <ele>53.279123</ele>
        <time>2022-12-10T13:15:54.176Z</time>
      </trkpt>
      <trkpt lat="48.19837" lon="-4.08706">
        <ele>53.340331</ele>
        <time>2022-12-10T13:15:57.194Z</time>
      </trkpt>
      <trkpt lat="48.19831" lon="-4.0872">
        <ele>53.396165</ele>
        <time>2022-12-10T13:16:00.192Z</time>
      </trkpt>
      <trkpt lat="48.19825" lon="-4.08734">
        <ele>53.450927</ele>
        <time>2022-12-10T13:16:03.196Z</time>
      </trkpt>
      <trkpt lat="48.19819" lon="-4.08749">
        <ele>53.509568</ele>
        <time>2022-12-10T13:16:06.195Z</time>
      </trkpt>
      <trkpt lat="48.19813" lon="-4.08765">
        <ele>53.568606</ele>
        <time>2022-12-10T13:16:09.195Z</time>
      </trkpt>
      <trkpt lat="48.19807" lon="-4.08781">
        <ele>53.630847</ele>
        <time>2022-12-10T13:16:12.196Z</time>
      </trkpt>
      <trkpt lat="48.19801" lon="-4.08798">
        <ele>53.695476</ele>
        <time>2022-12-10T13:16:15.198Z</time>
      </trkpt>
      <trkpt lat="48.19794" lon="-4.08815">
        <ele>53.761644</ele>
        <time>2022-12-10T13:16:18.196Z</time>
      </trkpt>
      <trkpt lat="48.19788" lon="-4.08833">
        <ele>53.826954</ele>
        <time>2022-12-10T13:16:21.183Z</time>
      </trkpt>
      <trkpt lat="48.19781" lon="-4.0885">
        <ele>53.89153</ele>
        <time>2022-12-10T13:16:24.196Z</time>
      </trkpt>
      <trkpt lat="48.19775" lon="-4.08866">
        <ele>53.955928</ele>
        <time>2022-12-10T13:16:27.212Z</time>
      </trkpt>
      <trkpt lat="48.19768" lon="-4.08883">
        <ele>54.020027</ele>
        <time>2022-12-10T13:16:30.192Z</time>
      </trkpt>
      <trkpt lat="48.19761" lon="-4.08899">
        <ele>54.08551</ele>
        <time>2022-12-10T13:16:33.202Z</time>
      </trkpt>
      <trkpt lat="48.19754" lon="-4.08916">
        <ele>54.148005</ele>
        <time>2022-12-10T13:16:36.198Z</time>
      </trkpt>
      <trkpt lat="48.19749" lon="-4.08931">
        <ele>54.152296</ele>
        <time>2022-12-10T13:16:39.179Z</time>
      </trkpt>
      <trkpt lat="48.19744" lon="-4.08944">
        <ele>54.14805</ele>
        <time>2022-12-10T13:16:42.194Z</time>
      </trkpt>
      <trkpt lat="48.19739" lon="-4.08957">
        <ele>54.144121</ele>
        <time>2022-12-10T13:16:45.186Z</time>
      </trkpt>
      <trkpt lat="48.19733" lon="-4.0897">
        <ele>54.140041</ele>
        <time>2022-12-10T13:16:48.192Z</time>
      </trkpt>
      <trkpt lat="48.19729" lon="-4.08984">
        <ele>54.135776</ele>
        <time>2022-12-10T13:16:51.197Z</time>
      </trkpt>
      <trkpt lat="48.19723" lon="-4.08999">
        <ele>54.131346</ele>
        <time>2022-12-10T13:16:54.203Z</time>
      </trkpt>
      <trkpt lat="48.19718" lon="-4.09013">
        <ele>54.126836</ele>
        <time>2022-12-10T13:16:57.202Z</time>
      </trkpt>
      <trkpt lat="48.19713" lon="-4.09027">
        <ele>54.122624</ele>
        <time>2022-12-10T13:17:00.192Z</time>
      </trkpt>
      <trkpt lat="48.19708" lon="-4.09041">
        <ele>54.118412</ele>
        <time>2022-12-10T13:17:03.188Z</time>
      </trkpt>
      <trkpt lat="48.19703" lon="-4.09055">
        <ele>54.114061</ele>
        <time>2022-12-10T13:17:06.197Z</time>
      </trkpt>
      <trkpt lat="48.19697" lon="-4.09068">
        <ele>54.109804</ele>
        <time>2022-12-10T13:17:09.208Z</time>
      </trkpt>
      <trkpt lat="48.19692" lon="-4.09081">
        <ele>54.105788</ele>
        <time>2022-12-10T13:17:12.177Z</time>
      </trkpt>
      <trkpt lat="48.19686" lon="-4.09096">
        <ele>54.101187</ele>
        <time>2022-12-10T13:17:16.191Z</time>
      </trkpt>
      <trkpt lat="48.19682" lon="-4.09108">
        <ele>54.097546</ele>
        <time>2022-12-10T13:17:19.198Z</time>
      </trkpt>
      <trkpt lat="48.19677" lon="-4.09122">
        <ele>54.093399</ele>
        <time>2022-12-10T13:17:22.193Z</time>
      </trkpt>
      <trkpt lat="48.19671" lon="-4.09136">
        <ele>54.089053</ele>
        <time>2022-12-10T13:17:25.200Z</time>
      </trkpt>
      <trkpt lat="48.19666" lon="-4.09151">
        <ele>54.084518</ele>
        <time>2022-12-10T13:17:28.194Z</time>
      </trkpt>
      <trkpt lat="48.1966" lon="-4.09165">
        <ele>54.195419</ele>
        <time>2022-12-10T13:17:31.197Z</time>
      </trkpt>
      <trkpt lat="48.19655" lon="-4.0918">
        <ele>54.321449</ele>
        <time>2022-12-10T13:17:34.178Z</time>
      </trkpt>
      <trkpt lat="48.19649" lon="-4.09195">
        <ele>54.44965</ele>
        <time>2022-12-10T13:17:37.209Z</time>
      </trkpt>
      <trkpt lat="48.19643" lon="-4.0921">
        <ele>54.580308</ele>
        <time>2022-12-10T13:17:40.197Z</time>
      </trkpt>
      <trkpt lat="48.19637" lon="-4.09224">
        <ele>54.709305</ele>
        <time>2022-12-10T13:17:43.190Z</time>
      </trkpt>
      <trkpt lat="48.19631" lon="-4.0924">
        <ele>54.844341</ele>
        <time>2022-12-10T13:17:46.192Z</time>
      </trkpt>
      <trkpt lat="48.19625" lon="-4.09255">
        <ele>54.972781</ele>
        <time>2022-12-10T13:17:49.203Z</time>
      </trkpt>
      <trkpt lat="48.1962" lon="-4.09269">
        <ele>55.093586</ele>
        <time>2022-12-10T13:17:52.204Z</time>
      </trkpt>
      <trkpt lat="48.19615" lon="-4.0928">
        <ele>55.195767</ele>
        <time>2022-12-10T13:17:55.185Z</time>
      </trkpt>
      <trkpt lat="48.19613" lon="-4.09295">
        <ele>55.309147</ele>
        <time>2022-12-10T13:18:00.176Z</time>
      </trkpt>
      <trkpt lat="48.19605" lon="-4.09308">
        <ele>55.437716</ele>
        <time>2022-12-10T13:18:05.189Z</time>
      </trkpt>
      <trkpt lat="48.19599" lon="-4.0932">
        <ele>55.55429</ele>
        <time>2022-12-10T13:18:08.176Z</time>
      </trkpt>
      <trkpt lat="48.19593" lon="-4.09334">
        <ele>55.678259</ele>
        <time>2022-12-10T13:18:11.193Z</time>
      </trkpt>
      <trkpt lat="48.19588" lon="-4.09348">
        <ele>55.794882</ele>
        <time>2022-12-10T13:18:14.204Z</time>
      </trkpt>
      <trkpt lat="48.19583" lon="-4.0936">
        <ele>55.90673</ele>
        <time>2022-12-10T13:18:17.204Z</time>
      </trkpt>
      <trkpt lat="48.19577" lon="-4.09376">
        <ele>56.038454</ele>
        <time>2022-12-10T13:18:21.202Z</time>
      </trkpt>
      <trkpt lat="48.19572" lon="-4.0939">
        <ele>56.094284</ele>
        <time>2022-12-10T13:18:25.193Z</time>
      </trkpt>
      <trkpt lat="48.19568" lon="-4.09406">
        <ele>56.057607</ele>
        <time>2022-12-10T13:18:29.201Z</time>
      </trkpt>
      <trkpt lat="48.19559" lon="-4.09409">
        <ele>56.026684</ele>
        <time>2022-12-10T13:18:33.191Z</time>
      </trkpt>
      <trkpt lat="48.1955" lon="-4.09402">
        <ele>55.993573</ele>
        <time>2022-12-10T13:18:37.182Z</time>
      </trkpt>
      <trkpt lat="48.19541" lon="-4.09394">
        <ele>55.959527</ele>
        <time>2022-12-10T13:18:41.185Z</time>
      </trkpt>
      <trkpt lat="48.19531" lon="-4.09392">
        <ele>55.927566</ele>
        <time>2022-12-10T13:18:49.193Z</time>
      </trkpt>
      <trkpt lat="48.19526" lon="-4.09407">
        <ele>55.891001</ele>
        <time>2022-12-10T13:18:53.180Z</time>
      </trkpt>
      <trkpt lat="48.1952" lon="-4.09419">
        <ele>55.856616</ele>
        <time>2022-12-10T13:18:56.193Z</time>
      </trkpt>
      <trkpt lat="48.19513" lon="-4.09432">
        <ele>55.819237</ele>
        <time>2022-12-10T13:18:59.182Z</time>
      </trkpt>
      <trkpt lat="48.19506" lon="-4.09445">
        <ele>55.783666</ele>
        <time>2022-12-10T13:19:02.181Z</time>
      </trkpt>
      <trkpt lat="48.195" lon="-4.09459">
        <ele>55.747265</ele>
        <time>2022-12-10T13:19:05.173Z</time>
      </trkpt>
      <trkpt lat="48.19495" lon="-4.09473">
        <ele>55.711404</ele>
        <time>2022-12-10T13:19:08.203Z</time>
      </trkpt>
      <trkpt lat="48.1949" lon="-4.09486">
        <ele>55.677761</ele>
        <time>2022-12-10T13:19:11.193Z</time>
      </trkpt>
      <trkpt lat="48.19491" lon="-4.09501">
        <ele>55.644647</ele>
        <time>2022-12-10T13:19:15.177Z</time>
      </trkpt>
      <trkpt lat="48.19501" lon="-4.09508">
        <ele>55.609167</ele>
        <time>2022-12-10T13:19:19.182Z</time>
      </trkpt>
      <trkpt lat="48.19509" lon="-4.09516">
        <ele>55.578003</ele>
        <time>2022-12-10T13:19:22.194Z</time>
      </trkpt>
      <trkpt lat="48.19515" lon="-4.09529">
        <ele>55.541794</ele>
        <time>2022-12-10T13:19:26.175Z</time>
      </trkpt>
      <trkpt lat="48.19513" lon="-4.09543">
        <ele>55.510245</ele>
        <time>2022-12-10T13:19:29.173Z</time>
      </trkpt>
      <trkpt lat="48.19508" lon="-4.09556">
        <ele>55.4593</ele>
        <time>2022-12-10T13:19:32.182Z</time>
      </trkpt>
      <trkpt lat="48.19503" lon="-4.09569">
        <ele>55.408057</ele>
        <time>2022-12-10T13:19:35.208Z</time>
      </trkpt>
      <trkpt lat="48.19498" lon="-4.09582">
        <ele>55.359728</ele>
        <time>2022-12-10T13:19:38.178Z</time>
      </trkpt>
      <trkpt lat="48.19493" lon="-4.09594">
        <ele>55.308135</ele>
        <time>2022-12-10T13:19:41.199Z</time>
      </trkpt>
      <trkpt lat="48.19486" lon="-4.09606">
        <ele>55.255522</ele>
        <time>2022-12-10T13:19:44.184Z</time>
      </trkpt>
      <trkpt lat="48.19478" lon="-4.09615">
        <ele>55.204668</ele>
        <time>2022-12-10T13:19:47.176Z</time>
      </trkpt>
      <trkpt lat="48.19469" lon="-4.09621">
        <ele>55.155713</ele>
        <time>2022-12-10T13:19:50.178Z</time>
      </trkpt>
      <trkpt lat="48.1946" lon="-4.09623">
        <ele>55.1077</ele>
        <time>2022-12-10T13:19:53.176Z</time>
      </trkpt>
      <trkpt lat="48.1945" lon="-4.09621">
        <ele>55.059947</ele>
        <time>2022-12-10T13:19:56.183Z</time>
      </trkpt>
      <trkpt lat="48.19441" lon="-4.09617">
        <ele>55.009974</ele>
        <time>2022-12-10T13:19:59.189Z</time>
      </trkpt>
      <trkpt lat="48.19431" lon="-4.09613">
        <ele>54.955648</ele>
        <time>2022-12-10T13:20:02.203Z</time>
      </trkpt>
      <trkpt lat="48.19421" lon="-4.09609">
        <ele>54.904238</ele>
        <time>2022-12-10T13:20:05.194Z</time>
      </trkpt>
      <trkpt lat="48.19411" lon="-4.09602">
        <ele>54.850101</ele>
        <time>2022-12-10T13:20:09.200Z</time>
      </trkpt>
      <trkpt lat="48.19401" lon="-4.09602">
        <ele>54.799782</ele>
        <time>2022-12-10T13:20:28.186Z</time>
      </trkpt>
      <trkpt lat="48.19392" lon="-4.096">
        <ele>54.753197</ele>
        <time>2022-12-10T13:20:33.180Z</time>
      </trkpt>
      <trkpt lat="48.19381" lon="-4.09595">
        <ele>54.695735</ele>
        <time>2022-12-10T13:20:38.181Z</time>
      </trkpt>
      <trkpt lat="48.19372" lon="-4.0959">
        <ele>54.645398</ele>
        <time>2022-12-10T13:20:42.205Z</time>
      </trkpt>
      <trkpt lat="48.19363" lon="-4.09584">
        <ele>54.596031</ele>
        <time>2022-12-10T13:20:45.180Z</time>
      </trkpt>
      <trkpt lat="48.19355" lon="-4.09578">
        <ele>54.535326</ele>
        <time>2022-12-10T13:20:48.190Z</time>
      </trkpt>
      <trkpt lat="48.19346" lon="-4.09572">
        <ele>54.473521</ele>
        <time>2022-12-10T13:20:51.194Z</time>
      </trkpt>
      <trkpt lat="48.19337" lon="-4.09566">
        <ele>54.410746</ele>
        <time>2022-12-10T13:20:54.196Z</time>
      </trkpt>
      <trkpt lat="48.19329" lon="-4.09559">
        <ele>54.34797</ele>
        <time>2022-12-10T13:20:57.201Z</time>
      </trkpt>
      <trkpt lat="48.1932" lon="-4.09552">
        <ele>54.283274</ele>
        <time>2022-12-10T13:21:00.196Z</time>
      </trkpt>
      <trkpt lat="48.19311" lon="-4.09544">
        <ele>54.216914</ele>
        <time>2022-12-10T13:21:03.195Z</time>
      </trkpt>
      <trkpt lat="48.19302" lon="-4.09537">
        <ele>54.149225</ele>
        <time>2022-12-10T13:21:06.198Z</time>
      </trkpt>
      <trkpt lat="48.19293" lon="-4.09527">
        <ele>54.08017</ele>
        <time>2022-12-10T13:21:09.192Z</time>
      </trkpt>
      <trkpt lat="48.19285" lon="-4.09518">
        <ele>54.013711</ele>
        <time>2022-12-10T13:21:12.174Z</time>
      </trkpt>
      <trkpt lat="48.19277" lon="-4.09507">
        <ele>53.945663</ele>
        <time>2022-12-10T13:21:15.202Z</time>
      </trkpt>
      <trkpt lat="48.19269" lon="-4.09497">
        <ele>53.879435</ele>
        <time>2022-12-10T13:21:18.198Z</time>
      </trkpt>
      <trkpt lat="48.19262" lon="-4.09485">
        <ele>53.812792</ele>
        <time>2022-12-10T13:21:21.205Z</time>
      </trkpt>
      <trkpt lat="48.19255" lon="-4.09474">
        <ele>53.745957</ele>
        <time>2022-12-10T13:21:24.174Z</time>
      </trkpt>
      <trkpt lat="48.19248" lon="-4.09462">
        <ele>53.676986</ele>
        <time>2022-12-10T13:21:27.193Z</time>
      </trkpt>
      <trkpt lat="48.19241" lon="-4.09451">
        <ele>53.612403</ele>
        <time>2022-12-10T13:21:30.198Z</time>
      </trkpt>
      <trkpt lat="48.19235" lon="-4.09439">
        <ele>53.545304</ele>
        <time>2022-12-10T13:21:33.177Z</time>
      </trkpt>
      <trkpt lat="48.19228" lon="-4.09426">
        <ele>53.477941</ele>
        <time>2022-12-10T13:21:36.194Z</time>
      </trkpt>
      <trkpt lat="48.19221" lon="-4.09415">
        <ele>53.477397</ele>
        <time>2022-12-10T13:21:39.196Z</time>
      </trkpt>
      <trkpt lat="48.19214" lon="-4.09401">
        <ele>53.555491</ele>
        <time>2022-12-10T13:21:42.184Z</time>
      </trkpt>
      <trkpt lat="48.19207" lon="-4.09388">
        <ele>53.633598</ele>
        <time>2022-12-10T13:21:45.179Z</time>
      </trkpt>
      <trkpt lat="48.19199" lon="-4.09375">
        <ele>53.712951</ele>
        <time>2022-12-10T13:21:48.206Z</time>
      </trkpt>
      <trkpt lat="48.19191" lon="-4.09363">
        <ele>53.793062</ele>
        <time>2022-12-10T13:21:51.192Z</time>
      </trkpt>
      <trkpt lat="48.19184" lon="-4.09351">
        <ele>53.867088</ele>
        <time>2022-12-10T13:21:54.198Z</time>
      </trkpt>
      <trkpt lat="48.19177" lon="-4.09339">
        <ele>53.940766</ele>
        <time>2022-12-10T13:21:57.208Z</time>
      </trkpt>
      <trkpt lat="48.1917" lon="-4.09327">
        <ele>54.017092</ele>
        <time>2022-12-10T13:22:00.184Z</time>
      </trkpt>
      <trkpt lat="48.19162" lon="-4.09316">
        <ele>54.09115</ele>
        <time>2022-12-10T13:22:03.199Z</time>
      </trkpt>
      <trkpt lat="48.19155" lon="-4.09304">
        <ele>54.165838</ele>
        <time>2022-12-10T13:22:06.206Z</time>
      </trkpt>
      <trkpt lat="48.19148" lon="-4.09292">
        <ele>54.241727</ele>
        <time>2022-12-10T13:22:09.195Z</time>
      </trkpt>
      <trkpt lat="48.1914" lon="-4.0928">
        <ele>54.317754</ele>
        <time>2022-12-10T13:22:12.196Z</time>
      </trkpt>
      <trkpt lat="48.19132" lon="-4.09269">
        <ele>54.394244</ele>
        <time>2022-12-10T13:22:15.208Z</time>
      </trkpt>
      <trkpt lat="48.19124" lon="-4.09257">
        <ele>54.472102</ele>
        <time>2022-12-10T13:22:18.199Z</time>
      </trkpt>
      <trkpt lat="48.19115" lon="-4.09247">
        <ele>54.550377</ele>
        <time>2022-12-10T13:22:21.201Z</time>
      </trkpt>
      <trkpt lat="48.19106" lon="-4.09237">
        <ele>54.627598</ele>
        <time>2022-12-10T13:22:24.204Z</time>
      </trkpt>
      <trkpt lat="48.19098" lon="-4.09226">
        <ele>54.687477</ele>
        <time>2022-12-10T13:22:27.199Z</time>
      </trkpt>
      <trkpt lat="48.19089" lon="-4.09217">
        <ele>54.637992</ele>
        <time>2022-12-10T13:22:30.207Z</time>
      </trkpt>
      <trkpt lat="48.1908" lon="-4.09207">
        <ele>54.588836</ele>
        <time>2022-12-10T13:22:33.200Z</time>
      </trkpt>
      <trkpt lat="48.19071" lon="-4.09197">
        <ele>54.538082</ele>
        <time>2022-12-10T13:22:36.193Z</time>
      </trkpt>
      <trkpt lat="48.19062" lon="-4.09187">
        <ele>54.486054</ele>
        <time>2022-12-10T13:22:39.181Z</time>
      </trkpt>
      <trkpt lat="48.19053" lon="-4.09178">
        <ele>54.434408</ele>
        <time>2022-12-10T13:22:42.184Z</time>
      </trkpt>
      <trkpt lat="48.19043" lon="-4.09169">
        <ele>54.3834</ele>
        <time>2022-12-10T13:22:45.200Z</time>
      </trkpt>
      <trkpt lat="48.19034" lon="-4.0916">
        <ele>54.332258</ele>
        <time>2022-12-10T13:22:48.199Z</time>
      </trkpt>
      <trkpt lat="48.19023" lon="-4.09151">
        <ele>54.278648</ele>
        <time>2022-12-10T13:22:51.180Z</time>
      </trkpt>
      <trkpt lat="48.19013" lon="-4.09143">
        <ele>54.224127</ele>
        <time>2022-12-10T13:22:54.202Z</time>
      </trkpt>
      <trkpt lat="48.19002" lon="-4.09134">
        <ele>54.168671</ele>
        <time>2022-12-10T13:22:57.200Z</time>
      </trkpt>
      <trkpt lat="48.18993" lon="-4.09125">
        <ele>54.118047</ele>
        <time>2022-12-10T13:23:00.188Z</time>
      </trkpt>
      <trkpt lat="48.18983" lon="-4.09118">
        <ele>54.069365</ele>
        <time>2022-12-10T13:23:04.182Z</time>
      </trkpt>
      <trkpt lat="48.18975" lon="-4.0911">
        <ele>54.027713</ele>
        <time>2022-12-10T13:23:07.183Z</time>
      </trkpt>
      <trkpt lat="48.18967" lon="-4.09104">
        <ele>53.982694</ele>
        <time>2022-12-10T13:23:10.188Z</time>
      </trkpt>
      <trkpt lat="48.18957" lon="-4.09097">
        <ele>53.934558</ele>
        <time>2022-12-10T13:23:13.192Z</time>
      </trkpt>
      <trkpt lat="48.18948" lon="-4.09088">
        <ele>53.886028</ele>
        <time>2022-12-10T13:23:16.196Z</time>
      </trkpt>
      <trkpt lat="48.1894" lon="-4.09079">
        <ele>53.797067</ele>
        <time>2022-12-10T13:23:19.196Z</time>
      </trkpt>
      <trkpt lat="48.18931" lon="-4.09071">
        <ele>53.697639</ele>
        <time>2022-12-10T13:23:22.199Z</time>
      </trkpt>
      <trkpt lat="48.18923" lon="-4.09062">
        <ele>53.599677</ele>
        <time>2022-12-10T13:23:25.200Z</time>
      </trkpt>
      <trkpt lat="48.18915" lon="-4.09052">
        <ele>53.495738</ele>
        <time>2022-12-10T13:23:28.201Z</time>
      </trkpt>
      <trkpt lat="48.18908" lon="-4.09041">
        <ele>53.398436</ele>
        <time>2022-12-10T13:23:31.179Z</time>
      </trkpt>
      <trkpt lat="48.18901" lon="-4.09031">
        <ele>53.305976</ele>
        <time>2022-12-10T13:23:34.198Z</time>
      </trkpt>
      <trkpt lat="48.18894" lon="-4.0902">
        <ele>53.2063</ele>
        <time>2022-12-10T13:23:37.203Z</time>
      </trkpt>
      <trkpt lat="48.18888" lon="-4.09007">
        <ele>53.102668</ele>
        <time>2022-12-10T13:23:40.193Z</time>
      </trkpt>
      <trkpt lat="48.18881" lon="-4.08994">
        <ele>52.992231</ele>
        <time>2022-12-10T13:23:43.211Z</time>
      </trkpt>
      <trkpt lat="48.18873" lon="-4.08981">
        <ele>52.88017</ele>
        <time>2022-12-10T13:23:46.205Z</time>
      </trkpt>
      <trkpt lat="48.18866" lon="-4.08967">
        <ele>52.76477</ele>
        <time>2022-12-10T13:23:49.198Z</time>
      </trkpt>
      <trkpt lat="48.18859" lon="-4.08952">
        <ele>52.646578</ele>
        <time>2022-12-10T13:23:52.209Z</time>
      </trkpt>
      <trkpt lat="48.18852" lon="-4.08937">
        <ele>52.524193</ele>
        <time>2022-12-10T13:23:55.210Z</time>
      </trkpt>
      <trkpt lat="48.18844" lon="-4.08921">
        <ele>52.401841</ele>
        <time>2022-12-10T13:23:58.205Z</time>
      </trkpt>
      <trkpt lat="48.18839" lon="-4.08905">
        <ele>52.282904</ele>
        <time>2022-12-10T13:24:01.198Z</time>
      </trkpt>
      <trkpt lat="48.18833" lon="-4.08889">
        <ele>52.163923</ele>
        <time>2022-12-10T13:24:04.177Z</time>
      </trkpt>
      <trkpt lat="48.18829" lon="-4.08872">
        <ele>52.180682</ele>
        <time>2022-12-10T13:24:07.198Z</time>
      </trkpt>
      <trkpt lat="48.18826" lon="-4.08855">
        <ele>52.272467</ele>
        <time>2022-12-10T13:24:10.188Z</time>
      </trkpt>
      <trkpt lat="48.18824" lon="-4.08839">
        <ele>52.361845</ele>
        <time>2022-12-10T13:24:13.203Z</time>
      </trkpt>
      <trkpt lat="48.18822" lon="-4.08822">
        <ele>52.450557</ele>
        <time>2022-12-10T13:24:16.192Z</time>
      </trkpt>
      <trkpt lat="48.1882" lon="-4.08805">
        <ele>52.53826</ele>
        <time>2022-12-10T13:24:19.176Z</time>
      </trkpt>
      <trkpt lat="48.18818" lon="-4.08789">
        <ele>52.626103</ele>
        <time>2022-12-10T13:24:22.199Z</time>
      </trkpt>
      <trkpt lat="48.18816" lon="-4.08772">
        <ele>52.713869</ele>
        <time>2022-12-10T13:24:25.192Z</time>
      </trkpt>
      <trkpt lat="48.18814" lon="-4.08756">
        <ele>52.802803</ele>
        <time>2022-12-10T13:24:28.199Z</time>
      </trkpt>
      <trkpt lat="48.18813" lon="-4.0874">
        <ele>52.887949</ele>
        <time>2022-12-10T13:24:31.188Z</time>
      </trkpt>
      <trkpt lat="48.18813" lon="-4.08723">
        <ele>52.975571</ele>
        <time>2022-12-10T13:24:34.201Z</time>
      </trkpt>
      <trkpt lat="48.18812" lon="-4.08706">
        <ele>53.065326</ele>
        <time>2022-12-10T13:24:37.204Z</time>
      </trkpt>
      <trkpt lat="48.18812" lon="-4.08689">
        <ele>53.154987</ele>
        <time>2022-12-10T13:24:40.202Z</time>
      </trkpt>
      <trkpt lat="48.18812" lon="-4.08672">
        <ele>53.244093</ele>
        <time>2022-12-10T13:24:43.198Z</time>
      </trkpt>
      <trkpt lat="48.18812" lon="-4.08655">
        <ele>53.329065</ele>
        <time>2022-12-10T13:24:46.203Z</time>
      </trkpt>
      <trkpt lat="48.18813" lon="-4.08639">
        <ele>53.415256</ele>
        <time>2022-12-10T13:24:49.201Z</time>
      </trkpt>
      <trkpt lat="48.18814" lon="-4.08622">
        <ele>53.504061</ele>
        <time>2022-12-10T13:24:52.200Z</time>
      </trkpt>
      <trkpt lat="48.18815" lon="-4.08605">
        <ele>53.597479</ele>
        <time>2022-12-10T13:24:55.203Z</time>
      </trkpt>
      <trkpt lat="48.18816" lon="-4.08587">
        <ele>53.694291</ele>
        <time>2022-12-10T13:24:58.208Z</time>
      </trkpt>
      <trkpt lat="48.18818" lon="-4.0857">
        <ele>53.791327</ele>
        <time>2022-12-10T13:25:01.197Z</time>
      </trkpt>
      <trkpt lat="48.1882" lon="-4.08553">
        <ele>53.886949</ele>
        <time>2022-12-10T13:25:04.201Z</time>
      </trkpt>
      <trkpt lat="48.18821" lon="-4.08535">
        <ele>53.984413</ele>
        <time>2022-12-10T13:25:07.194Z</time>
      </trkpt>
      <trkpt lat="48.18823" lon="-4.08518">
        <ele>54.079972</ele>
        <time>2022-12-10T13:25:10.197Z</time>
      </trkpt>
      <trkpt lat="48.18826" lon="-4.08501">
        <ele>54.176928</ele>
        <time>2022-12-10T13:25:13.198Z</time>
      </trkpt>
      <trkpt lat="48.18829" lon="-4.08484">
        <ele>54.269934</ele>
        <time>2022-12-10T13:25:16.179Z</time>
      </trkpt>
      <trkpt lat="48.18832" lon="-4.08468">
        <ele>54.366559</ele>
        <time>2022-12-10T13:25:19.197Z</time>
      </trkpt>
      <trkpt lat="48.18836" lon="-4.08451">
        <ele>54.461825</ele>
        <time>2022-12-10T13:25:22.201Z</time>
      </trkpt>
      <trkpt lat="48.18841" lon="-4.08435">
        <ele>54.556757</ele>
        <time>2022-12-10T13:25:25.179Z</time>
      </trkpt>
      <trkpt lat="48.18846" lon="-4.08419">
        <ele>54.655044</ele>
        <time>2022-12-10T13:25:28.194Z</time>
      </trkpt>
      <trkpt lat="48.18852" lon="-4.08404">
        <ele>54.751234</ele>
        <time>2022-12-10T13:25:31.203Z</time>
      </trkpt>
      <trkpt lat="48.18857" lon="-4.08389">
        <ele>54.845905</ele>
        <time>2022-12-10T13:25:34.184Z</time>
      </trkpt>
      <trkpt lat="48.18864" lon="-4.08375">
        <ele>54.941359</ele>
        <time>2022-12-10T13:25:37.207Z</time>
      </trkpt>
      <trkpt lat="48.18871" lon="-4.0836">
        <ele>55.04036</ele>
        <time>2022-12-10T13:25:40.203Z</time>
      </trkpt>
      <trkpt lat="48.18878" lon="-4.08345">
        <ele>55.136847</ele>
        <time>2022-12-10T13:25:43.208Z</time>
      </trkpt>
      <trkpt lat="48.18884" lon="-4.08331">
        <ele>55.228454</ele>
        <time>2022-12-10T13:25:46.195Z</time>
      </trkpt>
      <trkpt lat="48.18891" lon="-4.08317">
        <ele>55.321112</ele>
        <time>2022-12-10T13:25:49.209Z</time>
      </trkpt>
      <trkpt lat="48.18898" lon="-4.08304">
        <ele>55.411512</ele>
        <time>2022-12-10T13:25:52.195Z</time>
      </trkpt>
      <trkpt lat="48.18905" lon="-4.08292">
        <ele>55.495436</ele>
        <time>2022-12-10T13:25:55.205Z</time>
      </trkpt>
      <trkpt lat="48.18912" lon="-4.08279">
        <ele>55.583798</ele>
        <time>2022-12-10T13:25:58.209Z</time>
      </trkpt>
      <trkpt lat="48.18919" lon="-4.08267">
        <ele>55.673674</ele>
        <time>2022-12-10T13:26:01.196Z</time>
      </trkpt>
      <trkpt lat="48.18927" lon="-4.08254">
        <ele>55.764097</ele>
        <time>2022-12-10T13:26:04.212Z</time>
      </trkpt>
      <trkpt lat="48.18933" lon="-4.08241">
        <ele>55.853645</ele>
        <time>2022-12-10T13:26:07.199Z</time>
      </trkpt>
      <trkpt lat="48.18941" lon="-4.08228">
        <ele>55.94285</ele>
        <time>2022-12-10T13:26:10.213Z</time>
      </trkpt>
      <trkpt lat="48.18948" lon="-4.08216">
        <ele>56.032587</ele>
        <time>2022-12-10T13:26:13.194Z</time>
      </trkpt>
      <trkpt lat="48.18956" lon="-4.08203">
        <ele>56.124598</ele>
        <time>2022-12-10T13:26:16.193Z</time>
      </trkpt>
      <trkpt lat="48.18963" lon="-4.0819">
        <ele>56.216061</ele>
        <time>2022-12-10T13:26:19.176Z</time>
      </trkpt>
      <trkpt lat="48.18969" lon="-4.08176">
        <ele>56.304946</ele>
        <time>2022-12-10T13:26:22.202Z</time>
      </trkpt>
      <trkpt lat="48.18975" lon="-4.08162">
        <ele>56.39351</ele>
        <time>2022-12-10T13:26:25.187Z</time>
      </trkpt>
      <trkpt lat="48.1898" lon="-4.08147">
        <ele>56.487652</ele>
        <time>2022-12-10T13:26:28.197Z</time>
      </trkpt>
      <trkpt lat="48.18986" lon="-4.08132">
        <ele>56.604343</ele>
        <time>2022-12-10T13:26:31.193Z</time>
      </trkpt>
      <trkpt lat="48.18992" lon="-4.08117">
        <ele>56.721461</ele>
        <time>2022-12-10T13:26:34.203Z</time>
      </trkpt>
      <trkpt lat="48.18997" lon="-4.08102">
        <ele>56.837171</ele>
        <time>2022-12-10T13:26:37.197Z</time>
      </trkpt>
      <trkpt lat="48.19002" lon="-4.08088">
        <ele>56.943338</ele>
        <time>2022-12-10T13:26:40.206Z</time>
      </trkpt>
      <trkpt lat="48.19007" lon="-4.08075">
        <ele>57.044837</ele>
        <time>2022-12-10T13:26:43.204Z</time>
      </trkpt>
      <trkpt lat="48.19011" lon="-4.08061">
        <ele>57.145949</ele>
        <time>2022-12-10T13:26:46.206Z</time>
      </trkpt>
      <trkpt lat="48.19017" lon="-4.08047">
        <ele>57.256792</ele>
        <time>2022-12-10T13:26:49.202Z</time>
      </trkpt>
      <trkpt lat="48.19023" lon="-4.08033">
        <ele>57.370505</ele>
        <time>2022-12-10T13:26:52.204Z</time>
      </trkpt>
      <trkpt lat="48.19028" lon="-4.08019">
        <ele>57.479563</ele>
        <time>2022-12-10T13:26:55.208Z</time>
      </trkpt>
      <trkpt lat="48.19033" lon="-4.08004">
        <ele>57.587684</ele>
        <time>2022-12-10T13:26:58.187Z</time>
      </trkpt>
      <trkpt lat="48.19038" lon="-4.07992">
        <ele>57.68311</ele>
        <time>2022-12-10T13:27:01.210Z</time>
      </trkpt>
      <trkpt lat="48.19043" lon="-4.0798">
        <ele>57.781053</ele>
        <time>2022-12-10T13:27:04.208Z</time>
      </trkpt>
      <trkpt lat="48.19048" lon="-4.07965">
        <ele>57.893918</ele>
        <time>2022-12-10T13:27:07.198Z</time>
      </trkpt>
      <trkpt lat="48.19054" lon="-4.07951">
        <ele>58.007516</ele>
        <time>2022-12-10T13:27:10.205Z</time>
      </trkpt>
      <trkpt lat="48.1906" lon="-4.07936">
        <ele>58.12049</ele>
        <time>2022-12-10T13:27:13.205Z</time>
      </trkpt>
      <trkpt lat="48.19065" lon="-4.07921">
        <ele>58.235357</ele>
        <time>2022-12-10T13:27:16.195Z</time>
      </trkpt>
      <trkpt lat="48.19071" lon="-4.07906">
        <ele>58.251741</ele>
        <time>2022-12-10T13:27:19.204Z</time>
      </trkpt>
      <trkpt lat="48.19076" lon="-4.07892">
        <ele>58.210418</ele>
        <time>2022-12-10T13:27:22.189Z</time>
      </trkpt>
      <trkpt lat="48.19082" lon="-4.07877">
        <ele>58.168797</ele>
        <time>2022-12-10T13:27:25.195Z</time>
      </trkpt>
      <trkpt lat="48.19088" lon="-4.07863">
        <ele>58.125047</ele>
        <time>2022-12-10T13:27:28.209Z</time>
      </trkpt>
      <trkpt lat="48.19093" lon="-4.07848">
        <ele>58.081853</ele>
        <time>2022-12-10T13:27:31.195Z</time>
      </trkpt>
      <trkpt lat="48.19099" lon="-4.07832">
        <ele>58.037746</ele>
        <time>2022-12-10T13:27:34.201Z</time>
      </trkpt>
      <trkpt lat="48.19104" lon="-4.07817">
        <ele>57.994169</ele>
        <time>2022-12-10T13:27:37.199Z</time>
      </trkpt>
      <trkpt lat="48.19111" lon="-4.07801">
        <ele>57.948094</ele>
        <time>2022-12-10T13:27:40.201Z</time>
      </trkpt>
      <trkpt lat="48.19116" lon="-4.07785">
        <ele>57.902302</ele>
        <time>2022-12-10T13:27:43.204Z</time>
      </trkpt>
      <trkpt lat="48.19122" lon="-4.07769">
        <ele>57.85574</ele>
        <time>2022-12-10T13:27:46.201Z</time>
      </trkpt>
      <trkpt lat="48.19129" lon="-4.07753">
        <ele>57.808583</ele>
        <time>2022-12-10T13:27:49.191Z</time>
      </trkpt>
      <trkpt lat="48.19135" lon="-4.07737">
        <ele>57.761687</ele>
        <time>2022-12-10T13:27:52.204Z</time>
      </trkpt>
      <trkpt lat="48.19141" lon="-4.07722">
        <ele>57.718349</ele>
        <time>2022-12-10T13:27:55.202Z</time>
      </trkpt>
      <trkpt lat="48.19148" lon="-4.07709">
        <ele>57.676568</ele>
        <time>2022-12-10T13:27:58.207Z</time>
      </trkpt>
      <trkpt lat="48.19156" lon="-4.07696">
        <ele>57.631512</ele>
        <time>2022-12-10T13:28:01.199Z</time>
      </trkpt>
      <trkpt lat="48.19164" lon="-4.07682">
        <ele>57.56954</ele>
        <time>2022-12-10T13:28:04.175Z</time>
      </trkpt>
      <trkpt lat="48.19171" lon="-4.07667">
        <ele>57.461509</ele>
        <time>2022-12-10T13:28:07.186Z</time>
      </trkpt>
      <trkpt lat="48.1918" lon="-4.07653">
        <ele>57.355082</ele>
        <time>2022-12-10T13:28:10.178Z</time>
      </trkpt>
      <trkpt lat="48.19188" lon="-4.07641">
        <ele>57.255476</ele>
        <time>2022-12-10T13:28:13.188Z</time>
      </trkpt>
      <trkpt lat="48.19196" lon="-4.07629">
        <ele>57.157691</ele>
        <time>2022-12-10T13:28:16.195Z</time>
      </trkpt>
      <trkpt lat="48.19205" lon="-4.07618">
        <ele>57.055557</ele>
        <time>2022-12-10T13:28:19.177Z</time>
      </trkpt>
      <trkpt lat="48.19214" lon="-4.07607">
        <ele>56.956595</ele>
        <time>2022-12-10T13:28:22.191Z</time>
      </trkpt>
      <trkpt lat="48.19223" lon="-4.07596">
        <ele>56.855897</ele>
        <time>2022-12-10T13:28:25.199Z</time>
      </trkpt>
      <trkpt lat="48.19233" lon="-4.07586">
        <ele>56.752454</ele>
        <time>2022-12-10T13:28:28.195Z</time>
      </trkpt>
      <trkpt lat="48.19243" lon="-4.07576">
        <ele>56.649751</ele>
        <time>2022-12-10T13:28:31.204Z</time>
      </trkpt>
      <trkpt lat="48.19254" lon="-4.07567">
        <ele>56.545592</ele>
        <time>2022-12-10T13:28:34.197Z</time>
      </trkpt>
      <trkpt lat="48.19263" lon="-4.07556">
        <ele>56.442521</ele>
        <time>2022-12-10T13:28:37.183Z</time>
      </trkpt>
      <trkpt lat="48.19274" lon="-4.07547">
        <ele>56.33926</ele>
        <time>2022-12-10T13:28:40.207Z</time>
      </trkpt>
      <trkpt lat="48.19285" lon="-4.07537">
        <ele>56.224907</ele>
        <time>2022-12-10T13:28:43.203Z</time>
      </trkpt>
      <trkpt lat="48.19293" lon="-4.07531">
        <ele>56.147299</ele>
        <time>2022-12-10T13:28:45.184Z</time>
      </trkpt>
      <trkpt lat="48.19305" lon="-4.07522">
        <ele>56.058089</ele>
        <time>2022-12-10T13:28:48.197Z</time>
      </trkpt>
      <trkpt lat="48.19316" lon="-4.07512">
        <ele>56.074762</ele>
        <time>2022-12-10T13:28:51.197Z</time>
      </trkpt>
      <trkpt lat="48.19328" lon="-4.07504">
        <ele>56.091648</ele>
        <time>2022-12-10T13:28:54.179Z</time>
      </trkpt>
      <trkpt lat="48.1934" lon="-4.07496">
        <ele>56.107962</ele>
        <time>2022-12-10T13:28:57.198Z</time>
      </trkpt>
      <trkpt lat="48.19352" lon="-4.07489">
        <ele>56.124255</ele>
        <time>2022-12-10T13:29:00.199Z</time>
      </trkpt>
      <trkpt lat="48.19363" lon="-4.0748">
        <ele>56.140598</ele>
        <time>2022-12-10T13:29:03.210Z</time>
      </trkpt>
      <trkpt lat="48.19374" lon="-4.07472">
        <ele>56.156595</ele>
        <time>2022-12-10T13:29:06.178Z</time>
      </trkpt>
      <trkpt lat="48.19386" lon="-4.07463">
        <ele>56.172939</ele>
        <time>2022-12-10T13:29:09.194Z</time>
      </trkpt>
      <trkpt lat="48.19396" lon="-4.07455">
        <ele>56.18871</ele>
        <time>2022-12-10T13:29:12.206Z</time>
      </trkpt>
      <trkpt lat="48.19406" lon="-4.07446">
        <ele>56.202437</ele>
        <time>2022-12-10T13:29:15.194Z</time>
      </trkpt>
      <trkpt lat="48.19414" lon="-4.07437">
        <ele>56.21581</ele>
        <time>2022-12-10T13:29:18.198Z</time>
      </trkpt>
      <trkpt lat="48.19424" lon="-4.07429">
        <ele>56.230333</ele>
        <time>2022-12-10T13:29:21.179Z</time>
      </trkpt>
      <trkpt lat="48.19435" lon="-4.0742">
        <ele>56.245645</ele>
        <time>2022-12-10T13:29:24.202Z</time>
      </trkpt>
      <trkpt lat="48.19445" lon="-4.07412">
        <ele>56.261417</ele>
        <time>2022-12-10T13:29:27.202Z</time>
      </trkpt>
      <trkpt lat="48.19456" lon="-4.07403">
        <ele>56.276808</ele>
        <time>2022-12-10T13:29:30.205Z</time>
      </trkpt>
      <trkpt lat="48.19467" lon="-4.07395">
        <ele>56.302996</ele>
        <time>2022-12-10T13:29:33.197Z</time>
      </trkpt>
      <trkpt lat="48.19479" lon="-4.07388">
        <ele>56.34225</ele>
        <time>2022-12-10T13:29:36.209Z</time>
      </trkpt>
      <trkpt lat="48.19491" lon="-4.07381">
        <ele>56.382232</ele>
        <time>2022-12-10T13:29:39.208Z</time>
      </trkpt>
      <trkpt lat="48.19503" lon="-4.07375">
        <ele>56.422091</ele>
        <time>2022-12-10T13:29:42.205Z</time>
      </trkpt>
      <trkpt lat="48.19515" lon="-4.07369">
        <ele>56.460415</ele>
        <time>2022-12-10T13:29:45.196Z</time>
      </trkpt>
      <trkpt lat="48.19526" lon="-4.07363">
        <ele>56.496985</ele>
        <time>2022-12-10T13:29:48.198Z</time>
      </trkpt>
      <trkpt lat="48.19538" lon="-4.07358">
        <ele>56.53451</ele>
        <time>2022-12-10T13:29:51.200Z</time>
      </trkpt>
      <trkpt lat="48.1955" lon="-4.07354">
        <ele>56.572308</ele>
        <time>2022-12-10T13:29:54.197Z</time>
      </trkpt>
      <trkpt lat="48.1956" lon="-4.0735">
        <ele>56.607138</ele>
        <time>2022-12-10T13:29:57.191Z</time>
      </trkpt>
      <trkpt lat="48.19571" lon="-4.07344">
        <ele>56.642783</ele>
        <time>2022-12-10T13:30:00.197Z</time>
      </trkpt>
      <trkpt lat="48.19581" lon="-4.07338">
        <ele>56.676607</ele>
        <time>2022-12-10T13:30:03.197Z</time>
      </trkpt>
      <trkpt lat="48.19592" lon="-4.07332">
        <ele>56.7118</ele>
        <time>2022-12-10T13:30:06.200Z</time>
      </trkpt>
      <trkpt lat="48.19603" lon="-4.07329">
        <ele>56.746741</ele>
        <time>2022-12-10T13:30:09.194Z</time>
      </trkpt>
      <trkpt lat="48.19615" lon="-4.07325">
        <ele>56.784632</ele>
        <time>2022-12-10T13:30:12.201Z</time>
      </trkpt>
      <trkpt lat="48.19627" lon="-4.0732">
        <ele>56.822527</ele>
        <time>2022-12-10T13:30:15.203Z</time>
      </trkpt>
      <trkpt lat="48.19639" lon="-4.07314">
        <ele>56.806089</ele>
        <time>2022-12-10T13:30:18.177Z</time>
      </trkpt>
      <trkpt lat="48.1965" lon="-4.07307">
        <ele>56.72907</ele>
        <time>2022-12-10T13:30:21.182Z</time>
      </trkpt>
      <trkpt lat="48.19661" lon="-4.07299">
        <ele>56.649721</ele>
        <time>2022-12-10T13:30:24.200Z</time>
      </trkpt>
      <trkpt lat="48.19672" lon="-4.07291">
        <ele>56.575636</ele>
        <time>2022-12-10T13:30:27.193Z</time>
      </trkpt>
      <trkpt lat="48.19682" lon="-4.07284">
        <ele>56.507537</ele>
        <time>2022-12-10T13:30:30.204Z</time>
      </trkpt>
      <trkpt lat="48.19692" lon="-4.07276">
        <ele>56.434187</ele>
        <time>2022-12-10T13:30:33.207Z</time>
      </trkpt>
      <trkpt lat="48.19703" lon="-4.07269">
        <ele>56.359323</ele>
        <time>2022-12-10T13:30:36.188Z</time>
      </trkpt>
      <trkpt lat="48.19714" lon="-4.0726">
        <ele>56.283716</ele>
        <time>2022-12-10T13:30:39.184Z</time>
      </trkpt>
      <trkpt lat="48.19724" lon="-4.07251">
        <ele>56.206891</ele>
        <time>2022-12-10T13:30:42.205Z</time>
      </trkpt>
      <trkpt lat="48.19734" lon="-4.07241">
        <ele>56.13039</ele>
        <time>2022-12-10T13:30:45.192Z</time>
      </trkpt>
      <trkpt lat="48.19745" lon="-4.07233">
        <ele>56.055827</ele>
        <time>2022-12-10T13:30:48.195Z</time>
      </trkpt>
      <trkpt lat="48.19756" lon="-4.07224">
        <ele>55.978715</ele>
        <time>2022-12-10T13:30:51.201Z</time>
      </trkpt>
      <trkpt lat="48.19766" lon="-4.07215">
        <ele>55.902303</ele>
        <time>2022-12-10T13:30:54.203Z</time>
      </trkpt>
      <trkpt lat="48.19777" lon="-4.07205">
        <ele>55.824823</ele>
        <time>2022-12-10T13:30:57.176Z</time>
      </trkpt>
      <trkpt lat="48.19785" lon="-4.07194">
        <ele>55.751749</ele>
        <time>2022-12-10T13:31:00.180Z</time>
      </trkpt>
      <trkpt lat="48.19794" lon="-4.07183">
        <ele>55.718672</ele>
        <time>2022-12-10T13:31:03.196Z</time>
      </trkpt>
      <trkpt lat="48.19802" lon="-4.07172">
        <ele>55.736112</ele>
        <time>2022-12-10T13:31:06.206Z</time>
      </trkpt>
      <trkpt lat="48.19811" lon="-4.0716">
        <ele>55.75537</ele>
        <time>2022-12-10T13:31:09.203Z</time>
      </trkpt>
      <trkpt lat="48.1982" lon="-4.07147">
        <ele>55.774577</ele>
        <time>2022-12-10T13:31:12.205Z</time>
      </trkpt>
      <trkpt lat="48.19828" lon="-4.07134">
        <ele>55.79425</ele>
        <time>2022-12-10T13:31:15.219Z</time>
      </trkpt>
      <trkpt lat="48.19836" lon="-4.0712">
        <ele>55.813475</ele>
        <time>2022-12-10T13:31:18.192Z</time>
      </trkpt>
      <trkpt lat="48.19845" lon="-4.07107">
        <ele>55.833283</ele>
        <time>2022-12-10T13:31:21.203Z</time>
      </trkpt>
      <trkpt lat="48.19854" lon="-4.07095">
        <ele>55.852444</ele>
        <time>2022-12-10T13:31:24.185Z</time>
      </trkpt>
      <trkpt lat="48.19861" lon="-4.07084">
        <ele>55.869036</ele>
        <time>2022-12-10T13:31:27.182Z</time>
      </trkpt>
      <trkpt lat="48.19869" lon="-4.07074">
        <ele>55.885183</ele>
        <time>2022-12-10T13:31:30.203Z</time>
      </trkpt>
      <trkpt lat="48.19878" lon="-4.07062">
        <ele>55.904224</ele>
        <time>2022-12-10T13:31:33.189Z</time>
      </trkpt>
      <trkpt lat="48.19888" lon="-4.07051">
        <ele>55.922997</ele>
        <time>2022-12-10T13:31:36.198Z</time>
      </trkpt>
      <trkpt lat="48.19898" lon="-4.0704">
        <ele>55.942467</ele>
        <time>2022-12-10T13:31:39.196Z</time>
      </trkpt>
      <trkpt lat="48.19907" lon="-4.07029">
        <ele>55.961872</ele>
        <time>2022-12-10T13:31:42.204Z</time>
      </trkpt>
      <trkpt lat="48.19917" lon="-4.07019">
        <ele>55.981355</ele>
        <time>2022-12-10T13:31:45.182Z</time>
      </trkpt>
      <trkpt lat="48.19927" lon="-4.07009">
        <ele>56.0004</ele>
        <time>2022-12-10T13:31:48.205Z</time>
      </trkpt>
      <trkpt lat="48.19936" lon="-4.06999">
        <ele>56.021633</ele>
        <time>2022-12-10T13:31:51.205Z</time>
      </trkpt>
      <trkpt lat="48.19946" lon="-4.06989">
        <ele>56.043631</ele>
        <time>2022-12-10T13:31:54.197Z</time>
      </trkpt>
      <trkpt lat="48.19956" lon="-4.06979">
        <ele>56.065408</ele>
        <time>2022-12-10T13:31:57.190Z</time>
      </trkpt>
      <trkpt lat="48.19966" lon="-4.06969">
        <ele>56.087032</ele>
        <time>2022-12-10T13:32:00.200Z</time>
      </trkpt>
      <trkpt lat="48.19976" lon="-4.06959">
        <ele>56.109004</ele>
        <time>2022-12-10T13:32:03.195Z</time>
      </trkpt>
      <trkpt lat="48.19986" lon="-4.06949">
        <ele>56.131273</ele>
        <time>2022-12-10T13:32:06.205Z</time>
      </trkpt>
      <trkpt lat="48.19996" lon="-4.06938">
        <ele>56.154213</ele>
        <time>2022-12-10T13:32:09.203Z</time>
      </trkpt>
      <trkpt lat="48.20005" lon="-4.06928">
        <ele>56.175596</ele>
        <time>2022-12-10T13:32:12.211Z</time>
      </trkpt>
      <trkpt lat="48.20014" lon="-4.06918">
        <ele>56.195945</ele>
        <time>2022-12-10T13:32:15.203Z</time>
      </trkpt>
      <trkpt lat="48.20024" lon="-4.06908">
        <ele>56.217363</ele>
        <time>2022-12-10T13:32:18.199Z</time>
      </trkpt>
      <trkpt lat="48.20034" lon="-4.06898">
        <ele>56.239977</ele>
        <time>2022-12-10T13:32:21.203Z</time>
      </trkpt>
      <trkpt lat="48.20044" lon="-4.06887">
        <ele>56.262909</ele>
        <time>2022-12-10T13:32:24.209Z</time>
      </trkpt>
      <trkpt lat="48.20053" lon="-4.06878">
        <ele>56.282599</ele>
        <time>2022-12-10T13:32:27.192Z</time>
      </trkpt>
      <trkpt lat="48.20062" lon="-4.06869">
        <ele>56.303864</ele>
        <time>2022-12-10T13:32:30.204Z</time>
      </trkpt>
      <trkpt lat="48.20072" lon="-4.06859">
        <ele>56.325557</ele>
        <time>2022-12-10T13:32:33.202Z</time>
      </trkpt>
      <trkpt lat="48.20082" lon="-4.0685">
        <ele>56.370703</ele>
        <time>2022-12-10T13:32:36.205Z</time>
      </trkpt>
      <trkpt lat="48.20091" lon="-4.0684">
        <ele>56.419038</ele>
        <time>2022-12-10T13:32:39.203Z</time>
      </trkpt>
      <trkpt lat="48.20101" lon="-4.0683">
        <ele>56.471033</ele>
        <time>2022-12-10T13:32:42.206Z</time>
      </trkpt>
      <trkpt lat="48.20111" lon="-4.06819">
        <ele>56.522959</ele>
        <time>2022-12-10T13:32:45.206Z</time>
      </trkpt>
      <trkpt lat="48.2012" lon="-4.06809">
        <ele>56.571459</ele>
        <time>2022-12-10T13:32:48.200Z</time>
      </trkpt>
      <trkpt lat="48.20128" lon="-4.06801">
        <ele>56.615518</ele>
        <time>2022-12-10T13:32:51.194Z</time>
      </trkpt>
      <trkpt lat="48.20136" lon="-4.06791">
        <ele>56.661096</ele>
        <time>2022-12-10T13:32:54.205Z</time>
      </trkpt>
      <trkpt lat="48.20145" lon="-4.06781">
        <ele>56.707689</ele>
        <time>2022-12-10T13:32:57.188Z</time>
      </trkpt>
      <trkpt lat="48.20154" lon="-4.06773">
        <ele>56.754904</ele>
        <time>2022-12-10T13:33:00.195Z</time>
      </trkpt>
      <trkpt lat="48.20163" lon="-4.06762">
        <ele>56.802946</ele>
        <time>2022-12-10T13:33:03.185Z</time>
      </trkpt>
      <trkpt lat="48.2017" lon="-4.06752">
        <ele>56.843533</ele>
        <time>2022-12-10T13:33:06.201Z</time>
      </trkpt>
      <trkpt lat="48.2018" lon="-4.06743">
        <ele>56.894128</ele>
        <time>2022-12-10T13:33:10.187Z</time>
      </trkpt>
      <trkpt lat="48.20187" lon="-4.06735">
        <ele>56.933326</ele>
        <time>2022-12-10T13:33:13.204Z</time>
      </trkpt>
      <trkpt lat="48.20195" lon="-4.06727">
        <ele>56.973184</ele>
        <time>2022-12-10T13:33:16.191Z</time>
      </trkpt>
      <trkpt lat="48.20203" lon="-4.06718">
        <ele>57.015794</ele>
        <time>2022-12-10T13:33:19.197Z</time>
      </trkpt>
      <trkpt lat="48.20211" lon="-4.06709">
        <ele>57.060833</ele>
        <time>2022-12-10T13:33:22.202Z</time>
      </trkpt>
      <trkpt lat="48.2022" lon="-4.067">
        <ele>57.103886</ele>
        <time>2022-12-10T13:33:25.192Z</time>
      </trkpt>
      <trkpt lat="48.20229" lon="-4.06692">
        <ele>57.102257</ele>
        <time>2022-12-10T13:33:28.199Z</time>
      </trkpt>
      <trkpt lat="48.20238" lon="-4.06683">
        <ele>57.100558</ele>
        <time>2022-12-10T13:33:31.202Z</time>
      </trkpt>
      <trkpt lat="48.20248" lon="-4.06674">
        <ele>57.098718</ele>
        <time>2022-12-10T13:33:34.204Z</time>
      </trkpt>
      <trkpt lat="48.20257" lon="-4.06664">
        <ele>57.097044</ele>
        <time>2022-12-10T13:33:37.189Z</time>
      </trkpt>
      <trkpt lat="48.20266" lon="-4.06654">
        <ele>57.095314</ele>
        <time>2022-12-10T13:33:40.194Z</time>
      </trkpt>
      <trkpt lat="48.20275" lon="-4.06646">
        <ele>57.093615</ele>
        <time>2022-12-10T13:33:43.197Z</time>
      </trkpt>
      <trkpt lat="48.20285" lon="-4.06636">
        <ele>57.09189</ele>
        <time>2022-12-10T13:33:46.196Z</time>
      </trkpt>
      <trkpt lat="48.20293" lon="-4.06628">
        <ele>57.090314</ele>
        <time>2022-12-10T13:33:49.204Z</time>
      </trkpt>
      <trkpt lat="48.20302" lon="-4.06619">
        <ele>57.08858</ele>
        <time>2022-12-10T13:33:52.199Z</time>
      </trkpt>
      <trkpt lat="48.20311" lon="-4.06609">
        <ele>57.086899</ele>
        <time>2022-12-10T13:33:55.184Z</time>
      </trkpt>
      <trkpt lat="48.2032" lon="-4.06599">
        <ele>57.08512</ele>
        <time>2022-12-10T13:33:58.201Z</time>
      </trkpt>
      <trkpt lat="48.20329" lon="-4.0659">
        <ele>57.083481</ele>
        <time>2022-12-10T13:34:01.181Z</time>
      </trkpt>
      <trkpt lat="48.20339" lon="-4.0658">
        <ele>57.081587</ele>
        <time>2022-12-10T13:34:04.206Z</time>
      </trkpt>
      <trkpt lat="48.20349" lon="-4.0657">
        <ele>57.079707</ele>
        <time>2022-12-10T13:34:07.181Z</time>
      </trkpt>
      <trkpt lat="48.20359" lon="-4.06559">
        <ele>57.07784</ele>
        <time>2022-12-10T13:34:10.196Z</time>
      </trkpt>
      <trkpt lat="48.20369" lon="-4.06549">
        <ele>57.073893</ele>
        <time>2022-12-10T13:34:13.185Z</time>
      </trkpt>
      <trkpt lat="48.20379" lon="-4.06538">
        <ele>57.041897</ele>
        <time>2022-12-10T13:34:16.180Z</time>
      </trkpt>
      <trkpt lat="48.20388" lon="-4.06528">
        <ele>57.012828</ele>
        <time>2022-12-10T13:34:19.207Z</time>
      </trkpt>
      <trkpt lat="48.20397" lon="-4.06519">
        <ele>56.985414</ele>
        <time>2022-12-10T13:34:22.215Z</time>
      </trkpt>
      <trkpt lat="48.20405" lon="-4.06509">
        <ele>56.957996</ele>
        <time>2022-12-10T13:34:25.185Z</time>
      </trkpt>
      <trkpt lat="48.20413" lon="-4.06499">
        <ele>56.930535</ele>
        <time>2022-12-10T13:34:28.198Z</time>
      </trkpt>
      <trkpt lat="48.20422" lon="-4.06489">
        <ele>56.90177</ele>
        <time>2022-12-10T13:34:31.181Z</time>
      </trkpt>
      <trkpt lat="48.2043" lon="-4.06478">
        <ele>56.872415</ele>
        <time>2022-12-10T13:34:34.200Z</time>
      </trkpt>
      <trkpt lat="48.20439" lon="-4.06467">
        <ele>56.842394</ele>
        <time>2022-12-10T13:34:37.197Z</time>
      </trkpt>
      <trkpt lat="48.20449" lon="-4.06457">
        <ele>56.81197</ele>
        <time>2022-12-10T13:34:40.191Z</time>
      </trkpt>
      <trkpt lat="48.20458" lon="-4.06446">
        <ele>56.780291</ele>
        <time>2022-12-10T13:34:43.197Z</time>
      </trkpt>
      <trkpt lat="48.20468" lon="-4.06434">
        <ele>56.748536</ele>
        <time>2022-12-10T13:34:46.193Z</time>
      </trkpt>
      <trkpt lat="48.20476" lon="-4.06421">
        <ele>56.717277</ele>
        <time>2022-12-10T13:34:49.181Z</time>
      </trkpt>
      <trkpt lat="48.20486" lon="-4.06409">
        <ele>56.684441</ele>
        <time>2022-12-10T13:34:52.197Z</time>
      </trkpt>
      <trkpt lat="48.20495" lon="-4.06396">
        <ele>56.65164</ele>
        <time>2022-12-10T13:34:55.194Z</time>
      </trkpt>
      <trkpt lat="48.20503" lon="-4.06383">
        <ele>56.620407</ele>
        <time>2022-12-10T13:34:58.180Z</time>
      </trkpt>
      <trkpt lat="48.2051" lon="-4.0637">
        <ele>56.645752</ele>
        <time>2022-12-10T13:35:01.197Z</time>
      </trkpt>
      <trkpt lat="48.20518" lon="-4.06358">
        <ele>56.714259</ele>
        <time>2022-12-10T13:35:04.183Z</time>
      </trkpt>
      <trkpt lat="48.20525" lon="-4.06342">
        <ele>56.789881</ele>
        <time>2022-12-10T13:35:07.186Z</time>
      </trkpt>
      <trkpt lat="48.20533" lon="-4.06329">
        <ele>56.865261</ele>
        <time>2022-12-10T13:35:10.197Z</time>
      </trkpt>
      <trkpt lat="48.20541" lon="-4.06313">
        <ele>56.942891</ele>
        <time>2022-12-10T13:35:13.201Z</time>
      </trkpt>
      <trkpt lat="48.20548" lon="-4.06298">
        <ele>57.018512</ele>
        <time>2022-12-10T13:35:16.205Z</time>
      </trkpt>
      <trkpt lat="48.20555" lon="-4.06283">
        <ele>57.09246</ele>
        <time>2022-12-10T13:35:19.185Z</time>
      </trkpt>
      <trkpt lat="48.20561" lon="-4.06268">
        <ele>57.161827</ele>
        <time>2022-12-10T13:35:22.253Z</time>
      </trkpt>
      <trkpt lat="48.20566" lon="-4.06252">
        <ele>57.232833</ele>
        <time>2022-12-10T13:35:25.185Z</time>
      </trkpt>
      <trkpt lat="48.20572" lon="-4.06236">
        <ele>57.307198</ele>
        <time>2022-12-10T13:35:28.189Z</time>
      </trkpt>
      <trkpt lat="48.20577" lon="-4.06221">
        <ele>57.376565</ele>
        <time>2022-12-10T13:35:31.198Z</time>
      </trkpt>
      <trkpt lat="48.20583" lon="-4.06204">
        <ele>57.454293</ele>
        <time>2022-12-10T13:35:34.194Z</time>
      </trkpt>
      <trkpt lat="48.20588" lon="-4.06187">
        <ele>57.530262</ele>
        <time>2022-12-10T13:35:37.205Z</time>
      </trkpt>
      <trkpt lat="48.20594" lon="-4.0617">
        <ele>57.607554</ele>
        <time>2022-12-10T13:35:40.192Z</time>
      </trkpt>
      <trkpt lat="48.20599" lon="-4.06153">
        <ele>57.68545</ele>
        <time>2022-12-10T13:35:43.198Z</time>
      </trkpt>
      <trkpt lat="48.20604" lon="-4.06137">
        <ele>57.555336</ele>
        <time>2022-12-10T13:35:46.181Z</time>
      </trkpt>
      <trkpt lat="48.20607" lon="-4.06122">
        <ele>57.361192</ele>
        <time>2022-12-10T13:35:49.207Z</time>
      </trkpt>
      <trkpt lat="48.20611" lon="-4.06104">
        <ele>57.148212</ele>
        <time>2022-12-10T13:35:52.188Z</time>
      </trkpt>
      <trkpt lat="48.20614" lon="-4.06087">
        <ele>56.937982</ele>
        <time>2022-12-10T13:35:55.180Z</time>
      </trkpt>
      <trkpt lat="48.20618" lon="-4.0607">
        <ele>56.730605</ele>
        <time>2022-12-10T13:35:58.199Z</time>
      </trkpt>
      <trkpt lat="48.20621" lon="-4.06053">
        <ele>56.519868</ele>
        <time>2022-12-10T13:36:01.207Z</time>
      </trkpt>
      <trkpt lat="48.20625" lon="-4.06035">
        <ele>56.298018</ele>
        <time>2022-12-10T13:36:04.204Z</time>
      </trkpt>
      <trkpt lat="48.20629" lon="-4.06018">
        <ele>56.09176</ele>
        <time>2022-12-10T13:36:07.205Z</time>
      </trkpt>
      <trkpt lat="48.20633" lon="-4.06001">
        <ele>55.870669</ele>
        <time>2022-12-10T13:36:10.203Z</time>
      </trkpt>
      <trkpt lat="48.20636" lon="-4.05985">
        <ele>55.684591</ele>
        <time>2022-12-10T13:36:13.178Z</time>
      </trkpt>
      <trkpt lat="48.20638" lon="-4.0597">
        <ele>55.498669</ele>
        <time>2022-12-10T13:36:16.202Z</time>
      </trkpt>
      <trkpt lat="48.20642" lon="-4.05953">
        <ele>55.29188</ele>
        <time>2022-12-10T13:36:19.207Z</time>
      </trkpt>
      <trkpt lat="48.20644" lon="-4.05936">
        <ele>55.088128</ele>
        <time>2022-12-10T13:36:22.206Z</time>
      </trkpt>
      <trkpt lat="48.20645" lon="-4.05918">
        <ele>54.875969</ele>
        <time>2022-12-10T13:36:25.203Z</time>
      </trkpt>
      <trkpt lat="48.20646" lon="-4.05901">
        <ele>54.676382</ele>
        <time>2022-12-10T13:36:28.201Z</time>
      </trkpt>
      <trkpt lat="48.20647" lon="-4.05882">
        <ele>54.568403</ele>
        <time>2022-12-10T13:36:31.193Z</time>
      </trkpt>
      <trkpt lat="48.20648" lon="-4.05863">
        <ele>54.64527</ele>
        <time>2022-12-10T13:36:34.188Z</time>
      </trkpt>
      <trkpt lat="48.20649" lon="-4.05845">
        <ele>54.715468</ele>
        <time>2022-12-10T13:36:37.200Z</time>
      </trkpt>
      <trkpt lat="48.20649" lon="-4.05827">
        <ele>54.789012</ele>
        <time>2022-12-10T13:36:40.208Z</time>
      </trkpt>
      <trkpt lat="48.20649" lon="-4.0581">
        <ele>54.857313</ele>
        <time>2022-12-10T13:36:43.204Z</time>
      </trkpt>
      <trkpt lat="48.20649" lon="-4.05792">
        <ele>54.929201</ele>
        <time>2022-12-10T13:36:46.201Z</time>
      </trkpt>
      <trkpt lat="48.20649" lon="-4.05774">
        <ele>55.000709</ele>
        <time>2022-12-10T13:36:49.208Z</time>
      </trkpt>
      <trkpt lat="48.2065" lon="-4.05751">
        <ele>55.094835</ele>
        <time>2022-12-10T13:36:53.210Z</time>
      </trkpt>
      <trkpt lat="48.20651" lon="-4.05732">
        <ele>55.167979</ele>
        <time>2022-12-10T13:36:56.190Z</time>
      </trkpt>
      <trkpt lat="48.20651" lon="-4.05714">
        <ele>55.239468</ele>
        <time>2022-12-10T13:36:59.208Z</time>
      </trkpt>
      <trkpt lat="48.20649" lon="-4.05696">
        <ele>55.313894</ele>
        <time>2022-12-10T13:37:02.210Z</time>
      </trkpt>
      <trkpt lat="48.20648" lon="-4.05677">
        <ele>55.389188</ele>
        <time>2022-12-10T13:37:05.203Z</time>
      </trkpt>
      <trkpt lat="48.20645" lon="-4.05658">
        <ele>55.46581</ele>
        <time>2022-12-10T13:37:08.210Z</time>
      </trkpt>
      <trkpt lat="48.20644" lon="-4.05641">
        <ele>55.535557</ele>
        <time>2022-12-10T13:37:11.202Z</time>
      </trkpt>
      <trkpt lat="48.20643" lon="-4.05623">
        <ele>55.606184</ele>
        <time>2022-12-10T13:37:14.194Z</time>
      </trkpt>
      <trkpt lat="48.2064" lon="-4.05608">
        <ele>55.784555</ele>
        <time>2022-12-10T13:37:17.198Z</time>
      </trkpt>
      <trkpt lat="48.20637" lon="-4.05592">
        <ele>55.979876</ele>
        <time>2022-12-10T13:37:20.201Z</time>
      </trkpt>
      <trkpt lat="48.20635" lon="-4.05577">
        <ele>56.172013</ele>
        <time>2022-12-10T13:37:23.202Z</time>
      </trkpt>
      <trkpt lat="48.20631" lon="-4.0556">
        <ele>56.390609</ele>
        <time>2022-12-10T13:37:26.210Z</time>
      </trkpt>
      <trkpt lat="48.20625" lon="-4.05544">
        <ele>56.618799</ele>
        <time>2022-12-10T13:37:29.209Z</time>
      </trkpt>
      <trkpt lat="48.20621" lon="-4.05526">
        <ele>56.848161</ele>
        <time>2022-12-10T13:37:32.196Z</time>
      </trkpt>
      <trkpt lat="48.20615" lon="-4.0551">
        <ele>57.069858</ele>
        <time>2022-12-10T13:37:35.211Z</time>
      </trkpt>
      <trkpt lat="48.20611" lon="-4.05494">
        <ele>57.279411</ele>
        <time>2022-12-10T13:37:38.216Z</time>
      </trkpt>
      <trkpt lat="48.20606" lon="-4.05479">
        <ele>57.493957</ele>
        <time>2022-12-10T13:37:41.205Z</time>
      </trkpt>
      <trkpt lat="48.20598" lon="-4.05462">
        <ele>57.741719</ele>
        <time>2022-12-10T13:37:44.197Z</time>
      </trkpt>
      <trkpt lat="48.2059" lon="-4.05447">
        <ele>57.984176</ele>
        <time>2022-12-10T13:37:47.182Z</time>
      </trkpt>
      <trkpt lat="48.20582" lon="-4.05432">
        <ele>58.222599</ele>
        <time>2022-12-10T13:37:50.210Z</time>
      </trkpt>
      <trkpt lat="48.20575" lon="-4.05417">
        <ele>58.447573</ele>
        <time>2022-12-10T13:37:53.211Z</time>
      </trkpt>
      <trkpt lat="48.20567" lon="-4.05403">
        <ele>58.673511</ele>
        <time>2022-12-10T13:37:56.198Z</time>
      </trkpt>
      <trkpt lat="48.20559" lon="-4.05388">
        <ele>58.900251</ele>
        <time>2022-12-10T13:37:59.197Z</time>
      </trkpt>
      <trkpt lat="48.20552" lon="-4.05374">
        <ele>59.07892</ele>
        <time>2022-12-10T13:38:02.204Z</time>
      </trkpt>
      <trkpt lat="48.20546" lon="-4.05361">
        <ele>59.238865</ele>
        <time>2022-12-10T13:38:05.204Z</time>
      </trkpt>
      <trkpt lat="48.2054" lon="-4.05346">
        <ele>59.410048</ele>
        <time>2022-12-10T13:38:08.182Z</time>
      </trkpt>
      <trkpt lat="48.20532" lon="-4.05333">
        <ele>59.582875</ele>
        <time>2022-12-10T13:38:11.192Z</time>
      </trkpt>
      <trkpt lat="48.20526" lon="-4.0532">
        <ele>59.74426</ele>
        <time>2022-12-10T13:38:14.209Z</time>
      </trkpt>
      <trkpt lat="48.20519" lon="-4.05306">
        <ele>59.91298</ele>
        <time>2022-12-10T13:38:17.205Z</time>
      </trkpt>
      <trkpt lat="48.20511" lon="-4.05293">
        <ele>60.08747</ele>
        <time>2022-12-10T13:38:20.186Z</time>
      </trkpt>
      <trkpt lat="48.20504" lon="-4.05278">
        <ele>60.26265</ele>
        <time>2022-12-10T13:38:23.210Z</time>
      </trkpt>
      <trkpt lat="48.20496" lon="-4.05264">
        <ele>60.440483</ele>
        <time>2022-12-10T13:38:26.204Z</time>
      </trkpt>
      <trkpt lat="48.20489" lon="-4.0525">
        <ele>60.612026</ele>
        <time>2022-12-10T13:38:29.211Z</time>
      </trkpt>
      <trkpt lat="48.20481" lon="-4.05237">
        <ele>60.788698</ele>
        <time>2022-12-10T13:38:32.198Z</time>
      </trkpt>
      <trkpt lat="48.20473" lon="-4.05224">
        <ele>60.953025</ele>
        <time>2022-12-10T13:38:35.207Z</time>
      </trkpt>
      <trkpt lat="48.20466" lon="-4.05214">
        <ele>61.101417</ele>
        <time>2022-12-10T13:38:38.207Z</time>
      </trkpt>
      <trkpt lat="48.20459" lon="-4.05202">
        <ele>61.256893</ele>
        <time>2022-12-10T13:38:41.205Z</time>
      </trkpt>
      <trkpt lat="48.20453" lon="-4.0519">
        <ele>61.407622</ele>
        <time>2022-12-10T13:38:44.208Z</time>
      </trkpt>
      <trkpt lat="48.20445" lon="-4.05178">
        <ele>61.569824</ele>
        <time>2022-12-10T13:38:47.182Z</time>
      </trkpt>
      <trkpt lat="48.20437" lon="-4.05165">
        <ele>61.762991</ele>
        <time>2022-12-10T13:38:50.209Z</time>
      </trkpt>
      <trkpt lat="48.20429" lon="-4.05152">
        <ele>61.97176</ele>
        <time>2022-12-10T13:38:53.176Z</time>
      </trkpt>
      <trkpt lat="48.20421" lon="-4.05141">
        <ele>62.156189</ele>
        <time>2022-12-10T13:38:56.209Z</time>
      </trkpt>
      <trkpt lat="48.20414" lon="-4.05128">
        <ele>62.343872</ele>
        <time>2022-12-10T13:38:59.219Z</time>
      </trkpt>
      <trkpt lat="48.20406" lon="-4.05117">
        <ele>62.534594</ele>
        <time>2022-12-10T13:39:02.186Z</time>
      </trkpt>
      <trkpt lat="48.20398" lon="-4.05105">
        <ele>62.724264</ele>
        <time>2022-12-10T13:39:05.180Z</time>
      </trkpt>
      <trkpt lat="48.20391" lon="-4.05094">
        <ele>62.907473</ele>
        <time>2022-12-10T13:39:08.208Z</time>
      </trkpt>
      <trkpt lat="48.20383" lon="-4.05082">
        <ele>63.094723</ele>
        <time>2022-12-10T13:39:11.203Z</time>
      </trkpt>
      <trkpt lat="48.20376" lon="-4.0507">
        <ele>63.284978</ele>
        <time>2022-12-10T13:39:14.207Z</time>
      </trkpt>
      <trkpt lat="48.20368" lon="-4.05059">
        <ele>63.470784</ele>
        <time>2022-12-10T13:39:17.201Z</time>
      </trkpt>
      <trkpt lat="48.20359" lon="-4.05048">
        <ele>63.665456</ele>
        <time>2022-12-10T13:39:20.204Z</time>
      </trkpt>
      <trkpt lat="48.20351" lon="-4.05036">
        <ele>63.86241</ele>
        <time>2022-12-10T13:39:23.182Z</time>
      </trkpt>
      <trkpt lat="48.20342" lon="-4.05026">
        <ele>64.055553</ele>
        <time>2022-12-10T13:39:26.179Z</time>
      </trkpt>
      <trkpt lat="48.20333" lon="-4.05015">
        <ele>64.247455</ele>
        <time>2022-12-10T13:39:29.195Z</time>
      </trkpt>
      <trkpt lat="48.20324" lon="-4.05007">
        <ele>64.42629</ele>
        <time>2022-12-10T13:39:32.189Z</time>
      </trkpt>
      <trkpt lat="48.20317" lon="-4.04998">
        <ele>64.581934</ele>
        <time>2022-12-10T13:39:35.201Z</time>
      </trkpt>
      <trkpt lat="48.20309" lon="-4.04991">
        <ele>64.634008</ele>
        <time>2022-12-10T13:39:38.190Z</time>
      </trkpt>
      <trkpt lat="48.20301" lon="-4.04983">
        <ele>64.59465</ele>
        <time>2022-12-10T13:39:41.210Z</time>
      </trkpt>
      <trkpt lat="48.20292" lon="-4.04974">
        <ele>64.549493</ele>
        <time>2022-12-10T13:39:44.182Z</time>
      </trkpt>
      <trkpt lat="48.20282" lon="-4.04965">
        <ele>64.502062</ele>
        <time>2022-12-10T13:39:47.205Z</time>
      </trkpt>
      <trkpt lat="48.20273" lon="-4.04956">
        <ele>64.454611</ele>
        <time>2022-12-10T13:39:50.207Z</time>
      </trkpt>
      <trkpt lat="48.20263" lon="-4.04948">
        <ele>64.405934</ele>
        <time>2022-12-10T13:39:53.206Z</time>
      </trkpt>
      <trkpt lat="48.20253" lon="-4.04938">
        <ele>64.356827</ele>
        <time>2022-12-10T13:39:56.202Z</time>
      </trkpt>
      <trkpt lat="48.20243" lon="-4.04931">
        <ele>64.309632</ele>
        <time>2022-12-10T13:39:59.190Z</time>
      </trkpt>
      <trkpt lat="48.20234" lon="-4.04924">
        <ele>64.267811</ele>
        <time>2022-12-10T13:40:02.206Z</time>
      </trkpt>
      <trkpt lat="48.20225" lon="-4.04916">
        <ele>64.223108</ele>
        <time>2022-12-10T13:40:05.194Z</time>
      </trkpt>
      <trkpt lat="48.20215" lon="-4.04909">
        <ele>64.175914</ele>
        <time>2022-12-10T13:40:08.210Z</time>
      </trkpt>
      <trkpt lat="48.20204" lon="-4.049">
        <ele>64.125918</ele>
        <time>2022-12-10T13:40:11.194Z</time>
      </trkpt>
      <trkpt lat="48.20193" lon="-4.04892">
        <ele>64.073454</ele>
        <time>2022-12-10T13:40:14.208Z</time>
      </trkpt>
      <trkpt lat="48.20181" lon="-4.04885">
        <ele>64.02124</ele>
        <time>2022-12-10T13:40:17.209Z</time>
      </trkpt>
      <trkpt lat="48.2017" lon="-4.04878">
        <ele>63.968948</ele>
        <time>2022-12-10T13:40:20.209Z</time>
      </trkpt>
      <trkpt lat="48.20159" lon="-4.0487">
        <ele>63.917999</ele>
        <time>2022-12-10T13:40:23.210Z</time>
      </trkpt>
      <trkpt lat="48.20148" lon="-4.04863">
        <ele>63.74292</ele>
        <time>2022-12-10T13:40:26.212Z</time>
      </trkpt>
      <trkpt lat="48.20138" lon="-4.04857">
        <ele>63.515478</ele>
        <time>2022-12-10T13:40:29.185Z</time>
      </trkpt>
      <trkpt lat="48.20128" lon="-4.04852">
        <ele>63.274138</ele>
        <time>2022-12-10T13:40:32.186Z</time>
      </trkpt>
      <trkpt lat="48.20116" lon="-4.04848">
        <ele>63.016756</ele>
        <time>2022-12-10T13:40:35.201Z</time>
      </trkpt>
      <trkpt lat="48.20104" lon="-4.04844">
        <ele>62.758975</ele>
        <time>2022-12-10T13:40:38.191Z</time>
      </trkpt>
      <trkpt lat="48.20092" lon="-4.0484">
        <ele>62.502639</ele>
        <time>2022-12-10T13:40:41.197Z</time>
      </trkpt>
      <trkpt lat="48.2008" lon="-4.04837">
        <ele>62.240933</ele>
        <time>2022-12-10T13:40:44.188Z</time>
      </trkpt>
      <trkpt lat="48.20068" lon="-4.04833">
        <ele>61.977866</ele>
        <time>2022-12-10T13:40:47.208Z</time>
      </trkpt>
      <trkpt lat="48.20056" lon="-4.0483">
        <ele>61.717334</ele>
        <time>2022-12-10T13:40:50.204Z</time>
      </trkpt>
      <trkpt lat="48.20044" lon="-4.04829">
        <ele>61.461657</ele>
        <time>2022-12-10T13:40:53.206Z</time>
      </trkpt>
      <trkpt lat="48.20032" lon="-4.0483">
        <ele>61.208029</ele>
        <time>2022-12-10T13:40:56.185Z</time>
      </trkpt>
      <trkpt lat="48.20021" lon="-4.04831">
        <ele>60.96686</ele>
        <time>2022-12-10T13:40:59.184Z</time>
      </trkpt>
      <trkpt lat="48.2001" lon="-4.04833">
        <ele>60.727007</ele>
        <time>2022-12-10T13:41:02.211Z</time>
      </trkpt>
      <trkpt lat="48.19997" lon="-4.04835">
        <ele>60.468522</ele>
        <time>2022-12-10T13:41:05.199Z</time>
      </trkpt>
      <trkpt lat="48.19985" lon="-4.04838">
        <ele>60.208382</ele>
        <time>2022-12-10T13:41:08.206Z</time>
      </trkpt>
      <trkpt lat="48.19974" lon="-4.04843">
        <ele>60.062483</ele>
        <time>2022-12-10T13:41:11.208Z</time>
      </trkpt>
      <trkpt lat="48.19962" lon="-4.04849">
        <ele>60.040519</ele>
        <time>2022-12-10T13:41:14.183Z</time>
      </trkpt>
      <trkpt lat="48.19952" lon="-4.04855">
        <ele>60.020255</ele>
        <time>2022-12-10T13:41:17.209Z</time>
      </trkpt>
      <trkpt lat="48.19943" lon="-4.04861">
        <ele>60.002644</ele>
        <time>2022-12-10T13:41:20.195Z</time>
      </trkpt>
      <trkpt lat="48.19934" lon="-4.04867">
        <ele>59.985347</ele>
        <time>2022-12-10T13:41:23.194Z</time>
      </trkpt>
      <trkpt lat="48.19924" lon="-4.04871">
        <ele>59.966601</ele>
        <time>2022-12-10T13:41:26.204Z</time>
      </trkpt>
      <trkpt lat="48.19915" lon="-4.04877">
        <ele>59.948262</ele>
        <time>2022-12-10T13:41:29.215Z</time>
      </trkpt>
      <trkpt lat="48.19906" lon="-4.04881">
        <ele>59.930594</ele>
        <time>2022-12-10T13:41:32.200Z</time>
      </trkpt>
      <trkpt lat="48.19895" lon="-4.04886">
        <ele>59.910732</ele>
        <time>2022-12-10T13:41:35.210Z</time>
      </trkpt>
      <trkpt lat="48.19884" lon="-4.04891">
        <ele>59.888579</ele>
        <time>2022-12-10T13:41:38.202Z</time>
      </trkpt>
      <trkpt lat="48.19871" lon="-4.04895">
        <ele>59.865423</ele>
        <time>2022-12-10T13:41:41.206Z</time>
      </trkpt>
      <trkpt lat="48.19859" lon="-4.049">
        <ele>59.841619</ele>
        <time>2022-12-10T13:41:44.190Z</time>
      </trkpt>
      <trkpt lat="48.19846" lon="-4.04906">
        <ele>59.818091</ele>
        <time>2022-12-10T13:41:47.194Z</time>
      </trkpt>
      <trkpt lat="48.19834" lon="-4.04911">
        <ele>59.794665</ele>
        <time>2022-12-10T13:41:50.205Z</time>
      </trkpt>
      <trkpt lat="48.19821" lon="-4.04915">
        <ele>59.770561</ele>
        <time>2022-12-10T13:41:53.198Z</time>
      </trkpt>
      <trkpt lat="48.1981" lon="-4.04919">
        <ele>59.74936</ele>
        <time>2022-12-10T13:41:56.201Z</time>
      </trkpt>
      <trkpt lat="48.19799" lon="-4.04922">
        <ele>59.728167</ele>
        <time>2022-12-10T13:41:59.211Z</time>
      </trkpt>
      <trkpt lat="48.1979" lon="-4.04926">
        <ele>59.708599</ele>
        <time>2022-12-10T13:42:02.191Z</time>
      </trkpt>
      <trkpt lat="48.1978" lon="-4.04929">
        <ele>59.686882</ele>
        <time>2022-12-10T13:42:05.210Z</time>
      </trkpt>
      <trkpt lat="48.19768" lon="-4.04933">
        <ele>59.663134</ele>
        <time>2022-12-10T13:42:08.181Z</time>
      </trkpt>
      <trkpt lat="48.19757" lon="-4.04937">
        <ele>59.639692</ele>
        <time>2022-12-10T13:42:11.203Z</time>
      </trkpt>
      <trkpt lat="48.19746" lon="-4.0494">
        <ele>59.616654</ele>
        <time>2022-12-10T13:42:14.185Z</time>
      </trkpt>
      <trkpt lat="48.19735" lon="-4.04942">
        <ele>59.594339</ele>
        <time>2022-12-10T13:42:17.181Z</time>
      </trkpt>
      <trkpt lat="48.19724" lon="-4.04944">
        <ele>59.570802</ele>
        <time>2022-12-10T13:42:20.205Z</time>
      </trkpt>
      <trkpt lat="48.19712" lon="-4.04946">
        <ele>59.546808</ele>
        <time>2022-12-10T13:42:23.193Z</time>
      </trkpt>
      <trkpt lat="48.19701" lon="-4.04949">
        <ele>59.523546</ele>
        <time>2022-12-10T13:42:26.213Z</time>
      </trkpt>
      <trkpt lat="48.1969" lon="-4.04951">
        <ele>59.500807</ele>
        <time>2022-12-10T13:42:29.203Z</time>
      </trkpt>
      <trkpt lat="48.19679" lon="-4.04953">
        <ele>59.4773</ele>
        <time>2022-12-10T13:42:32.204Z</time>
      </trkpt>
      <trkpt lat="48.19667" lon="-4.04955">
        <ele>59.45356</ele>
        <time>2022-12-10T13:42:35.205Z</time>
      </trkpt>
      <trkpt lat="48.19656" lon="-4.04957">
        <ele>59.429285</ele>
        <time>2022-12-10T13:42:38.209Z</time>
      </trkpt>
      <trkpt lat="48.19644" lon="-4.04961">
        <ele>59.405098</ele>
        <time>2022-12-10T13:42:41.207Z</time>
      </trkpt>
      <trkpt lat="48.19632" lon="-4.04964">
        <ele>59.380458</ele>
        <time>2022-12-10T13:42:44.210Z</time>
      </trkpt>
      <trkpt lat="48.1962" lon="-4.04967">
        <ele>59.389044</ele>
        <time>2022-12-10T13:42:47.192Z</time>
      </trkpt>
      <trkpt lat="48.19608" lon="-4.04971">
        <ele>59.403532</ele>
        <time>2022-12-10T13:42:50.199Z</time>
      </trkpt>
      <trkpt lat="48.19597" lon="-4.04975">
        <ele>59.41759</ele>
        <time>2022-12-10T13:42:53.204Z</time>
      </trkpt>
      <trkpt lat="48.19585" lon="-4.04979">
        <ele>59.431731</ele>
        <time>2022-12-10T13:42:56.205Z</time>
      </trkpt>
      <trkpt lat="48.19573" lon="-4.04982">
        <ele>59.446187</ele>
        <time>2022-12-10T13:42:59.204Z</time>
      </trkpt>
      <trkpt lat="48.1956" lon="-4.04986">
        <ele>59.460874</ele>
        <time>2022-12-10T13:43:02.186Z</time>
      </trkpt>
      <trkpt lat="48.19548" lon="-4.0499">
        <ele>59.4759</ele>
        <time>2022-12-10T13:43:05.195Z</time>
      </trkpt>
      <trkpt lat="48.19535" lon="-4.04994">
        <ele>59.490811</ele>
        <time>2022-12-10T13:43:08.211Z</time>
      </trkpt>
      <trkpt lat="48.19524" lon="-4.04999">
        <ele>59.504986</ele>
        <time>2022-12-10T13:43:11.207Z</time>
      </trkpt>
      <trkpt lat="48.19512" lon="-4.05004">
        <ele>59.519203</ele>
        <time>2022-12-10T13:43:14.204Z</time>
      </trkpt>
      <trkpt lat="48.195" lon="-4.0501">
        <ele>59.533849</ele>
        <time>2022-12-10T13:43:17.208Z</time>
      </trkpt>
      <trkpt lat="48.19488" lon="-4.05016">
        <ele>59.548878</ele>
        <time>2022-12-10T13:43:20.196Z</time>
      </trkpt>
      <trkpt lat="48.19477" lon="-4.05021">
        <ele>59.562557</ele>
        <time>2022-12-10T13:43:23.207Z</time>
      </trkpt>
      <trkpt lat="48.19467" lon="-4.05027">
        <ele>59.57556</ele>
        <time>2022-12-10T13:43:26.189Z</time>
      </trkpt>
      <trkpt lat="48.19456" lon="-4.05032">
        <ele>59.598056</ele>
        <time>2022-12-10T13:43:29.207Z</time>
      </trkpt>
      <trkpt lat="48.19444" lon="-4.05038">
        <ele>59.734643</ele>
        <time>2022-12-10T13:43:32.208Z</time>
      </trkpt>
      <trkpt lat="48.19433" lon="-4.05043">
        <ele>59.872909</ele>
        <time>2022-12-10T13:43:35.197Z</time>
      </trkpt>
      <trkpt lat="48.19421" lon="-4.05048">
        <ele>60.005001</ele>
        <time>2022-12-10T13:43:38.203Z</time>
      </trkpt>
      <trkpt lat="48.1941" lon="-4.05052">
        <ele>60.142048</ele>
        <time>2022-12-10T13:43:41.210Z</time>
      </trkpt>
      <trkpt lat="48.19399" lon="-4.05055">
        <ele>60.269043</ele>
        <time>2022-12-10T13:43:44.210Z</time>
      </trkpt>
      <trkpt lat="48.19388" lon="-4.05059">
        <ele>60.393062</ele>
        <time>2022-12-10T13:43:47.204Z</time>
      </trkpt>
      <trkpt lat="48.19379" lon="-4.05064">
        <ele>60.508121</ele>
        <time>2022-12-10T13:43:50.195Z</time>
      </trkpt>
      <trkpt lat="48.19369" lon="-4.05069">
        <ele>60.61947</ele>
        <time>2022-12-10T13:43:53.214Z</time>
      </trkpt>
      <trkpt lat="48.1936" lon="-4.05073">
        <ele>60.728154</ele>
        <time>2022-12-10T13:43:56.210Z</time>
      </trkpt>
      <trkpt lat="48.1935" lon="-4.05076">
        <ele>60.841953</ele>
        <time>2022-12-10T13:43:59.191Z</time>
      </trkpt>
      <trkpt lat="48.1934" lon="-4.05077">
        <ele>60.959234</ele>
        <time>2022-12-10T13:44:02.183Z</time>
      </trkpt>
      <trkpt lat="48.19331" lon="-4.05081">
        <ele>61.063138</ele>
        <time>2022-12-10T13:44:05.200Z</time>
      </trkpt>
      <trkpt lat="48.1932" lon="-4.05085">
        <ele>61.197433</ele>
        <time>2022-12-10T13:44:09.219Z</time>
      </trkpt>
      <trkpt lat="48.1931" lon="-4.05089">
        <ele>61.314719</ele>
        <time>2022-12-10T13:44:12.184Z</time>
      </trkpt>
      <trkpt lat="48.19299" lon="-4.05093">
        <ele>61.438926</ele>
        <time>2022-12-10T13:44:15.203Z</time>
      </trkpt>
      <trkpt lat="48.1929" lon="-4.05096">
        <ele>61.548819</ele>
        <time>2022-12-10T13:44:18.178Z</time>
      </trkpt>
      <trkpt lat="48.19279" lon="-4.05101">
        <ele>61.656143</ele>
        <time>2022-12-10T13:44:21.200Z</time>
      </trkpt>
      <trkpt lat="48.19267" lon="-4.05104">
        <ele>61.728923</ele>
        <time>2022-12-10T13:44:24.187Z</time>
      </trkpt>
      <trkpt lat="48.19256" lon="-4.05107">
        <ele>61.80212</ele>
        <time>2022-12-10T13:44:27.184Z</time>
      </trkpt>
      <trkpt lat="48.19245" lon="-4.05112">
        <ele>61.877343</ele>
        <time>2022-12-10T13:44:30.214Z</time>
      </trkpt>
      <trkpt lat="48.19233" lon="-4.05117">
        <ele>61.953624</ele>
        <time>2022-12-10T13:44:33.191Z</time>
      </trkpt>
      <trkpt lat="48.19222" lon="-4.05121">
        <ele>62.027818</ele>
        <time>2022-12-10T13:44:36.211Z</time>
      </trkpt>
      <trkpt lat="48.19212" lon="-4.05124">
        <ele>62.095838</ele>
        <time>2022-12-10T13:44:39.195Z</time>
      </trkpt>
      <trkpt lat="48.19201" lon="-4.05128">
        <ele>62.163422</ele>
        <time>2022-12-10T13:44:42.197Z</time>
      </trkpt>
      <trkpt lat="48.19191" lon="-4.05131">
        <ele>62.23102</ele>
        <time>2022-12-10T13:44:45.213Z</time>
      </trkpt>
      <trkpt lat="48.1918" lon="-4.05134">
        <ele>62.302968</ele>
        <time>2022-12-10T13:44:48.209Z</time>
      </trkpt>
      <trkpt lat="48.19168" lon="-4.05138">
        <ele>62.377954</ele>
        <time>2022-12-10T13:44:51.202Z</time>
      </trkpt>
      <trkpt lat="48.19157" lon="-4.05142">
        <ele>62.453393</ele>
        <time>2022-12-10T13:44:54.205Z</time>
      </trkpt>
      <trkpt lat="48.19145" lon="-4.05146">
        <ele>62.528832</ele>
        <time>2022-12-10T13:44:57.182Z</time>
      </trkpt>
      <trkpt lat="48.19134" lon="-4.0515">
        <ele>62.604176</ele>
        <time>2022-12-10T13:45:00.180Z</time>
      </trkpt>
      <trkpt lat="48.19122" lon="-4.05154">
        <ele>62.681258</ele>
        <time>2022-12-10T13:45:03.211Z</time>
      </trkpt>
      <trkpt lat="48.19111" lon="-4.05158">
        <ele>62.756956</ele>
        <time>2022-12-10T13:45:06.197Z</time>
      </trkpt>
      <trkpt lat="48.19099" lon="-4.05161">
        <ele>62.762764</ele>
        <time>2022-12-10T13:45:09.206Z</time>
      </trkpt>
      <trkpt lat="48.19087" lon="-4.05164">
        <ele>62.739661</ele>
        <time>2022-12-10T13:45:12.184Z</time>
      </trkpt>
      <trkpt lat="48.19075" lon="-4.05166">
        <ele>62.71696</ele>
        <time>2022-12-10T13:45:15.180Z</time>
      </trkpt>
      <trkpt lat="48.19063" lon="-4.05168">
        <ele>62.694721</ele>
        <time>2022-12-10T13:45:18.204Z</time>
      </trkpt>
      <trkpt lat="48.19052" lon="-4.05172">
        <ele>62.672843</ele>
        <time>2022-12-10T13:45:21.197Z</time>
      </trkpt>
      <trkpt lat="48.19041" lon="-4.05176">
        <ele>62.651106</ele>
        <time>2022-12-10T13:45:24.198Z</time>
      </trkpt>
      <trkpt lat="48.19029" lon="-4.0518">
        <ele>62.627938</ele>
        <time>2022-12-10T13:45:27.192Z</time>
      </trkpt>
      <trkpt lat="48.19017" lon="-4.05185">
        <ele>62.605355</ele>
        <time>2022-12-10T13:45:30.181Z</time>
      </trkpt>
      <trkpt lat="48.19006" lon="-4.0519">
        <ele>62.582808</ele>
        <time>2022-12-10T13:45:33.206Z</time>
      </trkpt>
      <trkpt lat="48.18995" lon="-4.05195">
        <ele>62.562026</ele>
        <time>2022-12-10T13:45:36.211Z</time>
      </trkpt>
      <trkpt lat="48.18984" lon="-4.052">
        <ele>62.540521</ele>
        <time>2022-12-10T13:45:39.181Z</time>
      </trkpt>
      <trkpt lat="48.18974" lon="-4.05205">
        <ele>62.519255</ele>
        <time>2022-12-10T13:45:42.203Z</time>
      </trkpt>
      <trkpt lat="48.18962" lon="-4.0521">
        <ele>62.497284</ele>
        <time>2022-12-10T13:45:45.187Z</time>
      </trkpt>
      <trkpt lat="48.18951" lon="-4.05215">
        <ele>62.475313</ele>
        <time>2022-12-10T13:45:48.189Z</time>
      </trkpt>
      <trkpt lat="48.1894" lon="-4.05222">
        <ele>62.453291</ele>
        <time>2022-12-10T13:45:51.208Z</time>
      </trkpt>
      <trkpt lat="48.18929" lon="-4.0523">
        <ele>62.424834</ele>
        <time>2022-12-10T13:45:54.187Z</time>
      </trkpt>
      <trkpt lat="48.18918" lon="-4.05237">
        <ele>62.390889</ele>
        <time>2022-12-10T13:45:57.211Z</time>
      </trkpt>
      <trkpt lat="48.18907" lon="-4.05245">
        <ele>62.355697</ele>
        <time>2022-12-10T13:46:00.186Z</time>
      </trkpt>
      <trkpt lat="48.18897" lon="-4.05253">
        <ele>62.322953</ele>
        <time>2022-12-10T13:46:03.186Z</time>
      </trkpt>
      <trkpt lat="48.18888" lon="-4.05261">
        <ele>62.292048</ele>
        <time>2022-12-10T13:46:06.217Z</time>
      </trkpt>
      <trkpt lat="48.18879" lon="-4.0527">
        <ele>62.260637</ele>
        <time>2022-12-10T13:46:09.183Z</time>
      </trkpt>
      <trkpt lat="48.1887" lon="-4.05279">
        <ele>62.229122</ele>
        <time>2022-12-10T13:46:12.200Z</time>
      </trkpt>
      <trkpt lat="48.18861" lon="-4.05289">
        <ele>62.197865</ele>
        <time>2022-12-10T13:46:15.209Z</time>
      </trkpt>
      <trkpt lat="48.18852" lon="-4.05301">
        <ele>62.162944</ele>
        <time>2022-12-10T13:46:18.211Z</time>
      </trkpt>
      <trkpt lat="48.18845" lon="-4.05314">
        <ele>62.12976</ele>
        <time>2022-12-10T13:46:21.181Z</time>
      </trkpt>
      <trkpt lat="48.18838" lon="-4.05325">
        <ele>62.100296</ele>
        <time>2022-12-10T13:46:24.185Z</time>
      </trkpt>
      <trkpt lat="48.18831" lon="-4.05335">
        <ele>62.073545</ele>
        <time>2022-12-10T13:46:27.188Z</time>
      </trkpt>
      <trkpt lat="48.18821" lon="-4.05343">
        <ele>62.042337</ele>
        <time>2022-12-10T13:46:30.181Z</time>
      </trkpt>
      <trkpt lat="48.18811" lon="-4.05347">
        <ele>62.009987</ele>
        <time>2022-12-10T13:46:33.190Z</time>
      </trkpt>
      <trkpt lat="48.188" lon="-4.0535">
        <ele>61.97886</ele>
        <time>2022-12-10T13:46:36.181Z</time>
      </trkpt>
      <trkpt lat="48.18789" lon="-4.05352">
        <ele>61.945899</ele>
        <time>2022-12-10T13:46:39.183Z</time>
      </trkpt>
      <trkpt lat="48.18776" lon="-4.05352">
        <ele>61.897344</ele>
        <time>2022-12-10T13:46:42.185Z</time>
      </trkpt>
      <trkpt lat="48.18766" lon="-4.05353">
        <ele>61.830241</ele>
        <time>2022-12-10T13:46:45.201Z</time>
      </trkpt>
      <trkpt lat="48.18755" lon="-4.05352">
        <ele>61.75867</ele>
        <time>2022-12-10T13:46:48.211Z</time>
      </trkpt>
      <trkpt lat="48.18743" lon="-4.05352">
        <ele>61.683854</ele>
        <time>2022-12-10T13:46:51.186Z</time>
      </trkpt>
      <trkpt lat="48.18732" lon="-4.05349">
        <ele>61.610012</ele>
        <time>2022-12-10T13:46:54.187Z</time>
      </trkpt>
      <trkpt lat="48.18721" lon="-4.05348">
        <ele>61.542946</ele>
        <time>2022-12-10T13:46:57.183Z</time>
      </trkpt>
      <trkpt lat="48.1871" lon="-4.05348">
        <ele>61.472616</ele>
        <time>2022-12-10T13:47:00.201Z</time>
      </trkpt>
      <trkpt lat="48.18699" lon="-4.05345">
        <ele>61.400365</ele>
        <time>2022-12-10T13:47:03.193Z</time>
      </trkpt>
      <trkpt lat="48.18688" lon="-4.05342">
        <ele>61.32739</ele>
        <time>2022-12-10T13:47:06.187Z</time>
      </trkpt>
      <trkpt lat="48.18678" lon="-4.05338">
        <ele>61.261714</ele>
        <time>2022-12-10T13:47:09.215Z</time>
      </trkpt>
      <trkpt lat="48.18668" lon="-4.05336">
        <ele>61.201451</ele>
        <time>2022-12-10T13:47:12.208Z</time>
      </trkpt>
      <trkpt lat="48.18658" lon="-4.05332">
        <ele>61.131851</ele>
        <time>2022-12-10T13:47:15.212Z</time>
      </trkpt>
      <trkpt lat="48.18647" lon="-4.05328">
        <ele>61.06091</ele>
        <time>2022-12-10T13:47:18.184Z</time>
      </trkpt>
      <trkpt lat="48.18636" lon="-4.05323">
        <ele>60.987868</ele>
        <time>2022-12-10T13:47:21.202Z</time>
      </trkpt>
      <trkpt lat="48.18625" lon="-4.05318">
        <ele>60.916377</ele>
        <time>2022-12-10T13:47:24.207Z</time>
      </trkpt>
      <trkpt lat="48.18615" lon="-4.05312">
        <ele>60.84581</ele>
        <time>2022-12-10T13:47:27.205Z</time>
      </trkpt>
      <trkpt lat="48.18604" lon="-4.05307">
        <ele>60.774583</ele>
        <time>2022-12-10T13:47:30.209Z</time>
      </trkpt>
      <trkpt lat="48.18593" lon="-4.053">
        <ele>60.80487</ele>
        <time>2022-12-10T13:47:33.207Z</time>
      </trkpt>
      <trkpt lat="48.18582" lon="-4.05293">
        <ele>60.834847</ele>
        <time>2022-12-10T13:47:36.206Z</time>
      </trkpt>
      <trkpt lat="48.18571" lon="-4.05286">
        <ele>60.86527</ele>
        <time>2022-12-10T13:47:39.187Z</time>
      </trkpt>
      <trkpt lat="48.1856" lon="-4.05278">
        <ele>60.89524</ele>
        <time>2022-12-10T13:47:42.197Z</time>
      </trkpt>
      <trkpt lat="48.1855" lon="-4.0527">
        <ele>60.925437</ele>
        <time>2022-12-10T13:47:45.198Z</time>
      </trkpt>
      <trkpt lat="48.18539" lon="-4.05262">
        <ele>60.956173</ele>
        <time>2022-12-10T13:47:48.205Z</time>
      </trkpt>
      <trkpt lat="48.18528" lon="-4.05254">
        <ele>60.986021</ele>
        <time>2022-12-10T13:47:51.206Z</time>
      </trkpt>
      <trkpt lat="48.18518" lon="-4.05245">
        <ele>61.015626</ele>
        <time>2022-12-10T13:47:54.210Z</time>
      </trkpt>
      <trkpt lat="48.18508" lon="-4.05237">
        <ele>61.046221</ele>
        <time>2022-12-10T13:47:57.210Z</time>
      </trkpt>
      <trkpt lat="48.18497" lon="-4.05228">
        <ele>61.076623</ele>
        <time>2022-12-10T13:48:00.205Z</time>
      </trkpt>
      <trkpt lat="48.18486" lon="-4.05218">
        <ele>61.107935</ele>
        <time>2022-12-10T13:48:03.211Z</time>
      </trkpt>
      <trkpt lat="48.18477" lon="-4.05211">
        <ele>61.135645</ele>
        <time>2022-12-10T13:48:06.181Z</time>
      </trkpt>
      <trkpt lat="48.18467" lon="-4.05202">
        <ele>61.16322</ele>
        <time>2022-12-10T13:48:09.208Z</time>
      </trkpt>
      <trkpt lat="48.18457" lon="-4.05193">
        <ele>61.193496</ele>
        <time>2022-12-10T13:48:12.210Z</time>
      </trkpt>
      <trkpt lat="48.18447" lon="-4.05182">
        <ele>61.225543</ele>
        <time>2022-12-10T13:48:15.211Z</time>
      </trkpt>
      <trkpt lat="48.18436" lon="-4.05172">
        <ele>61.255093</ele>
        <time>2022-12-10T13:48:18.184Z</time>
      </trkpt>
      <trkpt lat="48.18425" lon="-4.05163">
        <ele>61.285461</ele>
        <time>2022-12-10T13:48:21.211Z</time>
      </trkpt>
      <trkpt lat="48.18413" lon="-4.05153">
        <ele>61.315678</ele>
        <time>2022-12-10T13:48:24.209Z</time>
      </trkpt>
      <trkpt lat="48.18403" lon="-4.05143">
        <ele>61.344087</ele>
        <time>2022-12-10T13:48:27.187Z</time>
      </trkpt>
      <trkpt lat="48.18394" lon="-4.05133">
        <ele>61.370138</ele>
        <time>2022-12-10T13:48:30.212Z</time>
      </trkpt>
      <trkpt lat="48.18384" lon="-4.05123">
        <ele>61.397496</ele>
        <time>2022-12-10T13:48:33.183Z</time>
      </trkpt>
      <trkpt lat="48.18374" lon="-4.05114">
        <ele>61.425373</ele>
        <time>2022-12-10T13:48:36.206Z</time>
      </trkpt>
      <trkpt lat="48.18364" lon="-4.05103">
        <ele>61.453569</ele>
        <time>2022-12-10T13:48:39.206Z</time>
      </trkpt>
      <trkpt lat="48.18354" lon="-4.05093">
        <ele>61.482115</ele>
        <time>2022-12-10T13:48:42.208Z</time>
      </trkpt>
      <trkpt lat="48.18345" lon="-4.05081">
        <ele>61.51029</ele>
        <time>2022-12-10T13:48:45.187Z</time>
      </trkpt>
      <trkpt lat="48.18335" lon="-4.0507">
        <ele>61.538933</ele>
        <time>2022-12-10T13:48:48.209Z</time>
      </trkpt>
      <trkpt lat="48.18325" lon="-4.05058">
        <ele>61.568659</ele>
        <time>2022-12-10T13:48:51.212Z</time>
      </trkpt>
      <trkpt lat="48.18316" lon="-4.05045">
        <ele>61.598342</ele>
        <time>2022-12-10T13:48:54.211Z</time>
      </trkpt>
      <trkpt lat="48.18306" lon="-4.05032">
        <ele>61.628198</ele>
        <time>2022-12-10T13:48:57.205Z</time>
      </trkpt>
      <trkpt lat="48.18297" lon="-4.05019">
        <ele>61.676112</ele>
        <time>2022-12-10T13:49:00.205Z</time>
      </trkpt>
      <trkpt lat="48.18288" lon="-4.05005">
        <ele>61.757884</ele>
        <time>2022-12-10T13:49:03.209Z</time>
      </trkpt>
      <trkpt lat="48.18279" lon="-4.04989">
        <ele>61.842156</ele>
        <time>2022-12-10T13:49:06.199Z</time>
      </trkpt>
      <trkpt lat="48.18274" lon="-4.04979">
        <ele>61.898564</ele>
        <time>2022-12-10T13:49:08.207Z</time>
      </trkpt>
      <trkpt lat="48.18265" lon="-4.04963">
        <ele>61.980847</ele>
        <time>2022-12-10T13:49:11.211Z</time>
      </trkpt>
      <trkpt lat="48.18257" lon="-4.04948">
        <ele>62.062354</ele>
        <time>2022-12-10T13:49:14.213Z</time>
      </trkpt>
      <trkpt lat="48.18251" lon="-4.04932">
        <ele>62.140869</ele>
        <time>2022-12-10T13:49:17.212Z</time>
      </trkpt>
      <trkpt lat="48.18245" lon="-4.04916">
        <ele>62.21606</ele>
        <time>2022-12-10T13:49:20.203Z</time>
      </trkpt>
      <trkpt lat="48.18238" lon="-4.04901">
        <ele>62.293246</ele>
        <time>2022-12-10T13:49:23.211Z</time>
      </trkpt>
      <trkpt lat="48.18232" lon="-4.04885">
        <ele>62.370383</ele>
        <time>2022-12-10T13:49:26.207Z</time>
      </trkpt>
      <trkpt lat="48.18225" lon="-4.04869">
        <ele>62.449001</ele>
        <time>2022-12-10T13:49:29.210Z</time>
      </trkpt>
      <trkpt lat="48.18219" lon="-4.04852">
        <ele>62.529604</ele>
        <time>2022-12-10T13:49:32.208Z</time>
      </trkpt>
      <trkpt lat="48.18212" lon="-4.04834">
        <ele>62.613184</ele>
        <time>2022-12-10T13:49:35.210Z</time>
      </trkpt>
      <trkpt lat="48.18206" lon="-4.04817">
        <ele>62.696884</ele>
        <time>2022-12-10T13:49:38.210Z</time>
      </trkpt>
      <trkpt lat="48.182" lon="-4.04799">
        <ele>62.776755</ele>
        <time>2022-12-10T13:49:41.209Z</time>
      </trkpt>
      <trkpt lat="48.18195" lon="-4.04782">
        <ele>62.813061</ele>
        <time>2022-12-10T13:49:44.187Z</time>
      </trkpt>
      <trkpt lat="48.18191" lon="-4.04766">
        <ele>62.846513</ele>
        <time>2022-12-10T13:49:47.197Z</time>
      </trkpt>
      <trkpt lat="48.18187" lon="-4.04749">
        <ele>62.88138</ele>
        <time>2022-12-10T13:49:50.202Z</time>
      </trkpt>
      <trkpt lat="48.18185" lon="-4.04732">
        <ele>62.916562</ele>
        <time>2022-12-10T13:49:53.208Z</time>
      </trkpt>
      <trkpt lat="48.18182" lon="-4.04715">
        <ele>62.950791</ele>
        <time>2022-12-10T13:49:56.209Z</time>
      </trkpt>
      <trkpt lat="48.18179" lon="-4.04698">
        <ele>62.984329</ele>
        <time>2022-12-10T13:49:59.217Z</time>
      </trkpt>
      <trkpt lat="48.18176" lon="-4.04682">
        <ele>63.017107</ele>
        <time>2022-12-10T13:50:02.191Z</time>
      </trkpt>
      <trkpt lat="48.18174" lon="-4.04666">
        <ele>63.05015</ele>
        <time>2022-12-10T13:50:05.193Z</time>
      </trkpt>
      <trkpt lat="48.18171" lon="-4.0465">
        <ele>63.082704</ele>
        <time>2022-12-10T13:50:08.208Z</time>
      </trkpt>
      <trkpt lat="48.18168" lon="-4.04634">
        <ele>63.11507</ele>
        <time>2022-12-10T13:50:11.179Z</time>
      </trkpt>
      <trkpt lat="48.18165" lon="-4.04618">
        <ele>63.146945</ele>
        <time>2022-12-10T13:50:14.194Z</time>
      </trkpt>
      <trkpt lat="48.18163" lon="-4.04604">
        <ele>63.174736</ele>
        <time>2022-12-10T13:50:17.197Z</time>
      </trkpt>
      <trkpt lat="48.18161" lon="-4.04589">
        <ele>63.204949</ele>
        <time>2022-12-10T13:50:20.209Z</time>
      </trkpt>
      <trkpt lat="48.1816" lon="-4.04574">
        <ele>63.234865</ele>
        <time>2022-12-10T13:50:23.198Z</time>
      </trkpt>
      <trkpt lat="48.18158" lon="-4.04558">
        <ele>63.266124</ele>
        <time>2022-12-10T13:50:27.201Z</time>
      </trkpt>
      <trkpt lat="48.18156" lon="-4.04545">
        <ele>63.293154</ele>
        <time>2022-12-10T13:50:40.195Z</time>
      </trkpt>
      <trkpt lat="48.18145" lon="-4.04528">
        <ele>63.41332</ele>
        <time>2022-12-10T13:51:14.184Z</time>
      </trkpt>
      <trkpt lat="48.1814" lon="-4.04516">
        <ele>63.4963</ele>
        <time>2022-12-10T13:51:17.208Z</time>
      </trkpt>
      <trkpt lat="48.18136" lon="-4.04501">
        <ele>63.59178</ele>
        <time>2022-12-10T13:51:20.184Z</time>
      </trkpt>
      <trkpt lat="48.18132" lon="-4.04486">
        <ele>63.685385</ele>
        <time>2022-12-10T13:51:23.216Z</time>
      </trkpt>
      <trkpt lat="48.18128" lon="-4.0447">
        <ele>63.781083</ele>
        <time>2022-12-10T13:51:26.214Z</time>
      </trkpt>
      <trkpt lat="48.18127" lon="-4.04454">
        <ele>63.876984</ele>
        <time>2022-12-10T13:51:29.181Z</time>
      </trkpt>
      <trkpt lat="48.18126" lon="-4.04438">
        <ele>63.969976</ele>
        <time>2022-12-10T13:51:32.214Z</time>
      </trkpt>
      <trkpt lat="48.18125" lon="-4.04421">
        <ele>64.071913</ele>
        <time>2022-12-10T13:51:35.213Z</time>
      </trkpt>
      <trkpt lat="48.18124" lon="-4.04404">
        <ele>64.169965</ele>
        <time>2022-12-10T13:51:38.208Z</time>
      </trkpt>
      <trkpt lat="48.18123" lon="-4.04387">
        <ele>64.268525</ele>
        <time>2022-12-10T13:51:41.202Z</time>
      </trkpt>
      <trkpt lat="48.18122" lon="-4.04371">
        <ele>64.365741</ele>
        <time>2022-12-10T13:51:44.196Z</time>
      </trkpt>
      <trkpt lat="48.18122" lon="-4.04355">
        <ele>64.458788</ele>
        <time>2022-12-10T13:51:47.186Z</time>
      </trkpt>
      <trkpt lat="48.18122" lon="-4.04339">
        <ele>64.552357</ele>
        <time>2022-12-10T13:51:50.211Z</time>
      </trkpt>
      <trkpt lat="48.18122" lon="-4.04322">
        <ele>64.650663</ele>
        <time>2022-12-10T13:51:53.208Z</time>
      </trkpt>
      <trkpt lat="48.18124" lon="-4.04305">
        <ele>64.750831</ele>
        <time>2022-12-10T13:51:56.183Z</time>
      </trkpt>
      <trkpt lat="48.18127" lon="-4.04289">
        <ele>64.850616</ele>
        <time>2022-12-10T13:51:59.179Z</time>
      </trkpt>
      <trkpt lat="48.1813" lon="-4.04273">
        <ele>64.798685</ele>
        <time>2022-12-10T13:52:02.211Z</time>
      </trkpt>
      <trkpt lat="48.18135" lon="-4.04259">
        <ele>64.685209</ele>
        <time>2022-12-10T13:52:05.189Z</time>
      </trkpt>
      <trkpt lat="48.18141" lon="-4.04245">
        <ele>64.575168</ele>
        <time>2022-12-10T13:52:08.207Z</time>
      </trkpt>
      <trkpt lat="48.18146" lon="-4.04232">
        <ele>64.462375</ele>
        <time>2022-12-10T13:52:11.186Z</time>
      </trkpt>
      <trkpt lat="48.18152" lon="-4.0422">
        <ele>64.356924</ele>
        <time>2022-12-10T13:52:14.191Z</time>
      </trkpt>
      <trkpt lat="48.18161" lon="-4.04207">
        <ele>64.234839</ele>
        <time>2022-12-10T13:52:17.186Z</time>
      </trkpt>
      <trkpt lat="48.18168" lon="-4.04196">
        <ele>64.119683</ele>
        <time>2022-12-10T13:52:20.215Z</time>
      </trkpt>
      <trkpt lat="48.18176" lon="-4.04183">
        <ele>63.998093</ele>
        <time>2022-12-10T13:52:23.208Z</time>
      </trkpt>
      <trkpt lat="48.18186" lon="-4.04172">
        <ele>63.868392</ele>
        <time>2022-12-10T13:52:26.209Z</time>
      </trkpt>
      <trkpt lat="48.18195" lon="-4.04162">
        <ele>63.749135</ele>
        <time>2022-12-10T13:52:29.210Z</time>
      </trkpt>
      <trkpt lat="48.18205" lon="-4.04153">
        <ele>63.629584</ele>
        <time>2022-12-10T13:52:32.204Z</time>
      </trkpt>
      <trkpt lat="48.18214" lon="-4.04143">
        <ele>63.509276</ele>
        <time>2022-12-10T13:52:35.192Z</time>
      </trkpt>
      <trkpt lat="48.18224" lon="-4.04134">
        <ele>63.389204</ele>
        <time>2022-12-10T13:52:38.211Z</time>
      </trkpt>
      <trkpt lat="48.18234" lon="-4.04125">
        <ele>63.267868</ele>
        <time>2022-12-10T13:52:41.207Z</time>
      </trkpt>
      <trkpt lat="48.18243" lon="-4.04116">
        <ele>63.147052</ele>
        <time>2022-12-10T13:52:44.191Z</time>
      </trkpt>
      <trkpt lat="48.18253" lon="-4.04108">
        <ele>63.028228</ele>
        <time>2022-12-10T13:52:47.207Z</time>
      </trkpt>
      <trkpt lat="48.18264" lon="-4.04099">
        <ele>62.864941</ele>
        <time>2022-12-10T13:52:50.212Z</time>
      </trkpt>
      <trkpt lat="48.18274" lon="-4.04089">
        <ele>62.688065</ele>
        <time>2022-12-10T13:52:53.210Z</time>
      </trkpt>
      <trkpt lat="48.18284" lon="-4.04081">
        <ele>62.512065</ele>
        <time>2022-12-10T13:52:56.209Z</time>
      </trkpt>
      <trkpt lat="48.18294" lon="-4.04072">
        <ele>62.330308</ele>
        <time>2022-12-10T13:52:59.209Z</time>
      </trkpt>
      <trkpt lat="48.18305" lon="-4.04063">
        <ele>62.14887</ele>
        <time>2022-12-10T13:53:02.205Z</time>
      </trkpt>
      <trkpt lat="48.18315" lon="-4.04054">
        <ele>61.972366</ele>
        <time>2022-12-10T13:53:05.198Z</time>
      </trkpt>
      <trkpt lat="48.18324" lon="-4.04047">
        <ele>61.80657</ele>
        <time>2022-12-10T13:53:08.214Z</time>
      </trkpt>
      <trkpt lat="48.18333" lon="-4.04036">
        <ele>61.636715</ele>
        <time>2022-12-10T13:53:11.188Z</time>
      </trkpt>
      <trkpt lat="48.18344" lon="-4.04029">
        <ele>61.45893</ele>
        <time>2022-12-10T13:53:14.188Z</time>
      </trkpt>
      <trkpt lat="48.18355" lon="-4.04021">
        <ele>61.271015</ele>
        <time>2022-12-10T13:53:17.210Z</time>
      </trkpt>
      <trkpt lat="48.18366" lon="-4.04012">
        <ele>61.083594</ele>
        <time>2022-12-10T13:53:20.204Z</time>
      </trkpt>
      <trkpt lat="48.18377" lon="-4.04004">
        <ele>60.898821</ele>
        <time>2022-12-10T13:53:23.191Z</time>
      </trkpt>
      <trkpt lat="48.18388" lon="-4.03996">
        <ele>60.715003</ele>
        <time>2022-12-10T13:53:26.201Z</time>
      </trkpt>
      <trkpt lat="48.184" lon="-4.03987">
        <ele>60.522154</ele>
        <time>2022-12-10T13:53:29.208Z</time>
      </trkpt>
      <trkpt lat="48.1841" lon="-4.03979">
        <ele>60.340045</ele>
        <time>2022-12-10T13:53:32.210Z</time>
      </trkpt>
      <trkpt lat="48.18421" lon="-4.03971">
        <ele>60.282256</ele>
        <time>2022-12-10T13:53:35.213Z</time>
      </trkpt>
      <trkpt lat="48.18431" lon="-4.03963">
        <ele>60.307156</ele>
        <time>2022-12-10T13:53:38.209Z</time>
      </trkpt>
      <trkpt lat="48.18442" lon="-4.03954">
        <ele>60.331693</ele>
        <time>2022-12-10T13:53:41.187Z</time>
      </trkpt>
      <trkpt lat="48.18453" lon="-4.03946">
        <ele>60.357086</ele>
        <time>2022-12-10T13:53:44.209Z</time>
      </trkpt>
      <trkpt lat="48.18464" lon="-4.03937">
        <ele>60.383838</ele>
        <time>2022-12-10T13:53:47.198Z</time>
      </trkpt>
      <trkpt lat="48.18476" lon="-4.03929">
        <ele>60.409483</ele>
        <time>2022-12-10T13:53:50.215Z</time>
      </trkpt>
      <trkpt lat="48.18487" lon="-4.03922">
        <ele>60.434952</ele>
        <time>2022-12-10T13:53:53.214Z</time>
      </trkpt>
      <trkpt lat="48.18499" lon="-4.03914">
        <ele>60.461914</ele>
        <time>2022-12-10T13:53:56.210Z</time>
      </trkpt>
      <trkpt lat="48.1851" lon="-4.03907">
        <ele>60.487893</ele>
        <time>2022-12-10T13:53:59.210Z</time>
      </trkpt>
      <trkpt lat="48.18522" lon="-4.039">
        <ele>60.51322</ele>
        <time>2022-12-10T13:54:02.188Z</time>
      </trkpt>
      <trkpt lat="48.18532" lon="-4.03893">
        <ele>60.536932</ele>
        <time>2022-12-10T13:54:05.214Z</time>
      </trkpt>
      <trkpt lat="48.18544" lon="-4.03887">
        <ele>60.56273</ele>
        <time>2022-12-10T13:54:08.205Z</time>
      </trkpt>
      <trkpt lat="48.18555" lon="-4.0388">
        <ele>60.587798</ele>
        <time>2022-12-10T13:54:11.186Z</time>
      </trkpt>
      <trkpt lat="48.18565" lon="-4.03874">
        <ele>60.610464</ele>
        <time>2022-12-10T13:54:14.208Z</time>
      </trkpt>
      <trkpt lat="48.18577" lon="-4.03867">
        <ele>60.635547</ele>
        <time>2022-12-10T13:54:17.206Z</time>
      </trkpt>
      <trkpt lat="48.18588" lon="-4.0386">
        <ele>60.683693</ele>
        <time>2022-12-10T13:54:20.201Z</time>
      </trkpt>
      <trkpt lat="48.18598" lon="-4.03854">
        <ele>60.733023</ele>
        <time>2022-12-10T13:54:23.208Z</time>
      </trkpt>
      <trkpt lat="48.18609" lon="-4.03846">
        <ele>60.785679</ele>
        <time>2022-12-10T13:54:26.206Z</time>
      </trkpt>
      <trkpt lat="48.18621" lon="-4.03837">
        <ele>60.842132</ele>
        <time>2022-12-10T13:54:29.212Z</time>
      </trkpt>
      <trkpt lat="48.18628" lon="-4.0383">
        <ele>60.881428</ele>
        <time>2022-12-10T13:54:31.209Z</time>
      </trkpt>
      <trkpt lat="48.18638" lon="-4.03819">
        <ele>60.935149</ele>
        <time>2022-12-10T13:54:34.189Z</time>
      </trkpt>
      <trkpt lat="48.18648" lon="-4.03809">
        <ele>60.987128</ele>
        <time>2022-12-10T13:54:37.210Z</time>
      </trkpt>
      <trkpt lat="48.18659" lon="-4.03799">
        <ele>61.042086</ele>
        <time>2022-12-10T13:54:40.209Z</time>
      </trkpt>
      <trkpt lat="48.18669" lon="-4.03789">
        <ele>61.096528</ele>
        <time>2022-12-10T13:54:43.211Z</time>
      </trkpt>
      <trkpt lat="48.1868" lon="-4.0378">
        <ele>61.150538</ele>
        <time>2022-12-10T13:54:46.185Z</time>
      </trkpt>
      <trkpt lat="48.18691" lon="-4.0377">
        <ele>61.2079</ele>
        <time>2022-12-10T13:54:49.210Z</time>
      </trkpt>
      <trkpt lat="48.18703" lon="-4.03761">
        <ele>61.264147</ele>
        <time>2022-12-10T13:54:52.203Z</time>
      </trkpt>
      <trkpt lat="48.18714" lon="-4.03752">
        <ele>61.31954</ele>
        <time>2022-12-10T13:54:55.209Z</time>
      </trkpt>
      <trkpt lat="48.18725" lon="-4.03744">
        <ele>61.373109</ele>
        <time>2022-12-10T13:54:58.211Z</time>
      </trkpt>
      <trkpt lat="48.18736" lon="-4.03735">
        <ele>61.42963</ele>
        <time>2022-12-10T13:55:01.203Z</time>
      </trkpt>
      <trkpt lat="48.18747" lon="-4.03727">
        <ele>61.584479</ele>
        <time>2022-12-10T13:55:04.210Z</time>
      </trkpt>
      <trkpt lat="48.18758" lon="-4.03718">
        <ele>61.746095</ele>
        <time>2022-12-10T13:55:07.213Z</time>
      </trkpt>
      <trkpt lat="48.18769" lon="-4.0371">
        <ele>61.904365</ele>
        <time>2022-12-10T13:55:10.210Z</time>
      </trkpt>
      <trkpt lat="48.1878" lon="-4.03702">
        <ele>62.052471</ele>
        <time>2022-12-10T13:55:13.187Z</time>
      </trkpt>
      <trkpt lat="48.1879" lon="-4.03695">
        <ele>62.194224</ele>
        <time>2022-12-10T13:55:16.210Z</time>
      </trkpt>
      <trkpt lat="48.188" lon="-4.03688">
        <ele>62.329646</ele>
        <time>2022-12-10T13:55:19.211Z</time>
      </trkpt>
      <trkpt lat="48.18811" lon="-4.03683">
        <ele>62.475991</ele>
        <time>2022-12-10T13:55:22.198Z</time>
      </trkpt>
      <trkpt lat="48.18822" lon="-4.0368">
        <ele>62.614767</ele>
        <time>2022-12-10T13:55:25.212Z</time>
      </trkpt>
      <trkpt lat="48.18833" lon="-4.03677">
        <ele>62.754622</ele>
        <time>2022-12-10T13:55:28.194Z</time>
      </trkpt>
      <trkpt lat="48.18843" lon="-4.03674">
        <ele>62.889691</ele>
        <time>2022-12-10T13:55:31.206Z</time>
      </trkpt>
      <trkpt lat="48.18854" lon="-4.03671">
        <ele>63.030202</ele>
        <time>2022-12-10T13:55:34.178Z</time>
      </trkpt>
      <trkpt lat="48.18865" lon="-4.03668">
        <ele>63.168979</ele>
        <time>2022-12-10T13:55:37.205Z</time>
      </trkpt>
      <trkpt lat="48.18876" lon="-4.03666">
        <ele>63.302302</ele>
        <time>2022-12-10T13:55:40.208Z</time>
      </trkpt>
      <trkpt lat="48.18885" lon="-4.03664">
        <ele>63.427345</ele>
        <time>2022-12-10T13:55:43.205Z</time>
      </trkpt>
      <trkpt lat="48.18895" lon="-4.0366">
        <ele>63.547203</ele>
        <time>2022-12-10T13:55:46.208Z</time>
      </trkpt>
      <trkpt lat="48.18904" lon="-4.03656">
        <ele>63.668189</ele>
        <time>2022-12-10T13:55:49.207Z</time>
      </trkpt>
      <trkpt lat="48.18913" lon="-4.0365">
        <ele>63.673618</ele>
        <time>2022-12-10T13:55:52.209Z</time>
      </trkpt>
      <trkpt lat="48.18922" lon="-4.03648">
        <ele>63.650577</ele>
        <time>2022-12-10T13:55:55.202Z</time>
      </trkpt>
      <trkpt lat="48.18933" lon="-4.03644">
        <ele>63.619782</ele>
        <time>2022-12-10T13:55:59.184Z</time>
      </trkpt>
      <trkpt lat="48.18944" lon="-4.03641">
        <ele>63.592347</ele>
        <time>2022-12-10T13:56:02.185Z</time>
      </trkpt>
      <trkpt lat="48.18954" lon="-4.03638">
        <ele>63.565731</ele>
        <time>2022-12-10T13:56:05.201Z</time>
      </trkpt>
      <trkpt lat="48.18965" lon="-4.03635">
        <ele>63.538427</ele>
        <time>2022-12-10T13:56:08.213Z</time>
      </trkpt>
      <trkpt lat="48.18976" lon="-4.03632">
        <ele>63.509455</ele>
        <time>2022-12-10T13:56:11.212Z</time>
      </trkpt>
      <trkpt lat="48.18987" lon="-4.03628">
        <ele>63.479513</ele>
        <time>2022-12-10T13:56:14.192Z</time>
      </trkpt>
      <trkpt lat="48.18998" lon="-4.03623">
        <ele>63.450733</ele>
        <time>2022-12-10T13:56:17.221Z</time>
      </trkpt>
      <trkpt lat="48.19008" lon="-4.0362">
        <ele>63.425369</ele>
        <time>2022-12-10T13:56:20.213Z</time>
      </trkpt>
      <trkpt lat="48.19019" lon="-4.03618">
        <ele>63.394843</ele>
        <time>2022-12-10T13:56:24.195Z</time>
      </trkpt>
      <trkpt lat="48.19029" lon="-4.03614">
        <ele>63.370818</ele>
        <time>2022-12-10T13:56:27.190Z</time>
      </trkpt>
      <trkpt lat="48.19038" lon="-4.03611">
        <ele>63.345631</ele>
        <time>2022-12-10T13:56:30.185Z</time>
      </trkpt>
      <trkpt lat="48.19049" lon="-4.03607">
        <ele>63.318373</ele>
        <time>2022-12-10T13:56:33.202Z</time>
      </trkpt>
      <trkpt lat="48.1906" lon="-4.03603">
        <ele>63.289302</ele>
        <time>2022-12-10T13:56:36.214Z</time>
      </trkpt>
      <trkpt lat="48.19075" lon="-4.03598">
        <ele>63.250078</ele>
        <time>2022-12-10T13:56:40.182Z</time>
      </trkpt>
      <trkpt lat="48.19086" lon="-4.03595">
        <ele>63.239022</ele>
        <time>2022-12-10T13:56:43.184Z</time>
      </trkpt>
      <trkpt lat="48.19097" lon="-4.03591">
        <ele>63.252578</ele>
        <time>2022-12-10T13:56:46.202Z</time>
      </trkpt>
      <trkpt lat="48.19108" lon="-4.03588">
        <ele>63.26607</ele>
        <time>2022-12-10T13:56:49.202Z</time>
      </trkpt>
      <trkpt lat="48.1912" lon="-4.03584">
        <ele>63.279839</ele>
        <time>2022-12-10T13:56:52.209Z</time>
      </trkpt>
      <trkpt lat="48.19132" lon="-4.0358">
        <ele>63.294084</ele>
        <time>2022-12-10T13:56:55.209Z</time>
      </trkpt>
      <trkpt lat="48.19143" lon="-4.03576">
        <ele>63.307844</ele>
        <time>2022-12-10T13:56:58.202Z</time>
      </trkpt>
      <trkpt lat="48.19154" lon="-4.03572">
        <ele>63.321483</ele>
        <time>2022-12-10T13:57:01.187Z</time>
      </trkpt>
      <trkpt lat="48.19166" lon="-4.03569">
        <ele>63.335645</ele>
        <time>2022-12-10T13:57:04.215Z</time>
      </trkpt>
      <trkpt lat="48.19178" lon="-4.03565">
        <ele>63.349676</ele>
        <time>2022-12-10T13:57:07.192Z</time>
      </trkpt>
      <trkpt lat="48.1919" lon="-4.03564">
        <ele>63.363896</ele>
        <time>2022-12-10T13:57:10.182Z</time>
      </trkpt>
      <trkpt lat="48.19202" lon="-4.03563">
        <ele>63.378116</ele>
        <time>2022-12-10T13:57:13.204Z</time>
      </trkpt>
      <trkpt lat="48.19215" lon="-4.03562">
        <ele>63.392937</ele>
        <time>2022-12-10T13:57:16.204Z</time>
      </trkpt>
      <trkpt lat="48.19227" lon="-4.03561">
        <ele>63.407841</ele>
        <time>2022-12-10T13:57:19.211Z</time>
      </trkpt>
      <trkpt lat="48.19241" lon="-4.0356">
        <ele>63.423815</ele>
        <time>2022-12-10T13:57:22.211Z</time>
      </trkpt>
      <trkpt lat="48.19254" lon="-4.03559">
        <ele>63.439563</ele>
        <time>2022-12-10T13:57:25.209Z</time>
      </trkpt>
      <trkpt lat="48.19267" lon="-4.03558">
        <ele>63.450286</ele>
        <time>2022-12-10T13:57:28.211Z</time>
      </trkpt>
      <trkpt lat="48.1928" lon="-4.03558">
        <ele>63.458813</ele>
        <time>2022-12-10T13:57:31.210Z</time>
      </trkpt>
      <trkpt lat="48.19293" lon="-4.03557">
        <ele>63.467686</ele>
        <time>2022-12-10T13:57:34.206Z</time>
      </trkpt>
      <trkpt lat="48.19306" lon="-4.03556">
        <ele>63.476089</ele>
        <time>2022-12-10T13:57:37.207Z</time>
      </trkpt>
      <trkpt lat="48.19319" lon="-4.03555">
        <ele>63.484635</ele>
        <time>2022-12-10T13:57:40.212Z</time>
      </trkpt>
      <trkpt lat="48.19331" lon="-4.03555">
        <ele>63.493163</ele>
        <time>2022-12-10T13:57:43.204Z</time>
      </trkpt>
      <trkpt lat="48.19344" lon="-4.03556">
        <ele>63.501497</ele>
        <time>2022-12-10T13:57:46.211Z</time>
      </trkpt>
      <trkpt lat="48.19356" lon="-4.03557">
        <ele>63.509497</ele>
        <time>2022-12-10T13:57:49.210Z</time>
      </trkpt>
      <trkpt lat="48.19367" lon="-4.03557">
        <ele>63.516769</ele>
        <time>2022-12-10T13:57:52.212Z</time>
      </trkpt>
      <trkpt lat="48.19377" lon="-4.03558">
        <ele>63.523573</ele>
        <time>2022-12-10T13:57:55.210Z</time>
      </trkpt>
      <trkpt lat="48.19389" lon="-4.0356">
        <ele>63.531275</ele>
        <time>2022-12-10T13:57:58.205Z</time>
      </trkpt>
      <trkpt lat="48.194" lon="-4.03563">
        <ele>63.539043</ele>
        <time>2022-12-10T13:58:01.213Z</time>
      </trkpt>
      <trkpt lat="48.19411" lon="-4.03565">
        <ele>63.546405</ele>
        <time>2022-12-10T13:58:04.196Z</time>
      </trkpt>
      <trkpt lat="48.19422" lon="-4.0357">
        <ele>63.554062</ele>
        <time>2022-12-10T13:58:07.201Z</time>
      </trkpt>
      <trkpt lat="48.19434" lon="-4.03573">
        <ele>63.562166</ele>
        <time>2022-12-10T13:58:10.209Z</time>
      </trkpt>
      <trkpt lat="48.19446" lon="-4.03578">
        <ele>63.652983</ele>
        <time>2022-12-10T13:58:13.209Z</time>
      </trkpt>
      <trkpt lat="48.19456" lon="-4.03581">
        <ele>63.760995</ele>
        <time>2022-12-10T13:58:16.213Z</time>
      </trkpt>
      <trkpt lat="48.19468" lon="-4.03585">
        <ele>63.880298</ele>
        <time>2022-12-10T13:58:19.214Z</time>
      </trkpt>
      <trkpt lat="48.19479" lon="-4.0359">
        <ele>63.997384</ele>
        <time>2022-12-10T13:58:22.214Z</time>
      </trkpt>
      <trkpt lat="48.19491" lon="-4.03593">
        <ele>64.115841</ele>
        <time>2022-12-10T13:58:25.207Z</time>
      </trkpt>
      <trkpt lat="48.19502" lon="-4.03598">
        <ele>64.233466</ele>
        <time>2022-12-10T13:58:28.194Z</time>
      </trkpt>
      <trkpt lat="48.19514" lon="-4.03602">
        <ele>64.354016</ele>
        <time>2022-12-10T13:58:31.212Z</time>
      </trkpt>
      <trkpt lat="48.19527" lon="-4.03606">
        <ele>64.483923</ele>
        <time>2022-12-10T13:58:34.212Z</time>
      </trkpt>
      <trkpt lat="48.19538" lon="-4.03611">
        <ele>64.604617</ele>
        <time>2022-12-10T13:58:37.204Z</time>
      </trkpt>
      <trkpt lat="48.19549" lon="-4.03616">
        <ele>64.71534</ele>
        <time>2022-12-10T13:58:40.202Z</time>
      </trkpt>
      <trkpt lat="48.19559" lon="-4.03621">
        <ele>64.82325</ele>
        <time>2022-12-10T13:58:43.199Z</time>
      </trkpt>
      <trkpt lat="48.1957" lon="-4.03627">
        <ele>64.944364</ele>
        <time>2022-12-10T13:58:46.190Z</time>
      </trkpt>
      <trkpt lat="48.19582" lon="-4.03634">
        <ele>65.070417</ele>
        <time>2022-12-10T13:58:49.209Z</time>
      </trkpt>
      <trkpt lat="48.19591" lon="-4.0364">
        <ele>65.172312</ele>
        <time>2022-12-10T13:58:52.210Z</time>
      </trkpt>
      <trkpt lat="48.19601" lon="-4.03646">
        <ele>65.272968</ele>
        <time>2022-12-10T13:58:55.205Z</time>
      </trkpt>
      <trkpt lat="48.19611" lon="-4.0365">
        <ele>65.374276</ele>
        <time>2022-12-10T13:58:58.229Z</time>
      </trkpt>
      <trkpt lat="48.19621" lon="-4.03656">
        <ele>65.4606</ele>
        <time>2022-12-10T13:59:01.209Z</time>
      </trkpt>
      <trkpt lat="48.1963" lon="-4.03661">
        <ele>65.546737</ele>
        <time>2022-12-10T13:59:04.184Z</time>
      </trkpt>
      <trkpt lat="48.1964" lon="-4.03667">
        <ele>65.629516</ele>
        <time>2022-12-10T13:59:07.185Z</time>
      </trkpt>
      <trkpt lat="48.1965" lon="-4.03674">
        <ele>65.723033</ele>
        <time>2022-12-10T13:59:10.209Z</time>
      </trkpt>
      <trkpt lat="48.19661" lon="-4.03682">
        <ele>65.822257</ele>
        <time>2022-12-10T13:59:13.207Z</time>
      </trkpt>
      <trkpt lat="48.19673" lon="-4.03689">
        <ele>65.928712</ele>
        <time>2022-12-10T13:59:16.187Z</time>
      </trkpt>
      <trkpt lat="48.19686" lon="-4.03694">
        <ele>66.032722</ele>
        <time>2022-12-10T13:59:19.187Z</time>
      </trkpt>
      <trkpt lat="48.19697" lon="-4.037">
        <ele>66.134541</ele>
        <time>2022-12-10T13:59:22.227Z</time>
      </trkpt>
      <trkpt lat="48.19709" lon="-4.03705">
        <ele>66.233082</ele>
        <time>2022-12-10T13:59:25.210Z</time>
      </trkpt>
      <trkpt lat="48.19719" lon="-4.0371">
        <ele>66.316727</ele>
        <time>2022-12-10T13:59:28.209Z</time>
      </trkpt>
      <trkpt lat="48.19739" lon="-4.03718">
        <ele>66.48849</ele>
        <time>2022-12-10T14:00:00.188Z</time>
      </trkpt>
      <trkpt lat="48.19748" lon="-4.03722">
        <ele>66.566099</ele>
        <time>2022-12-10T14:00:03.209Z</time>
      </trkpt>
      <trkpt lat="48.19757" lon="-4.03727">
        <ele>66.645343</ele>
        <time>2022-12-10T14:00:06.192Z</time>
      </trkpt>
      <trkpt lat="48.19768" lon="-4.03731">
        <ele>66.739742</ele>
        <time>2022-12-10T14:00:10.213Z</time>
      </trkpt>
      <trkpt lat="48.19778" lon="-4.03735">
        <ele>66.821213</ele>
        <time>2022-12-10T14:00:13.183Z</time>
      </trkpt>
      <trkpt lat="48.19788" lon="-4.03738">
        <ele>66.824818</ele>
        <time>2022-12-10T14:00:16.218Z</time>
      </trkpt>
      <trkpt lat="48.19799" lon="-4.03741">
        <ele>66.814049</ele>
        <time>2022-12-10T14:00:19.208Z</time>
      </trkpt>
      <trkpt lat="48.19809" lon="-4.03743">
        <ele>66.803419</ele>
        <time>2022-12-10T14:00:22.210Z</time>
      </trkpt>
      <trkpt lat="48.1982" lon="-4.03743">
        <ele>66.792849</ele>
        <time>2022-12-10T14:00:25.209Z</time>
      </trkpt>
      <trkpt lat="48.1983" lon="-4.03743">
        <ele>66.782578</ele>
        <time>2022-12-10T14:00:28.209Z</time>
      </trkpt>
      <trkpt lat="48.19841" lon="-4.03744">
        <ele>66.771763</ele>
        <time>2022-12-10T14:00:31.209Z</time>
      </trkpt>
      <trkpt lat="48.19853" lon="-4.03747">
        <ele>66.760176</ele>
        <time>2022-12-10T14:00:34.192Z</time>
      </trkpt>
      <trkpt lat="48.19863" lon="-4.03751">
        <ele>66.748944</ele>
        <time>2022-12-10T14:00:37.204Z</time>
      </trkpt>
      <trkpt lat="48.19873" lon="-4.03757">
        <ele>66.738393</ele>
        <time>2022-12-10T14:00:40.209Z</time>
      </trkpt>
      <trkpt lat="48.19884" lon="-4.03763">
        <ele>66.727251</ele>
        <time>2022-12-10T14:00:43.209Z</time>
      </trkpt>
      <trkpt lat="48.19895" lon="-4.03769">
        <ele>66.715389</ele>
        <time>2022-12-10T14:00:46.212Z</time>
      </trkpt>
      <trkpt lat="48.19907" lon="-4.03773">
        <ele>66.703554</ele>
        <time>2022-12-10T14:00:49.206Z</time>
      </trkpt>
      <trkpt lat="48.19918" lon="-4.03777">
        <ele>66.692139</ele>
        <time>2022-12-10T14:00:52.209Z</time>
      </trkpt>
      <trkpt lat="48.1993" lon="-4.03781">
        <ele>66.679867</ele>
        <time>2022-12-10T14:00:55.209Z</time>
      </trkpt>
      <trkpt lat="48.19942" lon="-4.03785">
        <ele>66.667721</ele>
        <time>2022-12-10T14:00:58.187Z</time>
      </trkpt>
      <trkpt lat="48.19954" lon="-4.03791">
        <ele>66.655065</ele>
        <time>2022-12-10T14:01:01.197Z</time>
      </trkpt>
      <trkpt lat="48.19964" lon="-4.038">
        <ele>66.607512</ele>
        <time>2022-12-10T14:01:04.200Z</time>
      </trkpt>
      <trkpt lat="48.19975" lon="-4.03807">
        <ele>66.555552</ele>
        <time>2022-12-10T14:01:07.195Z</time>
      </trkpt>
      <trkpt lat="48.19986" lon="-4.03814">
        <ele>66.502393</ele>
        <time>2022-12-10T14:01:10.184Z</time>
      </trkpt>
      <trkpt lat="48.19997" lon="-4.0382">
        <ele>66.449876</ele>
        <time>2022-12-10T14:01:13.190Z</time>
      </trkpt>
      <trkpt lat="48.20009" lon="-4.03824">
        <ele>66.397097</ele>
        <time>2022-12-10T14:01:16.211Z</time>
      </trkpt>
      <trkpt lat="48.20021" lon="-4.03827">
        <ele>66.344077</ele>
        <time>2022-12-10T14:01:19.192Z</time>
      </trkpt>
      <trkpt lat="48.20032" lon="-4.03831">
        <ele>66.295447</ele>
        <time>2022-12-10T14:01:22.209Z</time>
      </trkpt>
      <trkpt lat="48.20042" lon="-4.03835">
        <ele>66.2504</ele>
        <time>2022-12-10T14:01:25.188Z</time>
      </trkpt>
      <trkpt lat="48.20053" lon="-4.03841">
        <ele>66.198572</ele>
        <time>2022-12-10T14:01:28.200Z</time>
      </trkpt>
      <trkpt lat="48.20065" lon="-4.03846">
        <ele>66.143659</ele>
        <time>2022-12-10T14:01:31.195Z</time>
      </trkpt>
      <trkpt lat="48.20077" lon="-4.03851">
        <ele>66.089745</ele>
        <time>2022-12-10T14:01:34.202Z</time>
      </trkpt>
      <trkpt lat="48.20089" lon="-4.03856">
        <ele>66.035831</ele>
        <time>2022-12-10T14:01:37.186Z</time>
      </trkpt>
      <trkpt lat="48.201" lon="-4.03859">
        <ele>65.987535</ele>
        <time>2022-12-10T14:01:40.209Z</time>
      </trkpt>
      <trkpt lat="48.20111" lon="-4.03862">
        <ele>65.937138</ele>
        <time>2022-12-10T14:01:43.187Z</time>
      </trkpt>
      <trkpt lat="48.20123" lon="-4.03864">
        <ele>65.884089</ele>
        <time>2022-12-10T14:01:46.221Z</time>
      </trkpt>
      <trkpt lat="48.20136" lon="-4.03866">
        <ele>65.891753</ele>
        <time>2022-12-10T14:01:49.184Z</time>
      </trkpt>
      <trkpt lat="48.20148" lon="-4.03867">
        <ele>65.920861</ele>
        <time>2022-12-10T14:01:52.213Z</time>
      </trkpt>
      <trkpt lat="48.2016" lon="-4.0387">
        <ele>65.949863</ele>
        <time>2022-12-10T14:01:55.213Z</time>
      </trkpt>
      <trkpt lat="48.20172" lon="-4.03872">
        <ele>65.980011</ele>
        <time>2022-12-10T14:01:58.193Z</time>
      </trkpt>
      <trkpt lat="48.20183" lon="-4.03876">
        <ele>66.006428</ele>
        <time>2022-12-10T14:02:01.209Z</time>
      </trkpt>
      <trkpt lat="48.20193" lon="-4.03878">
        <ele>66.030883</ele>
        <time>2022-12-10T14:02:04.199Z</time>
      </trkpt>
      <trkpt lat="48.20205" lon="-4.03879">
        <ele>66.058264</ele>
        <time>2022-12-10T14:02:07.209Z</time>
      </trkpt>
      <trkpt lat="48.20216" lon="-4.03883">
        <ele>66.086589</ele>
        <time>2022-12-10T14:02:10.204Z</time>
      </trkpt>
      <trkpt lat="48.20228" lon="-4.03885">
        <ele>66.114406</ele>
        <time>2022-12-10T14:02:13.208Z</time>
      </trkpt>
      <trkpt lat="48.20239" lon="-4.03887">
        <ele>66.142633</ele>
        <time>2022-12-10T14:02:16.201Z</time>
      </trkpt>
      <trkpt lat="48.20255" lon="-4.0389">
        <ele>66.181082</ele>
        <time>2022-12-10T14:02:20.204Z</time>
      </trkpt>
      <trkpt lat="48.20267" lon="-4.0389">
        <ele>66.207656</ele>
        <time>2022-12-10T14:02:23.187Z</time>
      </trkpt>
      <trkpt lat="48.20282" lon="-4.03888">
        <ele>66.243872</ele>
        <time>2022-12-10T14:02:27.211Z</time>
      </trkpt>
      <trkpt lat="48.20294" lon="-4.03887">
        <ele>66.272634</ele>
        <time>2022-12-10T14:02:30.210Z</time>
      </trkpt>
      <trkpt lat="48.20305" lon="-4.03889">
        <ele>66.302858</ele>
        <time>2022-12-10T14:02:33.205Z</time>
      </trkpt>
      <trkpt lat="48.20317" lon="-4.03889">
        <ele>66.450072</ele>
        <time>2022-12-10T14:02:36.197Z</time>
      </trkpt>
      <trkpt lat="48.20328" lon="-4.03889">
        <ele>66.579964</ele>
        <time>2022-12-10T14:02:39.206Z</time>
      </trkpt>
      <trkpt lat="48.20339" lon="-4.03885">
        <ele>66.728597</ele>
        <time>2022-12-10T14:02:43.192Z</time>
      </trkpt>
      <trkpt lat="48.20351" lon="-4.0388">
        <ele>66.876713</ele>
        <time>2022-12-10T14:02:46.203Z</time>
      </trkpt>
      <trkpt lat="48.20362" lon="-4.03874">
        <ele>67.019635</ele>
        <time>2022-12-10T14:02:49.193Z</time>
      </trkpt>
      <trkpt lat="48.20374" lon="-4.03869">
        <ele>67.172009</ele>
        <time>2022-12-10T14:02:52.202Z</time>
      </trkpt>
      <trkpt lat="48.20386" lon="-4.03863">
        <ele>67.334343</ele>
        <time>2022-12-10T14:02:55.179Z</time>
      </trkpt>
      <trkpt lat="48.20399" lon="-4.03859">
        <ele>67.494195</ele>
        <time>2022-12-10T14:02:58.203Z</time>
      </trkpt>
      <trkpt lat="48.2041" lon="-4.03856">
        <ele>67.635236</ele>
        <time>2022-12-10T14:03:01.210Z</time>
      </trkpt>
      <trkpt lat="48.20422" lon="-4.03852">
        <ele>67.790424</ele>
        <time>2022-12-10T14:03:04.205Z</time>
      </trkpt>
      <trkpt lat="48.20434" lon="-4.0385">
        <ele>67.929157</ele>
        <time>2022-12-10T14:03:07.212Z</time>
      </trkpt>
      <trkpt lat="48.20445" lon="-4.03849">
        <ele>68.075169</ele>
        <time>2022-12-10T14:03:10.204Z</time>
      </trkpt>
      <trkpt lat="48.20457" lon="-4.03848">
        <ele>68.219201</ele>
        <time>2022-12-10T14:03:13.216Z</time>
      </trkpt>
      <trkpt lat="48.20468" lon="-4.03846">
        <ele>68.357407</ele>
        <time>2022-12-10T14:03:16.205Z</time>
      </trkpt>
      <trkpt lat="48.20479" lon="-4.03845">
        <ele>68.49261</ele>
        <time>2022-12-10T14:03:19.209Z</time>
      </trkpt>
      <trkpt lat="48.20489" lon="-4.03844">
        <ele>68.721882</ele>
        <time>2022-12-10T14:03:22.205Z</time>
      </trkpt>
      <trkpt lat="48.20499" lon="-4.03843">
        <ele>68.98674</ele>
        <time>2022-12-10T14:03:25.213Z</time>
      </trkpt>
      <trkpt lat="48.20509" lon="-4.03842">
        <ele>69.240764</ele>
        <time>2022-12-10T14:03:28.207Z</time>
      </trkpt>
      <trkpt lat="48.20522" lon="-4.03842">
        <ele>69.570058</ele>
        <time>2022-12-10T14:03:32.193Z</time>
      </trkpt>
      <trkpt lat="48.20532" lon="-4.03842">
        <ele>69.82917</ele>
        <time>2022-12-10T14:03:35.207Z</time>
      </trkpt>
      <trkpt lat="48.20542" lon="-4.03841">
        <ele>70.098669</ele>
        <time>2022-12-10T14:03:38.207Z</time>
      </trkpt>
      <trkpt lat="48.20551" lon="-4.03842">
        <ele>70.337452</ele>
        <time>2022-12-10T14:03:41.210Z</time>
      </trkpt>
      <trkpt lat="48.20563" lon="-4.03842">
        <ele>70.627739</ele>
        <time>2022-12-10T14:03:45.197Z</time>
      </trkpt>
      <trkpt lat="48.20575" lon="-4.03843">
        <ele>70.939483</ele>
        <time>2022-12-10T14:03:49.216Z</time>
      </trkpt>
      <trkpt lat="48.20587" lon="-4.03845">
        <ele>71.249389</ele>
        <time>2022-12-10T14:03:53.209Z</time>
      </trkpt>
      <trkpt lat="48.20596" lon="-4.03845">
        <ele>71.490388</ele>
        <time>2022-12-10T14:03:56.206Z</time>
      </trkpt>
      <trkpt lat="48.20605" lon="-4.03846">
        <ele>71.739232</ele>
        <time>2022-12-10T14:03:59.208Z</time>
      </trkpt>
      <trkpt lat="48.20615" lon="-4.03846">
        <ele>71.988464</ele>
        <time>2022-12-10T14:04:02.212Z</time>
      </trkpt>
      <trkpt lat="48.20624" lon="-4.03847">
        <ele>72.226904</ele>
        <time>2022-12-10T14:04:05.209Z</time>
      </trkpt>
      <trkpt lat="48.20634" lon="-4.03848">
        <ele>72.470964</ele>
        <time>2022-12-10T14:04:08.194Z</time>
      </trkpt>
      <trkpt lat="48.20644" lon="-4.03848">
        <ele>72.735309</ele>
        <time>2022-12-10T14:04:11.209Z</time>
      </trkpt>
      <trkpt lat="48.20654" lon="-4.03848">
        <ele>73.004808</ele>
        <time>2022-12-10T14:04:14.204Z</time>
      </trkpt>
      <trkpt lat="48.20664" lon="-4.03847">
        <ele>73.256704</ele>
        <time>2022-12-10T14:04:17.212Z</time>
      </trkpt>
      <trkpt lat="48.20675" lon="-4.03846">
        <ele>73.489113</ele>
        <time>2022-12-10T14:04:20.215Z</time>
      </trkpt>
      <trkpt lat="48.20687" lon="-4.03846">
        <ele>73.741143</ele>
        <time>2022-12-10T14:04:23.217Z</time>
      </trkpt>
      <trkpt lat="48.20698" lon="-4.03846">
        <ele>73.988934</ele>
        <time>2022-12-10T14:04:26.191Z</time>
      </trkpt>
      <trkpt lat="48.20709" lon="-4.03847">
        <ele>74.230013</ele>
        <time>2022-12-10T14:04:29.210Z</time>
      </trkpt>
      <trkpt lat="48.2072" lon="-4.03848">
        <ele>74.471462</ele>
        <time>2022-12-10T14:04:32.209Z</time>
      </trkpt>
      <trkpt lat="48.20731" lon="-4.03847">
        <ele>74.719254</ele>
        <time>2022-12-10T14:04:35.202Z</time>
      </trkpt>
      <trkpt lat="48.20742" lon="-4.03847">
        <ele>74.962457</ele>
        <time>2022-12-10T14:04:38.213Z</time>
      </trkpt>
      <trkpt lat="48.20757" lon="-4.03849">
        <ele>75.289647</ele>
        <time>2022-12-10T14:04:42.215Z</time>
      </trkpt>
      <trkpt lat="48.20767" lon="-4.0385">
        <ele>75.506951</ele>
        <time>2022-12-10T14:04:45.213Z</time>
      </trkpt>
      <trkpt lat="48.20778" lon="-4.0385">
        <ele>75.73942</ele>
        <time>2022-12-10T14:04:48.194Z</time>
      </trkpt>
      <trkpt lat="48.20789" lon="-4.03851">
        <ele>75.987108</ele>
        <time>2022-12-10T14:04:51.209Z</time>
      </trkpt>
      <trkpt lat="48.208" lon="-4.03852">
        <ele>76.239341</ele>
        <time>2022-12-10T14:04:54.222Z</time>
      </trkpt>
      <trkpt lat="48.20811" lon="-4.03852">
        <ele>76.480366</ele>
        <time>2022-12-10T14:04:57.188Z</time>
      </trkpt>
      <trkpt lat="48.20823" lon="-4.03852">
        <ele>76.727986</ele>
        <time>2022-12-10T14:05:00.209Z</time>
      </trkpt>
      <trkpt lat="48.20833" lon="-4.03852">
        <ele>76.962584</ele>
        <time>2022-12-10T14:05:03.201Z</time>
      </trkpt>
      <trkpt lat="48.20844" lon="-4.03853">
        <ele>77.140373</ele>
        <time>2022-12-10T14:05:06.205Z</time>
      </trkpt>
      <trkpt lat="48.20855" lon="-4.03854">
        <ele>77.184595</ele>
        <time>2022-12-10T14:05:09.191Z</time>
      </trkpt>
      <trkpt lat="48.20867" lon="-4.03854">
        <ele>77.229615</ele>
        <time>2022-12-10T14:05:12.215Z</time>
      </trkpt>
      <trkpt lat="48.20878" lon="-4.03854">
        <ele>77.274632</ele>
        <time>2022-12-10T14:05:15.212Z</time>
      </trkpt>
      <trkpt lat="48.20889" lon="-4.03857">
        <ele>77.321333</ele>
        <time>2022-12-10T14:05:18.191Z</time>
      </trkpt>
      <trkpt lat="48.20901" lon="-4.03858">
        <ele>77.369267</ele>
        <time>2022-12-10T14:05:21.205Z</time>
      </trkpt>
      <trkpt lat="48.20912" lon="-4.03858">
        <ele>77.413075</ele>
        <time>2022-12-10T14:05:24.215Z</time>
      </trkpt>
      <trkpt lat="48.20923" lon="-4.03857">
        <ele>77.457725</ele>
        <time>2022-12-10T14:05:27.193Z</time>
      </trkpt>
      <trkpt lat="48.20934" lon="-4.03857">
        <ele>77.50235</ele>
        <time>2022-12-10T14:05:30.202Z</time>
      </trkpt>
      <trkpt lat="48.20944" lon="-4.03856">
        <ele>77.543449</ele>
        <time>2022-12-10T14:05:33.211Z</time>
      </trkpt>
      <trkpt lat="48.20956" lon="-4.03856">
        <ele>77.588061</ele>
        <time>2022-12-10T14:05:36.212Z</time>
      </trkpt>
      <trkpt lat="48.20966" lon="-4.03855">
        <ele>77.631072</ele>
        <time>2022-12-10T14:05:39.209Z</time>
      </trkpt>
      <trkpt lat="48.20977" lon="-4.03855">
        <ele>77.67449</ele>
        <time>2022-12-10T14:05:42.212Z</time>
      </trkpt>
      <trkpt lat="48.20988" lon="-4.03855">
        <ele>77.7171</ele>
        <time>2022-12-10T14:05:45.212Z</time>
      </trkpt>
      <trkpt lat="48.20999" lon="-4.03854">
        <ele>77.762177</ele>
        <time>2022-12-10T14:05:48.208Z</time>
      </trkpt>
      <trkpt lat="48.2101" lon="-4.03853">
        <ele>77.808928</ele>
        <time>2022-12-10T14:05:51.190Z</time>
      </trkpt>
      <trkpt lat="48.21023" lon="-4.03851">
        <ele>77.876506</ele>
        <time>2022-12-10T14:05:54.196Z</time>
      </trkpt>
      <trkpt lat="48.21033" lon="-4.03849">
        <ele>78.019847</ele>
        <time>2022-12-10T14:05:57.203Z</time>
      </trkpt>
      <trkpt lat="48.21045" lon="-4.03847">
        <ele>78.170067</ele>
        <time>2022-12-10T14:06:00.183Z</time>
      </trkpt>
      <trkpt lat="48.21056" lon="-4.03843">
        <ele>78.32328</ele>
        <time>2022-12-10T14:06:03.214Z</time>
      </trkpt>
      <trkpt lat="48.21067" lon="-4.03841">
        <ele>78.470211</ele>
        <time>2022-12-10T14:06:06.201Z</time>
      </trkpt>
      <trkpt lat="48.21078" lon="-4.03837">
        <ele>78.623969</ele>
        <time>2022-12-10T14:06:09.204Z</time>
      </trkpt>
      <trkpt lat="48.21089" lon="-4.03832">
        <ele>78.770353</ele>
        <time>2022-12-10T14:06:12.209Z</time>
      </trkpt>
      <trkpt lat="48.211" lon="-4.03828">
        <ele>78.914963</ele>
        <time>2022-12-10T14:06:15.201Z</time>
      </trkpt>
      <trkpt lat="48.2111" lon="-4.03824">
        <ele>79.053396</ele>
        <time>2022-12-10T14:06:18.192Z</time>
      </trkpt>
      <trkpt lat="48.2112" lon="-4.0382">
        <ele>79.188701</ele>
        <time>2022-12-10T14:06:21.216Z</time>
      </trkpt>
      <trkpt lat="48.21129" lon="-4.03814">
        <ele>79.324947</ele>
        <time>2022-12-10T14:06:24.188Z</time>
      </trkpt>
      <trkpt lat="48.2114" lon="-4.03809">
        <ele>79.473591</ele>
        <time>2022-12-10T14:06:27.213Z</time>
      </trkpt>
      <trkpt lat="48.21151" lon="-4.03805">
        <ele>79.621379</ele>
        <time>2022-12-10T14:06:30.211Z</time>
      </trkpt>
      <trkpt lat="48.21163" lon="-4.03802">
        <ele>79.776932</ele>
        <time>2022-12-10T14:06:33.209Z</time>
      </trkpt>
      <trkpt lat="48.21179" lon="-4.03799">
        <ele>79.987801</ele>
        <time>2022-12-10T14:06:37.193Z</time>
      </trkpt>
      <trkpt lat="48.2119" lon="-4.03796">
        <ele>80.142761</ele>
        <time>2022-12-10T14:06:40.217Z</time>
      </trkpt>
      <trkpt lat="48.212" lon="-4.03792">
        <ele>80.062593</ele>
        <time>2022-12-10T14:06:43.218Z</time>
      </trkpt>
      <trkpt lat="48.21208" lon="-4.03785">
        <ele>79.77085</ele>
        <time>2022-12-10T14:06:46.211Z</time>
      </trkpt>
      <trkpt lat="48.21218" lon="-4.03781">
        <ele>79.450496</ele>
        <time>2022-12-10T14:06:49.197Z</time>
      </trkpt>
      <trkpt lat="48.21229" lon="-4.03776">
        <ele>79.079425</ele>
        <time>2022-12-10T14:06:52.204Z</time>
      </trkpt>
      <trkpt lat="48.2124" lon="-4.0377">
        <ele>78.728716</ele>
        <time>2022-12-10T14:06:55.209Z</time>
      </trkpt>
      <trkpt lat="48.21251" lon="-4.03764">
        <ele>78.349917</ele>
        <time>2022-12-10T14:06:58.191Z</time>
      </trkpt>
      <trkpt lat="48.21262" lon="-4.03758">
        <ele>77.985174</ele>
        <time>2022-12-10T14:07:01.208Z</time>
      </trkpt>
      <trkpt lat="48.21272" lon="-4.03751">
        <ele>77.63353</ele>
        <time>2022-12-10T14:07:04.196Z</time>
      </trkpt>
      <trkpt lat="48.21282" lon="-4.03745">
        <ele>77.286049</ele>
        <time>2022-12-10T14:07:07.187Z</time>
      </trkpt>
      <trkpt lat="48.21293" lon="-4.03738">
        <ele>76.918163</ele>
        <time>2022-12-10T14:07:10.207Z</time>
      </trkpt>
      <trkpt lat="48.21303" lon="-4.03731">
        <ele>76.559483</ele>
        <time>2022-12-10T14:07:13.209Z</time>
      </trkpt>
      <trkpt lat="48.21314" lon="-4.03724">
        <ele>76.203306</ele>
        <time>2022-12-10T14:07:16.214Z</time>
      </trkpt>
      <trkpt lat="48.21323" lon="-4.03716">
        <ele>75.85618</ele>
        <time>2022-12-10T14:07:19.203Z</time>
      </trkpt>
      <trkpt lat="48.21334" lon="-4.03707">
        <ele>75.465088</ele>
        <time>2022-12-10T14:07:22.208Z</time>
      </trkpt>
      <trkpt lat="48.21344" lon="-4.03697">
        <ele>75.086297</ele>
        <time>2022-12-10T14:07:25.193Z</time>
      </trkpt>
      <trkpt lat="48.21354" lon="-4.03687">
        <ele>74.705772</ele>
        <time>2022-12-10T14:07:28.209Z</time>
      </trkpt>
      <trkpt lat="48.21363" lon="-4.03678">
        <ele>74.326149</ele>
        <time>2022-12-10T14:07:31.214Z</time>
      </trkpt>
      <trkpt lat="48.21373" lon="-4.03668">
        <ele>73.79299</ele>
        <time>2022-12-10T14:07:34.202Z</time>
      </trkpt>
      <trkpt lat="48.2138" lon="-4.03657">
        <ele>73.330833</ele>
        <time>2022-12-10T14:07:37.191Z</time>
      </trkpt>
      <trkpt lat="48.2139" lon="-4.03645">
        <ele>72.785737</ele>
        <time>2022-12-10T14:07:40.211Z</time>
      </trkpt>
      <trkpt lat="48.21397" lon="-4.03634">
        <ele>72.330977</ele>
        <time>2022-12-10T14:07:43.213Z</time>
      </trkpt>
      <trkpt lat="48.21404" lon="-4.03624">
        <ele>71.920364</ele>
        <time>2022-12-10T14:07:46.202Z</time>
      </trkpt>
      <trkpt lat="48.21412" lon="-4.03609">
        <ele>71.371488</ele>
        <time>2022-12-10T14:07:49.225Z</time>
      </trkpt>
      <trkpt lat="48.21419" lon="-4.03593">
        <ele>70.802197</ele>
        <time>2022-12-10T14:07:52.206Z</time>
      </trkpt>
      <trkpt lat="48.21427" lon="-4.03578">
        <ele>70.236387</ele>
        <time>2022-12-10T14:07:55.201Z</time>
      </trkpt>
      <trkpt lat="48.21434" lon="-4.03564">
        <ele>69.720532</ele>
        <time>2022-12-10T14:07:58.204Z</time>
      </trkpt>
      <trkpt lat="48.21442" lon="-4.03549">
        <ele>69.190646</ele>
        <time>2022-12-10T14:08:01.215Z</time>
      </trkpt>
      <trkpt lat="48.2145" lon="-4.03536">
        <ele>68.654104</ele>
        <time>2022-12-10T14:08:04.203Z</time>
      </trkpt>
      <trkpt lat="48.21457" lon="-4.03522">
        <ele>68.13729</ele>
        <time>2022-12-10T14:08:07.201Z</time>
      </trkpt>
      <trkpt lat="48.21465" lon="-4.03508">
        <ele>67.609671</ele>
        <time>2022-12-10T14:08:10.212Z</time>
      </trkpt>
      <trkpt lat="48.21471" lon="-4.03495">
        <ele>67.142013</ele>
        <time>2022-12-10T14:08:13.206Z</time>
      </trkpt>
      <trkpt lat="48.21476" lon="-4.03483">
        <ele>66.744954</ele>
        <time>2022-12-10T14:08:16.211Z</time>
      </trkpt>
      <trkpt lat="48.21482" lon="-4.03471">
        <ele>66.611731</ele>
        <time>2022-12-10T14:08:19.203Z</time>
      </trkpt>
      <trkpt lat="48.21489" lon="-4.03458">
        <ele>66.516454</ele>
        <time>2022-12-10T14:08:22.202Z</time>
      </trkpt>
      <trkpt lat="48.21495" lon="-4.03443">
        <ele>66.414426</ele>
        <time>2022-12-10T14:08:25.202Z</time>
      </trkpt>
      <trkpt lat="48.21502" lon="-4.0343">
        <ele>66.316231</ele>
        <time>2022-12-10T14:08:28.211Z</time>
      </trkpt>
      <trkpt lat="48.21508" lon="-4.03416">
        <ele>66.218074</ele>
        <time>2022-12-10T14:08:31.210Z</time>
      </trkpt>
      <trkpt lat="48.21515" lon="-4.03402">
        <ele>66.118933</ele>
        <time>2022-12-10T14:08:34.212Z</time>
      </trkpt>
      <trkpt lat="48.21522" lon="-4.03388">
        <ele>66.015888</ele>
        <time>2022-12-10T14:08:37.214Z</time>
      </trkpt>
      <trkpt lat="48.21528" lon="-4.03374">
        <ele>65.914378</ele>
        <time>2022-12-10T14:08:40.216Z</time>
      </trkpt>
      <trkpt lat="48.21535" lon="-4.03359">
        <ele>65.81086</ele>
        <time>2022-12-10T14:08:43.213Z</time>
      </trkpt>
      <trkpt lat="48.21542" lon="-4.03345">
        <ele>65.711156</ele>
        <time>2022-12-10T14:08:46.215Z</time>
      </trkpt>
      <trkpt lat="48.21548" lon="-4.03331">
        <ele>65.607702</ele>
        <time>2022-12-10T14:08:49.214Z</time>
      </trkpt>
      <trkpt lat="48.21554" lon="-4.03317">
        <ele>65.512019</ele>
        <time>2022-12-10T14:08:52.206Z</time>
      </trkpt>
      <trkpt lat="48.2156" lon="-4.03302">
        <ele>65.410297</ele>
        <time>2022-12-10T14:08:55.207Z</time>
      </trkpt>
      <trkpt lat="48.21566" lon="-4.03288">
        <ele>65.314873</ele>
        <time>2022-12-10T14:08:58.196Z</time>
      </trkpt>
      <trkpt lat="48.2157" lon="-4.03274">
        <ele>65.228209</ele>
        <time>2022-12-10T14:09:01.190Z</time>
      </trkpt>
      <trkpt lat="48.21574" lon="-4.03259">
        <ele>65.132022</ele>
        <time>2022-12-10T14:09:05.208Z</time>
      </trkpt>
      <trkpt lat="48.21581" lon="-4.03243">
        <ele>65.049188</ele>
        <time>2022-12-10T14:09:09.191Z</time>
      </trkpt>
      <trkpt lat="48.21585" lon="-4.03229">
        <ele>64.98155</ele>
        <time>2022-12-10T14:09:12.214Z</time>
      </trkpt>
      <trkpt lat="48.2159" lon="-4.03215">
        <ele>64.911824</ele>
        <time>2022-12-10T14:09:15.213Z</time>
      </trkpt>
      <trkpt lat="48.21593" lon="-4.03201">
        <ele>64.849894</ele>
        <time>2022-12-10T14:09:18.214Z</time>
      </trkpt>
      <trkpt lat="48.21596" lon="-4.03183">
        <ele>64.772312</ele>
        <time>2022-12-10T14:09:21.203Z</time>
      </trkpt>
      <trkpt lat="48.21598" lon="-4.03167">
        <ele>64.701829</ele>
        <time>2022-12-10T14:09:24.225Z</time>
      </trkpt>
      <trkpt lat="48.21601" lon="-4.03151">
        <ele>64.633604</ele>
        <time>2022-12-10T14:09:27.211Z</time>
      </trkpt>
      <trkpt lat="48.21601" lon="-4.03134">
        <ele>64.559584</ele>
        <time>2022-12-10T14:09:30.208Z</time>
      </trkpt>
      <trkpt lat="48.21602" lon="-4.03116">
        <ele>64.483925</ele>
        <time>2022-12-10T14:09:33.208Z</time>
      </trkpt>
      <trkpt lat="48.21599" lon="-4.03129">
        <ele>64.422719</ele>
        <time>2022-12-10T14:09:59.189Z</time>
      </trkpt>
      <trkpt lat="48.216" lon="-4.03115">
        <ele>64.359159</ele>
        <time>2022-12-10T14:11:36.182Z</time>
      </trkpt>
      <trkpt lat="48.21602" lon="-4.03093">
        <ele>64.266315</ele>
        <time>2022-12-10T14:11:41.210Z</time>
      </trkpt>
      <trkpt lat="48.21602" lon="-4.03079">
        <ele>64.20545</ele>
        <time>2022-12-10T14:11:44.183Z</time>
      </trkpt>
      <trkpt lat="48.21602" lon="-4.03065">
        <ele>64.145403</ele>
        <time>2022-12-10T14:11:47.204Z</time>
      </trkpt>
      <trkpt lat="48.21602" lon="-4.0305">
        <ele>64.081161</ele>
        <time>2022-12-10T14:11:50.187Z</time>
      </trkpt>
      <trkpt lat="48.21603" lon="-4.03035">
        <ele>64.01821</ele>
        <time>2022-12-10T14:11:53.194Z</time>
      </trkpt>
      <trkpt lat="48.21603" lon="-4.0302">
        <ele>63.977622</ele>
        <time>2022-12-10T14:11:56.212Z</time>
      </trkpt>
      <trkpt lat="48.21603" lon="-4.03004">
        <ele>64.074646</ele>
        <time>2022-12-10T14:11:59.213Z</time>
      </trkpt>
      <trkpt lat="48.21603" lon="-4.02988">
        <ele>64.171564</ele>
        <time>2022-12-10T14:12:02.214Z</time>
      </trkpt>
      <trkpt lat="48.21603" lon="-4.02972">
        <ele>64.269289</ele>
        <time>2022-12-10T14:12:05.191Z</time>
      </trkpt>
      <trkpt lat="48.21602" lon="-4.02955">
        <ele>64.367561</ele>
        <time>2022-12-10T14:12:08.210Z</time>
      </trkpt>
      <trkpt lat="48.21601" lon="-4.02939">
        <ele>64.466549</ele>
        <time>2022-12-10T14:12:11.211Z</time>
      </trkpt>
      <trkpt lat="48.21601" lon="-4.02922">
        <ele>64.567718</ele>
        <time>2022-12-10T14:12:14.201Z</time>
      </trkpt>
      <trkpt lat="48.216" lon="-4.02906">
        <ele>64.666855</ele>
        <time>2022-12-10T14:12:17.222Z</time>
      </trkpt>
      <trkpt lat="48.21599" lon="-4.0289">
        <ele>64.762914</ele>
        <time>2022-12-10T14:12:20.206Z</time>
      </trkpt>
      <trkpt lat="48.21599" lon="-4.02875">
        <ele>64.852048</ele>
        <time>2022-12-10T14:12:23.209Z</time>
      </trkpt>
      <trkpt lat="48.21598" lon="-4.02858">
        <ele>64.952838</ele>
        <time>2022-12-10T14:12:26.212Z</time>
      </trkpt>
      <trkpt lat="48.21597" lon="-4.02842">
        <ele>65.053173</ele>
        <time>2022-12-10T14:12:29.190Z</time>
      </trkpt>
      <trkpt lat="48.21596" lon="-4.02826">
        <ele>65.148633</ele>
        <time>2022-12-10T14:12:32.189Z</time>
      </trkpt>
      <trkpt lat="48.21595" lon="-4.02809">
        <ele>65.249963</ele>
        <time>2022-12-10T14:12:35.189Z</time>
      </trkpt>
      <trkpt lat="48.21594" lon="-4.02794">
        <ele>65.344994</ele>
        <time>2022-12-10T14:12:38.211Z</time>
      </trkpt>
      <trkpt lat="48.21594" lon="-4.02778">
        <ele>65.441463</ele>
        <time>2022-12-10T14:12:41.211Z</time>
      </trkpt>
      <trkpt lat="48.21593" lon="-4.0276">
        <ele>65.545668</ele>
        <time>2022-12-10T14:12:44.211Z</time>
      </trkpt>
      <trkpt lat="48.21592" lon="-4.02743">
        <ele>65.599048</ele>
        <time>2022-12-10T14:12:47.192Z</time>
      </trkpt>
      <trkpt lat="48.21591" lon="-4.02725">
        <ele>65.614406</ele>
        <time>2022-12-10T14:12:50.209Z</time>
      </trkpt>
      <trkpt lat="48.2159" lon="-4.02708">
        <ele>65.629429</ele>
        <time>2022-12-10T14:12:53.207Z</time>
      </trkpt>
      <trkpt lat="48.21589" lon="-4.02691">
        <ele>65.644377</ele>
        <time>2022-12-10T14:12:56.195Z</time>
      </trkpt>
      <trkpt lat="48.21587" lon="-4.02674">
        <ele>65.659561</ele>
        <time>2022-12-10T14:12:59.208Z</time>
      </trkpt>
      <trkpt lat="48.21586" lon="-4.02658">
        <ele>65.674409</ele>
        <time>2022-12-10T14:13:02.213Z</time>
      </trkpt>
      <trkpt lat="48.21585" lon="-4.02641">
        <ele>65.689169</ele>
        <time>2022-12-10T14:13:05.192Z</time>
      </trkpt>
      <trkpt lat="48.21584" lon="-4.02625">
        <ele>65.703579</ele>
        <time>2022-12-10T14:13:08.214Z</time>
      </trkpt>
      <trkpt lat="48.21584" lon="-4.02608">
        <ele>65.71829</ele>
        <time>2022-12-10T14:13:11.208Z</time>
      </trkpt>
      <trkpt lat="48.21582" lon="-4.02591">
        <ele>65.732932</ele>
        <time>2022-12-10T14:13:14.210Z</time>
      </trkpt>
      <trkpt lat="48.21581" lon="-4.02575">
        <ele>65.747051</ele>
        <time>2022-12-10T14:13:17.209Z</time>
      </trkpt>
      <trkpt lat="48.21578" lon="-4.0256">
        <ele>65.761347</ele>
        <time>2022-12-10T14:13:20.213Z</time>
      </trkpt>
      <trkpt lat="48.21577" lon="-4.02543">
        <ele>65.776065</ele>
        <time>2022-12-10T14:13:23.216Z</time>
      </trkpt>
      <trkpt lat="48.21574" lon="-4.02527">
        <ele>65.790952</ele>
        <time>2022-12-10T14:13:26.205Z</time>
      </trkpt>
      <trkpt lat="48.21572" lon="-4.0251">
        <ele>65.805606</ele>
        <time>2022-12-10T14:13:29.207Z</time>
      </trkpt>
      <trkpt lat="48.21569" lon="-4.02494">
        <ele>65.820492</ele>
        <time>2022-12-10T14:13:32.213Z</time>
      </trkpt>
      <trkpt lat="48.21565" lon="-4.02478">
        <ele>65.897079</ele>
        <time>2022-12-10T14:13:35.211Z</time>
      </trkpt>
      <trkpt lat="48.21559" lon="-4.02459">
        <ele>66.078528</ele>
        <time>2022-12-10T14:13:39.222Z</time>
      </trkpt>
      <trkpt lat="48.21554" lon="-4.02444">
        <ele>66.222885</ele>
        <time>2022-12-10T14:13:42.209Z</time>
      </trkpt>
      <trkpt lat="48.21547" lon="-4.02428">
        <ele>66.371128</ele>
        <time>2022-12-10T14:13:45.199Z</time>
      </trkpt>
      <trkpt lat="48.21542" lon="-4.02412">
        <ele>66.521994</ele>
        <time>2022-12-10T14:13:48.213Z</time>
      </trkpt>
      <trkpt lat="48.21537" lon="-4.02397">
        <ele>66.661502</ele>
        <time>2022-12-10T14:13:51.207Z</time>
      </trkpt>
      <trkpt lat="48.21531" lon="-4.02382">
        <ele>66.805678</ele>
        <time>2022-12-10T14:13:54.210Z</time>
      </trkpt>
      <trkpt lat="48.21526" lon="-4.02367">
        <ele>66.946325</ele>
        <time>2022-12-10T14:13:57.213Z</time>
      </trkpt>
      <trkpt lat="48.2152" lon="-4.02352">
        <ele>67.095278</ele>
        <time>2022-12-10T14:14:00.212Z</time>
      </trkpt>
      <trkpt lat="48.21514" lon="-4.02338">
        <ele>67.231182</ele>
        <time>2022-12-10T14:14:03.208Z</time>
      </trkpt>
      <trkpt lat="48.21508" lon="-4.02324">
        <ele>67.370356</ele>
        <time>2022-12-10T14:14:06.205Z</time>
      </trkpt>
      <trkpt lat="48.21501" lon="-4.02311">
        <ele>67.508296</ele>
        <time>2022-12-10T14:14:09.215Z</time>
      </trkpt>
      <trkpt lat="48.21495" lon="-4.02299">
        <ele>67.635373</ele>
        <time>2022-12-10T14:14:12.208Z</time>
      </trkpt>
      <trkpt lat="48.21489" lon="-4.02288">
        <ele>67.75026</ele>
        <time>2022-12-10T14:14:15.204Z</time>
      </trkpt>
      <trkpt lat="48.21482" lon="-4.02277">
        <ele>67.873254</ele>
        <time>2022-12-10T14:14:18.207Z</time>
      </trkpt>
      <trkpt lat="48.21475" lon="-4.02268">
        <ele>67.994037</ele>
        <time>2022-12-10T14:14:21.212Z</time>
      </trkpt>
      <trkpt lat="48.21467" lon="-4.02257">
        <ele>67.995034</ele>
        <time>2022-12-10T14:14:24.204Z</time>
      </trkpt>
      <trkpt lat="48.21458" lon="-4.02249">
        <ele>67.804328</ele>
        <time>2022-12-10T14:14:27.209Z</time>
      </trkpt>
      <trkpt lat="48.21449" lon="-4.0224">
        <ele>67.617541</ele>
        <time>2022-12-10T14:14:30.203Z</time>
      </trkpt>
      <trkpt lat="48.2144" lon="-4.02232">
        <ele>67.426787</ele>
        <time>2022-12-10T14:14:33.212Z</time>
      </trkpt>
      <trkpt lat="48.21432" lon="-4.02222">
        <ele>67.231272</ele>
        <time>2022-12-10T14:14:36.212Z</time>
      </trkpt>
      <trkpt lat="48.21422" lon="-4.02213">
        <ele>67.027608</ele>
        <time>2022-12-10T14:14:39.203Z</time>
      </trkpt>
      <trkpt lat="48.21413" lon="-4.02204">
        <ele>66.828087</ele>
        <time>2022-12-10T14:14:42.214Z</time>
      </trkpt>
      <trkpt lat="48.21403" lon="-4.02198">
        <ele>66.631524</ele>
        <time>2022-12-10T14:14:45.213Z</time>
      </trkpt>
      <trkpt lat="48.21391" lon="-4.02194">
        <ele>66.414468</ele>
        <time>2022-12-10T14:14:48.207Z</time>
      </trkpt>
      <trkpt lat="48.21381" lon="-4.02198">
        <ele>66.235456</ele>
        <time>2022-12-10T14:14:50.219Z</time>
      </trkpt>
      <trkpt lat="48.21372" lon="-4.02199">
        <ele>66.068049</ele>
        <time>2022-12-10T14:14:52.212Z</time>
      </trkpt>
      <trkpt lat="48.21363" lon="-4.02201">
        <ele>65.902869</ele>
        <time>2022-12-10T14:14:54.214Z</time>
      </trkpt>
      <trkpt lat="48.21351" lon="-4.02203">
        <ele>65.693987</ele>
        <time>2022-12-10T14:14:57.198Z</time>
      </trkpt>
      <trkpt lat="48.2134" lon="-4.02206">
        <ele>65.488145</ele>
        <time>2022-12-10T14:15:00.207Z</time>
      </trkpt>
      <trkpt lat="48.21329" lon="-4.0221">
        <ele>65.289325</ele>
        <time>2022-12-10T14:15:03.208Z</time>
      </trkpt>
      <trkpt lat="48.21318" lon="-4.02216">
        <ele>65.070126</ele>
        <time>2022-12-10T14:15:06.183Z</time>
      </trkpt>
      <trkpt lat="48.21307" lon="-4.02219">
        <ele>64.871812</ele>
        <time>2022-12-10T14:15:09.186Z</time>
      </trkpt>
      <trkpt lat="48.21296" lon="-4.02223">
        <ele>64.6292</ele>
        <time>2022-12-10T14:15:12.200Z</time>
      </trkpt>
      <trkpt lat="48.21285" lon="-4.02229">
        <ele>64.377898</ele>
        <time>2022-12-10T14:15:15.211Z</time>
      </trkpt>
      <trkpt lat="48.21276" lon="-4.02234">
        <ele>64.147804</ele>
        <time>2022-12-10T14:15:18.193Z</time>
      </trkpt>
      <trkpt lat="48.21266" lon="-4.02241">
        <ele>63.90942</ele>
        <time>2022-12-10T14:15:21.192Z</time>
      </trkpt>
      <trkpt lat="48.21256" lon="-4.02248">
        <ele>63.666573</ele>
        <time>2022-12-10T14:15:24.191Z</time>
      </trkpt>
      <trkpt lat="48.21247" lon="-4.02256">
        <ele>63.436042</ele>
        <time>2022-12-10T14:15:27.204Z</time>
      </trkpt>
      <trkpt lat="48.21237" lon="-4.02264">
        <ele>63.188137</ele>
        <time>2022-12-10T14:15:30.209Z</time>
      </trkpt>
      <trkpt lat="48.21227" lon="-4.02273">
        <ele>62.935886</ele>
        <time>2022-12-10T14:15:33.188Z</time>
      </trkpt>
      <trkpt lat="48.21217" lon="-4.02282">
        <ele>62.676618</ele>
        <time>2022-12-10T14:15:36.211Z</time>
      </trkpt>
      <trkpt lat="48.21207" lon="-4.02291">
        <ele>62.416599</ele>
        <time>2022-12-10T14:15:39.213Z</time>
      </trkpt>
      <trkpt lat="48.21198" lon="-4.023">
        <ele>62.168178</ele>
        <time>2022-12-10T14:15:42.192Z</time>
      </trkpt>
      <trkpt lat="48.21188" lon="-4.02309">
        <ele>61.917312</ele>
        <time>2022-12-10T14:15:45.214Z</time>
      </trkpt>
      <trkpt lat="48.21179" lon="-4.0232">
        <ele>61.656144</ele>
        <time>2022-12-10T14:15:48.212Z</time>
      </trkpt>
      <trkpt lat="48.21169" lon="-4.02329">
        <ele>61.403206</ele>
        <time>2022-12-10T14:15:51.191Z</time>
      </trkpt>
      <trkpt lat="48.2116" lon="-4.02338">
        <ele>61.151855</ele>
        <time>2022-12-10T14:15:54.202Z</time>
      </trkpt>
      <trkpt lat="48.21151" lon="-4.02348">
        <ele>60.908367</ele>
        <time>2022-12-10T14:15:57.216Z</time>
      </trkpt>
      <trkpt lat="48.21142" lon="-4.02358">
        <ele>61.03592</ele>
        <time>2022-12-10T14:16:00.207Z</time>
      </trkpt>
      <trkpt lat="48.21134" lon="-4.02367">
        <ele>61.251015</ele>
        <time>2022-12-10T14:16:03.211Z</time>
      </trkpt>
      <trkpt lat="48.21126" lon="-4.02376">
        <ele>61.476609</ele>
        <time>2022-12-10T14:16:06.203Z</time>
      </trkpt>
      <trkpt lat="48.21117" lon="-4.02385">
        <ele>61.705758</ele>
        <time>2022-12-10T14:16:09.210Z</time>
      </trkpt>
      <trkpt lat="48.21108" lon="-4.02394">
        <ele>61.934618</ele>
        <time>2022-12-10T14:16:12.194Z</time>
      </trkpt>
      <trkpt lat="48.21099" lon="-4.02404">
        <ele>62.170289</ele>
        <time>2022-12-10T14:16:15.197Z</time>
      </trkpt>
      <trkpt lat="48.21091" lon="-4.02414">
        <ele>62.405153</ele>
        <time>2022-12-10T14:16:18.206Z</time>
      </trkpt>
      <trkpt lat="48.21083" lon="-4.02425">
        <ele>62.62871</ele>
        <time>2022-12-10T14:16:21.204Z</time>
      </trkpt>
      <trkpt lat="48.21075" lon="-4.02434">
        <ele>62.855875</ele>
        <time>2022-12-10T14:16:24.207Z</time>
      </trkpt>
      <trkpt lat="48.21066" lon="-4.02445">
        <ele>63.096361</ele>
        <time>2022-12-10T14:16:27.211Z</time>
      </trkpt>
      <trkpt lat="48.21058" lon="-4.02456">
        <ele>63.335717</ele>
        <time>2022-12-10T14:16:30.211Z</time>
      </trkpt>
      <trkpt lat="48.21049" lon="-4.02468">
        <ele>63.579338</ele>
        <time>2022-12-10T14:16:33.213Z</time>
      </trkpt>
      <trkpt lat="48.21041" lon="-4.02479">
        <ele>63.817269</ele>
        <time>2022-12-10T14:16:36.212Z</time>
      </trkpt>
      <trkpt lat="48.21033" lon="-4.0249">
        <ele>64.052925</ele>
        <time>2022-12-10T14:16:39.204Z</time>
      </trkpt>
      <trkpt lat="48.21024" lon="-4.02501">
        <ele>64.291794</ele>
        <time>2022-12-10T14:16:42.207Z</time>
      </trkpt>
      <trkpt lat="48.21016" lon="-4.02512">
        <ele>64.529052</ele>
        <time>2022-12-10T14:16:45.200Z</time>
      </trkpt>
      <trkpt lat="48.21008" lon="-4.02522">
        <ele>64.691286</ele>
        <time>2022-12-10T14:16:48.214Z</time>
      </trkpt>
      <trkpt lat="48.21" lon="-4.02534">
        <ele>64.555976</ele>
        <time>2022-12-10T14:16:51.218Z</time>
      </trkpt>
      <trkpt lat="48.20991" lon="-4.02544">
        <ele>64.415664</ele>
        <time>2022-12-10T14:16:54.208Z</time>
      </trkpt>
      <trkpt lat="48.20982" lon="-4.02555">
        <ele>64.271523</ele>
        <time>2022-12-10T14:16:57.212Z</time>
      </trkpt>
      <trkpt lat="48.20973" lon="-4.02565">
        <ele>64.131279</ele>
        <time>2022-12-10T14:17:00.216Z</time>
      </trkpt>
      <trkpt lat="48.20965" lon="-4.02577">
        <ele>63.993395</ele>
        <time>2022-12-10T14:17:03.210Z</time>
      </trkpt>
      <trkpt lat="48.20953" lon="-4.02592">
        <ele>63.802524</ele>
        <time>2022-12-10T14:17:07.209Z</time>
      </trkpt>
      <trkpt lat="48.20944" lon="-4.02603">
        <ele>63.665962</ele>
        <time>2022-12-10T14:17:10.213Z</time>
      </trkpt>
      <trkpt lat="48.20936" lon="-4.02614">
        <ele>63.536524</ele>
        <time>2022-12-10T14:17:13.195Z</time>
      </trkpt>
      <trkpt lat="48.20927" lon="-4.02625">
        <ele>63.389923</ele>
        <time>2022-12-10T14:17:16.208Z</time>
      </trkpt>
      <trkpt lat="48.20918" lon="-4.02636">
        <ele>63.246173</ele>
        <time>2022-12-10T14:17:19.195Z</time>
      </trkpt>
      <trkpt lat="48.20909" lon="-4.02647">
        <ele>63.106462</ele>
        <time>2022-12-10T14:17:22.209Z</time>
      </trkpt>
      <trkpt lat="48.209" lon="-4.02657">
        <ele>62.964755</ele>
        <time>2022-12-10T14:17:25.199Z</time>
      </trkpt>
      <trkpt lat="48.2089" lon="-4.02668">
        <ele>62.823047</ele>
        <time>2022-12-10T14:17:28.213Z</time>
      </trkpt>
      <trkpt lat="48.20881" lon="-4.02677">
        <ele>62.685528</ele>
        <time>2022-12-10T14:17:31.214Z</time>
      </trkpt>
      <trkpt lat="48.20872" lon="-4.02687">
        <ele>62.545727</ele>
        <time>2022-12-10T14:17:34.213Z</time>
      </trkpt>
      <trkpt lat="48.20862" lon="-4.02696">
        <ele>62.567375</ele>
        <time>2022-12-10T14:17:37.209Z</time>
      </trkpt>
      <trkpt lat="48.20852" lon="-4.02704">
        <ele>62.635267</ele>
        <time>2022-12-10T14:17:41.210Z</time>
      </trkpt>
      <trkpt lat="48.20841" lon="-4.02711">
        <ele>62.703662</ele>
        <time>2022-12-10T14:17:45.207Z</time>
      </trkpt>
      <trkpt lat="48.20833" lon="-4.02715">
        <ele>62.75738</ele>
        <time>2022-12-10T14:17:48.199Z</time>
      </trkpt>
      <trkpt lat="48.20821" lon="-4.02719">
        <ele>62.830506</ele>
        <time>2022-12-10T14:17:52.211Z</time>
      </trkpt>
      <trkpt lat="48.20812" lon="-4.02723">
        <ele>62.884329</ele>
        <time>2022-12-10T14:17:55.211Z</time>
      </trkpt>
      <trkpt lat="48.208" lon="-4.02724">
        <ele>62.954869</ele>
        <time>2022-12-10T14:17:59.189Z</time>
      </trkpt>
      <trkpt lat="48.20791" lon="-4.02725">
        <ele>63.009311</ele>
        <time>2022-12-10T14:18:02.200Z</time>
      </trkpt>
      <trkpt lat="48.20781" lon="-4.02726">
        <ele>63.066768</ele>
        <time>2022-12-10T14:18:05.224Z</time>
      </trkpt>
      <trkpt lat="48.20771" lon="-4.02727">
        <ele>63.125404</ele>
        <time>2022-12-10T14:18:08.207Z</time>
      </trkpt>
      <trkpt lat="48.20761" lon="-4.02728">
        <ele>63.188281</ele>
        <time>2022-12-10T14:18:11.188Z</time>
      </trkpt>
      <trkpt lat="48.2075" lon="-4.02727">
        <ele>63.251618</ele>
        <time>2022-12-10T14:18:14.211Z</time>
      </trkpt>
      <trkpt lat="48.2074" lon="-4.02726">
        <ele>63.310823</ele>
        <time>2022-12-10T14:18:17.192Z</time>
      </trkpt>
      <trkpt lat="48.20726" lon="-4.02727">
        <ele>63.390093</ele>
        <time>2022-12-10T14:18:21.214Z</time>
      </trkpt>
      <trkpt lat="48.20716" lon="-4.02728">
        <ele>63.45164</ele>
        <time>2022-12-10T14:18:24.195Z</time>
      </trkpt>
      <trkpt lat="48.20706" lon="-4.02728">
        <ele>63.511963</ele>
        <time>2022-12-10T14:18:27.195Z</time>
      </trkpt>
      <trkpt lat="48.20697" lon="-4.02729">
        <ele>63.567184</ele>
        <time>2022-12-10T14:18:30.218Z</time>
      </trkpt>
      <trkpt lat="48.20685" lon="-4.02729">
        <ele>63.599674</ele>
        <time>2022-12-10T14:18:34.214Z</time>
      </trkpt>
      <trkpt lat="48.20676" lon="-4.02731">
        <ele>63.619827</ele>
        <time>2022-12-10T14:18:37.215Z</time>
      </trkpt>
      <trkpt lat="48.20666" lon="-4.02731">
        <ele>63.640559</ele>
        <time>2022-12-10T14:18:40.210Z</time>
      </trkpt>
      <trkpt lat="48.20656" lon="-4.02733">
        <ele>63.661964</ele>
        <time>2022-12-10T14:18:43.216Z</time>
      </trkpt>
      <trkpt lat="48.20646" lon="-4.02733">
        <ele>63.683343</ele>
        <time>2022-12-10T14:18:46.205Z</time>
      </trkpt>
      <trkpt lat="48.20633" lon="-4.02735">
        <ele>63.710102</ele>
        <time>2022-12-10T14:18:50.213Z</time>
      </trkpt>
      <trkpt lat="48.20623" lon="-4.02735">
        <ele>63.732743</ele>
        <time>2022-12-10T14:18:53.210Z</time>
      </trkpt>
      <trkpt lat="48.20612" lon="-4.02737">
        <ele>63.756097</ele>
        <time>2022-12-10T14:18:56.210Z</time>
      </trkpt>
      <trkpt lat="48.20601" lon="-4.02737">
        <ele>63.779796</ele>
        <time>2022-12-10T14:18:59.213Z</time>
      </trkpt>
      <trkpt lat="48.2059" lon="-4.02738">
        <ele>63.803086</ele>
        <time>2022-12-10T14:19:02.211Z</time>
      </trkpt>
      <trkpt lat="48.20579" lon="-4.02738">
        <ele>63.826571</ele>
        <time>2022-12-10T14:19:05.208Z</time>
      </trkpt>
      <trkpt lat="48.20568" lon="-4.02739">
        <ele>63.84968</ele>
        <time>2022-12-10T14:19:08.203Z</time>
      </trkpt>
      <trkpt lat="48.20557" lon="-4.02741">
        <ele>63.872912</ele>
        <time>2022-12-10T14:19:11.201Z</time>
      </trkpt>
      <trkpt lat="48.20546" lon="-4.02743">
        <ele>63.896944</ele>
        <time>2022-12-10T14:19:14.192Z</time>
      </trkpt>
      <trkpt lat="48.20535" lon="-4.02744">
        <ele>63.920736</ele>
        <time>2022-12-10T14:19:17.206Z</time>
      </trkpt>
      <trkpt lat="48.20524" lon="-4.02745">
        <ele>63.945155</ele>
        <time>2022-12-10T14:19:20.217Z</time>
      </trkpt>
      <trkpt lat="48.20512" lon="-4.02746">
        <ele>63.979846</ele>
        <time>2022-12-10T14:19:23.208Z</time>
      </trkpt>
      <trkpt lat="48.20502" lon="-4.02747">
        <ele>64.043281</ele>
        <time>2022-12-10T14:19:26.213Z</time>
      </trkpt>
      <trkpt lat="48.2049" lon="-4.02748">
        <ele>64.115708</ele>
        <time>2022-12-10T14:19:30.214Z</time>
      </trkpt>
      <trkpt lat="48.2048" lon="-4.02749">
        <ele>64.178479</ele>
        <time>2022-12-10T14:19:33.218Z</time>
      </trkpt>
      <trkpt lat="48.20469" lon="-4.02751">
        <ele>64.243916</ele>
        <time>2022-12-10T14:19:36.203Z</time>
      </trkpt>
      <trkpt lat="48.20458" lon="-4.02751">
        <ele>64.309034</ele>
        <time>2022-12-10T14:19:39.191Z</time>
      </trkpt>
      <trkpt lat="48.20447" lon="-4.02751">
        <ele>64.375937</ele>
        <time>2022-12-10T14:19:42.212Z</time>
      </trkpt>
      <trkpt lat="48.20436" lon="-4.02751">
        <ele>64.444056</ele>
        <time>2022-12-10T14:19:45.191Z</time>
      </trkpt>
      <trkpt lat="48.20425" lon="-4.02751">
        <ele>64.511561</ele>
        <time>2022-12-10T14:19:48.228Z</time>
      </trkpt>
      <trkpt lat="48.20414" lon="-4.02752">
        <ele>64.580988</ele>
        <time>2022-12-10T14:19:51.203Z</time>
      </trkpt>
      <trkpt lat="48.20399" lon="-4.02754">
        <ele>64.673142</ele>
        <time>2022-12-10T14:19:55.209Z</time>
      </trkpt>
      <trkpt lat="48.20387" lon="-4.02754">
        <ele>64.742483</ele>
        <time>2022-12-10T14:19:58.211Z</time>
      </trkpt>
      <trkpt lat="48.20375" lon="-4.02755">
        <ele>64.813711</ele>
        <time>2022-12-10T14:20:01.191Z</time>
      </trkpt>
      <trkpt lat="48.20364" lon="-4.02755">
        <ele>64.885516</ele>
        <time>2022-12-10T14:20:04.196Z</time>
      </trkpt>
      <trkpt lat="48.20352" lon="-4.02755">
        <ele>64.957897</ele>
        <time>2022-12-10T14:20:07.194Z</time>
      </trkpt>
      <trkpt lat="48.20341" lon="-4.02756">
        <ele>65.025524</ele>
        <time>2022-12-10T14:20:10.216Z</time>
      </trkpt>
      <trkpt lat="48.20329" lon="-4.02757">
        <ele>65.029498</ele>
        <time>2022-12-10T14:20:13.201Z</time>
      </trkpt>
      <trkpt lat="48.20313" lon="-4.02757">
        <ele>64.957436</ele>
        <time>2022-12-10T14:20:17.212Z</time>
      </trkpt>
      <trkpt lat="48.20301" lon="-4.02757">
        <ele>64.904936</ele>
        <time>2022-12-10T14:20:20.217Z</time>
      </trkpt>
      <trkpt lat="48.2029" lon="-4.02759">
        <ele>64.852522</ele>
        <time>2022-12-10T14:20:23.216Z</time>
      </trkpt>
      <trkpt lat="48.20277" lon="-4.02761">
        <ele>64.797162</ele>
        <time>2022-12-10T14:20:26.213Z</time>
      </trkpt>
      <trkpt lat="48.20265" lon="-4.02762">
        <ele>64.74318</ele>
        <time>2022-12-10T14:20:29.207Z</time>
      </trkpt>
      <trkpt lat="48.20254" lon="-4.02763">
        <ele>64.694219</ele>
        <time>2022-12-10T14:20:32.216Z</time>
      </trkpt>
      <trkpt lat="48.20244" lon="-4.02764">
        <ele>64.647882</ele>
        <time>2022-12-10T14:20:35.194Z</time>
      </trkpt>
      <trkpt lat="48.20233" lon="-4.02765">
        <ele>64.598358</ele>
        <time>2022-12-10T14:20:38.211Z</time>
      </trkpt>
      <trkpt lat="48.20222" lon="-4.02765">
        <ele>64.549428</ele>
        <time>2022-12-10T14:20:41.211Z</time>
      </trkpt>
      <trkpt lat="48.20212" lon="-4.02766">
        <ele>64.504884</ele>
        <time>2022-12-10T14:20:44.208Z</time>
      </trkpt>
      <trkpt lat="48.20201" lon="-4.02767">
        <ele>64.459324</ele>
        <time>2022-12-10T14:20:47.209Z</time>
      </trkpt>
      <trkpt lat="48.20191" lon="-4.02768">
        <ele>64.413836</ele>
        <time>2022-12-10T14:20:50.215Z</time>
      </trkpt>
      <trkpt lat="48.2018" lon="-4.0277">
        <ele>64.365592</ele>
        <time>2022-12-10T14:20:53.210Z</time>
      </trkpt>
      <trkpt lat="48.2017" lon="-4.02773">
        <ele>64.31684</ele>
        <time>2022-12-10T14:20:56.207Z</time>
      </trkpt>
      <trkpt lat="48.20159" lon="-4.02775">
        <ele>64.27008</ele>
        <time>2022-12-10T14:20:59.214Z</time>
      </trkpt>
      <trkpt lat="48.20148" lon="-4.02777">
        <ele>64.324162</ele>
        <time>2022-12-10T14:21:02.217Z</time>
      </trkpt>
      <trkpt lat="48.20137" lon="-4.02782">
        <ele>64.422615</ele>
        <time>2022-12-10T14:21:05.201Z</time>
      </trkpt>
      <trkpt lat="48.20125" lon="-4.02786">
        <ele>64.521074</ele>
        <time>2022-12-10T14:21:08.201Z</time>
      </trkpt>
      <trkpt lat="48.20114" lon="-4.02791">
        <ele>64.618577</ele>
        <time>2022-12-10T14:21:11.210Z</time>
      </trkpt>
      <trkpt lat="48.20103" lon="-4.02794">
        <ele>64.709159</ele>
        <time>2022-12-10T14:21:14.213Z</time>
      </trkpt>
      <trkpt lat="48.20089" lon="-4.02801">
        <ele>64.835122</ele>
        <time>2022-12-10T14:21:18.226Z</time>
      </trkpt>
      <trkpt lat="48.20078" lon="-4.02806">
        <ele>64.927373</ele>
        <time>2022-12-10T14:21:21.194Z</time>
      </trkpt>
      <trkpt lat="48.20068" lon="-4.0281">
        <ele>65.01596</ele>
        <time>2022-12-10T14:21:24.214Z</time>
      </trkpt>
      <trkpt lat="48.20058" lon="-4.02814">
        <ele>65.09803</ele>
        <time>2022-12-10T14:21:27.211Z</time>
      </trkpt>
      <trkpt lat="48.20048" lon="-4.02818">
        <ele>65.184616</ele>
        <time>2022-12-10T14:21:30.208Z</time>
      </trkpt>
      <trkpt lat="48.20038" lon="-4.02823">
        <ele>65.277496</ele>
        <time>2022-12-10T14:21:33.213Z</time>
      </trkpt>
      <trkpt lat="48.20028" lon="-4.02828">
        <ele>65.360114</ele>
        <time>2022-12-10T14:21:36.213Z</time>
      </trkpt>
      <trkpt lat="48.20019" lon="-4.02834">
        <ele>65.442542</ele>
        <time>2022-12-10T14:21:39.201Z</time>
      </trkpt>
      <trkpt lat="48.2001" lon="-4.02839">
        <ele>65.521359</ele>
        <time>2022-12-10T14:21:42.220Z</time>
      </trkpt>
      <trkpt lat="48.20001" lon="-4.02846">
        <ele>65.60701</ele>
        <time>2022-12-10T14:21:45.217Z</time>
      </trkpt>
      <trkpt lat="48.19993" lon="-4.02853">
        <ele>65.685459</ele>
        <time>2022-12-10T14:21:48.205Z</time>
      </trkpt>
      <trkpt lat="48.19984" lon="-4.02862">
        <ele>65.768501</ele>
        <time>2022-12-10T14:21:51.201Z</time>
      </trkpt>
      <trkpt lat="48.19974" lon="-4.0287">
        <ele>65.83652</ele>
        <time>2022-12-10T14:21:54.209Z</time>
      </trkpt>
      <trkpt lat="48.19964" lon="-4.02877">
        <ele>65.907077</ele>
        <time>2022-12-10T14:21:57.208Z</time>
      </trkpt>
      <trkpt lat="48.19953" lon="-4.02882">
        <ele>65.97399</ele>
        <time>2022-12-10T14:22:00.209Z</time>
      </trkpt>
      <trkpt lat="48.19942" lon="-4.02886">
        <ele>66.045151</ele>
        <time>2022-12-10T14:22:04.223Z</time>
      </trkpt>
      <trkpt lat="48.19926" lon="-4.0288">
        <ele>66.145344</ele>
        <time>2022-12-10T14:27:24.206Z</time>
      </trkpt>
      <trkpt lat="48.19917" lon="-4.02875">
        <ele>66.207735</ele>
        <time>2022-12-10T14:27:28.219Z</time>
      </trkpt>
      <trkpt lat="48.19906" lon="-4.02867">
        <ele>66.279554</ele>
        <time>2022-12-10T14:27:32.217Z</time>
      </trkpt>
      <trkpt lat="48.19893" lon="-4.02857">
        <ele>66.368782</ele>
        <time>2022-12-10T14:27:37.217Z</time>
      </trkpt>
      <trkpt lat="48.19883" lon="-4.02848">
        <ele>66.442341</ele>
        <time>2022-12-10T14:27:41.212Z</time>
      </trkpt>
      <trkpt lat="48.19875" lon="-4.0284">
        <ele>66.501882</ele>
        <time>2022-12-10T14:27:44.223Z</time>
      </trkpt>
      <trkpt lat="48.19866" lon="-4.02833">
        <ele>66.562373</ele>
        <time>2022-12-10T14:27:47.214Z</time>
      </trkpt>
      <trkpt lat="48.19858" lon="-4.02823">
        <ele>66.626277</ele>
        <time>2022-12-10T14:27:50.221Z</time>
      </trkpt>
      <trkpt lat="48.1985" lon="-4.02813">
        <ele>66.691692</ele>
        <time>2022-12-10T14:27:53.213Z</time>
      </trkpt>
      <trkpt lat="48.19842" lon="-4.02803">
        <ele>66.756888</ele>
        <time>2022-12-10T14:27:56.223Z</time>
      </trkpt>
      <trkpt lat="48.19833" lon="-4.02795">
        <ele>66.818922</ele>
        <time>2022-12-10T14:27:59.224Z</time>
      </trkpt>
      <trkpt lat="48.19826" lon="-4.02784">
        <ele>66.806914</ele>
        <time>2022-12-10T14:28:02.213Z</time>
      </trkpt>
      <trkpt lat="48.19818" lon="-4.02774">
        <ele>66.683172</ele>
        <time>2022-12-10T14:28:05.193Z</time>
      </trkpt>
      <trkpt lat="48.1981" lon="-4.02763">
        <ele>66.560929</ele>
        <time>2022-12-10T14:28:08.213Z</time>
      </trkpt>
      <trkpt lat="48.19802" lon="-4.02751">
        <ele>66.430677</ele>
        <time>2022-12-10T14:28:11.213Z</time>
      </trkpt>
      <trkpt lat="48.19794" lon="-4.02739">
        <ele>66.299088</ele>
        <time>2022-12-10T14:28:14.219Z</time>
      </trkpt>
      <trkpt lat="48.19786" lon="-4.02728">
        <ele>66.172672</ele>
        <time>2022-12-10T14:28:17.219Z</time>
      </trkpt>
      <trkpt lat="48.19779" lon="-4.02715">
        <ele>66.047026</ele>
        <time>2022-12-10T14:28:20.214Z</time>
      </trkpt>
      <trkpt lat="48.19772" lon="-4.02703">
        <ele>65.921234</ele>
        <time>2022-12-10T14:28:23.216Z</time>
      </trkpt>
      <trkpt lat="48.19765" lon="-4.0269">
        <ele>65.794138</ele>
        <time>2022-12-10T14:28:26.207Z</time>
      </trkpt>
      <trkpt lat="48.19758" lon="-4.02678">
        <ele>65.666698</ele>
        <time>2022-12-10T14:28:29.226Z</time>
      </trkpt>
      <trkpt lat="48.1975" lon="-4.02664">
        <ele>65.532302</ele>
        <time>2022-12-10T14:28:32.217Z</time>
      </trkpt>
      <trkpt lat="48.19743" lon="-4.02651">
        <ele>65.395703</ele>
        <time>2022-12-10T14:28:35.224Z</time>
      </trkpt>
      <trkpt lat="48.19735" lon="-4.02637">
        <ele>65.259457</ele>
        <time>2022-12-10T14:28:38.200Z</time>
      </trkpt>
      <trkpt lat="48.19728" lon="-4.02623">
        <ele>65.123711</ele>
        <time>2022-12-10T14:28:41.213Z</time>
      </trkpt>
      <trkpt lat="48.1972" lon="-4.02609">
        <ele>64.984299</ele>
        <time>2022-12-10T14:28:44.205Z</time>
      </trkpt>
      <trkpt lat="48.19713" lon="-4.02595">
        <ele>64.845599</ele>
        <time>2022-12-10T14:28:47.214Z</time>
      </trkpt>
      <trkpt lat="48.19706" lon="-4.02581">
        <ele>64.81967</ele>
        <time>2022-12-10T14:28:50.219Z</time>
      </trkpt>
      <trkpt lat="48.19699" lon="-4.02567">
        <ele>64.907426</ele>
        <time>2022-12-10T14:28:53.215Z</time>
      </trkpt>
      <trkpt lat="48.19692" lon="-4.02547">
        <ele>65.023259</ele>
        <time>2022-12-10T14:28:57.217Z</time>
      </trkpt>
      <trkpt lat="48.19688" lon="-4.02534">
        <ele>65.097319</ele>
        <time>2022-12-10T14:29:00.211Z</time>
      </trkpt>
      <trkpt lat="48.19686" lon="-4.02518">
        <ele>65.180852</ele>
        <time>2022-12-10T14:29:03.225Z</time>
      </trkpt>
      <trkpt lat="48.19683" lon="-4.02501">
        <ele>65.270724</ele>
        <time>2022-12-10T14:29:06.216Z</time>
      </trkpt>
      <trkpt lat="48.1968" lon="-4.02484">
        <ele>65.358746</ele>
        <time>2022-12-10T14:29:09.215Z</time>
      </trkpt>
      <trkpt lat="48.19678" lon="-4.02463">
        <ele>65.468708</ele>
        <time>2022-12-10T14:29:13.218Z</time>
      </trkpt>
      <trkpt lat="48.19678" lon="-4.02441">
        <ele>65.579236</ele>
        <time>2022-12-10T14:29:17.211Z</time>
      </trkpt>
      <trkpt lat="48.19677" lon="-4.02425">
        <ele>65.662036</ele>
        <time>2022-12-10T14:29:20.198Z</time>
      </trkpt>
      <trkpt lat="48.19678" lon="-4.02404">
        <ele>65.765063</ele>
        <time>2022-12-10T14:29:24.218Z</time>
      </trkpt>
      <trkpt lat="48.1968" lon="-4.02388">
        <ele>65.850851</ele>
        <time>2022-12-10T14:29:27.217Z</time>
      </trkpt>
      <trkpt lat="48.19682" lon="-4.02373">
        <ele>65.931466</ele>
        <time>2022-12-10T14:29:30.217Z</time>
      </trkpt>
      <trkpt lat="48.19686" lon="-4.02357">
        <ele>66.015314</ele>
        <time>2022-12-10T14:29:33.217Z</time>
      </trkpt>
      <trkpt lat="48.1969" lon="-4.02341">
        <ele>66.102087</ele>
        <time>2022-12-10T14:29:36.219Z</time>
      </trkpt>
      <trkpt lat="48.19695" lon="-4.02326">
        <ele>66.177168</ele>
        <time>2022-12-10T14:29:39.224Z</time>
      </trkpt>
      <trkpt lat="48.19702" lon="-4.0231">
        <ele>66.239824</ele>
        <time>2022-12-10T14:29:42.215Z</time>
      </trkpt>
      <trkpt lat="48.1971" lon="-4.02296">
        <ele>66.304484</ele>
        <time>2022-12-10T14:29:45.222Z</time>
      </trkpt>
      <trkpt lat="48.19719" lon="-4.02283">
        <ele>66.367979</ele>
        <time>2022-12-10T14:29:48.214Z</time>
      </trkpt>
      <trkpt lat="48.19731" lon="-4.02267">
        <ele>66.449817</ele>
        <time>2022-12-10T14:29:52.208Z</time>
      </trkpt>
      <trkpt lat="48.1974" lon="-4.02258">
        <ele>66.506972</ele>
        <time>2022-12-10T14:29:55.215Z</time>
      </trkpt>
      <trkpt lat="48.19752" lon="-4.02249">
        <ele>66.575717</ele>
        <time>2022-12-10T14:29:59.226Z</time>
      </trkpt>
      <trkpt lat="48.19762" lon="-4.02244">
        <ele>66.626364</ele>
        <time>2022-12-10T14:30:02.210Z</time>
      </trkpt>
      <trkpt lat="48.19774" lon="-4.02236">
        <ele>66.693889</ele>
        <time>2022-12-10T14:30:06.213Z</time>
      </trkpt>
      <trkpt lat="48.19787" lon="-4.02229">
        <ele>66.764363</ele>
        <time>2022-12-10T14:30:10.214Z</time>
      </trkpt>
      <trkpt lat="48.198" lon="-4.02222">
        <ele>66.837471</ele>
        <time>2022-12-10T14:30:14.229Z</time>
      </trkpt>
      <trkpt lat="48.1981" lon="-4.02216">
        <ele>66.891447</ele>
        <time>2022-12-10T14:30:17.215Z</time>
      </trkpt>
      <trkpt lat="48.19824" lon="-4.02209">
        <ele>66.964204</ele>
        <time>2022-12-10T14:30:21.209Z</time>
      </trkpt>
      <trkpt lat="48.19834" lon="-4.02205">
        <ele>67.020916</ele>
        <time>2022-12-10T14:30:24.220Z</time>
      </trkpt>
      <trkpt lat="48.19845" lon="-4.02201">
        <ele>67.060064</ele>
        <time>2022-12-10T14:30:27.214Z</time>
      </trkpt>
      <trkpt lat="48.19858" lon="-4.02197">
        <ele>66.926071</ele>
        <time>2022-12-10T14:30:31.215Z</time>
      </trkpt>
      <trkpt lat="48.19869" lon="-4.02194">
        <ele>66.817568</ele>
        <time>2022-12-10T14:30:34.225Z</time>
      </trkpt>
      <trkpt lat="48.19883" lon="-4.02191">
        <ele>66.684308</ele>
        <time>2022-12-10T14:30:38.226Z</time>
      </trkpt>
      <trkpt lat="48.19897" lon="-4.02187">
        <ele>66.546497</ele>
        <time>2022-12-10T14:30:42.210Z</time>
      </trkpt>
      <trkpt lat="48.19908" lon="-4.02185">
        <ele>66.441615</ele>
        <time>2022-12-10T14:30:45.205Z</time>
      </trkpt>
      <trkpt lat="48.19921" lon="-4.02182">
        <ele>66.305655</ele>
        <time>2022-12-10T14:30:49.224Z</time>
      </trkpt>
      <trkpt lat="48.19932" lon="-4.02181">
        <ele>66.201586</ele>
        <time>2022-12-10T14:30:52.216Z</time>
      </trkpt>
      <trkpt lat="48.19943" lon="-4.02179">
        <ele>66.095475</ele>
        <time>2022-12-10T14:30:55.206Z</time>
      </trkpt>
      <trkpt lat="48.19954" lon="-4.02178">
        <ele>65.987589</ele>
        <time>2022-12-10T14:30:58.225Z</time>
      </trkpt>
      <trkpt lat="48.1997" lon="-4.02175">
        <ele>65.836163</ele>
        <time>2022-12-10T14:31:02.199Z</time>
      </trkpt>
      <trkpt lat="48.19981" lon="-4.02173">
        <ele>65.725613</ele>
        <time>2022-12-10T14:31:05.208Z</time>
      </trkpt>
      <trkpt lat="48.19997" lon="-4.0217">
        <ele>65.572558</ele>
        <time>2022-12-10T14:31:09.225Z</time>
      </trkpt>
      <trkpt lat="48.20008" lon="-4.02169">
        <ele>65.466763</ele>
        <time>2022-12-10T14:31:12.218Z</time>
      </trkpt>
      <trkpt lat="48.20022" lon="-4.02168">
        <ele>65.326375</ele>
        <time>2022-12-10T14:31:16.206Z</time>
      </trkpt>
      <trkpt lat="48.20034" lon="-4.02168">
        <ele>65.316283</ele>
        <time>2022-12-10T14:31:19.213Z</time>
      </trkpt>
      <trkpt lat="48.20044" lon="-4.02168">
        <ele>65.307901</ele>
        <time>2022-12-10T14:31:22.203Z</time>
      </trkpt>
      <trkpt lat="48.20054" lon="-4.0217">
        <ele>65.298966</ele>
        <time>2022-12-10T14:31:25.215Z</time>
      </trkpt>
      <trkpt lat="48.20066" lon="-4.0217">
        <ele>65.28896</ele>
        <time>2022-12-10T14:31:28.217Z</time>
      </trkpt>
      <trkpt lat="48.20077" lon="-4.0217">
        <ele>65.279205</ele>
        <time>2022-12-10T14:31:31.213Z</time>
      </trkpt>
      <trkpt lat="48.20088" lon="-4.0217">
        <ele>65.270054</ele>
        <time>2022-12-10T14:31:34.221Z</time>
      </trkpt>
      <trkpt lat="48.201" lon="-4.02171">
        <ele>65.260216</ele>
        <time>2022-12-10T14:31:37.215Z</time>
      </trkpt>
      <trkpt lat="48.20114" lon="-4.0217">
        <ele>65.24764</ele>
        <time>2022-12-10T14:31:41.194Z</time>
      </trkpt>
      <trkpt lat="48.20125" lon="-4.0217">
        <ele>65.238315</ele>
        <time>2022-12-10T14:31:44.205Z</time>
      </trkpt>
      <trkpt lat="48.20137" lon="-4.02169">
        <ele>65.22848</ele>
        <time>2022-12-10T14:31:47.205Z</time>
      </trkpt>
      <trkpt lat="48.20148" lon="-4.02168">
        <ele>65.218454</ele>
        <time>2022-12-10T14:31:50.207Z</time>
      </trkpt>
      <trkpt lat="48.2016" lon="-4.02167">
        <ele>65.208071</ele>
        <time>2022-12-10T14:31:53.213Z</time>
      </trkpt>
      <trkpt lat="48.20172" lon="-4.02165">
        <ele>65.198369</ele>
        <time>2022-12-10T14:31:56.213Z</time>
      </trkpt>
      <trkpt lat="48.20187" lon="-4.02164">
        <ele>65.184903</ele>
        <time>2022-12-10T14:32:00.225Z</time>
      </trkpt>
      <trkpt lat="48.20199" lon="-4.02161">
        <ele>65.174981</ele>
        <time>2022-12-10T14:32:03.214Z</time>
      </trkpt>
      <trkpt lat="48.20215" lon="-4.02159">
        <ele>65.433503</ele>
        <time>2022-12-10T14:32:07.219Z</time>
      </trkpt>
      <trkpt lat="48.20227" lon="-4.02158">
        <ele>65.671736</ele>
        <time>2022-12-10T14:32:10.217Z</time>
      </trkpt>
      <trkpt lat="48.20239" lon="-4.02158">
        <ele>65.911939</ele>
        <time>2022-12-10T14:32:13.212Z</time>
      </trkpt>
      <trkpt lat="48.2025" lon="-4.02158">
        <ele>66.146247</ele>
        <time>2022-12-10T14:32:16.217Z</time>
      </trkpt>
      <trkpt lat="48.20266" lon="-4.02159">
        <ele>66.454084</ele>
        <time>2022-12-10T14:32:20.219Z</time>
      </trkpt>
      <trkpt lat="48.20277" lon="-4.02161">
        <ele>66.679667</ele>
        <time>2022-12-10T14:32:23.217Z</time>
      </trkpt>
      <trkpt lat="48.20288" lon="-4.02163">
        <ele>66.903734</ele>
        <time>2022-12-10T14:32:26.217Z</time>
      </trkpt>
      <trkpt lat="48.20298" lon="-4.02165">
        <ele>67.102218</ele>
        <time>2022-12-10T14:32:29.215Z</time>
      </trkpt>
      <trkpt lat="48.2031" lon="-4.02167">
        <ele>67.33039</ele>
        <time>2022-12-10T14:32:33.209Z</time>
      </trkpt>
      <trkpt lat="48.20319" lon="-4.02168">
        <ele>67.51333</ele>
        <time>2022-12-10T14:32:36.198Z</time>
      </trkpt>
      <trkpt lat="48.20328" lon="-4.02169">
        <ele>67.691434</ele>
        <time>2022-12-10T14:32:39.224Z</time>
      </trkpt>
      <trkpt lat="48.20338" lon="-4.02171">
        <ele>67.887275</ele>
        <time>2022-12-10T14:32:42.218Z</time>
      </trkpt>
      <trkpt lat="48.20348" lon="-4.02172">
        <ele>68.089972</ele>
        <time>2022-12-10T14:32:45.219Z</time>
      </trkpt>
      <trkpt lat="48.20358" lon="-4.02173">
        <ele>68.289477</ele>
        <time>2022-12-10T14:32:48.217Z</time>
      </trkpt>
      <trkpt lat="48.20368" lon="-4.02176">
        <ele>68.487275</ele>
        <time>2022-12-10T14:32:51.223Z</time>
      </trkpt>
      <trkpt lat="48.2038" lon="-4.02181">
        <ele>68.74146</ele>
        <time>2022-12-10T14:32:55.210Z</time>
      </trkpt>
      <trkpt lat="48.2039" lon="-4.02183">
        <ele>68.618824</ele>
        <time>2022-12-10T14:32:58.213Z</time>
      </trkpt>
      <trkpt lat="48.20399" lon="-4.02187">
        <ele>68.494355</ele>
        <time>2022-12-10T14:33:01.211Z</time>
      </trkpt>
      <trkpt lat="48.20409" lon="-4.02189">
        <ele>68.366408</ele>
        <time>2022-12-10T14:33:04.197Z</time>
      </trkpt>
      <trkpt lat="48.2042" lon="-4.02191">
        <ele>68.224803</ele>
        <time>2022-12-10T14:33:07.215Z</time>
      </trkpt>
      <trkpt lat="48.2043" lon="-4.02194">
        <ele>68.094287</ele>
        <time>2022-12-10T14:33:10.215Z</time>
      </trkpt>
      <trkpt lat="48.20444" lon="-4.02198">
        <ele>67.913278</ele>
        <time>2022-12-10T14:33:14.204Z</time>
      </trkpt>
      <trkpt lat="48.20455" lon="-4.02201">
        <ele>67.771097</ele>
        <time>2022-12-10T14:33:17.192Z</time>
      </trkpt>
      <trkpt lat="48.20464" lon="-4.02205">
        <ele>67.644954</ele>
        <time>2022-12-10T14:33:20.214Z</time>
      </trkpt>
      <trkpt lat="48.20475" lon="-4.02209">
        <ele>67.508206</ele>
        <time>2022-12-10T14:33:23.213Z</time>
      </trkpt>
      <trkpt lat="48.20489" lon="-4.02213">
        <ele>67.315111</ele>
        <time>2022-12-10T14:33:27.227Z</time>
      </trkpt>
      <trkpt lat="48.20501" lon="-4.02217">
        <ele>67.159013</ele>
        <time>2022-12-10T14:33:30.227Z</time>
      </trkpt>
      <trkpt lat="48.20513" lon="-4.02221">
        <ele>67.002168</ele>
        <time>2022-12-10T14:33:33.214Z</time>
      </trkpt>
      <trkpt lat="48.20528" lon="-4.02226">
        <ele>66.812139</ele>
        <time>2022-12-10T14:33:37.209Z</time>
      </trkpt>
      <trkpt lat="48.20538" lon="-4.0223">
        <ele>66.670452</ele>
        <time>2022-12-10T14:33:40.222Z</time>
      </trkpt>
      <trkpt lat="48.20549" lon="-4.02234">
        <ele>66.525434</ele>
        <time>2022-12-10T14:33:43.214Z</time>
      </trkpt>
      <trkpt lat="48.2056" lon="-4.02238">
        <ele>66.48887</ele>
        <time>2022-12-10T14:33:46.219Z</time>
      </trkpt>
      <trkpt lat="48.20571" lon="-4.02242">
        <ele>66.628834</ele>
        <time>2022-12-10T14:33:49.216Z</time>
      </trkpt>
      <trkpt lat="48.20585" lon="-4.02246">
        <ele>66.808468</ele>
        <time>2022-12-10T14:33:53.223Z</time>
      </trkpt>
      <trkpt lat="48.206" lon="-4.02251">
        <ele>66.998467</ele>
        <time>2022-12-10T14:33:57.202Z</time>
      </trkpt>
      <trkpt lat="48.20614" lon="-4.02253">
        <ele>67.180762</ele>
        <time>2022-12-10T14:34:01.226Z</time>
      </trkpt>
      <trkpt lat="48.20626" lon="-4.02254">
        <ele>67.331935</ele>
        <time>2022-12-10T14:34:04.224Z</time>
      </trkpt>
      <trkpt lat="48.20639" lon="-4.02253">
        <ele>67.488177</ele>
        <time>2022-12-10T14:34:07.223Z</time>
      </trkpt>
      <trkpt lat="48.2065" lon="-4.02252">
        <ele>67.635447</ele>
        <time>2022-12-10T14:34:10.201Z</time>
      </trkpt>
      <trkpt lat="48.20662" lon="-4.02252">
        <ele>67.78285</ele>
        <time>2022-12-10T14:34:13.218Z</time>
      </trkpt>
      <trkpt lat="48.20673" lon="-4.02249">
        <ele>67.921716</ele>
        <time>2022-12-10T14:34:16.210Z</time>
      </trkpt>
      <trkpt lat="48.20684" lon="-4.02244">
        <ele>68.063201</ele>
        <time>2022-12-10T14:34:19.199Z</time>
      </trkpt>
      <trkpt lat="48.20698" lon="-4.02237">
        <ele>68.257095</ele>
        <time>2022-12-10T14:34:23.216Z</time>
      </trkpt>
      <trkpt lat="48.20709" lon="-4.0223">
        <ele>68.403504</ele>
        <time>2022-12-10T14:34:26.212Z</time>
      </trkpt>
      <trkpt lat="48.2072" lon="-4.02224">
        <ele>68.550483</ele>
        <time>2022-12-10T14:34:29.214Z</time>
      </trkpt>
      <trkpt lat="48.2073" lon="-4.02217">
        <ele>68.694592</ele>
        <time>2022-12-10T14:34:32.216Z</time>
      </trkpt>
      <trkpt lat="48.20741" lon="-4.0221">
        <ele>68.639184</ele>
        <time>2022-12-10T14:34:35.192Z</time>
      </trkpt>
      <trkpt lat="48.20752" lon="-4.02203">
        <ele>68.578633</ele>
        <time>2022-12-10T14:34:38.188Z</time>
      </trkpt>
      <trkpt lat="48.20763" lon="-4.02195">
        <ele>68.51631</ele>
        <time>2022-12-10T14:34:41.215Z</time>
      </trkpt>
      <trkpt lat="48.20773" lon="-4.02188">
        <ele>68.453554</ele>
        <time>2022-12-10T14:34:44.200Z</time>
      </trkpt>
      <trkpt lat="48.20784" lon="-4.02179">
        <ele>68.391497</ele>
        <time>2022-12-10T14:34:47.223Z</time>
      </trkpt>
      <trkpt lat="48.20794" lon="-4.0217">
        <ele>68.32728</ele>
        <time>2022-12-10T14:34:50.197Z</time>
      </trkpt>
      <trkpt lat="48.20805" lon="-4.02161">
        <ele>68.263279</ele>
        <time>2022-12-10T14:34:53.214Z</time>
      </trkpt>
      <trkpt lat="48.20816" lon="-4.02151">
        <ele>68.196838</ele>
        <time>2022-12-10T14:34:56.214Z</time>
      </trkpt>
      <trkpt lat="48.20826" lon="-4.02141">
        <ele>68.133031</ele>
        <time>2022-12-10T14:34:59.225Z</time>
      </trkpt>
      <trkpt lat="48.20836" lon="-4.0213">
        <ele>68.069339</ele>
        <time>2022-12-10T14:35:02.215Z</time>
      </trkpt>
      <trkpt lat="48.20846" lon="-4.02119">
        <ele>68.00314</ele>
        <time>2022-12-10T14:35:05.216Z</time>
      </trkpt>
      <trkpt lat="48.20858" lon="-4.02105">
        <ele>67.924165</ele>
        <time>2022-12-10T14:35:09.198Z</time>
      </trkpt>
      <trkpt lat="48.20867" lon="-4.02095">
        <ele>67.865273</ele>
        <time>2022-12-10T14:35:12.205Z</time>
      </trkpt>
      <trkpt lat="48.20877" lon="-4.02084">
        <ele>67.802208</ele>
        <time>2022-12-10T14:35:15.216Z</time>
      </trkpt>
      <trkpt lat="48.20887" lon="-4.02073">
        <ele>67.762237</ele>
        <time>2022-12-10T14:35:18.221Z</time>
      </trkpt>
      <trkpt lat="48.20897" lon="-4.02061">
        <ele>67.769989</ele>
        <time>2022-12-10T14:35:21.209Z</time>
      </trkpt>
      <trkpt lat="48.20909" lon="-4.02044">
        <ele>67.780258</ele>
        <time>2022-12-10T14:35:25.223Z</time>
      </trkpt>
      <trkpt lat="48.20919" lon="-4.0203">
        <ele>67.788263</ele>
        <time>2022-12-10T14:35:28.212Z</time>
      </trkpt>
      <trkpt lat="48.20928" lon="-4.02018">
        <ele>67.795714</ele>
        <time>2022-12-10T14:35:31.214Z</time>
      </trkpt>
      <trkpt lat="48.20938" lon="-4.02008">
        <ele>67.802932</ele>
        <time>2022-12-10T14:35:34.205Z</time>
      </trkpt>
      <trkpt lat="48.20948" lon="-4.01998">
        <ele>67.810319</ele>
        <time>2022-12-10T14:35:37.202Z</time>
      </trkpt>
      <trkpt lat="48.20959" lon="-4.01989">
        <ele>67.817679</ele>
        <time>2022-12-10T14:35:40.221Z</time>
      </trkpt>
      <trkpt lat="48.2097" lon="-4.01981">
        <ele>67.825213</ele>
        <time>2022-12-10T14:35:43.216Z</time>
      </trkpt>
      <trkpt lat="48.20981" lon="-4.01973">
        <ele>67.83288</ele>
        <time>2022-12-10T14:35:46.222Z</time>
      </trkpt>
      <trkpt lat="48.20997" lon="-4.01962">
        <ele>67.843152</ele>
        <time>2022-12-10T14:35:50.214Z</time>
      </trkpt>
      <trkpt lat="48.21009" lon="-4.01955">
        <ele>67.850931</ele>
        <time>2022-12-10T14:35:53.221Z</time>
      </trkpt>
      <trkpt lat="48.2102" lon="-4.01948">
        <ele>67.858676</ele>
        <time>2022-12-10T14:35:56.205Z</time>
      </trkpt>
      <trkpt lat="48.21035" lon="-4.01937">
        <ele>67.868674</ele>
        <time>2022-12-10T14:36:00.217Z</time>
      </trkpt>
      <trkpt lat="48.21045" lon="-4.01932">
        <ele>67.974087</ele>
        <time>2022-12-10T14:36:03.221Z</time>
      </trkpt>
      <trkpt lat="48.21053" lon="-4.01925">
        <ele>68.076807</ele>
        <time>2022-12-10T14:36:06.215Z</time>
      </trkpt>
      <trkpt lat="48.21065" lon="-4.01917">
        <ele>68.21763</ele>
        <time>2022-12-10T14:36:10.199Z</time>
      </trkpt>
      <trkpt lat="48.21073" lon="-4.01907">
        <ele>68.331581</ele>
        <time>2022-12-10T14:36:13.207Z</time>
      </trkpt>
      <trkpt lat="48.21081" lon="-4.01899">
        <ele>68.440142</ele>
        <time>2022-12-10T14:36:16.202Z</time>
      </trkpt>
      <trkpt lat="48.21091" lon="-4.0189">
        <ele>68.560418</ele>
        <time>2022-12-10T14:36:19.213Z</time>
      </trkpt>
      <trkpt lat="48.21103" lon="-4.01878">
        <ele>68.722477</ele>
        <time>2022-12-10T14:36:23.215Z</time>
      </trkpt>
      <trkpt lat="48.21116" lon="-4.01865">
        <ele>68.890654</ele>
        <time>2022-12-10T14:36:27.219Z</time>
      </trkpt>
      <trkpt lat="48.21127" lon="-4.01856">
        <ele>69.020329</ele>
        <time>2022-12-10T14:36:30.223Z</time>
      </trkpt>
      <trkpt lat="48.21136" lon="-4.01846">
        <ele>69.144677</ele>
        <time>2022-12-10T14:36:33.214Z</time>
      </trkpt>
      <trkpt lat="48.21149" lon="-4.01832">
        <ele>69.318724</ele>
        <time>2022-12-10T14:36:37.239Z</time>
      </trkpt>
      <trkpt lat="48.21158" lon="-4.01822">
        <ele>69.442642</ele>
        <time>2022-12-10T14:36:40.219Z</time>
      </trkpt>
      <trkpt lat="48.21169" lon="-4.01811">
        <ele>69.583042</ele>
        <time>2022-12-10T14:36:43.216Z</time>
      </trkpt>
      <trkpt lat="48.21181" lon="-4.01796">
        <ele>69.754643</ele>
        <time>2022-12-10T14:36:47.206Z</time>
      </trkpt>
      <trkpt lat="48.21193" lon="-4.0178">
        <ele>69.717897</ele>
        <time>2022-12-10T14:36:51.244Z</time>
      </trkpt>
      <trkpt lat="48.21204" lon="-4.01765">
        <ele>69.569211</ele>
        <time>2022-12-10T14:36:55.202Z</time>
      </trkpt>
      <trkpt lat="48.2121" lon="-4.01751">
        <ele>69.455314</ele>
        <time>2022-12-10T14:36:58.227Z</time>
      </trkpt>
      <trkpt lat="48.21217" lon="-4.01737">
        <ele>69.344193</ele>
        <time>2022-12-10T14:37:01.195Z</time>
      </trkpt>
      <trkpt lat="48.21222" lon="-4.01722">
        <ele>69.233679</ele>
        <time>2022-12-10T14:37:04.206Z</time>
      </trkpt>
      <trkpt lat="48.21226" lon="-4.01701">
        <ele>69.089618</ele>
        <time>2022-12-10T14:37:08.214Z</time>
      </trkpt>
      <trkpt lat="48.21228" lon="-4.01685">
        <ele>68.977422</ele>
        <time>2022-12-10T14:37:11.223Z</time>
      </trkpt>
      <trkpt lat="48.21232" lon="-4.01662">
        <ele>68.817622</ele>
        <time>2022-12-10T14:37:15.221Z</time>
      </trkpt>
      <trkpt lat="48.21235" lon="-4.01643">
        <ele>68.692919</ele>
        <time>2022-12-10T14:37:18.209Z</time>
      </trkpt>
      <trkpt lat="48.21239" lon="-4.01621">
        <ele>68.538761</ele>
        <time>2022-12-10T14:37:22.218Z</time>
      </trkpt>
      <trkpt lat="48.21242" lon="-4.01603">
        <ele>68.413999</ele>
        <time>2022-12-10T14:37:25.224Z</time>
      </trkpt>
      <trkpt lat="48.21244" lon="-4.01584">
        <ele>68.290836</ele>
        <time>2022-12-10T14:37:28.212Z</time>
      </trkpt>
      <trkpt lat="48.21246" lon="-4.01567">
        <ele>68.175698</ele>
        <time>2022-12-10T14:37:31.238Z</time>
      </trkpt>
      <trkpt lat="48.21248" lon="-4.0155">
        <ele>68.061528</ele>
        <time>2022-12-10T14:37:34.216Z</time>
      </trkpt>
      <trkpt lat="48.2125" lon="-4.01533">
        <ele>67.88485</ele>
        <time>2022-12-10T14:37:37.192Z</time>
      </trkpt>
      <trkpt lat="48.21253" lon="-4.01512">
        <ele>67.632316</ele>
        <time>2022-12-10T14:37:41.218Z</time>
      </trkpt>
      <trkpt lat="48.21255" lon="-4.01496">
        <ele>67.433321</ele>
        <time>2022-12-10T14:37:44.212Z</time>
      </trkpt>
      <trkpt lat="48.21256" lon="-4.01479">
        <ele>67.236155</ele>
        <time>2022-12-10T14:37:47.214Z</time>
      </trkpt>
      <trkpt lat="48.21255" lon="-4.01462">
        <ele>67.026472</ele>
        <time>2022-12-10T14:37:50.217Z</time>
      </trkpt>
      <trkpt lat="48.21254" lon="-4.01443">
        <ele>66.808496</ele>
        <time>2022-12-10T14:37:53.219Z</time>
      </trkpt>
      <trkpt lat="48.21253" lon="-4.01419">
        <ele>66.518762</ele>
        <time>2022-12-10T14:37:57.196Z</time>
      </trkpt>
      <trkpt lat="48.21251" lon="-4.01395">
        <ele>66.235791</ele>
        <time>2022-12-10T14:38:01.215Z</time>
      </trkpt>
      <trkpt lat="48.2125" lon="-4.01377">
        <ele>66.013631</ele>
        <time>2022-12-10T14:38:04.215Z</time>
      </trkpt>
      <trkpt lat="48.21247" lon="-4.01359">
        <ele>65.793906</ele>
        <time>2022-12-10T14:38:07.205Z</time>
      </trkpt>
      <trkpt lat="48.21245" lon="-4.01342">
        <ele>65.588644</ele>
        <time>2022-12-10T14:38:10.219Z</time>
      </trkpt>
      <trkpt lat="48.21241" lon="-4.01325">
        <ele>65.378186</ele>
        <time>2022-12-10T14:38:13.223Z</time>
      </trkpt>
      <trkpt lat="48.21239" lon="-4.01308">
        <ele>65.166235</ele>
        <time>2022-12-10T14:38:16.215Z</time>
      </trkpt>
      <trkpt lat="48.21238" lon="-4.01289">
        <ele>64.942495</ele>
        <time>2022-12-10T14:38:19.215Z</time>
      </trkpt>
      <trkpt lat="48.21235" lon="-4.01264">
        <ele>64.733122</ele>
        <time>2022-12-10T14:38:23.203Z</time>
      </trkpt>
      <trkpt lat="48.2123" lon="-4.01244">
        <ele>64.601613</ele>
        <time>2022-12-10T14:38:27.215Z</time>
      </trkpt>
      <trkpt lat="48.21225" lon="-4.01229">
        <ele>64.503329</ele>
        <time>2022-12-10T14:38:30.225Z</time>
      </trkpt>
      <trkpt lat="48.21219" lon="-4.01215">
        <ele>64.404052</ele>
        <time>2022-12-10T14:38:33.214Z</time>
      </trkpt>
      <trkpt lat="48.21212" lon="-4.012">
        <ele>64.299421</ele>
        <time>2022-12-10T14:38:36.229Z</time>
      </trkpt>
      <trkpt lat="48.21205" lon="-4.01186">
        <ele>64.192225</ele>
        <time>2022-12-10T14:38:39.218Z</time>
      </trkpt>
      <trkpt lat="48.21196" lon="-4.01174">
        <ele>64.088829</ele>
        <time>2022-12-10T14:38:42.216Z</time>
      </trkpt>
      <trkpt lat="48.21188" lon="-4.01163">
        <ele>63.989326</ele>
        <time>2022-12-10T14:38:45.222Z</time>
      </trkpt>
      <trkpt lat="48.21175" lon="-4.0115">
        <ele>63.847</ele>
        <time>2022-12-10T14:38:49.201Z</time>
      </trkpt>
      <trkpt lat="48.21165" lon="-4.01141">
        <ele>63.745057</ele>
        <time>2022-12-10T14:38:52.217Z</time>
      </trkpt>
      <trkpt lat="48.21155" lon="-4.01131">
        <ele>63.641475</ele>
        <time>2022-12-10T14:38:55.192Z</time>
      </trkpt>
      <trkpt lat="48.21146" lon="-4.01119">
        <ele>63.532526</ele>
        <time>2022-12-10T14:38:58.202Z</time>
      </trkpt>
      <trkpt lat="48.21136" lon="-4.01109">
        <ele>63.424182</ele>
        <time>2022-12-10T14:39:01.226Z</time>
      </trkpt>
      <trkpt lat="48.21125" lon="-4.01099">
        <ele>63.316075</ele>
        <time>2022-12-10T14:39:04.202Z</time>
      </trkpt>
      <trkpt lat="48.21113" lon="-4.01086">
        <ele>63.272976</ele>
        <time>2022-12-10T14:39:08.212Z</time>
      </trkpt>
      <trkpt lat="48.21103" lon="-4.01076">
        <ele>63.417371</ele>
        <time>2022-12-10T14:39:11.220Z</time>
      </trkpt>
      <trkpt lat="48.21093" lon="-4.01067">
        <ele>63.562673</ele>
        <time>2022-12-10T14:39:14.216Z</time>
      </trkpt>
      <trkpt lat="48.21083" lon="-4.01057">
        <ele>63.709829</ele>
        <time>2022-12-10T14:39:17.228Z</time>
      </trkpt>
      <trkpt lat="48.2107" lon="-4.01043">
        <ele>63.905598</ele>
        <time>2022-12-10T14:39:21.229Z</time>
      </trkpt>
      <trkpt lat="48.21057" lon="-4.0103">
        <ele>64.101771</ele>
        <time>2022-12-10T14:39:25.208Z</time>
      </trkpt>
      <trkpt lat="48.21047" lon="-4.0102">
        <ele>64.253507</ele>
        <time>2022-12-10T14:39:28.214Z</time>
      </trkpt>
      <trkpt lat="48.21037" lon="-4.01009">
        <ele>64.405244</ele>
        <time>2022-12-10T14:39:31.226Z</time>
      </trkpt>
      <trkpt lat="48.21024" lon="-4.00996">
        <ele>64.604613</ele>
        <time>2022-12-10T14:39:35.207Z</time>
      </trkpt>
      <trkpt lat="48.21015" lon="-4.00987">
        <ele>64.734418</ele>
        <time>2022-12-10T14:39:38.221Z</time>
      </trkpt>
      <trkpt lat="48.21006" lon="-4.00979">
        <ele>64.863361</ele>
        <time>2022-12-10T14:39:41.200Z</time>
      </trkpt>
      <trkpt lat="48.20997" lon="-4.00971">
        <ele>64.996564</ele>
        <time>2022-12-10T14:39:44.214Z</time>
      </trkpt>
      <trkpt lat="48.20988" lon="-4.00961">
        <ele>65.125876</ele>
        <time>2022-12-10T14:39:47.214Z</time>
      </trkpt>
      <trkpt lat="48.20979" lon="-4.00952">
        <ele>65.269815</ele>
        <time>2022-12-10T14:39:50.213Z</time>
      </trkpt>
      <trkpt lat="48.20969" lon="-4.00943">
        <ele>65.412143</ele>
        <time>2022-12-10T14:39:53.216Z</time>
      </trkpt>
      <trkpt lat="48.20959" lon="-4.00933">
        <ele>65.45516</ele>
        <time>2022-12-10T14:39:56.218Z</time>
      </trkpt>
      <trkpt lat="48.2095" lon="-4.00923">
        <ele>65.466899</ele>
        <time>2022-12-10T14:39:59.214Z</time>
      </trkpt>
      <trkpt lat="48.20941" lon="-4.00914">
        <ele>65.478724</ele>
        <time>2022-12-10T14:40:02.212Z</time>
      </trkpt>
      <trkpt lat="48.20932" lon="-4.00904">
        <ele>65.490725</ele>
        <time>2022-12-10T14:40:05.226Z</time>
      </trkpt>
      <trkpt lat="48.20923" lon="-4.00895">
        <ele>65.502656</ele>
        <time>2022-12-10T14:40:08.220Z</time>
      </trkpt>
      <trkpt lat="48.20913" lon="-4.00885">
        <ele>65.514815</ele>
        <time>2022-12-10T14:40:11.225Z</time>
      </trkpt>
      <trkpt lat="48.20905" lon="-4.00877">
        <ele>65.525345</ele>
        <time>2022-12-10T14:40:14.216Z</time>
      </trkpt>
      <trkpt lat="48.20896" lon="-4.0087">
        <ele>65.535576</ele>
        <time>2022-12-10T14:40:17.215Z</time>
      </trkpt>
      <trkpt lat="48.20887" lon="-4.00862">
        <ele>65.546416</ele>
        <time>2022-12-10T14:40:20.227Z</time>
      </trkpt>
      <trkpt lat="48.20878" lon="-4.00855">
        <ele>65.557858</ele>
        <time>2022-12-10T14:40:23.208Z</time>
      </trkpt>
      <trkpt lat="48.20868" lon="-4.00848">
        <ele>65.569294</ele>
        <time>2022-12-10T14:40:26.213Z</time>
      </trkpt>
      <trkpt lat="48.20858" lon="-4.0084">
        <ele>65.580862</ele>
        <time>2022-12-10T14:40:29.216Z</time>
      </trkpt>
      <trkpt lat="48.20848" lon="-4.00834">
        <ele>65.59247</ele>
        <time>2022-12-10T14:40:32.216Z</time>
      </trkpt>
      <trkpt lat="48.20838" lon="-4.0083">
        <ele>65.603736</ele>
        <time>2022-12-10T14:40:35.213Z</time>
      </trkpt>
      <trkpt lat="48.20827" lon="-4.00827">
        <ele>65.615505</ele>
        <time>2022-12-10T14:40:38.214Z</time>
      </trkpt>
      <trkpt lat="48.20812" lon="-4.00823">
        <ele>65.631741</ele>
        <time>2022-12-10T14:40:42.216Z</time>
      </trkpt>
      <trkpt lat="48.20801" lon="-4.0082">
        <ele>65.652655</ele>
        <time>2022-12-10T14:40:45.218Z</time>
      </trkpt>
      <trkpt lat="48.20789" lon="-4.00819">
        <ele>65.679648</ele>
        <time>2022-12-10T14:40:48.225Z</time>
      </trkpt>
      <trkpt lat="48.20776" lon="-4.0082">
        <ele>65.710864</ele>
        <time>2022-12-10T14:40:52.227Z</time>
      </trkpt>
      <trkpt lat="48.20765" lon="-4.00821">
        <ele>65.736</ele>
        <time>2022-12-10T14:40:55.217Z</time>
      </trkpt>
      <trkpt lat="48.20755" lon="-4.00823">
        <ele>65.761107</ele>
        <time>2022-12-10T14:40:58.219Z</time>
      </trkpt>
      <trkpt lat="48.20744" lon="-4.00826">
        <ele>65.786706</ele>
        <time>2022-12-10T14:41:01.214Z</time>
      </trkpt>
      <trkpt lat="48.20733" lon="-4.0083">
        <ele>65.812123</ele>
        <time>2022-12-10T14:41:04.221Z</time>
      </trkpt>
      <trkpt lat="48.20723" lon="-4.00835">
        <ele>65.837746</ele>
        <time>2022-12-10T14:41:07.218Z</time>
      </trkpt>
      <trkpt lat="48.20713" lon="-4.0084">
        <ele>65.862781</ele>
        <time>2022-12-10T14:41:10.227Z</time>
      </trkpt>
      <trkpt lat="48.20699" lon="-4.00847">
        <ele>65.897482</ele>
        <time>2022-12-10T14:41:14.231Z</time>
      </trkpt>
      <trkpt lat="48.20688" lon="-4.00853">
        <ele>65.923625</ele>
        <time>2022-12-10T14:41:17.231Z</time>
      </trkpt>
      <trkpt lat="48.20679" lon="-4.00861">
        <ele>65.949902</ele>
        <time>2022-12-10T14:41:20.221Z</time>
      </trkpt>
      <trkpt lat="48.20669" lon="-4.0087">
        <ele>65.976097</ele>
        <time>2022-12-10T14:41:23.205Z</time>
      </trkpt>
      <trkpt lat="48.2066" lon="-4.00879">
        <ele>66.002048</ele>
        <time>2022-12-10T14:41:26.224Z</time>
      </trkpt>
      <trkpt lat="48.20651" lon="-4.00889">
        <ele>66.028442</ele>
        <time>2022-12-10T14:41:29.214Z</time>
      </trkpt>
      <trkpt lat="48.20643" lon="-4.00901">
        <ele>66.055889</ele>
        <time>2022-12-10T14:41:32.222Z</time>
      </trkpt>
      <trkpt lat="48.20634" lon="-4.00913">
        <ele>66.102767</ele>
        <time>2022-12-10T14:41:35.220Z</time>
      </trkpt>
      <trkpt lat="48.20625" lon="-4.00926">
        <ele>66.15212</ele>
        <time>2022-12-10T14:41:38.216Z</time>
      </trkpt>
      <trkpt lat="48.20614" lon="-4.00943">
        <ele>66.219687</ele>
        <time>2022-12-10T14:41:42.210Z</time>
      </trkpt>
      <trkpt lat="48.20605" lon="-4.00957">
        <ele>66.270038</ele>
        <time>2022-12-10T14:41:45.215Z</time>
      </trkpt>
      <trkpt lat="48.20597" lon="-4.0097">
        <ele>66.320752</ele>
        <time>2022-12-10T14:41:48.216Z</time>
      </trkpt>
      <trkpt lat="48.20589" lon="-4.00982">
        <ele>66.368252</ele>
        <time>2022-12-10T14:41:51.217Z</time>
      </trkpt>
      <trkpt lat="48.20581" lon="-4.00994">
        <ele>66.413425</ele>
        <time>2022-12-10T14:41:54.225Z</time>
      </trkpt>
      <trkpt lat="48.20573" lon="-4.01005">
        <ele>66.4587</ele>
        <time>2022-12-10T14:41:57.214Z</time>
      </trkpt>
      <trkpt lat="48.20566" lon="-4.01017">
        <ele>66.502761</ele>
        <time>2022-12-10T14:42:00.205Z</time>
      </trkpt>
      <trkpt lat="48.20558" lon="-4.01028">
        <ele>66.54563</ele>
        <time>2022-12-10T14:42:03.232Z</time>
      </trkpt>
      <trkpt lat="48.20551" lon="-4.01038">
        <ele>66.584603</ele>
        <time>2022-12-10T14:42:06.218Z</time>
      </trkpt>
      <trkpt lat="48.20544" lon="-4.01049">
        <ele>66.628634</ele>
        <time>2022-12-10T14:42:09.216Z</time>
      </trkpt>
      <trkpt lat="48.20532" lon="-4.01064">
        <ele>66.69169</ele>
        <time>2022-12-10T14:42:13.213Z</time>
      </trkpt>
      <trkpt lat="48.20523" lon="-4.01075">
        <ele>66.737551</ele>
        <time>2022-12-10T14:42:16.198Z</time>
      </trkpt>
      <trkpt lat="48.20514" lon="-4.01085">
        <ele>66.783785</ele>
        <time>2022-12-10T14:42:19.227Z</time>
      </trkpt>
      <trkpt lat="48.20506" lon="-4.01094">
        <ele>66.851103</ele>
        <time>2022-12-10T14:42:22.211Z</time>
      </trkpt>
      <trkpt lat="48.20496" lon="-4.01106">
        <ele>66.957908</ele>
        <time>2022-12-10T14:42:26.204Z</time>
      </trkpt>
      <trkpt lat="48.20489" lon="-4.01116">
        <ele>67.036892</ele>
        <time>2022-12-10T14:42:29.206Z</time>
      </trkpt>
      <trkpt lat="48.20483" lon="-4.01125">
        <ele>67.112163</ele>
        <time>2022-12-10T14:42:32.214Z</time>
      </trkpt>
      <trkpt lat="48.20475" lon="-4.01135">
        <ele>67.195778</ele>
        <time>2022-12-10T14:42:35.218Z</time>
      </trkpt>
      <trkpt lat="48.20466" lon="-4.01145">
        <ele>67.28382</ele>
        <time>2022-12-10T14:42:38.215Z</time>
      </trkpt>
      <trkpt lat="48.20459" lon="-4.01155">
        <ele>67.367289</ele>
        <time>2022-12-10T14:42:41.194Z</time>
      </trkpt>
      <trkpt lat="48.20452" lon="-4.01164">
        <ele>67.44418</ele>
        <time>2022-12-10T14:42:44.216Z</time>
      </trkpt>
      <trkpt lat="48.20443" lon="-4.01174">
        <ele>67.531532</ele>
        <time>2022-12-10T14:42:48.228Z</time>
      </trkpt>
      <trkpt lat="48.20434" lon="-4.01184">
        <ele>67.627177</ele>
        <time>2022-12-10T14:42:52.217Z</time>
      </trkpt>
      <trkpt lat="48.20426" lon="-4.01193">
        <ele>67.703383</ele>
        <time>2022-12-10T14:42:55.209Z</time>
      </trkpt>
      <trkpt lat="48.20419" lon="-4.01202">
        <ele>67.782578</ele>
        <time>2022-12-10T14:42:58.220Z</time>
      </trkpt>
      <trkpt lat="48.20412" lon="-4.01211">
        <ele>67.85971</ele>
        <time>2022-12-10T14:43:01.221Z</time>
      </trkpt>
      <trkpt lat="48.20402" lon="-4.01224">
        <ele>67.965412</ele>
        <time>2022-12-10T14:43:05.214Z</time>
      </trkpt>
      <trkpt lat="48.20395" lon="-4.01233">
        <ele>68.045376</ele>
        <time>2022-12-10T14:43:08.217Z</time>
      </trkpt>
      <trkpt lat="48.20387" lon="-4.01243">
        <ele>68.12544</ele>
        <time>2022-12-10T14:43:11.214Z</time>
      </trkpt>
      <trkpt lat="48.2038" lon="-4.01252">
        <ele>68.205404</ele>
        <time>2022-12-10T14:43:14.223Z</time>
      </trkpt>
      <trkpt lat="48.20373" lon="-4.01262">
        <ele>68.265055</ele>
        <time>2022-12-10T14:43:17.215Z</time>
      </trkpt>
      <trkpt lat="48.20364" lon="-4.01272">
        <ele>68.185924</ele>
        <time>2022-12-10T14:43:20.221Z</time>
      </trkpt>
      <trkpt lat="48.20355" lon="-4.01281">
        <ele>68.10822</ele>
        <time>2022-12-10T14:43:23.214Z</time>
      </trkpt>
      <trkpt lat="48.20343" lon="-4.01294">
        <ele>68.000857</ele>
        <time>2022-12-10T14:43:27.222Z</time>
      </trkpt>
      <trkpt lat="48.20333" lon="-4.01303">
        <ele>67.918011</ele>
        <time>2022-12-10T14:43:30.214Z</time>
      </trkpt>
      <trkpt lat="48.20323" lon="-4.01312">
        <ele>67.832329</ele>
        <time>2022-12-10T14:43:33.223Z</time>
      </trkpt>
      <trkpt lat="48.20312" lon="-4.0132">
        <ele>67.744945</ele>
        <time>2022-12-10T14:43:36.228Z</time>
      </trkpt>
      <trkpt lat="48.20302" lon="-4.01328">
        <ele>67.658866</ele>
        <time>2022-12-10T14:43:39.225Z</time>
      </trkpt>
      <trkpt lat="48.20291" lon="-4.01335">
        <ele>67.569266</ele>
        <time>2022-12-10T14:43:42.227Z</time>
      </trkpt>
      <trkpt lat="48.20279" lon="-4.01344">
        <ele>67.477733</ele>
        <time>2022-12-10T14:43:45.203Z</time>
      </trkpt>
      <trkpt lat="48.20268" lon="-4.01351">
        <ele>67.387292</ele>
        <time>2022-12-10T14:43:48.225Z</time>
      </trkpt>
      <trkpt lat="48.20258" lon="-4.01359">
        <ele>67.30661</ele>
        <time>2022-12-10T14:43:51.226Z</time>
      </trkpt>
      <trkpt lat="48.20248" lon="-4.01366">
        <ele>67.222956</ele>
        <time>2022-12-10T14:43:54.224Z</time>
      </trkpt>
      <trkpt lat="48.20237" lon="-4.01374">
        <ele>67.136441</ele>
        <time>2022-12-10T14:43:57.229Z</time>
      </trkpt>
      <trkpt lat="48.20226" lon="-4.01383">
        <ele>67.048568</ele>
        <time>2022-12-10T14:44:00.214Z</time>
      </trkpt>
      <trkpt lat="48.20212" lon="-4.01394">
        <ele>66.982045</ele>
        <time>2022-12-10T14:44:04.214Z</time>
      </trkpt>
      <trkpt lat="48.20202" lon="-4.01401">
        <ele>67.021768</ele>
        <time>2022-12-10T14:44:07.215Z</time>
      </trkpt>
      <trkpt lat="48.20191" lon="-4.0141">
        <ele>67.061387</ele>
        <time>2022-12-10T14:44:10.217Z</time>
      </trkpt>
      <trkpt lat="48.20181" lon="-4.01417">
        <ele>67.098641</ele>
        <time>2022-12-10T14:44:13.213Z</time>
      </trkpt>
      <trkpt lat="48.20172" lon="-4.01424">
        <ele>67.131585</ele>
        <time>2022-12-10T14:44:16.221Z</time>
      </trkpt>
      <trkpt lat="48.20163" lon="-4.0143">
        <ele>67.163229</ele>
        <time>2022-12-10T14:44:19.214Z</time>
      </trkpt>
      <trkpt lat="48.20154" lon="-4.01437">
        <ele>67.197814</ele>
        <time>2022-12-10T14:44:22.222Z</time>
      </trkpt>
      <trkpt lat="48.20144" lon="-4.01445">
        <ele>67.234961</ele>
        <time>2022-12-10T14:44:25.215Z</time>
      </trkpt>
      <trkpt lat="48.2013" lon="-4.01455">
        <ele>67.285813</ele>
        <time>2022-12-10T14:44:29.235Z</time>
      </trkpt>
      <trkpt lat="48.2012" lon="-4.01462">
        <ele>67.323219</ele>
        <time>2022-12-10T14:44:32.231Z</time>
      </trkpt>
      <trkpt lat="48.20108" lon="-4.01467">
        <ele>67.362413</ele>
        <time>2022-12-10T14:44:35.227Z</time>
      </trkpt>
      <trkpt lat="48.20098" lon="-4.01472">
        <ele>67.399516</ele>
        <time>2022-12-10T14:44:38.217Z</time>
      </trkpt>
      <trkpt lat="48.20089" lon="-4.01475">
        <ele>67.429494</ele>
        <time>2022-12-10T14:44:41.226Z</time>
      </trkpt>
      <trkpt lat="48.20074" lon="-4.0148">
        <ele>67.478342</ele>
        <time>2022-12-10T14:44:46.211Z</time>
      </trkpt>
      <trkpt lat="48.20064" lon="-4.01481">
        <ele>67.511809</ele>
        <time>2022-12-10T14:44:49.225Z</time>
      </trkpt>
      <trkpt lat="48.20054" lon="-4.01481">
        <ele>67.545201</ele>
        <time>2022-12-10T14:44:52.218Z</time>
      </trkpt>
      <trkpt lat="48.2004" lon="-4.01481">
        <ele>67.52255</ele>
        <time>2022-12-10T14:44:56.224Z</time>
      </trkpt>
      <trkpt lat="48.2003" lon="-4.0148">
        <ele>67.479685</ele>
        <time>2022-12-10T14:44:59.218Z</time>
      </trkpt>
      <trkpt lat="48.2002" lon="-4.01479">
        <ele>67.438097</ele>
        <time>2022-12-10T14:45:02.216Z</time>
      </trkpt>
      <trkpt lat="48.2001" lon="-4.01476">
        <ele>67.394631</ele>
        <time>2022-12-10T14:45:05.212Z</time>
      </trkpt>
      <trkpt lat="48.20001" lon="-4.01473">
        <ele>67.351171</ele>
        <time>2022-12-10T14:45:08.222Z</time>
      </trkpt>
      <trkpt lat="48.19991" lon="-4.0147">
        <ele>67.308125</ele>
        <time>2022-12-10T14:45:11.222Z</time>
      </trkpt>
      <trkpt lat="48.19981" lon="-4.01467">
        <ele>67.266643</ele>
        <time>2022-12-10T14:45:14.216Z</time>
      </trkpt>
      <trkpt lat="48.1997" lon="-4.01465">
        <ele>67.22057</ele>
        <time>2022-12-10T14:45:17.229Z</time>
      </trkpt>
      <trkpt lat="48.19957" lon="-4.0146">
        <ele>67.161915</ele>
        <time>2022-12-10T14:45:21.214Z</time>
      </trkpt>
      <trkpt lat="48.19947" lon="-4.01457">
        <ele>67.117707</ele>
        <time>2022-12-10T14:45:24.218Z</time>
      </trkpt>
      <trkpt lat="48.19933" lon="-4.01453">
        <ele>67.056339</ele>
        <time>2022-12-10T14:45:28.221Z</time>
      </trkpt>
      <trkpt lat="48.19921" lon="-4.0145">
        <ele>67.003369</ele>
        <time>2022-12-10T14:45:31.225Z</time>
      </trkpt>
      <trkpt lat="48.19904" lon="-4.01445">
        <ele>66.929508</ele>
        <time>2022-12-10T14:45:35.224Z</time>
      </trkpt>
      <trkpt lat="48.19892" lon="-4.0144">
        <ele>66.878015</ele>
        <time>2022-12-10T14:45:38.222Z</time>
      </trkpt>
      <trkpt lat="48.1988" lon="-4.01436">
        <ele>66.82613</ele>
        <time>2022-12-10T14:45:41.219Z</time>
      </trkpt>
      <trkpt lat="48.1987" lon="-4.01432">
        <ele>66.79728</ele>
        <time>2022-12-10T14:45:44.231Z</time>
      </trkpt>
      <trkpt lat="48.19861" lon="-4.01427">
        <ele>66.810096</ele>
        <time>2022-12-10T14:45:47.215Z</time>
      </trkpt>
      <trkpt lat="48.19851" lon="-4.01422">
        <ele>66.823817</ele>
        <time>2022-12-10T14:45:50.221Z</time>
      </trkpt>
      <trkpt lat="48.19841" lon="-4.01416">
        <ele>66.838267</ele>
        <time>2022-12-10T14:45:53.232Z</time>
      </trkpt>
      <trkpt lat="48.19831" lon="-4.0141">
        <ele>66.853274</ele>
        <time>2022-12-10T14:45:56.213Z</time>
      </trkpt>
      <trkpt lat="48.19821" lon="-4.01403">
        <ele>66.868417</ele>
        <time>2022-12-10T14:45:59.217Z</time>
      </trkpt>
      <trkpt lat="48.19812" lon="-4.01396">
        <ele>66.88319</ele>
        <time>2022-12-10T14:46:02.223Z</time>
      </trkpt>
      <trkpt lat="48.19802" lon="-4.01389">
        <ele>66.897435</ele>
        <time>2022-12-10T14:46:05.228Z</time>
      </trkpt>
      <trkpt lat="48.19793" lon="-4.01381">
        <ele>66.912318</ele>
        <time>2022-12-10T14:46:08.213Z</time>
      </trkpt>
      <trkpt lat="48.19784" lon="-4.01371">
        <ele>66.927617</ele>
        <time>2022-12-10T14:46:11.223Z</time>
      </trkpt>
      <trkpt lat="48.19772" lon="-4.01356">
        <ele>66.948845</ele>
        <time>2022-12-10T14:46:15.219Z</time>
      </trkpt>
      <trkpt lat="48.19763" lon="-4.01344">
        <ele>66.965104</ele>
        <time>2022-12-10T14:46:18.224Z</time>
      </trkpt>
      <trkpt lat="48.19756" lon="-4.01329">
        <ele>66.981885</ele>
        <time>2022-12-10T14:46:21.226Z</time>
      </trkpt>
      <trkpt lat="48.1975" lon="-4.01313">
        <ele>66.998605</ele>
        <time>2022-12-10T14:46:24.220Z</time>
      </trkpt>
      <trkpt lat="48.19744" lon="-4.01292">
        <ele>67.019199</ele>
        <time>2022-12-10T14:46:28.224Z</time>
      </trkpt>
      <trkpt lat="48.1974" lon="-4.01275">
        <ele>67.036169</ele>
        <time>2022-12-10T14:46:31.218Z</time>
      </trkpt>
      <trkpt lat="48.19736" lon="-4.01249">
        <ele>67.128646</ele>
        <time>2022-12-10T14:46:35.194Z</time>
      </trkpt>
      <trkpt lat="48.19735" lon="-4.0123">
        <ele>67.199785</ele>
        <time>2022-12-10T14:46:38.222Z</time>
      </trkpt>
      <trkpt lat="48.19735" lon="-4.01213">
        <ele>67.263658</ele>
        <time>2022-12-10T14:46:41.199Z</time>
      </trkpt>
      <trkpt lat="48.19735" lon="-4.01196">
        <ele>67.329085</ele>
        <time>2022-12-10T14:46:44.217Z</time>
      </trkpt>
      <trkpt lat="48.19735" lon="-4.01178">
        <ele>67.397478</ele>
        <time>2022-12-10T14:46:47.197Z</time>
      </trkpt>
      <trkpt lat="48.19735" lon="-4.01161">
        <ele>67.465498</ele>
        <time>2022-12-10T14:46:50.228Z</time>
      </trkpt>
      <trkpt lat="48.19736" lon="-4.01143">
        <ele>67.534131</ele>
        <time>2022-12-10T14:46:53.226Z</time>
      </trkpt>
      <trkpt lat="48.19737" lon="-4.01125">
        <ele>67.600772</ele>
        <time>2022-12-10T14:46:56.231Z</time>
      </trkpt>
      <trkpt lat="48.19737" lon="-4.01108">
        <ele>67.666882</ele>
        <time>2022-12-10T14:46:59.223Z</time>
      </trkpt>
      <trkpt lat="48.1974" lon="-4.01093">
        <ele>67.725692</ele>
        <time>2022-12-10T14:47:02.224Z</time>
      </trkpt>
      <trkpt lat="48.1974" lon="-4.01078">
        <ele>67.783412</ele>
        <time>2022-12-10T14:47:05.218Z</time>
      </trkpt>
      <trkpt lat="48.19741" lon="-4.01057">
        <ele>67.86443</ele>
        <time>2022-12-10T14:47:09.227Z</time>
      </trkpt>
      <trkpt lat="48.19741" lon="-4.01039">
        <ele>67.932062</ele>
        <time>2022-12-10T14:47:12.230Z</time>
      </trkpt>
      <trkpt lat="48.19744" lon="-4.01016">
        <ele>68.022058</ele>
        <time>2022-12-10T14:47:16.194Z</time>
      </trkpt>
      <trkpt lat="48.19748" lon="-4.00999">
        <ele>68.062748</ele>
        <time>2022-12-10T14:47:19.203Z</time>
      </trkpt>
      <trkpt lat="48.19754" lon="-4.00982">
        <ele>68.035757</ele>
        <time>2022-12-10T14:47:22.222Z</time>
      </trkpt>
      <trkpt lat="48.19761" lon="-4.00968">
        <ele>68.012051</ele>
        <time>2022-12-10T14:47:25.207Z</time>
      </trkpt>
      <trkpt lat="48.19765" lon="-4.00955">
        <ele>67.990693</ele>
        <time>2022-12-10T14:47:28.229Z</time>
      </trkpt>
      <trkpt lat="48.1977" lon="-4.00941">
        <ele>67.968502</ele>
        <time>2022-12-10T14:47:31.228Z</time>
      </trkpt>
      <trkpt lat="48.19776" lon="-4.00925">
        <ele>67.944046</ele>
        <time>2022-12-10T14:47:34.227Z</time>
      </trkpt>
      <trkpt lat="48.19783" lon="-4.0091">
        <ele>67.91907</ele>
        <time>2022-12-10T14:47:37.222Z</time>
      </trkpt>
      <trkpt lat="48.19789" lon="-4.00894">
        <ele>67.893925</ele>
        <time>2022-12-10T14:47:40.217Z</time>
      </trkpt>
      <trkpt lat="48.19797" lon="-4.00877">
        <ele>67.864211</ele>
        <time>2022-12-10T14:47:44.218Z</time>
      </trkpt>
      <trkpt lat="48.19802" lon="-4.00865">
        <ele>67.844776</ele>
        <time>2022-12-10T14:47:47.220Z</time>
      </trkpt>
      <trkpt lat="48.19807" lon="-4.00851">
        <ele>67.821864</ele>
        <time>2022-12-10T14:47:50.219Z</time>
      </trkpt>
      <trkpt lat="48.19814" lon="-4.00837">
        <ele>67.798366</ele>
        <time>2022-12-10T14:47:53.223Z</time>
      </trkpt>
      <trkpt lat="48.1982" lon="-4.00822">
        <ele>67.77407</ele>
        <time>2022-12-10T14:47:56.225Z</time>
      </trkpt>
      <trkpt lat="48.19826" lon="-4.00808">
        <ele>67.751265</ele>
        <time>2022-12-10T14:47:59.226Z</time>
      </trkpt>
      <trkpt lat="48.19833" lon="-4.00794">
        <ele>67.726111</ele>
        <time>2022-12-10T14:48:02.216Z</time>
      </trkpt>
      <trkpt lat="48.19839" lon="-4.00779">
        <ele>67.701595</ele>
        <time>2022-12-10T14:48:05.213Z</time>
      </trkpt>
      <trkpt lat="48.19845" lon="-4.00766">
        <ele>67.790523</ele>
        <time>2022-12-10T14:48:08.229Z</time>
      </trkpt>
      <trkpt lat="48.1985" lon="-4.00749">
        <ele>67.958817</ele>
        <time>2022-12-10T14:48:11.227Z</time>
      </trkpt>
      <trkpt lat="48.19854" lon="-4.00734">
        <ele>68.111237</ele>
        <time>2022-12-10T14:48:14.218Z</time>
      </trkpt>
      <trkpt lat="48.19856" lon="-4.00721">
        <ele>68.235375</ele>
        <time>2022-12-10T14:48:16.218Z</time>
      </trkpt>
      <trkpt lat="48.1986" lon="-4.00708">
        <ele>68.364942</ele>
        <time>2022-12-10T14:48:18.219Z</time>
      </trkpt>
      <trkpt lat="48.19864" lon="-4.00691">
        <ele>68.525916</ele>
        <time>2022-12-10T14:48:21.231Z</time>
      </trkpt>
      <trkpt lat="48.19867" lon="-4.00674">
        <ele>68.686248</ele>
        <time>2022-12-10T14:48:24.213Z</time>
      </trkpt>
      <trkpt lat="48.19871" lon="-4.00651">
        <ele>68.907392</ele>
        <time>2022-12-10T14:48:28.227Z</time>
      </trkpt>
      <trkpt lat="48.19873" lon="-4.00633">
        <ele>69.073408</ele>
        <time>2022-12-10T14:48:31.228Z</time>
      </trkpt>
      <trkpt lat="48.19876" lon="-4.00614">
        <ele>69.249035</ele>
        <time>2022-12-10T14:48:34.224Z</time>
      </trkpt>
      <trkpt lat="48.19877" lon="-4.00596">
        <ele>69.421156</ele>
        <time>2022-12-10T14:48:37.221Z</time>
      </trkpt>
      <trkpt lat="48.19881" lon="-4.00577">
        <ele>69.598638</ele>
        <time>2022-12-10T14:48:40.221Z</time>
      </trkpt>
      <trkpt lat="48.19884" lon="-4.00558">
        <ele>69.779605</ele>
        <time>2022-12-10T14:48:43.218Z</time>
      </trkpt>
      <trkpt lat="48.19888" lon="-4.00537">
        <ele>69.97623</ele>
        <time>2022-12-10T14:48:47.210Z</time>
      </trkpt>
      <trkpt lat="48.19891" lon="-4.00522">
        <ele>70.121542</ele>
        <time>2022-12-10T14:48:50.226Z</time>
      </trkpt>
      <trkpt lat="48.19894" lon="-4.00503">
        <ele>70.084276</ele>
        <time>2022-12-10T14:48:53.228Z</time>
      </trkpt>
      <trkpt lat="48.19896" lon="-4.00486">
        <ele>69.989813</ele>
        <time>2022-12-10T14:48:56.229Z</time>
      </trkpt>
      <trkpt lat="48.19899" lon="-4.0047">
        <ele>69.893871</ele>
        <time>2022-12-10T14:48:59.227Z</time>
      </trkpt>
      <trkpt lat="48.19901" lon="-4.00451">
        <ele>69.788862</ele>
        <time>2022-12-10T14:49:02.223Z</time>
      </trkpt>
      <trkpt lat="48.19903" lon="-4.00433">
        <ele>69.692</ele>
        <time>2022-12-10T14:49:05.224Z</time>
      </trkpt>
      <trkpt lat="48.19907" lon="-4.00415">
        <ele>69.586802</ele>
        <time>2022-12-10T14:49:08.222Z</time>
      </trkpt>
      <trkpt lat="48.19911" lon="-4.00397">
        <ele>69.482655</ele>
        <time>2022-12-10T14:49:11.230Z</time>
      </trkpt>
      <trkpt lat="48.19914" lon="-4.0038">
        <ele>69.386498</ele>
        <time>2022-12-10T14:49:14.216Z</time>
      </trkpt>
      <trkpt lat="48.19917" lon="-4.00364">
        <ele>69.292761</ele>
        <time>2022-12-10T14:49:17.221Z</time>
      </trkpt>
      <trkpt lat="48.19922" lon="-4.00346">
        <ele>69.188838</ele>
        <time>2022-12-10T14:49:20.229Z</time>
      </trkpt>
      <trkpt lat="48.19925" lon="-4.0033">
        <ele>69.095143</ele>
        <time>2022-12-10T14:49:23.225Z</time>
      </trkpt>
      <trkpt lat="48.19928" lon="-4.00313">
        <ele>69.000154</ele>
        <time>2022-12-10T14:49:26.214Z</time>
      </trkpt>
      <trkpt lat="48.19933" lon="-4.00296">
        <ele>68.897837</ele>
        <time>2022-12-10T14:49:29.225Z</time>
      </trkpt>
      <trkpt lat="48.19935" lon="-4.00282">
        <ele>68.818857</ele>
        <time>2022-12-10T14:49:32.213Z</time>
      </trkpt>
      <trkpt lat="48.19939" lon="-4.00266">
        <ele>68.725161</ele>
        <time>2022-12-10T14:49:35.224Z</time>
      </trkpt>
      <trkpt lat="48.1994" lon="-4.00248">
        <ele>68.708156</ele>
        <time>2022-12-10T14:49:38.208Z</time>
      </trkpt>
      <trkpt lat="48.19941" lon="-4.00232">
        <ele>68.750244</ele>
        <time>2022-12-10T14:49:41.204Z</time>
      </trkpt>
      <trkpt lat="48.1994" lon="-4.00212">
        <ele>68.800719</ele>
        <time>2022-12-10T14:49:44.216Z</time>
      </trkpt>
      <trkpt lat="48.1994" lon="-4.00194">
        <ele>68.848402</ele>
        <time>2022-12-10T14:49:47.224Z</time>
      </trkpt>
      <trkpt lat="48.19938" lon="-4.0018">
        <ele>68.883061</ele>
        <time>2022-12-10T14:49:49.214Z</time>
      </trkpt>
      <trkpt lat="48.19934" lon="-4.00156">
        <ele>68.945791</ele>
        <time>2022-12-10T14:49:53.221Z</time>
      </trkpt>
      <trkpt lat="48.1993" lon="-4.00141">
        <ele>68.987737</ele>
        <time>2022-12-10T14:49:56.225Z</time>
      </trkpt>
      <trkpt lat="48.19924" lon="-4.00128">
        <ele>69.02929</ele>
        <time>2022-12-10T14:49:59.213Z</time>
      </trkpt>
      <trkpt lat="48.19918" lon="-4.00112">
        <ele>69.077051</ele>
        <time>2022-12-10T14:50:02.220Z</time>
      </trkpt>
      <trkpt lat="48.19911" lon="-4.00095">
        <ele>69.126907</ele>
        <time>2022-12-10T14:50:05.223Z</time>
      </trkpt>
      <trkpt lat="48.19902" lon="-4.0008">
        <ele>69.17769</ele>
        <time>2022-12-10T14:50:08.218Z</time>
      </trkpt>
      <trkpt lat="48.19894" lon="-4.00066">
        <ele>69.22713</ele>
        <time>2022-12-10T14:50:11.217Z</time>
      </trkpt>
      <trkpt lat="48.19886" lon="-4.00051">
        <ele>69.275825</ele>
        <time>2022-12-10T14:50:14.228Z</time>
      </trkpt>
      <trkpt lat="48.19879" lon="-4.00035">
        <ele>69.323106</ele>
        <time>2022-12-10T14:50:17.227Z</time>
      </trkpt>
      <trkpt lat="48.19872" lon="-4.0002">
        <ele>69.370606</ele>
        <time>2022-12-10T14:50:20.217Z</time>
      </trkpt>
      <trkpt lat="48.19867" lon="-4.00006">
        <ele>69.378705</ele>
        <time>2022-12-10T14:50:23.226Z</time>
      </trkpt>
      <trkpt lat="48.1986" lon="-3.99986">
        <ele>69.385794</ele>
        <time>2022-12-10T14:50:27.205Z</time>
      </trkpt>
      <trkpt lat="48.19855" lon="-3.99972">
        <ele>69.39095</ele>
        <time>2022-12-10T14:50:30.228Z</time>
      </trkpt>
      <trkpt lat="48.19852" lon="-3.99956">
        <ele>69.396485</ele>
        <time>2022-12-10T14:50:33.220Z</time>
      </trkpt>
      <trkpt lat="48.19852" lon="-3.99938">
        <ele>69.402255</ele>
        <time>2022-12-10T14:50:36.216Z</time>
      </trkpt>
      <trkpt lat="48.19854" lon="-3.9992">
        <ele>69.408223</ele>
        <time>2022-12-10T14:50:39.222Z</time>
      </trkpt>
      <trkpt lat="48.19856" lon="-3.99902">
        <ele>69.414175</ele>
        <time>2022-12-10T14:50:42.217Z</time>
      </trkpt>
      <trkpt lat="48.19858" lon="-3.99879">
        <ele>69.421621</ele>
        <time>2022-12-10T14:50:46.199Z</time>
      </trkpt>
      <trkpt lat="48.19862" lon="-3.99855">
        <ele>69.429599</ele>
        <time>2022-12-10T14:50:50.234Z</time>
      </trkpt>
      <trkpt lat="48.19862" lon="-3.99836">
        <ele>69.435629</ele>
        <time>2022-12-10T14:50:53.215Z</time>
      </trkpt>
      <trkpt lat="48.19861" lon="-3.99819">
        <ele>69.441267</ele>
        <time>2022-12-10T14:50:56.226Z</time>
      </trkpt>
      <trkpt lat="48.19861" lon="-3.99804">
        <ele>69.44597</ele>
        <time>2022-12-10T14:50:59.225Z</time>
      </trkpt>
      <trkpt lat="48.1986" lon="-3.99791">
        <ele>69.450446</ele>
        <time>2022-12-10T14:51:02.221Z</time>
      </trkpt>
      <trkpt lat="48.19859" lon="-3.99777">
        <ele>69.45496</ele>
        <time>2022-12-10T14:51:05.215Z</time>
      </trkpt>
      <trkpt lat="48.19856" lon="-3.99762">
        <ele>69.459831</ele>
        <time>2022-12-10T14:51:08.213Z</time>
      </trkpt>
      <trkpt lat="48.19854" lon="-3.99747">
        <ele>69.395246</ele>
        <time>2022-12-10T14:51:11.214Z</time>
      </trkpt>
      <trkpt lat="48.19849" lon="-3.99732">
        <ele>69.303276</ele>
        <time>2022-12-10T14:51:14.223Z</time>
      </trkpt>
      <trkpt lat="48.19846" lon="-3.99717">
        <ele>69.214093</ele>
        <time>2022-12-10T14:51:17.226Z</time>
      </trkpt>
      <trkpt lat="48.19842" lon="-3.99702">
        <ele>69.122838</ele>
        <time>2022-12-10T14:51:20.228Z</time>
      </trkpt>
      <trkpt lat="48.19837" lon="-3.99686">
        <ele>69.028186</ele>
        <time>2022-12-10T14:51:23.232Z</time>
      </trkpt>
      <trkpt lat="48.19832" lon="-3.99672">
        <ele>68.938622</ele>
        <time>2022-12-10T14:51:26.217Z</time>
      </trkpt>
      <trkpt lat="48.19828" lon="-3.99659">
        <ele>68.858044</ele>
        <time>2022-12-10T14:51:29.223Z</time>
      </trkpt>
      <trkpt lat="48.19823" lon="-3.99646">
        <ele>68.773115</ele>
        <time>2022-12-10T14:51:32.218Z</time>
      </trkpt>
      <trkpt lat="48.19818" lon="-3.99632">
        <ele>68.682931</ele>
        <time>2022-12-10T14:51:35.228Z</time>
      </trkpt>
      <trkpt lat="48.19812" lon="-3.99618">
        <ele>68.589576</ele>
        <time>2022-12-10T14:51:38.217Z</time>
      </trkpt>
      <trkpt lat="48.19805" lon="-3.99604">
        <ele>68.494367</ele>
        <time>2022-12-10T14:51:41.229Z</time>
      </trkpt>
      <trkpt lat="48.19799" lon="-3.99591">
        <ele>68.400915</ele>
        <time>2022-12-10T14:51:44.224Z</time>
      </trkpt>
      <trkpt lat="48.19789" lon="-3.99573">
        <ele>68.274578</ele>
        <time>2022-12-10T14:51:48.207Z</time>
      </trkpt>
      <trkpt lat="48.19782" lon="-3.9956">
        <ele>68.178143</ele>
        <time>2022-12-10T14:51:51.221Z</time>
      </trkpt>
      <trkpt lat="48.19774" lon="-3.99546">
        <ele>68.077936</ele>
        <time>2022-12-10T14:51:54.224Z</time>
      </trkpt>
      <trkpt lat="48.19765" lon="-3.99533">
        <ele>67.972807</ele>
        <time>2022-12-10T14:51:57.229Z</time>
      </trkpt>
      <trkpt lat="48.19756" lon="-3.99521">
        <ele>67.92607</ele>
        <time>2022-12-10T14:52:00.226Z</time>
      </trkpt>
      <trkpt lat="48.19746" lon="-3.99508">
        <ele>67.897701</ele>
        <time>2022-12-10T14:52:03.216Z</time>
      </trkpt>
      <trkpt lat="48.19736" lon="-3.99495">
        <ele>67.868731</ele>
        <time>2022-12-10T14:52:06.229Z</time>
      </trkpt>
      <trkpt lat="48.19726" lon="-3.99483">
        <ele>67.840122</ele>
        <time>2022-12-10T14:52:09.227Z</time>
      </trkpt>
      <trkpt lat="48.19716" lon="-3.9947">
        <ele>67.811078</ele>
        <time>2022-12-10T14:52:12.228Z</time>
      </trkpt>
      <trkpt lat="48.19706" lon="-3.99459">
        <ele>67.782698</ele>
        <time>2022-12-10T14:52:15.229Z</time>
      </trkpt>
      <trkpt lat="48.19695" lon="-3.99448">
        <ele>67.753481</ele>
        <time>2022-12-10T14:52:18.216Z</time>
      </trkpt>
      <trkpt lat="48.19684" lon="-3.99437">
        <ele>67.723195</ele>
        <time>2022-12-10T14:52:21.227Z</time>
      </trkpt>
      <trkpt lat="48.19676" lon="-3.99431">
        <ele>67.703084</ele>
        <time>2022-12-10T14:52:23.221Z</time>
      </trkpt>
      <trkpt lat="48.19665" lon="-3.99422">
        <ele>67.674896</ele>
        <time>2022-12-10T14:52:26.220Z</time>
      </trkpt>
      <trkpt lat="48.19654" lon="-3.99414">
        <ele>67.648365</ele>
        <time>2022-12-10T14:52:29.217Z</time>
      </trkpt>
      <trkpt lat="48.19642" lon="-3.99407">
        <ele>67.620388</ele>
        <time>2022-12-10T14:52:32.216Z</time>
      </trkpt>
      <trkpt lat="48.19626" lon="-3.99397">
        <ele>67.5821</ele>
        <time>2022-12-10T14:52:36.220Z</time>
      </trkpt>
      <trkpt lat="48.19614" lon="-3.99391">
        <ele>67.553146</ele>
        <time>2022-12-10T14:52:39.220Z</time>
      </trkpt>
      <trkpt lat="48.19602" lon="-3.99383">
        <ele>67.599911</ele>
        <time>2022-12-10T14:52:42.227Z</time>
      </trkpt>
      <trkpt lat="48.1959" lon="-3.99376">
        <ele>67.662362</ele>
        <time>2022-12-10T14:52:45.227Z</time>
      </trkpt>
      <trkpt lat="48.19578" lon="-3.99369">
        <ele>67.72401</ele>
        <time>2022-12-10T14:52:48.229Z</time>
      </trkpt>
      <trkpt lat="48.19566" lon="-3.99362">
        <ele>67.786462</ele>
        <time>2022-12-10T14:52:51.232Z</time>
      </trkpt>
      <trkpt lat="48.19554" lon="-3.99357">
        <ele>67.846999</ele>
        <time>2022-12-10T14:52:54.222Z</time>
      </trkpt>
      <trkpt lat="48.19543" lon="-3.99351">
        <ele>67.902649</ele>
        <time>2022-12-10T14:52:57.207Z</time>
      </trkpt>
      <trkpt lat="48.19533" lon="-3.99347">
        <ele>67.954024</ele>
        <time>2022-12-10T14:53:00.226Z</time>
      </trkpt>
      <trkpt lat="48.19522" lon="-3.99342">
        <ele>68.008567</ele>
        <time>2022-12-10T14:53:03.217Z</time>
      </trkpt>
      <trkpt lat="48.1951" lon="-3.99337">
        <ele>68.065587</ele>
        <time>2022-12-10T14:53:06.229Z</time>
      </trkpt>
      <trkpt lat="48.19499" lon="-3.99332">
        <ele>68.121319</ele>
        <time>2022-12-10T14:53:09.232Z</time>
      </trkpt>
      <trkpt lat="48.19489" lon="-3.99328">
        <ele>68.171246</ele>
        <time>2022-12-10T14:53:12.231Z</time>
      </trkpt>
      <trkpt lat="48.1948" lon="-3.99324">
        <ele>68.217809</ele>
        <time>2022-12-10T14:53:15.225Z</time>
      </trkpt>
      <trkpt lat="48.1947" lon="-3.9932">
        <ele>68.267352</ele>
        <time>2022-12-10T14:53:18.208Z</time>
      </trkpt>
      <trkpt lat="48.1946" lon="-3.99316">
        <ele>68.319101</ele>
        <time>2022-12-10T14:53:21.214Z</time>
      </trkpt>
      <trkpt lat="48.19449" lon="-3.99312">
        <ele>68.372778</ele>
        <time>2022-12-10T14:53:24.228Z</time>
      </trkpt>
      <trkpt lat="48.19438" lon="-3.99308">
        <ele>68.419744</ele>
        <time>2022-12-10T14:53:27.236Z</time>
      </trkpt>
      <trkpt lat="48.19427" lon="-3.99305">
        <ele>68.437161</ele>
        <time>2022-12-10T14:53:30.229Z</time>
      </trkpt>
      <trkpt lat="48.19415" lon="-3.99301">
        <ele>68.455284</ele>
        <time>2022-12-10T14:53:33.223Z</time>
      </trkpt>
      <trkpt lat="48.19404" lon="-3.99297">
        <ele>68.472972</ele>
        <time>2022-12-10T14:53:36.220Z</time>
      </trkpt>
      <trkpt lat="48.19392" lon="-3.99294">
        <ele>68.490669</ele>
        <time>2022-12-10T14:53:39.231Z</time>
      </trkpt>
      <trkpt lat="48.19382" lon="-3.99291">
        <ele>68.507287</ele>
        <time>2022-12-10T14:53:42.228Z</time>
      </trkpt>
      <trkpt lat="48.1937" lon="-3.99287">
        <ele>68.525508</ele>
        <time>2022-12-10T14:53:46.229Z</time>
      </trkpt>
      <trkpt lat="48.19361" lon="-3.99282">
        <ele>68.539899</ele>
        <time>2022-12-10T14:53:50.229Z</time>
      </trkpt>
      <trkpt lat="48.19349" lon="-3.99277">
        <ele>68.557918</ele>
        <time>2022-12-10T14:53:54.229Z</time>
      </trkpt>
      <trkpt lat="48.19339" lon="-3.99276">
        <ele>68.57313</ele>
        <time>2022-12-10T14:53:57.212Z</time>
      </trkpt>
      <trkpt lat="48.19329" lon="-3.99274">
        <ele>68.588547</ele>
        <time>2022-12-10T14:54:00.216Z</time>
      </trkpt>
      <trkpt lat="48.19319" lon="-3.99271">
        <ele>68.604069</ele>
        <time>2022-12-10T14:54:03.215Z</time>
      </trkpt>
      <trkpt lat="48.19309" lon="-3.9927">
        <ele>68.619914</ele>
        <time>2022-12-10T14:54:06.207Z</time>
      </trkpt>
      <trkpt lat="48.19294" lon="-3.99273">
        <ele>68.642112</ele>
        <time>2022-12-10T14:54:10.211Z</time>
      </trkpt>
      <trkpt lat="48.1928" lon="-3.99281">
        <ele>68.665938</ele>
        <time>2022-12-10T14:54:14.211Z</time>
      </trkpt>
      <trkpt lat="48.19269" lon="-3.99288">
        <ele>68.682646</ele>
        <time>2022-12-10T14:54:17.224Z</time>
      </trkpt>
      <trkpt lat="48.19259" lon="-3.99294">
        <ele>68.71752</ele>
        <time>2022-12-10T14:54:20.224Z</time>
      </trkpt>
      <trkpt lat="48.19249" lon="-3.993">
        <ele>68.764437</ele>
        <time>2022-12-10T14:54:23.225Z</time>
      </trkpt>
      <trkpt lat="48.19239" lon="-3.99307">
        <ele>68.811076</ele>
        <time>2022-12-10T14:54:26.225Z</time>
      </trkpt>
      <trkpt lat="48.19227" lon="-3.99311">
        <ele>68.861251</ele>
        <time>2022-12-10T14:54:29.227Z</time>
      </trkpt>
      <trkpt lat="48.19215" lon="-3.99312">
        <ele>68.913011</ele>
        <time>2022-12-10T14:54:32.217Z</time>
      </trkpt>
      <trkpt lat="48.19202" lon="-3.9931">
        <ele>68.969723</ele>
        <time>2022-12-10T14:54:35.232Z</time>
      </trkpt>
      <trkpt lat="48.19189" lon="-3.99305">
        <ele>69.025607</ele>
        <time>2022-12-10T14:54:38.224Z</time>
      </trkpt>
      <trkpt lat="48.19178" lon="-3.99298">
        <ele>69.077545</ele>
        <time>2022-12-10T14:54:41.230Z</time>
      </trkpt>
      <trkpt lat="48.19167" lon="-3.9929">
        <ele>69.128918</ele>
        <time>2022-12-10T14:54:44.233Z</time>
      </trkpt>
      <trkpt lat="48.19157" lon="-3.99282">
        <ele>69.175274</ele>
        <time>2022-12-10T14:54:47.217Z</time>
      </trkpt>
      <trkpt lat="48.19149" lon="-3.99274">
        <ele>69.217615</ele>
        <time>2022-12-10T14:54:50.225Z</time>
      </trkpt>
      <trkpt lat="48.19139" lon="-3.99264">
        <ele>69.268256</ele>
        <time>2022-12-10T14:54:54.230Z</time>
      </trkpt>
      <trkpt lat="48.19131" lon="-3.99254">
        <ele>69.312018</ele>
        <time>2022-12-10T14:54:58.228Z</time>
      </trkpt>
      <trkpt lat="48.19124" lon="-3.99242">
        <ele>69.355548</ele>
        <time>2022-12-10T14:55:02.230Z</time>
      </trkpt>
      <trkpt lat="48.19118" lon="-3.99231">
        <ele>69.396147</ele>
        <time>2022-12-10T14:55:05.224Z</time>
      </trkpt>
      <trkpt lat="48.19111" lon="-3.99219">
        <ele>69.441552</ele>
        <time>2022-12-10T14:55:08.229Z</time>
      </trkpt>
      <trkpt lat="48.19104" lon="-3.99206">
        <ele>69.485922</ele>
        <time>2022-12-10T14:55:11.214Z</time>
      </trkpt>
      <trkpt lat="48.19096" lon="-3.99192">
        <ele>69.530982</ele>
        <time>2022-12-10T14:55:14.231Z</time>
      </trkpt>
      <trkpt lat="48.19087" lon="-3.99172">
        <ele>69.590478</ele>
        <time>2022-12-10T14:55:18.215Z</time>
      </trkpt>
      <trkpt lat="48.19081" lon="-3.99156">
        <ele>69.63723</ele>
        <time>2022-12-10T14:55:21.229Z</time>
      </trkpt>
      <trkpt lat="48.19073" lon="-3.99135">
        <ele>69.695248</ele>
        <time>2022-12-10T14:55:25.210Z</time>
      </trkpt>
      <trkpt lat="48.1907" lon="-3.99122">
        <ele>69.730947</ele>
        <time>2022-12-10T14:55:28.227Z</time>
      </trkpt>
      <trkpt lat="48.19065" lon="-3.99101">
        <ele>69.785124</ele>
        <time>2022-12-10T14:55:32.216Z</time>
      </trkpt>
      <trkpt lat="48.19063" lon="-3.99084">
        <ele>69.828587</ele>
        <time>2022-12-10T14:55:35.215Z</time>
      </trkpt>
      <trkpt lat="48.19061" lon="-3.99066">
        <ele>69.87323</ele>
        <time>2022-12-10T14:55:38.225Z</time>
      </trkpt>
      <trkpt lat="48.19062" lon="-3.9904">
        <ele>69.936876</ele>
        <time>2022-12-10T14:55:42.219Z</time>
      </trkpt>
      <trkpt lat="48.19065" lon="-3.99021">
        <ele>69.987397</ele>
        <time>2022-12-10T14:55:45.233Z</time>
      </trkpt>
      <trkpt lat="48.19069" lon="-3.99004">
        <ele>70.030972</ele>
        <time>2022-12-10T14:55:48.227Z</time>
      </trkpt>
      <trkpt lat="48.19073" lon="-3.98989">
        <ele>70.069717</ele>
        <time>2022-12-10T14:55:51.222Z</time>
      </trkpt>
      <trkpt lat="48.19078" lon="-3.98969">
        <ele>70.126931</ele>
        <time>2022-12-10T14:55:55.199Z</time>
      </trkpt>
      <trkpt lat="48.19082" lon="-3.98954">
        <ele>70.243217</ele>
        <time>2022-12-10T14:55:58.229Z</time>
      </trkpt>
      <trkpt lat="48.19086" lon="-3.98939">
        <ele>70.356738</ele>
        <time>2022-12-10T14:56:01.230Z</time>
      </trkpt>
      <trkpt lat="48.19091" lon="-3.98924">
        <ele>70.47643</ele>
        <time>2022-12-10T14:56:04.229Z</time>
      </trkpt>
      <trkpt lat="48.19096" lon="-3.98909">
        <ele>70.598331</ele>
        <time>2022-12-10T14:56:07.227Z</time>
      </trkpt>
      <trkpt lat="48.19101" lon="-3.98893">
        <ele>70.71943</ele>
        <time>2022-12-10T14:56:10.218Z</time>
      </trkpt>
      <trkpt lat="48.19107" lon="-3.98878">
        <ele>70.84135</ele>
        <time>2022-12-10T14:56:13.215Z</time>
      </trkpt>
      <trkpt lat="48.19111" lon="-3.98862">
        <ele>70.96363</ele>
        <time>2022-12-10T14:56:16.230Z</time>
      </trkpt>
      <trkpt lat="48.19117" lon="-3.98841">
        <ele>71.124119</ele>
        <time>2022-12-10T14:56:20.219Z</time>
      </trkpt>
      <trkpt lat="48.1912" lon="-3.98825">
        <ele>71.241461</ele>
        <time>2022-12-10T14:56:23.226Z</time>
      </trkpt>
      <trkpt lat="48.19121" lon="-3.98802">
        <ele>71.40308</ele>
        <time>2022-12-10T14:56:27.233Z</time>
      </trkpt>
      <trkpt lat="48.19121" lon="-3.98786">
        <ele>71.518047</ele>
        <time>2022-12-10T14:56:30.238Z</time>
      </trkpt>
      <trkpt lat="48.19121" lon="-3.98771">
        <ele>71.625097</ele>
        <time>2022-12-10T14:56:33.225Z</time>
      </trkpt>
      <trkpt lat="48.1912" lon="-3.98755">
        <ele>71.73429</ele>
        <time>2022-12-10T14:56:36.230Z</time>
      </trkpt>
      <trkpt lat="48.19118" lon="-3.98736">
        <ele>71.872654</ele>
        <time>2022-12-10T14:56:40.230Z</time>
      </trkpt>
      <trkpt lat="48.19116" lon="-3.98722">
        <ele>71.970101</ele>
        <time>2022-12-10T14:56:43.228Z</time>
      </trkpt>
      <trkpt lat="48.19114" lon="-3.98705">
        <ele>71.944646</ele>
        <time>2022-12-10T14:56:47.212Z</time>
      </trkpt>
      <trkpt lat="48.19112" lon="-3.9869">
        <ele>71.841224</ele>
        <time>2022-12-10T14:56:50.236Z</time>
      </trkpt>
      <trkpt lat="48.19111" lon="-3.98675">
        <ele>71.735565</ele>
        <time>2022-12-10T14:56:53.226Z</time>
      </trkpt>
      <trkpt lat="48.1911" lon="-3.9866">
        <ele>71.629084</ele>
        <time>2022-12-10T14:56:56.230Z</time>
      </trkpt>
      <trkpt lat="48.19109" lon="-3.9864">
        <ele>71.484499</ele>
        <time>2022-12-10T14:57:00.218Z</time>
      </trkpt>
      <trkpt lat="48.19109" lon="-3.98621">
        <ele>71.351888</ele>
        <time>2022-12-10T14:57:05.215Z</time>
      </trkpt>
      <trkpt lat="48.19106" lon="-3.98607">
        <ele>71.252997</ele>
        <time>2022-12-10T14:57:23.205Z</time>
      </trkpt>
      <trkpt lat="48.19105" lon="-3.98588">
        <ele>71.11234</ele>
        <time>2022-12-10T14:57:30.199Z</time>
      </trkpt>
      <trkpt lat="48.19104" lon="-3.98571">
        <ele>70.993009</ele>
        <time>2022-12-10T14:57:33.229Z</time>
      </trkpt>
      <trkpt lat="48.19104" lon="-3.98555">
        <ele>70.878707</ele>
        <time>2022-12-10T14:57:36.221Z</time>
      </trkpt>
      <trkpt lat="48.19104" lon="-3.98537">
        <ele>70.756608</ele>
        <time>2022-12-10T14:57:39.233Z</time>
      </trkpt>
      <trkpt lat="48.19107" lon="-3.98518">
        <ele>70.61693</ele>
        <time>2022-12-10T14:57:42.237Z</time>
      </trkpt>
      <trkpt lat="48.1911" lon="-3.98505">
        <ele>70.516907</ele>
        <time>2022-12-10T14:57:44.234Z</time>
      </trkpt>
      <trkpt lat="48.19116" lon="-3.98488">
        <ele>70.383545</ele>
        <time>2022-12-10T14:57:47.218Z</time>
      </trkpt>
      <trkpt lat="48.19122" lon="-3.98472">
        <ele>70.260716</ele>
        <time>2022-12-10T14:57:50.222Z</time>
      </trkpt>
      <trkpt lat="48.19127" lon="-3.98461">
        <ele>70.156817</ele>
        <time>2022-12-10T14:57:53.226Z</time>
      </trkpt>
      <trkpt lat="48.19135" lon="-3.98447">
        <ele>70.177244</ele>
        <time>2022-12-10T14:57:57.229Z</time>
      </trkpt>
      <trkpt lat="48.19143" lon="-3.98436">
        <ele>70.26254</ele>
        <time>2022-12-10T14:58:01.225Z</time>
      </trkpt>
      <trkpt lat="48.1915" lon="-3.98426">
        <ele>70.334481</ele>
        <time>2022-12-10T14:58:04.221Z</time>
      </trkpt>
      <trkpt lat="48.19158" lon="-3.98417">
        <ele>70.411791</ele>
        <time>2022-12-10T14:58:07.234Z</time>
      </trkpt>
      <trkpt lat="48.19167" lon="-3.98407">
        <ele>70.494869</ele>
        <time>2022-12-10T14:58:10.235Z</time>
      </trkpt>
      <trkpt lat="48.19176" lon="-3.98398">
        <ele>70.576877</ele>
        <time>2022-12-10T14:58:13.226Z</time>
      </trkpt>
      <trkpt lat="48.19185" lon="-3.98389">
        <ele>70.658105</ele>
        <time>2022-12-10T14:58:16.208Z</time>
      </trkpt>
      <trkpt lat="48.19193" lon="-3.98379">
        <ele>70.740846</ele>
        <time>2022-12-10T14:58:19.229Z</time>
      </trkpt>
      <trkpt lat="48.19201" lon="-3.98368">
        <ele>70.821425</ele>
        <time>2022-12-10T14:58:22.230Z</time>
      </trkpt>
      <trkpt lat="48.19212" lon="-3.98357">
        <ele>70.916874</ele>
        <time>2022-12-10T14:58:26.209Z</time>
      </trkpt>
      <trkpt lat="48.19221" lon="-3.98348">
        <ele>71.003882</ele>
        <time>2022-12-10T14:58:30.232Z</time>
      </trkpt>
      <trkpt lat="48.1923" lon="-3.98338">
        <ele>71.084507</ele>
        <time>2022-12-10T14:58:35.217Z</time>
      </trkpt>
      <trkpt lat="48.19236" lon="-3.98326">
        <ele>71.157401</ele>
        <time>2022-12-10T14:58:39.232Z</time>
      </trkpt>
      <trkpt lat="48.19241" lon="-3.98316">
        <ele>71.224983</ele>
        <time>2022-12-10T14:58:42.231Z</time>
      </trkpt>
      <trkpt lat="48.19251" lon="-3.98302">
        <ele>71.327471</ele>
        <time>2022-12-10T14:58:46.227Z</time>
      </trkpt>
      <trkpt lat="48.19259" lon="-3.98291">
        <ele>71.406707</ele>
        <time>2022-12-10T14:58:49.225Z</time>
      </trkpt>
      <trkpt lat="48.19266" lon="-3.9828">
        <ele>71.48557</ele>
        <time>2022-12-10T14:58:52.232Z</time>
      </trkpt>
      <trkpt lat="48.19274" lon="-3.9827">
        <ele>71.555422</ele>
        <time>2022-12-10T14:58:55.229Z</time>
      </trkpt>
      <trkpt lat="48.1928" lon="-3.98261">
        <ele>71.618929</ele>
        <time>2022-12-10T14:58:58.228Z</time>
      </trkpt>
      <trkpt lat="48.19288" lon="-3.98251">
        <ele>71.687947</ele>
        <time>2022-12-10T14:59:01.226Z</time>
      </trkpt>
      <trkpt lat="48.19295" lon="-3.98239">
        <ele>71.762529</ele>
        <time>2022-12-10T14:59:04.228Z</time>
      </trkpt>
      <trkpt lat="48.19301" lon="-3.98227">
        <ele>71.834955</ele>
        <time>2022-12-10T14:59:07.229Z</time>
      </trkpt>
      <trkpt lat="48.19306" lon="-3.98213">
        <ele>71.908527</ele>
        <time>2022-12-10T14:59:10.225Z</time>
      </trkpt>
      <trkpt lat="48.19312" lon="-3.98201">
        <ele>71.978953</ele>
        <time>2022-12-10T14:59:13.214Z</time>
      </trkpt>
      <trkpt lat="48.19317" lon="-3.98186">
        <ele>72.056895</ele>
        <time>2022-12-10T14:59:17.231Z</time>
      </trkpt>
      <trkpt lat="48.19323" lon="-3.98172">
        <ele>72.134618</ele>
        <time>2022-12-10T14:59:22.213Z</time>
      </trkpt>
      <trkpt lat="48.19325" lon="-3.98158">
        <ele>72.201858</ele>
        <time>2022-12-10T14:59:26.229Z</time>
      </trkpt>
      <trkpt lat="48.19327" lon="-3.98143">
        <ele>72.274752</ele>
        <time>2022-12-10T14:59:30.237Z</time>
      </trkpt>
      <trkpt lat="48.19331" lon="-3.98131">
        <ele>72.337896</ele>
        <time>2022-12-10T14:59:36.208Z</time>
      </trkpt>
      <trkpt lat="48.19331" lon="-3.98129">
        <ele>72.346583</ele>
        <time>2022-12-10T14:59:47.684Z</time>
      </trkpt>
      <trkpt lat="48.19328" lon="-3.98132">
        <ele>72.375241</ele>
        <time>2022-12-10T15:27:42.275Z</time>
      </trkpt>
      <trkpt lat="48.19332" lon="-3.98119">
        <ele>72.444892</ele>
        <time>2022-12-10T15:29:22.218Z</time>
      </trkpt>
      <trkpt lat="48.19335" lon="-3.98103">
        <ele>72.52055</ele>
        <time>2022-12-10T15:29:27.219Z</time>
      </trkpt>
      <trkpt lat="48.19339" lon="-3.98088">
        <ele>72.5982</ele>
        <time>2022-12-10T15:29:32.218Z</time>
      </trkpt>
      <trkpt lat="48.19344" lon="-3.98075">
        <ele>72.666281</ele>
        <time>2022-12-10T15:29:36.218Z</time>
      </trkpt>
      <trkpt lat="48.19349" lon="-3.98065">
        <ele>72.72945</ele>
        <time>2022-12-10T15:29:39.226Z</time>
      </trkpt>
      <trkpt lat="48.19356" lon="-3.98051">
        <ele>72.904242</ele>
        <time>2022-12-10T15:29:43.231Z</time>
      </trkpt>
      <trkpt lat="48.19361" lon="-3.98038">
        <ele>73.074504</ele>
        <time>2022-12-10T15:29:47.220Z</time>
      </trkpt>
      <trkpt lat="48.19368" lon="-3.98023">
        <ele>73.282173</ele>
        <time>2022-12-10T15:29:51.217Z</time>
      </trkpt>
      <trkpt lat="48.19376" lon="-3.98011">
        <ele>73.476155</ele>
        <time>2022-12-10T15:29:54.223Z</time>
      </trkpt>
      <trkpt lat="48.19382" lon="-3.97999">
        <ele>73.635355</ele>
        <time>2022-12-10T15:29:58.218Z</time>
      </trkpt>
      <trkpt lat="48.1939" lon="-3.97985">
        <ele>73.845232</ele>
        <time>2022-12-10T15:30:02.216Z</time>
      </trkpt>
      <trkpt lat="48.19397" lon="-3.97974">
        <ele>74.015859</ele>
        <time>2022-12-10T15:30:05.222Z</time>
      </trkpt>
      <trkpt lat="48.19405" lon="-3.97961">
        <ele>74.211481</ele>
        <time>2022-12-10T15:30:08.228Z</time>
      </trkpt>
      <trkpt lat="48.19412" lon="-3.97948">
        <ele>74.410631</ele>
        <time>2022-12-10T15:30:11.214Z</time>
      </trkpt>
      <trkpt lat="48.1942" lon="-3.97937">
        <ele>74.589381</ele>
        <time>2022-12-10T15:30:14.235Z</time>
      </trkpt>
      <trkpt lat="48.19428" lon="-3.97924">
        <ele>74.787688</ele>
        <time>2022-12-10T15:30:18.221Z</time>
      </trkpt>
      <trkpt lat="48.19434" lon="-3.97914">
        <ele>74.940361</ele>
        <time>2022-12-10T15:30:21.224Z</time>
      </trkpt>
      <trkpt lat="48.19442" lon="-3.97902">
        <ele>75.124823</ele>
        <time>2022-12-10T15:30:25.227Z</time>
      </trkpt>
      <trkpt lat="48.19448" lon="-3.97891">
        <ele>75.296526</ele>
        <time>2022-12-10T15:30:30.227Z</time>
      </trkpt>
      <trkpt lat="48.19455" lon="-3.97881">
        <ele>75.453559</ele>
        <time>2022-12-10T15:30:34.218Z</time>
      </trkpt>
      <trkpt lat="48.19461" lon="-3.97868">
        <ele>75.630527</ele>
        <time>2022-12-10T15:30:38.235Z</time>
      </trkpt>
      <trkpt lat="48.19468" lon="-3.97856">
        <ele>75.781224</ele>
        <time>2022-12-10T15:30:43.219Z</time>
      </trkpt>
      <trkpt lat="48.19475" lon="-3.97846">
        <ele>75.817495</ele>
        <time>2022-12-10T15:30:47.215Z</time>
      </trkpt>
      <trkpt lat="48.19483" lon="-3.97833">
        <ele>75.861976</ele>
        <time>2022-12-10T15:30:51.219Z</time>
      </trkpt>
      <trkpt lat="48.1949" lon="-3.97823">
        <ele>75.898621</ele>
        <time>2022-12-10T15:30:55.221Z</time>
      </trkpt>
      <trkpt lat="48.19497" lon="-3.97811">
        <ele>75.939052</ele>
        <time>2022-12-10T15:31:00.215Z</time>
      </trkpt>
      <trkpt lat="48.19505" lon="-3.97799">
        <ele>75.981897</ele>
        <time>2022-12-10T15:31:04.215Z</time>
      </trkpt>
      <trkpt lat="48.1951" lon="-3.97787">
        <ele>76.018715</ele>
        <time>2022-12-10T15:31:08.232Z</time>
      </trkpt>
      <trkpt lat="48.19517" lon="-3.97777">
        <ele>76.054716</ele>
        <time>2022-12-10T15:31:12.236Z</time>
      </trkpt>
      <trkpt lat="48.19525" lon="-3.97763">
        <ele>76.100904</ele>
        <time>2022-12-10T15:31:16.217Z</time>
      </trkpt>
      <trkpt lat="48.19532" lon="-3.97753">
        <ele>76.139238</ele>
        <time>2022-12-10T15:31:19.223Z</time>
      </trkpt>
      <trkpt lat="48.19539" lon="-3.97742">
        <ele>76.17759</ele>
        <time>2022-12-10T15:31:22.218Z</time>
      </trkpt>
      <trkpt lat="48.19546" lon="-3.9773">
        <ele>76.216314</ele>
        <time>2022-12-10T15:31:25.226Z</time>
      </trkpt>
      <trkpt lat="48.19553" lon="-3.97719">
        <ele>76.255483</ele>
        <time>2022-12-10T15:31:28.220Z</time>
      </trkpt>
      <trkpt lat="48.19559" lon="-3.97707">
        <ele>76.294325</ele>
        <time>2022-12-10T15:31:31.226Z</time>
      </trkpt>
      <trkpt lat="48.19567" lon="-3.97695">
        <ele>76.335447</ele>
        <time>2022-12-10T15:31:34.224Z</time>
      </trkpt>
      <trkpt lat="48.19574" lon="-3.97683">
        <ele>76.375953</ele>
        <time>2022-12-10T15:31:37.222Z</time>
      </trkpt>
      <trkpt lat="48.19581" lon="-3.97672">
        <ele>76.416126</ele>
        <time>2022-12-10T15:31:40.219Z</time>
      </trkpt>
      <trkpt lat="48.19588" lon="-3.9766">
        <ele>76.456521</ele>
        <time>2022-12-10T15:31:43.218Z</time>
      </trkpt>
      <trkpt lat="48.19595" lon="-3.97648">
        <ele>76.39493</ele>
        <time>2022-12-10T15:31:46.222Z</time>
      </trkpt>
      <trkpt lat="48.19602" lon="-3.97637">
        <ele>76.333985</ele>
        <time>2022-12-10T15:31:49.227Z</time>
      </trkpt>
      <trkpt lat="48.19609" lon="-3.97626">
        <ele>76.272627</ele>
        <time>2022-12-10T15:31:52.220Z</time>
      </trkpt>
      <trkpt lat="48.19616" lon="-3.97615">
        <ele>76.213516</ele>
        <time>2022-12-10T15:31:55.233Z</time>
      </trkpt>
      <trkpt lat="48.19623" lon="-3.97606">
        <ele>76.157149</ele>
        <time>2022-12-10T15:31:58.230Z</time>
      </trkpt>
      <trkpt lat="48.19631" lon="-3.97598">
        <ele>76.101084</ele>
        <time>2022-12-10T15:32:01.217Z</time>
      </trkpt>
      <trkpt lat="48.19639" lon="-3.97591">
        <ele>76.045528</ele>
        <time>2022-12-10T15:32:04.235Z</time>
      </trkpt>
      <trkpt lat="48.19648" lon="-3.97584">
        <ele>75.986996</ele>
        <time>2022-12-10T15:32:07.241Z</time>
      </trkpt>
      <trkpt lat="48.19657" lon="-3.97577">
        <ele>75.92356</ele>
        <time>2022-12-10T15:32:10.230Z</time>
      </trkpt>
      <trkpt lat="48.19667" lon="-3.97569">
        <ele>75.860162</ele>
        <time>2022-12-10T15:32:13.234Z</time>
      </trkpt>
      <trkpt lat="48.19676" lon="-3.97561">
        <ele>75.795087</ele>
        <time>2022-12-10T15:32:16.228Z</time>
      </trkpt>
      <trkpt lat="48.19686" lon="-3.97553">
        <ele>75.730571</ele>
        <time>2022-12-10T15:32:19.227Z</time>
      </trkpt>
      <trkpt lat="48.19693" lon="-3.97545">
        <ele>75.673925</ele>
        <time>2022-12-10T15:32:22.226Z</time>
      </trkpt>
      <trkpt lat="48.19702" lon="-3.97537">
        <ele>75.615116</ele>
        <time>2022-12-10T15:32:25.227Z</time>
      </trkpt>
      <trkpt lat="48.19711" lon="-3.9753">
        <ele>75.556467</ele>
        <time>2022-12-10T15:32:28.219Z</time>
      </trkpt>
      <trkpt lat="48.19721" lon="-3.97523">
        <ele>75.490902</ele>
        <time>2022-12-10T15:32:31.238Z</time>
      </trkpt>
      <trkpt lat="48.1973" lon="-3.97515">
        <ele>75.429907</ele>
        <time>2022-12-10T15:32:34.226Z</time>
      </trkpt>
      <trkpt lat="48.19739" lon="-3.97508">
        <ele>75.36813</ele>
        <time>2022-12-10T15:32:37.229Z</time>
      </trkpt>
      <trkpt lat="48.19747" lon="-3.97501">
        <ele>75.315121</ele>
        <time>2022-12-10T15:32:40.225Z</time>
      </trkpt>
      <trkpt lat="48.19756" lon="-3.97495">
        <ele>75.261277</ele>
        <time>2022-12-10T15:32:43.222Z</time>
      </trkpt>
      <trkpt lat="48.19763" lon="-3.97488">
        <ele>75.213506</ele>
        <time>2022-12-10T15:33:11.586Z</time>
      </trkpt>
      <trkpt lat="48.19763" lon="-3.97488">
        <ele>75.212939</ele>
        <time>2022-12-10T15:33:38.798Z</time>
      </trkpt>
      <trkpt lat="48.19774" lon="-3.97482">
        <ele>75.145724</ele>
        <time>2022-12-10T15:34:06.231Z</time>
      </trkpt>
      <trkpt lat="48.19783" lon="-3.97474">
        <ele>75.089781</ele>
        <time>2022-12-10T15:34:10.223Z</time>
      </trkpt>
      <trkpt lat="48.19793" lon="-3.97466">
        <ele>75.023351</ele>
        <time>2022-12-10T15:34:14.218Z</time>
      </trkpt>
      <trkpt lat="48.19801" lon="-3.97459">
        <ele>74.970342</ele>
        <time>2022-12-10T15:34:17.262Z</time>
      </trkpt>
      <trkpt lat="48.19811" lon="-3.97452">
        <ele>74.910585</ele>
        <time>2022-12-10T15:34:20.227Z</time>
      </trkpt>
      <trkpt lat="48.1982" lon="-3.97444">
        <ele>74.849089</ele>
        <time>2022-12-10T15:34:23.221Z</time>
      </trkpt>
      <trkpt lat="48.19831" lon="-3.97436">
        <ele>74.780862</ele>
        <time>2022-12-10T15:34:26.215Z</time>
      </trkpt>
      <trkpt lat="48.19842" lon="-3.97427">
        <ele>74.711151</ele>
        <time>2022-12-10T15:34:29.221Z</time>
      </trkpt>
      <trkpt lat="48.19853" lon="-3.97419">
        <ele>74.641431</ele>
        <time>2022-12-10T15:34:32.235Z</time>
      </trkpt>
      <trkpt lat="48.19864" lon="-3.97411">
        <ele>74.571045</ele>
        <time>2022-12-10T15:34:35.222Z</time>
      </trkpt>
      <trkpt lat="48.19875" lon="-3.97402">
        <ele>74.499983</ele>
        <time>2022-12-10T15:34:38.222Z</time>
      </trkpt>
      <trkpt lat="48.19886" lon="-3.97394">
        <ele>74.4279</ele>
        <time>2022-12-10T15:34:41.223Z</time>
      </trkpt>
      <trkpt lat="48.19897" lon="-3.97384">
        <ele>74.362737</ele>
        <time>2022-12-10T15:34:44.222Z</time>
      </trkpt>
      <trkpt lat="48.19907" lon="-3.97373">
        <ele>74.325701</ele>
        <time>2022-12-10T15:34:47.234Z</time>
      </trkpt>
      <trkpt lat="48.19917" lon="-3.97361">
        <ele>74.288526</ele>
        <time>2022-12-10T15:34:50.222Z</time>
      </trkpt>
      <trkpt lat="48.19926" lon="-3.9735">
        <ele>74.25356</ele>
        <time>2022-12-10T15:34:53.222Z</time>
      </trkpt>
      <trkpt lat="48.19935" lon="-3.97338">
        <ele>74.217593</ele>
        <time>2022-12-10T15:34:56.233Z</time>
      </trkpt>
      <trkpt lat="48.19945" lon="-3.97326">
        <ele>74.18004</ele>
        <time>2022-12-10T15:34:59.232Z</time>
      </trkpt>
      <trkpt lat="48.19954" lon="-3.97314">
        <ele>74.142958</ele>
        <time>2022-12-10T15:35:02.217Z</time>
      </trkpt>
      <trkpt lat="48.19963" lon="-3.973">
        <ele>74.105841</ele>
        <time>2022-12-10T15:35:05.214Z</time>
      </trkpt>
      <trkpt lat="48.19971" lon="-3.97287">
        <ele>74.069358</ele>
        <time>2022-12-10T15:35:08.221Z</time>
      </trkpt>
      <trkpt lat="48.1998" lon="-3.97274">
        <ele>74.032798</ele>
        <time>2022-12-10T15:35:11.216Z</time>
      </trkpt>
      <trkpt lat="48.19988" lon="-3.9726">
        <ele>73.995967</ele>
        <time>2022-12-10T15:35:14.241Z</time>
      </trkpt>
      <trkpt lat="48.19996" lon="-3.97246">
        <ele>73.960141</ele>
        <time>2022-12-10T15:35:17.224Z</time>
      </trkpt>
      <trkpt lat="48.20003" lon="-3.97231">
        <ele>73.922954</ele>
        <time>2022-12-10T15:35:20.220Z</time>
      </trkpt>
      <trkpt lat="48.2001" lon="-3.97215">
        <ele>73.885467</ele>
        <time>2022-12-10T15:35:23.222Z</time>
      </trkpt>
      <trkpt lat="48.20017" lon="-3.97201">
        <ele>73.850629</ele>
        <time>2022-12-10T15:35:26.217Z</time>
      </trkpt>
      <trkpt lat="48.20023" lon="-3.97184">
        <ele>73.905805</ele>
        <time>2022-12-10T15:35:29.234Z</time>
      </trkpt>
      <trkpt lat="48.2003" lon="-3.97168">
        <ele>74.036716</ele>
        <time>2022-12-10T15:35:32.223Z</time>
      </trkpt>
      <trkpt lat="48.20037" lon="-3.97152">
        <ele>74.166522</ele>
        <time>2022-12-10T15:35:35.216Z</time>
      </trkpt>
      <trkpt lat="48.20044" lon="-3.97136">
        <ele>74.297995</ele>
        <time>2022-12-10T15:35:38.218Z</time>
      </trkpt>
      <trkpt lat="48.20051" lon="-3.97122">
        <ele>74.415969</ele>
        <time>2022-12-10T15:35:41.225Z</time>
      </trkpt>
      <trkpt lat="48.20057" lon="-3.97109">
        <ele>74.523641</ele>
        <time>2022-12-10T15:35:44.224Z</time>
      </trkpt>
      <trkpt lat="48.20064" lon="-3.97096">
        <ele>74.635753</ele>
        <time>2022-12-10T15:35:47.222Z</time>
      </trkpt>
      <trkpt lat="48.20071" lon="-3.97084">
        <ele>74.752365</ele>
        <time>2022-12-10T15:35:50.221Z</time>
      </trkpt>
      <trkpt lat="48.2008" lon="-3.9707">
        <ele>74.87575</ele>
        <time>2022-12-10T15:35:53.222Z</time>
      </trkpt>
      <trkpt lat="48.20088" lon="-3.97056">
        <ele>75.004886</ele>
        <time>2022-12-10T15:35:56.227Z</time>
      </trkpt>
      <trkpt lat="48.20096" lon="-3.97043">
        <ele>75.125891</ele>
        <time>2022-12-10T15:35:59.238Z</time>
      </trkpt>
      <trkpt lat="48.20103" lon="-3.9703">
        <ele>75.243316</ele>
        <time>2022-12-10T15:36:02.220Z</time>
      </trkpt>
      <trkpt lat="48.20111" lon="-3.97016">
        <ele>75.365659</ele>
        <time>2022-12-10T15:36:05.222Z</time>
      </trkpt>
      <trkpt lat="48.20119" lon="-3.97003">
        <ele>75.485633</ele>
        <time>2022-12-10T15:36:08.236Z</time>
      </trkpt>
      <trkpt lat="48.20126" lon="-3.96989">
        <ele>75.60552</ele>
        <time>2022-12-10T15:36:11.217Z</time>
      </trkpt>
      <trkpt lat="48.20134" lon="-3.96975">
        <ele>75.70019</ele>
        <time>2022-12-10T15:36:14.217Z</time>
      </trkpt>
      <trkpt lat="48.20142" lon="-3.96961">
        <ele>75.75798</ele>
        <time>2022-12-10T15:36:17.228Z</time>
      </trkpt>
      <trkpt lat="48.20149" lon="-3.96947">
        <ele>75.813556</ele>
        <time>2022-12-10T15:36:20.233Z</time>
      </trkpt>
      <trkpt lat="48.20156" lon="-3.96933">
        <ele>75.868979</ele>
        <time>2022-12-10T15:36:23.224Z</time>
      </trkpt>
      <trkpt lat="48.20162" lon="-3.96919">
        <ele>75.924078</ele>
        <time>2022-12-10T15:36:26.221Z</time>
      </trkpt>
      <trkpt lat="48.20168" lon="-3.96905">
        <ele>75.977337</ele>
        <time>2022-12-10T15:36:29.222Z</time>
      </trkpt>
      <trkpt lat="48.20175" lon="-3.96892">
        <ele>76.030708</ele>
        <time>2022-12-10T15:36:32.227Z</time>
      </trkpt>
      <trkpt lat="48.2018" lon="-3.96876">
        <ele>76.088588</ele>
        <time>2022-12-10T15:36:35.219Z</time>
      </trkpt>
      <trkpt lat="48.20185" lon="-3.96861">
        <ele>76.143159</ele>
        <time>2022-12-10T15:36:38.217Z</time>
      </trkpt>
      <trkpt lat="48.20191" lon="-3.96845">
        <ele>76.201935</ele>
        <time>2022-12-10T15:36:41.222Z</time>
      </trkpt>
      <trkpt lat="48.20195" lon="-3.96828">
        <ele>76.260254</ele>
        <time>2022-12-10T15:36:44.224Z</time>
      </trkpt>
      <trkpt lat="48.20198" lon="-3.96811">
        <ele>76.315849</ele>
        <time>2022-12-10T15:36:47.225Z</time>
      </trkpt>
      <trkpt lat="48.202" lon="-3.96794">
        <ele>76.370252</ele>
        <time>2022-12-10T15:36:50.217Z</time>
      </trkpt>
      <trkpt lat="48.20203" lon="-3.96776">
        <ele>76.429664</ele>
        <time>2022-12-10T15:36:53.226Z</time>
      </trkpt>
      <trkpt lat="48.20206" lon="-3.96758">
        <ele>76.490751</ele>
        <time>2022-12-10T15:36:56.222Z</time>
      </trkpt>
      <trkpt lat="48.20209" lon="-3.96739">
        <ele>76.419483</ele>
        <time>2022-12-10T15:36:59.224Z</time>
      </trkpt>
      <trkpt lat="48.20213" lon="-3.96722">
        <ele>75.906958</ele>
        <time>2022-12-10T15:37:02.220Z</time>
      </trkpt>
      <trkpt lat="48.20215" lon="-3.96704">
        <ele>75.374238</ele>
        <time>2022-12-10T15:37:05.226Z</time>
      </trkpt>
      <trkpt lat="48.20214" lon="-3.96689">
        <ele>74.969043</ele>
        <time>2022-12-10T15:37:07.224Z</time>
      </trkpt>
      <trkpt lat="48.20214" lon="-3.96676">
        <ele>74.585097</ele>
        <time>2022-12-10T15:37:09.223Z</time>
      </trkpt>
      <trkpt lat="48.20213" lon="-3.96662">
        <ele>74.195348</ele>
        <time>2022-12-10T15:37:11.220Z</time>
      </trkpt>
      <trkpt lat="48.20213" lon="-3.96642">
        <ele>73.619979</ele>
        <time>2022-12-10T15:37:14.222Z</time>
      </trkpt>
      <trkpt lat="48.20211" lon="-3.96623">
        <ele>73.062319</ele>
        <time>2022-12-10T15:37:17.211Z</time>
      </trkpt>
      <trkpt lat="48.20209" lon="-3.96605">
        <ele>72.540489</ele>
        <time>2022-12-10T15:37:20.214Z</time>
      </trkpt>
      <trkpt lat="48.20205" lon="-3.96586">
        <ele>71.988784</ele>
        <time>2022-12-10T15:37:23.221Z</time>
      </trkpt>
      <trkpt lat="48.20198" lon="-3.96569">
        <ele>71.426585</ele>
        <time>2022-12-10T15:37:26.217Z</time>
      </trkpt>
      <trkpt lat="48.20193" lon="-3.96558">
        <ele>71.036194</ele>
        <time>2022-12-10T15:37:28.215Z</time>
      </trkpt>
      <trkpt lat="48.20188" lon="-3.96546">
        <ele>70.645451</ele>
        <time>2022-12-10T15:37:30.226Z</time>
      </trkpt>
      <trkpt lat="48.20183" lon="-3.96534">
        <ele>70.249373</ele>
        <time>2022-12-10T15:37:32.219Z</time>
      </trkpt>
      <trkpt lat="48.20177" lon="-3.96517">
        <ele>69.688837</ele>
        <time>2022-12-10T15:37:35.209Z</time>
      </trkpt>
      <trkpt lat="48.2017" lon="-3.96499">
        <ele>69.1208</ele>
        <time>2022-12-10T15:37:38.213Z</time>
      </trkpt>
      <trkpt lat="48.20164" lon="-3.96482">
        <ele>68.951636</ele>
        <time>2022-12-10T15:37:41.215Z</time>
      </trkpt>
      <trkpt lat="48.20158" lon="-3.96465">
        <ele>69.105475</ele>
        <time>2022-12-10T15:37:44.224Z</time>
      </trkpt>
      <trkpt lat="48.20153" lon="-3.96449">
        <ele>69.241873</ele>
        <time>2022-12-10T15:37:47.221Z</time>
      </trkpt>
      <trkpt lat="48.2015" lon="-3.96435">
        <ele>69.360091</ele>
        <time>2022-12-10T15:37:50.226Z</time>
      </trkpt>
      <trkpt lat="48.20146" lon="-3.9642">
        <ele>69.494451</ele>
        <time>2022-12-10T15:37:53.218Z</time>
      </trkpt>
      <trkpt lat="48.20142" lon="-3.96404">
        <ele>69.631005</ele>
        <time>2022-12-10T15:37:56.227Z</time>
      </trkpt>
      <trkpt lat="48.20137" lon="-3.96388">
        <ele>69.763721</ele>
        <time>2022-12-10T15:37:59.211Z</time>
      </trkpt>
      <trkpt lat="48.20134" lon="-3.96372">
        <ele>69.898084</ele>
        <time>2022-12-10T15:38:02.223Z</time>
      </trkpt>
      <trkpt lat="48.2013" lon="-3.96354">
        <ele>70.044827</ele>
        <time>2022-12-10T15:38:05.213Z</time>
      </trkpt>
      <trkpt lat="48.20126" lon="-3.96338">
        <ele>70.1803</ele>
        <time>2022-12-10T15:38:08.230Z</time>
      </trkpt>
      <trkpt lat="48.20123" lon="-3.96324">
        <ele>70.302207</ele>
        <time>2022-12-10T15:38:11.226Z</time>
      </trkpt>
      <trkpt lat="48.20121" lon="-3.96307">
        <ele>70.434362</ele>
        <time>2022-12-10T15:38:15.231Z</time>
      </trkpt>
      <trkpt lat="48.20116" lon="-3.96293">
        <ele>70.56357</ele>
        <time>2022-12-10T15:38:18.220Z</time>
      </trkpt>
      <trkpt lat="48.20109" lon="-3.96279">
        <ele>70.699634</ele>
        <time>2022-12-10T15:38:21.219Z</time>
      </trkpt>
      <trkpt lat="48.20103" lon="-3.96266">
        <ele>70.829703</ele>
        <time>2022-12-10T15:38:24.218Z</time>
      </trkpt>
      <trkpt lat="48.20097" lon="-3.96254">
        <ele>70.947344</ele>
        <time>2022-12-10T15:38:27.220Z</time>
      </trkpt>
      <trkpt lat="48.20089" lon="-3.96242">
        <ele>71.090534</ele>
        <time>2022-12-10T15:38:30.217Z</time>
      </trkpt>
      <trkpt lat="48.2008" lon="-3.9623">
        <ele>71.260917</ele>
        <time>2022-12-10T15:38:33.224Z</time>
      </trkpt>
      <trkpt lat="48.2007" lon="-3.96218">
        <ele>71.432479</ele>
        <time>2022-12-10T15:38:36.224Z</time>
      </trkpt>
      <trkpt lat="48.2006" lon="-3.96208">
        <ele>71.599488</ele>
        <time>2022-12-10T15:38:39.215Z</time>
      </trkpt>
      <trkpt lat="48.20049" lon="-3.96198">
        <ele>71.779451</ele>
        <time>2022-12-10T15:38:42.223Z</time>
      </trkpt>
      <trkpt lat="48.20039" lon="-3.96189">
        <ele>71.943765</ele>
        <time>2022-12-10T15:38:45.235Z</time>
      </trkpt>
      <trkpt lat="48.20029" lon="-3.96181">
        <ele>72.101433</ele>
        <time>2022-12-10T15:38:48.232Z</time>
      </trkpt>
      <trkpt lat="48.20019" lon="-3.96172">
        <ele>72.262615</ele>
        <time>2022-12-10T15:38:51.222Z</time>
      </trkpt>
      <trkpt lat="48.20008" lon="-3.96163">
        <ele>72.430831</ele>
        <time>2022-12-10T15:38:54.220Z</time>
      </trkpt>
      <trkpt lat="48.19997" lon="-3.96157">
        <ele>72.60185</ele>
        <time>2022-12-10T15:38:57.226Z</time>
      </trkpt>
      <trkpt lat="48.19985" lon="-3.9615">
        <ele>72.780648</ele>
        <time>2022-12-10T15:39:00.216Z</time>
      </trkpt>
      <trkpt lat="48.19973" lon="-3.96144">
        <ele>72.957022</ele>
        <time>2022-12-10T15:39:03.217Z</time>
      </trkpt>
      <trkpt lat="48.19961" lon="-3.96139">
        <ele>73.12068</ele>
        <time>2022-12-10T15:39:06.244Z</time>
      </trkpt>
      <trkpt lat="48.19949" lon="-3.96133">
        <ele>73.293296</ele>
        <time>2022-12-10T15:39:09.221Z</time>
      </trkpt>
      <trkpt lat="48.19938" lon="-3.96127">
        <ele>73.459438</ele>
        <time>2022-12-10T15:39:12.226Z</time>
      </trkpt>
      <trkpt lat="48.19926" lon="-3.96121">
        <ele>73.559817</ele>
        <time>2022-12-10T15:39:15.221Z</time>
      </trkpt>
      <trkpt lat="48.19914" lon="-3.96115">
        <ele>73.638274</ele>
        <time>2022-12-10T15:39:18.231Z</time>
      </trkpt>
      <trkpt lat="48.19902" lon="-3.96109">
        <ele>73.719044</ele>
        <time>2022-12-10T15:39:21.234Z</time>
      </trkpt>
      <trkpt lat="48.1989" lon="-3.96104">
        <ele>73.798922</ele>
        <time>2022-12-10T15:39:24.221Z</time>
      </trkpt>
      <trkpt lat="48.19878" lon="-3.96098">
        <ele>73.877977</ele>
        <time>2022-12-10T15:39:27.221Z</time>
      </trkpt>
      <trkpt lat="48.19865" lon="-3.96092">
        <ele>73.961593</ele>
        <time>2022-12-10T15:39:30.219Z</time>
      </trkpt>
      <trkpt lat="48.19854" lon="-3.96085">
        <ele>74.04027</ele>
        <time>2022-12-10T15:39:33.219Z</time>
      </trkpt>
      <trkpt lat="48.19842" lon="-3.96079">
        <ele>74.120582</ele>
        <time>2022-12-10T15:39:36.222Z</time>
      </trkpt>
      <trkpt lat="48.1983" lon="-3.96072">
        <ele>74.19544</ele>
        <time>2022-12-10T15:39:39.221Z</time>
      </trkpt>
      <trkpt lat="48.19819" lon="-3.96066">
        <ele>74.274118</ele>
        <time>2022-12-10T15:39:42.228Z</time>
      </trkpt>
      <trkpt lat="48.19806" lon="-3.9606">
        <ele>74.358332</ele>
        <time>2022-12-10T15:39:45.219Z</time>
      </trkpt>
      <trkpt lat="48.19793" lon="-3.96053">
        <ele>74.441262</ele>
        <time>2022-12-10T15:39:48.242Z</time>
      </trkpt>
      <trkpt lat="48.19781" lon="-3.96047">
        <ele>74.520913</ele>
        <time>2022-12-10T15:39:51.224Z</time>
      </trkpt>
      <trkpt lat="48.19769" lon="-3.9604">
        <ele>74.600176</ele>
        <time>2022-12-10T15:39:54.221Z</time>
      </trkpt>
      <trkpt lat="48.19757" lon="-3.96034">
        <ele>74.649342</ele>
        <time>2022-12-10T15:39:57.226Z</time>
      </trkpt>
      <trkpt lat="48.19745" lon="-3.96027">
        <ele>74.682975</ele>
        <time>2022-12-10T15:40:00.221Z</time>
      </trkpt>
      <trkpt lat="48.19732" lon="-3.9602">
        <ele>74.71649</ele>
        <time>2022-12-10T15:40:03.235Z</time>
      </trkpt>
      <trkpt lat="48.1972" lon="-3.96014">
        <ele>74.748413</ele>
        <time>2022-12-10T15:40:06.245Z</time>
      </trkpt>
      <trkpt lat="48.19708" lon="-3.9601">
        <ele>74.779564</ele>
        <time>2022-12-10T15:40:09.222Z</time>
      </trkpt>
      <trkpt lat="48.19696" lon="-3.96006">
        <ele>74.811486</ele>
        <time>2022-12-10T15:40:12.219Z</time>
      </trkpt>
      <trkpt lat="48.19683" lon="-3.96003">
        <ele>74.844472</ele>
        <time>2022-12-10T15:40:15.232Z</time>
      </trkpt>
      <trkpt lat="48.1967" lon="-3.96002">
        <ele>74.878387</ele>
        <time>2022-12-10T15:40:18.221Z</time>
      </trkpt>
      <trkpt lat="48.19656" lon="-3.96002">
        <ele>74.911718</ele>
        <time>2022-12-10T15:40:21.222Z</time>
      </trkpt>
      <trkpt lat="48.19647" lon="-3.96002">
        <ele>74.935461</ele>
        <time>2022-12-10T15:40:23.221Z</time>
      </trkpt>
      <trkpt lat="48.19637" lon="-3.96001">
        <ele>74.959721</ele>
        <time>2022-12-10T15:40:25.218Z</time>
      </trkpt>
      <trkpt lat="48.19624" lon="-3.96">
        <ele>74.994371</ele>
        <time>2022-12-10T15:40:28.228Z</time>
      </trkpt>
      <trkpt lat="48.19614" lon="-3.95999">
        <ele>75.018126</ele>
        <time>2022-12-10T15:40:30.229Z</time>
      </trkpt>
      <trkpt lat="48.19605" lon="-3.95999">
        <ele>75.041863</ele>
        <time>2022-12-10T15:40:32.224Z</time>
      </trkpt>
      <trkpt lat="48.19595" lon="-3.95998">
        <ele>75.065635</ele>
        <time>2022-12-10T15:40:34.233Z</time>
      </trkpt>
      <trkpt lat="48.19586" lon="-3.95998">
        <ele>75.102624</ele>
        <time>2022-12-10T15:40:36.217Z</time>
      </trkpt>
      <trkpt lat="48.19577" lon="-3.95997">
        <ele>75.172648</ele>
        <time>2022-12-10T15:40:38.226Z</time>
      </trkpt>
      <trkpt lat="48.19564" lon="-3.95996">
        <ele>75.273723</ele>
        <time>2022-12-10T15:40:41.226Z</time>
      </trkpt>
      <trkpt lat="48.19552" lon="-3.95996">
        <ele>75.371659</ele>
        <time>2022-12-10T15:40:44.220Z</time>
      </trkpt>
      <trkpt lat="48.19539" lon="-3.95995">
        <ele>75.469583</ele>
        <time>2022-12-10T15:40:47.226Z</time>
      </trkpt>
      <trkpt lat="48.19527" lon="-3.95996">
        <ele>75.56516</ele>
        <time>2022-12-10T15:40:50.243Z</time>
      </trkpt>
      <trkpt lat="48.19514" lon="-3.95996">
        <ele>75.66229</ele>
        <time>2022-12-10T15:40:53.221Z</time>
      </trkpt>
      <trkpt lat="48.19502" lon="-3.95995">
        <ele>75.756343</ele>
        <time>2022-12-10T15:40:56.226Z</time>
      </trkpt>
      <trkpt lat="48.19491" lon="-3.95996">
        <ele>75.846499</ele>
        <time>2022-12-10T15:40:59.223Z</time>
      </trkpt>
      <trkpt lat="48.19479" lon="-3.95995">
        <ele>75.934325</ele>
        <time>2022-12-10T15:41:02.239Z</time>
      </trkpt>
      <trkpt lat="48.19468" lon="-3.95994">
        <ele>76.022249</ele>
        <time>2022-12-10T15:41:05.218Z</time>
      </trkpt>
      <trkpt lat="48.19457" lon="-3.95994">
        <ele>76.111618</ele>
        <time>2022-12-10T15:41:08.226Z</time>
      </trkpt>
      <trkpt lat="48.19445" lon="-3.95993">
        <ele>76.198718</ele>
        <time>2022-12-10T15:41:11.229Z</time>
      </trkpt>
      <trkpt lat="48.19435" lon="-3.95993">
        <ele>76.282712</ele>
        <time>2022-12-10T15:41:14.218Z</time>
      </trkpt>
      <trkpt lat="48.19423" lon="-3.95992">
        <ele>76.368984</ele>
        <time>2022-12-10T15:41:17.234Z</time>
      </trkpt>
      <trkpt lat="48.19411" lon="-3.95992">
        <ele>76.462225</ele>
        <time>2022-12-10T15:41:20.222Z</time>
      </trkpt>
      <trkpt lat="48.194" lon="-3.95992">
        <ele>76.468863</ele>
        <time>2022-12-10T15:41:23.227Z</time>
      </trkpt>
      <trkpt lat="48.19388" lon="-3.95992">
        <ele>76.455803</ele>
        <time>2022-12-10T15:41:26.227Z</time>
      </trkpt>
      <trkpt lat="48.19377" lon="-3.95992">
        <ele>76.443177</ele>
        <time>2022-12-10T15:41:29.221Z</time>
      </trkpt>
      <trkpt lat="48.19365" lon="-3.95991">
        <ele>76.430226</ele>
        <time>2022-12-10T15:41:32.220Z</time>
      </trkpt>
      <trkpt lat="48.19353" lon="-3.9599">
        <ele>76.416608</ele>
        <time>2022-12-10T15:41:35.237Z</time>
      </trkpt>
      <trkpt lat="48.19341" lon="-3.9599">
        <ele>76.402988</ele>
        <time>2022-12-10T15:41:38.243Z</time>
      </trkpt>
      <trkpt lat="48.19329" lon="-3.95989">
        <ele>76.389365</ele>
        <time>2022-12-10T15:41:41.220Z</time>
      </trkpt>
      <trkpt lat="48.19316" lon="-3.95989">
        <ele>76.375641</ele>
        <time>2022-12-10T15:41:44.224Z</time>
      </trkpt>
      <trkpt lat="48.19304" lon="-3.95989">
        <ele>76.36214</ele>
        <time>2022-12-10T15:41:47.223Z</time>
      </trkpt>
      <trkpt lat="48.19292" lon="-3.95989">
        <ele>76.349085</ele>
        <time>2022-12-10T15:41:50.221Z</time>
      </trkpt>
      <trkpt lat="48.19282" lon="-3.95989">
        <ele>76.337815</ele>
        <time>2022-12-10T15:41:53.217Z</time>
      </trkpt>
      <trkpt lat="48.19273" lon="-3.95988">
        <ele>76.327425</ele>
        <time>2022-12-10T15:41:56.232Z</time>
      </trkpt>
      <trkpt lat="48.19263" lon="-3.95988">
        <ele>76.316701</ele>
        <time>2022-12-10T15:41:59.234Z</time>
      </trkpt>
      <trkpt lat="48.19253" lon="-3.95988">
        <ele>76.304762</ele>
        <time>2022-12-10T15:42:02.227Z</time>
      </trkpt>
      <trkpt lat="48.19241" lon="-3.95987">
        <ele>76.29159</ele>
        <time>2022-12-10T15:42:05.220Z</time>
      </trkpt>
      <trkpt lat="48.19229" lon="-3.95986">
        <ele>76.277932</ele>
        <time>2022-12-10T15:42:08.222Z</time>
      </trkpt>
      <trkpt lat="48.19217" lon="-3.95986">
        <ele>76.259147</ele>
        <time>2022-12-10T15:42:11.215Z</time>
      </trkpt>
      <trkpt lat="48.19206" lon="-3.95986">
        <ele>76.241495</ele>
        <time>2022-12-10T15:42:14.218Z</time>
      </trkpt>
      <trkpt lat="48.19196" lon="-3.95985">
        <ele>76.224974</ele>
        <time>2022-12-10T15:42:17.223Z</time>
      </trkpt>
      <trkpt lat="48.19185" lon="-3.95985">
        <ele>76.206507</ele>
        <time>2022-12-10T15:42:20.228Z</time>
      </trkpt>
      <trkpt lat="48.19173" lon="-3.95984">
        <ele>76.187538</ele>
        <time>2022-12-10T15:42:23.228Z</time>
      </trkpt>
      <trkpt lat="48.19161" lon="-3.95984">
        <ele>76.168593</ele>
        <time>2022-12-10T15:42:26.223Z</time>
      </trkpt>
      <trkpt lat="48.19149" lon="-3.95982">
        <ele>76.148915</ele>
        <time>2022-12-10T15:42:29.225Z</time>
      </trkpt>
      <trkpt lat="48.19136" lon="-3.95981">
        <ele>76.12801</ele>
        <time>2022-12-10T15:42:32.215Z</time>
      </trkpt>
      <trkpt lat="48.19127" lon="-3.95981">
        <ele>76.113438</ele>
        <time>2022-12-10T15:42:34.220Z</time>
      </trkpt>
      <trkpt lat="48.19115" lon="-3.95981">
        <ele>76.093517</ele>
        <time>2022-12-10T15:42:37.226Z</time>
      </trkpt>
      <trkpt lat="48.19102" lon="-3.9598">
        <ele>76.072949</ele>
        <time>2022-12-10T15:42:40.221Z</time>
      </trkpt>
      <trkpt lat="48.1909" lon="-3.9598">
        <ele>76.05221</ele>
        <time>2022-12-10T15:42:43.234Z</time>
      </trkpt>
      <trkpt lat="48.19077" lon="-3.95979">
        <ele>76.031309</ele>
        <time>2022-12-10T15:42:46.228Z</time>
      </trkpt>
      <trkpt lat="48.19064" lon="-3.95978">
        <ele>76.010238</ele>
        <time>2022-12-10T15:42:49.222Z</time>
      </trkpt>
      <trkpt lat="48.19051" lon="-3.95977">
        <ele>75.989656</ele>
        <time>2022-12-10T15:42:52.215Z</time>
      </trkpt>
      <trkpt lat="48.19039" lon="-3.95977">
        <ele>76.142874</ele>
        <time>2022-12-10T15:42:55.228Z</time>
      </trkpt>
      <trkpt lat="48.19026" lon="-3.95977">
        <ele>76.320889</ele>
        <time>2022-12-10T15:42:58.219Z</time>
      </trkpt>
      <trkpt lat="48.19013" lon="-3.95978">
        <ele>76.5019</ele>
        <time>2022-12-10T15:43:01.223Z</time>
      </trkpt>
      <trkpt lat="48.19" lon="-3.9598">
        <ele>76.680891</ele>
        <time>2022-12-10T15:43:04.223Z</time>
      </trkpt>
      <trkpt lat="48.18988" lon="-3.95982">
        <ele>76.858392</ele>
        <time>2022-12-10T15:43:07.224Z</time>
      </trkpt>
      <trkpt lat="48.18977" lon="-3.95983">
        <ele>77.008606</ele>
        <time>2022-12-10T15:43:10.225Z</time>
      </trkpt>
      <trkpt lat="48.18967" lon="-3.95986">
        <ele>77.153951</ele>
        <time>2022-12-10T15:43:13.219Z</time>
      </trkpt>
      <trkpt lat="48.18956" lon="-3.95988">
        <ele>77.306481</ele>
        <time>2022-12-10T15:43:16.219Z</time>
      </trkpt>
      <trkpt lat="48.18945" lon="-3.95989">
        <ele>77.467806</ele>
        <time>2022-12-10T15:43:19.221Z</time>
      </trkpt>
      <trkpt lat="48.18933" lon="-3.95989">
        <ele>77.636134</ele>
        <time>2022-12-10T15:43:22.227Z</time>
      </trkpt>
      <trkpt lat="48.18921" lon="-3.95992">
        <ele>77.799147</ele>
        <time>2022-12-10T15:43:25.240Z</time>
      </trkpt>
      <trkpt lat="48.1891" lon="-3.95993">
        <ele>77.960796</ele>
        <time>2022-12-10T15:43:28.228Z</time>
      </trkpt>
      <trkpt lat="48.18898" lon="-3.95993">
        <ele>78.126204</ele>
        <time>2022-12-10T15:43:31.223Z</time>
      </trkpt>
      <trkpt lat="48.18886" lon="-3.95993">
        <ele>78.293045</ele>
        <time>2022-12-10T15:43:34.223Z</time>
      </trkpt>
      <trkpt lat="48.18874" lon="-3.95992">
        <ele>78.453057</ele>
        <time>2022-12-10T15:43:37.224Z</time>
      </trkpt>
      <trkpt lat="48.18863" lon="-3.9599">
        <ele>78.610629</ele>
        <time>2022-12-10T15:43:40.226Z</time>
      </trkpt>
      <trkpt lat="48.18851" lon="-3.95989">
        <ele>78.759399</ele>
        <time>2022-12-10T15:43:43.226Z</time>
      </trkpt>
      <trkpt lat="48.18839" lon="-3.95986">
        <ele>78.90972</ele>
        <time>2022-12-10T15:43:46.222Z</time>
      </trkpt>
      <trkpt lat="48.18829" lon="-3.95982">
        <ele>79.047568</ele>
        <time>2022-12-10T15:43:49.223Z</time>
      </trkpt>
      <trkpt lat="48.1882" lon="-3.95976">
        <ele>79.171358</ele>
        <time>2022-12-10T15:43:52.228Z</time>
      </trkpt>
      <trkpt lat="48.18811" lon="-3.9597">
        <ele>79.296118</ele>
        <time>2022-12-10T15:43:55.232Z</time>
      </trkpt>
      <trkpt lat="48.18802" lon="-3.95963">
        <ele>79.422876</ele>
        <time>2022-12-10T15:43:58.225Z</time>
      </trkpt>
      <trkpt lat="48.18794" lon="-3.95953">
        <ele>79.560694</ele>
        <time>2022-12-10T15:44:01.218Z</time>
      </trkpt>
      <trkpt lat="48.18785" lon="-3.95942">
        <ele>79.705986</ele>
        <time>2022-12-10T15:44:04.225Z</time>
      </trkpt>
      <trkpt lat="48.18777" lon="-3.95929">
        <ele>79.858459</ele>
        <time>2022-12-10T15:44:07.225Z</time>
      </trkpt>
      <trkpt lat="48.18769" lon="-3.95914">
        <ele>80.020051</ele>
        <time>2022-12-10T15:44:10.226Z</time>
      </trkpt>
      <trkpt lat="48.18763" lon="-3.95898">
        <ele>80.182974</ele>
        <time>2022-12-10T15:44:13.225Z</time>
      </trkpt>
      <trkpt lat="48.18757" lon="-3.95881">
        <ele>80.342721</ele>
        <time>2022-12-10T15:44:16.231Z</time>
      </trkpt>
      <trkpt lat="48.18752" lon="-3.95865">
        <ele>80.490393</ele>
        <time>2022-12-10T15:44:19.227Z</time>
      </trkpt>
      <trkpt lat="48.18748" lon="-3.95848">
        <ele>80.642916</ele>
        <time>2022-12-10T15:44:22.231Z</time>
      </trkpt>
      <trkpt lat="48.18744" lon="-3.95831">
        <ele>80.797431</ele>
        <time>2022-12-10T15:44:25.231Z</time>
      </trkpt>
      <trkpt lat="48.18739" lon="-3.95813">
        <ele>80.52449</ele>
        <time>2022-12-10T15:44:28.219Z</time>
      </trkpt>
      <trkpt lat="48.18736" lon="-3.95796">
        <ele>80.244723</ele>
        <time>2022-12-10T15:44:31.225Z</time>
      </trkpt>
      <trkpt lat="48.18734" lon="-3.95779">
        <ele>79.981916</ele>
        <time>2022-12-10T15:44:34.238Z</time>
      </trkpt>
      <trkpt lat="48.18731" lon="-3.95761">
        <ele>79.698702</ele>
        <time>2022-12-10T15:44:37.228Z</time>
      </trkpt>
      <trkpt lat="48.18727" lon="-3.95743">
        <ele>79.404461</ele>
        <time>2022-12-10T15:44:40.225Z</time>
      </trkpt>
      <trkpt lat="48.18724" lon="-3.95723">
        <ele>79.101879</ele>
        <time>2022-12-10T15:44:43.216Z</time>
      </trkpt>
      <trkpt lat="48.18722" lon="-3.95705">
        <ele>78.827002</ele>
        <time>2022-12-10T15:44:46.225Z</time>
      </trkpt>
      <trkpt lat="48.18722" lon="-3.95688">
        <ele>78.561183</ele>
        <time>2022-12-10T15:44:49.229Z</time>
      </trkpt>
      <trkpt lat="48.18721" lon="-3.95669">
        <ele>78.271884</ele>
        <time>2022-12-10T15:44:52.234Z</time>
      </trkpt>
      <trkpt lat="48.18721" lon="-3.95651">
        <ele>78.002818</ele>
        <time>2022-12-10T15:44:55.237Z</time>
      </trkpt>
      <trkpt lat="48.1872" lon="-3.95634">
        <ele>77.7402</ele>
        <time>2022-12-10T15:44:58.225Z</time>
      </trkpt>
      <trkpt lat="48.1872" lon="-3.95616">
        <ele>77.45618</ele>
        <time>2022-12-10T15:45:01.225Z</time>
      </trkpt>
      <trkpt lat="48.18721" lon="-3.95596">
        <ele>77.15685</ele>
        <time>2022-12-10T15:45:04.224Z</time>
      </trkpt>
      <trkpt lat="48.18721" lon="-3.95577">
        <ele>76.86186</ele>
        <time>2022-12-10T15:45:07.217Z</time>
      </trkpt>
      <trkpt lat="48.18722" lon="-3.95558">
        <ele>76.668678</ele>
        <time>2022-12-10T15:45:10.242Z</time>
      </trkpt>
      <trkpt lat="48.18723" lon="-3.9554">
        <ele>76.628704</ele>
        <time>2022-12-10T15:45:13.232Z</time>
      </trkpt>
      <trkpt lat="48.18726" lon="-3.95522">
        <ele>76.588839</ele>
        <time>2022-12-10T15:45:16.244Z</time>
      </trkpt>
      <trkpt lat="48.18729" lon="-3.95503">
        <ele>76.547142</ele>
        <time>2022-12-10T15:45:19.230Z</time>
      </trkpt>
      <trkpt lat="48.18731" lon="-3.95487">
        <ele>76.509756</ele>
        <time>2022-12-10T15:45:22.221Z</time>
      </trkpt>
      <trkpt lat="48.18733" lon="-3.95469">
        <ele>76.472041</ele>
        <time>2022-12-10T15:45:25.262Z</time>
      </trkpt>
      <trkpt lat="48.18737" lon="-3.95452">
        <ele>76.433332</ele>
        <time>2022-12-10T15:45:28.221Z</time>
      </trkpt>
      <trkpt lat="48.18741" lon="-3.95436">
        <ele>76.396175</ele>
        <time>2022-12-10T15:45:31.237Z</time>
      </trkpt>
      <trkpt lat="48.18744" lon="-3.9542">
        <ele>76.358461</ele>
        <time>2022-12-10T15:45:34.216Z</time>
      </trkpt>
      <trkpt lat="48.18747" lon="-3.954">
        <ele>76.314771</ele>
        <time>2022-12-10T15:45:37.216Z</time>
      </trkpt>
      <trkpt lat="48.18752" lon="-3.95382">
        <ele>76.271611</ele>
        <time>2022-12-10T15:45:40.223Z</time>
      </trkpt>
      <trkpt lat="48.18756" lon="-3.95365">
        <ele>76.23322</ele>
        <time>2022-12-10T15:45:43.227Z</time>
      </trkpt>
      <trkpt lat="48.1876" lon="-3.95348">
        <ele>76.193305</ele>
        <time>2022-12-10T15:45:46.223Z</time>
      </trkpt>
      <trkpt lat="48.18766" lon="-3.95331">
        <ele>76.152279</ele>
        <time>2022-12-10T15:45:49.221Z</time>
      </trkpt>
      <trkpt lat="48.18771" lon="-3.95315">
        <ele>76.113308</ele>
        <time>2022-12-10T15:45:52.225Z</time>
      </trkpt>
      <trkpt lat="48.18776" lon="-3.95299">
        <ele>76.015828</ele>
        <time>2022-12-10T15:45:55.219Z</time>
      </trkpt>
      <trkpt lat="48.18783" lon="-3.95284">
        <ele>75.881802</ele>
        <time>2022-12-10T15:45:58.221Z</time>
      </trkpt>
      <trkpt lat="48.1879" lon="-3.95268">
        <ele>75.730629</ele>
        <time>2022-12-10T15:46:01.222Z</time>
      </trkpt>
      <trkpt lat="48.18798" lon="-3.9525">
        <ele>75.569905</ele>
        <time>2022-12-10T15:46:04.221Z</time>
      </trkpt>
      <trkpt lat="48.18806" lon="-3.95234">
        <ele>75.41723</ele>
        <time>2022-12-10T15:46:07.226Z</time>
      </trkpt>
      <trkpt lat="48.18811" lon="-3.95223">
        <ele>75.313061</ele>
        <time>2022-12-10T15:46:09.226Z</time>
      </trkpt>
      <trkpt lat="48.18817" lon="-3.95212">
        <ele>75.204964</ele>
        <time>2022-12-10T15:46:11.223Z</time>
      </trkpt>
      <trkpt lat="48.18822" lon="-3.952">
        <ele>75.101426</ele>
        <time>2022-12-10T15:46:13.221Z</time>
      </trkpt>
      <trkpt lat="48.18827" lon="-3.95189">
        <ele>74.995981</ele>
        <time>2022-12-10T15:46:15.244Z</time>
      </trkpt>
      <trkpt lat="48.18835" lon="-3.95174">
        <ele>74.847648</ele>
        <time>2022-12-10T15:46:18.224Z</time>
      </trkpt>
      <trkpt lat="48.18841" lon="-3.95161">
        <ele>74.731409</ele>
        <time>2022-12-10T15:46:20.222Z</time>
      </trkpt>
      <trkpt lat="48.18847" lon="-3.95144">
        <ele>74.582029</ele>
        <time>2022-12-10T15:46:23.218Z</time>
      </trkpt>
      <trkpt lat="48.18854" lon="-3.95127">
        <ele>74.431855</ele>
        <time>2022-12-10T15:46:26.224Z</time>
      </trkpt>
      <trkpt lat="48.18861" lon="-3.9511">
        <ele>74.283576</ele>
        <time>2022-12-10T15:46:29.218Z</time>
      </trkpt>
      <trkpt lat="48.18866" lon="-3.95095">
        <ele>74.147651</ele>
        <time>2022-12-10T15:46:32.223Z</time>
      </trkpt>
      <trkpt lat="48.18872" lon="-3.95078">
        <ele>74.011539</ele>
        <time>2022-12-10T15:46:35.215Z</time>
      </trkpt>
      <trkpt lat="48.18878" lon="-3.95062">
        <ele>73.896708</ele>
        <time>2022-12-10T15:46:38.225Z</time>
      </trkpt>
      <trkpt lat="48.18883" lon="-3.95049">
        <ele>73.806952</ele>
        <time>2022-12-10T15:46:41.229Z</time>
      </trkpt>
      <trkpt lat="48.18888" lon="-3.95036">
        <ele>73.713475</ele>
        <time>2022-12-10T15:46:44.217Z</time>
      </trkpt>
      <trkpt lat="48.18894" lon="-3.9502">
        <ele>73.601888</ele>
        <time>2022-12-10T15:46:48.221Z</time>
      </trkpt>
      <trkpt lat="48.18899" lon="-3.95004">
        <ele>73.496061</ele>
        <time>2022-12-10T15:46:51.231Z</time>
      </trkpt>
      <trkpt lat="48.18903" lon="-3.94988">
        <ele>73.39079</ele>
        <time>2022-12-10T15:46:54.226Z</time>
      </trkpt>
      <trkpt lat="48.18908" lon="-3.94972">
        <ele>73.282171</ele>
        <time>2022-12-10T15:46:57.217Z</time>
      </trkpt>
      <trkpt lat="48.18913" lon="-3.94956">
        <ele>73.17336</ele>
        <time>2022-12-10T15:47:00.222Z</time>
      </trkpt>
      <trkpt lat="48.18917" lon="-3.9494">
        <ele>73.065614</ele>
        <time>2022-12-10T15:47:03.225Z</time>
      </trkpt>
      <trkpt lat="48.18921" lon="-3.94923">
        <ele>72.952976</ele>
        <time>2022-12-10T15:47:06.249Z</time>
      </trkpt>
      <trkpt lat="48.18925" lon="-3.94905">
        <ele>72.837293</ele>
        <time>2022-12-10T15:47:09.218Z</time>
      </trkpt>
      <trkpt lat="48.1893" lon="-3.94887">
        <ele>72.719182</ele>
        <time>2022-12-10T15:47:12.219Z</time>
      </trkpt>
      <trkpt lat="48.18934" lon="-3.94869">
        <ele>72.602786</ele>
        <time>2022-12-10T15:47:15.228Z</time>
      </trkpt>
      <trkpt lat="48.18939" lon="-3.94851">
        <ele>72.482744</ele>
        <time>2022-12-10T15:47:18.221Z</time>
      </trkpt>
      <trkpt lat="48.18945" lon="-3.94834">
        <ele>72.337685</ele>
        <time>2022-12-10T15:47:21.230Z</time>
      </trkpt>
      <trkpt lat="48.18948" lon="-3.94817">
        <ele>71.996155</ele>
        <time>2022-12-10T15:47:24.223Z</time>
      </trkpt>
      <trkpt lat="48.18952" lon="-3.94799">
        <ele>71.622634</ele>
        <time>2022-12-10T15:47:27.229Z</time>
      </trkpt>
      <trkpt lat="48.18956" lon="-3.9478">
        <ele>71.235329</ele>
        <time>2022-12-10T15:47:30.223Z</time>
      </trkpt>
      <trkpt lat="48.1896" lon="-3.94768">
        <ele>70.972389</ele>
        <time>2022-12-10T15:47:32.222Z</time>
      </trkpt>
      <trkpt lat="48.18964" lon="-3.94755">
        <ele>70.704745</ele>
        <time>2022-12-10T15:47:34.226Z</time>
      </trkpt>
      <trkpt lat="48.1897" lon="-3.94739">
        <ele>70.358813</ele>
        <time>2022-12-10T15:47:37.220Z</time>
      </trkpt>
      <trkpt lat="48.18974" lon="-3.94725">
        <ele>70.045073</ele>
        <time>2022-12-10T15:47:40.226Z</time>
      </trkpt>
      <trkpt lat="48.18978" lon="-3.94711">
        <ele>69.760589</ele>
        <time>2022-12-10T15:47:43.227Z</time>
      </trkpt>
      <trkpt lat="48.18982" lon="-3.94698">
        <ele>69.46697</ele>
        <time>2022-12-10T15:47:46.228Z</time>
      </trkpt>
      <trkpt lat="48.18987" lon="-3.94683">
        <ele>69.147963</ele>
        <time>2022-12-10T15:47:49.224Z</time>
      </trkpt>
      <trkpt lat="48.18993" lon="-3.94669">
        <ele>68.830352</ele>
        <time>2022-12-10T15:47:52.224Z</time>
      </trkpt>
      <trkpt lat="48.18999" lon="-3.94653">
        <ele>68.463657</ele>
        <time>2022-12-10T15:47:55.226Z</time>
      </trkpt>
      <trkpt lat="48.19005" lon="-3.94638">
        <ele>68.11983</ele>
        <time>2022-12-10T15:47:58.237Z</time>
      </trkpt>
      <trkpt lat="48.19013" lon="-3.94624">
        <ele>67.78454</ele>
        <time>2022-12-10T15:48:01.231Z</time>
      </trkpt>
      <trkpt lat="48.19016" lon="-3.94608">
        <ele>67.454267</ele>
        <time>2022-12-10T15:48:04.226Z</time>
      </trkpt>
      <trkpt lat="48.19023" lon="-3.9459">
        <ele>67.241707</ele>
        <time>2022-12-10T15:48:07.229Z</time>
      </trkpt>
      <trkpt lat="48.19028" lon="-3.94573">
        <ele>67.593937</ele>
        <time>2022-12-10T15:48:10.226Z</time>
      </trkpt>
      <trkpt lat="48.19033" lon="-3.94557">
        <ele>67.929314</ele>
        <time>2022-12-10T15:48:13.234Z</time>
      </trkpt>
      <trkpt lat="48.19039" lon="-3.94545">
        <ele>68.204413</ele>
        <time>2022-12-10T15:48:16.225Z</time>
      </trkpt>
      <trkpt lat="48.19044" lon="-3.94531">
        <ele>68.504612</ele>
        <time>2022-12-10T15:48:19.223Z</time>
      </trkpt>
      <trkpt lat="48.1905" lon="-3.94516">
        <ele>68.832614</ele>
        <time>2022-12-10T15:48:22.232Z</time>
      </trkpt>
      <trkpt lat="48.19057" lon="-3.945">
        <ele>69.19143</ele>
        <time>2022-12-10T15:48:25.216Z</time>
      </trkpt>
      <trkpt lat="48.19061" lon="-3.94484">
        <ele>69.519071</ele>
        <time>2022-12-10T15:48:28.226Z</time>
      </trkpt>
      <trkpt lat="48.19067" lon="-3.94468">
        <ele>69.855708</ele>
        <time>2022-12-10T15:48:31.225Z</time>
      </trkpt>
      <trkpt lat="48.19072" lon="-3.94453">
        <ele>70.170766</ele>
        <time>2022-12-10T15:48:34.224Z</time>
      </trkpt>
      <trkpt lat="48.19079" lon="-3.94438">
        <ele>70.515958</ele>
        <time>2022-12-10T15:48:37.225Z</time>
      </trkpt>
      <trkpt lat="48.19086" lon="-3.94421">
        <ele>70.8815</ele>
        <time>2022-12-10T15:48:40.225Z</time>
      </trkpt>
      <trkpt lat="48.19092" lon="-3.94406">
        <ele>71.214087</ele>
        <time>2022-12-10T15:48:43.224Z</time>
      </trkpt>
      <trkpt lat="48.19097" lon="-3.94391">
        <ele>71.524224</ele>
        <time>2022-12-10T15:48:46.230Z</time>
      </trkpt>
      <trkpt lat="48.19103" lon="-3.94377">
        <ele>71.845976</ele>
        <time>2022-12-10T15:48:49.220Z</time>
      </trkpt>
      <trkpt lat="48.19109" lon="-3.94363">
        <ele>72.146347</ele>
        <time>2022-12-10T15:48:52.225Z</time>
      </trkpt>
      <trkpt lat="48.19114" lon="-3.94349">
        <ele>72.427439</ele>
        <time>2022-12-10T15:48:55.239Z</time>
      </trkpt>
      <trkpt lat="48.19118" lon="-3.94335">
        <ele>72.688108</ele>
        <time>2022-12-10T15:48:58.234Z</time>
      </trkpt>
      <trkpt lat="48.19123" lon="-3.94323">
        <ele>72.92411</ele>
        <time>2022-12-10T15:49:01.223Z</time>
      </trkpt>
      <trkpt lat="48.19127" lon="-3.94307">
        <ele>73.214769</ele>
        <time>2022-12-10T15:49:04.252Z</time>
      </trkpt>
      <trkpt lat="48.1913" lon="-3.9429">
        <ele>73.512184</ele>
        <time>2022-12-10T15:49:07.229Z</time>
      </trkpt>
      <trkpt lat="48.19132" lon="-3.94273">
        <ele>73.811509</ele>
        <time>2022-12-10T15:49:10.255Z</time>
      </trkpt>
      <trkpt lat="48.19134" lon="-3.94255">
        <ele>74.119307</ele>
        <time>2022-12-10T15:49:13.229Z</time>
      </trkpt>
      <trkpt lat="48.19134" lon="-3.94236">
        <ele>74.445448</ele>
        <time>2022-12-10T15:49:16.216Z</time>
      </trkpt>
      <trkpt lat="48.19133" lon="-3.94218">
        <ele>74.744516</ele>
        <time>2022-12-10T15:49:19.240Z</time>
      </trkpt>
      <trkpt lat="48.19131" lon="-3.942">
        <ele>75.051308</ele>
        <time>2022-12-10T15:49:22.231Z</time>
      </trkpt>
      <trkpt lat="48.1913" lon="-3.94182">
        <ele>75.35978</ele>
        <time>2022-12-10T15:49:25.235Z</time>
      </trkpt>
      <trkpt lat="48.19126" lon="-3.94165">
        <ele>75.664074</ele>
        <time>2022-12-10T15:49:28.227Z</time>
      </trkpt>
      <trkpt lat="48.19123" lon="-3.94149">
        <ele>75.950099</ele>
        <time>2022-12-10T15:49:31.236Z</time>
      </trkpt>
      <trkpt lat="48.19121" lon="-3.94135">
        <ele>76.193043</ele>
        <time>2022-12-10T15:49:34.225Z</time>
      </trkpt>
      <trkpt lat="48.19118" lon="-3.9412">
        <ele>76.454085</ele>
        <time>2022-12-10T15:49:37.238Z</time>
      </trkpt>
      <trkpt lat="48.19116" lon="-3.94105">
        <ele>76.725616</ele>
        <time>2022-12-10T15:49:40.223Z</time>
      </trkpt>
      <trkpt lat="48.19112" lon="-3.94088">
        <ele>76.759579</ele>
        <time>2022-12-10T15:49:43.250Z</time>
      </trkpt>
      <trkpt lat="48.1911" lon="-3.94071">
        <ele>76.712708</ele>
        <time>2022-12-10T15:49:46.218Z</time>
      </trkpt>
      <trkpt lat="48.19107" lon="-3.94053">
        <ele>76.66547</ele>
        <time>2022-12-10T15:49:49.236Z</time>
      </trkpt>
      <trkpt lat="48.19106" lon="-3.94035">
        <ele>76.617926</ele>
        <time>2022-12-10T15:49:52.234Z</time>
      </trkpt>
      <trkpt lat="48.19105" lon="-3.94017">
        <ele>76.569283</ele>
        <time>2022-12-10T15:49:55.244Z</time>
      </trkpt>
      <trkpt lat="48.19104" lon="-3.93998">
        <ele>76.519761</ele>
        <time>2022-12-10T15:49:58.226Z</time>
      </trkpt>
      <trkpt lat="48.19102" lon="-3.9398">
        <ele>76.471333</ele>
        <time>2022-12-10T15:50:01.219Z</time>
      </trkpt>
      <trkpt lat="48.19101" lon="-3.93962">
        <ele>76.423429</ele>
        <time>2022-12-10T15:50:04.226Z</time>
      </trkpt>
      <trkpt lat="48.191" lon="-3.93944">
        <ele>76.375405</ele>
        <time>2022-12-10T15:50:07.225Z</time>
      </trkpt>
      <trkpt lat="48.19097" lon="-3.93925">
        <ele>76.325899</ele>
        <time>2022-12-10T15:50:10.232Z</time>
      </trkpt>
      <trkpt lat="48.19095" lon="-3.93906">
        <ele>76.275217</ele>
        <time>2022-12-10T15:50:13.238Z</time>
      </trkpt>
      <trkpt lat="48.19093" lon="-3.93888">
        <ele>76.227141</ele>
        <time>2022-12-10T15:50:16.221Z</time>
      </trkpt>
      <trkpt lat="48.19091" lon="-3.9387">
        <ele>76.177007</ele>
        <time>2022-12-10T15:50:19.225Z</time>
      </trkpt>
      <trkpt lat="48.19089" lon="-3.93853">
        <ele>76.131342</ele>
        <time>2022-12-10T15:50:22.243Z</time>
      </trkpt>
      <trkpt lat="48.19087" lon="-3.93839">
        <ele>76.094001</ele>
        <time>2022-12-10T15:50:25.231Z</time>
      </trkpt>
      <trkpt lat="48.19085" lon="-3.93826">
        <ele>76.115013</ele>
        <time>2022-12-10T15:50:28.239Z</time>
      </trkpt>
      <trkpt lat="48.19083" lon="-3.93808">
        <ele>76.174408</ele>
        <time>2022-12-10T15:50:31.234Z</time>
      </trkpt>
      <trkpt lat="48.1908" lon="-3.9379">
        <ele>76.237835</ele>
        <time>2022-12-10T15:50:34.226Z</time>
      </trkpt>
      <trkpt lat="48.19077" lon="-3.93772">
        <ele>76.299914</ele>
        <time>2022-12-10T15:50:37.248Z</time>
      </trkpt>
      <trkpt lat="48.19074" lon="-3.93753">
        <ele>76.36762</ele>
        <time>2022-12-10T15:50:40.232Z</time>
      </trkpt>
      <trkpt lat="48.19072" lon="-3.93733">
        <ele>76.434692</ele>
        <time>2022-12-10T15:50:43.228Z</time>
      </trkpt>
      <trkpt lat="48.19069" lon="-3.93714">
        <ele>76.501408</ele>
        <time>2022-12-10T15:50:46.228Z</time>
      </trkpt>
      <trkpt lat="48.19066" lon="-3.93695">
        <ele>76.567584</ele>
        <time>2022-12-10T15:50:49.223Z</time>
      </trkpt>
      <trkpt lat="48.19064" lon="-3.93676">
        <ele>76.631115</ele>
        <time>2022-12-10T15:50:52.218Z</time>
      </trkpt>
      <trkpt lat="48.19061" lon="-3.93658">
        <ele>76.694976</ele>
        <time>2022-12-10T15:50:55.233Z</time>
      </trkpt>
      <trkpt lat="48.19059" lon="-3.93639">
        <ele>76.75803</ele>
        <time>2022-12-10T15:50:58.257Z</time>
      </trkpt>
      <trkpt lat="48.19059" lon="-3.93621">
        <ele>76.82154</ele>
        <time>2022-12-10T15:51:01.223Z</time>
      </trkpt>
      <trkpt lat="48.19057" lon="-3.93602">
        <ele>76.886361</ele>
        <time>2022-12-10T15:51:04.251Z</time>
      </trkpt>
      <trkpt lat="48.19055" lon="-3.93584">
        <ele>76.945092</ele>
        <time>2022-12-10T15:51:07.224Z</time>
      </trkpt>
      <trkpt lat="48.19054" lon="-3.93571">
        <ele>76.991254</ele>
        <time>2022-12-10T15:51:10.224Z</time>
      </trkpt>
      <trkpt lat="48.19052" lon="-3.93555">
        <ele>76.993611</ele>
        <time>2022-12-10T15:51:13.228Z</time>
      </trkpt>
      <trkpt lat="48.1905" lon="-3.93538">
        <ele>76.992777</ele>
        <time>2022-12-10T15:51:16.236Z</time>
      </trkpt>
      <trkpt lat="48.19048" lon="-3.93522">
        <ele>76.991978</ele>
        <time>2022-12-10T15:51:19.220Z</time>
      </trkpt>
      <trkpt lat="48.19046" lon="-3.93505">
        <ele>76.991103</ele>
        <time>2022-12-10T15:51:22.240Z</time>
      </trkpt>
      <trkpt lat="48.19042" lon="-3.93487">
        <ele>76.990198</ele>
        <time>2022-12-10T15:51:25.227Z</time>
      </trkpt>
      <trkpt lat="48.19038" lon="-3.93469">
        <ele>76.989251</ele>
        <time>2022-12-10T15:51:28.228Z</time>
      </trkpt>
      <trkpt lat="48.19033" lon="-3.93453">
        <ele>76.988416</ele>
        <time>2022-12-10T15:51:31.225Z</time>
      </trkpt>
      <trkpt lat="48.19027" lon="-3.93439">
        <ele>76.987604</ele>
        <time>2022-12-10T15:51:34.241Z</time>
      </trkpt>
      <trkpt lat="48.19022" lon="-3.93423">
        <ele>76.986757</ele>
        <time>2022-12-10T15:51:37.253Z</time>
      </trkpt>
      <trkpt lat="48.19016" lon="-3.93408">
        <ele>76.985872</ele>
        <time>2022-12-10T15:51:40.243Z</time>
      </trkpt>
      <trkpt lat="48.19008" lon="-3.93392">
        <ele>76.98491</ele>
        <time>2022-12-10T15:51:43.235Z</time>
      </trkpt>
      <trkpt lat="48.19003" lon="-3.93379">
        <ele>76.984157</ele>
        <time>2022-12-10T15:51:46.236Z</time>
      </trkpt>
      <trkpt lat="48.18998" lon="-3.93366">
        <ele>76.983441</ele>
        <time>2022-12-10T15:52:00.225Z</time>
      </trkpt>
      <trkpt lat="48.18993" lon="-3.93353">
        <ele>76.982712</ele>
        <time>2022-12-10T15:52:17.226Z</time>
      </trkpt>
      <trkpt lat="48.18986" lon="-3.93342">
        <ele>76.981958</ele>
        <time>2022-12-10T15:52:21.223Z</time>
      </trkpt>
      <trkpt lat="48.18979" lon="-3.93332">
        <ele>76.981274</ele>
        <time>2022-12-10T15:52:24.226Z</time>
      </trkpt>
      <trkpt lat="48.18971" lon="-3.93322">
        <ele>76.853079</ele>
        <time>2022-12-10T15:52:27.226Z</time>
      </trkpt>
      <trkpt lat="48.1896" lon="-3.93309">
        <ele>76.667605</ele>
        <time>2022-12-10T15:52:30.233Z</time>
      </trkpt>
      <trkpt lat="48.18953" lon="-3.93299">
        <ele>76.537664</ele>
        <time>2022-12-10T15:52:32.228Z</time>
      </trkpt>
      <trkpt lat="48.18945" lon="-3.9329">
        <ele>76.404429</ele>
        <time>2022-12-10T15:52:34.238Z</time>
      </trkpt>
      <trkpt lat="48.18937" lon="-3.93282">
        <ele>76.27663</ele>
        <time>2022-12-10T15:52:36.229Z</time>
      </trkpt>
      <trkpt lat="48.1893" lon="-3.93274">
        <ele>76.147774</ele>
        <time>2022-12-10T15:52:38.226Z</time>
      </trkpt>
      <trkpt lat="48.18922" lon="-3.93266">
        <ele>76.025161</ele>
        <time>2022-12-10T15:52:40.249Z</time>
      </trkpt>
      <trkpt lat="48.18914" lon="-3.9326">
        <ele>75.901796</ele>
        <time>2022-12-10T15:52:42.235Z</time>
      </trkpt>
      <trkpt lat="48.18906" lon="-3.93252">
        <ele>75.773326</ele>
        <time>2022-12-10T15:52:44.218Z</time>
      </trkpt>
      <trkpt lat="48.18898" lon="-3.93245">
        <ele>75.646648</ele>
        <time>2022-12-10T15:52:46.226Z</time>
      </trkpt>
      <trkpt lat="48.1889" lon="-3.93237">
        <ele>75.51997</ele>
        <time>2022-12-10T15:52:48.234Z</time>
      </trkpt>
      <trkpt lat="48.18882" lon="-3.9323">
        <ele>75.39908</ele>
        <time>2022-12-10T15:52:50.232Z</time>
      </trkpt>
      <trkpt lat="48.1887" lon="-3.93221">
        <ele>75.216539</ele>
        <time>2022-12-10T15:52:53.226Z</time>
      </trkpt>
      <trkpt lat="48.18862" lon="-3.93215">
        <ele>75.091526</ele>
        <time>2022-12-10T15:52:55.231Z</time>
      </trkpt>
      <trkpt lat="48.18854" lon="-3.93208">
        <ele>74.969745</ele>
        <time>2022-12-10T15:52:57.244Z</time>
      </trkpt>
      <trkpt lat="48.18846" lon="-3.93202">
        <ele>74.845978</ele>
        <time>2022-12-10T15:52:59.253Z</time>
      </trkpt>
      <trkpt lat="48.18834" lon="-3.93194">
        <ele>74.672366</ele>
        <time>2022-12-10T15:53:02.246Z</time>
      </trkpt>
      <trkpt lat="48.18826" lon="-3.93188">
        <ele>74.561274</ele>
        <time>2022-12-10T15:53:04.222Z</time>
      </trkpt>
      <trkpt lat="48.18817" lon="-3.93183">
        <ele>74.622782</ele>
        <time>2022-12-10T15:53:06.227Z</time>
      </trkpt>
      <trkpt lat="48.18809" lon="-3.93177">
        <ele>74.682161</ele>
        <time>2022-12-10T15:53:08.221Z</time>
      </trkpt>
      <trkpt lat="48.18798" lon="-3.93168">
        <ele>74.762261</ele>
        <time>2022-12-10T15:53:11.220Z</time>
      </trkpt>
      <trkpt lat="48.1879" lon="-3.93164">
        <ele>74.824536</ele>
        <time>2022-12-10T15:53:13.226Z</time>
      </trkpt>
      <trkpt lat="48.18778" lon="-3.93157">
        <ele>74.909398</ele>
        <time>2022-12-10T15:53:16.224Z</time>
      </trkpt>
      <trkpt lat="48.18765" lon="-3.93152">
        <ele>74.996473</ele>
        <time>2022-12-10T15:53:19.228Z</time>
      </trkpt>
      <trkpt lat="48.18756" lon="-3.93149">
        <ele>75.056632</ele>
        <time>2022-12-10T15:53:21.239Z</time>
      </trkpt>
      <trkpt lat="48.18747" lon="-3.93146">
        <ele>75.116432</ele>
        <time>2022-12-10T15:53:23.243Z</time>
      </trkpt>
      <trkpt lat="48.18734" lon="-3.93143">
        <ele>75.204099</ele>
        <time>2022-12-10T15:53:26.223Z</time>
      </trkpt>
      <trkpt lat="48.18721" lon="-3.93141">
        <ele>75.292948</ele>
        <time>2022-12-10T15:53:29.236Z</time>
      </trkpt>
      <trkpt lat="48.18708" lon="-3.93139">
        <ele>75.378742</ele>
        <time>2022-12-10T15:53:32.225Z</time>
      </trkpt>
      <trkpt lat="48.18695" lon="-3.93136">
        <ele>75.464026</ele>
        <time>2022-12-10T15:53:35.224Z</time>
      </trkpt>
      <trkpt lat="48.18682" lon="-3.93135">
        <ele>75.546949</ele>
        <time>2022-12-10T15:53:38.223Z</time>
      </trkpt>
      <trkpt lat="48.1867" lon="-3.93132">
        <ele>75.627223</ele>
        <time>2022-12-10T15:53:41.229Z</time>
      </trkpt>
      <trkpt lat="48.18659" lon="-3.93129">
        <ele>75.705095</ele>
        <time>2022-12-10T15:53:44.225Z</time>
      </trkpt>
      <trkpt lat="48.18647" lon="-3.93126">
        <ele>75.76885</ele>
        <time>2022-12-10T15:53:47.229Z</time>
      </trkpt>
      <trkpt lat="48.18635" lon="-3.93124">
        <ele>75.81515</ele>
        <time>2022-12-10T15:53:50.225Z</time>
      </trkpt>
      <trkpt lat="48.18624" lon="-3.93121">
        <ele>75.860889</ele>
        <time>2022-12-10T15:53:53.232Z</time>
      </trkpt>
      <trkpt lat="48.18612" lon="-3.93119">
        <ele>75.906095</ele>
        <time>2022-12-10T15:53:56.222Z</time>
      </trkpt>
      <trkpt lat="48.186" lon="-3.93116">
        <ele>75.952219</ele>
        <time>2022-12-10T15:53:59.252Z</time>
      </trkpt>
      <trkpt lat="48.18589" lon="-3.93114">
        <ele>75.997111</ele>
        <time>2022-12-10T15:54:02.230Z</time>
      </trkpt>
      <trkpt lat="48.18578" lon="-3.93111">
        <ele>76.042002</ele>
        <time>2022-12-10T15:54:05.224Z</time>
      </trkpt>
      <trkpt lat="48.18566" lon="-3.93106">
        <ele>76.088655</ele>
        <time>2022-12-10T15:54:08.223Z</time>
      </trkpt>
      <trkpt lat="48.18554" lon="-3.93103">
        <ele>76.135681</ele>
        <time>2022-12-10T15:54:11.229Z</time>
      </trkpt>
      <trkpt lat="48.18542" lon="-3.93101">
        <ele>76.182368</ele>
        <time>2022-12-10T15:54:14.222Z</time>
      </trkpt>
      <trkpt lat="48.18531" lon="-3.93099">
        <ele>76.228046</ele>
        <time>2022-12-10T15:54:17.220Z</time>
      </trkpt>
      <trkpt lat="48.18519" lon="-3.93099">
        <ele>76.274459</ele>
        <time>2022-12-10T15:54:20.226Z</time>
      </trkpt>
      <trkpt lat="48.18507" lon="-3.93096">
        <ele>76.322204</ele>
        <time>2022-12-10T15:54:23.230Z</time>
      </trkpt>
      <trkpt lat="48.18495" lon="-3.93093">
        <ele>76.367023</ele>
        <time>2022-12-10T15:54:26.247Z</time>
      </trkpt>
      <trkpt lat="48.18484" lon="-3.93091">
        <ele>76.410721</ele>
        <time>2022-12-10T15:54:29.228Z</time>
      </trkpt>
      <trkpt lat="48.18473" lon="-3.93088">
        <ele>76.457013</ele>
        <time>2022-12-10T15:54:32.224Z</time>
      </trkpt>
      <trkpt lat="48.18461" lon="-3.93086">
        <ele>76.520655</ele>
        <time>2022-12-10T15:54:35.227Z</time>
      </trkpt>
      <trkpt lat="48.18449" lon="-3.93082">
        <ele>76.585365</ele>
        <time>2022-12-10T15:54:38.219Z</time>
      </trkpt>
      <trkpt lat="48.18437" lon="-3.93079">
        <ele>76.651516</ele>
        <time>2022-12-10T15:54:41.229Z</time>
      </trkpt>
      <trkpt lat="48.18425" lon="-3.93075">
        <ele>76.719436</ele>
        <time>2022-12-10T15:54:44.231Z</time>
      </trkpt>
      <trkpt lat="48.18413" lon="-3.93072">
        <ele>76.784012</ele>
        <time>2022-12-10T15:54:47.222Z</time>
      </trkpt>
      <trkpt lat="48.18401" lon="-3.93068">
        <ele>76.849246</ele>
        <time>2022-12-10T15:54:50.230Z</time>
      </trkpt>
      <trkpt lat="48.18391" lon="-3.93065">
        <ele>76.905042</ele>
        <time>2022-12-10T15:54:53.220Z</time>
      </trkpt>
      <trkpt lat="48.18381" lon="-3.93062">
        <ele>76.958801</ele>
        <time>2022-12-10T15:54:56.220Z</time>
      </trkpt>
      <trkpt lat="48.1837" lon="-3.9306">
        <ele>77.017588</ele>
        <time>2022-12-10T15:54:59.224Z</time>
      </trkpt>
      <trkpt lat="48.18358" lon="-3.93057">
        <ele>77.082392</ele>
        <time>2022-12-10T15:55:02.236Z</time>
      </trkpt>
      <trkpt lat="48.18345" lon="-3.93055">
        <ele>77.150611</ele>
        <time>2022-12-10T15:55:05.243Z</time>
      </trkpt>
      <trkpt lat="48.18333" lon="-3.93053">
        <ele>77.216557</ele>
        <time>2022-12-10T15:55:08.225Z</time>
      </trkpt>
      <trkpt lat="48.18321" lon="-3.93051">
        <ele>77.279435</ele>
        <time>2022-12-10T15:55:11.226Z</time>
      </trkpt>
      <trkpt lat="48.18311" lon="-3.93049">
        <ele>77.336444</ele>
        <time>2022-12-10T15:55:14.223Z</time>
      </trkpt>
      <trkpt lat="48.18301" lon="-3.93048">
        <ele>77.38901</ele>
        <time>2022-12-10T15:55:17.237Z</time>
      </trkpt>
      <trkpt lat="48.1829" lon="-3.93046">
        <ele>77.383746</ele>
        <time>2022-12-10T15:55:20.224Z</time>
      </trkpt>
      <trkpt lat="48.18279" lon="-3.93045">
        <ele>77.345169</ele>
        <time>2022-12-10T15:55:23.244Z</time>
      </trkpt>
      <trkpt lat="48.18268" lon="-3.93043">
        <ele>77.30621</ele>
        <time>2022-12-10T15:55:26.234Z</time>
      </trkpt>
      <trkpt lat="48.18256" lon="-3.93041">
        <ele>77.265071</ele>
        <time>2022-12-10T15:55:29.230Z</time>
      </trkpt>
      <trkpt lat="48.18243" lon="-3.93038">
        <ele>77.223197</ele>
        <time>2022-12-10T15:55:32.229Z</time>
      </trkpt>
      <trkpt lat="48.18232" lon="-3.93036">
        <ele>77.185459</ele>
        <time>2022-12-10T15:55:35.232Z</time>
      </trkpt>
      <trkpt lat="48.18221" lon="-3.93034">
        <ele>77.146343</ele>
        <time>2022-12-10T15:55:38.229Z</time>
      </trkpt>
      <trkpt lat="48.1821" lon="-3.93031">
        <ele>77.107947</ele>
        <time>2022-12-10T15:55:41.223Z</time>
      </trkpt>
      <trkpt lat="48.18198" lon="-3.93027">
        <ele>77.067189</ele>
        <time>2022-12-10T15:55:44.226Z</time>
      </trkpt>
      <trkpt lat="48.18186" lon="-3.93023">
        <ele>77.025717</ele>
        <time>2022-12-10T15:55:47.246Z</time>
      </trkpt>
      <trkpt lat="48.18174" lon="-3.93018">
        <ele>76.98363</ele>
        <time>2022-12-10T15:55:50.223Z</time>
      </trkpt>
      <trkpt lat="48.18163" lon="-3.93013">
        <ele>76.942132</ele>
        <time>2022-12-10T15:55:53.236Z</time>
      </trkpt>
      <trkpt lat="48.18152" lon="-3.93009">
        <ele>76.903032</ele>
        <time>2022-12-10T15:55:56.233Z</time>
      </trkpt>
      <trkpt lat="48.18141" lon="-3.93004">
        <ele>76.864914</ele>
        <time>2022-12-10T15:55:59.220Z</time>
      </trkpt>
      <trkpt lat="48.1813" lon="-3.93001">
        <ele>76.826245</ele>
        <time>2022-12-10T15:56:02.246Z</time>
      </trkpt>
      <trkpt lat="48.18118" lon="-3.92998">
        <ele>76.834474</ele>
        <time>2022-12-10T15:56:05.230Z</time>
      </trkpt>
      <trkpt lat="48.18109" lon="-3.92996">
        <ele>76.989441</ele>
        <time>2022-12-10T15:56:08.232Z</time>
      </trkpt>
      <trkpt lat="48.18099" lon="-3.92995">
        <ele>77.145641</ele>
        <time>2022-12-10T15:56:11.231Z</time>
      </trkpt>
      <trkpt lat="48.18088" lon="-3.92994">
        <ele>77.318967</ele>
        <time>2022-12-10T15:56:14.226Z</time>
      </trkpt>
      <trkpt lat="48.18076" lon="-3.92993">
        <ele>77.50123</ele>
        <time>2022-12-10T15:56:17.224Z</time>
      </trkpt>
      <trkpt lat="48.18064" lon="-3.92994">
        <ele>77.683808</ele>
        <time>2022-12-10T15:56:20.226Z</time>
      </trkpt>
      <trkpt lat="48.18053" lon="-3.92996">
        <ele>77.863252</ele>
        <time>2022-12-10T15:56:23.236Z</time>
      </trkpt>
      <trkpt lat="48.18043" lon="-3.92996">
        <ele>78.021918</ele>
        <time>2022-12-10T15:56:26.232Z</time>
      </trkpt>
      <trkpt lat="48.18033" lon="-3.92996">
        <ele>78.179003</ele>
        <time>2022-12-10T15:56:29.229Z</time>
      </trkpt>
      <trkpt lat="48.18023" lon="-3.92994">
        <ele>78.338432</ele>
        <time>2022-12-10T15:56:32.228Z</time>
      </trkpt>
      <trkpt lat="48.18012" lon="-3.92991">
        <ele>78.509617</ele>
        <time>2022-12-10T15:56:35.225Z</time>
      </trkpt>
      <trkpt lat="48.18001" lon="-3.92986">
        <ele>78.691081</ele>
        <time>2022-12-10T15:56:38.227Z</time>
      </trkpt>
      <trkpt lat="48.17991" lon="-3.92979">
        <ele>78.869718</ele>
        <time>2022-12-10T15:56:41.226Z</time>
      </trkpt>
      <trkpt lat="48.17981" lon="-3.92972">
        <ele>79.037097</ele>
        <time>2022-12-10T15:56:44.232Z</time>
      </trkpt>
      <trkpt lat="48.17972" lon="-3.92965">
        <ele>79.19588</ele>
        <time>2022-12-10T15:56:47.228Z</time>
      </trkpt>
      <trkpt lat="48.17964" lon="-3.92959">
        <ele>79.346299</ele>
        <time>2022-12-10T15:56:50.231Z</time>
      </trkpt>
      <trkpt lat="48.17954" lon="-3.92951">
        <ele>79.517726</ele>
        <time>2022-12-10T15:56:53.225Z</time>
      </trkpt>
      <trkpt lat="48.17944" lon="-3.92944">
        <ele>79.608794</ele>
        <time>2022-12-10T15:56:56.229Z</time>
      </trkpt>
      <trkpt lat="48.17934" lon="-3.92936">
        <ele>79.581108</ele>
        <time>2022-12-10T15:56:59.231Z</time>
      </trkpt>
      <trkpt lat="48.17924" lon="-3.92928">
        <ele>79.553422</ele>
        <time>2022-12-10T15:57:02.253Z</time>
      </trkpt>
      <trkpt lat="48.17915" lon="-3.92921">
        <ele>79.526267</ele>
        <time>2022-12-10T15:57:05.220Z</time>
      </trkpt>
      <trkpt lat="48.17905" lon="-3.92914">
        <ele>79.498363</ele>
        <time>2022-12-10T15:57:08.224Z</time>
      </trkpt>
      <trkpt lat="48.17894" lon="-3.92907">
        <ele>79.46994</ele>
        <time>2022-12-10T15:57:11.227Z</time>
      </trkpt>
      <trkpt lat="48.17884" lon="-3.92901">
        <ele>79.44277</ele>
        <time>2022-12-10T15:57:14.232Z</time>
      </trkpt>
      <trkpt lat="48.17874" lon="-3.92896">
        <ele>79.414657</ele>
        <time>2022-12-10T15:57:17.232Z</time>
      </trkpt>
      <trkpt lat="48.17863" lon="-3.92891">
        <ele>79.387207</ele>
        <time>2022-12-10T15:57:20.232Z</time>
      </trkpt>
      <trkpt lat="48.17853" lon="-3.92885">
        <ele>79.359682</ele>
        <time>2022-12-10T15:57:23.230Z</time>
      </trkpt>
      <trkpt lat="48.17843" lon="-3.9288">
        <ele>79.332809</ele>
        <time>2022-12-10T15:57:26.233Z</time>
      </trkpt>
      <trkpt lat="48.17832" lon="-3.92875">
        <ele>79.303181</ele>
        <time>2022-12-10T15:57:29.241Z</time>
      </trkpt>
      <trkpt lat="48.17821" lon="-3.9287">
        <ele>79.274328</ele>
        <time>2022-12-10T15:57:32.244Z</time>
      </trkpt>
      <trkpt lat="48.1781" lon="-3.92865">
        <ele>79.24567</ele>
        <time>2022-12-10T15:57:35.225Z</time>
      </trkpt>
      <trkpt lat="48.17799" lon="-3.92862">
        <ele>79.217585</ele>
        <time>2022-12-10T15:57:38.226Z</time>
      </trkpt>
      <trkpt lat="48.17788" lon="-3.92858">
        <ele>79.188012</ele>
        <time>2022-12-10T15:57:41.225Z</time>
      </trkpt>
      <trkpt lat="48.17777" lon="-3.92855">
        <ele>79.146829</ele>
        <time>2022-12-10T15:57:44.233Z</time>
      </trkpt>
      <trkpt lat="48.17767" lon="-3.92851">
        <ele>79.075346</ele>
        <time>2022-12-10T15:57:48.244Z</time>
      </trkpt>
      <trkpt lat="48.17757" lon="-3.92848">
        <ele>79.006332</ele>
        <time>2022-12-10T15:57:52.238Z</time>
      </trkpt>
      <trkpt lat="48.17747" lon="-3.92844">
        <ele>78.932545</ele>
        <time>2022-12-10T15:57:56.225Z</time>
      </trkpt>
      <trkpt lat="48.17737" lon="-3.9284">
        <ele>78.858525</ele>
        <time>2022-12-10T15:58:00.225Z</time>
      </trkpt>
      <trkpt lat="48.17726" lon="-3.92837">
        <ele>78.780375</ele>
        <time>2022-12-10T15:58:04.225Z</time>
      </trkpt>
      <trkpt lat="48.17716" lon="-3.92834">
        <ele>78.709658</ele>
        <time>2022-12-10T15:58:07.231Z</time>
      </trkpt>
      <trkpt lat="48.17706" lon="-3.92832">
        <ele>78.639322</ele>
        <time>2022-12-10T15:58:10.228Z</time>
      </trkpt>
      <trkpt lat="48.17696" lon="-3.92829">
        <ele>78.565755</ele>
        <time>2022-12-10T15:58:13.251Z</time>
      </trkpt>
      <trkpt lat="48.17686" lon="-3.92828">
        <ele>78.495725</ele>
        <time>2022-12-10T15:58:16.236Z</time>
      </trkpt>
      <trkpt lat="48.17672" lon="-3.92827">
        <ele>78.39935</ele>
        <time>2022-12-10T15:59:06.256Z</time>
      </trkpt>
      <trkpt lat="48.17662" lon="-3.92825">
        <ele>78.324325</ele>
        <time>2022-12-10T16:07:58.286Z</time>
      </trkpt>
      <trkpt lat="48.17652" lon="-3.92824">
        <ele>78.257323</ele>
        <time>2022-12-10T16:08:05.235Z</time>
      </trkpt>
      <trkpt lat="48.17641" lon="-3.92824">
        <ele>78.179313</ele>
        <time>2022-12-10T16:08:36.229Z</time>
      </trkpt>
      <trkpt lat="48.17631" lon="-3.92822">
        <ele>78.107831</ele>
        <time>2022-12-10T16:08:45.232Z</time>
      </trkpt>
      <trkpt lat="48.17621" lon="-3.9282">
        <ele>78.037425</ele>
        <time>2022-12-10T16:08:53.225Z</time>
      </trkpt>
      <trkpt lat="48.17612" lon="-3.92818">
        <ele>77.971689</ele>
        <time>2022-12-10T16:09:00.223Z</time>
      </trkpt>
      <trkpt lat="48.17603" lon="-3.92814">
        <ele>77.905446</ele>
        <time>2022-12-10T16:09:07.225Z</time>
      </trkpt>
      <trkpt lat="48.17594" lon="-3.9281">
        <ele>77.599924</ele>
        <time>2022-12-10T16:09:14.228Z</time>
      </trkpt>
      <trkpt lat="48.17584" lon="-3.92805">
        <ele>77.253427</ele>
        <time>2022-12-10T16:09:22.243Z</time>
      </trkpt>
      <trkpt lat="48.17575" lon="-3.92802">
        <ele>76.930299</ele>
        <time>2022-12-10T16:09:30.232Z</time>
      </trkpt>
      <trkpt lat="48.17566" lon="-3.92797">
        <ele>76.606696</ele>
        <time>2022-12-10T16:09:39.235Z</time>
      </trkpt>
      <trkpt lat="48.17565" lon="-3.92793">
        <ele>76.511488</ele>
        <time>2022-12-10T16:10:08.615Z</time>
      </trkpt>
      <trkpt lat="48.17553" lon="-3.9279">
        <ele>76.120443</ele>
        <time>2022-12-10T16:19:11.233Z</time>
      </trkpt>
      <trkpt lat="48.17544" lon="-3.92785">
        <ele>75.789735</ele>
        <time>2022-12-10T16:19:30.232Z</time>
      </trkpt>
      <trkpt lat="48.17535" lon="-3.92782">
        <ele>75.484438</ele>
        <time>2022-12-10T16:19:34.257Z</time>
      </trkpt>
      <trkpt lat="48.17526" lon="-3.9278">
        <ele>75.165471</ele>
        <time>2022-12-10T16:19:37.233Z</time>
      </trkpt>
      <trkpt lat="48.17515" lon="-3.92776">
        <ele>74.776757</ele>
        <time>2022-12-10T16:19:41.229Z</time>
      </trkpt>
      <trkpt lat="48.17504" lon="-3.92772">
        <ele>74.4108</ele>
        <time>2022-12-10T16:19:45.230Z</time>
      </trkpt>
      <trkpt lat="48.17494" lon="-3.92769">
        <ele>74.053287</ele>
        <time>2022-12-10T16:19:49.232Z</time>
      </trkpt>
      <trkpt lat="48.17482" lon="-3.92766">
        <ele>73.664697</ele>
        <time>2022-12-10T16:19:53.232Z</time>
      </trkpt>
      <trkpt lat="48.17473" lon="-3.92764">
        <ele>73.349324</ele>
        <time>2022-12-10T16:19:56.234Z</time>
      </trkpt>
      <trkpt lat="48.17464" lon="-3.92763">
        <ele>73.034955</ele>
        <time>2022-12-10T16:19:59.235Z</time>
      </trkpt>
      <trkpt lat="48.17454" lon="-3.92763">
        <ele>72.70441</ele>
        <time>2022-12-10T16:20:03.244Z</time>
      </trkpt>
      <trkpt lat="48.17444" lon="-3.92764">
        <ele>72.379609</ele>
        <time>2022-12-10T16:20:06.236Z</time>
      </trkpt>
      <trkpt lat="48.17432" lon="-3.92765">
        <ele>71.974111</ele>
        <time>2022-12-10T16:20:10.233Z</time>
      </trkpt>
      <trkpt lat="48.17421" lon="-3.92766">
        <ele>71.840374</ele>
        <time>2022-12-10T16:20:14.237Z</time>
      </trkpt>
      <trkpt lat="48.17411" lon="-3.92766">
        <ele>71.842171</ele>
        <time>2022-12-10T16:20:17.240Z</time>
      </trkpt>
      <trkpt lat="48.17402" lon="-3.92766">
        <ele>71.844023</ele>
        <time>2022-12-10T16:20:20.238Z</time>
      </trkpt>
      <trkpt lat="48.17391" lon="-3.92765">
        <ele>71.84603</ele>
        <time>2022-12-10T16:20:23.236Z</time>
      </trkpt>
      <trkpt lat="48.17381" lon="-3.92763">
        <ele>71.847944</ele>
        <time>2022-12-10T16:20:26.264Z</time>
      </trkpt>
      <trkpt lat="48.17372" lon="-3.92759">
        <ele>71.84973</ele>
        <time>2022-12-10T16:20:29.247Z</time>
      </trkpt>
      <trkpt lat="48.17362" lon="-3.92754">
        <ele>71.851823</ele>
        <time>2022-12-10T16:20:32.234Z</time>
      </trkpt>
      <trkpt lat="48.17354" lon="-3.92747">
        <ele>71.853618</ele>
        <time>2022-12-10T16:20:35.239Z</time>
      </trkpt>
      <trkpt lat="48.17344" lon="-3.92739">
        <ele>71.85577</ele>
        <time>2022-12-10T16:20:38.239Z</time>
      </trkpt>
      <trkpt lat="48.17334" lon="-3.92732">
        <ele>71.857842</ele>
        <time>2022-12-10T16:20:41.238Z</time>
      </trkpt>
      <trkpt lat="48.17325" lon="-3.92722">
        <ele>71.859927</ele>
        <time>2022-12-10T16:20:44.247Z</time>
      </trkpt>
      <trkpt lat="48.17317" lon="-3.92712">
        <ele>71.862043</ele>
        <time>2022-12-10T16:20:47.234Z</time>
      </trkpt>
      <trkpt lat="48.17308" lon="-3.92701">
        <ele>71.864198</ele>
        <time>2022-12-10T16:20:50.227Z</time>
      </trkpt>
      <trkpt lat="48.17301" lon="-3.92689">
        <ele>71.866201</ele>
        <time>2022-12-10T16:20:53.244Z</time>
      </trkpt>
      <trkpt lat="48.17294" lon="-3.92677">
        <ele>71.86824</ele>
        <time>2022-12-10T16:20:56.234Z</time>
      </trkpt>
      <trkpt lat="48.17286" lon="-3.92665">
        <ele>71.870455</ele>
        <time>2022-12-10T16:20:59.234Z</time>
      </trkpt>
      <trkpt lat="48.17277" lon="-3.92652">
        <ele>71.87271</ele>
        <time>2022-12-10T16:21:02.228Z</time>
      </trkpt>
      <trkpt lat="48.1727" lon="-3.92642">
        <ele>71.905077</ele>
        <time>2022-12-10T16:21:05.237Z</time>
      </trkpt>
      <trkpt lat="48.17263" lon="-3.9263">
        <ele>71.950991</ele>
        <time>2022-12-10T16:21:08.249Z</time>
      </trkpt>
      <trkpt lat="48.17256" lon="-3.92619">
        <ele>71.997443</ele>
        <time>2022-12-10T16:21:11.240Z</time>
      </trkpt>
      <trkpt lat="48.17248" lon="-3.92607">
        <ele>72.047115</ele>
        <time>2022-12-10T16:21:14.240Z</time>
      </trkpt>
      <trkpt lat="48.17241" lon="-3.92595">
        <ele>72.091785</ele>
        <time>2022-12-10T16:21:17.236Z</time>
      </trkpt>
      <trkpt lat="48.17234" lon="-3.9258">
        <ele>72.146087</ele>
        <time>2022-12-10T16:21:21.237Z</time>
      </trkpt>
      <trkpt lat="48.17228" lon="-3.92568">
        <ele>72.191384</ele>
        <time>2022-12-10T16:21:24.244Z</time>
      </trkpt>
      <trkpt lat="48.17222" lon="-3.92557">
        <ele>72.2323</ele>
        <time>2022-12-10T16:21:27.240Z</time>
      </trkpt>
      <trkpt lat="48.17216" lon="-3.92545">
        <ele>72.276051</ele>
        <time>2022-12-10T16:21:30.248Z</time>
      </trkpt>
      <trkpt lat="48.1721" lon="-3.92533">
        <ele>72.321221</ele>
        <time>2022-12-10T16:21:33.245Z</time>
      </trkpt>
      <trkpt lat="48.17205" lon="-3.92522">
        <ele>72.361353</ele>
        <time>2022-12-10T16:21:36.239Z</time>
      </trkpt>
      <trkpt lat="48.17201" lon="-3.92509">
        <ele>72.402723</ele>
        <time>2022-12-10T16:21:39.249Z</time>
      </trkpt>
      <trkpt lat="48.17198" lon="-3.92495">
        <ele>72.446511</ele>
        <time>2022-12-10T16:21:42.240Z</time>
      </trkpt>
      <trkpt lat="48.17195" lon="-3.9248">
        <ele>72.490255</ele>
        <time>2022-12-10T16:21:45.250Z</time>
      </trkpt>
      <trkpt lat="48.17194" lon="-3.92465">
        <ele>72.535927</ele>
        <time>2022-12-10T16:21:48.235Z</time>
      </trkpt>
      <trkpt lat="48.17192" lon="-3.92449">
        <ele>72.583716</ele>
        <time>2022-12-10T16:21:51.237Z</time>
      </trkpt>
      <trkpt lat="48.17192" lon="-3.92432">
        <ele>72.632842</ele>
        <time>2022-12-10T16:21:54.233Z</time>
      </trkpt>
      <trkpt lat="48.17192" lon="-3.92416">
        <ele>72.716853</ele>
        <time>2022-12-10T16:21:57.234Z</time>
      </trkpt>
      <trkpt lat="48.17193" lon="-3.924">
        <ele>72.871825</ele>
        <time>2022-12-10T16:22:00.235Z</time>
      </trkpt>
      <trkpt lat="48.17195" lon="-3.92386">
        <ele>73.021757</ele>
        <time>2022-12-10T16:22:03.237Z</time>
      </trkpt>
      <trkpt lat="48.17197" lon="-3.92372">
        <ele>73.160794</ele>
        <time>2022-12-10T16:22:06.245Z</time>
      </trkpt>
      <trkpt lat="48.17202" lon="-3.92358">
        <ele>73.319907</ele>
        <time>2022-12-10T16:22:10.236Z</time>
      </trkpt>
      <trkpt lat="48.17206" lon="-3.92345">
        <ele>73.466786</ele>
        <time>2022-12-10T16:22:13.237Z</time>
      </trkpt>
      <trkpt lat="48.17209" lon="-3.9233">
        <ele>73.620234</ele>
        <time>2022-12-10T16:22:16.238Z</time>
      </trkpt>
      <trkpt lat="48.17213" lon="-3.92316">
        <ele>73.772246</ele>
        <time>2022-12-10T16:22:19.243Z</time>
      </trkpt>
      <trkpt lat="48.17215" lon="-3.92299">
        <ele>73.941509</ele>
        <time>2022-12-10T16:22:22.233Z</time>
      </trkpt>
      <trkpt lat="48.17217" lon="-3.92283">
        <ele>74.105781</ele>
        <time>2022-12-10T16:22:25.235Z</time>
      </trkpt>
      <trkpt lat="48.17217" lon="-3.92267">
        <ele>74.267624</ele>
        <time>2022-12-10T16:22:28.247Z</time>
      </trkpt>
      <trkpt lat="48.17217" lon="-3.9225">
        <ele>74.438367</ele>
        <time>2022-12-10T16:22:31.253Z</time>
      </trkpt>
      <trkpt lat="48.17217" lon="-3.92233">
        <ele>74.601159</ele>
        <time>2022-12-10T16:22:34.237Z</time>
      </trkpt>
      <trkpt lat="48.17216" lon="-3.92219">
        <ele>74.748533</ele>
        <time>2022-12-10T16:22:37.241Z</time>
      </trkpt>
      <trkpt lat="48.17214" lon="-3.92205">
        <ele>74.886671</ele>
        <time>2022-12-10T16:22:40.242Z</time>
      </trkpt>
      <trkpt lat="48.17211" lon="-3.92191">
        <ele>75.034429</ele>
        <time>2022-12-10T16:22:43.237Z</time>
      </trkpt>
      <trkpt lat="48.17206" lon="-3.92179">
        <ele>75.179873</ele>
        <time>2022-12-10T16:22:46.234Z</time>
      </trkpt>
      <trkpt lat="48.17199" lon="-3.92169">
        <ele>75.323921</ele>
        <time>2022-12-10T16:22:49.231Z</time>
      </trkpt>
      <trkpt lat="48.17192" lon="-3.92159">
        <ele>75.406901</ele>
        <time>2022-12-10T16:22:52.232Z</time>
      </trkpt>
      <trkpt lat="48.17185" lon="-3.92148">
        <ele>75.476508</ele>
        <time>2022-12-10T16:22:55.245Z</time>
      </trkpt>
      <trkpt lat="48.1718" lon="-3.92132">
        <ele>75.556389</ele>
        <time>2022-12-10T16:22:58.233Z</time>
      </trkpt>
      <trkpt lat="48.17177" lon="-3.92114">
        <ele>75.638503</ele>
        <time>2022-12-10T16:23:01.236Z</time>
      </trkpt>
      <trkpt lat="48.17178" lon="-3.92098">
        <ele>75.710578</ele>
        <time>2022-12-10T16:23:04.230Z</time>
      </trkpt>
      <trkpt lat="48.17178" lon="-3.92082">
        <ele>75.781007</ele>
        <time>2022-12-10T16:23:07.231Z</time>
      </trkpt>
      <trkpt lat="48.1718" lon="-3.92068">
        <ele>75.84555</ele>
        <time>2022-12-10T16:23:10.255Z</time>
      </trkpt>
      <trkpt lat="48.17182" lon="-3.92054">
        <ele>75.9104</ele>
        <time>2022-12-10T16:23:13.236Z</time>
      </trkpt>
      <trkpt lat="48.17185" lon="-3.92037">
        <ele>75.987836</ele>
        <time>2022-12-10T16:23:16.237Z</time>
      </trkpt>
      <trkpt lat="48.17187" lon="-3.9202">
        <ele>76.066878</ele>
        <time>2022-12-10T16:23:19.231Z</time>
      </trkpt>
      <trkpt lat="48.1719" lon="-3.92004">
        <ele>76.141487</ele>
        <time>2022-12-10T16:23:22.234Z</time>
      </trkpt>
      <trkpt lat="48.17193" lon="-3.91989">
        <ele>76.21487</ele>
        <time>2022-12-10T16:23:25.241Z</time>
      </trkpt>
      <trkpt lat="48.17196" lon="-3.91973">
        <ele>76.286085</ele>
        <time>2022-12-10T16:23:28.246Z</time>
      </trkpt>
      <trkpt lat="48.17199" lon="-3.91957">
        <ele>76.360704</ele>
        <time>2022-12-10T16:23:31.241Z</time>
      </trkpt>
      <trkpt lat="48.17202" lon="-3.91941">
        <ele>76.436776</ele>
        <time>2022-12-10T16:23:34.234Z</time>
      </trkpt>
      <trkpt lat="48.17206" lon="-3.91925">
        <ele>76.512412</ele>
        <time>2022-12-10T16:23:37.238Z</time>
      </trkpt>
      <trkpt lat="48.1721" lon="-3.9191">
        <ele>76.604611</ele>
        <time>2022-12-10T16:23:40.247Z</time>
      </trkpt>
      <trkpt lat="48.17213" lon="-3.91894">
        <ele>76.768388</ele>
        <time>2022-12-10T16:23:43.248Z</time>
      </trkpt>
      <trkpt lat="48.17217" lon="-3.91878">
        <ele>76.934004</ele>
        <time>2022-12-10T16:23:46.240Z</time>
      </trkpt>
      <trkpt lat="48.1722" lon="-3.91861">
        <ele>77.102904</ele>
        <time>2022-12-10T16:23:49.238Z</time>
      </trkpt>
      <trkpt lat="48.17224" lon="-3.91845">
        <ele>77.272771</ele>
        <time>2022-12-10T16:23:52.235Z</time>
      </trkpt>
      <trkpt lat="48.17228" lon="-3.91829">
        <ele>77.443298</ele>
        <time>2022-12-10T16:23:55.238Z</time>
      </trkpt>
      <trkpt lat="48.17234" lon="-3.91813">
        <ele>77.61627</ele>
        <time>2022-12-10T16:23:58.242Z</time>
      </trkpt>
      <trkpt lat="48.17239" lon="-3.91798">
        <ele>77.787123</ele>
        <time>2022-12-10T16:24:01.249Z</time>
      </trkpt>
      <trkpt lat="48.17245" lon="-3.91783">
        <ele>77.950749</ele>
        <time>2022-12-10T16:24:04.239Z</time>
      </trkpt>
      <trkpt lat="48.1725" lon="-3.91771">
        <ele>78.090034</ele>
        <time>2022-12-10T16:24:07.241Z</time>
      </trkpt>
      <trkpt lat="48.17256" lon="-3.9176">
        <ele>78.234381</ele>
        <time>2022-12-10T16:24:10.235Z</time>
      </trkpt>
      <trkpt lat="48.17263" lon="-3.91748">
        <ele>78.385577</ele>
        <time>2022-12-10T16:24:13.245Z</time>
      </trkpt>
      <trkpt lat="48.1727" lon="-3.91736">
        <ele>78.54247</ele>
        <time>2022-12-10T16:24:16.240Z</time>
      </trkpt>
      <trkpt lat="48.17277" lon="-3.91725">
        <ele>78.689762</ele>
        <time>2022-12-10T16:24:19.244Z</time>
      </trkpt>
      <trkpt lat="48.17284" lon="-3.91715">
        <ele>78.836944</ele>
        <time>2022-12-10T16:24:22.232Z</time>
      </trkpt>
      <trkpt lat="48.17292" lon="-3.91705">
        <ele>78.984311</ele>
        <time>2022-12-10T16:24:25.245Z</time>
      </trkpt>
      <trkpt lat="48.173" lon="-3.91695">
        <ele>79.13818</ele>
        <time>2022-12-10T16:24:28.234Z</time>
      </trkpt>
      <trkpt lat="48.17309" lon="-3.91686">
        <ele>79.214669</ele>
        <time>2022-12-10T16:24:31.242Z</time>
      </trkpt>
      <trkpt lat="48.17318" lon="-3.91677">
        <ele>79.220362</ele>
        <time>2022-12-10T16:24:34.234Z</time>
      </trkpt>
      <trkpt lat="48.17327" lon="-3.91669">
        <ele>79.225896</ele>
        <time>2022-12-10T16:24:37.250Z</time>
      </trkpt>
      <trkpt lat="48.17336" lon="-3.91663">
        <ele>79.231441</ele>
        <time>2022-12-10T16:24:40.229Z</time>
      </trkpt>
      <trkpt lat="48.17345" lon="-3.91657">
        <ele>79.23667</ele>
        <time>2022-12-10T16:24:43.236Z</time>
      </trkpt>
      <trkpt lat="48.17356" lon="-3.91652">
        <ele>79.242721</ele>
        <time>2022-12-10T16:24:46.258Z</time>
      </trkpt>
      <trkpt lat="48.17366" lon="-3.91647">
        <ele>79.248173</ele>
        <time>2022-12-10T16:24:49.236Z</time>
      </trkpt>
      <trkpt lat="48.17376" lon="-3.91643">
        <ele>79.254161</ele>
        <time>2022-12-10T16:24:52.268Z</time>
      </trkpt>
      <trkpt lat="48.17387" lon="-3.91636">
        <ele>79.26035</ele>
        <time>2022-12-10T16:24:55.242Z</time>
      </trkpt>
      <trkpt lat="48.17396" lon="-3.91629">
        <ele>79.266045</ele>
        <time>2022-12-10T16:24:58.237Z</time>
      </trkpt>
      <trkpt lat="48.17405" lon="-3.91622">
        <ele>79.271533</ele>
        <time>2022-12-10T16:25:01.225Z</time>
      </trkpt>
      <trkpt lat="48.17414" lon="-3.91615">
        <ele>79.277035</ele>
        <time>2022-12-10T16:25:04.243Z</time>
      </trkpt>
      <trkpt lat="48.17424" lon="-3.91607">
        <ele>79.282656</ele>
        <time>2022-12-10T16:25:07.233Z</time>
      </trkpt>
      <trkpt lat="48.17433" lon="-3.91599">
        <ele>79.288612</ele>
        <time>2022-12-10T16:25:10.239Z</time>
      </trkpt>
      <trkpt lat="48.17443" lon="-3.91591">
        <ele>79.294556</ele>
        <time>2022-12-10T16:25:13.233Z</time>
      </trkpt>
      <trkpt lat="48.17452" lon="-3.91583">
        <ele>79.300259</ele>
        <time>2022-12-10T16:25:16.240Z</time>
      </trkpt>
      <trkpt lat="48.17461" lon="-3.91575">
        <ele>79.305971</ele>
        <time>2022-12-10T16:25:19.235Z</time>
      </trkpt>
      <trkpt lat="48.17469" lon="-3.91568">
        <ele>79.273341</ele>
        <time>2022-12-10T16:25:22.234Z</time>
      </trkpt>
      <trkpt lat="48.17478" lon="-3.9156">
        <ele>79.209567</ele>
        <time>2022-12-10T16:25:25.243Z</time>
      </trkpt>
      <trkpt lat="48.17487" lon="-3.91551">
        <ele>79.141267</ele>
        <time>2022-12-10T16:25:28.236Z</time>
      </trkpt>
      <trkpt lat="48.17495" lon="-3.9154">
        <ele>79.076585</ele>
        <time>2022-12-10T16:25:31.236Z</time>
      </trkpt>
      <trkpt lat="48.17502" lon="-3.91529">
        <ele>79.013571</ele>
        <time>2022-12-10T16:25:34.227Z</time>
      </trkpt>
      <trkpt lat="48.17509" lon="-3.91517">
        <ele>78.94789</ele>
        <time>2022-12-10T16:25:37.256Z</time>
      </trkpt>
      <trkpt lat="48.17516" lon="-3.91506">
        <ele>78.883237</ele>
        <time>2022-12-10T16:25:40.235Z</time>
      </trkpt>
      <trkpt lat="48.17522" lon="-3.91495">
        <ele>78.826617</ele>
        <time>2022-12-10T16:25:43.233Z</time>
      </trkpt>
      <trkpt lat="48.17529" lon="-3.91482">
        <ele>78.756597</ele>
        <time>2022-12-10T16:25:47.247Z</time>
      </trkpt>
      <trkpt lat="48.17537" lon="-3.91469">
        <ele>78.684098</ele>
        <time>2022-12-10T16:25:51.230Z</time>
      </trkpt>
      <trkpt lat="48.17544" lon="-3.91458">
        <ele>78.622836</ele>
        <time>2022-12-10T16:25:54.231Z</time>
      </trkpt>
      <trkpt lat="48.17551" lon="-3.91447">
        <ele>78.558698</ele>
        <time>2022-12-10T16:25:57.242Z</time>
      </trkpt>
      <trkpt lat="48.17558" lon="-3.91435">
        <ele>78.49538</ele>
        <time>2022-12-10T16:26:00.238Z</time>
      </trkpt>
      <trkpt lat="48.17565" lon="-3.91423">
        <ele>78.429493</ele>
        <time>2022-12-10T16:26:03.240Z</time>
      </trkpt>
      <trkpt lat="48.17572" lon="-3.91411">
        <ele>78.361137</ele>
        <time>2022-12-10T16:26:06.237Z</time>
      </trkpt>
      <trkpt lat="48.17579" lon="-3.91398">
        <ele>78.291533</ele>
        <time>2022-12-10T16:26:09.228Z</time>
      </trkpt>
      <trkpt lat="48.17586" lon="-3.91386">
        <ele>78.224935</ele>
        <time>2022-12-10T16:26:12.234Z</time>
      </trkpt>
      <trkpt lat="48.17592" lon="-3.91373">
        <ele>78.16055</ele>
        <time>2022-12-10T16:26:15.238Z</time>
      </trkpt>
      <trkpt lat="48.17598" lon="-3.91361">
        <ele>78.094488</ele>
        <time>2022-12-10T16:26:18.232Z</time>
      </trkpt>
      <trkpt lat="48.17604" lon="-3.91348">
        <ele>78.027746</ele>
        <time>2022-12-10T16:26:21.242Z</time>
      </trkpt>
      <trkpt lat="48.1761" lon="-3.91336">
        <ele>77.960916</ele>
        <time>2022-12-10T16:26:24.242Z</time>
      </trkpt>
      <trkpt lat="48.17617" lon="-3.91324">
        <ele>77.890441</ele>
        <time>2022-12-10T16:26:27.234Z</time>
      </trkpt>
      <trkpt lat="48.17624" lon="-3.91311">
        <ele>77.820138</ele>
        <time>2022-12-10T16:26:30.246Z</time>
      </trkpt>
      <trkpt lat="48.17631" lon="-3.91299">
        <ele>77.751065</ele>
        <time>2022-12-10T16:26:33.237Z</time>
      </trkpt>
      <trkpt lat="48.17638" lon="-3.91287">
        <ele>77.684985</ele>
        <time>2022-12-10T16:26:36.239Z</time>
      </trkpt>
      <trkpt lat="48.17644" lon="-3.91275">
        <ele>77.621341</ele>
        <time>2022-12-10T16:26:39.250Z</time>
      </trkpt>
      <trkpt lat="48.1765" lon="-3.91263">
        <ele>77.553386</ele>
        <time>2022-12-10T16:26:42.230Z</time>
      </trkpt>
      <trkpt lat="48.17657" lon="-3.91249">
        <ele>77.479808</ele>
        <time>2022-12-10T16:26:45.247Z</time>
      </trkpt>
      <trkpt lat="48.17664" lon="-3.91235">
        <ele>77.40401</ele>
        <time>2022-12-10T16:26:48.239Z</time>
      </trkpt>
      <trkpt lat="48.17671" lon="-3.91221">
        <ele>77.328977</ele>
        <time>2022-12-10T16:26:51.237Z</time>
      </trkpt>
      <trkpt lat="48.17677" lon="-3.91207">
        <ele>77.256491</ele>
        <time>2022-12-10T16:26:54.234Z</time>
      </trkpt>
      <trkpt lat="48.17683" lon="-3.91193">
        <ele>77.187969</ele>
        <time>2022-12-10T16:26:57.236Z</time>
      </trkpt>
      <trkpt lat="48.17688" lon="-3.9118">
        <ele>77.12069</ele>
        <time>2022-12-10T16:27:00.238Z</time>
      </trkpt>
      <trkpt lat="48.17693" lon="-3.91167">
        <ele>77.055979</ele>
        <time>2022-12-10T16:27:03.248Z</time>
      </trkpt>
      <trkpt lat="48.17697" lon="-3.91152">
        <ele>77.031352</ele>
        <time>2022-12-10T16:27:06.239Z</time>
      </trkpt>
      <trkpt lat="48.17703" lon="-3.91136">
        <ele>77.032954</ele>
        <time>2022-12-10T16:27:09.242Z</time>
      </trkpt>
      <trkpt lat="48.17709" lon="-3.91121">
        <ele>77.034454</ele>
        <time>2022-12-10T16:27:12.251Z</time>
      </trkpt>
      <trkpt lat="48.17714" lon="-3.91106">
        <ele>77.035947</ele>
        <time>2022-12-10T16:27:15.241Z</time>
      </trkpt>
      <trkpt lat="48.1772" lon="-3.91091">
        <ele>77.037442</ele>
        <time>2022-12-10T16:27:18.242Z</time>
      </trkpt>
      <trkpt lat="48.17726" lon="-3.91076">
        <ele>77.038997</ele>
        <time>2022-12-10T16:27:21.236Z</time>
      </trkpt>
      <trkpt lat="48.17732" lon="-3.9106">
        <ele>77.040595</ele>
        <time>2022-12-10T16:27:24.240Z</time>
      </trkpt>
      <trkpt lat="48.17739" lon="-3.91045">
        <ele>77.042163</ele>
        <time>2022-12-10T16:27:27.236Z</time>
      </trkpt>
      <trkpt lat="48.17745" lon="-3.91031">
        <ele>77.043694</ele>
        <time>2022-12-10T16:27:30.235Z</time>
      </trkpt>
      <trkpt lat="48.17753" lon="-3.91017">
        <ele>77.04523</ele>
        <time>2022-12-10T16:27:33.244Z</time>
      </trkpt>
      <trkpt lat="48.1776" lon="-3.91004">
        <ele>77.046748</ele>
        <time>2022-12-10T16:27:36.237Z</time>
      </trkpt>
      <trkpt lat="48.17768" lon="-3.90991">
        <ele>77.048231</ele>
        <time>2022-12-10T16:27:39.235Z</time>
      </trkpt>
      <trkpt lat="48.17775" lon="-3.90979">
        <ele>77.049712</ele>
        <time>2022-12-10T16:27:42.238Z</time>
      </trkpt>
      <trkpt lat="48.17783" lon="-3.90968">
        <ele>77.051151</ele>
        <time>2022-12-10T16:27:45.237Z</time>
      </trkpt>
      <trkpt lat="48.17791" lon="-3.90957">
        <ele>77.052548</ele>
        <time>2022-12-10T16:27:48.234Z</time>
      </trkpt>
      <trkpt lat="48.178" lon="-3.90947">
        <ele>77.054031</ele>
        <time>2022-12-10T16:27:51.234Z</time>
      </trkpt>
      <trkpt lat="48.17809" lon="-3.90937">
        <ele>77.117711</ele>
        <time>2022-12-10T16:27:54.239Z</time>
      </trkpt>
      <trkpt lat="48.17818" lon="-3.90927">
        <ele>77.183746</ele>
        <time>2022-12-10T16:27:57.239Z</time>
      </trkpt>
      <trkpt lat="48.17827" lon="-3.90916">
        <ele>77.252157</ele>
        <time>2022-12-10T16:28:00.240Z</time>
      </trkpt>
      <trkpt lat="48.17837" lon="-3.90907">
        <ele>77.320893</ele>
        <time>2022-12-10T16:28:03.242Z</time>
      </trkpt>
      <trkpt lat="48.17846" lon="-3.90897">
        <ele>77.387488</ele>
        <time>2022-12-10T16:28:06.255Z</time>
      </trkpt>
      <trkpt lat="48.17856" lon="-3.90887">
        <ele>77.457159</ele>
        <time>2022-12-10T16:28:09.239Z</time>
      </trkpt>
      <trkpt lat="48.17866" lon="-3.90877">
        <ele>77.529685</ele>
        <time>2022-12-10T16:28:12.237Z</time>
      </trkpt>
      <trkpt lat="48.17876" lon="-3.90869">
        <ele>77.600206</ele>
        <time>2022-12-10T16:28:15.235Z</time>
      </trkpt>
      <trkpt lat="48.17886" lon="-3.90861">
        <ele>77.664481</ele>
        <time>2022-12-10T16:28:18.233Z</time>
      </trkpt>
      <trkpt lat="48.17895" lon="-3.90854">
        <ele>77.729108</ele>
        <time>2022-12-10T16:28:21.242Z</time>
      </trkpt>
      <trkpt lat="48.17905" lon="-3.90846">
        <ele>77.796975</ele>
        <time>2022-12-10T16:28:24.239Z</time>
      </trkpt>
      <trkpt lat="48.17915" lon="-3.90836">
        <ele>77.864283</ele>
        <time>2022-12-10T16:28:27.240Z</time>
      </trkpt>
      <trkpt lat="48.17924" lon="-3.90827">
        <ele>77.928516</ele>
        <time>2022-12-10T16:28:30.228Z</time>
      </trkpt>
      <trkpt lat="48.17932" lon="-3.90817">
        <ele>77.992234</ele>
        <time>2022-12-10T16:28:33.246Z</time>
      </trkpt>
      <trkpt lat="48.17941" lon="-3.90805">
        <ele>78.062154</ele>
        <time>2022-12-10T16:28:36.236Z</time>
      </trkpt>
      <trkpt lat="48.17949" lon="-3.90794">
        <ele>78.1214</ele>
        <time>2022-12-10T16:28:39.240Z</time>
      </trkpt>
      <trkpt lat="48.17958" lon="-3.90784">
        <ele>78.114676</ele>
        <time>2022-12-10T16:28:42.255Z</time>
      </trkpt>
      <trkpt lat="48.17966" lon="-3.90776">
        <ele>78.108523</ele>
        <time>2022-12-10T16:28:45.238Z</time>
      </trkpt>
      <trkpt lat="48.17974" lon="-3.90768">
        <ele>78.102478</ele>
        <time>2022-12-10T16:28:48.237Z</time>
      </trkpt>
      <trkpt lat="48.17983" lon="-3.90759">
        <ele>78.096164</ele>
        <time>2022-12-10T16:28:52.232Z</time>
      </trkpt>
      <trkpt lat="48.17993" lon="-3.90752">
        <ele>78.089378</ele>
        <time>2022-12-10T16:29:19.249Z</time>
      </trkpt>
      <trkpt lat="48.18001" lon="-3.90742">
        <ele>78.0829</ele>
        <time>2022-12-10T16:29:25.241Z</time>
      </trkpt>
      <trkpt lat="48.18008" lon="-3.90735">
        <ele>78.077206</ele>
        <time>2022-12-10T16:29:29.235Z</time>
      </trkpt>
      <trkpt lat="48.18017" lon="-3.90727">
        <ele>78.071227</ele>
        <time>2022-12-10T16:29:32.243Z</time>
      </trkpt>
      <trkpt lat="48.18025" lon="-3.90719">
        <ele>78.064845</ele>
        <time>2022-12-10T16:29:35.235Z</time>
      </trkpt>
      <trkpt lat="48.18034" lon="-3.9071">
        <ele>78.058187</ele>
        <time>2022-12-10T16:29:38.234Z</time>
      </trkpt>
      <trkpt lat="48.18043" lon="-3.90701">
        <ele>78.051836</ele>
        <time>2022-12-10T16:29:41.240Z</time>
      </trkpt>
      <trkpt lat="48.18051" lon="-3.90692">
        <ele>78.045555</ele>
        <time>2022-12-10T16:29:44.239Z</time>
      </trkpt>
      <trkpt lat="48.18059" lon="-3.90683">
        <ele>78.038955</ele>
        <time>2022-12-10T16:29:47.231Z</time>
      </trkpt>
      <trkpt lat="48.18067" lon="-3.90674">
        <ele>78.033068</ele>
        <time>2022-12-10T16:29:50.247Z</time>
      </trkpt>
      <trkpt lat="48.18075" lon="-3.90664">
        <ele>78.026787</ele>
        <time>2022-12-10T16:29:53.242Z</time>
      </trkpt>
      <trkpt lat="48.18083" lon="-3.90654">
        <ele>78.020184</ele>
        <time>2022-12-10T16:29:56.244Z</time>
      </trkpt>
      <trkpt lat="48.18091" lon="-3.90644">
        <ele>78.013554</ele>
        <time>2022-12-10T16:29:59.235Z</time>
      </trkpt>
      <trkpt lat="48.18099" lon="-3.90631">
        <ele>77.987754</ele>
        <time>2022-12-10T16:30:02.248Z</time>
      </trkpt>
      <trkpt lat="48.18106" lon="-3.90617">
        <ele>77.948381</ele>
        <time>2022-12-10T16:30:05.246Z</time>
      </trkpt>
      <trkpt lat="48.18112" lon="-3.90604">
        <ele>77.91179</ele>
        <time>2022-12-10T16:30:08.238Z</time>
      </trkpt>
      <trkpt lat="48.18118" lon="-3.9059">
        <ele>77.874875</ele>
        <time>2022-12-10T16:30:11.256Z</time>
      </trkpt>
      <trkpt lat="48.18124" lon="-3.90577">
        <ele>77.840933</ele>
        <time>2022-12-10T16:30:14.238Z</time>
      </trkpt>
      <trkpt lat="48.18129" lon="-3.90565">
        <ele>77.808866</ele>
        <time>2022-12-10T16:30:17.256Z</time>
      </trkpt>
      <trkpt lat="48.18134" lon="-3.90553">
        <ele>77.777486</ele>
        <time>2022-12-10T16:30:20.233Z</time>
      </trkpt>
      <trkpt lat="48.18138" lon="-3.90538">
        <ele>77.740202</ele>
        <time>2022-12-10T16:30:23.241Z</time>
      </trkpt>
      <trkpt lat="48.1814" lon="-3.9052">
        <ele>77.699311</ele>
        <time>2022-12-10T16:30:26.241Z</time>
      </trkpt>
      <trkpt lat="48.18141" lon="-3.90502">
        <ele>77.659373</ele>
        <time>2022-12-10T16:30:29.238Z</time>
      </trkpt>
      <trkpt lat="48.18139" lon="-3.90487">
        <ele>77.625742</ele>
        <time>2022-12-10T16:30:32.238Z</time>
      </trkpt>
      <trkpt lat="48.18139" lon="-3.90473">
        <ele>77.594702</ele>
        <time>2022-12-10T16:30:35.231Z</time>
      </trkpt>
      <trkpt lat="48.18137" lon="-3.90458">
        <ele>77.56014</ele>
        <time>2022-12-10T16:30:38.239Z</time>
      </trkpt>
      <trkpt lat="48.18135" lon="-3.90444">
        <ele>77.528917</ele>
        <time>2022-12-10T16:30:41.246Z</time>
      </trkpt>
      <trkpt lat="48.18131" lon="-3.9043">
        <ele>77.494545</ele>
        <time>2022-12-10T16:30:44.234Z</time>
      </trkpt>
      <trkpt lat="48.18127" lon="-3.90415">
        <ele>77.458013</ele>
        <time>2022-12-10T16:30:47.242Z</time>
      </trkpt>
      <trkpt lat="48.18122" lon="-3.904">
        <ele>77.421016</ele>
        <time>2022-12-10T16:30:50.253Z</time>
      </trkpt>
      <trkpt lat="48.18117" lon="-3.90384">
        <ele>77.731673</ele>
        <time>2022-12-10T16:30:53.253Z</time>
      </trkpt>
      <trkpt lat="48.18111" lon="-3.90368">
        <ele>78.265171</ele>
        <time>2022-12-10T16:30:56.243Z</time>
      </trkpt>
      <trkpt lat="48.18106" lon="-3.90354">
        <ele>78.727152</ele>
        <time>2022-12-10T16:30:59.248Z</time>
      </trkpt>
      <trkpt lat="48.18101" lon="-3.90341">
        <ele>79.160418</ele>
        <time>2022-12-10T16:31:02.244Z</time>
      </trkpt>
      <trkpt lat="48.18096" lon="-3.90326">
        <ele>79.641976</ele>
        <time>2022-12-10T16:31:05.246Z</time>
      </trkpt>
      <trkpt lat="48.18091" lon="-3.90313">
        <ele>80.091086</ele>
        <time>2022-12-10T16:31:08.235Z</time>
      </trkpt>
      <trkpt lat="48.18087" lon="-3.903">
        <ele>80.513174</ele>
        <time>2022-12-10T16:31:11.229Z</time>
      </trkpt>
      <trkpt lat="48.18082" lon="-3.90286">
        <ele>80.965871</ele>
        <time>2022-12-10T16:31:14.233Z</time>
      </trkpt>
      <trkpt lat="48.18076" lon="-3.90271">
        <ele>81.465684</ele>
        <time>2022-12-10T16:31:17.258Z</time>
      </trkpt>
      <trkpt lat="48.1807" lon="-3.90258">
        <ele>81.938571</ele>
        <time>2022-12-10T16:31:20.241Z</time>
      </trkpt>
      <trkpt lat="48.1806" lon="-3.90245">
        <ele>82.504076</ele>
        <time>2022-12-10T16:31:23.242Z</time>
      </trkpt>
      <trkpt lat="48.18054" lon="-3.90228">
        <ele>83.064575</ele>
        <time>2022-12-10T16:31:26.238Z</time>
      </trkpt>
      <trkpt lat="48.18047" lon="-3.90213">
        <ele>83.58106</ele>
        <time>2022-12-10T16:31:29.254Z</time>
      </trkpt>
      <trkpt lat="48.18042" lon="-3.90199">
        <ele>84.053897</ele>
        <time>2022-12-10T16:31:32.239Z</time>
      </trkpt>
      <trkpt lat="48.18036" lon="-3.90185">
        <ele>84.533201</ele>
        <time>2022-12-10T16:31:35.241Z</time>
      </trkpt>
      <trkpt lat="48.1803" lon="-3.9017">
        <ele>85.039718</ele>
        <time>2022-12-10T16:31:38.236Z</time>
      </trkpt>
      <trkpt lat="48.18025" lon="-3.90154">
        <ele>84.890038</ele>
        <time>2022-12-10T16:31:41.239Z</time>
      </trkpt>
      <trkpt lat="48.18022" lon="-3.90138">
        <ele>84.41404</ele>
        <time>2022-12-10T16:31:44.243Z</time>
      </trkpt>
      <trkpt lat="48.18018" lon="-3.90122">
        <ele>83.904069</ele>
        <time>2022-12-10T16:31:47.242Z</time>
      </trkpt>
      <trkpt lat="48.18013" lon="-3.90105">
        <ele>83.383055</ele>
        <time>2022-12-10T16:31:50.254Z</time>
      </trkpt>
      <trkpt lat="48.18009" lon="-3.9009">
        <ele>82.887592</ele>
        <time>2022-12-10T16:31:53.244Z</time>
      </trkpt>
      <trkpt lat="48.18004" lon="-3.90075">
        <ele>82.401359</ele>
        <time>2022-12-10T16:31:56.234Z</time>
      </trkpt>
      <trkpt lat="48.18" lon="-3.90059">
        <ele>81.906115</ele>
        <time>2022-12-10T16:31:59.246Z</time>
      </trkpt>
      <trkpt lat="48.17995" lon="-3.90044">
        <ele>81.403844</ele>
        <time>2022-12-10T16:32:02.241Z</time>
      </trkpt>
      <trkpt lat="48.1799" lon="-3.90028">
        <ele>80.905128</ele>
        <time>2022-12-10T16:32:05.243Z</time>
      </trkpt>
      <trkpt lat="48.17986" lon="-3.90013">
        <ele>80.409983</ele>
        <time>2022-12-10T16:32:08.235Z</time>
      </trkpt>
      <trkpt lat="48.17981" lon="-3.89998">
        <ele>79.918126</ele>
        <time>2022-12-10T16:32:11.243Z</time>
      </trkpt>
      <trkpt lat="48.17976" lon="-3.89983">
        <ele>79.442522</ele>
        <time>2022-12-10T16:32:14.237Z</time>
      </trkpt>
      <trkpt lat="48.17972" lon="-3.89968">
        <ele>78.972073</ele>
        <time>2022-12-10T16:32:17.237Z</time>
      </trkpt>
      <trkpt lat="48.17968" lon="-3.89953">
        <ele>78.503663</ele>
        <time>2022-12-10T16:32:20.249Z</time>
      </trkpt>
      <trkpt lat="48.17964" lon="-3.89939">
        <ele>78.035224</ele>
        <time>2022-12-10T16:32:23.242Z</time>
      </trkpt>
      <trkpt lat="48.17959" lon="-3.89924">
        <ele>77.559696</ele>
        <time>2022-12-10T16:32:26.255Z</time>
      </trkpt>
      <trkpt lat="48.17955" lon="-3.89909">
        <ele>77.34107</ele>
        <time>2022-12-10T16:32:29.240Z</time>
      </trkpt>
      <trkpt lat="48.17951" lon="-3.89894">
        <ele>77.373401</ele>
        <time>2022-12-10T16:32:32.244Z</time>
      </trkpt>
      <trkpt lat="48.17946" lon="-3.89879">
        <ele>77.40668</ele>
        <time>2022-12-10T16:32:35.233Z</time>
      </trkpt>
      <trkpt lat="48.17941" lon="-3.89865">
        <ele>77.439379</ele>
        <time>2022-12-10T16:32:38.242Z</time>
      </trkpt>
      <trkpt lat="48.17937" lon="-3.89851">
        <ele>77.469377</ele>
        <time>2022-12-10T16:32:41.259Z</time>
      </trkpt>
      <trkpt lat="48.17932" lon="-3.89836">
        <ele>77.502881</ele>
        <time>2022-12-10T16:32:44.237Z</time>
      </trkpt>
      <trkpt lat="48.17928" lon="-3.89822">
        <ele>77.533499</ele>
        <time>2022-12-10T16:32:47.247Z</time>
      </trkpt>
      <trkpt lat="48.17924" lon="-3.89807">
        <ele>77.565903</ele>
        <time>2022-12-10T16:32:50.239Z</time>
      </trkpt>
      <trkpt lat="48.1792" lon="-3.89793">
        <ele>77.595683</ele>
        <time>2022-12-10T16:32:53.240Z</time>
      </trkpt>
      <trkpt lat="48.17916" lon="-3.89779">
        <ele>77.627698</ele>
        <time>2022-12-10T16:32:57.238Z</time>
      </trkpt>
      <trkpt lat="48.17912" lon="-3.89766">
        <ele>77.656415</ele>
        <time>2022-12-10T16:33:01.233Z</time>
      </trkpt>
      <trkpt lat="48.17907" lon="-3.8975">
        <ele>77.690752</ele>
        <time>2022-12-10T16:33:05.241Z</time>
      </trkpt>
      <trkpt lat="48.17903" lon="-3.89735">
        <ele>77.722351</ele>
        <time>2022-12-10T16:33:08.252Z</time>
      </trkpt>
      <trkpt lat="48.17899" lon="-3.8972">
        <ele>77.754755</ele>
        <time>2022-12-10T16:33:11.241Z</time>
      </trkpt>
      <trkpt lat="48.17895" lon="-3.89705">
        <ele>77.788915</ele>
        <time>2022-12-10T16:33:14.238Z</time>
      </trkpt>
      <trkpt lat="48.1789" lon="-3.89688">
        <ele>77.825212</ele>
        <time>2022-12-10T16:33:17.254Z</time>
      </trkpt>
      <trkpt lat="48.17884" lon="-3.89673">
        <ele>77.859842</ele>
        <time>2022-12-10T16:33:20.248Z</time>
      </trkpt>
      <trkpt lat="48.17878" lon="-3.89659">
        <ele>77.856795</ele>
        <time>2022-12-10T16:33:23.237Z</time>
      </trkpt>
      <trkpt lat="48.17874" lon="-3.89646">
        <ele>77.847411</ele>
        <time>2022-12-10T16:33:26.241Z</time>
      </trkpt>
      <trkpt lat="48.17868" lon="-3.89632">
        <ele>77.837248</ele>
        <time>2022-12-10T16:33:29.242Z</time>
      </trkpt>
      <trkpt lat="48.17862" lon="-3.89619">
        <ele>77.827086</ele>
        <time>2022-12-10T16:33:32.235Z</time>
      </trkpt>
      <trkpt lat="48.17856" lon="-3.89606">
        <ele>77.817493</ele>
        <time>2022-12-10T16:33:35.234Z</time>
      </trkpt>
      <trkpt lat="48.17852" lon="-3.89594">
        <ele>77.808995</ele>
        <time>2022-12-10T16:33:38.239Z</time>
      </trkpt>
      <trkpt lat="48.17846" lon="-3.89583">
        <ele>77.800448</ele>
        <time>2022-12-10T16:33:41.245Z</time>
      </trkpt>
      <trkpt lat="48.17839" lon="-3.89569">
        <ele>77.789308</ele>
        <time>2022-12-10T16:33:44.244Z</time>
      </trkpt>
      <trkpt lat="48.17833" lon="-3.89557">
        <ele>77.779527</ele>
        <time>2022-12-10T16:33:47.239Z</time>
      </trkpt>
      <trkpt lat="48.17826" lon="-3.89544">
        <ele>77.76952</ele>
        <time>2022-12-10T16:33:50.258Z</time>
      </trkpt>
      <trkpt lat="48.1782" lon="-3.89531">
        <ele>77.758965</ele>
        <time>2022-12-10T16:33:53.244Z</time>
      </trkpt>
      <trkpt lat="48.17813" lon="-3.89518">
        <ele>77.748802</ele>
        <time>2022-12-10T16:33:56.241Z</time>
      </trkpt>
      <trkpt lat="48.17806" lon="-3.89506">
        <ele>77.739094</ele>
        <time>2022-12-10T16:33:59.240Z</time>
      </trkpt>
      <trkpt lat="48.178" lon="-3.89494">
        <ele>77.729783</ele>
        <time>2022-12-10T16:34:02.241Z</time>
      </trkpt>
      <trkpt lat="48.17794" lon="-3.89482">
        <ele>77.720159</ele>
        <time>2022-12-10T16:34:05.257Z</time>
      </trkpt>
      <trkpt lat="48.17787" lon="-3.8947">
        <ele>77.709908</ele>
        <time>2022-12-10T16:34:08.240Z</time>
      </trkpt>
      <trkpt lat="48.1778" lon="-3.89458">
        <ele>77.699813</ele>
        <time>2022-12-10T16:34:11.241Z</time>
      </trkpt>
      <trkpt lat="48.17772" lon="-3.89445">
        <ele>77.656989</ele>
        <time>2022-12-10T16:34:14.249Z</time>
      </trkpt>
      <trkpt lat="48.17765" lon="-3.89433">
        <ele>77.600707</ele>
        <time>2022-12-10T16:34:17.249Z</time>
      </trkpt>
      <trkpt lat="48.17759" lon="-3.89423">
        <ele>77.552371</ele>
        <time>2022-12-10T16:34:20.242Z</time>
      </trkpt>
      <trkpt lat="48.17751" lon="-3.89409">
        <ele>77.490479</ele>
        <time>2022-12-10T16:34:24.248Z</time>
      </trkpt>
      <trkpt lat="48.17744" lon="-3.89398">
        <ele>77.440069</ele>
        <time>2022-12-10T16:34:27.232Z</time>
      </trkpt>
      <trkpt lat="48.17736" lon="-3.89385">
        <ele>77.377835</ele>
        <time>2022-12-10T16:34:31.252Z</time>
      </trkpt>
      <trkpt lat="48.1773" lon="-3.89374">
        <ele>77.328031</ele>
        <time>2022-12-10T16:34:34.235Z</time>
      </trkpt>
      <trkpt lat="48.17723" lon="-3.89363">
        <ele>77.274775</ele>
        <time>2022-12-10T16:34:37.244Z</time>
      </trkpt>
      <trkpt lat="48.17716" lon="-3.89352">
        <ele>77.222292</ele>
        <time>2022-12-10T16:34:40.238Z</time>
      </trkpt>
      <trkpt lat="48.1771" lon="-3.89341">
        <ele>77.17118</ele>
        <time>2022-12-10T16:34:43.250Z</time>
      </trkpt>
      <trkpt lat="48.17703" lon="-3.8933">
        <ele>77.117635</ele>
        <time>2022-12-10T16:34:46.238Z</time>
      </trkpt>
      <trkpt lat="48.17696" lon="-3.89318">
        <ele>77.062565</ele>
        <time>2022-12-10T16:34:49.241Z</time>
      </trkpt>
      <trkpt lat="48.17689" lon="-3.89307">
        <ele>77.00973</ele>
        <time>2022-12-10T16:34:52.257Z</time>
      </trkpt>
      <trkpt lat="48.17681" lon="-3.89295">
        <ele>76.953246</ele>
        <time>2022-12-10T16:34:55.245Z</time>
      </trkpt>
      <trkpt lat="48.17675" lon="-3.89282">
        <ele>76.897499</ele>
        <time>2022-12-10T16:34:58.238Z</time>
      </trkpt>
      <trkpt lat="48.1767" lon="-3.8927">
        <ele>76.848332</ele>
        <time>2022-12-10T16:35:01.238Z</time>
      </trkpt>
      <trkpt lat="48.17665" lon="-3.89257">
        <ele>76.79775</ele>
        <time>2022-12-10T16:35:04.237Z</time>
      </trkpt>
      <trkpt lat="48.17661" lon="-3.89244">
        <ele>76.775164</ele>
        <time>2022-12-10T16:35:07.249Z</time>
      </trkpt>
      <trkpt lat="48.17657" lon="-3.89231">
        <ele>76.816309</ele>
        <time>2022-12-10T16:35:10.238Z</time>
      </trkpt>
      <trkpt lat="48.17653" lon="-3.89217">
        <ele>76.863847</ele>
        <time>2022-12-10T16:35:14.255Z</time>
      </trkpt>
      <trkpt lat="48.17649" lon="-3.89201">
        <ele>76.915262</ele>
        <time>2022-12-10T16:35:18.241Z</time>
      </trkpt>
      <trkpt lat="48.17645" lon="-3.89189">
        <ele>76.956897</ele>
        <time>2022-12-10T16:35:21.243Z</time>
      </trkpt>
      <trkpt lat="48.17643" lon="-3.89175">
        <ele>77.000285</ele>
        <time>2022-12-10T16:35:24.242Z</time>
      </trkpt>
      <trkpt lat="48.17639" lon="-3.8916">
        <ele>77.048134</ele>
        <time>2022-12-10T16:35:27.244Z</time>
      </trkpt>
      <trkpt lat="48.17636" lon="-3.89146">
        <ele>77.093906</ele>
        <time>2022-12-10T16:35:30.239Z</time>
      </trkpt>
      <trkpt lat="48.17632" lon="-3.89132">
        <ele>77.139964</ele>
        <time>2022-12-10T16:35:33.235Z</time>
      </trkpt>
      <trkpt lat="48.17628" lon="-3.89117">
        <ele>77.190411</ele>
        <time>2022-12-10T16:35:37.248Z</time>
      </trkpt>
      <trkpt lat="48.17623" lon="-3.89104">
        <ele>77.233682</ele>
        <time>2022-12-10T16:35:40.240Z</time>
      </trkpt>
      <trkpt lat="48.17617" lon="-3.89092">
        <ele>77.281713</ele>
        <time>2022-12-10T16:35:43.236Z</time>
      </trkpt>
      <trkpt lat="48.17608" lon="-3.89083">
        <ele>77.327347</ele>
        <time>2022-12-10T16:35:46.237Z</time>
      </trkpt>
      <trkpt lat="48.17601" lon="-3.89074">
        <ele>77.370078</ele>
        <time>2022-12-10T16:35:49.240Z</time>
      </trkpt>
      <trkpt lat="48.17594" lon="-3.89064">
        <ele>77.414733</ele>
        <time>2022-12-10T16:35:52.241Z</time>
      </trkpt>
      <trkpt lat="48.17587" lon="-3.89053">
        <ele>77.461002</ele>
        <time>2022-12-10T16:35:55.247Z</time>
      </trkpt>
      <trkpt lat="48.17581" lon="-3.89042">
        <ele>77.504237</ele>
        <time>2022-12-10T16:35:58.241Z</time>
      </trkpt>
      <trkpt lat="48.17575" lon="-3.8903">
        <ele>77.548813</ele>
        <time>2022-12-10T16:36:01.238Z</time>
      </trkpt>
      <trkpt lat="48.17569" lon="-3.89018">
        <ele>77.64361</ele>
        <time>2022-12-10T16:36:04.244Z</time>
      </trkpt>
      <trkpt lat="48.17564" lon="-3.89006">
        <ele>77.859314</ele>
        <time>2022-12-10T16:36:07.252Z</time>
      </trkpt>
      <trkpt lat="48.17559" lon="-3.88989">
        <ele>78.129075</ele>
        <time>2022-12-10T16:36:11.246Z</time>
      </trkpt>
      <trkpt lat="48.17552" lon="-3.88977">
        <ele>78.354819</ele>
        <time>2022-12-10T16:36:14.238Z</time>
      </trkpt>
      <trkpt lat="48.17547" lon="-3.88964">
        <ele>78.579284</ele>
        <time>2022-12-10T16:36:17.249Z</time>
      </trkpt>
      <trkpt lat="48.17542" lon="-3.88951">
        <ele>78.801122</ele>
        <time>2022-12-10T16:36:20.239Z</time>
      </trkpt>
      <trkpt lat="48.17537" lon="-3.88939">
        <ele>79.007408</ele>
        <time>2022-12-10T16:36:23.243Z</time>
      </trkpt>
      <trkpt lat="48.17532" lon="-3.88926">
        <ele>79.227932</ele>
        <time>2022-12-10T16:36:26.241Z</time>
      </trkpt>
      <trkpt lat="48.17527" lon="-3.88913">
        <ele>79.444986</ele>
        <time>2022-12-10T16:36:29.237Z</time>
      </trkpt>
      <trkpt lat="48.17521" lon="-3.88899">
        <ele>79.679416</ele>
        <time>2022-12-10T16:36:33.238Z</time>
      </trkpt>
      <trkpt lat="48.17515" lon="-3.88884">
        <ele>79.941817</ele>
        <time>2022-12-10T16:36:37.244Z</time>
      </trkpt>
      <trkpt lat="48.1751" lon="-3.88872">
        <ele>80.14534</ele>
        <time>2022-12-10T16:36:40.248Z</time>
      </trkpt>
      <trkpt lat="48.17506" lon="-3.88859">
        <ele>80.360163</ele>
        <time>2022-12-10T16:36:43.256Z</time>
      </trkpt>
      <trkpt lat="48.17502" lon="-3.88846">
        <ele>80.564419</ele>
        <time>2022-12-10T16:36:46.269Z</time>
      </trkpt>
      <trkpt lat="48.17497" lon="-3.88833">
        <ele>80.790743</ele>
        <time>2022-12-10T16:36:49.239Z</time>
      </trkpt>
      <trkpt lat="48.17494" lon="-3.88819">
        <ele>81.006768</ele>
        <time>2022-12-10T16:36:52.242Z</time>
      </trkpt>
      <trkpt lat="48.1749" lon="-3.88805">
        <ele>81.235161</ele>
        <time>2022-12-10T16:36:55.261Z</time>
      </trkpt>
      <trkpt lat="48.17486" lon="-3.8879">
        <ele>81.463555</ele>
        <time>2022-12-10T16:36:58.236Z</time>
      </trkpt>
      <trkpt lat="48.17482" lon="-3.88776">
        <ele>81.700837</ele>
        <time>2022-12-10T16:37:01.245Z</time>
      </trkpt>
      <trkpt lat="48.17477" lon="-3.8876">
        <ele>81.973854</ele>
        <time>2022-12-10T16:37:05.241Z</time>
      </trkpt>
      <trkpt lat="48.17473" lon="-3.88745">
        <ele>82.233194</ele>
        <time>2022-12-10T16:37:09.236Z</time>
      </trkpt>
      <trkpt lat="48.1747" lon="-3.88728">
        <ele>82.50005</ele>
        <time>2022-12-10T16:37:13.234Z</time>
      </trkpt>
      <trkpt lat="48.17467" lon="-3.88713">
        <ele>82.757588</ele>
        <time>2022-12-10T16:37:16.252Z</time>
      </trkpt>
      <trkpt lat="48.17465" lon="-3.88698">
        <ele>82.984405</ele>
        <time>2022-12-10T16:37:19.243Z</time>
      </trkpt>
      <trkpt lat="48.17461" lon="-3.88684">
        <ele>83.234731</ele>
        <time>2022-12-10T16:37:24.237Z</time>
      </trkpt>
      <trkpt lat="48.17458" lon="-3.88671">
        <ele>83.449901</ele>
        <time>2022-12-10T16:37:28.240Z</time>
      </trkpt>
      <trkpt lat="48.17454" lon="-3.88654">
        <ele>83.721603</ele>
        <time>2022-12-10T16:37:32.238Z</time>
      </trkpt>
      <trkpt lat="48.17452" lon="-3.88638">
        <ele>83.982695</ele>
        <time>2022-12-10T16:37:36.249Z</time>
      </trkpt>
      <trkpt lat="48.17449" lon="-3.88625">
        <ele>84.200183</ele>
        <time>2022-12-10T16:37:39.244Z</time>
      </trkpt>
      <trkpt lat="48.17446" lon="-3.88612">
        <ele>84.416165</ele>
        <time>2022-12-10T16:37:42.239Z</time>
      </trkpt>
      <trkpt lat="48.17443" lon="-3.88598">
        <ele>84.647553</ele>
        <time>2022-12-10T16:37:45.240Z</time>
      </trkpt>
      <trkpt lat="48.17437" lon="-3.88582">
        <ele>84.938584</ele>
        <time>2022-12-10T16:37:49.243Z</time>
      </trkpt>
      <trkpt lat="48.17433" lon="-3.88569">
        <ele>85.15479</ele>
        <time>2022-12-10T16:37:53.240Z</time>
      </trkpt>
      <trkpt lat="48.17425" lon="-3.88554">
        <ele>85.457418</ele>
        <time>2022-12-10T16:38:44.247Z</time>
      </trkpt>
      <trkpt lat="48.1742" lon="-3.8854">
        <ele>85.704449</ele>
        <time>2022-12-10T16:38:48.237Z</time>
      </trkpt>
      <trkpt lat="48.17416" lon="-3.88527">
        <ele>85.56877</ele>
        <time>2022-12-10T16:38:51.241Z</time>
      </trkpt>
      <trkpt lat="48.17413" lon="-3.88514">
        <ele>85.29909</ele>
        <time>2022-12-10T16:38:54.237Z</time>
      </trkpt>
      <trkpt lat="48.17408" lon="-3.88502">
        <ele>85.020273</ele>
        <time>2022-12-10T16:38:57.238Z</time>
      </trkpt>
      <trkpt lat="48.17403" lon="-3.8849">
        <ele>84.753554</ele>
        <time>2022-12-10T16:39:00.237Z</time>
      </trkpt>
      <trkpt lat="48.17396" lon="-3.88475">
        <ele>84.396765</ele>
        <time>2022-12-10T16:39:04.234Z</time>
      </trkpt>
      <trkpt lat="48.1739" lon="-3.88463">
        <ele>84.101186</ele>
        <time>2022-12-10T16:39:07.236Z</time>
      </trkpt>
      <trkpt lat="48.17384" lon="-3.88451">
        <ele>83.805314</ele>
        <time>2022-12-10T16:39:10.232Z</time>
      </trkpt>
      <trkpt lat="48.17378" lon="-3.88438">
        <ele>83.499628</ele>
        <time>2022-12-10T16:39:13.240Z</time>
      </trkpt>
      <trkpt lat="48.1737" lon="-3.88425">
        <ele>83.17327</ele>
        <time>2022-12-10T16:39:16.233Z</time>
      </trkpt>
      <trkpt lat="48.17364" lon="-3.88413">
        <ele>82.868727</ele>
        <time>2022-12-10T16:39:19.237Z</time>
      </trkpt>
      <trkpt lat="48.17356" lon="-3.88402">
        <ele>82.56748</ele>
        <time>2022-12-10T16:39:22.232Z</time>
      </trkpt>
      <trkpt lat="48.17349" lon="-3.88391">
        <ele>82.26635</ele>
        <time>2022-12-10T16:39:25.239Z</time>
      </trkpt>
      <trkpt lat="48.17342" lon="-3.8838">
        <ele>81.971425</ele>
        <time>2022-12-10T16:39:28.240Z</time>
      </trkpt>
      <trkpt lat="48.17334" lon="-3.8837">
        <ele>81.671709</ele>
        <time>2022-12-10T16:39:31.240Z</time>
      </trkpt>
      <trkpt lat="48.17327" lon="-3.88359">
        <ele>81.381429</ele>
        <time>2022-12-10T16:39:34.236Z</time>
      </trkpt>
      <trkpt lat="48.17319" lon="-3.88349">
        <ele>81.07826</ele>
        <time>2022-12-10T16:39:37.237Z</time>
      </trkpt>
      <trkpt lat="48.17311" lon="-3.88339">
        <ele>80.787979</ele>
        <time>2022-12-10T16:39:40.243Z</time>
      </trkpt>
      <trkpt lat="48.17303" lon="-3.88328">
        <ele>80.51932</ele>
        <time>2022-12-10T16:39:43.236Z</time>
      </trkpt>
      <trkpt lat="48.17295" lon="-3.88317">
        <ele>80.393425</ele>
        <time>2022-12-10T16:39:46.241Z</time>
      </trkpt>
      <trkpt lat="48.17287" lon="-3.88306">
        <ele>80.263346</ele>
        <time>2022-12-10T16:39:49.241Z</time>
      </trkpt>
      <trkpt lat="48.1728" lon="-3.88293">
        <ele>80.13596</ele>
        <time>2022-12-10T16:39:52.244Z</time>
      </trkpt>
      <trkpt lat="48.17273" lon="-3.88281">
        <ele>80.008574</ele>
        <time>2022-12-10T16:39:55.255Z</time>
      </trkpt>
      <trkpt lat="48.17267" lon="-3.88267">
        <ele>79.879283</ele>
        <time>2022-12-10T16:39:58.241Z</time>
      </trkpt>
      <trkpt lat="48.17261" lon="-3.88254">
        <ele>79.750757</ele>
        <time>2022-12-10T16:40:01.249Z</time>
      </trkpt>
      <trkpt lat="48.17256" lon="-3.88239">
        <ele>79.621196</ele>
        <time>2022-12-10T16:40:04.246Z</time>
      </trkpt>
      <trkpt lat="48.17251" lon="-3.88224">
        <ele>79.488818</ele>
        <time>2022-12-10T16:40:07.239Z</time>
      </trkpt>
      <trkpt lat="48.17246" lon="-3.88208">
        <ele>79.354357</ele>
        <time>2022-12-10T16:40:10.239Z</time>
      </trkpt>
      <trkpt lat="48.17241" lon="-3.88193">
        <ele>79.220847</ele>
        <time>2022-12-10T16:40:13.245Z</time>
      </trkpt>
      <trkpt lat="48.17238" lon="-3.88178">
        <ele>79.099971</ele>
        <time>2022-12-10T16:40:16.244Z</time>
      </trkpt>
      <trkpt lat="48.17236" lon="-3.88164">
        <ele>78.985868</ele>
        <time>2022-12-10T16:40:19.239Z</time>
      </trkpt>
      <trkpt lat="48.17233" lon="-3.88148">
        <ele>78.859495</ele>
        <time>2022-12-10T16:40:22.270Z</time>
      </trkpt>
      <trkpt lat="48.17231" lon="-3.88134">
        <ele>78.739575</ele>
        <time>2022-12-10T16:40:25.237Z</time>
      </trkpt>
      <trkpt lat="48.17226" lon="-3.88112">
        <ele>78.560232</ele>
        <time>2022-12-10T16:41:04.243Z</time>
      </trkpt>
      <trkpt lat="48.17224" lon="-3.88098">
        <ele>78.445959</ele>
        <time>2022-12-10T16:41:08.239Z</time>
      </trkpt>
      <trkpt lat="48.1722" lon="-3.88082">
        <ele>78.287564</ele>
        <time>2022-12-10T16:41:12.244Z</time>
      </trkpt>
      <trkpt lat="48.17217" lon="-3.88067">
        <ele>78.150579</ele>
        <time>2022-12-10T16:41:15.241Z</time>
      </trkpt>
      <trkpt lat="48.17215" lon="-3.88053">
        <ele>78.014126</ele>
        <time>2022-12-10T16:41:18.239Z</time>
      </trkpt>
      <trkpt lat="48.17213" lon="-3.88039">
        <ele>77.874945</ele>
        <time>2022-12-10T16:41:21.256Z</time>
      </trkpt>
      <trkpt lat="48.17212" lon="-3.88024">
        <ele>77.741103</ele>
        <time>2022-12-10T16:41:24.240Z</time>
      </trkpt>
      <trkpt lat="48.1721" lon="-3.8801">
        <ele>77.603377</ele>
        <time>2022-12-10T16:41:27.236Z</time>
      </trkpt>
      <trkpt lat="48.17209" lon="-3.87995">
        <ele>77.461681</ele>
        <time>2022-12-10T16:41:30.238Z</time>
      </trkpt>
      <trkpt lat="48.17207" lon="-3.87979">
        <ele>77.308215</ele>
        <time>2022-12-10T16:41:33.239Z</time>
      </trkpt>
      <trkpt lat="48.17206" lon="-3.87963">
        <ele>77.158153</ele>
        <time>2022-12-10T16:41:36.234Z</time>
      </trkpt>
      <trkpt lat="48.17205" lon="-3.87948">
        <ele>77.017225</ele>
        <time>2022-12-10T16:41:39.254Z</time>
      </trkpt>
      <trkpt lat="48.17203" lon="-3.87933">
        <ele>76.87713</ele>
        <time>2022-12-10T16:41:42.240Z</time>
      </trkpt>
      <trkpt lat="48.172" lon="-3.87918">
        <ele>76.733086</ele>
        <time>2022-12-10T16:41:45.251Z</time>
      </trkpt>
      <trkpt lat="48.17197" lon="-3.87902">
        <ele>76.58096</ele>
        <time>2022-12-10T16:41:48.239Z</time>
      </trkpt>
      <trkpt lat="48.17194" lon="-3.87888">
        <ele>76.44183</ele>
        <time>2022-12-10T16:41:51.236Z</time>
      </trkpt>
      <trkpt lat="48.17191" lon="-3.87872">
        <ele>76.288038</ele>
        <time>2022-12-10T16:41:54.251Z</time>
      </trkpt>
      <trkpt lat="48.17188" lon="-3.87857">
        <ele>76.133736</ele>
        <time>2022-12-10T16:41:57.240Z</time>
      </trkpt>
      <trkpt lat="48.17185" lon="-3.87841">
        <ele>75.9818</ele>
        <time>2022-12-10T16:42:00.243Z</time>
      </trkpt>
      <trkpt lat="48.17182" lon="-3.87825">
        <ele>76.002455</ele>
        <time>2022-12-10T16:42:03.249Z</time>
      </trkpt>
      <trkpt lat="48.17178" lon="-3.87809">
        <ele>76.144182</ele>
        <time>2022-12-10T16:42:06.241Z</time>
      </trkpt>
      <trkpt lat="48.17175" lon="-3.87793">
        <ele>76.274421</ele>
        <time>2022-12-10T16:42:09.238Z</time>
      </trkpt>
      <trkpt lat="48.17172" lon="-3.87777">
        <ele>76.40854</ele>
        <time>2022-12-10T16:42:12.239Z</time>
      </trkpt>
      <trkpt lat="48.17169" lon="-3.87763">
        <ele>76.531987</ele>
        <time>2022-12-10T16:42:15.240Z</time>
      </trkpt>
      <trkpt lat="48.17166" lon="-3.87746">
        <ele>76.671399</ele>
        <time>2022-12-10T16:42:18.241Z</time>
      </trkpt>
      <trkpt lat="48.17162" lon="-3.87731">
        <ele>76.803697</ele>
        <time>2022-12-10T16:42:21.240Z</time>
      </trkpt>
      <trkpt lat="48.17157" lon="-3.87716">
        <ele>76.938102</ele>
        <time>2022-12-10T16:42:24.231Z</time>
      </trkpt>
      <trkpt lat="48.17153" lon="-3.87701">
        <ele>77.07155</ele>
        <time>2022-12-10T16:42:27.245Z</time>
      </trkpt>
      <trkpt lat="48.17148" lon="-3.87686">
        <ele>77.20077</ele>
        <time>2022-12-10T16:42:30.238Z</time>
      </trkpt>
      <trkpt lat="48.17144" lon="-3.87671">
        <ele>77.335022</ele>
        <time>2022-12-10T16:42:33.242Z</time>
      </trkpt>
      <trkpt lat="48.17139" lon="-3.87657">
        <ele>77.467029</ele>
        <time>2022-12-10T16:42:36.239Z</time>
      </trkpt>
      <trkpt lat="48.17134" lon="-3.87642">
        <ele>77.602086</ele>
        <time>2022-12-10T16:42:39.250Z</time>
      </trkpt>
      <trkpt lat="48.17128" lon="-3.87629">
        <ele>77.730767</ele>
        <time>2022-12-10T16:42:42.243Z</time>
      </trkpt>
      <trkpt lat="48.17122" lon="-3.87615">
        <ele>77.861503</ele>
        <time>2022-12-10T16:42:45.243Z</time>
      </trkpt>
      <trkpt lat="48.17116" lon="-3.87601">
        <ele>77.993539</ele>
        <time>2022-12-10T16:42:48.241Z</time>
      </trkpt>
      <trkpt lat="48.1711" lon="-3.87588">
        <ele>78.110304</ele>
        <time>2022-12-10T16:42:51.239Z</time>
      </trkpt>
      <trkpt lat="48.17104" lon="-3.87575">
        <ele>78.140486</ele>
        <time>2022-12-10T16:42:54.242Z</time>
      </trkpt>
      <trkpt lat="48.17097" lon="-3.87562">
        <ele>78.172468</ele>
        <time>2022-12-10T16:42:57.243Z</time>
      </trkpt>
      <trkpt lat="48.17089" lon="-3.8755">
        <ele>78.203494</ele>
        <time>2022-12-10T16:43:00.237Z</time>
      </trkpt>
      <trkpt lat="48.17082" lon="-3.87538">
        <ele>78.234975</ele>
        <time>2022-12-10T16:43:03.239Z</time>
      </trkpt>
      <trkpt lat="48.17073" lon="-3.87527">
        <ele>78.267392</ele>
        <time>2022-12-10T16:43:06.239Z</time>
      </trkpt>
      <trkpt lat="48.17065" lon="-3.87517">
        <ele>78.296736</ele>
        <time>2022-12-10T16:43:09.244Z</time>
      </trkpt>
      <trkpt lat="48.17058" lon="-3.87509">
        <ele>78.323732</ele>
        <time>2022-12-10T16:43:12.241Z</time>
      </trkpt>
      <trkpt lat="48.17049" lon="-3.87501">
        <ele>78.351361</ele>
        <time>2022-12-10T16:43:15.233Z</time>
      </trkpt>
      <trkpt lat="48.1704" lon="-3.87492">
        <ele>78.382322</ele>
        <time>2022-12-10T16:43:18.257Z</time>
      </trkpt>
      <trkpt lat="48.17031" lon="-3.87484">
        <ele>78.412494</ele>
        <time>2022-12-10T16:43:21.238Z</time>
      </trkpt>
      <trkpt lat="48.17024" lon="-3.87475">
        <ele>78.440067</ele>
        <time>2022-12-10T16:43:24.259Z</time>
      </trkpt>
      <trkpt lat="48.17014" lon="-3.87464">
        <ele>78.475073</ele>
        <time>2022-12-10T16:43:28.238Z</time>
      </trkpt>
      <trkpt lat="48.17006" lon="-3.87456">
        <ele>78.50184</ele>
        <time>2022-12-10T16:43:31.239Z</time>
      </trkpt>
      <trkpt lat="48.16999" lon="-3.87445">
        <ele>78.532197</ele>
        <time>2022-12-10T16:43:34.238Z</time>
      </trkpt>
      <trkpt lat="48.16991" lon="-3.87435">
        <ele>78.562347</ele>
        <time>2022-12-10T16:43:37.242Z</time>
      </trkpt>
      <trkpt lat="48.16984" lon="-3.87424">
        <ele>78.590794</ele>
        <time>2022-12-10T16:43:40.242Z</time>
      </trkpt>
      <trkpt lat="48.16976" lon="-3.87413">
        <ele>78.619953</ele>
        <time>2022-12-10T16:43:43.238Z</time>
      </trkpt>
      <trkpt lat="48.16969" lon="-3.87401">
        <ele>78.669403</ele>
        <time>2022-12-10T16:43:46.252Z</time>
      </trkpt>
      <trkpt lat="48.16961" lon="-3.8739">
        <ele>78.71672</ele>
        <time>2022-12-10T16:43:49.241Z</time>
      </trkpt>
      <trkpt lat="48.16954" lon="-3.87379">
        <ele>78.763842</ele>
        <time>2022-12-10T16:43:52.244Z</time>
      </trkpt>
      <trkpt lat="48.16947" lon="-3.87367">
        <ele>78.812147</ele>
        <time>2022-12-10T16:43:55.239Z</time>
      </trkpt>
      <trkpt lat="48.1694" lon="-3.87355">
        <ele>78.860905</ele>
        <time>2022-12-10T16:43:58.248Z</time>
      </trkpt>
      <trkpt lat="48.16932" lon="-3.87343">
        <ele>78.910264</ele>
        <time>2022-12-10T16:44:01.242Z</time>
      </trkpt>
      <trkpt lat="48.16926" lon="-3.8733">
        <ele>78.958445</ele>
        <time>2022-12-10T16:44:04.243Z</time>
      </trkpt>
      <trkpt lat="48.16919" lon="-3.87318">
        <ele>79.004719</ele>
        <time>2022-12-10T16:44:07.245Z</time>
      </trkpt>
      <trkpt lat="48.16914" lon="-3.87306">
        <ele>79.048667</ele>
        <time>2022-12-10T16:44:10.257Z</time>
      </trkpt>
      <trkpt lat="48.16908" lon="-3.87294">
        <ele>79.093389</ele>
        <time>2022-12-10T16:44:13.241Z</time>
      </trkpt>
      <trkpt lat="48.16903" lon="-3.87282">
        <ele>79.136591</ele>
        <time>2022-12-10T16:44:16.243Z</time>
      </trkpt>
      <trkpt lat="48.16898" lon="-3.87269">
        <ele>79.182065</ele>
        <time>2022-12-10T16:44:19.241Z</time>
      </trkpt>
      <trkpt lat="48.16893" lon="-3.87256">
        <ele>79.227626</ele>
        <time>2022-12-10T16:44:22.233Z</time>
      </trkpt>
      <trkpt lat="48.16888" lon="-3.87242">
        <ele>79.274284</ele>
        <time>2022-12-10T16:44:25.245Z</time>
      </trkpt>
      <trkpt lat="48.16883" lon="-3.87228">
        <ele>79.321419</ele>
        <time>2022-12-10T16:44:28.250Z</time>
      </trkpt>
      <trkpt lat="48.16877" lon="-3.87215">
        <ele>79.367114</ele>
        <time>2022-12-10T16:44:31.244Z</time>
      </trkpt>
      <trkpt lat="48.16872" lon="-3.87202">
        <ele>79.413507</ele>
        <time>2022-12-10T16:44:34.244Z</time>
      </trkpt>
      <trkpt lat="48.16867" lon="-3.87189">
        <ele>79.397862</ele>
        <time>2022-12-10T16:44:37.236Z</time>
      </trkpt>
      <trkpt lat="48.16862" lon="-3.87176">
        <ele>79.354421</ele>
        <time>2022-12-10T16:44:40.243Z</time>
      </trkpt>
      <trkpt lat="48.16856" lon="-3.87162">
        <ele>79.298408</ele>
        <time>2022-12-10T16:44:44.247Z</time>
      </trkpt>
      <trkpt lat="48.16849" lon="-3.87147">
        <ele>79.244711</ele>
        <time>2022-12-10T16:44:48.241Z</time>
      </trkpt>
      <trkpt lat="48.16845" lon="-3.87131">
        <ele>79.190282</ele>
        <time>2022-12-10T16:44:52.236Z</time>
      </trkpt>
      <trkpt lat="48.1684" lon="-3.87114">
        <ele>79.135034</ele>
        <time>2022-12-10T16:44:56.248Z</time>
      </trkpt>
      <trkpt lat="48.16837" lon="-3.87102">
        <ele>79.092115</ele>
        <time>2022-12-10T16:44:59.240Z</time>
      </trkpt>
      <trkpt lat="48.16833" lon="-3.87088">
        <ele>79.047408</ele>
        <time>2022-12-10T16:45:02.242Z</time>
      </trkpt>
      <trkpt lat="48.16829" lon="-3.87075">
        <ele>79.002013</ele>
        <time>2022-12-10T16:45:05.243Z</time>
      </trkpt>
      <trkpt lat="48.16826" lon="-3.87061">
        <ele>78.958455</ele>
        <time>2022-12-10T16:45:08.247Z</time>
      </trkpt>
      <trkpt lat="48.16823" lon="-3.87044">
        <ele>78.903653</ele>
        <time>2022-12-10T16:45:12.243Z</time>
      </trkpt>
      <trkpt lat="48.16819" lon="-3.87028">
        <ele>78.847991</ele>
        <time>2022-12-10T16:45:16.247Z</time>
      </trkpt>
      <trkpt lat="48.16816" lon="-3.87015">
        <ele>78.80611</ele>
        <time>2022-12-10T16:45:19.242Z</time>
      </trkpt>
      <trkpt lat="48.16812" lon="-3.87002">
        <ele>78.762643</ele>
        <time>2022-12-10T16:45:22.238Z</time>
      </trkpt>
      <trkpt lat="48.16808" lon="-3.86989">
        <ele>78.717754</ele>
        <time>2022-12-10T16:45:25.252Z</time>
      </trkpt>
      <trkpt lat="48.16803" lon="-3.86973">
        <ele>78.663041</ele>
        <time>2022-12-10T16:45:29.245Z</time>
      </trkpt>
      <trkpt lat="48.16799" lon="-3.8696">
        <ele>78.617387</ele>
        <time>2022-12-10T16:45:32.245Z</time>
      </trkpt>
      <trkpt lat="48.16796" lon="-3.86946">
        <ele>78.587545</ele>
        <time>2022-12-10T16:45:35.239Z</time>
      </trkpt>
      <trkpt lat="48.16792" lon="-3.8693">
        <ele>78.573624</ele>
        <time>2022-12-10T16:45:39.244Z</time>
      </trkpt>
      <trkpt lat="48.16788" lon="-3.86913">
        <ele>78.559339</ele>
        <time>2022-12-10T16:45:43.241Z</time>
      </trkpt>
      <trkpt lat="48.16786" lon="-3.86898">
        <ele>78.547126</ele>
        <time>2022-12-10T16:45:47.238Z</time>
      </trkpt>
      <trkpt lat="48.16783" lon="-3.86885">
        <ele>78.536011</ele>
        <time>2022-12-10T16:45:50.233Z</time>
      </trkpt>
      <trkpt lat="48.16778" lon="-3.8687">
        <ele>78.521968</ele>
        <time>2022-12-10T16:45:54.241Z</time>
      </trkpt>
      <trkpt lat="48.16776" lon="-3.86856">
        <ele>78.510531</ele>
        <time>2022-12-10T16:45:57.233Z</time>
      </trkpt>
      <trkpt lat="48.16771" lon="-3.86841">
        <ele>78.497409</ele>
        <time>2022-12-10T16:46:00.242Z</time>
      </trkpt>
      <trkpt lat="48.16766" lon="-3.86827">
        <ele>78.484056</ele>
        <time>2022-12-10T16:46:03.240Z</time>
      </trkpt>
      <trkpt lat="48.16759" lon="-3.86814">
        <ele>78.471174</ele>
        <time>2022-12-10T16:46:06.257Z</time>
      </trkpt>
      <trkpt lat="48.16751" lon="-3.86802">
        <ele>78.457424</ele>
        <time>2022-12-10T16:46:09.237Z</time>
      </trkpt>
      <trkpt lat="48.16744" lon="-3.8679">
        <ele>78.444063</ele>
        <time>2022-12-10T16:46:12.237Z</time>
      </trkpt>
      <trkpt lat="48.16736" lon="-3.8678">
        <ele>78.432143</ele>
        <time>2022-12-10T16:46:15.235Z</time>
      </trkpt>
      <trkpt lat="48.16729" lon="-3.86771">
        <ele>78.420211</ele>
        <time>2022-12-10T16:46:18.239Z</time>
      </trkpt>
      <trkpt lat="48.16721" lon="-3.86762">
        <ele>78.408135</ele>
        <time>2022-12-10T16:46:21.245Z</time>
      </trkpt>
      <trkpt lat="48.16713" lon="-3.86753">
        <ele>78.396396</ele>
        <time>2022-12-10T16:46:24.260Z</time>
      </trkpt>
      <trkpt lat="48.16703" lon="-3.86742">
        <ele>78.382144</ele>
        <time>2022-12-10T16:46:28.242Z</time>
      </trkpt>
      <trkpt lat="48.16696" lon="-3.86735">
        <ele>78.364466</ele>
        <time>2022-12-10T16:46:31.246Z</time>
      </trkpt>
      <trkpt lat="48.16687" lon="-3.86727">
        <ele>78.333947</ele>
        <time>2022-12-10T16:46:34.242Z</time>
      </trkpt>
      <trkpt lat="48.16679" lon="-3.86718">
        <ele>78.304181</ele>
        <time>2022-12-10T16:46:37.247Z</time>
      </trkpt>
      <trkpt lat="48.16671" lon="-3.8671">
        <ele>78.273814</ele>
        <time>2022-12-10T16:46:40.241Z</time>
      </trkpt>
      <trkpt lat="48.16663" lon="-3.867">
        <ele>78.242106</ele>
        <time>2022-12-10T16:46:43.241Z</time>
      </trkpt>
      <trkpt lat="48.16655" lon="-3.8669">
        <ele>78.210039</ele>
        <time>2022-12-10T16:46:46.243Z</time>
      </trkpt>
      <trkpt lat="48.16647" lon="-3.86681">
        <ele>78.179024</ele>
        <time>2022-12-10T16:46:49.243Z</time>
      </trkpt>
      <trkpt lat="48.16639" lon="-3.86671">
        <ele>78.148373</ele>
        <time>2022-12-10T16:46:52.243Z</time>
      </trkpt>
      <trkpt lat="48.16632" lon="-3.8666">
        <ele>78.118448</ele>
        <time>2022-12-10T16:46:55.241Z</time>
      </trkpt>
      <trkpt lat="48.16626" lon="-3.86648">
        <ele>78.087689</ele>
        <time>2022-12-10T16:46:58.243Z</time>
      </trkpt>
      <trkpt lat="48.16619" lon="-3.86636">
        <ele>78.056229</ele>
        <time>2022-12-10T16:47:01.240Z</time>
      </trkpt>
      <trkpt lat="48.16613" lon="-3.86625">
        <ele>78.025978</ele>
        <time>2022-12-10T16:47:04.237Z</time>
      </trkpt>
      <trkpt lat="48.16607" lon="-3.86613">
        <ele>77.996001</ele>
        <time>2022-12-10T16:47:07.243Z</time>
      </trkpt>
      <trkpt lat="48.16601" lon="-3.86601">
        <ele>77.964927</ele>
        <time>2022-12-10T16:47:10.247Z</time>
      </trkpt>
      <trkpt lat="48.16595" lon="-3.86589">
        <ele>77.933443</ele>
        <time>2022-12-10T16:47:13.255Z</time>
      </trkpt>
      <trkpt lat="48.16588" lon="-3.86574">
        <ele>77.896914</ele>
        <time>2022-12-10T16:47:17.240Z</time>
      </trkpt>
      <trkpt lat="48.16583" lon="-3.86561">
        <ele>77.866206</ele>
        <time>2022-12-10T16:47:20.243Z</time>
      </trkpt>
      <trkpt lat="48.16579" lon="-3.86547">
        <ele>77.836795</ele>
        <time>2022-12-10T16:47:23.239Z</time>
      </trkpt>
      <trkpt lat="48.16575" lon="-3.86532">
        <ele>77.852019</ele>
        <time>2022-12-10T16:47:26.241Z</time>
      </trkpt>
      <trkpt lat="48.1657" lon="-3.86518">
        <ele>77.885527</ele>
        <time>2022-12-10T16:47:29.235Z</time>
      </trkpt>
      <trkpt lat="48.16568" lon="-3.865">
        <ele>77.92222</ele>
        <time>2022-12-10T16:47:33.250Z</time>
      </trkpt>
      <trkpt lat="48.16566" lon="-3.86484">
        <ele>77.956527</ele>
        <time>2022-12-10T16:47:38.240Z</time>
      </trkpt>
      <trkpt lat="48.16564" lon="-3.86468">
        <ele>77.990607</ele>
        <time>2022-12-10T16:47:42.239Z</time>
      </trkpt>
      <trkpt lat="48.16563" lon="-3.8645">
        <ele>78.028559</ele>
        <time>2022-12-10T16:47:46.236Z</time>
      </trkpt>
      <trkpt lat="48.16561" lon="-3.86436">
        <ele>78.056864</ele>
        <time>2022-12-10T16:47:49.244Z</time>
      </trkpt>
      <trkpt lat="48.1656" lon="-3.86422">
        <ele>78.087263</ele>
        <time>2022-12-10T16:47:52.251Z</time>
      </trkpt>
      <trkpt lat="48.16559" lon="-3.86408">
        <ele>78.115862</ele>
        <time>2022-12-10T16:47:55.246Z</time>
      </trkpt>
      <trkpt lat="48.16558" lon="-3.86392">
        <ele>78.149447</ele>
        <time>2022-12-10T16:47:59.245Z</time>
      </trkpt>
      <trkpt lat="48.16557" lon="-3.86378">
        <ele>78.177633</ele>
        <time>2022-12-10T16:48:02.260Z</time>
      </trkpt>
      <trkpt lat="48.16556" lon="-3.86364">
        <ele>78.20747</ele>
        <time>2022-12-10T16:48:05.250Z</time>
      </trkpt>
      <trkpt lat="48.16555" lon="-3.86346">
        <ele>78.2441</ele>
        <time>2022-12-10T16:48:09.242Z</time>
      </trkpt>
      <trkpt lat="48.16553" lon="-3.86329">
        <ele>78.280224</ele>
        <time>2022-12-10T16:48:13.253Z</time>
      </trkpt>
      <trkpt lat="48.16551" lon="-3.86315">
        <ele>78.310341</ele>
        <time>2022-12-10T16:48:16.240Z</time>
      </trkpt>
      <trkpt lat="48.16549" lon="-3.863">
        <ele>78.341864</ele>
        <time>2022-12-10T16:48:19.242Z</time>
      </trkpt>
      <trkpt lat="48.16549" lon="-3.86285">
        <ele>78.373859</ele>
        <time>2022-12-10T16:48:22.242Z</time>
      </trkpt>
      <trkpt lat="48.16548" lon="-3.86271">
        <ele>78.459474</ele>
        <time>2022-12-10T16:48:25.245Z</time>
      </trkpt>
      <trkpt lat="48.16546" lon="-3.86254">
        <ele>78.608135</ele>
        <time>2022-12-10T16:48:29.243Z</time>
      </trkpt>
      <trkpt lat="48.16544" lon="-3.86239">
        <ele>78.750023</ele>
        <time>2022-12-10T16:48:33.242Z</time>
      </trkpt>
      <trkpt lat="48.16541" lon="-3.86222">
        <ele>78.907288</ele>
        <time>2022-12-10T16:48:37.241Z</time>
      </trkpt>
      <trkpt lat="48.16539" lon="-3.86207">
        <ele>79.053622</ele>
        <time>2022-12-10T16:48:41.251Z</time>
      </trkpt>
      <trkpt lat="48.16537" lon="-3.86192">
        <ele>79.185155</ele>
        <time>2022-12-10T16:48:46.246Z</time>
      </trkpt>
      <trkpt lat="48.16533" lon="-3.86179">
        <ele>79.323742</ele>
        <time>2022-12-10T16:48:52.242Z</time>
      </trkpt>
      <trkpt lat="48.16527" lon="-3.86167">
        <ele>79.461688</ele>
        <time>2022-12-10T16:48:57.243Z</time>
      </trkpt>
      <trkpt lat="48.16522" lon="-3.86155">
        <ele>79.591157</ele>
        <time>2022-12-10T16:49:01.238Z</time>
      </trkpt>
      <trkpt lat="48.16518" lon="-3.86141">
        <ele>79.729232</ele>
        <time>2022-12-10T16:49:08.242Z</time>
      </trkpt>
      <trkpt lat="48.16513" lon="-3.8614">
        <ele>79.797944</ele>
        <time>2022-12-10T16:51:13.539Z</time>
      </trkpt>
      <trkpt lat="48.16515" lon="-3.86136">
        <ele>79.848869</ele>
        <time>2022-12-10T17:06:43.372Z</time>
      </trkpt>
      <trkpt lat="48.16516" lon="-3.86121">
        <ele>79.98453</ele>
        <time>2022-12-10T17:07:57.255Z</time>
      </trkpt>
      <trkpt lat="48.16518" lon="-3.86105">
        <ele>80.139709</ele>
        <time>2022-12-10T17:08:01.249Z</time>
      </trkpt>
      <trkpt lat="48.16522" lon="-3.86088">
        <ele>80.303315</ele>
        <time>2022-12-10T17:08:04.246Z</time>
      </trkpt>
      <trkpt lat="48.16526" lon="-3.86075">
        <ele>80.431954</ele>
        <time>2022-12-10T17:08:07.253Z</time>
      </trkpt>
      <trkpt lat="48.16531" lon="-3.86063">
        <ele>80.558412</ele>
        <time>2022-12-10T17:08:10.247Z</time>
      </trkpt>
      <trkpt lat="48.16537" lon="-3.86049">
        <ele>80.713629</ele>
        <time>2022-12-10T17:08:14.264Z</time>
      </trkpt>
      <trkpt lat="48.16544" lon="-3.86035">
        <ele>80.82713</ele>
        <time>2022-12-10T17:08:18.241Z</time>
      </trkpt>
      <trkpt lat="48.16549" lon="-3.86023">
        <ele>80.775249</ele>
        <time>2022-12-10T17:08:22.253Z</time>
      </trkpt>
      <trkpt lat="48.16553" lon="-3.86009">
        <ele>80.719138</ele>
        <time>2022-12-10T17:08:28.266Z</time>
      </trkpt>
      <trkpt lat="48.16558" lon="-3.85996">
        <ele>80.663836</ele>
        <time>2022-12-10T17:08:34.248Z</time>
      </trkpt>
      <trkpt lat="48.16563" lon="-3.85983">
        <ele>80.6083</ele>
        <time>2022-12-10T17:08:51.249Z</time>
      </trkpt>
      <trkpt lat="48.16565" lon="-3.8597">
        <ele>80.55666</ele>
        <time>2022-12-10T17:08:57.253Z</time>
      </trkpt>
      <trkpt lat="48.16568" lon="-3.85954">
        <ele>80.497564</ele>
        <time>2022-12-10T17:09:02.250Z</time>
      </trkpt>
      <trkpt lat="48.16571" lon="-3.85938">
        <ele>80.43606</ele>
        <time>2022-12-10T17:09:07.267Z</time>
      </trkpt>
      <trkpt lat="48.16572" lon="-3.85924">
        <ele>80.381886</ele>
        <time>2022-12-10T17:09:11.245Z</time>
      </trkpt>
      <trkpt lat="48.16573" lon="-3.85908">
        <ele>80.323967</ele>
        <time>2022-12-10T17:09:15.246Z</time>
      </trkpt>
      <trkpt lat="48.16574" lon="-3.85893">
        <ele>80.26782</ele>
        <time>2022-12-10T17:09:19.245Z</time>
      </trkpt>
      <trkpt lat="48.16574" lon="-3.85878">
        <ele>80.209637</ele>
        <time>2022-12-10T17:09:23.270Z</time>
      </trkpt>
      <trkpt lat="48.16575" lon="-3.85862">
        <ele>80.151382</ele>
        <time>2022-12-10T17:09:27.252Z</time>
      </trkpt>
      <trkpt lat="48.16574" lon="-3.85848">
        <ele>80.100279</ele>
        <time>2022-12-10T17:09:30.258Z</time>
      </trkpt>
      <trkpt lat="48.16574" lon="-3.85831">
        <ele>80.033461</ele>
        <time>2022-12-10T17:09:34.275Z</time>
      </trkpt>
      <trkpt lat="48.16573" lon="-3.85813">
        <ele>79.966123</ele>
        <time>2022-12-10T17:09:38.253Z</time>
      </trkpt>
      <trkpt lat="48.16571" lon="-3.85798">
        <ele>79.911398</ele>
        <time>2022-12-10T17:09:41.258Z</time>
      </trkpt>
      <trkpt lat="48.16568" lon="-3.85784">
        <ele>79.858086</ele>
        <time>2022-12-10T17:09:44.249Z</time>
      </trkpt>
      <trkpt lat="48.16565" lon="-3.85771">
        <ele>79.82461</ele>
        <time>2022-12-10T17:09:47.268Z</time>
      </trkpt>
      <trkpt lat="48.1656" lon="-3.85758">
        <ele>79.805764</ele>
        <time>2022-12-10T17:09:50.255Z</time>
      </trkpt>
      <trkpt lat="48.16556" lon="-3.85745">
        <ele>79.786366</ele>
        <time>2022-12-10T17:09:53.252Z</time>
      </trkpt>
      <trkpt lat="48.16551" lon="-3.8573">
        <ele>79.765764</ele>
        <time>2022-12-10T17:09:56.246Z</time>
      </trkpt>
      <trkpt lat="48.16547" lon="-3.85717">
        <ele>79.745814</ele>
        <time>2022-12-10T17:09:59.252Z</time>
      </trkpt>
      <trkpt lat="48.16543" lon="-3.85702">
        <ele>79.725568</ele>
        <time>2022-12-10T17:10:02.281Z</time>
      </trkpt>
      <trkpt lat="48.1654" lon="-3.85687">
        <ele>79.705084</ele>
        <time>2022-12-10T17:10:05.250Z</time>
      </trkpt>
      <trkpt lat="48.16536" lon="-3.85673">
        <ele>79.684769</ele>
        <time>2022-12-10T17:10:08.259Z</time>
      </trkpt>
      <trkpt lat="48.16533" lon="-3.85657">
        <ele>79.66373</ele>
        <time>2022-12-10T17:10:11.252Z</time>
      </trkpt>
      <trkpt lat="48.16529" lon="-3.85641">
        <ele>79.642013</ele>
        <time>2022-12-10T17:10:14.249Z</time>
      </trkpt>
      <trkpt lat="48.16526" lon="-3.85627">
        <ele>79.62153</ele>
        <time>2022-12-10T17:10:17.258Z</time>
      </trkpt>
      <trkpt lat="48.16522" lon="-3.85612">
        <ele>79.6017</ele>
        <time>2022-12-10T17:10:20.268Z</time>
      </trkpt>
      <trkpt lat="48.16518" lon="-3.85598">
        <ele>79.582253</ele>
        <time>2022-12-10T17:10:23.248Z</time>
      </trkpt>
      <trkpt lat="48.16516" lon="-3.85585">
        <ele>79.563797</ele>
        <time>2022-12-10T17:10:26.259Z</time>
      </trkpt>
      <trkpt lat="48.16512" lon="-3.85568">
        <ele>79.540968</ele>
        <time>2022-12-10T17:10:30.254Z</time>
      </trkpt>
      <trkpt lat="48.16509" lon="-3.85555">
        <ele>79.522389</ele>
        <time>2022-12-10T17:10:33.259Z</time>
      </trkpt>
      <trkpt lat="48.16505" lon="-3.85541">
        <ele>79.503912</ele>
        <time>2022-12-10T17:10:36.257Z</time>
      </trkpt>
      <trkpt lat="48.16502" lon="-3.85528">
        <ele>79.485451</ele>
        <time>2022-12-10T17:10:39.253Z</time>
      </trkpt>
      <trkpt lat="48.16497" lon="-3.85515">
        <ele>79.507057</ele>
        <time>2022-12-10T17:10:42.254Z</time>
      </trkpt>
      <trkpt lat="48.16493" lon="-3.85501">
        <ele>79.529269</ele>
        <time>2022-12-10T17:10:45.247Z</time>
      </trkpt>
      <trkpt lat="48.16489" lon="-3.85489">
        <ele>79.551476</ele>
        <time>2022-12-10T17:10:48.252Z</time>
      </trkpt>
      <trkpt lat="48.16484" lon="-3.85475">
        <ele>79.574195</ele>
        <time>2022-12-10T17:10:51.263Z</time>
      </trkpt>
      <trkpt lat="48.16479" lon="-3.85463">
        <ele>79.596217</ele>
        <time>2022-12-10T17:10:54.254Z</time>
      </trkpt>
      <trkpt lat="48.16475" lon="-3.8545">
        <ele>79.617537</ele>
        <time>2022-12-10T17:10:57.246Z</time>
      </trkpt>
      <trkpt lat="48.16471" lon="-3.85438">
        <ele>79.639197</ele>
        <time>2022-12-10T17:11:00.253Z</time>
      </trkpt>
      <trkpt lat="48.16467" lon="-3.85425">
        <ele>79.661133</ele>
        <time>2022-12-10T17:11:03.254Z</time>
      </trkpt>
      <trkpt lat="48.16463" lon="-3.85411">
        <ele>79.683116</ele>
        <time>2022-12-10T17:11:06.246Z</time>
      </trkpt>
      <trkpt lat="48.16459" lon="-3.85397">
        <ele>79.706173</ele>
        <time>2022-12-10T17:11:09.259Z</time>
      </trkpt>
      <trkpt lat="48.16456" lon="-3.85383">
        <ele>79.729513</ele>
        <time>2022-12-10T17:11:12.249Z</time>
      </trkpt>
      <trkpt lat="48.16451" lon="-3.85366">
        <ele>79.756802</ele>
        <time>2022-12-10T17:11:16.277Z</time>
      </trkpt>
      <trkpt lat="48.16448" lon="-3.85353">
        <ele>79.779208</ele>
        <time>2022-12-10T17:11:19.274Z</time>
      </trkpt>
      <trkpt lat="48.16444" lon="-3.8534">
        <ele>79.800821</ele>
        <time>2022-12-10T17:11:22.275Z</time>
      </trkpt>
      <trkpt lat="48.1644" lon="-3.85326">
        <ele>79.822844</ele>
        <time>2022-12-10T17:11:25.260Z</time>
      </trkpt>
      <trkpt lat="48.16437" lon="-3.85313">
        <ele>79.844176</ele>
        <time>2022-12-10T17:11:28.263Z</time>
      </trkpt>
      <trkpt lat="48.16433" lon="-3.853">
        <ele>79.866015</ele>
        <time>2022-12-10T17:11:31.259Z</time>
      </trkpt>
      <trkpt lat="48.16428" lon="-3.85287">
        <ele>79.889174</ele>
        <time>2022-12-10T17:11:34.246Z</time>
      </trkpt>
      <trkpt lat="48.16424" lon="-3.85273">
        <ele>79.878965</ele>
        <time>2022-12-10T17:11:37.257Z</time>
      </trkpt>
      <trkpt lat="48.1642" lon="-3.85259">
        <ele>79.855486</ele>
        <time>2022-12-10T17:11:40.259Z</time>
      </trkpt>
      <trkpt lat="48.16416" lon="-3.85246">
        <ele>79.834057</ele>
        <time>2022-12-10T17:11:43.252Z</time>
      </trkpt>
      <trkpt lat="48.16413" lon="-3.85233">
        <ele>79.812035</ele>
        <time>2022-12-10T17:11:46.269Z</time>
      </trkpt>
      <trkpt lat="48.16408" lon="-3.85219">
        <ele>79.788791</ele>
        <time>2022-12-10T17:11:49.253Z</time>
      </trkpt>
      <trkpt lat="48.16404" lon="-3.85205">
        <ele>79.765407</ele>
        <time>2022-12-10T17:11:52.258Z</time>
      </trkpt>
      <trkpt lat="48.164" lon="-3.85191">
        <ele>79.741601</ele>
        <time>2022-12-10T17:11:55.259Z</time>
      </trkpt>
      <trkpt lat="48.16395" lon="-3.85177">
        <ele>79.716984</ele>
        <time>2022-12-10T17:11:58.258Z</time>
      </trkpt>
      <trkpt lat="48.16389" lon="-3.85163">
        <ele>79.691435</ele>
        <time>2022-12-10T17:12:01.253Z</time>
      </trkpt>
      <trkpt lat="48.16384" lon="-3.85148">
        <ele>79.666408</ele>
        <time>2022-12-10T17:12:04.257Z</time>
      </trkpt>
      <trkpt lat="48.16379" lon="-3.85134">
        <ele>79.640977</ele>
        <time>2022-12-10T17:12:07.275Z</time>
      </trkpt>
      <trkpt lat="48.16373" lon="-3.8512">
        <ele>79.615055</ele>
        <time>2022-12-10T17:12:10.265Z</time>
      </trkpt>
      <trkpt lat="48.16366" lon="-3.85107">
        <ele>79.589201</ele>
        <time>2022-12-10T17:12:13.256Z</time>
      </trkpt>
      <trkpt lat="48.16358" lon="-3.85095">
        <ele>79.563014</ele>
        <time>2022-12-10T17:12:16.254Z</time>
      </trkpt>
      <trkpt lat="48.1635" lon="-3.85083">
        <ele>79.537075</ele>
        <time>2022-12-10T17:12:19.261Z</time>
      </trkpt>
      <trkpt lat="48.16342" lon="-3.85073">
        <ele>79.513694</ele>
        <time>2022-12-10T17:12:22.273Z</time>
      </trkpt>
      <trkpt lat="48.16334" lon="-3.85063">
        <ele>79.49037</ele>
        <time>2022-12-10T17:12:25.248Z</time>
      </trkpt>
      <trkpt lat="48.16327" lon="-3.85053">
        <ele>79.50192</ele>
        <time>2022-12-10T17:12:28.263Z</time>
      </trkpt>
      <trkpt lat="48.16319" lon="-3.85045">
        <ele>79.537771</ele>
        <time>2022-12-10T17:12:31.257Z</time>
      </trkpt>
      <trkpt lat="48.16311" lon="-3.85034">
        <ele>79.576858</ele>
        <time>2022-12-10T17:12:34.246Z</time>
      </trkpt>
      <trkpt lat="48.16304" lon="-3.85024">
        <ele>79.615611</ele>
        <time>2022-12-10T17:12:37.250Z</time>
      </trkpt>
      <trkpt lat="48.16296" lon="-3.85013">
        <ele>79.654365</ele>
        <time>2022-12-10T17:12:40.257Z</time>
      </trkpt>
      <trkpt lat="48.16289" lon="-3.85002">
        <ele>79.692747</ele>
        <time>2022-12-10T17:12:43.254Z</time>
      </trkpt>
      <trkpt lat="48.16281" lon="-3.84991">
        <ele>79.731918</ele>
        <time>2022-12-10T17:12:46.270Z</time>
      </trkpt>
      <trkpt lat="48.16274" lon="-3.8498">
        <ele>79.770119</ele>
        <time>2022-12-10T17:12:49.253Z</time>
      </trkpt>
      <trkpt lat="48.16267" lon="-3.84969">
        <ele>79.808706</ele>
        <time>2022-12-10T17:12:52.252Z</time>
      </trkpt>
      <trkpt lat="48.1626" lon="-3.84957">
        <ele>79.84922</ele>
        <time>2022-12-10T17:12:55.249Z</time>
      </trkpt>
      <trkpt lat="48.16252" lon="-3.84946">
        <ele>79.889711</ele>
        <time>2022-12-10T17:12:58.251Z</time>
      </trkpt>
      <trkpt lat="48.16245" lon="-3.84933">
        <ele>79.931892</ele>
        <time>2022-12-10T17:13:01.261Z</time>
      </trkpt>
      <trkpt lat="48.16238" lon="-3.84919">
        <ele>79.973173</ele>
        <time>2022-12-10T17:13:04.262Z</time>
      </trkpt>
      <trkpt lat="48.16232" lon="-3.84906">
        <ele>80.01358</ele>
        <time>2022-12-10T17:13:07.249Z</time>
      </trkpt>
      <trkpt lat="48.16226" lon="-3.84894">
        <ele>80.051917</ele>
        <time>2022-12-10T17:13:10.254Z</time>
      </trkpt>
      <trkpt lat="48.1622" lon="-3.84882">
        <ele>80.089406</ele>
        <time>2022-12-10T17:13:13.247Z</time>
      </trkpt>
      <trkpt lat="48.16214" lon="-3.84869">
        <ele>80.128362</ele>
        <time>2022-12-10T17:13:16.255Z</time>
      </trkpt>
      <trkpt lat="48.16208" lon="-3.84856">
        <ele>80.135649</ele>
        <time>2022-12-10T17:13:19.259Z</time>
      </trkpt>
      <trkpt lat="48.16203" lon="-3.84843">
        <ele>80.095129</ele>
        <time>2022-12-10T17:13:22.262Z</time>
      </trkpt>
      <trkpt lat="48.16197" lon="-3.84829">
        <ele>80.053263</ele>
        <time>2022-12-10T17:13:25.267Z</time>
      </trkpt>
      <trkpt lat="48.16192" lon="-3.84817">
        <ele>80.013189</ele>
        <time>2022-12-10T17:13:28.255Z</time>
      </trkpt>
      <trkpt lat="48.16185" lon="-3.84804">
        <ele>79.971484</ele>
        <time>2022-12-10T17:13:32.249Z</time>
      </trkpt>
      <trkpt lat="48.1618" lon="-3.84791">
        <ele>79.929767</ele>
        <time>2022-12-10T17:13:36.260Z</time>
      </trkpt>
      <trkpt lat="48.16175" lon="-3.84776">
        <ele>79.887454</ele>
        <time>2022-12-10T17:13:40.254Z</time>
      </trkpt>
      <trkpt lat="48.1617" lon="-3.84762">
        <ele>79.845045</ele>
        <time>2022-12-10T17:13:43.250Z</time>
      </trkpt>
      <trkpt lat="48.16166" lon="-3.8475">
        <ele>79.809226</ele>
        <time>2022-12-10T17:13:46.265Z</time>
      </trkpt>
      <trkpt lat="48.16161" lon="-3.84738">
        <ele>79.770881</ele>
        <time>2022-12-10T17:13:49.260Z</time>
      </trkpt>
      <trkpt lat="48.16157" lon="-3.84725">
        <ele>79.732353</ele>
        <time>2022-12-10T17:13:52.249Z</time>
      </trkpt>
      <trkpt lat="48.16153" lon="-3.84708">
        <ele>79.685904</ele>
        <time>2022-12-10T17:13:56.257Z</time>
      </trkpt>
      <trkpt lat="48.16149" lon="-3.84693">
        <ele>79.641919</ele>
        <time>2022-12-10T17:14:00.250Z</time>
      </trkpt>
      <trkpt lat="48.16146" lon="-3.84677">
        <ele>79.599458</ele>
        <time>2022-12-10T17:14:04.282Z</time>
      </trkpt>
      <trkpt lat="48.16142" lon="-3.8466">
        <ele>79.551002</ele>
        <time>2022-12-10T17:14:08.257Z</time>
      </trkpt>
      <trkpt lat="48.16139" lon="-3.84647">
        <ele>79.514713</ele>
        <time>2022-12-10T17:14:11.259Z</time>
      </trkpt>
      <trkpt lat="48.16136" lon="-3.84631">
        <ele>79.471651</ele>
        <time>2022-12-10T17:14:15.257Z</time>
      </trkpt>
      <trkpt lat="48.1613" lon="-3.84615">
        <ele>79.435824</ele>
        <time>2022-12-10T17:14:19.262Z</time>
      </trkpt>
      <trkpt lat="48.16127" lon="-3.84602">
        <ele>79.429187</ele>
        <time>2022-12-10T17:14:22.252Z</time>
      </trkpt>
      <trkpt lat="48.16123" lon="-3.84587">
        <ele>79.421863</ele>
        <time>2022-12-10T17:14:26.273Z</time>
      </trkpt>
      <trkpt lat="48.16118" lon="-3.84572">
        <ele>79.414744</ele>
        <time>2022-12-10T17:14:29.260Z</time>
      </trkpt>
      <trkpt lat="48.16114" lon="-3.84557">
        <ele>79.407254</ele>
        <time>2022-12-10T17:14:32.249Z</time>
      </trkpt>
      <trkpt lat="48.16109" lon="-3.84543">
        <ele>79.400132</ele>
        <time>2022-12-10T17:14:35.265Z</time>
      </trkpt>
      <trkpt lat="48.16105" lon="-3.84527">
        <ele>79.392567</ele>
        <time>2022-12-10T17:14:38.255Z</time>
      </trkpt>
      <trkpt lat="48.16103" lon="-3.84513">
        <ele>79.385992</ele>
        <time>2022-12-10T17:14:41.262Z</time>
      </trkpt>
      <trkpt lat="48.16098" lon="-3.84497">
        <ele>79.378035</ele>
        <time>2022-12-10T17:14:45.269Z</time>
      </trkpt>
      <trkpt lat="48.16094" lon="-3.84484">
        <ele>79.371274</ele>
        <time>2022-12-10T17:14:48.273Z</time>
      </trkpt>
      <trkpt lat="48.1609" lon="-3.84468">
        <ele>79.36395</ele>
        <time>2022-12-10T17:14:52.254Z</time>
      </trkpt>
      <trkpt lat="48.16085" lon="-3.84454">
        <ele>79.356857</ele>
        <time>2022-12-10T17:14:55.251Z</time>
      </trkpt>
      <trkpt lat="48.1608" lon="-3.84439">
        <ele>79.349362</ele>
        <time>2022-12-10T17:14:58.252Z</time>
      </trkpt>
      <trkpt lat="48.16075" lon="-3.84425">
        <ele>79.342138</ele>
        <time>2022-12-10T17:15:01.279Z</time>
      </trkpt>
      <trkpt lat="48.16071" lon="-3.84413">
        <ele>79.335854</ele>
        <time>2022-12-10T17:15:04.258Z</time>
      </trkpt>
      <trkpt lat="48.16067" lon="-3.844">
        <ele>79.329357</ele>
        <time>2022-12-10T17:15:07.257Z</time>
      </trkpt>
      <trkpt lat="48.16061" lon="-3.84387">
        <ele>79.322402</ele>
        <time>2022-12-10T17:15:10.256Z</time>
      </trkpt>
      <trkpt lat="48.16056" lon="-3.84374">
        <ele>79.334393</ele>
        <time>2022-12-10T17:15:13.252Z</time>
      </trkpt>
      <trkpt lat="48.1605" lon="-3.8436">
        <ele>79.44517</ele>
        <time>2022-12-10T17:15:16.257Z</time>
      </trkpt>
      <trkpt lat="48.16043" lon="-3.84348">
        <ele>79.556328</ele>
        <time>2022-12-10T17:15:19.258Z</time>
      </trkpt>
      <trkpt lat="48.16037" lon="-3.84335">
        <ele>79.667177</ele>
        <time>2022-12-10T17:15:22.255Z</time>
      </trkpt>
      <trkpt lat="48.16031" lon="-3.84322">
        <ele>79.775664</ele>
        <time>2022-12-10T17:15:25.255Z</time>
      </trkpt>
      <trkpt lat="48.16025" lon="-3.8431">
        <ele>79.880292</ele>
        <time>2022-12-10T17:15:28.266Z</time>
      </trkpt>
      <trkpt lat="48.16019" lon="-3.84297">
        <ele>79.987611</ele>
        <time>2022-12-10T17:15:31.272Z</time>
      </trkpt>
      <trkpt lat="48.16013" lon="-3.84284">
        <ele>80.093207</ele>
        <time>2022-12-10T17:15:34.251Z</time>
      </trkpt>
      <trkpt lat="48.16007" lon="-3.84271">
        <ele>80.202388</ele>
        <time>2022-12-10T17:15:37.268Z</time>
      </trkpt>
      <trkpt lat="48.16001" lon="-3.84259">
        <ele>80.311513</ele>
        <time>2022-12-10T17:15:40.268Z</time>
      </trkpt>
      <trkpt lat="48.15995" lon="-3.84245">
        <ele>80.419978</ele>
        <time>2022-12-10T17:15:43.251Z</time>
      </trkpt>
      <trkpt lat="48.15989" lon="-3.84232">
        <ele>80.528453</ele>
        <time>2022-12-10T17:15:46.259Z</time>
      </trkpt>
      <trkpt lat="48.15984" lon="-3.84219">
        <ele>80.633379</ele>
        <time>2022-12-10T17:15:49.267Z</time>
      </trkpt>
      <trkpt lat="48.1598" lon="-3.84206">
        <ele>80.735786</ele>
        <time>2022-12-10T17:15:52.258Z</time>
      </trkpt>
      <trkpt lat="48.15974" lon="-3.84193">
        <ele>80.838585</ele>
        <time>2022-12-10T17:15:55.251Z</time>
      </trkpt>
      <trkpt lat="48.15968" lon="-3.8418">
        <ele>80.949924</ele>
        <time>2022-12-10T17:15:58.273Z</time>
      </trkpt>
      <trkpt lat="48.15963" lon="-3.84165">
        <ele>81.062777</ele>
        <time>2022-12-10T17:16:01.259Z</time>
      </trkpt>
      <trkpt lat="48.15958" lon="-3.84152">
        <ele>81.171861</ele>
        <time>2022-12-10T17:16:04.256Z</time>
      </trkpt>
      <trkpt lat="48.15952" lon="-3.84138">
        <ele>81.253097</ele>
        <time>2022-12-10T17:16:07.259Z</time>
      </trkpt>
      <trkpt lat="48.15948" lon="-3.84125">
        <ele>81.329914</ele>
        <time>2022-12-10T17:16:10.257Z</time>
      </trkpt>
      <trkpt lat="48.15943" lon="-3.8411">
        <ele>81.410095</ele>
        <time>2022-12-10T17:16:13.268Z</time>
      </trkpt>
      <trkpt lat="48.15937" lon="-3.84097">
        <ele>81.487754</ele>
        <time>2022-12-10T17:16:16.251Z</time>
      </trkpt>
      <trkpt lat="48.15932" lon="-3.84083">
        <ele>81.569981</ele>
        <time>2022-12-10T17:16:19.263Z</time>
      </trkpt>
      <trkpt lat="48.15926" lon="-3.84069">
        <ele>81.652987</ele>
        <time>2022-12-10T17:16:22.256Z</time>
      </trkpt>
      <trkpt lat="48.15922" lon="-3.84055">
        <ele>81.728604</ele>
        <time>2022-12-10T17:16:25.254Z</time>
      </trkpt>
      <trkpt lat="48.15918" lon="-3.8404">
        <ele>81.809545</ele>
        <time>2022-12-10T17:16:28.298Z</time>
      </trkpt>
      <trkpt lat="48.15915" lon="-3.84024">
        <ele>81.892358</ele>
        <time>2022-12-10T17:16:31.252Z</time>
      </trkpt>
      <trkpt lat="48.15912" lon="-3.84008">
        <ele>81.975143</ele>
        <time>2022-12-10T17:16:34.259Z</time>
      </trkpt>
      <trkpt lat="48.15909" lon="-3.83991">
        <ele>82.06506</ele>
        <time>2022-12-10T17:16:38.266Z</time>
      </trkpt>
      <trkpt lat="48.15905" lon="-3.83973">
        <ele>82.158311</ele>
        <time>2022-12-10T17:16:42.271Z</time>
      </trkpt>
      <trkpt lat="48.15902" lon="-3.83958">
        <ele>82.238027</ele>
        <time>2022-12-10T17:16:45.265Z</time>
      </trkpt>
      <trkpt lat="48.159" lon="-3.83943">
        <ele>82.315053</ele>
        <time>2022-12-10T17:16:48.257Z</time>
      </trkpt>
      <trkpt lat="48.15898" lon="-3.83929">
        <ele>82.385231</ele>
        <time>2022-12-10T17:16:51.252Z</time>
      </trkpt>
      <trkpt lat="48.15895" lon="-3.83916">
        <ele>82.455656</ele>
        <time>2022-12-10T17:16:54.259Z</time>
      </trkpt>
      <trkpt lat="48.15893" lon="-3.83902">
        <ele>82.525502</ele>
        <time>2022-12-10T17:16:57.269Z</time>
      </trkpt>
      <trkpt lat="48.1589" lon="-3.83887">
        <ele>82.560977</ele>
        <time>2022-12-10T17:17:00.265Z</time>
      </trkpt>
      <trkpt lat="48.15888" lon="-3.83873">
        <ele>82.593737</ele>
        <time>2022-12-10T17:17:03.258Z</time>
      </trkpt>
      <trkpt lat="48.15885" lon="-3.83859">
        <ele>82.62494</ele>
        <time>2022-12-10T17:17:06.251Z</time>
      </trkpt>
      <trkpt lat="48.15882" lon="-3.83845">
        <ele>82.654756</ele>
        <time>2022-12-10T17:17:09.262Z</time>
      </trkpt>
      <trkpt lat="48.15879" lon="-3.8383">
        <ele>82.688222</ele>
        <time>2022-12-10T17:17:12.251Z</time>
      </trkpt>
      <trkpt lat="48.15876" lon="-3.83816">
        <ele>82.721187</ele>
        <time>2022-12-10T17:17:15.250Z</time>
      </trkpt>
      <trkpt lat="48.15874" lon="-3.83801">
        <ele>82.752535</ele>
        <time>2022-12-10T17:17:18.249Z</time>
      </trkpt>
      <trkpt lat="48.15871" lon="-3.83785">
        <ele>82.788109</ele>
        <time>2022-12-10T17:17:21.265Z</time>
      </trkpt>
      <trkpt lat="48.15869" lon="-3.83772">
        <ele>82.817759</ele>
        <time>2022-12-10T17:17:24.299Z</time>
      </trkpt>
      <trkpt lat="48.15866" lon="-3.83758">
        <ele>82.849357</ele>
        <time>2022-12-10T17:17:29.271Z</time>
      </trkpt>
      <trkpt lat="48.15864" lon="-3.83742">
        <ele>82.882977</ele>
        <time>2022-12-10T17:17:33.272Z</time>
      </trkpt>
      <trkpt lat="48.15863" lon="-3.83729">
        <ele>82.911848</ele>
        <time>2022-12-10T17:17:36.256Z</time>
      </trkpt>
      <trkpt lat="48.15862" lon="-3.83712">
        <ele>82.948605</ele>
        <time>2022-12-10T17:17:40.260Z</time>
      </trkpt>
      <trkpt lat="48.15861" lon="-3.83698">
        <ele>82.979384</ele>
        <time>2022-12-10T17:17:43.293Z</time>
      </trkpt>
      <trkpt lat="48.1586" lon="-3.83683">
        <ele>83.011416</ele>
        <time>2022-12-10T17:17:46.278Z</time>
      </trkpt>
      <trkpt lat="48.15859" lon="-3.83668">
        <ele>83.043448</ele>
        <time>2022-12-10T17:17:49.280Z</time>
      </trkpt>
      <trkpt lat="48.15859" lon="-3.83653">
        <ele>83.075164</ele>
        <time>2022-12-10T17:17:52.286Z</time>
      </trkpt>
      <trkpt lat="48.15859" lon="-3.83639">
        <ele>83.105809</ele>
        <time>2022-12-10T17:17:55.290Z</time>
      </trkpt>
      <trkpt lat="48.1586" lon="-3.83623">
        <ele>83.024653</ele>
        <time>2022-12-10T17:17:58.280Z</time>
      </trkpt>
      <trkpt lat="48.1586" lon="-3.83607">
        <ele>82.933549</ele>
        <time>2022-12-10T17:18:01.256Z</time>
      </trkpt>
      <trkpt lat="48.15861" lon="-3.8359">
        <ele>82.842164</ele>
        <time>2022-12-10T17:18:04.273Z</time>
      </trkpt>
      <trkpt lat="48.15862" lon="-3.83576">
        <ele>82.762938</ele>
        <time>2022-12-10T17:18:07.302Z</time>
      </trkpt>
      <trkpt lat="48.15863" lon="-3.83561">
        <ele>82.677418</ele>
        <time>2022-12-10T17:18:10.267Z</time>
      </trkpt>
      <trkpt lat="48.15864" lon="-3.83547">
        <ele>82.599115</ele>
        <time>2022-12-10T17:18:13.254Z</time>
      </trkpt>
      <trkpt lat="48.15865" lon="-3.83532">
        <ele>82.518242</ele>
        <time>2022-12-10T17:18:16.288Z</time>
      </trkpt>
      <trkpt lat="48.15866" lon="-3.83517">
        <ele>82.435555</ele>
        <time>2022-12-10T17:18:19.253Z</time>
      </trkpt>
      <trkpt lat="48.15869" lon="-3.83502">
        <ele>82.352458</ele>
        <time>2022-12-10T17:18:22.255Z</time>
      </trkpt>
      <trkpt lat="48.15871" lon="-3.83488">
        <ele>82.269725</ele>
        <time>2022-12-10T17:18:25.260Z</time>
      </trkpt>
      <trkpt lat="48.15873" lon="-3.83473">
        <ele>82.184973</ele>
        <time>2022-12-10T17:18:28.294Z</time>
      </trkpt>
      <trkpt lat="48.15875" lon="-3.83458">
        <ele>82.102925</ele>
        <time>2022-12-10T17:18:31.293Z</time>
      </trkpt>
      <trkpt lat="48.15877" lon="-3.83443">
        <ele>82.019634</ele>
        <time>2022-12-10T17:18:34.286Z</time>
      </trkpt>
      <trkpt lat="48.15879" lon="-3.83428">
        <ele>81.932588</ele>
        <time>2022-12-10T17:18:37.289Z</time>
      </trkpt>
      <trkpt lat="48.15881" lon="-3.83412">
        <ele>81.844857</ele>
        <time>2022-12-10T17:18:40.258Z</time>
      </trkpt>
      <trkpt lat="48.15883" lon="-3.83396">
        <ele>81.7529</ele>
        <time>2022-12-10T17:18:43.260Z</time>
      </trkpt>
      <trkpt lat="48.15885" lon="-3.83379">
        <ele>81.658503</ele>
        <time>2022-12-10T17:18:46.271Z</time>
      </trkpt>
      <trkpt lat="48.15886" lon="-3.83365">
        <ele>81.612698</ele>
        <time>2022-12-10T17:18:49.261Z</time>
      </trkpt>
      <trkpt lat="48.15886" lon="-3.83349">
        <ele>81.598168</ele>
        <time>2022-12-10T17:18:54.304Z</time>
      </trkpt>
      <trkpt lat="48.15887" lon="-3.83331">
        <ele>81.581679</ele>
        <time>2022-12-10T17:18:58.268Z</time>
      </trkpt>
      <trkpt lat="48.15888" lon="-3.83313">
        <ele>81.565045</ele>
        <time>2022-12-10T17:19:02.265Z</time>
      </trkpt>
      <trkpt lat="48.15889" lon="-3.83299">
        <ele>81.552203</ele>
        <time>2022-12-10T17:19:05.244Z</time>
      </trkpt>
      <trkpt lat="48.1589" lon="-3.83284">
        <ele>81.537869</ele>
        <time>2022-12-10T17:19:08.249Z</time>
      </trkpt>
      <trkpt lat="48.15892" lon="-3.83269">
        <ele>81.523968</ele>
        <time>2022-12-10T17:19:11.285Z</time>
      </trkpt>
      <trkpt lat="48.15894" lon="-3.83253">
        <ele>81.508946</ele>
        <time>2022-12-10T17:19:14.267Z</time>
      </trkpt>
      <trkpt lat="48.15896" lon="-3.83237">
        <ele>81.494371</ele>
        <time>2022-12-10T17:19:17.256Z</time>
      </trkpt>
      <trkpt lat="48.15899" lon="-3.83224">
        <ele>81.481199</ele>
        <time>2022-12-10T17:19:20.291Z</time>
      </trkpt>
      <trkpt lat="48.15903" lon="-3.83211">
        <ele>81.468543</ele>
        <time>2022-12-10T17:19:23.265Z</time>
      </trkpt>
      <trkpt lat="48.15906" lon="-3.83194">
        <ele>81.452621</ele>
        <time>2022-12-10T17:19:27.293Z</time>
      </trkpt>
      <trkpt lat="48.15908" lon="-3.83179">
        <ele>81.438581</ele>
        <time>2022-12-10T17:19:32.252Z</time>
      </trkpt>
      <trkpt lat="48.1591" lon="-3.83165">
        <ele>81.425412</ele>
        <time>2022-12-10T17:19:36.272Z</time>
      </trkpt>
      <trkpt lat="48.15913" lon="-3.83151">
        <ele>81.411756</ele>
        <time>2022-12-10T17:19:40.282Z</time>
      </trkpt>
      <trkpt lat="48.15918" lon="-3.83136">
        <ele>81.396827</ele>
        <time>2022-12-10T17:19:44.280Z</time>
      </trkpt>
      <trkpt lat="48.15922" lon="-3.83119">
        <ele>81.37958</ele>
        <time>2022-12-10T17:19:48.244Z</time>
      </trkpt>
      <trkpt lat="48.15925" lon="-3.83106">
        <ele>81.334724</ele>
        <time>2022-12-10T17:19:51.272Z</time>
      </trkpt>
      <trkpt lat="48.15927" lon="-3.83092">
        <ele>81.230864</ele>
        <time>2022-12-10T17:19:54.297Z</time>
      </trkpt>
      <trkpt lat="48.15931" lon="-3.83077">
        <ele>81.109819</ele>
        <time>2022-12-10T17:19:58.283Z</time>
      </trkpt>
      <trkpt lat="48.15936" lon="-3.8306">
        <ele>80.976429</ele>
        <time>2022-12-10T17:20:02.250Z</time>
      </trkpt>
      <trkpt lat="48.15939" lon="-3.83046">
        <ele>80.866807</ele>
        <time>2022-12-10T17:20:05.285Z</time>
      </trkpt>
      <trkpt lat="48.15942" lon="-3.83032">
        <ele>80.755451</ele>
        <time>2022-12-10T17:20:08.257Z</time>
      </trkpt>
      <trkpt lat="48.15945" lon="-3.83015">
        <ele>80.626665</ele>
        <time>2022-12-10T17:20:12.259Z</time>
      </trkpt>
      <trkpt lat="48.15946" lon="-3.83001">
        <ele>80.523563</ele>
        <time>2022-12-10T17:20:15.255Z</time>
      </trkpt>
      <trkpt lat="48.15947" lon="-3.82986">
        <ele>80.413739</ele>
        <time>2022-12-10T17:20:18.267Z</time>
      </trkpt>
      <trkpt lat="48.15948" lon="-3.82972">
        <ele>80.311865</ele>
        <time>2022-12-10T17:20:21.272Z</time>
      </trkpt>
      <trkpt lat="48.15948" lon="-3.82958">
        <ele>80.20255</ele>
        <time>2022-12-10T17:20:24.270Z</time>
      </trkpt>
      <trkpt lat="48.15948" lon="-3.8294">
        <ele>80.07481</ele>
        <time>2022-12-10T17:20:28.279Z</time>
      </trkpt>
      <trkpt lat="48.15949" lon="-3.82924">
        <ele>79.952272</ele>
        <time>2022-12-10T17:20:32.260Z</time>
      </trkpt>
      <trkpt lat="48.1595" lon="-3.8291">
        <ele>79.8478</ele>
        <time>2022-12-10T17:20:35.253Z</time>
      </trkpt>
      <trkpt lat="48.15951" lon="-3.82892">
        <ele>79.717394</ele>
        <time>2022-12-10T17:20:39.252Z</time>
      </trkpt>
      <trkpt lat="48.15952" lon="-3.82878">
        <ele>79.613746</ele>
        <time>2022-12-10T17:20:42.252Z</time>
      </trkpt>
      <trkpt lat="48.15954" lon="-3.82864">
        <ele>79.506875</ele>
        <time>2022-12-10T17:20:45.257Z</time>
      </trkpt>
      <trkpt lat="48.15955" lon="-3.82849">
        <ele>79.395055</ele>
        <time>2022-12-10T17:20:48.256Z</time>
      </trkpt>
      <trkpt lat="48.15956" lon="-3.82835">
        <ele>79.487975</ele>
        <time>2022-12-10T17:20:51.274Z</time>
      </trkpt>
      <trkpt lat="48.15957" lon="-3.82819">
        <ele>79.624581</ele>
        <time>2022-12-10T17:20:55.265Z</time>
      </trkpt>
      <trkpt lat="48.15958" lon="-3.82805">
        <ele>79.742298</ele>
        <time>2022-12-10T17:20:58.335Z</time>
      </trkpt>
      <trkpt lat="48.15958" lon="-3.8279">
        <ele>79.872506</ele>
        <time>2022-12-10T17:21:01.279Z</time>
      </trkpt>
      <trkpt lat="48.15958" lon="-3.82771">
        <ele>80.030861</ele>
        <time>2022-12-10T17:21:05.260Z</time>
      </trkpt>
      <trkpt lat="48.15957" lon="-3.82756">
        <ele>80.161373</ele>
        <time>2022-12-10T17:21:08.269Z</time>
      </trkpt>
      <trkpt lat="48.15957" lon="-3.82742">
        <ele>80.284206</ele>
        <time>2022-12-10T17:21:11.258Z</time>
      </trkpt>
      <trkpt lat="48.15955" lon="-3.82728">
        <ele>80.405198</ele>
        <time>2022-12-10T17:21:14.316Z</time>
      </trkpt>
      <trkpt lat="48.15954" lon="-3.82714">
        <ele>80.525719</ele>
        <time>2022-12-10T17:21:17.261Z</time>
      </trkpt>
      <trkpt lat="48.15953" lon="-3.82699">
        <ele>80.658282</ele>
        <time>2022-12-10T17:21:20.269Z</time>
      </trkpt>
      <trkpt lat="48.15952" lon="-3.82683">
        <ele>80.794133</ele>
        <time>2022-12-10T17:21:23.271Z</time>
      </trkpt>
      <trkpt lat="48.15951" lon="-3.82667">
        <ele>80.933653</ele>
        <time>2022-12-10T17:21:26.252Z</time>
      </trkpt>
      <trkpt lat="48.1595" lon="-3.82652">
        <ele>81.058789</ele>
        <time>2022-12-10T17:21:29.275Z</time>
      </trkpt>
      <trkpt lat="48.15949" lon="-3.82638">
        <ele>81.183173</ele>
        <time>2022-12-10T17:21:32.264Z</time>
      </trkpt>
      <trkpt lat="48.15945" lon="-3.82623">
        <ele>81.321449</ele>
        <time>2022-12-10T17:21:35.309Z</time>
      </trkpt>
      <trkpt lat="48.15941" lon="-3.82606">
        <ele>81.467257</ele>
        <time>2022-12-10T17:21:38.264Z</time>
      </trkpt>
      <trkpt lat="48.15938" lon="-3.82591">
        <ele>81.608553</ele>
        <time>2022-12-10T17:21:41.251Z</time>
      </trkpt>
      <trkpt lat="48.15934" lon="-3.82576">
        <ele>81.737019</ele>
        <time>2022-12-10T17:21:44.272Z</time>
      </trkpt>
      <trkpt lat="48.1593" lon="-3.8256">
        <ele>81.863418</ele>
        <time>2022-12-10T17:21:47.265Z</time>
      </trkpt>
      <trkpt lat="48.15927" lon="-3.82545">
        <ele>81.981051</ele>
        <time>2022-12-10T17:21:50.257Z</time>
      </trkpt>
      <trkpt lat="48.15924" lon="-3.82532">
        <ele>82.084571</ele>
        <time>2022-12-10T17:21:53.257Z</time>
      </trkpt>
      <trkpt lat="48.15921" lon="-3.82519">
        <ele>82.188823</ele>
        <time>2022-12-10T17:21:56.316Z</time>
      </trkpt>
      <trkpt lat="48.15918" lon="-3.82506">
        <ele>82.289515</ele>
        <time>2022-12-10T17:21:59.284Z</time>
      </trkpt>
      <trkpt lat="48.15916" lon="-3.82491">
        <ele>82.403941</ele>
        <time>2022-12-10T17:22:03.274Z</time>
      </trkpt>
      <trkpt lat="48.15912" lon="-3.82475">
        <ele>82.526876</ele>
        <time>2022-12-10T17:22:07.316Z</time>
      </trkpt>
      <trkpt lat="48.15908" lon="-3.82459">
        <ele>82.654769</ele>
        <time>2022-12-10T17:22:11.266Z</time>
      </trkpt>
      <trkpt lat="48.15905" lon="-3.82442">
        <ele>82.783384</ele>
        <time>2022-12-10T17:22:15.253Z</time>
      </trkpt>
      <trkpt lat="48.15902" lon="-3.82429">
        <ele>82.889062</ele>
        <time>2022-12-10T17:22:18.292Z</time>
      </trkpt>
      <trkpt lat="48.159" lon="-3.82416">
        <ele>82.990466</ele>
        <time>2022-12-10T17:22:21.283Z</time>
      </trkpt>
      <trkpt lat="48.15896" lon="-3.824">
        <ele>83.113265</ele>
        <time>2022-12-10T17:22:25.258Z</time>
      </trkpt>
      <trkpt lat="48.15892" lon="-3.82384">
        <ele>83.245029</ele>
        <time>2022-12-10T17:22:29.244Z</time>
      </trkpt>
      <trkpt lat="48.15889" lon="-3.8237">
        <ele>83.347856</ele>
        <time>2022-12-10T17:22:32.253Z</time>
      </trkpt>
      <trkpt lat="48.15887" lon="-3.82356">
        <ele>83.457233</ele>
        <time>2022-12-10T17:22:35.274Z</time>
      </trkpt>
      <trkpt lat="48.15884" lon="-3.82341">
        <ele>83.572944</ele>
        <time>2022-12-10T17:22:38.262Z</time>
      </trkpt>
      <trkpt lat="48.15882" lon="-3.82326">
        <ele>83.689751</ele>
        <time>2022-12-10T17:22:41.273Z</time>
      </trkpt>
      <trkpt lat="48.15879" lon="-3.8231">
        <ele>83.710869</ele>
        <time>2022-12-10T17:22:44.258Z</time>
      </trkpt>
      <trkpt lat="48.15878" lon="-3.82295">
        <ele>83.72543</ele>
        <time>2022-12-10T17:22:47.273Z</time>
      </trkpt>
      <trkpt lat="48.15875" lon="-3.82279">
        <ele>83.740318</ele>
        <time>2022-12-10T17:22:50.265Z</time>
      </trkpt>
      <trkpt lat="48.15874" lon="-3.82262">
        <ele>83.755424</ele>
        <time>2022-12-10T17:22:53.285Z</time>
      </trkpt>
      <trkpt lat="48.15873" lon="-3.82247">
        <ele>83.769597</ele>
        <time>2022-12-10T17:22:56.325Z</time>
      </trkpt>
      <trkpt lat="48.15873" lon="-3.82232">
        <ele>83.783717</ele>
        <time>2022-12-10T17:22:59.263Z</time>
      </trkpt>
      <trkpt lat="48.15874" lon="-3.82217">
        <ele>83.797676</ele>
        <time>2022-12-10T17:23:02.279Z</time>
      </trkpt>
      <trkpt lat="48.15877" lon="-3.82202">
        <ele>83.811252</ele>
        <time>2022-12-10T17:23:05.252Z</time>
      </trkpt>
      <trkpt lat="48.15881" lon="-3.82188">
        <ele>83.825607</ele>
        <time>2022-12-10T17:23:08.284Z</time>
      </trkpt>
      <trkpt lat="48.15886" lon="-3.82174">
        <ele>83.839976</ele>
        <time>2022-12-10T17:23:11.270Z</time>
      </trkpt>
      <trkpt lat="48.15899" lon="-3.82151">
        <ele>83.867334</ele>
        <time>2022-12-10T17:24:23.271Z</time>
      </trkpt>
      <trkpt lat="48.15906" lon="-3.82139">
        <ele>83.882476</ele>
        <time>2022-12-10T17:24:27.270Z</time>
      </trkpt>
      <trkpt lat="48.15912" lon="-3.82128">
        <ele>83.895241</ele>
        <time>2022-12-10T17:24:30.261Z</time>
      </trkpt>
      <trkpt lat="48.15919" lon="-3.82119">
        <ele>83.907933</ele>
        <time>2022-12-10T17:24:33.264Z</time>
      </trkpt>
      <trkpt lat="48.15928" lon="-3.82108">
        <ele>83.92388</ele>
        <time>2022-12-10T17:24:37.262Z</time>
      </trkpt>
      <trkpt lat="48.15935" lon="-3.821">
        <ele>83.936425</ele>
        <time>2022-12-10T17:24:40.253Z</time>
      </trkpt>
      <trkpt lat="48.15944" lon="-3.82091">
        <ele>83.907003</ele>
        <time>2022-12-10T17:24:43.255Z</time>
      </trkpt>
      <trkpt lat="48.15953" lon="-3.8208">
        <ele>83.812062</ele>
        <time>2022-12-10T17:24:46.271Z</time>
      </trkpt>
      <trkpt lat="48.15962" lon="-3.82071">
        <ele>83.727653</ele>
        <time>2022-12-10T17:24:49.256Z</time>
      </trkpt>
      <trkpt lat="48.15972" lon="-3.82063">
        <ele>83.641799</ele>
        <time>2022-12-10T17:24:52.257Z</time>
      </trkpt>
      <trkpt lat="48.15981" lon="-3.82053">
        <ele>83.555359</ele>
        <time>2022-12-10T17:24:55.262Z</time>
      </trkpt>
      <trkpt lat="48.1599" lon="-3.82043">
        <ele>83.467248</ele>
        <time>2022-12-10T17:24:58.255Z</time>
      </trkpt>
      <trkpt lat="48.15999" lon="-3.82033">
        <ele>83.380777</ele>
        <time>2022-12-10T17:25:01.257Z</time>
      </trkpt>
      <trkpt lat="48.16007" lon="-3.82024">
        <ele>83.301558</ele>
        <time>2022-12-10T17:25:04.261Z</time>
      </trkpt>
      <trkpt lat="48.16015" lon="-3.82014">
        <ele>83.218375</ele>
        <time>2022-12-10T17:25:07.254Z</time>
      </trkpt>
      <trkpt lat="48.16022" lon="-3.82002">
        <ele>83.134268</ele>
        <time>2022-12-10T17:25:10.255Z</time>
      </trkpt>
      <trkpt lat="48.16029" lon="-3.81989">
        <ele>83.048715</ele>
        <time>2022-12-10T17:25:13.254Z</time>
      </trkpt>
      <trkpt lat="48.16035" lon="-3.81977">
        <ele>82.968401</ele>
        <time>2022-12-10T17:25:16.256Z</time>
      </trkpt>
      <trkpt lat="48.16041" lon="-3.81965">
        <ele>82.889302</ele>
        <time>2022-12-10T17:25:19.257Z</time>
      </trkpt>
      <trkpt lat="48.16048" lon="-3.81953">
        <ele>82.804375</ele>
        <time>2022-12-10T17:25:22.261Z</time>
      </trkpt>
      <trkpt lat="48.16055" lon="-3.8194">
        <ele>82.718865</ele>
        <time>2022-12-10T17:25:25.250Z</time>
      </trkpt>
      <trkpt lat="48.16061" lon="-3.81927">
        <ele>82.63546</ele>
        <time>2022-12-10T17:25:28.260Z</time>
      </trkpt>
      <trkpt lat="48.16067" lon="-3.81914">
        <ele>82.551164</ele>
        <time>2022-12-10T17:25:31.260Z</time>
      </trkpt>
      <trkpt lat="48.16074" lon="-3.81903">
        <ele>82.580985</ele>
        <time>2022-12-10T17:25:34.251Z</time>
      </trkpt>
      <trkpt lat="48.16081" lon="-3.81893">
        <ele>82.642514</ele>
        <time>2022-12-10T17:25:37.255Z</time>
      </trkpt>
      <trkpt lat="48.1609" lon="-3.81881">
        <ele>82.72157</ele>
        <time>2022-12-10T17:25:41.252Z</time>
      </trkpt>
      <trkpt lat="48.16098" lon="-3.81872">
        <ele>82.787979</ele>
        <time>2022-12-10T17:25:44.266Z</time>
      </trkpt>
      <trkpt lat="48.16108" lon="-3.81864">
        <ele>82.859812</ele>
        <time>2022-12-10T17:25:47.253Z</time>
      </trkpt>
      <trkpt lat="48.16117" lon="-3.81857">
        <ele>82.9282</ele>
        <time>2022-12-10T17:25:50.272Z</time>
      </trkpt>
      <trkpt lat="48.16126" lon="-3.8185">
        <ele>82.994047</ele>
        <time>2022-12-10T17:25:53.262Z</time>
      </trkpt>
      <trkpt lat="48.16136" lon="-3.81847">
        <ele>83.060601</ele>
        <time>2022-12-10T17:25:56.250Z</time>
      </trkpt>
      <trkpt lat="48.16145" lon="-3.81845">
        <ele>83.124379</ele>
        <time>2022-12-10T17:25:59.245Z</time>
      </trkpt>
      <trkpt lat="48.16155" lon="-3.81846">
        <ele>83.184723</ele>
        <time>2022-12-10T17:26:02.251Z</time>
      </trkpt>
      <trkpt lat="48.16163" lon="-3.81849">
        <ele>83.24332</ele>
        <time>2022-12-10T17:26:05.257Z</time>
      </trkpt>
      <trkpt lat="48.16172" lon="-3.81853">
        <ele>83.304332</ele>
        <time>2022-12-10T17:26:08.258Z</time>
      </trkpt>
      <trkpt lat="48.16182" lon="-3.81858">
        <ele>83.370999</ele>
        <time>2022-12-10T17:26:11.249Z</time>
      </trkpt>
      <trkpt lat="48.16191" lon="-3.81863">
        <ele>83.437575</ele>
        <time>2022-12-10T17:26:14.265Z</time>
      </trkpt>
      <trkpt lat="48.162" lon="-3.81868">
        <ele>83.499089</ele>
        <time>2022-12-10T17:26:17.263Z</time>
      </trkpt>
      <trkpt lat="48.16211" lon="-3.81874">
        <ele>83.576262</ele>
        <time>2022-12-10T17:26:21.259Z</time>
      </trkpt>
      <trkpt lat="48.1622" lon="-3.81879">
        <ele>83.638543</ele>
        <time>2022-12-10T17:26:24.257Z</time>
      </trkpt>
      <trkpt lat="48.16229" lon="-3.81883">
        <ele>83.698675</ele>
        <time>2022-12-10T17:26:27.249Z</time>
      </trkpt>
      <trkpt lat="48.16238" lon="-3.81887">
        <ele>83.639472</ele>
        <time>2022-12-10T17:26:30.252Z</time>
      </trkpt>
      <trkpt lat="48.16249" lon="-3.81893">
        <ele>83.531048</ele>
        <time>2022-12-10T17:26:34.258Z</time>
      </trkpt>
      <trkpt lat="48.1626" lon="-3.81897">
        <ele>83.427391</ele>
        <time>2022-12-10T17:26:38.268Z</time>
      </trkpt>
      <trkpt lat="48.16271" lon="-3.81902">
        <ele>83.32125</ele>
        <time>2022-12-10T17:26:42.254Z</time>
      </trkpt>
      <trkpt lat="48.1628" lon="-3.81907">
        <ele>83.230815</ele>
        <time>2022-12-10T17:26:45.255Z</time>
      </trkpt>
      <trkpt lat="48.16289" lon="-3.81912">
        <ele>83.143616</ele>
        <time>2022-12-10T17:26:48.256Z</time>
      </trkpt>
      <trkpt lat="48.16298" lon="-3.81916">
        <ele>83.050757</ele>
        <time>2022-12-10T17:26:51.256Z</time>
      </trkpt>
      <trkpt lat="48.16307" lon="-3.81921">
        <ele>82.963447</ele>
        <time>2022-12-10T17:26:54.276Z</time>
      </trkpt>
      <trkpt lat="48.16318" lon="-3.81926">
        <ele>82.857495</ele>
        <time>2022-12-10T17:26:58.256Z</time>
      </trkpt>
      <trkpt lat="48.16327" lon="-3.8193">
        <ele>82.774272</ele>
        <time>2022-12-10T17:27:01.270Z</time>
      </trkpt>
      <trkpt lat="48.16338" lon="-3.81936">
        <ele>82.6678</ele>
        <time>2022-12-10T17:27:05.261Z</time>
      </trkpt>
      <trkpt lat="48.16347" lon="-3.8194">
        <ele>82.574447</ele>
        <time>2022-12-10T17:27:08.258Z</time>
      </trkpt>
      <trkpt lat="48.16357" lon="-3.81945">
        <ele>82.479635</ele>
        <time>2022-12-10T17:27:11.257Z</time>
      </trkpt>
      <trkpt lat="48.16367" lon="-3.81949">
        <ele>82.385225</ele>
        <time>2022-12-10T17:27:14.259Z</time>
      </trkpt>
      <trkpt lat="48.16376" lon="-3.81953">
        <ele>82.298617</ele>
        <time>2022-12-10T17:27:17.268Z</time>
      </trkpt>
      <trkpt lat="48.16385" lon="-3.81957">
        <ele>82.212901</ele>
        <time>2022-12-10T17:27:20.270Z</time>
      </trkpt>
      <trkpt lat="48.16393" lon="-3.8196">
        <ele>82.130071</ele>
        <time>2022-12-10T17:27:23.262Z</time>
      </trkpt>
      <trkpt lat="48.16403" lon="-3.81964">
        <ele>82.044912</ele>
        <time>2022-12-10T17:27:26.252Z</time>
      </trkpt>
      <trkpt lat="48.16412" lon="-3.81969">
        <ele>82.09653</ele>
        <time>2022-12-10T17:27:29.263Z</time>
      </trkpt>
      <trkpt lat="48.16421" lon="-3.81972">
        <ele>82.144919</ele>
        <time>2022-12-10T17:27:32.250Z</time>
      </trkpt>
      <trkpt lat="48.1643" lon="-3.81977">
        <ele>82.193418</ele>
        <time>2022-12-10T17:27:35.263Z</time>
      </trkpt>
      <trkpt lat="48.16439" lon="-3.81979">
        <ele>82.243334</ele>
        <time>2022-12-10T17:27:38.249Z</time>
      </trkpt>
      <trkpt lat="48.16449" lon="-3.81982">
        <ele>82.293135</ele>
        <time>2022-12-10T17:27:41.255Z</time>
      </trkpt>
      <trkpt lat="48.16459" lon="-3.81983">
        <ele>82.346329</ele>
        <time>2022-12-10T17:27:44.249Z</time>
      </trkpt>
      <trkpt lat="48.16469" lon="-3.81984">
        <ele>82.398654</ele>
        <time>2022-12-10T17:27:47.252Z</time>
      </trkpt>
      <trkpt lat="48.16479" lon="-3.81985">
        <ele>82.448355</ele>
        <time>2022-12-10T17:27:50.270Z</time>
      </trkpt>
      <trkpt lat="48.16488" lon="-3.81985">
        <ele>82.497003</ele>
        <time>2022-12-10T17:27:53.251Z</time>
      </trkpt>
      <trkpt lat="48.16498" lon="-3.81985">
        <ele>82.546168</ele>
        <time>2022-12-10T17:27:56.270Z</time>
      </trkpt>
      <trkpt lat="48.16508" lon="-3.81985">
        <ele>82.597922</ele>
        <time>2022-12-10T17:27:59.254Z</time>
      </trkpt>
      <trkpt lat="48.16518" lon="-3.81984">
        <ele>82.651298</ele>
        <time>2022-12-10T17:28:02.270Z</time>
      </trkpt>
      <trkpt lat="48.16528" lon="-3.81983">
        <ele>82.703275</ele>
        <time>2022-12-10T17:28:05.258Z</time>
      </trkpt>
      <trkpt lat="48.16538" lon="-3.8198">
        <ele>82.756094</ele>
        <time>2022-12-10T17:28:08.256Z</time>
      </trkpt>
      <trkpt lat="48.16548" lon="-3.81979">
        <ele>82.808692</ele>
        <time>2022-12-10T17:28:11.254Z</time>
      </trkpt>
      <trkpt lat="48.16557" lon="-3.81977">
        <ele>82.855682</ele>
        <time>2022-12-10T17:28:14.258Z</time>
      </trkpt>
      <trkpt lat="48.16567" lon="-3.81976">
        <ele>82.907599</ele>
        <time>2022-12-10T17:28:17.264Z</time>
      </trkpt>
      <trkpt lat="48.16577" lon="-3.81974">
        <ele>82.957807</ele>
        <time>2022-12-10T17:28:20.265Z</time>
      </trkpt>
      <trkpt lat="48.16587" lon="-3.81971">
        <ele>83.004418</ele>
        <time>2022-12-10T17:28:23.257Z</time>
      </trkpt>
      <trkpt lat="48.16597" lon="-3.81969">
        <ele>83.0484</ele>
        <time>2022-12-10T17:28:26.265Z</time>
      </trkpt>
      <trkpt lat="48.16606" lon="-3.81967">
        <ele>83.088735</ele>
        <time>2022-12-10T17:28:29.253Z</time>
      </trkpt>
      <trkpt lat="48.16615" lon="-3.81965">
        <ele>83.130291</ele>
        <time>2022-12-10T17:28:32.251Z</time>
      </trkpt>
      <trkpt lat="48.16625" lon="-3.81963">
        <ele>83.172467</ele>
        <time>2022-12-10T17:28:35.256Z</time>
      </trkpt>
      <trkpt lat="48.16634" lon="-3.8196">
        <ele>83.214023</ele>
        <time>2022-12-10T17:28:38.255Z</time>
      </trkpt>
      <trkpt lat="48.16644" lon="-3.81958">
        <ele>83.25749</ele>
        <time>2022-12-10T17:28:41.255Z</time>
      </trkpt>
      <trkpt lat="48.16654" lon="-3.81954">
        <ele>83.301355</ele>
        <time>2022-12-10T17:28:44.245Z</time>
      </trkpt>
      <trkpt lat="48.16664" lon="-3.81952">
        <ele>83.344434</ele>
        <time>2022-12-10T17:28:47.264Z</time>
      </trkpt>
      <trkpt lat="48.16673" lon="-3.81949">
        <ele>83.387066</ele>
        <time>2022-12-10T17:28:50.256Z</time>
      </trkpt>
      <trkpt lat="48.16683" lon="-3.81946">
        <ele>83.429698</ele>
        <time>2022-12-10T17:28:53.257Z</time>
      </trkpt>
      <trkpt lat="48.16693" lon="-3.81943">
        <ele>83.472756</ele>
        <time>2022-12-10T17:28:56.263Z</time>
      </trkpt>
      <trkpt lat="48.16702" lon="-3.81939">
        <ele>83.516649</ele>
        <time>2022-12-10T17:28:59.255Z</time>
      </trkpt>
      <trkpt lat="48.16712" lon="-3.81935">
        <ele>83.56104</ele>
        <time>2022-12-10T17:29:02.262Z</time>
      </trkpt>
      <trkpt lat="48.16722" lon="-3.8193">
        <ele>83.606847</ele>
        <time>2022-12-10T17:29:05.262Z</time>
      </trkpt>
      <trkpt lat="48.16732" lon="-3.81925">
        <ele>83.652451</ele>
        <time>2022-12-10T17:29:08.255Z</time>
      </trkpt>
      <trkpt lat="48.16742" lon="-3.8192">
        <ele>83.699104</ele>
        <time>2022-12-10T17:29:11.248Z</time>
      </trkpt>
      <trkpt lat="48.16753" lon="-3.81915">
        <ele>83.74491</ele>
        <time>2022-12-10T17:29:14.253Z</time>
      </trkpt>
      <trkpt lat="48.16763" lon="-3.81911">
        <ele>83.72442</ele>
        <time>2022-12-10T17:29:17.257Z</time>
      </trkpt>
      <trkpt lat="48.16773" lon="-3.81906">
        <ele>83.680267</ele>
        <time>2022-12-10T17:29:20.256Z</time>
      </trkpt>
      <trkpt lat="48.16784" lon="-3.81905">
        <ele>83.63705</ele>
        <time>2022-12-10T17:29:23.249Z</time>
      </trkpt>
      <trkpt lat="48.16794" lon="-3.81903">
        <ele>83.596812</ele>
        <time>2022-12-10T17:29:26.256Z</time>
      </trkpt>
      <trkpt lat="48.16803" lon="-3.81901">
        <ele>83.55921</ele>
        <time>2022-12-10T17:29:29.268Z</time>
      </trkpt>
      <trkpt lat="48.16813" lon="-3.81899">
        <ele>83.519492</ele>
        <time>2022-12-10T17:29:32.250Z</time>
      </trkpt>
      <trkpt lat="48.16822" lon="-3.81898">
        <ele>83.481602</ele>
        <time>2022-12-10T17:29:35.270Z</time>
      </trkpt>
      <trkpt lat="48.16831" lon="-3.81895">
        <ele>83.44305</ele>
        <time>2022-12-10T17:29:38.261Z</time>
      </trkpt>
      <trkpt lat="48.16841" lon="-3.81894">
        <ele>83.401356</ele>
        <time>2022-12-10T17:29:41.257Z</time>
      </trkpt>
      <trkpt lat="48.16852" lon="-3.81892">
        <ele>83.359694</ele>
        <time>2022-12-10T17:29:44.269Z</time>
      </trkpt>
      <trkpt lat="48.16862" lon="-3.8189">
        <ele>83.318032</ele>
        <time>2022-12-10T17:29:47.257Z</time>
      </trkpt>
      <trkpt lat="48.16871" lon="-3.81889">
        <ele>83.280546</ele>
        <time>2022-12-10T17:29:50.269Z</time>
      </trkpt>
      <trkpt lat="48.16882" lon="-3.81887">
        <ele>83.234932</ele>
        <time>2022-12-10T17:29:54.255Z</time>
      </trkpt>
      <trkpt lat="48.16894" lon="-3.81887">
        <ele>83.188276</ele>
        <time>2022-12-10T17:29:58.269Z</time>
      </trkpt>
      <trkpt lat="48.16906" lon="-3.81888">
        <ele>83.13956</ele>
        <time>2022-12-10T17:30:02.252Z</time>
      </trkpt>
      <trkpt lat="48.16916" lon="-3.8189">
        <ele>83.098415</ele>
        <time>2022-12-10T17:30:06.261Z</time>
      </trkpt>
      <trkpt lat="48.16927" lon="-3.81888">
        <ele>83.051969</ele>
        <time>2022-12-10T17:30:10.253Z</time>
      </trkpt>
      <trkpt lat="48.16938" lon="-3.81887">
        <ele>83.040453</ele>
        <time>2022-12-10T17:30:14.261Z</time>
      </trkpt>
      <trkpt lat="48.16948" lon="-3.81888">
        <ele>83.07418</ele>
        <time>2022-12-10T17:30:18.266Z</time>
      </trkpt>
      <trkpt lat="48.16957" lon="-3.81889">
        <ele>83.10237</ele>
        <time>2022-12-10T17:30:21.254Z</time>
      </trkpt>
      <trkpt lat="48.16967" lon="-3.81889">
        <ele>83.132012</ele>
        <time>2022-12-10T17:30:24.263Z</time>
      </trkpt>
      <trkpt lat="48.16976" lon="-3.81888">
        <ele>83.161064</ele>
        <time>2022-12-10T17:30:27.259Z</time>
      </trkpt>
      <trkpt lat="48.16985" lon="-3.81888">
        <ele>83.189468</ele>
        <time>2022-12-10T17:30:30.249Z</time>
      </trkpt>
      <trkpt lat="48.16997" lon="-3.81889">
        <ele>83.226031</ele>
        <time>2022-12-10T17:30:34.253Z</time>
      </trkpt>
      <trkpt lat="48.17007" lon="-3.81889">
        <ele>83.255994</ele>
        <time>2022-12-10T17:30:37.257Z</time>
      </trkpt>
      <trkpt lat="48.17017" lon="-3.81889">
        <ele>83.286882</ele>
        <time>2022-12-10T17:30:40.254Z</time>
      </trkpt>
      <trkpt lat="48.17026" lon="-3.81889">
        <ele>83.31621</ele>
        <time>2022-12-10T17:30:43.269Z</time>
      </trkpt>
      <trkpt lat="48.17036" lon="-3.81889">
        <ele>83.346786</ele>
        <time>2022-12-10T17:30:46.268Z</time>
      </trkpt>
      <trkpt lat="48.17046" lon="-3.81889">
        <ele>83.378921</ele>
        <time>2022-12-10T17:30:49.259Z</time>
      </trkpt>
      <trkpt lat="48.17056" lon="-3.81888">
        <ele>83.410843</ele>
        <time>2022-12-10T17:30:52.257Z</time>
      </trkpt>
      <trkpt lat="48.17067" lon="-3.81887">
        <ele>83.444319</ele>
        <time>2022-12-10T17:30:55.254Z</time>
      </trkpt>
      <trkpt lat="48.17078" lon="-3.81885">
        <ele>83.477848</ele>
        <time>2022-12-10T17:30:58.271Z</time>
      </trkpt>
      <trkpt lat="48.17088" lon="-3.81883">
        <ele>83.510561</ele>
        <time>2022-12-10T17:31:01.254Z</time>
      </trkpt>
      <trkpt lat="48.17098" lon="-3.81881">
        <ele>83.542095</ele>
        <time>2022-12-10T17:31:04.252Z</time>
      </trkpt>
      <trkpt lat="48.17108" lon="-3.8188">
        <ele>83.573722</ele>
        <time>2022-12-10T17:31:07.256Z</time>
      </trkpt>
      <trkpt lat="48.17118" lon="-3.81879">
        <ele>83.60963</ele>
        <time>2022-12-10T17:31:10.253Z</time>
      </trkpt>
      <trkpt lat="48.17128" lon="-3.81877">
        <ele>83.645341</ele>
        <time>2022-12-10T17:31:13.263Z</time>
      </trkpt>
      <trkpt lat="48.17138" lon="-3.81875">
        <ele>83.684712</ele>
        <time>2022-12-10T17:31:16.255Z</time>
      </trkpt>
      <trkpt lat="48.17148" lon="-3.81873">
        <ele>83.722992</ele>
        <time>2022-12-10T17:31:19.256Z</time>
      </trkpt>
      <trkpt lat="48.17158" lon="-3.81872">
        <ele>83.763444</ele>
        <time>2022-12-10T17:31:23.272Z</time>
      </trkpt>
      <trkpt lat="48.17169" lon="-3.81871">
        <ele>83.805517</ele>
        <time>2022-12-10T17:31:27.254Z</time>
      </trkpt>
      <trkpt lat="48.17178" lon="-3.8187">
        <ele>83.840882</ele>
        <time>2022-12-10T17:31:30.263Z</time>
      </trkpt>
      <trkpt lat="48.17188" lon="-3.81871">
        <ele>83.878216</ele>
        <time>2022-12-10T17:31:34.255Z</time>
      </trkpt>
      <trkpt lat="48.17199" lon="-3.81869">
        <ele>83.921818</ele>
        <time>2022-12-10T17:31:38.275Z</time>
      </trkpt>
      <trkpt lat="48.17209" lon="-3.81868">
        <ele>83.958488</ele>
        <time>2022-12-10T17:31:41.254Z</time>
      </trkpt>
      <trkpt lat="48.17219" lon="-3.81867">
        <ele>83.997812</ele>
        <time>2022-12-10T17:31:44.259Z</time>
      </trkpt>
      <trkpt lat="48.17228" lon="-3.81866">
        <ele>84.033287</ele>
        <time>2022-12-10T17:31:47.247Z</time>
      </trkpt>
      <trkpt lat="48.17238" lon="-3.81865">
        <ele>84.071733</ele>
        <time>2022-12-10T17:31:50.256Z</time>
      </trkpt>
      <trkpt lat="48.17249" lon="-3.81863">
        <ele>84.113423</ele>
        <time>2022-12-10T17:31:53.256Z</time>
      </trkpt>
      <trkpt lat="48.17259" lon="-3.81863">
        <ele>84.15266</ele>
        <time>2022-12-10T17:31:56.255Z</time>
      </trkpt>
      <trkpt lat="48.17268" lon="-3.81862">
        <ele>84.188478</ele>
        <time>2022-12-10T17:31:59.253Z</time>
      </trkpt>
      <trkpt lat="48.1728" lon="-3.81861">
        <ele>84.231195</ele>
        <time>2022-12-10T17:32:03.262Z</time>
      </trkpt>
      <trkpt lat="48.17289" lon="-3.81859">
        <ele>84.266288</ele>
        <time>2022-12-10T17:32:06.256Z</time>
      </trkpt>
      <trkpt lat="48.17301" lon="-3.81858">
        <ele>84.258816</ele>
        <time>2022-12-10T17:32:10.255Z</time>
      </trkpt>
      <trkpt lat="48.1731" lon="-3.81857">
        <ele>84.236972</ele>
        <time>2022-12-10T17:32:13.266Z</time>
      </trkpt>
      <trkpt lat="48.17319" lon="-3.81857">
        <ele>84.215147</ele>
        <time>2022-12-10T17:32:16.256Z</time>
      </trkpt>
      <trkpt lat="48.17328" lon="-3.81858">
        <ele>84.193548</ele>
        <time>2022-12-10T17:32:19.261Z</time>
      </trkpt>
      <trkpt lat="48.1734" lon="-3.81858">
        <ele>84.16509</ele>
        <time>2022-12-10T17:32:23.258Z</time>
      </trkpt>
      <trkpt lat="48.17349" lon="-3.81858">
        <ele>84.14301</ele>
        <time>2022-12-10T17:32:26.254Z</time>
      </trkpt>
      <trkpt lat="48.17359" lon="-3.81859">
        <ele>84.119758</ele>
        <time>2022-12-10T17:32:29.256Z</time>
      </trkpt>
      <trkpt lat="48.17369" lon="-3.8186">
        <ele>84.096026</ele>
        <time>2022-12-10T17:32:32.258Z</time>
      </trkpt>
      <trkpt lat="48.17379" lon="-3.81859">
        <ele>84.072774</ele>
        <time>2022-12-10T17:32:35.261Z</time>
      </trkpt>
      <trkpt lat="48.17389" lon="-3.81859">
        <ele>84.050001</ele>
        <time>2022-12-10T17:32:38.247Z</time>
      </trkpt>
      <trkpt lat="48.17398" lon="-3.81859">
        <ele>84.026973</ele>
        <time>2022-12-10T17:32:41.255Z</time>
      </trkpt>
      <trkpt lat="48.17408" lon="-3.8186">
        <ele>84.004418</ele>
        <time>2022-12-10T17:32:44.254Z</time>
      </trkpt>
      <trkpt lat="48.17418" lon="-3.8186">
        <ele>83.98046</ele>
        <time>2022-12-10T17:32:47.260Z</time>
      </trkpt>
      <trkpt lat="48.17428" lon="-3.81861">
        <ele>83.956003</ele>
        <time>2022-12-10T17:32:50.265Z</time>
      </trkpt>
      <trkpt lat="48.17439" lon="-3.81862">
        <ele>83.929613</ele>
        <time>2022-12-10T17:32:53.254Z</time>
      </trkpt>
      <trkpt lat="48.17449" lon="-3.81864">
        <ele>83.905546</ele>
        <time>2022-12-10T17:32:56.262Z</time>
      </trkpt>
      <trkpt lat="48.1746" lon="-3.81865">
        <ele>83.88106</ele>
        <time>2022-12-10T17:32:59.257Z</time>
      </trkpt>
      <trkpt lat="48.1747" lon="-3.81866">
        <ele>83.856129</ele>
        <time>2022-12-10T17:33:02.253Z</time>
      </trkpt>
      <trkpt lat="48.1748" lon="-3.81867">
        <ele>83.817408</ele>
        <time>2022-12-10T17:33:05.262Z</time>
      </trkpt>
      <trkpt lat="48.1749" lon="-3.81869">
        <ele>83.773094</ele>
        <time>2022-12-10T17:33:09.266Z</time>
      </trkpt>
      <trkpt lat="48.17502" lon="-3.81869">
        <ele>83.726432</ele>
        <time>2022-12-10T17:33:13.265Z</time>
      </trkpt>
      <trkpt lat="48.17513" lon="-3.8187">
        <ele>83.67879</ele>
        <time>2022-12-10T17:33:17.271Z</time>
      </trkpt>
      <trkpt lat="48.17524" lon="-3.81871">
        <ele>83.629975</ele>
        <time>2022-12-10T17:33:21.259Z</time>
      </trkpt>
      <trkpt lat="48.17536" lon="-3.81872">
        <ele>83.580657</ele>
        <time>2022-12-10T17:33:25.255Z</time>
      </trkpt>
      <trkpt lat="48.17548" lon="-3.81872">
        <ele>83.530631</ele>
        <time>2022-12-10T17:33:29.259Z</time>
      </trkpt>
      <trkpt lat="48.17557" lon="-3.81873">
        <ele>83.490996</ele>
        <time>2022-12-10T17:33:32.256Z</time>
      </trkpt>
      <trkpt lat="48.17567" lon="-3.81873">
        <ele>83.45022</ele>
        <time>2022-12-10T17:33:35.264Z</time>
      </trkpt>
      <trkpt lat="48.17576" lon="-3.81874">
        <ele>83.41148</ele>
        <time>2022-12-10T17:33:38.262Z</time>
      </trkpt>
      <trkpt lat="48.17586" lon="-3.81874">
        <ele>83.372805</ele>
        <time>2022-12-10T17:33:41.252Z</time>
      </trkpt>
      <trkpt lat="48.17595" lon="-3.81874">
        <ele>83.334954</ele>
        <time>2022-12-10T17:33:44.273Z</time>
      </trkpt>
      <trkpt lat="48.17604" lon="-3.81873">
        <ele>83.295003</ele>
        <time>2022-12-10T17:33:47.274Z</time>
      </trkpt>
      <trkpt lat="48.17614" lon="-3.81873">
        <ele>83.25292</ele>
        <time>2022-12-10T17:33:50.291Z</time>
      </trkpt>
      <trkpt lat="48.17624" lon="-3.81872">
        <ele>83.211257</ele>
        <time>2022-12-10T17:33:53.293Z</time>
      </trkpt>
      <trkpt lat="48.17635" lon="-3.81872">
        <ele>83.165012</ele>
        <time>2022-12-10T17:33:57.275Z</time>
      </trkpt>
      <trkpt lat="48.17644" lon="-3.81871">
        <ele>83.124958</ele>
        <time>2022-12-10T17:34:00.276Z</time>
      </trkpt>
      <trkpt lat="48.17654" lon="-3.8187">
        <ele>83.126885</ele>
        <time>2022-12-10T17:34:03.280Z</time>
      </trkpt>
      <trkpt lat="48.17663" lon="-3.81869">
        <ele>83.228167</ele>
        <time>2022-12-10T17:34:06.279Z</time>
      </trkpt>
      <trkpt lat="48.17673" lon="-3.81866">
        <ele>83.33978</ele>
        <time>2022-12-10T17:34:09.278Z</time>
      </trkpt>
      <trkpt lat="48.17684" lon="-3.81864">
        <ele>83.456533</ele>
        <time>2022-12-10T17:34:12.260Z</time>
      </trkpt>
      <trkpt lat="48.17694" lon="-3.81863">
        <ele>83.573966</ele>
        <time>2022-12-10T17:34:15.263Z</time>
      </trkpt>
      <trkpt lat="48.17706" lon="-3.81861">
        <ele>83.699584</ele>
        <time>2022-12-10T17:34:19.262Z</time>
      </trkpt>
      <trkpt lat="48.17718" lon="-3.81858">
        <ele>83.830223</ele>
        <time>2022-12-10T17:34:23.282Z</time>
      </trkpt>
      <trkpt lat="48.1773" lon="-3.81857">
        <ele>83.96071</ele>
        <time>2022-12-10T17:34:27.263Z</time>
      </trkpt>
      <trkpt lat="48.17741" lon="-3.81854">
        <ele>84.091137</ele>
        <time>2022-12-10T17:34:31.288Z</time>
      </trkpt>
      <trkpt lat="48.1775" lon="-3.81854">
        <ele>84.190862</ele>
        <time>2022-12-10T17:34:34.275Z</time>
      </trkpt>
      <trkpt lat="48.17762" lon="-3.81852">
        <ele>84.318496</ele>
        <time>2022-12-10T17:34:38.253Z</time>
      </trkpt>
      <trkpt lat="48.17771" lon="-3.81851">
        <ele>84.418307</ele>
        <time>2022-12-10T17:34:41.291Z</time>
      </trkpt>
      <trkpt lat="48.17783" lon="-3.81849">
        <ele>84.549282</ele>
        <time>2022-12-10T17:34:45.259Z</time>
      </trkpt>
      <trkpt lat="48.17792" lon="-3.81848">
        <ele>84.652532</ele>
        <time>2022-12-10T17:34:48.279Z</time>
      </trkpt>
      <trkpt lat="48.17804" lon="-3.81846">
        <ele>84.777063</ele>
        <time>2022-12-10T17:34:52.253Z</time>
      </trkpt>
      <trkpt lat="48.17814" lon="-3.81844">
        <ele>84.888296</ele>
        <time>2022-12-10T17:34:56.268Z</time>
      </trkpt>
      <trkpt lat="48.17824" lon="-3.81843">
        <ele>84.996892</ele>
        <time>2022-12-10T17:35:00.254Z</time>
      </trkpt>
      <trkpt lat="48.17834" lon="-3.8184">
        <ele>85.039025</ele>
        <time>2022-12-10T17:35:04.278Z</time>
      </trkpt>
      <trkpt lat="48.17843" lon="-3.81837">
        <ele>84.982245</ele>
        <time>2022-12-10T17:35:08.262Z</time>
      </trkpt>
      <trkpt lat="48.17854" lon="-3.81836">
        <ele>84.913544</ele>
        <time>2022-12-10T17:35:12.258Z</time>
      </trkpt>
      <trkpt lat="48.17863" lon="-3.81835">
        <ele>84.857463</ele>
        <time>2022-12-10T17:35:15.271Z</time>
      </trkpt>
      <trkpt lat="48.17875" lon="-3.81834">
        <ele>84.789476</ele>
        <time>2022-12-10T17:35:19.293Z</time>
      </trkpt>
      <trkpt lat="48.17884" lon="-3.81832">
        <ele>84.731473</ele>
        <time>2022-12-10T17:35:22.281Z</time>
      </trkpt>
      <trkpt lat="48.17894" lon="-3.81832">
        <ele>84.669038</ele>
        <time>2022-12-10T17:35:25.261Z</time>
      </trkpt>
      <trkpt lat="48.17904" lon="-3.81832">
        <ele>84.610265</ele>
        <time>2022-12-10T17:35:28.279Z</time>
      </trkpt>
      <trkpt lat="48.17913" lon="-3.81834">
        <ele>84.552403</ele>
        <time>2022-12-10T17:35:31.259Z</time>
      </trkpt>
      <trkpt lat="48.17925" lon="-3.81835">
        <ele>84.481937</ele>
        <time>2022-12-10T17:35:35.279Z</time>
      </trkpt>
      <trkpt lat="48.17936" lon="-3.81838">
        <ele>84.410419</ele>
        <time>2022-12-10T17:35:39.268Z</time>
      </trkpt>
      <trkpt lat="48.17947" lon="-3.81841">
        <ele>84.341504</ele>
        <time>2022-12-10T17:35:43.281Z</time>
      </trkpt>
      <trkpt lat="48.17958" lon="-3.81844">
        <ele>84.271589</ele>
        <time>2022-12-10T17:35:47.328Z</time>
      </trkpt>
      <trkpt lat="48.17968" lon="-3.81846">
        <ele>84.212871</ele>
        <time>2022-12-10T17:35:50.277Z</time>
      </trkpt>
      <trkpt lat="48.17977" lon="-3.8185">
        <ele>84.155414</ele>
        <time>2022-12-10T17:35:53.273Z</time>
      </trkpt>
      <trkpt lat="48.17986" lon="-3.81853">
        <ele>84.098799</ele>
        <time>2022-12-10T17:35:56.303Z</time>
      </trkpt>
      <trkpt lat="48.17995" lon="-3.81856">
        <ele>84.043376</ele>
        <time>2022-12-10T17:35:59.292Z</time>
      </trkpt>
      <trkpt lat="48.18004" lon="-3.81859">
        <ele>83.986665</ele>
        <time>2022-12-10T17:36:02.265Z</time>
      </trkpt>
      <trkpt lat="48.18013" lon="-3.81862">
        <ele>83.907187</ele>
        <time>2022-12-10T17:36:05.284Z</time>
      </trkpt>
      <trkpt lat="48.18024" lon="-3.81866">
        <ele>83.779593</ele>
        <time>2022-12-10T17:36:09.320Z</time>
      </trkpt>
      <trkpt lat="48.18034" lon="-3.81869">
        <ele>83.673924</ele>
        <time>2022-12-10T17:36:12.274Z</time>
      </trkpt>
      <trkpt lat="48.18044" lon="-3.81872">
        <ele>83.567587</ele>
        <time>2022-12-10T17:36:15.289Z</time>
      </trkpt>
      <trkpt lat="48.18054" lon="-3.81874">
        <ele>83.464827</ele>
        <time>2022-12-10T17:36:18.297Z</time>
      </trkpt>
      <trkpt lat="48.18064" lon="-3.81875">
        <ele>83.356675</ele>
        <time>2022-12-10T17:36:21.281Z</time>
      </trkpt>
      <trkpt lat="48.18074" lon="-3.81875">
        <ele>83.246461</ele>
        <time>2022-12-10T17:36:24.294Z</time>
      </trkpt>
      <trkpt lat="48.18083" lon="-3.81875">
        <ele>83.149004</ele>
        <time>2022-12-10T17:36:27.296Z</time>
      </trkpt>
      <trkpt lat="48.18094" lon="-3.81874">
        <ele>83.034575</ele>
        <time>2022-12-10T17:36:30.270Z</time>
      </trkpt>
      <trkpt lat="48.18105" lon="-3.81874">
        <ele>82.9211</ele>
        <time>2022-12-10T17:36:33.271Z</time>
      </trkpt>
      <trkpt lat="48.18115" lon="-3.81872">
        <ele>82.813727</ele>
        <time>2022-12-10T17:36:36.296Z</time>
      </trkpt>
      <trkpt lat="48.18124" lon="-3.81871">
        <ele>82.716073</ele>
        <time>2022-12-10T17:36:39.276Z</time>
      </trkpt>
      <trkpt lat="48.18136" lon="-3.81868">
        <ele>82.585932</ele>
        <time>2022-12-10T17:36:43.274Z</time>
      </trkpt>
      <trkpt lat="48.18146" lon="-3.81865">
        <ele>82.478809</ele>
        <time>2022-12-10T17:36:46.269Z</time>
      </trkpt>
      <trkpt lat="48.18155" lon="-3.81864">
        <ele>82.384023</ele>
        <time>2022-12-10T17:36:49.267Z</time>
      </trkpt>
      <trkpt lat="48.18166" lon="-3.81861">
        <ele>82.27246</ele>
        <time>2022-12-10T17:36:52.263Z</time>
      </trkpt>
      <trkpt lat="48.18176" lon="-3.81858">
        <ele>82.155274</ele>
        <time>2022-12-10T17:36:55.282Z</time>
      </trkpt>
      <trkpt lat="48.18187" lon="-3.81856">
        <ele>82.05706</ele>
        <time>2022-12-10T17:36:58.279Z</time>
      </trkpt>
      <trkpt lat="48.18198" lon="-3.81852">
        <ele>82.0424</ele>
        <time>2022-12-10T17:37:01.282Z</time>
      </trkpt>
      <trkpt lat="48.18208" lon="-3.81847">
        <ele>82.027925</ele>
        <time>2022-12-10T17:37:04.289Z</time>
      </trkpt>
      <trkpt lat="48.18219" lon="-3.81843">
        <ele>82.013587</ele>
        <time>2022-12-10T17:37:07.264Z</time>
      </trkpt>
      <trkpt lat="48.1823" lon="-3.8184">
        <ele>81.99921</ele>
        <time>2022-12-10T17:37:10.273Z</time>
      </trkpt>
      <trkpt lat="48.1824" lon="-3.81836">
        <ele>81.984932</ele>
        <time>2022-12-10T17:37:13.295Z</time>
      </trkpt>
      <trkpt lat="48.18252" lon="-3.8183">
        <ele>81.969208</ele>
        <time>2022-12-10T17:37:17.290Z</time>
      </trkpt>
      <trkpt lat="48.1826" lon="-3.81824">
        <ele>81.956809</ele>
        <time>2022-12-10T17:37:20.289Z</time>
      </trkpt>
      <trkpt lat="48.18269" lon="-3.81817">
        <ele>81.94402</ele>
        <time>2022-12-10T17:37:23.279Z</time>
      </trkpt>
      <trkpt lat="48.18277" lon="-3.81809">
        <ele>81.930809</ele>
        <time>2022-12-10T17:37:26.271Z</time>
      </trkpt>
      <trkpt lat="48.18285" lon="-3.81802">
        <ele>81.918655</ele>
        <time>2022-12-10T17:37:29.281Z</time>
      </trkpt>
      <trkpt lat="48.18293" lon="-3.81793">
        <ele>81.906324</ele>
        <time>2022-12-10T17:37:32.268Z</time>
      </trkpt>
      <trkpt lat="48.183" lon="-3.81785">
        <ele>81.893928</ele>
        <time>2022-12-10T17:37:35.254Z</time>
      </trkpt>
      <trkpt lat="48.1831" lon="-3.81774">
        <ele>81.87833</ele>
        <time>2022-12-10T17:37:39.309Z</time>
      </trkpt>
      <trkpt lat="48.18317" lon="-3.81766">
        <ele>81.86626</ele>
        <time>2022-12-10T17:37:42.268Z</time>
      </trkpt>
      <trkpt lat="48.18325" lon="-3.81755">
        <ele>81.852685</ele>
        <time>2022-12-10T17:37:45.266Z</time>
      </trkpt>
      <trkpt lat="48.18331" lon="-3.81746">
        <ele>81.840779</ele>
        <time>2022-12-10T17:37:48.292Z</time>
      </trkpt>
      <trkpt lat="48.18338" lon="-3.81735">
        <ele>81.82726</ele>
        <time>2022-12-10T17:37:52.272Z</time>
      </trkpt>
      <trkpt lat="48.18344" lon="-3.81724">
        <ele>81.739406</ele>
        <time>2022-12-10T17:37:55.275Z</time>
      </trkpt>
      <trkpt lat="48.18351" lon="-3.81714">
        <ele>81.602735</ele>
        <time>2022-12-10T17:37:58.278Z</time>
      </trkpt>
      <trkpt lat="48.18359" lon="-3.81703">
        <ele>81.459864</ele>
        <time>2022-12-10T17:38:01.269Z</time>
      </trkpt>
      <trkpt lat="48.18365" lon="-3.81692">
        <ele>81.318316</ele>
        <time>2022-12-10T17:38:04.286Z</time>
      </trkpt>
      <trkpt lat="48.18372" lon="-3.81681">
        <ele>81.185517</ele>
        <time>2022-12-10T17:38:07.282Z</time>
      </trkpt>
      <trkpt lat="48.18378" lon="-3.81667">
        <ele>81.035104</ele>
        <time>2022-12-10T17:38:10.287Z</time>
      </trkpt>
      <trkpt lat="48.18384" lon="-3.81655">
        <ele>80.891346</ele>
        <time>2022-12-10T17:38:13.285Z</time>
      </trkpt>
      <trkpt lat="48.1839" lon="-3.81645">
        <ele>80.762892</ele>
        <time>2022-12-10T17:38:16.277Z</time>
      </trkpt>
      <trkpt lat="48.18397" lon="-3.81634">
        <ele>80.621552</ele>
        <time>2022-12-10T17:38:20.273Z</time>
      </trkpt>
      <trkpt lat="48.18403" lon="-3.81623">
        <ele>80.492539</ele>
        <time>2022-12-10T17:38:23.276Z</time>
      </trkpt>
      <trkpt lat="48.18408" lon="-3.81611">
        <ele>80.359855</ele>
        <time>2022-12-10T17:38:26.284Z</time>
      </trkpt>
      <trkpt lat="48.18413" lon="-3.81597">
        <ele>80.2187</ele>
        <time>2022-12-10T17:38:29.286Z</time>
      </trkpt>
      <trkpt lat="48.18418" lon="-3.81584">
        <ele>80.076896</ele>
        <time>2022-12-10T17:38:32.281Z</time>
      </trkpt>
      <trkpt lat="48.18422" lon="-3.81569">
        <ele>79.927464</ele>
        <time>2022-12-10T17:38:35.257Z</time>
      </trkpt>
      <trkpt lat="48.18426" lon="-3.81555">
        <ele>79.780632</ele>
        <time>2022-12-10T17:38:38.263Z</time>
      </trkpt>
      <trkpt lat="48.18431" lon="-3.8154">
        <ele>79.633546</ele>
        <time>2022-12-10T17:38:41.260Z</time>
      </trkpt>
      <trkpt lat="48.18434" lon="-3.81526">
        <ele>79.495449</ele>
        <time>2022-12-10T17:38:44.269Z</time>
      </trkpt>
      <trkpt lat="48.18439" lon="-3.81509">
        <ele>79.324701</ele>
        <time>2022-12-10T17:38:48.275Z</time>
      </trkpt>
      <trkpt lat="48.18442" lon="-3.81495">
        <ele>79.327367</ele>
        <time>2022-12-10T17:38:51.272Z</time>
      </trkpt>
      <trkpt lat="48.18445" lon="-3.81481">
        <ele>79.332027</ele>
        <time>2022-12-10T17:38:54.307Z</time>
      </trkpt>
      <trkpt lat="48.18449" lon="-3.81468">
        <ele>79.336466</ele>
        <time>2022-12-10T17:38:57.291Z</time>
      </trkpt>
      <trkpt lat="48.18453" lon="-3.81455">
        <ele>79.340988</ele>
        <time>2022-12-10T17:39:00.277Z</time>
      </trkpt>
      <trkpt lat="48.18455" lon="-3.8144">
        <ele>79.345803</ele>
        <time>2022-12-10T17:39:03.281Z</time>
      </trkpt>
      <trkpt lat="48.1846" lon="-3.81426">
        <ele>79.350591</ele>
        <time>2022-12-10T17:39:06.267Z</time>
      </trkpt>
      <trkpt lat="48.18463" lon="-3.8141">
        <ele>79.355681</ele>
        <time>2022-12-10T17:39:10.274Z</time>
      </trkpt>
      <trkpt lat="48.18466" lon="-3.81395">
        <ele>79.360682</ele>
        <time>2022-12-10T17:39:14.297Z</time>
      </trkpt>
      <trkpt lat="48.18468" lon="-3.81379">
        <ele>79.365707</ele>
        <time>2022-12-10T17:39:18.283Z</time>
      </trkpt>
      <trkpt lat="48.1847" lon="-3.81365">
        <ele>79.370153</ele>
        <time>2022-12-10T17:39:21.254Z</time>
      </trkpt>
      <trkpt lat="48.1847" lon="-3.81349">
        <ele>79.375112</ele>
        <time>2022-12-10T17:39:24.302Z</time>
      </trkpt>
      <trkpt lat="48.18471" lon="-3.81334">
        <ele>79.379796</ele>
        <time>2022-12-10T17:39:27.277Z</time>
      </trkpt>
      <trkpt lat="48.18473" lon="-3.81321">
        <ele>79.384095</ele>
        <time>2022-12-10T17:39:30.306Z</time>
      </trkpt>
      <trkpt lat="48.18473" lon="-3.81305">
        <ele>79.388934</ele>
        <time>2022-12-10T17:39:33.283Z</time>
      </trkpt>
      <trkpt lat="48.18474" lon="-3.81291">
        <ele>79.393527</ele>
        <time>2022-12-10T17:39:36.285Z</time>
      </trkpt>
      <trkpt lat="48.18474" lon="-3.81275">
        <ele>79.398271</ele>
        <time>2022-12-10T17:39:39.254Z</time>
      </trkpt>
      <trkpt lat="48.18474" lon="-3.81261">
        <ele>79.4027</ele>
        <time>2022-12-10T17:39:42.269Z</time>
      </trkpt>
      <trkpt lat="48.18474" lon="-3.81245">
        <ele>79.484046</ele>
        <time>2022-12-10T17:39:45.263Z</time>
      </trkpt>
      <trkpt lat="48.18473" lon="-3.81229">
        <ele>79.975804</ele>
        <time>2022-12-10T17:39:48.294Z</time>
      </trkpt>
      <trkpt lat="48.18474" lon="-3.81215">
        <ele>80.398196</ele>
        <time>2022-12-10T17:39:51.264Z</time>
      </trkpt>
      <trkpt lat="48.18474" lon="-3.81196">
        <ele>80.962662</ele>
        <time>2022-12-10T17:39:55.264Z</time>
      </trkpt>
      <trkpt lat="48.18473" lon="-3.81181">
        <ele>81.428013</ele>
        <time>2022-12-10T17:39:58.301Z</time>
      </trkpt>
      <trkpt lat="48.18473" lon="-3.81167">
        <ele>81.858918</ele>
        <time>2022-12-10T17:40:01.277Z</time>
      </trkpt>
      <trkpt lat="48.18473" lon="-3.81151">
        <ele>82.332281</ele>
        <time>2022-12-10T17:40:04.291Z</time>
      </trkpt>
      <trkpt lat="48.18473" lon="-3.81135">
        <ele>82.832952</ele>
        <time>2022-12-10T17:40:07.264Z</time>
      </trkpt>
      <trkpt lat="48.18474" lon="-3.8112">
        <ele>83.28544</ele>
        <time>2022-12-10T17:40:10.276Z</time>
      </trkpt>
      <trkpt lat="48.18474" lon="-3.81106">
        <ele>83.719571</ele>
        <time>2022-12-10T17:40:13.266Z</time>
      </trkpt>
      <trkpt lat="48.18473" lon="-3.8109">
        <ele>84.205838</ele>
        <time>2022-12-10T17:40:17.271Z</time>
      </trkpt>
      <trkpt lat="48.18473" lon="-3.81076">
        <ele>84.627616</ele>
        <time>2022-12-10T17:40:21.268Z</time>
      </trkpt>
      <trkpt lat="48.18472" lon="-3.81059">
        <ele>85.141414</ele>
        <time>2022-12-10T17:40:26.297Z</time>
      </trkpt>
      <trkpt lat="48.18473" lon="-3.81043">
        <ele>85.631662</ele>
        <time>2022-12-10T17:40:32.252Z</time>
      </trkpt>
      <trkpt lat="48.18472" lon="-3.81028">
        <ele>86.081046</ele>
        <time>2022-12-10T17:40:37.274Z</time>
      </trkpt>
      <trkpt lat="48.18471" lon="-3.81011">
        <ele>86.586804</ele>
        <time>2022-12-10T17:40:42.293Z</time>
      </trkpt>
      <trkpt lat="48.1847" lon="-3.80997">
        <ele>87.036721</ele>
        <time>2022-12-10T17:40:47.267Z</time>
      </trkpt>
      <trkpt lat="48.1847" lon="-3.80982">
        <ele>87.473695</ele>
        <time>2022-12-10T17:40:52.263Z</time>
      </trkpt>
      <trkpt lat="48.1847" lon="-3.80971">
        <ele>88.037736</ele>
        <time>2022-12-10T17:41:16.065Z</time>
      </trkpt>
      <trkpt lat="48.18481" lon="-3.80996">
        <ele>89.769028</ele>
        <time>2022-12-10T17:51:19.266Z</time>
      </trkpt>
      <trkpt lat="48.18481" lon="-3.8101">
        <ele>90.57807</ele>
        <time>2022-12-10T17:51:34.263Z</time>
      </trkpt>
      <trkpt lat="48.18483" lon="-3.81023">
        <ele>91.369711</ele>
        <time>2022-12-10T17:51:44.269Z</time>
      </trkpt>
      <trkpt lat="48.1849" lon="-3.81016">
        <ele>92.145726</ele>
        <time>2022-12-10T17:51:56.266Z</time>
      </trkpt>
      <trkpt lat="48.18491" lon="-3.81001">
        <ele>93.012895</ele>
        <time>2022-12-10T17:52:03.269Z</time>
      </trkpt>
      <trkpt lat="48.1849" lon="-3.80987">
        <ele>93.822075</ele>
        <time>2022-12-10T17:52:10.272Z</time>
      </trkpt>
      <trkpt lat="48.1849" lon="-3.80972">
        <ele>94.702504</ele>
        <time>2022-12-10T17:52:18.260Z</time>
      </trkpt>
      <trkpt lat="48.18489" lon="-3.80958">
        <ele>95.497193</ele>
        <time>2022-12-10T17:52:26.273Z</time>
      </trkpt>
      <trkpt lat="48.18487" lon="-3.80945">
        <ele>96.286674</ele>
        <time>2022-12-10T17:52:34.269Z</time>
      </trkpt>
      <trkpt lat="48.18486" lon="-3.80931">
        <ele>97.110573</ele>
        <time>2022-12-10T17:52:42.266Z</time>
      </trkpt>
      <trkpt lat="48.18484" lon="-3.80917">
        <ele>97.920987</ele>
        <time>2022-12-10T17:52:50.267Z</time>
      </trkpt>
      <trkpt lat="48.18482" lon="-3.80904">
        <ele>98.705168</ele>
        <time>2022-12-10T17:52:58.267Z</time>
      </trkpt>
      <trkpt lat="48.18479" lon="-3.8089">
        <ele>99.515937</ele>
        <time>2022-12-10T17:53:07.272Z</time>
      </trkpt>
      <trkpt lat="48.18477" lon="-3.80876">
        <ele>100.36772</ele>
        <time>2022-12-10T17:53:17.263Z</time>
      </trkpt>
      <trkpt lat="48.18477" lon="-3.80862">
        <ele>101.177875</ele>
        <time>2022-12-10T17:53:27.271Z</time>
      </trkpt>
      <trkpt lat="48.18476" lon="-3.80848">
        <ele>101.964187</ele>
        <time>2022-12-10T17:53:37.266Z</time>
      </trkpt>
      <trkpt lat="48.18474" lon="-3.80836">
        <ele>102.742634</ele>
        <time>2022-12-10T17:53:46.271Z</time>
      </trkpt>
      <trkpt lat="48.18471" lon="-3.80822">
        <ele>103.531877</ele>
        <time>2022-12-10T17:53:56.272Z</time>
      </trkpt>
      <trkpt lat="48.18469" lon="-3.80808">
        <ele>104.237996</ele>
        <time>2022-12-10T17:54:06.266Z</time>
      </trkpt>
      <trkpt lat="48.18467" lon="-3.80794">
        <ele>104.990129</ele>
        <time>2022-12-10T17:54:16.269Z</time>
      </trkpt>
      <trkpt lat="48.18466" lon="-3.8078">
        <ele>105.71453</ele>
        <time>2022-12-10T17:54:26.270Z</time>
      </trkpt>
      <trkpt lat="48.18466" lon="-3.80766">
        <ele>106.422597</ele>
        <time>2022-12-10T17:54:35.276Z</time>
      </trkpt>
      <trkpt lat="48.18467" lon="-3.80752">
        <ele>107.183335</ele>
        <time>2022-12-10T17:54:44.265Z</time>
      </trkpt>
      <trkpt lat="48.1847" lon="-3.80738">
        <ele>107.932938</ele>
        <time>2022-12-10T17:54:54.268Z</time>
      </trkpt>
      <trkpt lat="48.18477" lon="-3.80729">
        <ele>108.654418</ele>
        <time>2022-12-10T17:55:04.282Z</time>
      </trkpt>
      <trkpt lat="48.18485" lon="-3.80722">
        <ele>109.36055</ele>
        <time>2022-12-10T17:55:13.268Z</time>
      </trkpt>
      <trkpt lat="48.18494" lon="-3.80716">
        <ele>110.11786</ele>
        <time>2022-12-10T17:55:23.269Z</time>
      </trkpt>
      <trkpt lat="48.18503" lon="-3.80712">
        <ele>110.838078</ele>
        <time>2022-12-10T17:55:32.273Z</time>
      </trkpt>
      <trkpt lat="48.18513" lon="-3.8071">
        <ele>111.606216</ele>
        <time>2022-12-10T17:55:43.278Z</time>
      </trkpt>
      <trkpt lat="48.18522" lon="-3.80714">
        <ele>112.368376</ele>
        <time>2022-12-10T17:55:52.265Z</time>
      </trkpt>
      <trkpt lat="48.1853" lon="-3.80723">
        <ele>113.11757</ele>
        <time>2022-12-10T17:56:01.260Z</time>
      </trkpt>
      <trkpt lat="48.18534" lon="-3.80736">
        <ele>113.863099</ele>
        <time>2022-12-10T17:56:10.264Z</time>
      </trkpt>
      <trkpt lat="48.18538" lon="-3.8075">
        <ele>114.641434</ele>
        <time>2022-12-10T17:56:19.282Z</time>
      </trkpt>
      <trkpt lat="48.18541" lon="-3.80763">
        <ele>115.357641</ele>
        <time>2022-12-10T17:56:28.266Z</time>
      </trkpt>
      <trkpt lat="48.18543" lon="-3.80776">
        <ele>116.079134</ele>
        <time>2022-12-10T17:56:37.268Z</time>
      </trkpt>
      <trkpt lat="48.18547" lon="-3.8079">
        <ele>116.807732</ele>
        <time>2022-12-10T17:56:46.267Z</time>
      </trkpt>
      <trkpt lat="48.18549" lon="-3.80803">
        <ele>117.541208</ele>
        <time>2022-12-10T17:56:55.278Z</time>
      </trkpt>
      <trkpt lat="48.18553" lon="-3.80816">
        <ele>118.249841</ele>
        <time>2022-12-10T17:57:03.284Z</time>
      </trkpt>
      <trkpt lat="48.18556" lon="-3.8083">
        <ele>119.017561</ele>
        <time>2022-12-10T17:57:12.276Z</time>
      </trkpt>
      <trkpt lat="48.18559" lon="-3.80844">
        <ele>119.768399</ele>
        <time>2022-12-10T17:57:21.262Z</time>
      </trkpt>
      <trkpt lat="48.18563" lon="-3.80857">
        <ele>120.504735</ele>
        <time>2022-12-10T17:57:30.277Z</time>
      </trkpt>
      <trkpt lat="48.18566" lon="-3.80871">
        <ele>121.264911</ele>
        <time>2022-12-10T17:57:40.272Z</time>
      </trkpt>
      <trkpt lat="48.18569" lon="-3.80884">
        <ele>121.999251</ele>
        <time>2022-12-10T17:57:49.282Z</time>
      </trkpt>
      <trkpt lat="48.18572" lon="-3.80898">
        <ele>122.749876</ele>
        <time>2022-12-10T17:57:59.266Z</time>
      </trkpt>
      <trkpt lat="48.18575" lon="-3.80912">
        <ele>123.495408</ele>
        <time>2022-12-10T17:58:08.267Z</time>
      </trkpt>
      <trkpt lat="48.18579" lon="-3.80924">
        <ele>124.212473</ele>
        <time>2022-12-10T17:58:17.266Z</time>
      </trkpt>
      <trkpt lat="48.18582" lon="-3.80938">
        <ele>124.984296</ele>
        <time>2022-12-10T17:58:27.268Z</time>
      </trkpt>
      <trkpt lat="48.18586" lon="-3.80951">
        <ele>125.70136</ele>
        <time>2022-12-10T17:58:36.266Z</time>
      </trkpt>
      <trkpt lat="48.18589" lon="-3.80964">
        <ele>126.409989</ele>
        <time>2022-12-10T17:58:45.266Z</time>
      </trkpt>
      <trkpt lat="48.18593" lon="-3.80978">
        <ele>127.172569</ele>
        <time>2022-12-10T17:58:54.272Z</time>
      </trkpt>
      <trkpt lat="48.18595" lon="-3.80992">
        <ele>127.918244</ele>
        <time>2022-12-10T17:59:03.269Z</time>
      </trkpt>
      <trkpt lat="48.18598" lon="-3.81005">
        <ele>128.648553</ele>
        <time>2022-12-10T17:59:12.270Z</time>
      </trkpt>
      <trkpt lat="48.18599" lon="-3.81019">
        <ele>129.368916</ele>
        <time>2022-12-10T17:59:21.268Z</time>
      </trkpt>
      <trkpt lat="48.18601" lon="-3.81033">
        <ele>130.108837</ele>
        <time>2022-12-10T17:59:31.272Z</time>
      </trkpt>
      <trkpt lat="48.186" lon="-3.81047">
        <ele>130.817081</ele>
        <time>2022-12-10T17:59:41.272Z</time>
      </trkpt>
      <trkpt lat="48.18599" lon="-3.81061">
        <ele>131.281948</ele>
        <time>2022-12-10T17:59:50.278Z</time>
      </trkpt>
      <trkpt lat="48.18598" lon="-3.81075">
        <ele>131.602807</ele>
        <time>2022-12-10T17:59:59.273Z</time>
      </trkpt>
      <trkpt lat="48.18595" lon="-3.81088">
        <ele>131.92735</ele>
        <time>2022-12-10T18:00:08.283Z</time>
      </trkpt>
      <trkpt lat="48.18595" lon="-3.81102">
        <ele>132.251501</ele>
        <time>2022-12-10T18:00:17.281Z</time>
      </trkpt>
      <trkpt lat="48.18593" lon="-3.81116">
        <ele>132.583727</ele>
        <time>2022-12-10T18:00:26.281Z</time>
      </trkpt>
      <trkpt lat="48.18597" lon="-3.8113">
        <ele>132.913581</ele>
        <time>2022-12-10T18:00:36.265Z</time>
      </trkpt>
      <trkpt lat="48.18606" lon="-3.81133">
        <ele>133.264997</ele>
        <time>2022-12-10T18:00:46.278Z</time>
      </trkpt>
      <trkpt lat="48.18616" lon="-3.81133">
        <ele>133.604213</ele>
        <time>2022-12-10T18:00:54.264Z</time>
      </trkpt>
      <trkpt lat="48.18625" lon="-3.81133">
        <ele>133.919497</ele>
        <time>2022-12-10T18:01:02.281Z</time>
      </trkpt>
      <trkpt lat="48.18635" lon="-3.81134">
        <ele>134.265884</ele>
        <time>2022-12-10T18:01:11.273Z</time>
      </trkpt>
      <trkpt lat="48.18645" lon="-3.81135">
        <ele>134.612172</ele>
        <time>2022-12-10T18:01:20.278Z</time>
      </trkpt>
      <trkpt lat="48.18654" lon="-3.81135">
        <ele>134.92705</ele>
        <time>2022-12-10T18:01:29.294Z</time>
      </trkpt>
      <trkpt lat="48.18664" lon="-3.81135">
        <ele>135.245589</ele>
        <time>2022-12-10T18:01:47.305Z</time>
      </trkpt>
      <trkpt lat="48.18673" lon="-3.81138">
        <ele>135.558476</ele>
        <time>2022-12-10T18:01:57.297Z</time>
      </trkpt>
      <trkpt lat="48.18682" lon="-3.81141">
        <ele>135.893049</ele>
        <time>2022-12-10T18:02:05.269Z</time>
      </trkpt>
      <trkpt lat="48.18691" lon="-3.81142">
        <ele>136.216234</ele>
        <time>2022-12-10T18:02:16.278Z</time>
      </trkpt>
      <trkpt lat="48.187" lon="-3.81146">
        <ele>136.535185</ele>
        <time>2022-12-10T18:02:28.299Z</time>
      </trkpt>
      <trkpt lat="48.1871" lon="-3.81148">
        <ele>136.88524</ele>
        <time>2022-12-10T18:02:40.283Z</time>
      </trkpt>
      <trkpt lat="48.1872" lon="-3.8115">
        <ele>137.219717</ele>
        <time>2022-12-10T18:02:50.296Z</time>
      </trkpt>
      <trkpt lat="48.18729" lon="-3.81152">
        <ele>137.205258</ele>
        <time>2022-12-10T18:03:01.296Z</time>
      </trkpt>
      <trkpt lat="48.18736" lon="-3.81145">
        <ele>137.091858</ele>
        <time>2022-12-10T18:03:17.295Z</time>
      </trkpt>
      <trkpt lat="48.1874" lon="-3.81132">
        <ele>136.97828</ele>
        <time>2022-12-10T18:04:11.301Z</time>
      </trkpt>
      <trkpt lat="48.1874" lon="-3.81111">
        <ele>136.797781</ele>
        <time>2022-12-10T18:04:57.268Z</time>
      </trkpt>
      <trkpt lat="48.18739" lon="-3.81096">
        <ele>136.669139</ele>
        <time>2022-12-10T18:05:02.273Z</time>
      </trkpt>
      <trkpt lat="48.18737" lon="-3.81081">
        <ele>136.547467</ele>
        <time>2022-12-10T18:05:06.286Z</time>
      </trkpt>
      <trkpt lat="48.18738" lon="-3.81064">
        <ele>136.404672</ele>
        <time>2022-12-10T18:05:10.275Z</time>
      </trkpt>
      <trkpt lat="48.18739" lon="-3.8105">
        <ele>136.282425</ele>
        <time>2022-12-10T18:05:13.274Z</time>
      </trkpt>
      <trkpt lat="48.18738" lon="-3.81035">
        <ele>136.157957</ele>
        <time>2022-12-10T18:05:16.281Z</time>
      </trkpt>
      <trkpt lat="48.1874" lon="-3.8102">
        <ele>136.024927</ele>
        <time>2022-12-10T18:05:19.282Z</time>
      </trkpt>
      <trkpt lat="48.18743" lon="-3.81005">
        <ele>135.89659</ele>
        <time>2022-12-10T18:05:22.276Z</time>
      </trkpt>
      <trkpt lat="48.18747" lon="-3.8099">
        <ele>135.765637</ele>
        <time>2022-12-10T18:05:25.282Z</time>
      </trkpt>
      <trkpt lat="48.18753" lon="-3.80977">
        <ele>135.634969</ele>
        <time>2022-12-10T18:05:28.281Z</time>
      </trkpt>
      <trkpt lat="48.1876" lon="-3.80964">
        <ele>135.491507</ele>
        <time>2022-12-10T18:05:31.268Z</time>
      </trkpt>
      <trkpt lat="48.18768" lon="-3.8095">
        <ele>135.332681</ele>
        <time>2022-12-10T18:05:34.271Z</time>
      </trkpt>
      <trkpt lat="48.18778" lon="-3.80937">
        <ele>135.171692</ele>
        <time>2022-12-10T18:05:37.274Z</time>
      </trkpt>
      <trkpt lat="48.18784" lon="-3.80927">
        <ele>135.058015</ele>
        <time>2022-12-10T18:05:39.266Z</time>
      </trkpt>
      <trkpt lat="48.18793" lon="-3.80913">
        <ele>134.728571</ele>
        <time>2022-12-10T18:05:42.268Z</time>
      </trkpt>
      <trkpt lat="48.188" lon="-3.80903">
        <ele>134.482184</ele>
        <time>2022-12-10T18:05:44.272Z</time>
      </trkpt>
      <trkpt lat="48.18806" lon="-3.80893">
        <ele>134.241426</ele>
        <time>2022-12-10T18:05:46.264Z</time>
      </trkpt>
      <trkpt lat="48.18814" lon="-3.80878">
        <ele>133.903959</ele>
        <time>2022-12-10T18:05:49.271Z</time>
      </trkpt>
      <trkpt lat="48.18822" lon="-3.80863">
        <ele>133.560331</ele>
        <time>2022-12-10T18:05:52.278Z</time>
      </trkpt>
      <trkpt lat="48.18828" lon="-3.80846">
        <ele>133.218402</ele>
        <time>2022-12-10T18:05:55.270Z</time>
      </trkpt>
      <trkpt lat="48.18834" lon="-3.80828">
        <ele>132.865759</ele>
        <time>2022-12-10T18:05:58.298Z</time>
      </trkpt>
      <trkpt lat="48.18838" lon="-3.8081">
        <ele>132.514007</ele>
        <time>2022-12-10T18:06:01.273Z</time>
      </trkpt>
      <trkpt lat="48.18842" lon="-3.8079">
        <ele>132.158085</ele>
        <time>2022-12-10T18:06:04.276Z</time>
      </trkpt>
      <trkpt lat="48.18847" lon="-3.80773">
        <ele>131.820731</ele>
        <time>2022-12-10T18:06:07.265Z</time>
      </trkpt>
      <trkpt lat="48.18853" lon="-3.80758">
        <ele>131.519959</ele>
        <time>2022-12-10T18:06:10.273Z</time>
      </trkpt>
      <trkpt lat="48.18859" lon="-3.80746">
        <ele>131.23553</ele>
        <time>2022-12-10T18:06:13.277Z</time>
      </trkpt>
      <trkpt lat="48.18867" lon="-3.80735">
        <ele>130.951708</ele>
        <time>2022-12-10T18:06:16.283Z</time>
      </trkpt>
      <trkpt lat="48.18875" lon="-3.80725">
        <ele>130.670117</ele>
        <time>2022-12-10T18:06:19.278Z</time>
      </trkpt>
      <trkpt lat="48.18885" lon="-3.80719">
        <ele>130.39895</ele>
        <time>2022-12-10T18:06:22.280Z</time>
      </trkpt>
      <trkpt lat="48.18894" lon="-3.80713">
        <ele>130.106763</ele>
        <time>2022-12-10T18:06:25.268Z</time>
      </trkpt>
      <trkpt lat="48.18903" lon="-3.80709">
        <ele>129.777731</ele>
        <time>2022-12-10T18:06:28.274Z</time>
      </trkpt>
      <trkpt lat="48.18913" lon="-3.80707">
        <ele>129.438205</ele>
        <time>2022-12-10T18:06:31.272Z</time>
      </trkpt>
      <trkpt lat="48.18923" lon="-3.80707">
        <ele>129.097279</ele>
        <time>2022-12-10T18:06:34.280Z</time>
      </trkpt>
      <trkpt lat="48.18933" lon="-3.80709">
        <ele>128.763614</ele>
        <time>2022-12-10T18:06:37.290Z</time>
      </trkpt>
      <trkpt lat="48.18944" lon="-3.8071">
        <ele>128.403461</ele>
        <time>2022-12-10T18:06:40.273Z</time>
      </trkpt>
      <trkpt lat="48.18955" lon="-3.80712">
        <ele>128.019593</ele>
        <time>2022-12-10T18:06:43.274Z</time>
      </trkpt>
      <trkpt lat="48.18967" lon="-3.80714">
        <ele>127.613699</ele>
        <time>2022-12-10T18:06:46.268Z</time>
      </trkpt>
      <trkpt lat="48.1898" lon="-3.80712">
        <ele>127.166539</ele>
        <time>2022-12-10T18:06:49.285Z</time>
      </trkpt>
      <trkpt lat="48.18992" lon="-3.80704">
        <ele>126.736747</ele>
        <time>2022-12-10T18:06:52.290Z</time>
      </trkpt>
      <trkpt lat="48.19" lon="-3.80692">
        <ele>126.345054</ele>
        <time>2022-12-10T18:06:55.297Z</time>
      </trkpt>
      <trkpt lat="48.19005" lon="-3.80678">
        <ele>125.992231</ele>
        <time>2022-12-10T18:06:58.274Z</time>
      </trkpt>
      <trkpt lat="48.19007" lon="-3.80665">
        <ele>125.678845</ele>
        <time>2022-12-10T18:07:01.288Z</time>
      </trkpt>
      <trkpt lat="48.19005" lon="-3.80648">
        <ele>125.30546</ele>
        <time>2022-12-10T18:07:05.269Z</time>
      </trkpt>
      <trkpt lat="48.19001" lon="-3.80636">
        <ele>124.997662</ele>
        <time>2022-12-10T18:07:08.274Z</time>
      </trkpt>
      <trkpt lat="48.18995" lon="-3.80625">
        <ele>124.672755</ele>
        <time>2022-12-10T18:07:11.265Z</time>
      </trkpt>
      <trkpt lat="48.18988" lon="-3.80613">
        <ele>124.327561</ele>
        <time>2022-12-10T18:07:14.279Z</time>
      </trkpt>
      <trkpt lat="48.1898" lon="-3.80602">
        <ele>124.009722</ele>
        <time>2022-12-10T18:07:17.281Z</time>
      </trkpt>
      <trkpt lat="48.18972" lon="-3.80592">
        <ele>123.743995</ele>
        <time>2022-12-10T18:07:20.278Z</time>
      </trkpt>
      <trkpt lat="48.18965" lon="-3.80583">
        <ele>123.505526</ele>
        <time>2022-12-10T18:07:23.268Z</time>
      </trkpt>
      <trkpt lat="48.1896" lon="-3.80572">
        <ele>123.267579</ele>
        <time>2022-12-10T18:07:26.274Z</time>
      </trkpt>
      <trkpt lat="48.18955" lon="-3.80558">
        <ele>123.009234</ele>
        <time>2022-12-10T18:07:29.286Z</time>
      </trkpt>
      <trkpt lat="48.18954" lon="-3.80543">
        <ele>122.740322</ele>
        <time>2022-12-10T18:07:32.284Z</time>
      </trkpt>
      <trkpt lat="48.18956" lon="-3.80525">
        <ele>122.432933</ele>
        <time>2022-12-10T18:07:35.275Z</time>
      </trkpt>
      <trkpt lat="48.18961" lon="-3.80508">
        <ele>122.1093</ele>
        <time>2022-12-10T18:07:38.283Z</time>
      </trkpt>
      <trkpt lat="48.18967" lon="-3.80493">
        <ele>121.810305</ele>
        <time>2022-12-10T18:07:41.271Z</time>
      </trkpt>
      <trkpt lat="48.18974" lon="-3.8048">
        <ele>121.518982</ele>
        <time>2022-12-10T18:07:44.274Z</time>
      </trkpt>
      <trkpt lat="48.18982" lon="-3.80469">
        <ele>121.233237</ele>
        <time>2022-12-10T18:07:47.271Z</time>
      </trkpt>
      <trkpt lat="48.18991" lon="-3.80458">
        <ele>120.949548</ele>
        <time>2022-12-10T18:07:50.266Z</time>
      </trkpt>
      <trkpt lat="48.18997" lon="-3.80446">
        <ele>120.687365</ele>
        <time>2022-12-10T18:07:53.277Z</time>
      </trkpt>
      <trkpt lat="48.19004" lon="-3.80434">
        <ele>120.412959</ele>
        <time>2022-12-10T18:07:56.275Z</time>
      </trkpt>
      <trkpt lat="48.1901" lon="-3.80422">
        <ele>120.155066</ele>
        <time>2022-12-10T18:07:59.269Z</time>
      </trkpt>
      <trkpt lat="48.19017" lon="-3.80408">
        <ele>119.868939</ele>
        <time>2022-12-10T18:08:02.276Z</time>
      </trkpt>
      <trkpt lat="48.19023" lon="-3.80394">
        <ele>119.568537</ele>
        <time>2022-12-10T18:08:05.268Z</time>
      </trkpt>
      <trkpt lat="48.19029" lon="-3.80379">
        <ele>119.326355</ele>
        <time>2022-12-10T18:08:08.268Z</time>
      </trkpt>
      <trkpt lat="48.19033" lon="-3.80366">
        <ele>119.112222</ele>
        <time>2022-12-10T18:08:11.287Z</time>
      </trkpt>
      <trkpt lat="48.19038" lon="-3.80354">
        <ele>118.915806</ele>
        <time>2022-12-10T18:08:14.283Z</time>
      </trkpt>
      <trkpt lat="48.19042" lon="-3.80338">
        <ele>118.679978</ele>
        <time>2022-12-10T18:08:17.266Z</time>
      </trkpt>
      <trkpt lat="48.19045" lon="-3.80322">
        <ele>118.436958</ele>
        <time>2022-12-10T18:08:20.289Z</time>
      </trkpt>
      <trkpt lat="48.19048" lon="-3.80305">
        <ele>118.18498</ele>
        <time>2022-12-10T18:08:23.285Z</time>
      </trkpt>
      <trkpt lat="48.19048" lon="-3.80287">
        <ele>117.940284</ele>
        <time>2022-12-10T18:08:27.274Z</time>
      </trkpt>
      <trkpt lat="48.19048" lon="-3.80271">
        <ele>117.705179</ele>
        <time>2022-12-10T18:08:31.284Z</time>
      </trkpt>
      <trkpt lat="48.19048" lon="-3.80253">
        <ele>117.456196</ele>
        <time>2022-12-10T18:08:35.278Z</time>
      </trkpt>
      <trkpt lat="48.19045" lon="-3.80235">
        <ele>117.19243</ele>
        <time>2022-12-10T18:08:39.278Z</time>
      </trkpt>
      <trkpt lat="48.19042" lon="-3.80218">
        <ele>116.947146</ele>
        <time>2022-12-10T18:08:42.280Z</time>
      </trkpt>
      <trkpt lat="48.1904" lon="-3.80198">
        <ele>116.661138</ele>
        <time>2022-12-10T18:08:45.281Z</time>
      </trkpt>
      <trkpt lat="48.19038" lon="-3.80181">
        <ele>116.411064</ele>
        <time>2022-12-10T18:08:48.275Z</time>
      </trkpt>
      <trkpt lat="48.19035" lon="-3.80162">
        <ele>116.14505</ele>
        <time>2022-12-10T18:08:51.296Z</time>
      </trkpt>
      <trkpt lat="48.19031" lon="-3.80146">
        <ele>115.903388</ele>
        <time>2022-12-10T18:08:54.283Z</time>
      </trkpt>
      <trkpt lat="48.19027" lon="-3.8013">
        <ele>115.704079</ele>
        <time>2022-12-10T18:08:57.272Z</time>
      </trkpt>
      <trkpt lat="48.19021" lon="-3.80113">
        <ele>115.670982</ele>
        <time>2022-12-10T18:09:00.275Z</time>
      </trkpt>
      <trkpt lat="48.19016" lon="-3.80097">
        <ele>115.640279</ele>
        <time>2022-12-10T18:09:03.282Z</time>
      </trkpt>
      <trkpt lat="48.19011" lon="-3.80081">
        <ele>115.610762</ele>
        <time>2022-12-10T18:09:06.284Z</time>
      </trkpt>
      <trkpt lat="48.19007" lon="-3.80069">
        <ele>115.587347</ele>
        <time>2022-12-10T18:09:09.284Z</time>
      </trkpt>
      <trkpt lat="48.19002" lon="-3.80054">
        <ele>115.558948</ele>
        <time>2022-12-10T18:09:12.272Z</time>
      </trkpt>
      <trkpt lat="48.18996" lon="-3.8004">
        <ele>115.529759</ele>
        <time>2022-12-10T18:09:15.270Z</time>
      </trkpt>
      <trkpt lat="48.18991" lon="-3.80025">
        <ele>115.501782</ele>
        <time>2022-12-10T18:09:18.272Z</time>
      </trkpt>
      <trkpt lat="48.18987" lon="-3.80011">
        <ele>115.474946</ele>
        <time>2022-12-10T18:09:21.274Z</time>
      </trkpt>
      <trkpt lat="48.18983" lon="-3.79998">
        <ele>115.450564</ele>
        <time>2022-12-10T18:09:24.271Z</time>
      </trkpt>
      <trkpt lat="48.1898" lon="-3.79984">
        <ele>115.426082</ele>
        <time>2022-12-10T18:09:27.284Z</time>
      </trkpt>
      <trkpt lat="48.18976" lon="-3.79968">
        <ele>115.396655</ele>
        <time>2022-12-10T18:09:30.279Z</time>
      </trkpt>
      <trkpt lat="48.18974" lon="-3.7995">
        <ele>115.365413</ele>
        <time>2022-12-10T18:09:33.292Z</time>
      </trkpt>
      <trkpt lat="48.18974" lon="-3.79932">
        <ele>115.334907</ele>
        <time>2022-12-10T18:09:36.289Z</time>
      </trkpt>
      <trkpt lat="48.18976" lon="-3.79915">
        <ele>115.304478</ele>
        <time>2022-12-10T18:09:39.286Z</time>
      </trkpt>
      <trkpt lat="48.18979" lon="-3.79898">
        <ele>115.274634</ele>
        <time>2022-12-10T18:09:42.276Z</time>
      </trkpt>
      <trkpt lat="48.18984" lon="-3.79884">
        <ele>115.26626</ele>
        <time>2022-12-10T18:09:45.265Z</time>
      </trkpt>
      <trkpt lat="48.1899" lon="-3.79869">
        <ele>115.583099</ele>
        <time>2022-12-10T18:09:48.283Z</time>
      </trkpt>
      <trkpt lat="48.18997" lon="-3.79855">
        <ele>115.891284</ele>
        <time>2022-12-10T18:09:51.280Z</time>
      </trkpt>
      <trkpt lat="48.19003" lon="-3.79842">
        <ele>116.170539</ele>
        <time>2022-12-10T18:09:54.279Z</time>
      </trkpt>
      <trkpt lat="48.19009" lon="-3.79831">
        <ele>116.436881</ele>
        <time>2022-12-10T18:09:57.280Z</time>
      </trkpt>
      <trkpt lat="48.19015" lon="-3.79818">
        <ele>116.719624</ele>
        <time>2022-12-10T18:10:00.277Z</time>
      </trkpt>
      <trkpt lat="48.19021" lon="-3.79806">
        <ele>116.995868</ele>
        <time>2022-12-10T18:10:03.278Z</time>
      </trkpt>
      <trkpt lat="48.19027" lon="-3.79793">
        <ele>117.264674</ele>
        <time>2022-12-10T18:10:06.273Z</time>
      </trkpt>
      <trkpt lat="48.1903" lon="-3.79781">
        <ele>117.516967</ele>
        <time>2022-12-10T18:10:09.272Z</time>
      </trkpt>
      <trkpt lat="48.19037" lon="-3.79766">
        <ele>117.841252</ele>
        <time>2022-12-10T18:10:13.296Z</time>
      </trkpt>
      <trkpt lat="48.19042" lon="-3.79754">
        <ele>118.089034</ele>
        <time>2022-12-10T18:10:16.287Z</time>
      </trkpt>
      <trkpt lat="48.19048" lon="-3.7974">
        <ele>118.393803</ele>
        <time>2022-12-10T18:10:20.275Z</time>
      </trkpt>
      <trkpt lat="48.19056" lon="-3.7973">
        <ele>118.677459</ele>
        <time>2022-12-10T18:10:25.273Z</time>
      </trkpt>
      <trkpt lat="48.19065" lon="-3.79722">
        <ele>118.946387</ele>
        <time>2022-12-10T18:10:31.286Z</time>
      </trkpt>
      <trkpt lat="48.19074" lon="-3.79715">
        <ele>119.221799</ele>
        <time>2022-12-10T18:10:37.276Z</time>
      </trkpt>
      <trkpt lat="48.19087" lon="-3.79705">
        <ele>119.621275</ele>
        <time>2022-12-10T18:11:04.277Z</time>
      </trkpt>
      <trkpt lat="48.19096" lon="-3.79697">
        <ele>119.918505</ele>
        <time>2022-12-10T18:11:09.293Z</time>
      </trkpt>
      <trkpt lat="48.19105" lon="-3.79689">
        <ele>120.141558</ele>
        <time>2022-12-10T18:11:14.274Z</time>
      </trkpt>
      <trkpt lat="48.19115" lon="-3.7968">
        <ele>120.224438</ele>
        <time>2022-12-10T18:11:19.272Z</time>
      </trkpt>
      <trkpt lat="48.19122" lon="-3.79671">
        <ele>120.293803</ele>
        <time>2022-12-10T18:11:23.274Z</time>
      </trkpt>
      <trkpt lat="48.19129" lon="-3.79661">
        <ele>120.368006</ele>
        <time>2022-12-10T18:11:27.272Z</time>
      </trkpt>
      <trkpt lat="48.19134" lon="-3.7965">
        <ele>120.43823</ele>
        <time>2022-12-10T18:11:31.290Z</time>
      </trkpt>
      <trkpt lat="48.1914" lon="-3.79638">
        <ele>120.509767</ele>
        <time>2022-12-10T18:11:35.267Z</time>
      </trkpt>
      <trkpt lat="48.19145" lon="-3.79624">
        <ele>120.591188</ele>
        <time>2022-12-10T18:11:40.275Z</time>
      </trkpt>
      <trkpt lat="48.19149" lon="-3.7961">
        <ele>120.668683</ele>
        <time>2022-12-10T18:11:45.291Z</time>
      </trkpt>
      <trkpt lat="48.19153" lon="-3.79596">
        <ele>120.746014</ele>
        <time>2022-12-10T18:11:51.271Z</time>
      </trkpt>
      <trkpt lat="48.19154" lon="-3.79582">
        <ele>120.81651</ele>
        <time>2022-12-10T18:11:56.269Z</time>
      </trkpt>
      <trkpt lat="48.19156" lon="-3.79569">
        <ele>120.886301</ele>
        <time>2022-12-10T18:12:01.270Z</time>
      </trkpt>
      <trkpt lat="48.19157" lon="-3.79553">
        <ele>120.964623</ele>
        <time>2022-12-10T18:12:06.273Z</time>
      </trkpt>
      <trkpt lat="48.1916" lon="-3.79539">
        <ele>121.036872</ele>
        <time>2022-12-10T18:12:11.280Z</time>
      </trkpt>
      <trkpt lat="48.19159" lon="-3.79525">
        <ele>121.109948</ele>
        <time>2022-12-10T18:12:16.280Z</time>
      </trkpt>
      <trkpt lat="48.19158" lon="-3.79509">
        <ele>121.18928</ele>
        <time>2022-12-10T18:12:22.271Z</time>
      </trkpt>
      <trkpt lat="48.19159" lon="-3.79496">
        <ele>121.258061</ele>
        <time>2022-12-10T18:12:28.280Z</time>
      </trkpt>
      <trkpt lat="48.19159" lon="-3.79481">
        <ele>121.332911</ele>
        <time>2022-12-10T18:12:34.268Z</time>
      </trkpt>
      <trkpt lat="48.19158" lon="-3.79466">
        <ele>121.409076</ele>
        <time>2022-12-10T18:12:40.276Z</time>
      </trkpt>
      <trkpt lat="48.19155" lon="-3.79453">
        <ele>121.477781</ele>
        <time>2022-12-10T18:12:45.271Z</time>
      </trkpt>
      <trkpt lat="48.19153" lon="-3.79439">
        <ele>121.804124</ele>
        <time>2022-12-10T18:12:51.277Z</time>
      </trkpt>
      <trkpt lat="48.19152" lon="-3.79423">
        <ele>122.163141</ele>
        <time>2022-12-10T18:12:57.268Z</time>
      </trkpt>
      <trkpt lat="48.19152" lon="-3.79408">
        <ele>122.49439</ele>
        <time>2022-12-10T18:13:03.276Z</time>
      </trkpt>
      <trkpt lat="48.1915" lon="-3.79393">
        <ele>122.840282</ele>
        <time>2022-12-10T18:13:08.271Z</time>
      </trkpt>
      <trkpt lat="48.19148" lon="-3.79377">
        <ele>123.215461</ele>
        <time>2022-12-10T18:13:14.278Z</time>
      </trkpt>
      <trkpt lat="48.19148" lon="-3.79361">
        <ele>123.590395</ele>
        <time>2022-12-10T18:13:19.275Z</time>
      </trkpt>
      <trkpt lat="48.19146" lon="-3.79345">
        <ele>123.950714</ele>
        <time>2022-12-10T18:13:24.273Z</time>
      </trkpt>
      <trkpt lat="48.19146" lon="-3.79329">
        <ele>124.311114</ele>
        <time>2022-12-10T18:13:29.270Z</time>
      </trkpt>
      <trkpt lat="48.19147" lon="-3.79315">
        <ele>124.642363</ele>
        <time>2022-12-10T18:13:34.287Z</time>
      </trkpt>
      <trkpt lat="48.19147" lon="-3.79298">
        <ele>125.017297</ele>
        <time>2022-12-10T18:13:39.282Z</time>
      </trkpt>
      <trkpt lat="48.19147" lon="-3.79281">
        <ele>125.407207</ele>
        <time>2022-12-10T18:13:44.280Z</time>
      </trkpt>
      <trkpt lat="48.19148" lon="-3.79267">
        <ele>125.724213</ele>
        <time>2022-12-10T18:13:48.272Z</time>
      </trkpt>
      <trkpt lat="48.19148" lon="-3.79252">
        <ele>126.067319</ele>
        <time>2022-12-10T18:13:52.288Z</time>
      </trkpt>
      <trkpt lat="48.19148" lon="-3.79236">
        <ele>126.434429</ele>
        <time>2022-12-10T18:13:57.274Z</time>
      </trkpt>
      <trkpt lat="48.19147" lon="-3.79221">
        <ele>126.782686</ele>
        <time>2022-12-10T18:14:02.275Z</time>
      </trkpt>
      <trkpt lat="48.19147" lon="-3.79206">
        <ele>127.131556</ele>
        <time>2022-12-10T18:14:07.290Z</time>
      </trkpt>
      <trkpt lat="48.19147" lon="-3.79192">
        <ele>127.439539</ele>
        <time>2022-12-10T18:14:12.273Z</time>
      </trkpt>
      <trkpt lat="48.19146" lon="-3.79178">
        <ele>127.840867</ele>
        <time>2022-12-10T18:14:17.278Z</time>
      </trkpt>
      <trkpt lat="48.19146" lon="-3.79163">
        <ele>128.336542</ele>
        <time>2022-12-10T18:14:22.277Z</time>
      </trkpt>
      <trkpt lat="48.19145" lon="-3.79149">
        <ele>128.815675</ele>
        <time>2022-12-10T18:14:27.283Z</time>
      </trkpt>
      <trkpt lat="48.19145" lon="-3.79135">
        <ele>129.314796</ele>
        <time>2022-12-10T18:14:32.268Z</time>
      </trkpt>
      <trkpt lat="48.19145" lon="-3.7912">
        <ele>129.824559</ele>
        <time>2022-12-10T18:14:37.266Z</time>
      </trkpt>
      <trkpt lat="48.19144" lon="-3.79105">
        <ele>130.328085</ele>
        <time>2022-12-10T18:14:42.303Z</time>
      </trkpt>
      <trkpt lat="48.19144" lon="-3.79091">
        <ele>130.810087</ele>
        <time>2022-12-10T18:14:47.331Z</time>
      </trkpt>
      <trkpt lat="48.19144" lon="-3.79077">
        <ele>131.292771</ele>
        <time>2022-12-10T18:14:52.297Z</time>
      </trkpt>
      <trkpt lat="48.19143" lon="-3.79063">
        <ele>131.790142</ele>
        <time>2022-12-10T18:14:57.280Z</time>
      </trkpt>
      <trkpt lat="48.19142" lon="-3.79047">
        <ele>132.31818</ele>
        <time>2022-12-10T18:15:02.282Z</time>
      </trkpt>
      <trkpt lat="48.19142" lon="-3.79033">
        <ele>132.786761</ele>
        <time>2022-12-10T18:15:07.280Z</time>
      </trkpt>
      <trkpt lat="48.19142" lon="-3.7902">
        <ele>133.258536</ele>
        <time>2022-12-10T18:15:12.301Z</time>
      </trkpt>
      <trkpt lat="48.19142" lon="-3.79006">
        <ele>133.730283</ele>
        <time>2022-12-10T18:15:17.294Z</time>
      </trkpt>
      <trkpt lat="48.19142" lon="-3.78992">
        <ele>134.199621</ele>
        <time>2022-12-10T18:15:22.293Z</time>
      </trkpt>
      <trkpt lat="48.19142" lon="-3.78978">
        <ele>134.689427</ele>
        <time>2022-12-10T18:15:27.280Z</time>
      </trkpt>
      <trkpt lat="48.19143" lon="-3.78962">
        <ele>135.24899</ele>
        <time>2022-12-10T18:15:33.300Z</time>
      </trkpt>
      <trkpt lat="48.19144" lon="-3.78947">
        <ele>135.745091</ele>
        <time>2022-12-10T18:15:38.289Z</time>
      </trkpt>
      <trkpt lat="48.19145" lon="-3.78933">
        <ele>136.240012</ele>
        <time>2022-12-10T18:15:43.314Z</time>
      </trkpt>
      <trkpt lat="48.19145" lon="-3.78917">
        <ele>136.766678</ele>
        <time>2022-12-10T18:15:49.292Z</time>
      </trkpt>
      <trkpt lat="48.19146" lon="-3.78903">
        <ele>137.12915</ele>
        <time>2022-12-10T18:15:54.296Z</time>
      </trkpt>
      <trkpt lat="48.19147" lon="-3.78888">
        <ele>137.462729</ele>
        <time>2022-12-10T18:15:59.336Z</time>
      </trkpt>
      <trkpt lat="48.19148" lon="-3.78874">
        <ele>137.7891</ele>
        <time>2022-12-10T18:16:04.287Z</time>
      </trkpt>
      <trkpt lat="48.1915" lon="-3.7886">
        <ele>138.110571</ele>
        <time>2022-12-10T18:16:09.314Z</time>
      </trkpt>
      <trkpt lat="48.19152" lon="-3.78846">
        <ele>138.453072</ele>
        <time>2022-12-10T18:16:14.281Z</time>
      </trkpt>
      <trkpt lat="48.19154" lon="-3.78832">
        <ele>138.779233</ele>
        <time>2022-12-10T18:16:19.297Z</time>
      </trkpt>
      <trkpt lat="48.19156" lon="-3.78818">
        <ele>139.093404</ele>
        <time>2022-12-10T18:16:24.294Z</time>
      </trkpt>
      <trkpt lat="48.19157" lon="-3.78804">
        <ele>139.414345</ele>
        <time>2022-12-10T18:16:29.306Z</time>
      </trkpt>
      <trkpt lat="48.19158" lon="-3.7879">
        <ele>139.746814</ele>
        <time>2022-12-10T18:16:34.283Z</time>
      </trkpt>
      <trkpt lat="48.1916" lon="-3.78775">
        <ele>140.086317</ele>
        <time>2022-12-10T18:16:40.281Z</time>
      </trkpt>
      <trkpt lat="48.19161" lon="-3.78761">
        <ele>140.416211</ele>
        <time>2022-12-10T18:16:45.269Z</time>
      </trkpt>
      <trkpt lat="48.19161" lon="-3.78746">
        <ele>140.747319</ele>
        <time>2022-12-10T18:16:50.281Z</time>
      </trkpt>
      <trkpt lat="48.19164" lon="-3.78732">
        <ele>141.087581</ele>
        <time>2022-12-10T18:16:55.281Z</time>
      </trkpt>
      <trkpt lat="48.19163" lon="-3.78718">
        <ele>141.405216</ele>
        <time>2022-12-10T18:17:01.321Z</time>
      </trkpt>
      <trkpt lat="48.19158" lon="-3.78695">
        <ele>141.971845</ele>
        <time>2022-12-10T18:18:45.270Z</time>
      </trkpt>
      <trkpt lat="48.19155" lon="-3.78681">
        <ele>142.284694</ele>
        <time>2022-12-10T18:18:49.269Z</time>
      </trkpt>
      <trkpt lat="48.19152" lon="-3.78667">
        <ele>142.628017</ele>
        <time>2022-12-10T18:18:54.291Z</time>
      </trkpt>
      <trkpt lat="48.19148" lon="-3.78654">
        <ele>142.967539</ele>
        <time>2022-12-10T18:18:59.310Z</time>
      </trkpt>
      <trkpt lat="48.19143" lon="-3.78641">
        <ele>143.482784</ele>
        <time>2022-12-10T18:19:04.286Z</time>
      </trkpt>
      <trkpt lat="48.19135" lon="-3.7863">
        <ele>144.084432</ele>
        <time>2022-12-10T18:19:10.268Z</time>
      </trkpt>
      <trkpt lat="48.19129" lon="-3.78619">
        <ele>144.596509</ele>
        <time>2022-12-10T18:19:15.274Z</time>
      </trkpt>
      <trkpt lat="48.19124" lon="-3.78607">
        <ele>145.154238</ele>
        <time>2022-12-10T18:19:21.282Z</time>
      </trkpt>
      <trkpt lat="48.19117" lon="-3.78598">
        <ele>145.674804</ele>
        <time>2022-12-10T18:19:27.270Z</time>
      </trkpt>
      <trkpt lat="48.19109" lon="-3.78588">
        <ele>146.236378</ele>
        <time>2022-12-10T18:19:33.276Z</time>
      </trkpt>
      <trkpt lat="48.19101" lon="-3.78578">
        <ele>146.811859</ele>
        <time>2022-12-10T18:19:39.274Z</time>
      </trkpt>
      <trkpt lat="48.19093" lon="-3.78569">
        <ele>147.352673</ele>
        <time>2022-12-10T18:19:45.274Z</time>
      </trkpt>
      <trkpt lat="48.19085" lon="-3.78562">
        <ele>147.911242</ele>
        <time>2022-12-10T18:19:51.291Z</time>
      </trkpt>
      <trkpt lat="48.19077" lon="-3.78552">
        <ele>148.459258</ele>
        <time>2022-12-10T18:19:57.277Z</time>
      </trkpt>
      <trkpt lat="48.19069" lon="-3.78543">
        <ele>149.019991</ele>
        <time>2022-12-10T18:20:03.273Z</time>
      </trkpt>
      <trkpt lat="48.19062" lon="-3.78535">
        <ele>149.543545</ele>
        <time>2022-12-10T18:20:08.275Z</time>
      </trkpt>
      <trkpt lat="48.19052" lon="-3.7853">
        <ele>150.098053</ele>
        <time>2022-12-10T18:20:14.274Z</time>
      </trkpt>
      <trkpt lat="48.19043" lon="-3.78525">
        <ele>150.670887</ele>
        <time>2022-12-10T18:20:20.276Z</time>
      </trkpt>
      <trkpt lat="48.19034" lon="-3.78518">
        <ele>151.227155</ele>
        <time>2022-12-10T18:20:26.269Z</time>
      </trkpt>
      <trkpt lat="48.19025" lon="-3.78511">
        <ele>151.789964</ele>
        <time>2022-12-10T18:20:32.289Z</time>
      </trkpt>
      <trkpt lat="48.19016" lon="-3.78504">
        <ele>152.362834</ele>
        <time>2022-12-10T18:20:38.277Z</time>
      </trkpt>
      <trkpt lat="48.19007" lon="-3.78497">
        <ele>152.920297</ele>
        <time>2022-12-10T18:20:44.281Z</time>
      </trkpt>
      <trkpt lat="48.18999" lon="-3.78487">
        <ele>153.425718</ele>
        <time>2022-12-10T18:20:50.277Z</time>
      </trkpt>
      <trkpt lat="48.18991" lon="-3.78478">
        <ele>153.917632</ele>
        <time>2022-12-10T18:20:57.274Z</time>
      </trkpt>
      <trkpt lat="48.18984" lon="-3.78469">
        <ele>154.368826</ele>
        <time>2022-12-10T18:21:03.295Z</time>
      </trkpt>
      <trkpt lat="48.18977" lon="-3.78457">
        <ele>154.87691</ele>
        <time>2022-12-10T18:21:09.271Z</time>
      </trkpt>
      <trkpt lat="48.18972" lon="-3.78446">
        <ele>155.313023</ele>
        <time>2022-12-10T18:21:15.282Z</time>
      </trkpt>
      <trkpt lat="48.18967" lon="-3.78434">
        <ele>155.763152</ele>
        <time>2022-12-10T18:21:21.274Z</time>
      </trkpt>
      <trkpt lat="48.18963" lon="-3.78419">
        <ele>156.262747</ele>
        <time>2022-12-10T18:21:28.272Z</time>
      </trkpt>
      <trkpt lat="48.18961" lon="-3.78406">
        <ele>156.705203</ele>
        <time>2022-12-10T18:21:34.274Z</time>
      </trkpt>
      <trkpt lat="48.18957" lon="-3.78392">
        <ele>157.176225</ele>
        <time>2022-12-10T18:21:40.286Z</time>
      </trkpt>
      <trkpt lat="48.18955" lon="-3.78379">
        <ele>157.620394</ele>
        <time>2022-12-10T18:21:46.277Z</time>
      </trkpt>
      <trkpt lat="48.18953" lon="-3.78365">
        <ele>158.072997</ele>
        <time>2022-12-10T18:21:52.274Z</time>
      </trkpt>
      <trkpt lat="48.1895" lon="-3.78351">
        <ele>158.565658</ele>
        <time>2022-12-10T18:21:58.278Z</time>
      </trkpt>
      <trkpt lat="48.18945" lon="-3.78337">
        <ele>159.072369</ele>
        <time>2022-12-10T18:22:04.284Z</time>
      </trkpt>
      <trkpt lat="48.18944" lon="-3.78323">
        <ele>159.513985</ele>
        <time>2022-12-10T18:22:10.288Z</time>
      </trkpt>
      <trkpt lat="48.18938" lon="-3.78298">
        <ele>160.370855</ele>
        <time>2022-12-10T18:23:00.289Z</time>
      </trkpt>
      <trkpt lat="48.18936" lon="-3.78285">
        <ele>160.808523</ele>
        <time>2022-12-10T18:23:11.275Z</time>
      </trkpt>
      <trkpt lat="48.18933" lon="-3.78271">
        <ele>161.267722</ele>
        <time>2022-12-10T18:23:23.274Z</time>
      </trkpt>
      <trkpt lat="48.1893" lon="-3.78257">
        <ele>161.726921</ele>
        <time>2022-12-10T18:23:33.277Z</time>
      </trkpt>
      <trkpt lat="48.18927" lon="-3.78244">
        <ele>161.749882</ele>
        <time>2022-12-10T18:23:43.276Z</time>
      </trkpt>
      <trkpt lat="48.18925" lon="-3.78229">
        <ele>161.767568</ele>
        <time>2022-12-10T18:23:55.272Z</time>
      </trkpt>
      <trkpt lat="48.18921" lon="-3.78215">
        <ele>161.7856</ele>
        <time>2022-12-10T18:24:04.287Z</time>
      </trkpt>
      <trkpt lat="48.18921" lon="-3.782">
        <ele>161.802661</ele>
        <time>2022-12-10T18:24:17.285Z</time>
      </trkpt>
      <trkpt lat="48.18918" lon="-3.78187">
        <ele>161.81946</ele>
        <time>2022-12-10T18:24:22.269Z</time>
      </trkpt>
      <trkpt lat="48.18916" lon="-3.78171">
        <ele>161.838775</ele>
        <time>2022-12-10T18:24:26.278Z</time>
      </trkpt>
      <trkpt lat="48.18917" lon="-3.78153">
        <ele>161.859849</ele>
        <time>2022-12-10T18:24:30.294Z</time>
      </trkpt>
      <trkpt lat="48.18916" lon="-3.78136">
        <ele>161.879625</ele>
        <time>2022-12-10T18:24:34.278Z</time>
      </trkpt>
      <trkpt lat="48.18916" lon="-3.7812">
        <ele>161.898586</ele>
        <time>2022-12-10T18:24:38.278Z</time>
      </trkpt>
      <trkpt lat="48.18916" lon="-3.78106">
        <ele>161.915522</ele>
        <time>2022-12-10T18:24:41.284Z</time>
      </trkpt>
      <trkpt lat="48.18914" lon="-3.78091">
        <ele>161.932936</ele>
        <time>2022-12-10T18:24:44.286Z</time>
      </trkpt>
      <trkpt lat="48.18914" lon="-3.78078">
        <ele>161.94939</ele>
        <time>2022-12-10T18:24:47.274Z</time>
      </trkpt>
      <trkpt lat="48.18915" lon="-3.78063">
        <ele>161.966326</ele>
        <time>2022-12-10T18:24:50.279Z</time>
      </trkpt>
      <trkpt lat="48.18913" lon="-3.78049">
        <ele>161.983152</ele>
        <time>2022-12-10T18:24:53.277Z</time>
      </trkpt>
      <trkpt lat="48.18913" lon="-3.78036">
        <ele>161.999299</ele>
        <time>2022-12-10T18:24:56.279Z</time>
      </trkpt>
      <trkpt lat="48.18913" lon="-3.78021">
        <ele>162.017056</ele>
        <time>2022-12-10T18:24:59.283Z</time>
      </trkpt>
      <trkpt lat="48.18915" lon="-3.78007">
        <ele>162.033658</ele>
        <time>2022-12-10T18:25:02.282Z</time>
      </trkpt>
      <trkpt lat="48.18914" lon="-3.77993">
        <ele>162.050159</ele>
        <time>2022-12-10T18:25:05.289Z</time>
      </trkpt>
      <trkpt lat="48.18913" lon="-3.77975">
        <ele>162.187959</ele>
        <time>2022-12-10T18:25:09.281Z</time>
      </trkpt>
      <trkpt lat="48.18912" lon="-3.77958">
        <ele>162.338261</ele>
        <time>2022-12-10T18:25:13.307Z</time>
      </trkpt>
      <trkpt lat="48.18911" lon="-3.77943">
        <ele>162.4635</ele>
        <time>2022-12-10T18:25:16.276Z</time>
      </trkpt>
      <trkpt lat="48.1891" lon="-3.77926">
        <ele>162.611122</ele>
        <time>2022-12-10T18:25:20.281Z</time>
      </trkpt>
      <trkpt lat="48.1891" lon="-3.7791">
        <ele>162.752497</ele>
        <time>2022-12-10T18:25:24.296Z</time>
      </trkpt>
      <trkpt lat="48.1891" lon="-3.77896">
        <ele>162.869973</ele>
        <time>2022-12-10T18:25:27.277Z</time>
      </trkpt>
      <trkpt lat="48.1891" lon="-3.77878">
        <ele>163.024196</ele>
        <time>2022-12-10T18:25:31.310Z</time>
      </trkpt>
      <trkpt lat="48.18909" lon="-3.77864">
        <ele>163.140958</ele>
        <time>2022-12-10T18:25:34.283Z</time>
      </trkpt>
      <trkpt lat="48.18909" lon="-3.77851">
        <ele>163.257642</ele>
        <time>2022-12-10T18:25:37.279Z</time>
      </trkpt>
      <trkpt lat="48.18909" lon="-3.77837">
        <ele>163.378604</ele>
        <time>2022-12-10T18:25:40.279Z</time>
      </trkpt>
      <trkpt lat="48.18907" lon="-3.7782">
        <ele>163.519984</ele>
        <time>2022-12-10T18:25:44.292Z</time>
      </trkpt>
      <trkpt lat="48.18906" lon="-3.77805">
        <ele>163.650112</ele>
        <time>2022-12-10T18:25:48.293Z</time>
      </trkpt>
      <trkpt lat="48.18905" lon="-3.77789">
        <ele>163.791609</ele>
        <time>2022-12-10T18:25:52.275Z</time>
      </trkpt>
      <trkpt lat="48.18904" lon="-3.77774">
        <ele>163.923018</ele>
        <time>2022-12-10T18:25:56.281Z</time>
      </trkpt>
      <trkpt lat="48.18901" lon="-3.77759">
        <ele>164.055709</ele>
        <time>2022-12-10T18:26:00.278Z</time>
      </trkpt>
      <trkpt lat="48.18901" lon="-3.77743">
        <ele>164.189406</ele>
        <time>2022-12-10T18:26:04.282Z</time>
      </trkpt>
      <trkpt lat="48.18899" lon="-3.77728">
        <ele>164.321262</ele>
        <time>2022-12-10T18:26:08.280Z</time>
      </trkpt>
      <trkpt lat="48.18898" lon="-3.77714">
        <ele>164.394734</ele>
        <time>2022-12-10T18:26:12.282Z</time>
      </trkpt>
      <trkpt lat="48.18897" lon="-3.77699">
        <ele>164.443204</ele>
        <time>2022-12-10T18:26:16.275Z</time>
      </trkpt>
      <trkpt lat="48.18896" lon="-3.77685">
        <ele>164.490325</ele>
        <time>2022-12-10T18:26:20.275Z</time>
      </trkpt>
      <trkpt lat="48.18894" lon="-3.77669">
        <ele>164.542807</ele>
        <time>2022-12-10T18:26:24.287Z</time>
      </trkpt>
      <trkpt lat="48.18892" lon="-3.77654">
        <ele>164.595277</ele>
        <time>2022-12-10T18:26:28.280Z</time>
      </trkpt>
      <trkpt lat="48.18892" lon="-3.77639">
        <ele>164.6457</ele>
        <time>2022-12-10T18:26:32.281Z</time>
      </trkpt>
      <trkpt lat="48.18891" lon="-3.77623">
        <ele>164.69774</ele>
        <time>2022-12-10T18:26:36.272Z</time>
      </trkpt>
      <trkpt lat="48.18888" lon="-3.77607">
        <ele>164.751527</ele>
        <time>2022-12-10T18:26:40.281Z</time>
      </trkpt>
      <trkpt lat="48.18887" lon="-3.77591">
        <ele>164.805876</ele>
        <time>2022-12-10T18:26:44.275Z</time>
      </trkpt>
      <trkpt lat="48.18885" lon="-3.77575">
        <ele>164.859704</ele>
        <time>2022-12-10T18:26:48.278Z</time>
      </trkpt>
      <trkpt lat="48.18883" lon="-3.77558">
        <ele>164.918129</ele>
        <time>2022-12-10T18:26:52.280Z</time>
      </trkpt>
      <trkpt lat="48.18882" lon="-3.77545">
        <ele>164.962962</ele>
        <time>2022-12-10T18:26:55.277Z</time>
      </trkpt>
      <trkpt lat="48.18879" lon="-3.77528">
        <ele>165.019094</ele>
        <time>2022-12-10T18:26:59.280Z</time>
      </trkpt>
      <trkpt lat="48.18878" lon="-3.77511">
        <ele>165.077363</ele>
        <time>2022-12-10T18:27:03.282Z</time>
      </trkpt>
      <trkpt lat="48.18875" lon="-3.77493">
        <ele>165.13751</ele>
        <time>2022-12-10T18:27:07.296Z</time>
      </trkpt>
      <trkpt lat="48.18873" lon="-3.77479">
        <ele>165.185143</ele>
        <time>2022-12-10T18:27:10.281Z</time>
      </trkpt>
      <trkpt lat="48.18871" lon="-3.77462">
        <ele>165.240455</ele>
        <time>2022-12-10T18:27:14.283Z</time>
      </trkpt>
      <trkpt lat="48.18869" lon="-3.77448">
        <ele>164.918578</ele>
        <time>2022-12-10T18:27:17.273Z</time>
      </trkpt>
      <trkpt lat="48.18866" lon="-3.77433">
        <ele>164.371297</ele>
        <time>2022-12-10T18:27:20.279Z</time>
      </trkpt>
      <trkpt lat="48.18863" lon="-3.77419">
        <ele>163.846675</ele>
        <time>2022-12-10T18:27:23.293Z</time>
      </trkpt>
      <trkpt lat="48.18861" lon="-3.77403">
        <ele>163.235675</ele>
        <time>2022-12-10T18:27:26.283Z</time>
      </trkpt>
      <trkpt lat="48.18857" lon="-3.77384">
        <ele>162.522284</ele>
        <time>2022-12-10T18:27:29.274Z</time>
      </trkpt>
      <trkpt lat="48.18854" lon="-3.7737">
        <ele>162.004532</ele>
        <time>2022-12-10T18:27:31.281Z</time>
      </trkpt>
      <trkpt lat="48.18852" lon="-3.77354">
        <ele>161.435725</ele>
        <time>2022-12-10T18:27:33.281Z</time>
      </trkpt>
      <trkpt lat="48.18849" lon="-3.7734">
        <ele>160.911221</ele>
        <time>2022-12-10T18:27:35.280Z</time>
      </trkpt>
      <trkpt lat="48.18847" lon="-3.77326">
        <ele>160.366699</ele>
        <time>2022-12-10T18:27:37.293Z</time>
      </trkpt>
      <trkpt lat="48.18844" lon="-3.7731">
        <ele>159.78733</ele>
        <time>2022-12-10T18:27:39.292Z</time>
      </trkpt>
      <trkpt lat="48.18841" lon="-3.77294">
        <ele>159.20802</ele>
        <time>2022-12-10T18:27:41.299Z</time>
      </trkpt>
      <trkpt lat="48.18838" lon="-3.77279">
        <ele>158.606944</ele>
        <time>2022-12-10T18:27:43.285Z</time>
      </trkpt>
      <trkpt lat="48.18834" lon="-3.77262">
        <ele>157.997431</ele>
        <time>2022-12-10T18:27:45.296Z</time>
      </trkpt>
      <trkpt lat="48.1883" lon="-3.77245">
        <ele>157.350463</ele>
        <time>2022-12-10T18:27:47.292Z</time>
      </trkpt>
      <trkpt lat="48.18827" lon="-3.77228">
        <ele>156.710187</ele>
        <time>2022-12-10T18:27:49.282Z</time>
      </trkpt>
      <trkpt lat="48.18824" lon="-3.77212">
        <ele>156.109045</ele>
        <time>2022-12-10T18:27:51.283Z</time>
      </trkpt>
      <trkpt lat="48.1882" lon="-3.77197">
        <ele>155.543414</ele>
        <time>2022-12-10T18:27:53.281Z</time>
      </trkpt>
      <trkpt lat="48.18816" lon="-3.77182">
        <ele>155.198534</ele>
        <time>2022-12-10T18:27:55.283Z</time>
      </trkpt>
      <trkpt lat="48.18812" lon="-3.77168">
        <ele>154.889935</ele>
        <time>2022-12-10T18:27:57.291Z</time>
      </trkpt>
      <trkpt lat="48.18809" lon="-3.77152">
        <ele>154.546684</ele>
        <time>2022-12-10T18:27:59.286Z</time>
      </trkpt>
      <trkpt lat="48.18806" lon="-3.77137">
        <ele>154.206443</ele>
        <time>2022-12-10T18:28:01.284Z</time>
      </trkpt>
      <trkpt lat="48.18802" lon="-3.77123">
        <ele>153.895759</ele>
        <time>2022-12-10T18:28:03.288Z</time>
      </trkpt>
      <trkpt lat="48.18799" lon="-3.77109">
        <ele>153.59508</ele>
        <time>2022-12-10T18:28:05.283Z</time>
      </trkpt>
      <trkpt lat="48.18796" lon="-3.77095">
        <ele>153.289965</ele>
        <time>2022-12-10T18:28:07.296Z</time>
      </trkpt>
      <trkpt lat="48.18791" lon="-3.77082">
        <ele>152.976633</ele>
        <time>2022-12-10T18:28:09.282Z</time>
      </trkpt>
      <trkpt lat="48.18787" lon="-3.77068">
        <ele>152.660951</ele>
        <time>2022-12-10T18:28:11.288Z</time>
      </trkpt>
      <trkpt lat="48.18784" lon="-3.77053">
        <ele>152.334408</ele>
        <time>2022-12-10T18:28:13.282Z</time>
      </trkpt>
      <trkpt lat="48.1878" lon="-3.77039">
        <ele>152.021873</ele>
        <time>2022-12-10T18:28:15.281Z</time>
      </trkpt>
      <trkpt lat="48.18776" lon="-3.77026">
        <ele>151.711923</ele>
        <time>2022-12-10T18:28:17.290Z</time>
      </trkpt>
      <trkpt lat="48.18772" lon="-3.77012">
        <ele>151.392406</ele>
        <time>2022-12-10T18:28:19.294Z</time>
      </trkpt>
      <trkpt lat="48.18768" lon="-3.76997">
        <ele>151.072561</ele>
        <time>2022-12-10T18:28:21.282Z</time>
      </trkpt>
      <trkpt lat="48.18764" lon="-3.76982">
        <ele>150.735152</ele>
        <time>2022-12-10T18:28:23.281Z</time>
      </trkpt>
      <trkpt lat="48.1876" lon="-3.76968">
        <ele>150.40106</ele>
        <time>2022-12-10T18:28:25.279Z</time>
      </trkpt>
      <trkpt lat="48.18755" lon="-3.76953">
        <ele>150.060665</ele>
        <time>2022-12-10T18:28:27.282Z</time>
      </trkpt>
      <trkpt lat="48.18751" lon="-3.76939">
        <ele>149.831228</ele>
        <time>2022-12-10T18:28:29.282Z</time>
      </trkpt>
      <trkpt lat="48.18745" lon="-3.76925">
        <ele>149.643569</ele>
        <time>2022-12-10T18:28:31.282Z</time>
      </trkpt>
      <trkpt lat="48.1874" lon="-3.7691">
        <ele>149.452692</ele>
        <time>2022-12-10T18:28:33.286Z</time>
      </trkpt>
      <trkpt lat="48.18736" lon="-3.76896">
        <ele>149.279526</ele>
        <time>2022-12-10T18:28:35.286Z</time>
      </trkpt>
      <trkpt lat="48.18732" lon="-3.76883">
        <ele>149.104447</ele>
        <time>2022-12-10T18:28:37.296Z</time>
      </trkpt>
      <trkpt lat="48.18727" lon="-3.76869">
        <ele>148.928052</ele>
        <time>2022-12-10T18:28:39.283Z</time>
      </trkpt>
      <trkpt lat="48.18723" lon="-3.76855">
        <ele>148.752696</ele>
        <time>2022-12-10T18:28:41.283Z</time>
      </trkpt>
      <trkpt lat="48.18719" lon="-3.76841">
        <ele>148.577765</ele>
        <time>2022-12-10T18:28:43.295Z</time>
      </trkpt>
      <trkpt lat="48.18714" lon="-3.76827">
        <ele>148.394675</ele>
        <time>2022-12-10T18:28:45.285Z</time>
      </trkpt>
      <trkpt lat="48.1871" lon="-3.76813">
        <ele>148.216926</ele>
        <time>2022-12-10T18:28:47.284Z</time>
      </trkpt>
      <trkpt lat="48.18705" lon="-3.768">
        <ele>148.043542</ele>
        <time>2022-12-10T18:28:49.298Z</time>
      </trkpt>
      <trkpt lat="48.187" lon="-3.76787">
        <ele>147.875033</ele>
        <time>2022-12-10T18:28:51.310Z</time>
      </trkpt>
      <trkpt lat="48.18697" lon="-3.76774">
        <ele>147.711641</ele>
        <time>2022-12-10T18:28:53.300Z</time>
      </trkpt>
      <trkpt lat="48.18692" lon="-3.76761">
        <ele>147.543521</ele>
        <time>2022-12-10T18:28:55.285Z</time>
      </trkpt>
      <trkpt lat="48.18688" lon="-3.76748">
        <ele>147.378238</ele>
        <time>2022-12-10T18:28:57.284Z</time>
      </trkpt>
      <trkpt lat="48.18684" lon="-3.76735">
        <ele>147.213134</ele>
        <time>2022-12-10T18:28:59.301Z</time>
      </trkpt>
      <trkpt lat="48.18681" lon="-3.76722">
        <ele>147.054414</ele>
        <time>2022-12-10T18:29:01.283Z</time>
      </trkpt>
      <trkpt lat="48.18678" lon="-3.76709">
        <ele>146.896867</ele>
        <time>2022-12-10T18:29:03.288Z</time>
      </trkpt>
      <trkpt lat="48.18673" lon="-3.7669">
        <ele>146.461476</ele>
        <time>2022-12-10T18:29:06.288Z</time>
      </trkpt>
      <trkpt lat="48.1867" lon="-3.76677">
        <ele>146.119261</ele>
        <time>2022-12-10T18:29:08.296Z</time>
      </trkpt>
      <trkpt lat="48.18668" lon="-3.76664">
        <ele>145.775888</ele>
        <time>2022-12-10T18:29:10.294Z</time>
      </trkpt>
      <trkpt lat="48.18665" lon="-3.76644">
        <ele>145.274585</ele>
        <time>2022-12-10T18:29:13.281Z</time>
      </trkpt>
      <trkpt lat="48.18662" lon="-3.76625">
        <ele>144.775899</ele>
        <time>2022-12-10T18:29:16.292Z</time>
      </trkpt>
      <trkpt lat="48.18658" lon="-3.76607">
        <ele>144.307441</ele>
        <time>2022-12-10T18:29:19.283Z</time>
      </trkpt>
      <trkpt lat="48.18656" lon="-3.76591">
        <ele>143.905916</ele>
        <time>2022-12-10T18:29:22.281Z</time>
      </trkpt>
      <trkpt lat="48.18654" lon="-3.76574">
        <ele>143.467799</ele>
        <time>2022-12-10T18:29:26.283Z</time>
      </trkpt>
      <trkpt lat="48.1865" lon="-3.76557">
        <ele>143.033555</ele>
        <time>2022-12-10T18:29:30.280Z</time>
      </trkpt>
      <trkpt lat="48.18648" lon="-3.76544">
        <ele>142.696676</ele>
        <time>2022-12-10T18:29:33.291Z</time>
      </trkpt>
      <trkpt lat="48.18645" lon="-3.76531">
        <ele>142.347399</ele>
        <time>2022-12-10T18:29:36.286Z</time>
      </trkpt>
      <trkpt lat="48.18642" lon="-3.76516">
        <ele>141.960353</ele>
        <time>2022-12-10T18:29:39.296Z</time>
      </trkpt>
      <trkpt lat="48.18639" lon="-3.765">
        <ele>141.542603</ele>
        <time>2022-12-10T18:29:42.303Z</time>
      </trkpt>
      <trkpt lat="48.18634" lon="-3.76483">
        <ele>141.101901</ele>
        <time>2022-12-10T18:29:45.301Z</time>
      </trkpt>
      <trkpt lat="48.1863" lon="-3.76467">
        <ele>140.652889</ele>
        <time>2022-12-10T18:29:48.279Z</time>
      </trkpt>
      <trkpt lat="48.18625" lon="-3.76449">
        <ele>140.190472</ele>
        <time>2022-12-10T18:29:51.284Z</time>
      </trkpt>
      <trkpt lat="48.18621" lon="-3.7643">
        <ele>139.59562</ele>
        <time>2022-12-10T18:29:54.281Z</time>
      </trkpt>
      <trkpt lat="48.18617" lon="-3.76418">
        <ele>139.191627</ele>
        <time>2022-12-10T18:29:56.280Z</time>
      </trkpt>
      <trkpt lat="48.18613" lon="-3.76406">
        <ele>138.778665</ele>
        <time>2022-12-10T18:29:58.290Z</time>
      </trkpt>
      <trkpt lat="48.18607" lon="-3.76388">
        <ele>138.181789</ele>
        <time>2022-12-10T18:30:01.288Z</time>
      </trkpt>
      <trkpt lat="48.18601" lon="-3.76371">
        <ele>137.587589</ele>
        <time>2022-12-10T18:30:04.285Z</time>
      </trkpt>
      <trkpt lat="48.18595" lon="-3.76354">
        <ele>137.023486</ele>
        <time>2022-12-10T18:30:07.275Z</time>
      </trkpt>
      <trkpt lat="48.18589" lon="-3.76338">
        <ele>136.462787</ele>
        <time>2022-12-10T18:30:10.301Z</time>
      </trkpt>
      <trkpt lat="48.18583" lon="-3.76322">
        <ele>135.910538</ele>
        <time>2022-12-10T18:30:13.279Z</time>
      </trkpt>
      <trkpt lat="48.18578" lon="-3.76306">
        <ele>135.390961</ele>
        <time>2022-12-10T18:30:16.286Z</time>
      </trkpt>
      <trkpt lat="48.18574" lon="-3.76291">
        <ele>134.901915</ele>
        <time>2022-12-10T18:30:19.271Z</time>
      </trkpt>
      <trkpt lat="48.18568" lon="-3.76277">
        <ele>134.409127</ele>
        <time>2022-12-10T18:30:22.276Z</time>
      </trkpt>
      <trkpt lat="48.18562" lon="-3.76263">
        <ele>133.905042</ele>
        <time>2022-12-10T18:30:25.283Z</time>
      </trkpt>
      <trkpt lat="48.18556" lon="-3.76247">
        <ele>133.366276</ele>
        <time>2022-12-10T18:30:28.293Z</time>
      </trkpt>
      <trkpt lat="48.1855" lon="-3.76231">
        <ele>132.809624</ele>
        <time>2022-12-10T18:30:31.283Z</time>
      </trkpt>
      <trkpt lat="48.18544" lon="-3.76216">
        <ele>132.259023</ele>
        <time>2022-12-10T18:30:34.278Z</time>
      </trkpt>
      <trkpt lat="48.18538" lon="-3.762">
        <ele>131.752688</ele>
        <time>2022-12-10T18:30:37.303Z</time>
      </trkpt>
      <trkpt lat="48.18532" lon="-3.76184">
        <ele>131.250247</ele>
        <time>2022-12-10T18:30:40.286Z</time>
      </trkpt>
      <trkpt lat="48.18526" lon="-3.76167">
        <ele>130.728888</ele>
        <time>2022-12-10T18:30:43.288Z</time>
      </trkpt>
      <trkpt lat="48.1852" lon="-3.76151">
        <ele>130.237072</ele>
        <time>2022-12-10T18:30:46.283Z</time>
      </trkpt>
      <trkpt lat="48.18515" lon="-3.76136">
        <ele>129.761624</ele>
        <time>2022-12-10T18:30:49.300Z</time>
      </trkpt>
      <trkpt lat="48.1851" lon="-3.7612">
        <ele>129.27756</ele>
        <time>2022-12-10T18:30:52.277Z</time>
      </trkpt>
      <trkpt lat="48.18505" lon="-3.76104">
        <ele>128.795087</ele>
        <time>2022-12-10T18:30:55.292Z</time>
      </trkpt>
      <trkpt lat="48.185" lon="-3.76087">
        <ele>128.270105</ele>
        <time>2022-12-10T18:30:58.283Z</time>
      </trkpt>
      <trkpt lat="48.18496" lon="-3.76068">
        <ele>127.742212</ele>
        <time>2022-12-10T18:31:01.276Z</time>
      </trkpt>
      <trkpt lat="48.18492" lon="-3.7605">
        <ele>127.203615</ele>
        <time>2022-12-10T18:31:04.284Z</time>
      </trkpt>
      <trkpt lat="48.18489" lon="-3.76036">
        <ele>126.825285</ele>
        <time>2022-12-10T18:31:06.293Z</time>
      </trkpt>
      <trkpt lat="48.18487" lon="-3.76022">
        <ele>126.43649</ele>
        <time>2022-12-10T18:31:08.289Z</time>
      </trkpt>
      <trkpt lat="48.18486" lon="-3.76009">
        <ele>126.065421</ele>
        <time>2022-12-10T18:31:10.303Z</time>
      </trkpt>
      <trkpt lat="48.18484" lon="-3.75995">
        <ele>125.681134</ele>
        <time>2022-12-10T18:31:12.301Z</time>
      </trkpt>
      <trkpt lat="48.18482" lon="-3.75982">
        <ele>125.292339</ele>
        <time>2022-12-10T18:31:14.294Z</time>
      </trkpt>
      <trkpt lat="48.18479" lon="-3.75963">
        <ele>124.781292</ele>
        <time>2022-12-10T18:31:17.279Z</time>
      </trkpt>
      <trkpt lat="48.18477" lon="-3.75945">
        <ele>124.161552</ele>
        <time>2022-12-10T18:31:20.282Z</time>
      </trkpt>
      <trkpt lat="48.18476" lon="-3.75927">
        <ele>123.489926</ele>
        <time>2022-12-10T18:31:23.281Z</time>
      </trkpt>
      <trkpt lat="48.18474" lon="-3.75908">
        <ele>122.807394</ele>
        <time>2022-12-10T18:31:26.279Z</time>
      </trkpt>
      <trkpt lat="48.18472" lon="-3.75891">
        <ele>122.138832</ele>
        <time>2022-12-10T18:31:29.281Z</time>
      </trkpt>
      <trkpt lat="48.18468" lon="-3.75872">
        <ele>121.436997</ele>
        <time>2022-12-10T18:31:32.287Z</time>
      </trkpt>
      <trkpt lat="48.18464" lon="-3.75855">
        <ele>120.780333</ele>
        <time>2022-12-10T18:31:35.299Z</time>
      </trkpt>
      <trkpt lat="48.18459" lon="-3.7584">
        <ele>120.167888</ele>
        <time>2022-12-10T18:31:38.313Z</time>
      </trkpt>
      <trkpt lat="48.18455" lon="-3.75825">
        <ele>119.56653</ele>
        <time>2022-12-10T18:31:41.283Z</time>
      </trkpt>
      <trkpt lat="48.1845" lon="-3.75811">
        <ele>118.991314</ele>
        <time>2022-12-10T18:31:44.299Z</time>
      </trkpt>
      <trkpt lat="48.18444" lon="-3.75798">
        <ele>118.399961</ele>
        <time>2022-12-10T18:31:47.283Z</time>
      </trkpt>
      <trkpt lat="48.18436" lon="-3.75784">
        <ele>117.724949</ele>
        <time>2022-12-10T18:31:50.286Z</time>
      </trkpt>
      <trkpt lat="48.18429" lon="-3.75768">
        <ele>117.029117</ele>
        <time>2022-12-10T18:31:53.298Z</time>
      </trkpt>
      <trkpt lat="48.1842" lon="-3.75754">
        <ele>116.302847</ele>
        <time>2022-12-10T18:31:56.285Z</time>
      </trkpt>
      <trkpt lat="48.18411" lon="-3.75739">
        <ele>115.576207</ele>
        <time>2022-12-10T18:31:59.277Z</time>
      </trkpt>
      <trkpt lat="48.18401" lon="-3.75726">
        <ele>114.868868</ele>
        <time>2022-12-10T18:32:02.287Z</time>
      </trkpt>
      <trkpt lat="48.18392" lon="-3.75715">
        <ele>114.10818</ele>
        <time>2022-12-10T18:32:05.277Z</time>
      </trkpt>
      <trkpt lat="48.18382" lon="-3.75705">
        <ele>113.350669</ele>
        <time>2022-12-10T18:32:08.299Z</time>
      </trkpt>
      <trkpt lat="48.18373" lon="-3.75696">
        <ele>112.680143</ele>
        <time>2022-12-10T18:32:11.281Z</time>
      </trkpt>
      <trkpt lat="48.18364" lon="-3.75689">
        <ele>112.069491</ele>
        <time>2022-12-10T18:32:14.279Z</time>
      </trkpt>
      <trkpt lat="48.18356" lon="-3.75682">
        <ele>111.45263</ele>
        <time>2022-12-10T18:32:17.285Z</time>
      </trkpt>
      <trkpt lat="48.18347" lon="-3.75676">
        <ele>110.848871</ele>
        <time>2022-12-10T18:32:20.294Z</time>
      </trkpt>
      <trkpt lat="48.18339" lon="-3.7567">
        <ele>110.235767</ele>
        <time>2022-12-10T18:32:23.300Z</time>
      </trkpt>
      <trkpt lat="48.1833" lon="-3.75664">
        <ele>109.626264</ele>
        <time>2022-12-10T18:32:26.296Z</time>
      </trkpt>
      <trkpt lat="48.18321" lon="-3.75657">
        <ele>108.994082</ele>
        <time>2022-12-10T18:32:29.296Z</time>
      </trkpt>
      <trkpt lat="48.18311" lon="-3.75651">
        <ele>108.337241</ele>
        <time>2022-12-10T18:32:32.290Z</time>
      </trkpt>
      <trkpt lat="48.18302" lon="-3.75645">
        <ele>107.692156</ele>
        <time>2022-12-10T18:32:35.281Z</time>
      </trkpt>
      <trkpt lat="48.18293" lon="-3.75638">
        <ele>107.039189</ele>
        <time>2022-12-10T18:32:38.284Z</time>
      </trkpt>
      <trkpt lat="48.18284" lon="-3.75632">
        <ele>106.422184</ele>
        <time>2022-12-10T18:32:41.282Z</time>
      </trkpt>
      <trkpt lat="48.18274" lon="-3.75624">
        <ele>105.682317</ele>
        <time>2022-12-10T18:32:45.285Z</time>
      </trkpt>
      <trkpt lat="48.18266" lon="-3.75616">
        <ele>105.069113</ele>
        <time>2022-12-10T18:32:48.290Z</time>
      </trkpt>
      <trkpt lat="48.18256" lon="-3.75607">
        <ele>104.372007</ele>
        <time>2022-12-10T18:32:51.290Z</time>
      </trkpt>
      <trkpt lat="48.18245" lon="-3.75596">
        <ele>103.533753</ele>
        <time>2022-12-10T18:32:54.279Z</time>
      </trkpt>
      <trkpt lat="48.18233" lon="-3.75586">
        <ele>103.112188</ele>
        <time>2022-12-10T18:32:57.292Z</time>
      </trkpt>
      <trkpt lat="48.18225" lon="-3.75577">
        <ele>102.907022</ele>
        <time>2022-12-10T18:32:59.285Z</time>
      </trkpt>
      <trkpt lat="48.18217" lon="-3.75569">
        <ele>102.720508</ele>
        <time>2022-12-10T18:33:01.282Z</time>
      </trkpt>
      <trkpt lat="48.18209" lon="-3.75559">
        <ele>102.51599</ele>
        <time>2022-12-10T18:33:03.298Z</time>
      </trkpt>
      <trkpt lat="48.182" lon="-3.75549">
        <ele>102.299659</ele>
        <time>2022-12-10T18:33:05.284Z</time>
      </trkpt>
      <trkpt lat="48.18192" lon="-3.7554">
        <ele>102.088066</ele>
        <time>2022-12-10T18:33:07.283Z</time>
      </trkpt>
      <trkpt lat="48.18182" lon="-3.75532">
        <ele>101.869101</ele>
        <time>2022-12-10T18:33:09.285Z</time>
      </trkpt>
      <trkpt lat="48.18174" lon="-3.75522">
        <ele>101.659193</ele>
        <time>2022-12-10T18:33:11.290Z</time>
      </trkpt>
      <trkpt lat="48.18165" lon="-3.75513">
        <ele>101.4476</ele>
        <time>2022-12-10T18:33:13.301Z</time>
      </trkpt>
      <trkpt lat="48.18157" lon="-3.75503">
        <ele>101.233657</ele>
        <time>2022-12-10T18:33:15.290Z</time>
      </trkpt>
      <trkpt lat="48.18148" lon="-3.75494">
        <ele>101.028369</ele>
        <time>2022-12-10T18:33:17.313Z</time>
      </trkpt>
      <trkpt lat="48.18137" lon="-3.75484">
        <ele>100.765953</ele>
        <time>2022-12-10T18:33:20.303Z</time>
      </trkpt>
      <trkpt lat="48.18129" lon="-3.75476">
        <ele>100.582242</ele>
        <time>2022-12-10T18:33:24.282Z</time>
      </trkpt>
      <trkpt lat="48.18121" lon="-3.75467">
        <ele>100.377156</ele>
        <time>2022-12-10T18:33:30.279Z</time>
      </trkpt>
      <trkpt lat="48.18114" lon="-3.75458">
        <ele>100.195095</ele>
        <time>2022-12-10T18:33:35.275Z</time>
      </trkpt>
      <trkpt lat="48.18105" lon="-3.7545">
        <ele>99.984329</ele>
        <time>2022-12-10T18:33:41.294Z</time>
      </trkpt>
      <trkpt lat="48.18097" lon="-3.75442">
        <ele>99.787242</ele>
        <time>2022-12-10T18:33:46.283Z</time>
      </trkpt>
      <trkpt lat="48.18088" lon="-3.75435">
        <ele>100.073279</ele>
        <time>2022-12-10T18:33:51.277Z</time>
      </trkpt>
      <trkpt lat="48.1808" lon="-3.75427">
        <ele>100.482905</ele>
        <time>2022-12-10T18:33:56.284Z</time>
      </trkpt>
      <trkpt lat="48.18071" lon="-3.75418">
        <ele>100.938537</ele>
        <time>2022-12-10T18:34:01.279Z</time>
      </trkpt>
      <trkpt lat="48.18063" lon="-3.7541">
        <ele>101.35072</ele>
        <time>2022-12-10T18:34:06.283Z</time>
      </trkpt>
      <trkpt lat="48.18055" lon="-3.75401">
        <ele>101.781072</ele>
        <time>2022-12-10T18:34:11.275Z</time>
      </trkpt>
      <trkpt lat="48.18048" lon="-3.75391">
        <ele>102.181426</ele>
        <time>2022-12-10T18:34:16.275Z</time>
      </trkpt>
      <trkpt lat="48.1804" lon="-3.75381">
        <ele>102.620936</ele>
        <time>2022-12-10T18:34:22.288Z</time>
      </trkpt>
      <trkpt lat="48.18033" lon="-3.75369">
        <ele>103.056364</ele>
        <time>2022-12-10T18:34:28.277Z</time>
      </trkpt>
      <trkpt lat="48.1803" lon="-3.75355">
        <ele>103.493162</ele>
        <time>2022-12-10T18:34:34.273Z</time>
      </trkpt>
      <trkpt lat="48.18027" lon="-3.7534">
        <ele>103.925897</ele>
        <time>2022-12-10T18:34:40.288Z</time>
      </trkpt>
      <trkpt lat="48.18025" lon="-3.75327">
        <ele>104.310005</ele>
        <time>2022-12-10T18:34:46.271Z</time>
      </trkpt>
      <trkpt lat="48.18025" lon="-3.75313">
        <ele>104.691494</ele>
        <time>2022-12-10T18:35:14.304Z</time>
      </trkpt>
      <trkpt lat="48.18027" lon="-3.75299">
        <ele>105.094794</ele>
        <time>2022-12-10T18:36:19.311Z</time>
      </trkpt>
      <trkpt lat="48.18028" lon="-3.75284">
        <ele>105.543979</ele>
        <time>2022-12-10T18:36:25.288Z</time>
      </trkpt>
      <trkpt lat="48.18031" lon="-3.75269">
        <ele>105.986077</ele>
        <time>2022-12-10T18:36:31.287Z</time>
      </trkpt>
      <trkpt lat="48.18033" lon="-3.75253">
        <ele>106.425302</ele>
        <time>2022-12-10T18:36:37.304Z</time>
      </trkpt>
      <trkpt lat="48.18036" lon="-3.75239">
        <ele>106.835573</ele>
        <time>2022-12-10T18:36:43.302Z</time>
      </trkpt>
      <trkpt lat="48.18039" lon="-3.75227">
        <ele>107.221488</ele>
        <time>2022-12-10T18:36:49.309Z</time>
      </trkpt>
      <trkpt lat="48.1804" lon="-3.75213">
        <ele>107.782516</ele>
        <time>2022-12-10T18:36:57.288Z</time>
      </trkpt>
      <trkpt lat="48.18043" lon="-3.75198">
        <ele>108.539244</ele>
        <time>2022-12-10T18:37:33.315Z</time>
      </trkpt>
      <trkpt lat="48.18045" lon="-3.75184">
        <ele>109.216632</ele>
        <time>2022-12-10T18:37:43.301Z</time>
      </trkpt>
      <trkpt lat="48.18046" lon="-3.7517">
        <ele>109.923669</ele>
        <time>2022-12-10T18:37:53.286Z</time>
      </trkpt>
      <trkpt lat="48.18048" lon="-3.75155">
        <ele>110.633256</ele>
        <time>2022-12-10T18:38:03.318Z</time>
      </trkpt>
      <trkpt lat="48.18049" lon="-3.7514">
        <ele>111.343402</ele>
        <time>2022-12-10T18:38:13.296Z</time>
      </trkpt>
      <trkpt lat="48.1805" lon="-3.75126">
        <ele>112.062399</ele>
        <time>2022-12-10T18:38:23.326Z</time>
      </trkpt>
      <trkpt lat="48.18052" lon="-3.75111">
        <ele>112.771934</ele>
        <time>2022-12-10T18:38:33.342Z</time>
      </trkpt>
      <trkpt lat="48.18053" lon="-3.75096">
        <ele>113.476662</ele>
        <time>2022-12-10T18:38:42.301Z</time>
      </trkpt>
      <trkpt lat="48.18054" lon="-3.75083">
        <ele>114.139663</ele>
        <time>2022-12-10T18:38:51.296Z</time>
      </trkpt>
      <trkpt lat="48.18055" lon="-3.75068">
        <ele>114.83424</ele>
        <time>2022-12-10T18:39:01.362Z</time>
      </trkpt>
      <trkpt lat="48.18056" lon="-3.75054">
        <ele>115.53551</ele>
        <time>2022-12-10T18:39:10.313Z</time>
      </trkpt>
      <trkpt lat="48.18056" lon="-3.7504">
        <ele>116.186394</ele>
        <time>2022-12-10T18:39:19.296Z</time>
      </trkpt>
      <trkpt lat="48.18059" lon="-3.75027">
        <ele>116.875722</ele>
        <time>2022-12-10T18:39:29.354Z</time>
      </trkpt>
      <trkpt lat="48.1806" lon="-3.75013">
        <ele>117.546311</ele>
        <time>2022-12-10T18:39:38.302Z</time>
      </trkpt>
      <trkpt lat="48.18062" lon="-3.74998">
        <ele>118.265916</ele>
        <time>2022-12-10T18:39:48.305Z</time>
      </trkpt>
      <trkpt lat="48.18065" lon="-3.74985">
        <ele>118.947346</ele>
        <time>2022-12-10T18:39:57.320Z</time>
      </trkpt>
      <trkpt lat="48.18068" lon="-3.74972">
        <ele>119.602244</ele>
        <time>2022-12-10T18:40:06.298Z</time>
      </trkpt>
      <trkpt lat="48.18072" lon="-3.74958">
        <ele>120.320799</ele>
        <time>2022-12-10T18:40:15.287Z</time>
      </trkpt>
      <trkpt lat="48.18075" lon="-3.74945">
        <ele>120.705404</ele>
        <time>2022-12-10T18:40:24.304Z</time>
      </trkpt>
      <trkpt lat="48.18079" lon="-3.74931">
        <ele>121.110324</ele>
        <time>2022-12-10T18:40:33.301Z</time>
      </trkpt>
      <trkpt lat="48.18082" lon="-3.74918">
        <ele>121.468483</ele>
        <time>2022-12-10T18:40:41.296Z</time>
      </trkpt>
      <trkpt lat="48.18085" lon="-3.74903">
        <ele>121.859012</ele>
        <time>2022-12-10T18:40:50.292Z</time>
      </trkpt>
      <trkpt lat="48.18087" lon="-3.7489">
        <ele>122.221441</ele>
        <time>2022-12-10T18:40:58.298Z</time>
      </trkpt>
      <trkpt lat="48.1809" lon="-3.74876">
        <ele>122.599531</ele>
        <time>2022-12-10T18:41:06.318Z</time>
      </trkpt>
      <trkpt lat="48.18093" lon="-3.74862">
        <ele>123.001392</ele>
        <time>2022-12-10T18:41:14.315Z</time>
      </trkpt>
      <trkpt lat="48.18095" lon="-3.74847">
        <ele>123.390096</ele>
        <time>2022-12-10T18:41:22.301Z</time>
      </trkpt>
      <trkpt lat="48.18096" lon="-3.74833">
        <ele>123.778051</ele>
        <time>2022-12-10T18:41:30.309Z</time>
      </trkpt>
      <trkpt lat="48.18097" lon="-3.74819">
        <ele>124.149692</ele>
        <time>2022-12-10T18:41:37.296Z</time>
      </trkpt>
      <trkpt lat="48.18099" lon="-3.74795">
        <ele>124.782269</ele>
        <time>2022-12-10T18:42:08.315Z</time>
      </trkpt>
      <trkpt lat="48.18099" lon="-3.74781">
        <ele>125.155869</ele>
        <time>2022-12-10T18:42:12.286Z</time>
      </trkpt>
      <trkpt lat="48.181" lon="-3.74766">
        <ele>125.531898</ele>
        <time>2022-12-10T18:42:16.292Z</time>
      </trkpt>
      <trkpt lat="48.18098" lon="-3.74752">
        <ele>125.912672</ele>
        <time>2022-12-10T18:42:20.313Z</time>
      </trkpt>
      <trkpt lat="48.18097" lon="-3.74738">
        <ele>126.292852</ele>
        <time>2022-12-10T18:42:24.305Z</time>
      </trkpt>
      <trkpt lat="48.18097" lon="-3.74724">
        <ele>126.650587</ele>
        <time>2022-12-10T18:42:28.311Z</time>
      </trkpt>
      <trkpt lat="48.18097" lon="-3.7471">
        <ele>127.024438</ele>
        <time>2022-12-10T18:42:33.299Z</time>
      </trkpt>
      <trkpt lat="48.18096" lon="-3.74696">
        <ele>127.397417</ele>
        <time>2022-12-10T18:42:38.296Z</time>
      </trkpt>
      <trkpt lat="48.18094" lon="-3.74682">
        <ele>127.676891</ele>
        <time>2022-12-10T18:42:43.301Z</time>
      </trkpt>
      <trkpt lat="48.18092" lon="-3.74666">
        <ele>127.961685</ele>
        <time>2022-12-10T18:42:48.294Z</time>
      </trkpt>
      <trkpt lat="48.18091" lon="-3.74652">
        <ele>128.228819</ele>
        <time>2022-12-10T18:42:53.334Z</time>
      </trkpt>
      <trkpt lat="48.1809" lon="-3.74637">
        <ele>128.517192</ele>
        <time>2022-12-10T18:42:59.345Z</time>
      </trkpt>
      <trkpt lat="48.18089" lon="-3.74622">
        <ele>128.792642</ele>
        <time>2022-12-10T18:43:05.313Z</time>
      </trkpt>
      <trkpt lat="48.1809" lon="-3.74608">
        <ele>129.047537</ele>
        <time>2022-12-10T18:43:17.318Z</time>
      </trkpt>
      <trkpt lat="48.18092" lon="-3.74593">
        <ele>129.332877</ele>
        <time>2022-12-10T18:43:55.302Z</time>
      </trkpt>
      <trkpt lat="48.18094" lon="-3.74579">
        <ele>129.593625</ele>
        <time>2022-12-10T18:44:03.302Z</time>
      </trkpt>
      <trkpt lat="48.18097" lon="-3.74565">
        <ele>129.861402</ele>
        <time>2022-12-10T18:44:11.299Z</time>
      </trkpt>
      <trkpt lat="48.181" lon="-3.74552">
        <ele>130.118885</ele>
        <time>2022-12-10T18:44:19.307Z</time>
      </trkpt>
      <trkpt lat="48.18105" lon="-3.74539">
        <ele>130.393298</ele>
        <time>2022-12-10T18:44:28.308Z</time>
      </trkpt>
      <trkpt lat="48.18109" lon="-3.74527">
        <ele>130.664134</ele>
        <time>2022-12-10T18:44:37.315Z</time>
      </trkpt>
      <trkpt lat="48.18114" lon="-3.74511">
        <ele>130.986493</ele>
        <time>2022-12-10T18:47:00.292Z</time>
      </trkpt>
      <trkpt lat="48.18118" lon="-3.74497">
        <ele>131.26212</ele>
        <time>2022-12-10T18:47:09.280Z</time>
      </trkpt>
      <trkpt lat="48.18121" lon="-3.74484">
        <ele>131.52853</ele>
        <time>2022-12-10T18:47:17.290Z</time>
      </trkpt>
      <trkpt lat="48.18125" lon="-3.74471">
        <ele>131.785999</ele>
        <time>2022-12-10T18:47:25.287Z</time>
      </trkpt>
      <trkpt lat="48.18129" lon="-3.74458">
        <ele>132.04007</ele>
        <time>2022-12-10T18:47:33.282Z</time>
      </trkpt>
      <trkpt lat="48.18133" lon="-3.74445">
        <ele>132.315017</ele>
        <time>2022-12-10T18:47:41.280Z</time>
      </trkpt>
      <trkpt lat="48.18138" lon="-3.74432">
        <ele>132.649675</ele>
        <time>2022-12-10T18:47:50.285Z</time>
      </trkpt>
      <trkpt lat="48.18144" lon="-3.7442">
        <ele>133.043014</ele>
        <time>2022-12-10T18:47:59.288Z</time>
      </trkpt>
      <trkpt lat="48.18148" lon="-3.74408">
        <ele>133.40452</ele>
        <time>2022-12-10T18:48:07.288Z</time>
      </trkpt>
      <trkpt lat="48.18153" lon="-3.74394">
        <ele>133.793225</ele>
        <time>2022-12-10T18:48:15.282Z</time>
      </trkpt>
      <trkpt lat="48.18158" lon="-3.74381">
        <ele>134.180109</ele>
        <time>2022-12-10T18:48:23.284Z</time>
      </trkpt>
      <trkpt lat="48.18163" lon="-3.74369">
        <ele>134.556163</ele>
        <time>2022-12-10T18:48:31.281Z</time>
      </trkpt>
      <trkpt lat="48.18168" lon="-3.74358">
        <ele>134.921404</ele>
        <time>2022-12-10T18:48:39.282Z</time>
      </trkpt>
      <trkpt lat="48.18174" lon="-3.74346">
        <ele>135.278319</ele>
        <time>2022-12-10T18:48:47.289Z</time>
      </trkpt>
      <trkpt lat="48.18179" lon="-3.74334">
        <ele>135.671909</ele>
        <time>2022-12-10T18:48:55.285Z</time>
      </trkpt>
      <trkpt lat="48.18184" lon="-3.74321">
        <ele>136.050354</ele>
        <time>2022-12-10T18:49:03.291Z</time>
      </trkpt>
      <trkpt lat="48.18189" lon="-3.74308">
        <ele>136.443802</ele>
        <time>2022-12-10T18:49:11.299Z</time>
      </trkpt>
      <trkpt lat="48.18194" lon="-3.74297">
        <ele>136.804895</ele>
        <time>2022-12-10T18:49:19.277Z</time>
      </trkpt>
      <trkpt lat="48.18199" lon="-3.74284">
        <ele>137.179088</ele>
        <time>2022-12-10T18:49:27.293Z</time>
      </trkpt>
      <trkpt lat="48.1821" lon="-3.7426">
        <ele>137.939983</ele>
        <time>2022-12-10T18:50:34.284Z</time>
      </trkpt>
      <trkpt lat="48.18216" lon="-3.74248">
        <ele>138.308346</ele>
        <time>2022-12-10T18:50:39.293Z</time>
      </trkpt>
      <trkpt lat="48.18221" lon="-3.74234">
        <ele>138.725017</ele>
        <time>2022-12-10T18:50:44.293Z</time>
      </trkpt>
      <trkpt lat="48.18225" lon="-3.74221">
        <ele>139.104007</ele>
        <time>2022-12-10T18:50:48.287Z</time>
      </trkpt>
      <trkpt lat="48.18229" lon="-3.74208">
        <ele>139.461999</ele>
        <time>2022-12-10T18:50:52.289Z</time>
      </trkpt>
      <trkpt lat="48.18234" lon="-3.74194">
        <ele>139.636052</ele>
        <time>2022-12-10T18:50:56.295Z</time>
      </trkpt>
      <trkpt lat="48.18239" lon="-3.74181">
        <ele>139.803999</ele>
        <time>2022-12-10T18:51:00.280Z</time>
      </trkpt>
      <trkpt lat="48.18244" lon="-3.7417">
        <ele>139.958412</ele>
        <time>2022-12-10T18:51:04.282Z</time>
      </trkpt>
      <trkpt lat="48.18249" lon="-3.74157">
        <ele>140.118375</ele>
        <time>2022-12-10T18:51:08.286Z</time>
      </trkpt>
      <trkpt lat="48.18254" lon="-3.74145">
        <ele>140.272871</ele>
        <time>2022-12-10T18:51:12.289Z</time>
      </trkpt>
      <trkpt lat="48.18258" lon="-3.74133">
        <ele>140.429817</ele>
        <time>2022-12-10T18:51:16.293Z</time>
      </trkpt>
      <trkpt lat="48.18261" lon="-3.74119">
        <ele>140.59425</ele>
        <time>2022-12-10T18:51:20.287Z</time>
      </trkpt>
      <trkpt lat="48.18266" lon="-3.74106">
        <ele>140.763536</ele>
        <time>2022-12-10T18:51:24.295Z</time>
      </trkpt>
      <trkpt lat="48.18271" lon="-3.74092">
        <ele>140.935292</ele>
        <time>2022-12-10T18:51:28.318Z</time>
      </trkpt>
      <trkpt lat="48.18276" lon="-3.7408">
        <ele>141.10226</ele>
        <time>2022-12-10T18:51:32.291Z</time>
      </trkpt>
      <trkpt lat="48.1828" lon="-3.74067">
        <ele>141.265464</ele>
        <time>2022-12-10T18:51:36.305Z</time>
      </trkpt>
      <trkpt lat="48.18284" lon="-3.74054">
        <ele>141.424237</ele>
        <time>2022-12-10T18:51:40.283Z</time>
      </trkpt>
      <trkpt lat="48.18289" lon="-3.7404">
        <ele>141.5983</ele>
        <time>2022-12-10T18:51:44.283Z</time>
      </trkpt>
      <trkpt lat="48.18294" lon="-3.74028">
        <ele>141.762344</ele>
        <time>2022-12-10T18:51:48.292Z</time>
      </trkpt>
      <trkpt lat="48.18298" lon="-3.74015">
        <ele>141.925302</ele>
        <time>2022-12-10T18:51:52.287Z</time>
      </trkpt>
      <trkpt lat="48.18303" lon="-3.74003">
        <ele>142.084515</ele>
        <time>2022-12-10T18:51:56.296Z</time>
      </trkpt>
      <trkpt lat="48.18308" lon="-3.7399">
        <ele>142.250029</ele>
        <time>2022-12-10T18:52:00.294Z</time>
      </trkpt>
      <trkpt lat="48.18311" lon="-3.73975">
        <ele>142.422535</ele>
        <time>2022-12-10T18:52:05.286Z</time>
      </trkpt>
      <trkpt lat="48.18316" lon="-3.73963">
        <ele>142.701543</ele>
        <time>2022-12-10T18:52:10.285Z</time>
      </trkpt>
      <trkpt lat="48.18322" lon="-3.73951">
        <ele>143.043512</ele>
        <time>2022-12-10T18:52:15.289Z</time>
      </trkpt>
      <trkpt lat="48.18326" lon="-3.73938">
        <ele>143.380481</ele>
        <time>2022-12-10T18:52:20.284Z</time>
      </trkpt>
      <trkpt lat="48.18332" lon="-3.73925">
        <ele>143.734737</ele>
        <time>2022-12-10T18:52:25.287Z</time>
      </trkpt>
      <trkpt lat="48.18336" lon="-3.73912">
        <ele>144.074982</ele>
        <time>2022-12-10T18:52:30.304Z</time>
      </trkpt>
      <trkpt lat="48.1834" lon="-3.73899">
        <ele>144.405728</ele>
        <time>2022-12-10T18:52:35.295Z</time>
      </trkpt>
      <trkpt lat="48.18344" lon="-3.73885">
        <ele>144.775657</ele>
        <time>2022-12-10T18:52:42.282Z</time>
      </trkpt>
      <trkpt lat="48.18349" lon="-3.73871">
        <ele>145.132951</ele>
        <time>2022-12-10T18:52:48.293Z</time>
      </trkpt>
      <trkpt lat="48.18354" lon="-3.73857">
        <ele>145.495271</ele>
        <time>2022-12-10T18:52:54.298Z</time>
      </trkpt>
      <trkpt lat="48.18357" lon="-3.73845">
        <ele>145.809317</ele>
        <time>2022-12-10T18:52:59.294Z</time>
      </trkpt>
      <trkpt lat="48.18363" lon="-3.73831">
        <ele>146.1818</ele>
        <time>2022-12-10T18:53:05.296Z</time>
      </trkpt>
      <trkpt lat="48.18368" lon="-3.73817">
        <ele>146.550885</ele>
        <time>2022-12-10T18:53:11.287Z</time>
      </trkpt>
      <trkpt lat="48.18374" lon="-3.73804">
        <ele>146.916384</ele>
        <time>2022-12-10T18:53:17.287Z</time>
      </trkpt>
      <trkpt lat="48.18381" lon="-3.73792">
        <ele>147.286619</ele>
        <time>2022-12-10T18:53:23.285Z</time>
      </trkpt>
      <trkpt lat="48.18389" lon="-3.73781">
        <ele>147.656962</ele>
        <time>2022-12-10T18:53:29.287Z</time>
      </trkpt>
      <trkpt lat="48.18396" lon="-3.73773">
        <ele>147.974642</ele>
        <time>2022-12-10T18:53:34.288Z</time>
      </trkpt>
      <trkpt lat="48.18405" lon="-3.73763">
        <ele>148.348139</ele>
        <time>2022-12-10T18:53:40.282Z</time>
      </trkpt>
      <trkpt lat="48.18413" lon="-3.73755">
        <ele>148.699951</ele>
        <time>2022-12-10T18:53:45.287Z</time>
      </trkpt>
      <trkpt lat="48.18423" lon="-3.73749">
        <ele>148.947681</ele>
        <time>2022-12-10T18:53:50.282Z</time>
      </trkpt>
      <trkpt lat="48.18432" lon="-3.7374">
        <ele>149.18591</ele>
        <time>2022-12-10T18:53:55.296Z</time>
      </trkpt>
      <trkpt lat="48.18441" lon="-3.73733">
        <ele>149.432195</ele>
        <time>2022-12-10T18:54:00.290Z</time>
      </trkpt>
      <trkpt lat="48.18449" lon="-3.73725">
        <ele>149.646822</ele>
        <time>2022-12-10T18:54:04.304Z</time>
      </trkpt>
      <trkpt lat="48.18459" lon="-3.73716">
        <ele>149.894361</ele>
        <time>2022-12-10T18:54:09.289Z</time>
      </trkpt>
      <trkpt lat="48.18467" lon="-3.73709">
        <ele>150.115203</ele>
        <time>2022-12-10T18:54:13.290Z</time>
      </trkpt>
      <trkpt lat="48.18475" lon="-3.73701">
        <ele>150.332154</ele>
        <time>2022-12-10T18:54:17.298Z</time>
      </trkpt>
      <trkpt lat="48.18484" lon="-3.73693">
        <ele>150.56461</ele>
        <time>2022-12-10T18:54:22.299Z</time>
      </trkpt>
      <trkpt lat="48.18492" lon="-3.73686">
        <ele>150.770422</ele>
        <time>2022-12-10T18:54:26.284Z</time>
      </trkpt>
      <trkpt lat="48.185" lon="-3.73677">
        <ele>150.999878</ele>
        <time>2022-12-10T18:54:30.297Z</time>
      </trkpt>
      <trkpt lat="48.18508" lon="-3.73668">
        <ele>151.225212</ele>
        <time>2022-12-10T18:54:34.296Z</time>
      </trkpt>
      <trkpt lat="48.18517" lon="-3.73659">
        <ele>151.46889</ele>
        <time>2022-12-10T18:54:39.291Z</time>
      </trkpt>
      <trkpt lat="48.18525" lon="-3.73652">
        <ele>151.684752</ele>
        <time>2022-12-10T18:54:43.298Z</time>
      </trkpt>
      <trkpt lat="48.18534" lon="-3.73644">
        <ele>151.912899</ele>
        <time>2022-12-10T18:54:47.290Z</time>
      </trkpt>
      <trkpt lat="48.18542" lon="-3.73635">
        <ele>152.141117</ele>
        <time>2022-12-10T18:54:51.291Z</time>
      </trkpt>
      <trkpt lat="48.1855" lon="-3.73627">
        <ele>152.360523</ele>
        <time>2022-12-10T18:54:55.299Z</time>
      </trkpt>
      <trkpt lat="48.18558" lon="-3.73618">
        <ele>152.591363</ele>
        <time>2022-12-10T18:54:59.287Z</time>
      </trkpt>
      <trkpt lat="48.18566" lon="-3.73607">
        <ele>152.814224</ele>
        <time>2022-12-10T18:55:03.289Z</time>
      </trkpt>
      <trkpt lat="48.18573" lon="-3.73595">
        <ele>152.906331</ele>
        <time>2022-12-10T18:55:07.312Z</time>
      </trkpt>
      <trkpt lat="48.1858" lon="-3.73584">
        <ele>152.995334</ele>
        <time>2022-12-10T18:55:11.304Z</time>
      </trkpt>
      <trkpt lat="48.18587" lon="-3.73574">
        <ele>153.082101</ele>
        <time>2022-12-10T18:55:15.289Z</time>
      </trkpt>
      <trkpt lat="48.18594" lon="-3.7356">
        <ele>153.181304</ele>
        <time>2022-12-10T18:55:20.289Z</time>
      </trkpt>
      <trkpt lat="48.186" lon="-3.73549">
        <ele>153.264745</ele>
        <time>2022-12-10T18:55:24.286Z</time>
      </trkpt>
      <trkpt lat="48.18606" lon="-3.73539">
        <ele>153.34311</ele>
        <time>2022-12-10T18:55:39.290Z</time>
      </trkpt>
      <trkpt lat="48.18616" lon="-3.73533">
        <ele>153.430861</ele>
        <time>2022-12-10T18:55:48.284Z</time>
      </trkpt>
      <trkpt lat="48.18623" lon="-3.7352">
        <ele>153.529151</ele>
        <time>2022-12-10T18:55:53.291Z</time>
      </trkpt>
      <trkpt lat="48.18628" lon="-3.73508">
        <ele>153.609297</ele>
        <time>2022-12-10T18:55:57.310Z</time>
      </trkpt>
      <trkpt lat="48.18633" lon="-3.73496">
        <ele>153.695784</ele>
        <time>2022-12-10T18:56:01.298Z</time>
      </trkpt>
      <trkpt lat="48.18639" lon="-3.73485">
        <ele>153.779578</ele>
        <time>2022-12-10T18:56:05.316Z</time>
      </trkpt>
      <trkpt lat="48.18645" lon="-3.73473">
        <ele>153.863093</ele>
        <time>2022-12-10T18:56:09.291Z</time>
      </trkpt>
      <trkpt lat="48.18652" lon="-3.73458">
        <ele>153.96895</ele>
        <time>2022-12-10T18:56:13.314Z</time>
      </trkpt>
      <trkpt lat="48.18658" lon="-3.73446">
        <ele>154.058805</ele>
        <time>2022-12-10T18:56:16.327Z</time>
      </trkpt>
      <trkpt lat="48.18666" lon="-3.73433">
        <ele>154.158732</ele>
        <time>2022-12-10T18:56:19.321Z</time>
      </trkpt>
      <trkpt lat="48.1867" lon="-3.73421">
        <ele>154.238522</ele>
        <time>2022-12-10T18:56:22.297Z</time>
      </trkpt>
      <trkpt lat="48.18677" lon="-3.7341">
        <ele>154.32003</ele>
        <time>2022-12-10T18:56:25.301Z</time>
      </trkpt>
      <trkpt lat="48.18683" lon="-3.734">
        <ele>154.224387</ele>
        <time>2022-12-10T18:56:28.327Z</time>
      </trkpt>
      <trkpt lat="48.18692" lon="-3.73389">
        <ele>153.828684</ele>
        <time>2022-12-10T18:56:31.322Z</time>
      </trkpt>
      <trkpt lat="48.18703" lon="-3.73378">
        <ele>153.392161</ele>
        <time>2022-12-10T18:56:34.283Z</time>
      </trkpt>
      <trkpt lat="48.18713" lon="-3.73367">
        <ele>152.94254</ele>
        <time>2022-12-10T18:56:37.317Z</time>
      </trkpt>
      <trkpt lat="48.18724" lon="-3.73356">
        <ele>152.49351</ele>
        <time>2022-12-10T18:56:40.291Z</time>
      </trkpt>
      <trkpt lat="48.18735" lon="-3.73347">
        <ele>152.054309</ele>
        <time>2022-12-10T18:56:43.307Z</time>
      </trkpt>
      <trkpt lat="48.18746" lon="-3.73338">
        <ele>151.620407</ele>
        <time>2022-12-10T18:56:46.319Z</time>
      </trkpt>
      <trkpt lat="48.18758" lon="-3.73329">
        <ele>151.164258</ele>
        <time>2022-12-10T18:56:49.322Z</time>
      </trkpt>
      <trkpt lat="48.18766" lon="-3.7332">
        <ele>150.805679</ele>
        <time>2022-12-10T18:56:51.295Z</time>
      </trkpt>
      <trkpt lat="48.18775" lon="-3.73312">
        <ele>150.451069</ele>
        <time>2022-12-10T18:56:53.284Z</time>
      </trkpt>
      <trkpt lat="48.18784" lon="-3.73305">
        <ele>150.085577</ele>
        <time>2022-12-10T18:56:55.323Z</time>
      </trkpt>
      <trkpt lat="48.18793" lon="-3.73297">
        <ele>149.711326</ele>
        <time>2022-12-10T18:56:57.311Z</time>
      </trkpt>
      <trkpt lat="48.18803" lon="-3.73289">
        <ele>149.329505</ele>
        <time>2022-12-10T18:56:59.288Z</time>
      </trkpt>
      <trkpt lat="48.18812" lon="-3.73281">
        <ele>148.962881</ele>
        <time>2022-12-10T18:57:01.298Z</time>
      </trkpt>
      <trkpt lat="48.18821" lon="-3.73272">
        <ele>148.601716</ele>
        <time>2022-12-10T18:57:03.306Z</time>
      </trkpt>
      <trkpt lat="48.18829" lon="-3.73264">
        <ele>148.263148</ele>
        <time>2022-12-10T18:57:05.334Z</time>
      </trkpt>
      <trkpt lat="48.18837" lon="-3.73258">
        <ele>148.027169</ele>
        <time>2022-12-10T18:57:07.342Z</time>
      </trkpt>
      <trkpt lat="48.18849" lon="-3.73249">
        <ele>147.777865</ele>
        <time>2022-12-10T18:57:10.290Z</time>
      </trkpt>
      <trkpt lat="48.18859" lon="-3.7324">
        <ele>147.542436</ele>
        <time>2022-12-10T18:57:13.305Z</time>
      </trkpt>
      <trkpt lat="48.1887" lon="-3.73232">
        <ele>147.31453</ele>
        <time>2022-12-10T18:57:16.299Z</time>
      </trkpt>
      <trkpt lat="48.1888" lon="-3.73225">
        <ele>147.097587</ele>
        <time>2022-12-10T18:57:19.288Z</time>
      </trkpt>
      <trkpt lat="48.18889" lon="-3.73217">
        <ele>146.901079</ele>
        <time>2022-12-10T18:57:22.306Z</time>
      </trkpt>
      <trkpt lat="48.18897" lon="-3.73211">
        <ele>146.713542</ele>
        <time>2022-12-10T18:57:25.317Z</time>
      </trkpt>
      <trkpt lat="48.18907" lon="-3.73203">
        <ele>146.500045</ele>
        <time>2022-12-10T18:57:29.325Z</time>
      </trkpt>
      <trkpt lat="48.18916" lon="-3.73194">
        <ele>146.29479</ele>
        <time>2022-12-10T18:57:33.308Z</time>
      </trkpt>
      <trkpt lat="48.18926" lon="-3.73186">
        <ele>146.072081</ele>
        <time>2022-12-10T18:57:37.318Z</time>
      </trkpt>
      <trkpt lat="48.18936" lon="-3.73178">
        <ele>145.849372</ele>
        <time>2022-12-10T18:57:41.294Z</time>
      </trkpt>
      <trkpt lat="48.18944" lon="-3.7317">
        <ele>145.663456</ele>
        <time>2022-12-10T18:57:45.323Z</time>
      </trkpt>
      <trkpt lat="48.18955" lon="-3.73161">
        <ele>145.427481</ele>
        <time>2022-12-10T18:57:49.338Z</time>
      </trkpt>
      <trkpt lat="48.18964" lon="-3.73155">
        <ele>145.235281</ele>
        <time>2022-12-10T18:57:52.302Z</time>
      </trkpt>
      <trkpt lat="48.18974" lon="-3.73148">
        <ele>145.019971</ele>
        <time>2022-12-10T18:57:55.293Z</time>
      </trkpt>
      <trkpt lat="48.18982" lon="-3.73139">
        <ele>144.829545</ele>
        <time>2022-12-10T18:57:58.320Z</time>
      </trkpt>
      <trkpt lat="48.18991" lon="-3.7313">
        <ele>144.560739</ele>
        <time>2022-12-10T18:58:01.310Z</time>
      </trkpt>
      <trkpt lat="48.19002" lon="-3.73121">
        <ele>143.912913</ele>
        <time>2022-12-10T18:58:04.338Z</time>
      </trkpt>
      <trkpt lat="48.19013" lon="-3.7311">
        <ele>143.265855</ele>
        <time>2022-12-10T18:58:07.303Z</time>
      </trkpt>
      <trkpt lat="48.19023" lon="-3.731">
        <ele>142.663452</ele>
        <time>2022-12-10T18:58:10.301Z</time>
      </trkpt>
      <trkpt lat="48.19032" lon="-3.73089">
        <ele>142.044646</ele>
        <time>2022-12-10T18:58:13.299Z</time>
      </trkpt>
      <trkpt lat="48.19042" lon="-3.73076">
        <ele>141.380758</ele>
        <time>2022-12-10T18:58:16.302Z</time>
      </trkpt>
      <trkpt lat="48.19051" lon="-3.73061">
        <ele>140.705649</ele>
        <time>2022-12-10T18:58:19.297Z</time>
      </trkpt>
      <trkpt lat="48.19059" lon="-3.73047">
        <ele>140.043553</ele>
        <time>2022-12-10T18:58:22.317Z</time>
      </trkpt>
      <trkpt lat="48.19067" lon="-3.73032">
        <ele>139.425643</ele>
        <time>2022-12-10T18:58:25.315Z</time>
      </trkpt>
      <trkpt lat="48.19073" lon="-3.73019">
        <ele>138.875057</ele>
        <time>2022-12-10T18:58:28.294Z</time>
      </trkpt>
      <trkpt lat="48.19079" lon="-3.73006">
        <ele>138.325829</ele>
        <time>2022-12-10T18:58:31.331Z</time>
      </trkpt>
      <trkpt lat="48.19085" lon="-3.72992">
        <ele>137.766639</ele>
        <time>2022-12-10T18:58:34.313Z</time>
      </trkpt>
      <trkpt lat="48.19089" lon="-3.72976">
        <ele>137.213791</ele>
        <time>2022-12-10T18:58:37.317Z</time>
      </trkpt>
      <trkpt lat="48.19093" lon="-3.7296">
        <ele>136.606813</ele>
        <time>2022-12-10T18:58:40.291Z</time>
      </trkpt>
      <trkpt lat="48.19098" lon="-3.72941">
        <ele>135.923693</ele>
        <time>2022-12-10T18:58:43.320Z</time>
      </trkpt>
      <trkpt lat="48.19101" lon="-3.72928">
        <ele>135.459495</ele>
        <time>2022-12-10T18:58:45.339Z</time>
      </trkpt>
      <trkpt lat="48.19103" lon="-3.72915">
        <ele>134.960795</ele>
        <time>2022-12-10T18:58:47.290Z</time>
      </trkpt>
      <trkpt lat="48.19105" lon="-3.72901">
        <ele>134.468978</ele>
        <time>2022-12-10T18:58:49.303Z</time>
      </trkpt>
      <trkpt lat="48.19108" lon="-3.72883">
        <ele>133.780822</ele>
        <time>2022-12-10T18:58:52.296Z</time>
      </trkpt>
      <trkpt lat="48.1911" lon="-3.72865">
        <ele>133.127085</ele>
        <time>2022-12-10T18:58:55.295Z</time>
      </trkpt>
      <trkpt lat="48.19111" lon="-3.72846">
        <ele>132.450693</ele>
        <time>2022-12-10T18:58:58.325Z</time>
      </trkpt>
      <trkpt lat="48.19112" lon="-3.72826">
        <ele>131.746923</ele>
        <time>2022-12-10T18:59:01.307Z</time>
      </trkpt>
      <trkpt lat="48.19111" lon="-3.7281">
        <ele>131.179957</ele>
        <time>2022-12-10T18:59:03.326Z</time>
      </trkpt>
      <trkpt lat="48.1911" lon="-3.72795">
        <ele>130.645956</ele>
        <time>2022-12-10T18:59:05.298Z</time>
      </trkpt>
      <trkpt lat="48.19109" lon="-3.72781">
        <ele>130.13843</ele>
        <time>2022-12-10T18:59:07.288Z</time>
      </trkpt>
      <trkpt lat="48.19109" lon="-3.72761">
        <ele>129.431108</ele>
        <time>2022-12-10T18:59:10.302Z</time>
      </trkpt>
      <trkpt lat="48.19108" lon="-3.72741">
        <ele>128.703078</ele>
        <time>2022-12-10T18:59:13.316Z</time>
      </trkpt>
      <trkpt lat="48.19108" lon="-3.72722">
        <ele>128.026866</ele>
        <time>2022-12-10T18:59:16.292Z</time>
      </trkpt>
      <trkpt lat="48.19107" lon="-3.72703">
        <ele>127.356693</ele>
        <time>2022-12-10T18:59:19.326Z</time>
      </trkpt>
      <trkpt lat="48.19107" lon="-3.72689">
        <ele>126.83156</ele>
        <time>2022-12-10T18:59:21.314Z</time>
      </trkpt>
      <trkpt lat="48.19106" lon="-3.72675">
        <ele>126.352387</ele>
        <time>2022-12-10T18:59:23.317Z</time>
      </trkpt>
      <trkpt lat="48.19106" lon="-3.72661">
        <ele>125.837943</ele>
        <time>2022-12-10T18:59:25.315Z</time>
      </trkpt>
      <trkpt lat="48.19105" lon="-3.72646">
        <ele>126.09996</ele>
        <time>2022-12-10T18:59:27.320Z</time>
      </trkpt>
      <trkpt lat="48.19104" lon="-3.72631">
        <ele>126.373133</ele>
        <time>2022-12-10T18:59:29.325Z</time>
      </trkpt>
      <trkpt lat="48.19105" lon="-3.72616">
        <ele>126.631369</ele>
        <time>2022-12-10T18:59:31.308Z</time>
      </trkpt>
      <trkpt lat="48.19104" lon="-3.72602">
        <ele>126.877058</ele>
        <time>2022-12-10T18:59:33.315Z</time>
      </trkpt>
      <trkpt lat="48.19103" lon="-3.72586">
        <ele>127.176149</ele>
        <time>2022-12-10T18:59:36.305Z</time>
      </trkpt>
      <trkpt lat="48.19102" lon="-3.7257">
        <ele>127.466607</ele>
        <time>2022-12-10T18:59:40.290Z</time>
      </trkpt>
      <trkpt lat="48.191" lon="-3.72554">
        <ele>127.747405</ele>
        <time>2022-12-10T18:59:44.301Z</time>
      </trkpt>
      <trkpt lat="48.19099" lon="-3.72541">
        <ele>127.994503</ele>
        <time>2022-12-10T18:59:49.301Z</time>
      </trkpt>
      <trkpt lat="48.19096" lon="-3.72526">
        <ele>128.271341</ele>
        <time>2022-12-10T18:59:56.298Z</time>
      </trkpt>
      <trkpt lat="48.19095" lon="-3.7251">
        <ele>128.558289</ele>
        <time>2022-12-10T19:00:01.298Z</time>
      </trkpt>
      <trkpt lat="48.19092" lon="-3.72496">
        <ele>128.816004</ele>
        <time>2022-12-10T19:00:06.324Z</time>
      </trkpt>
      <trkpt lat="48.19089" lon="-3.72483">
        <ele>129.061846</ele>
        <time>2022-12-10T19:00:11.306Z</time>
      </trkpt>
      <trkpt lat="48.19086" lon="-3.72468">
        <ele>129.340415</ele>
        <time>2022-12-10T19:00:17.298Z</time>
      </trkpt>
      <trkpt lat="48.1908" lon="-3.72455">
        <ele>129.628722</ele>
        <time>2022-12-10T19:00:24.314Z</time>
      </trkpt>
      <trkpt lat="48.19076" lon="-3.72443">
        <ele>129.87942</ele>
        <time>2022-12-10T19:00:30.304Z</time>
      </trkpt>
      <trkpt lat="48.19073" lon="-3.7243">
        <ele>130.123807</ele>
        <time>2022-12-10T19:00:36.285Z</time>
      </trkpt>
      <trkpt lat="48.19064" lon="-3.72406">
        <ele>130.611763</ele>
        <time>2022-12-10T19:01:33.287Z</time>
      </trkpt>
      <trkpt lat="48.19059" lon="-3.72394">
        <ele>131.096245</ele>
        <time>2022-12-10T19:01:42.287Z</time>
      </trkpt>
      <trkpt lat="48.19054" lon="-3.72382">
        <ele>131.665476</ele>
        <time>2022-12-10T19:01:51.302Z</time>
      </trkpt>
      <trkpt lat="48.19049" lon="-3.72369">
        <ele>132.230035</ele>
        <time>2022-12-10T19:02:00.318Z</time>
      </trkpt>
      <trkpt lat="48.19044" lon="-3.72357">
        <ele>132.819107</ele>
        <time>2022-12-10T19:02:08.332Z</time>
      </trkpt>
      <trkpt lat="48.1904" lon="-3.72345">
        <ele>133.363617</ele>
        <time>2022-12-10T19:02:16.310Z</time>
      </trkpt>
      <trkpt lat="48.19035" lon="-3.72332">
        <ele>133.9217</ele>
        <time>2022-12-10T19:02:25.316Z</time>
      </trkpt>
      <trkpt lat="48.19031" lon="-3.72318">
        <ele>134.500057</ele>
        <time>2022-12-10T19:02:34.306Z</time>
      </trkpt>
      <trkpt lat="48.19027" lon="-3.72306">
        <ele>135.053137</ele>
        <time>2022-12-10T19:02:43.305Z</time>
      </trkpt>
      <trkpt lat="48.19023" lon="-3.72294">
        <ele>135.585772</ele>
        <time>2022-12-10T19:02:52.288Z</time>
      </trkpt>
      <trkpt lat="48.19019" lon="-3.7228">
        <ele>136.18442</ele>
        <time>2022-12-10T19:03:01.321Z</time>
      </trkpt>
      <trkpt lat="48.19015" lon="-3.72266">
        <ele>136.772027</ele>
        <time>2022-12-10T19:03:11.295Z</time>
      </trkpt>
      <trkpt lat="48.19012" lon="-3.72253">
        <ele>137.32392</ele>
        <time>2022-12-10T19:03:20.310Z</time>
      </trkpt>
      <trkpt lat="48.19009" lon="-3.72239">
        <ele>137.886893</ele>
        <time>2022-12-10T19:03:29.304Z</time>
      </trkpt>
      <trkpt lat="48.19005" lon="-3.72226">
        <ele>138.45689</ele>
        <time>2022-12-10T19:03:37.285Z</time>
      </trkpt>
      <trkpt lat="48.19003" lon="-3.72212">
        <ele>139.012104</ele>
        <time>2022-12-10T19:03:45.288Z</time>
      </trkpt>
      <trkpt lat="48.19" lon="-3.72199">
        <ele>139.562246</ele>
        <time>2022-12-10T19:03:53.281Z</time>
      </trkpt>
      <trkpt lat="48.18999" lon="-3.72186">
        <ele>140.090519</ele>
        <time>2022-12-10T19:04:01.291Z</time>
      </trkpt>
      <trkpt lat="48.18997" lon="-3.72171">
        <ele>140.674023</ele>
        <time>2022-12-10T19:04:09.303Z</time>
      </trkpt>
      <trkpt lat="48.18995" lon="-3.72156">
        <ele>141.274275</ele>
        <time>2022-12-10T19:04:17.300Z</time>
      </trkpt>
      <trkpt lat="48.18994" lon="-3.72141">
        <ele>141.509347</ele>
        <time>2022-12-10T19:04:25.300Z</time>
      </trkpt>
      <trkpt lat="48.18994" lon="-3.72127">
        <ele>141.723714</ele>
        <time>2022-12-10T19:04:33.293Z</time>
      </trkpt>
      <trkpt lat="48.18995" lon="-3.72112">
        <ele>141.958786</ele>
        <time>2022-12-10T19:04:41.288Z</time>
      </trkpt>
      <trkpt lat="48.18996" lon="-3.72088">
        <ele>142.336237</ele>
        <time>2022-12-10T19:05:30.301Z</time>
      </trkpt>
      <trkpt lat="48.18996" lon="-3.72073">
        <ele>142.560066</ele>
        <time>2022-12-10T19:05:35.321Z</time>
      </trkpt>
      <trkpt lat="48.18994" lon="-3.72059">
        <ele>142.789483</ele>
        <time>2022-12-10T19:05:40.312Z</time>
      </trkpt>
      <trkpt lat="48.18998" lon="-3.72045">
        <ele>143.025674</ele>
        <time>2022-12-10T19:05:45.287Z</time>
      </trkpt>
      <trkpt lat="48.18998" lon="-3.72031">
        <ele>143.236936</ele>
        <time>2022-12-10T19:05:49.300Z</time>
      </trkpt>
      <trkpt lat="48.18998" lon="-3.72017">
        <ele>143.449712</ele>
        <time>2022-12-10T19:05:53.289Z</time>
      </trkpt>
      <trkpt lat="48.19" lon="-3.72002">
        <ele>143.69109</ele>
        <time>2022-12-10T19:05:58.306Z</time>
      </trkpt>
      <trkpt lat="48.19001" lon="-3.71987">
        <ele>143.930073</ele>
        <time>2022-12-10T19:06:03.299Z</time>
      </trkpt>
      <trkpt lat="48.19003" lon="-3.71973">
        <ele>144.140386</ele>
        <time>2022-12-10T19:06:07.286Z</time>
      </trkpt>
      <trkpt lat="48.19005" lon="-3.7196">
        <ele>144.358766</ele>
        <time>2022-12-10T19:06:11.298Z</time>
      </trkpt>
      <trkpt lat="48.19008" lon="-3.71946">
        <ele>144.577561</ele>
        <time>2022-12-10T19:06:15.306Z</time>
      </trkpt>
      <trkpt lat="48.19011" lon="-3.71932">
        <ele>144.800791</ele>
        <time>2022-12-10T19:06:19.299Z</time>
      </trkpt>
      <trkpt lat="48.19015" lon="-3.7192">
        <ele>145.012651</ele>
        <time>2022-12-10T19:06:23.300Z</time>
      </trkpt>
      <trkpt lat="48.19019" lon="-3.71907">
        <ele>145.242592</ele>
        <time>2022-12-10T19:06:28.296Z</time>
      </trkpt>
      <trkpt lat="48.19025" lon="-3.71895">
        <ele>145.473882</ele>
        <time>2022-12-10T19:06:33.300Z</time>
      </trkpt>
      <trkpt lat="48.1903" lon="-3.71881">
        <ele>145.712316</ele>
        <time>2022-12-10T19:06:38.293Z</time>
      </trkpt>
      <trkpt lat="48.19035" lon="-3.71868">
        <ele>145.947021</ele>
        <time>2022-12-10T19:06:43.303Z</time>
      </trkpt>
      <trkpt lat="48.19041" lon="-3.71857">
        <ele>146.181521</ele>
        <time>2022-12-10T19:06:48.299Z</time>
      </trkpt>
      <trkpt lat="48.19049" lon="-3.71848">
        <ele>146.399092</ele>
        <time>2022-12-10T19:06:53.290Z</time>
      </trkpt>
      <trkpt lat="48.19055" lon="-3.71836">
        <ele>146.630122</ele>
        <time>2022-12-10T19:06:58.321Z</time>
      </trkpt>
      <trkpt lat="48.19061" lon="-3.71826">
        <ele>146.850368</ele>
        <time>2022-12-10T19:07:03.329Z</time>
      </trkpt>
      <trkpt lat="48.19068" lon="-3.71815">
        <ele>147.08376</ele>
        <time>2022-12-10T19:07:08.302Z</time>
      </trkpt>
      <trkpt lat="48.19075" lon="-3.71804">
        <ele>147.310768</ele>
        <time>2022-12-10T19:07:13.299Z</time>
      </trkpt>
      <trkpt lat="48.19081" lon="-3.71793">
        <ele>147.544072</ele>
        <time>2022-12-10T19:07:18.295Z</time>
      </trkpt>
      <trkpt lat="48.19089" lon="-3.71782">
        <ele>147.790143</ele>
        <time>2022-12-10T19:07:23.298Z</time>
      </trkpt>
      <trkpt lat="48.19096" lon="-3.71771">
        <ele>148.02192</ele>
        <time>2022-12-10T19:07:28.296Z</time>
      </trkpt>
      <trkpt lat="48.19103" lon="-3.7176">
        <ele>148.264115</ele>
        <time>2022-12-10T19:07:34.301Z</time>
      </trkpt>
      <trkpt lat="48.1911" lon="-3.7175">
        <ele>148.480517</ele>
        <time>2022-12-10T19:07:40.302Z</time>
      </trkpt>
      <trkpt lat="48.19117" lon="-3.71741">
        <ele>148.704718</ele>
        <time>2022-12-10T19:07:46.299Z</time>
      </trkpt>
      <trkpt lat="48.19124" lon="-3.71731">
        <ele>148.930682</ele>
        <time>2022-12-10T19:07:52.301Z</time>
      </trkpt>
      <trkpt lat="48.19131" lon="-3.71719">
        <ele>149.174265</ele>
        <time>2022-12-10T19:07:58.301Z</time>
      </trkpt>
      <trkpt lat="48.19138" lon="-3.7171">
        <ele>149.394363</ele>
        <time>2022-12-10T19:08:03.312Z</time>
      </trkpt>
      <trkpt lat="48.19145" lon="-3.717">
        <ele>149.613761</ele>
        <time>2022-12-10T19:08:09.336Z</time>
      </trkpt>
      <trkpt lat="48.19152" lon="-3.71691">
        <ele>149.640801</ele>
        <time>2022-12-10T19:08:15.317Z</time>
      </trkpt>
      <trkpt lat="48.1916" lon="-3.7168">
        <ele>149.640801</ele>
        <time>2022-12-10T19:08:21.319Z</time>
      </trkpt>
      <trkpt lat="48.19166" lon="-3.71669">
        <ele>149.640801</ele>
        <time>2022-12-10T19:08:27.314Z</time>
      </trkpt>
      <trkpt lat="48.19174" lon="-3.71658">
        <ele>149.640801</ele>
        <time>2022-12-10T19:08:33.303Z</time>
      </trkpt>
      <trkpt lat="48.19182" lon="-3.71648">
        <ele>149.640801</ele>
        <time>2022-12-10T19:08:39.288Z</time>
      </trkpt>
      <trkpt lat="48.19189" lon="-3.71638">
        <ele>149.640801</ele>
        <time>2022-12-10T19:08:45.323Z</time>
      </trkpt>
      <trkpt lat="48.19196" lon="-3.71628">
        <ele>149.640801</ele>
        <time>2022-12-10T19:08:50.332Z</time>
      </trkpt>
      <trkpt lat="48.19204" lon="-3.7162">
        <ele>149.640801</ele>
        <time>2022-12-10T19:08:56.313Z</time>
      </trkpt>
      <trkpt lat="48.19211" lon="-3.71612">
        <ele>149.640801</ele>
        <time>2022-12-10T19:09:01.299Z</time>
      </trkpt>
      <trkpt lat="48.19218" lon="-3.71603">
        <ele>149.640801</ele>
        <time>2022-12-10T19:09:07.288Z</time>
      </trkpt>
      <trkpt lat="48.19225" lon="-3.71593">
        <ele>149.640801</ele>
        <time>2022-12-10T19:09:12.286Z</time>
      </trkpt>
      <trkpt lat="48.19233" lon="-3.71583">
        <ele>149.640801</ele>
        <time>2022-12-10T19:09:18.317Z</time>
      </trkpt>
      <trkpt lat="48.19241" lon="-3.71579">
        <ele>149.640801</ele>
        <time>2022-12-10T19:09:46.306Z</time>
      </trkpt>
      <trkpt lat="48.19249" lon="-3.71588">
        <ele>149.640801</ele>
        <time>2022-12-10T19:10:17.334Z</time>
      </trkpt>
      <trkpt lat="48.19249" lon="-3.71587">
        <ele>149.640801</ele>
        <time>2022-12-10T19:11:15.600Z</time>
        <extensions>
          <visugpx:TrkExtension xmlns:visugpx="https://www.visugpx.com/editgpx/">
            <visugpx:node>1</visugpx:node>
            </visugpx:TrkExtension>
        </extensions>
      </trkpt>
    </trkseg>
  </trk>
</gpx>